<?xml version="1.0" encoding="UTF-8" standalone="no" ?>
<gpx xmlns="http://www.topografix.com/GPX/1/1" xmlns:xsi="http://www.w3.org/2001/XMLSchema-instance" xsi:schemaLocation="http://www.topografix.com/GPX/1/1 http://www.topografix.com/GPX/1/1/gpx.xsd" version="1.1" creator="VisuGPX - https://www.visugpx.com">
  <metadata>
    <name>cîteaux</name>
    <desc><![CDATA[Rando cyclo du groupe 1]]></desc>
  </metadata>
  <wpt lat="47.08922" lon="5.48773">
    <ele>237</ele>
  </wpt>
  <trk>
    <name><![CDATA[cîteaux_1]]></name>
    <trkseg>
      <trkpt lat="47.08922" lon="5.48773">
        <ele>237</ele>
        <time>2012-06-19T11:01:03Z</time>
      </trkpt>
      <trkpt lat="47.08927" lon="5.48757">
        <ele>237</ele>
        <time>2012-06-19T11:01:04Z</time>
      </trkpt>
      <trkpt lat="47.08917" lon="5.48749">
        <ele>237</ele>
        <time>2012-06-19T11:01:21Z</time>
      </trkpt>
      <trkpt lat="47.08908" lon="5.48749">
        <ele>237</ele>
        <time>2012-06-19T11:01:24Z</time>
      </trkpt>
      <trkpt lat="47.08918" lon="5.48713">
        <ele>237</ele>
        <time>2012-06-19T11:01:29Z</time>
      </trkpt>
      <trkpt lat="47.08899" lon="5.48744">
        <ele>237</ele>
        <time>2012-06-19T11:01:31Z</time>
      </trkpt>
      <trkpt lat="47.08884" lon="5.48775">
        <ele>237</ele>
        <time>2012-06-19T11:01:32Z</time>
      </trkpt>
      <trkpt lat="47.08872" lon="5.48779">
        <ele>237</ele>
        <time>2012-06-19T11:01:34Z</time>
      </trkpt>
      <trkpt lat="47.08873" lon="5.4876">
        <ele>237</ele>
        <time>2012-06-19T11:01:36Z</time>
      </trkpt>
      <trkpt lat="47.08884" lon="5.48745">
        <ele>237</ele>
        <time>2012-06-19T11:01:39Z</time>
      </trkpt>
      <trkpt lat="47.08892" lon="5.48731">
        <ele>237</ele>
        <time>2012-06-19T11:01:41Z</time>
      </trkpt>
      <trkpt lat="47.08881" lon="5.48735">
        <ele>237</ele>
        <time>2012-06-19T11:01:42Z</time>
      </trkpt>
      <trkpt lat="47.08873" lon="5.48722">
        <ele>237</ele>
        <time>2012-06-19T11:01:45Z</time>
      </trkpt>
      <trkpt lat="47.08863" lon="5.48715">
        <ele>237</ele>
        <time>2012-06-19T11:01:48Z</time>
      </trkpt>
      <trkpt lat="47.08859" lon="5.48699">
        <ele>237</ele>
        <time>2012-06-19T11:01:52Z</time>
      </trkpt>
      <trkpt lat="47.08849" lon="5.48699">
        <ele>237</ele>
        <time>2012-06-19T11:01:53Z</time>
      </trkpt>
      <trkpt lat="47.08861" lon="5.48687">
        <ele>237</ele>
        <time>2012-06-19T11:01:54Z</time>
      </trkpt>
      <trkpt lat="47.0884" lon="5.48682">
        <ele>237</ele>
        <time>2012-06-19T11:01:57Z</time>
      </trkpt>
      <trkpt lat="47.08824" lon="5.48685">
        <ele>237</ele>
        <time>2012-06-19T11:01:58Z</time>
      </trkpt>
      <trkpt lat="47.08819" lon="5.48668">
        <ele>237</ele>
        <time>2012-06-19T11:02:01Z</time>
      </trkpt>
      <trkpt lat="47.08827" lon="5.4865">
        <ele>237</ele>
        <time>2012-06-19T11:02:03Z</time>
      </trkpt>
      <trkpt lat="47.08814" lon="5.48643">
        <ele>237</ele>
        <time>2012-06-19T11:02:05Z</time>
      </trkpt>
      <trkpt lat="47.088" lon="5.48644">
        <ele>237</ele>
        <time>2012-06-19T11:02:06Z</time>
      </trkpt>
      <trkpt lat="47.0881" lon="5.48624">
        <ele>237</ele>
        <time>2012-06-19T11:02:08Z</time>
      </trkpt>
      <trkpt lat="47.08798" lon="5.48614">
        <ele>237</ele>
        <time>2012-06-19T11:02:10Z</time>
      </trkpt>
      <trkpt lat="47.08784" lon="5.48607">
        <ele>237</ele>
        <time>2012-06-19T11:02:12Z</time>
      </trkpt>
      <trkpt lat="47.08784" lon="5.48592">
        <ele>237</ele>
        <time>2012-06-19T11:02:14Z</time>
      </trkpt>
      <trkpt lat="47.08791" lon="5.48574">
        <ele>237</ele>
        <time>2012-06-19T11:02:16Z</time>
      </trkpt>
      <trkpt lat="47.08772" lon="5.48577">
        <ele>237</ele>
        <time>2012-06-19T11:02:17Z</time>
      </trkpt>
      <trkpt lat="47.08768" lon="5.48563">
        <ele>237</ele>
        <time>2012-06-19T11:02:19Z</time>
      </trkpt>
      <trkpt lat="47.08756" lon="5.48557">
        <ele>237</ele>
        <time>2012-06-19T11:02:21Z</time>
      </trkpt>
      <trkpt lat="47.08765" lon="5.48546">
        <ele>237</ele>
        <time>2012-06-19T11:02:26Z</time>
      </trkpt>
      <trkpt lat="47.08765" lon="5.48562">
        <ele>237</ele>
        <time>2012-06-19T11:02:27Z</time>
      </trkpt>
      <trkpt lat="47.0883" lon="5.48312">
        <ele>237</ele>
        <time>2012-06-19T11:02:34Z</time>
      </trkpt>
      <trkpt lat="47.08824" lon="5.48301">
        <ele>237</ele>
        <time>2012-06-19T11:02:38Z</time>
      </trkpt>
      <trkpt lat="47.08816" lon="5.48287">
        <ele>229</ele>
        <time>2012-06-19T11:02:42Z</time>
      </trkpt>
      <trkpt lat="47.0881" lon="5.48276">
        <ele>229</ele>
        <time>2012-06-19T11:02:44Z</time>
      </trkpt>
      <trkpt lat="47.08803" lon="5.48265">
        <ele>229</ele>
        <time>2012-06-19T11:02:46Z</time>
      </trkpt>
      <trkpt lat="47.08794" lon="5.4826">
        <ele>229</ele>
        <time>2012-06-19T11:02:48Z</time>
      </trkpt>
      <trkpt lat="47.08784" lon="5.48265">
        <ele>229</ele>
        <time>2012-06-19T11:02:50Z</time>
      </trkpt>
      <trkpt lat="47.08775" lon="5.48278">
        <ele>229</ele>
        <time>2012-06-19T11:02:52Z</time>
      </trkpt>
      <trkpt lat="47.08763" lon="5.48289">
        <ele>229</ele>
        <time>2012-06-19T11:02:54Z</time>
      </trkpt>
      <trkpt lat="47.08751" lon="5.48303">
        <ele>235</ele>
        <time>2012-06-19T11:02:56Z</time>
      </trkpt>
      <trkpt lat="47.08738" lon="5.48317">
        <ele>235</ele>
        <time>2012-06-19T11:02:58Z</time>
      </trkpt>
      <trkpt lat="47.08726" lon="5.48333">
        <ele>235</ele>
        <time>2012-06-19T11:03:00Z</time>
      </trkpt>
      <trkpt lat="47.08713" lon="5.4835">
        <ele>235</ele>
        <time>2012-06-19T11:03:02Z</time>
      </trkpt>
      <trkpt lat="47.087" lon="5.48364">
        <ele>235</ele>
        <time>2012-06-19T11:03:04Z</time>
      </trkpt>
      <trkpt lat="47.08691" lon="5.48375">
        <ele>235</ele>
        <time>2012-06-19T11:03:06Z</time>
      </trkpt>
      <trkpt lat="47.08683" lon="5.48385">
        <ele>235</ele>
        <time>2012-06-19T11:03:08Z</time>
      </trkpt>
      <trkpt lat="47.08674" lon="5.48394">
        <ele>235</ele>
        <time>2012-06-19T11:03:11Z</time>
      </trkpt>
      <trkpt lat="47.08666" lon="5.48404">
        <ele>229</ele>
        <time>2012-06-19T11:03:17Z</time>
      </trkpt>
      <trkpt lat="47.08667" lon="5.48421">
        <ele>229</ele>
        <time>2012-06-19T11:03:21Z</time>
      </trkpt>
      <trkpt lat="47.08668" lon="5.48435">
        <ele>229</ele>
        <time>2012-06-19T11:03:24Z</time>
      </trkpt>
      <trkpt lat="47.08663" lon="5.48453">
        <ele>229</ele>
        <time>2012-06-19T11:03:27Z</time>
      </trkpt>
      <trkpt lat="47.08658" lon="5.48471">
        <ele>229</ele>
        <time>2012-06-19T11:03:29Z</time>
      </trkpt>
      <trkpt lat="47.08651" lon="5.48491">
        <ele>229</ele>
        <time>2012-06-19T11:03:31Z</time>
      </trkpt>
      <trkpt lat="47.08645" lon="5.48513">
        <ele>229</ele>
        <time>2012-06-19T11:03:33Z</time>
      </trkpt>
      <trkpt lat="47.08642" lon="5.48527">
        <ele>229</ele>
        <time>2012-06-19T11:03:34Z</time>
      </trkpt>
      <trkpt lat="47.08633" lon="5.48549">
        <ele>229</ele>
        <time>2012-06-19T11:03:36Z</time>
      </trkpt>
      <trkpt lat="47.08619" lon="5.48564">
        <ele>229</ele>
        <time>2012-06-19T11:03:38Z</time>
      </trkpt>
      <trkpt lat="47.08603" lon="5.48575">
        <ele>229</ele>
        <time>2012-06-19T11:03:40Z</time>
      </trkpt>
      <trkpt lat="47.08586" lon="5.48579">
        <ele>224</ele>
        <time>2012-06-19T11:03:42Z</time>
      </trkpt>
      <trkpt lat="47.08572" lon="5.48584">
        <ele>224</ele>
        <time>2012-06-19T11:03:44Z</time>
      </trkpt>
      <trkpt lat="47.08558" lon="5.48595">
        <ele>224</ele>
        <time>2012-06-19T11:03:46Z</time>
      </trkpt>
      <trkpt lat="47.08545" lon="5.48606">
        <ele>224</ele>
        <time>2012-06-19T11:03:48Z</time>
      </trkpt>
      <trkpt lat="47.08534" lon="5.48614">
        <ele>224</ele>
        <time>2012-06-19T11:03:50Z</time>
      </trkpt>
      <trkpt lat="47.08523" lon="5.48622">
        <ele>224</ele>
        <time>2012-06-19T11:03:53Z</time>
      </trkpt>
      <trkpt lat="47.08526" lon="5.48637">
        <ele>213</ele>
        <time>2012-06-19T11:03:56Z</time>
      </trkpt>
      <trkpt lat="47.08532" lon="5.48646">
        <ele>213</ele>
        <time>2012-06-19T11:03:58Z</time>
      </trkpt>
      <trkpt lat="47.0854" lon="5.48656">
        <ele>205</ele>
        <time>2012-06-19T11:04:00Z</time>
      </trkpt>
      <trkpt lat="47.08547" lon="5.48668">
        <ele>205</ele>
        <time>2012-06-19T11:04:02Z</time>
      </trkpt>
      <trkpt lat="47.08555" lon="5.4868">
        <ele>205</ele>
        <time>2012-06-19T11:04:04Z</time>
      </trkpt>
      <trkpt lat="47.08562" lon="5.48693">
        <ele>205</ele>
        <time>2012-06-19T11:04:06Z</time>
      </trkpt>
      <trkpt lat="47.0857" lon="5.48705">
        <ele>199</ele>
        <time>2012-06-19T11:04:08Z</time>
      </trkpt>
      <trkpt lat="47.08576" lon="5.48719">
        <ele>199</ele>
        <time>2012-06-19T11:04:10Z</time>
      </trkpt>
      <trkpt lat="47.08583" lon="5.48732">
        <ele>199</ele>
        <time>2012-06-19T11:04:12Z</time>
      </trkpt>
      <trkpt lat="47.08589" lon="5.48746">
        <ele>199</ele>
        <time>2012-06-19T11:04:14Z</time>
      </trkpt>
      <trkpt lat="47.08595" lon="5.48759">
        <ele>199</ele>
        <time>2012-06-19T11:04:16Z</time>
      </trkpt>
      <trkpt lat="47.08601" lon="5.48774">
        <ele>199</ele>
        <time>2012-06-19T11:04:18Z</time>
      </trkpt>
      <trkpt lat="47.08607" lon="5.48789">
        <ele>199</ele>
        <time>2012-06-19T11:04:20Z</time>
      </trkpt>
      <trkpt lat="47.08613" lon="5.48803">
        <ele>199</ele>
        <time>2012-06-19T11:04:22Z</time>
      </trkpt>
      <trkpt lat="47.08618" lon="5.48816">
        <ele>199</ele>
        <time>2012-06-19T11:04:24Z</time>
      </trkpt>
      <trkpt lat="47.08624" lon="5.48828">
        <ele>199</ele>
        <time>2012-06-19T11:04:26Z</time>
      </trkpt>
      <trkpt lat="47.0863" lon="5.48841">
        <ele>204</ele>
        <time>2012-06-19T11:04:28Z</time>
      </trkpt>
      <trkpt lat="47.08636" lon="5.48854">
        <ele>204</ele>
        <time>2012-06-19T11:04:30Z</time>
      </trkpt>
      <trkpt lat="47.08641" lon="5.48867">
        <ele>204</ele>
        <time>2012-06-19T11:04:32Z</time>
      </trkpt>
      <trkpt lat="47.08648" lon="5.48881">
        <ele>204</ele>
        <time>2012-06-19T11:04:34Z</time>
      </trkpt>
      <trkpt lat="47.08653" lon="5.48893">
        <ele>204</ele>
        <time>2012-06-19T11:04:36Z</time>
      </trkpt>
      <trkpt lat="47.08659" lon="5.48905">
        <ele>204</ele>
        <time>2012-06-19T11:04:38Z</time>
      </trkpt>
      <trkpt lat="47.08665" lon="5.48917">
        <ele>204</ele>
        <time>2012-06-19T11:04:40Z</time>
      </trkpt>
      <trkpt lat="47.08671" lon="5.48933">
        <ele>204</ele>
        <time>2012-06-19T11:04:42Z</time>
      </trkpt>
      <trkpt lat="47.08676" lon="5.48946">
        <ele>204</ele>
        <time>2012-06-19T11:04:44Z</time>
      </trkpt>
      <trkpt lat="47.08683" lon="5.48961">
        <ele>204</ele>
        <time>2012-06-19T11:04:46Z</time>
      </trkpt>
      <trkpt lat="47.08689" lon="5.48974">
        <ele>204</ele>
        <time>2012-06-19T11:04:48Z</time>
      </trkpt>
      <trkpt lat="47.08694" lon="5.48987">
        <ele>204</ele>
        <time>2012-06-19T11:04:50Z</time>
      </trkpt>
      <trkpt lat="47.087" lon="5.49">
        <ele>204</ele>
        <time>2012-06-19T11:04:52Z</time>
      </trkpt>
      <trkpt lat="47.08707" lon="5.49013">
        <ele>204</ele>
        <time>2012-06-19T11:04:54Z</time>
      </trkpt>
      <trkpt lat="47.08711" lon="5.49025">
        <ele>204</ele>
        <time>2012-06-19T11:04:56Z</time>
      </trkpt>
      <trkpt lat="47.08716" lon="5.49038">
        <ele>204</ele>
        <time>2012-06-19T11:04:58Z</time>
      </trkpt>
      <trkpt lat="47.08721" lon="5.49051">
        <ele>204</ele>
        <time>2012-06-19T11:05:00Z</time>
      </trkpt>
      <trkpt lat="47.08726" lon="5.49064">
        <ele>204</ele>
        <time>2012-06-19T11:05:02Z</time>
      </trkpt>
      <trkpt lat="47.0873" lon="5.49077">
        <ele>204</ele>
        <time>2012-06-19T11:05:04Z</time>
      </trkpt>
      <trkpt lat="47.08736" lon="5.49091">
        <ele>204</ele>
        <time>2012-06-19T11:05:06Z</time>
      </trkpt>
      <trkpt lat="47.08743" lon="5.49102">
        <ele>204</ele>
        <time>2012-06-19T11:05:08Z</time>
      </trkpt>
      <trkpt lat="47.08751" lon="5.49113">
        <ele>204</ele>
        <time>2012-06-19T11:05:10Z</time>
      </trkpt>
      <trkpt lat="47.08759" lon="5.49123">
        <ele>204</ele>
        <time>2012-06-19T11:05:12Z</time>
      </trkpt>
      <trkpt lat="47.08767" lon="5.49133">
        <ele>204</ele>
        <time>2012-06-19T11:05:14Z</time>
      </trkpt>
      <trkpt lat="47.08776" lon="5.49141">
        <ele>204</ele>
        <time>2012-06-19T11:05:16Z</time>
      </trkpt>
      <trkpt lat="47.08784" lon="5.49148">
        <ele>204</ele>
        <time>2012-06-19T11:05:18Z</time>
      </trkpt>
      <trkpt lat="47.08795" lon="5.49156">
        <ele>204</ele>
        <time>2012-06-19T11:05:21Z</time>
      </trkpt>
      <trkpt lat="47.08808" lon="5.49164">
        <ele>204</ele>
        <time>2012-06-19T11:05:24Z</time>
      </trkpt>
      <trkpt lat="47.08816" lon="5.49169">
        <ele>204</ele>
        <time>2012-06-19T11:05:26Z</time>
      </trkpt>
      <trkpt lat="47.08825" lon="5.49173">
        <ele>204</ele>
        <time>2012-06-19T11:05:28Z</time>
      </trkpt>
      <trkpt lat="47.08834" lon="5.49178">
        <ele>204</ele>
        <time>2012-06-19T11:05:30Z</time>
      </trkpt>
      <trkpt lat="47.08843" lon="5.49183">
        <ele>204</ele>
        <time>2012-06-19T11:05:32Z</time>
      </trkpt>
      <trkpt lat="47.08852" lon="5.49197">
        <ele>204</ele>
        <time>2012-06-19T11:05:35Z</time>
      </trkpt>
      <trkpt lat="47.08859" lon="5.49213">
        <ele>209</ele>
        <time>2012-06-19T11:05:38Z</time>
      </trkpt>
      <trkpt lat="47.08865" lon="5.49225">
        <ele>209</ele>
        <time>2012-06-19T11:05:40Z</time>
      </trkpt>
      <trkpt lat="47.0887" lon="5.49236">
        <ele>209</ele>
        <time>2012-06-19T11:05:42Z</time>
      </trkpt>
      <trkpt lat="47.08875" lon="5.49249">
        <ele>209</ele>
        <time>2012-06-19T11:05:44Z</time>
      </trkpt>
      <trkpt lat="47.08876" lon="5.49266">
        <ele>209</ele>
        <time>2012-06-19T11:05:47Z</time>
      </trkpt>
      <trkpt lat="47.08867" lon="5.49273">
        <ele>209</ele>
        <time>2012-06-19T11:05:50Z</time>
      </trkpt>
      <trkpt lat="47.08859" lon="5.49281">
        <ele>209</ele>
        <time>2012-06-19T11:05:53Z</time>
      </trkpt>
      <trkpt lat="47.08862" lon="5.493">
        <ele>209</ele>
        <time>2012-06-19T11:05:56Z</time>
      </trkpt>
      <trkpt lat="47.08868" lon="5.49314">
        <ele>215</ele>
        <time>2012-06-19T11:05:58Z</time>
      </trkpt>
      <trkpt lat="47.08874" lon="5.49331">
        <ele>215</ele>
        <time>2012-06-19T11:06:00Z</time>
      </trkpt>
      <trkpt lat="47.08878" lon="5.49347">
        <ele>215</ele>
        <time>2012-06-19T11:06:02Z</time>
      </trkpt>
      <trkpt lat="47.08879" lon="5.49361">
        <ele>209</ele>
        <time>2012-06-19T11:06:04Z</time>
      </trkpt>
      <trkpt lat="47.08883" lon="5.49375">
        <ele>209</ele>
        <time>2012-06-19T11:06:06Z</time>
      </trkpt>
      <trkpt lat="47.08886" lon="5.49387">
        <ele>209</ele>
        <time>2012-06-19T11:06:08Z</time>
      </trkpt>
      <trkpt lat="47.08891" lon="5.49401">
        <ele>209</ele>
        <time>2012-06-19T11:06:10Z</time>
      </trkpt>
      <trkpt lat="47.08894" lon="5.49416">
        <ele>209</ele>
        <time>2012-06-19T11:06:14Z</time>
      </trkpt>
      <trkpt lat="47.08886" lon="5.49427">
        <ele>209</ele>
        <time>2012-06-19T11:06:18Z</time>
      </trkpt>
      <trkpt lat="47.08876" lon="5.49434">
        <ele>209</ele>
        <time>2012-06-19T11:06:21Z</time>
      </trkpt>
      <trkpt lat="47.08868" lon="5.49441">
        <ele>209</ele>
        <time>2012-06-19T11:06:23Z</time>
      </trkpt>
      <trkpt lat="47.08859" lon="5.49447">
        <ele>209</ele>
        <time>2012-06-19T11:06:25Z</time>
      </trkpt>
      <trkpt lat="47.0885" lon="5.49453">
        <ele>209</ele>
        <time>2012-06-19T11:06:27Z</time>
      </trkpt>
      <trkpt lat="47.08841" lon="5.49458">
        <ele>209</ele>
        <time>2012-06-19T11:06:29Z</time>
      </trkpt>
      <trkpt lat="47.08832" lon="5.49464">
        <ele>209</ele>
        <time>2012-06-19T11:06:31Z</time>
      </trkpt>
      <trkpt lat="47.08824" lon="5.4947">
        <ele>209</ele>
        <time>2012-06-19T11:06:33Z</time>
      </trkpt>
      <trkpt lat="47.08815" lon="5.49475">
        <ele>209</ele>
        <time>2012-06-19T11:06:35Z</time>
      </trkpt>
      <trkpt lat="47.08807" lon="5.49481">
        <ele>209</ele>
        <time>2012-06-19T11:06:37Z</time>
      </trkpt>
      <trkpt lat="47.08798" lon="5.49486">
        <ele>209</ele>
        <time>2012-06-19T11:06:39Z</time>
      </trkpt>
      <trkpt lat="47.08789" lon="5.49491">
        <ele>209</ele>
        <time>2012-06-19T11:06:41Z</time>
      </trkpt>
      <trkpt lat="47.0878" lon="5.49498">
        <ele>209</ele>
        <time>2012-06-19T11:06:43Z</time>
      </trkpt>
      <trkpt lat="47.0877" lon="5.49504">
        <ele>209</ele>
        <time>2012-06-19T11:06:45Z</time>
      </trkpt>
      <trkpt lat="47.0876" lon="5.4951">
        <ele>209</ele>
        <time>2012-06-19T11:06:47Z</time>
      </trkpt>
      <trkpt lat="47.08749" lon="5.49517">
        <ele>209</ele>
        <time>2012-06-19T11:06:49Z</time>
      </trkpt>
      <trkpt lat="47.08739" lon="5.49525">
        <ele>209</ele>
        <time>2012-06-19T11:06:51Z</time>
      </trkpt>
      <trkpt lat="47.08727" lon="5.49526">
        <ele>209</ele>
        <time>2012-06-19T11:06:53Z</time>
      </trkpt>
      <trkpt lat="47.08713" lon="5.49517">
        <ele>209</ele>
        <time>2012-06-19T11:06:56Z</time>
      </trkpt>
      <trkpt lat="47.08705" lon="5.49499">
        <ele>209</ele>
        <time>2012-06-19T11:06:58Z</time>
      </trkpt>
      <trkpt lat="47.087" lon="5.49476">
        <ele>209</ele>
        <time>2012-06-19T11:07:00Z</time>
      </trkpt>
      <trkpt lat="47.087" lon="5.49453">
        <ele>209</ele>
        <time>2012-06-19T11:07:02Z</time>
      </trkpt>
      <trkpt lat="47.087" lon="5.49429">
        <ele>209</ele>
        <time>2012-06-19T11:07:04Z</time>
      </trkpt>
      <trkpt lat="47.08698" lon="5.49409">
        <ele>209</ele>
        <time>2012-06-19T11:07:06Z</time>
      </trkpt>
      <trkpt lat="47.08693" lon="5.49388">
        <ele>209</ele>
        <time>2012-06-19T11:07:08Z</time>
      </trkpt>
      <trkpt lat="47.08687" lon="5.49369">
        <ele>203</ele>
        <time>2012-06-19T11:07:10Z</time>
      </trkpt>
      <trkpt lat="47.08682" lon="5.49349">
        <ele>203</ele>
        <time>2012-06-19T11:07:12Z</time>
      </trkpt>
      <trkpt lat="47.08678" lon="5.49331">
        <ele>203</ele>
        <time>2012-06-19T11:07:14Z</time>
      </trkpt>
      <trkpt lat="47.08673" lon="5.49312">
        <ele>203</ele>
        <time>2012-06-19T11:07:16Z</time>
      </trkpt>
      <trkpt lat="47.08667" lon="5.49292">
        <ele>203</ele>
        <time>2012-06-19T11:07:18Z</time>
      </trkpt>
      <trkpt lat="47.08663" lon="5.49275">
        <ele>203</ele>
        <time>2012-06-19T11:07:20Z</time>
      </trkpt>
      <trkpt lat="47.08657" lon="5.49257">
        <ele>203</ele>
        <time>2012-06-19T11:07:22Z</time>
      </trkpt>
      <trkpt lat="47.08651" lon="5.49241">
        <ele>203</ele>
        <time>2012-06-19T11:07:24Z</time>
      </trkpt>
      <trkpt lat="47.08645" lon="5.49225">
        <ele>203</ele>
        <time>2012-06-19T11:07:26Z</time>
      </trkpt>
      <trkpt lat="47.08638" lon="5.49208">
        <ele>203</ele>
        <time>2012-06-19T11:07:28Z</time>
      </trkpt>
      <trkpt lat="47.0863" lon="5.49194">
        <ele>203</ele>
        <time>2012-06-19T11:07:30Z</time>
      </trkpt>
      <trkpt lat="47.08624" lon="5.49182">
        <ele>203</ele>
        <time>2012-06-19T11:07:32Z</time>
      </trkpt>
      <trkpt lat="47.08617" lon="5.49169">
        <ele>203</ele>
        <time>2012-06-19T11:07:34Z</time>
      </trkpt>
      <trkpt lat="47.08608" lon="5.49156">
        <ele>203</ele>
        <time>2012-06-19T11:07:36Z</time>
      </trkpt>
      <trkpt lat="47.08599" lon="5.49144">
        <ele>203</ele>
        <time>2012-06-19T11:07:38Z</time>
      </trkpt>
      <trkpt lat="47.08589" lon="5.49134">
        <ele>203</ele>
        <time>2012-06-19T11:07:40Z</time>
      </trkpt>
      <trkpt lat="47.08579" lon="5.49124">
        <ele>203</ele>
        <time>2012-06-19T11:07:42Z</time>
      </trkpt>
      <trkpt lat="47.0857" lon="5.49115">
        <ele>203</ele>
        <time>2012-06-19T11:07:44Z</time>
      </trkpt>
      <trkpt lat="47.08562" lon="5.49106">
        <ele>196</ele>
        <time>2012-06-19T11:07:46Z</time>
      </trkpt>
      <trkpt lat="47.08553" lon="5.49096">
        <ele>196</ele>
        <time>2012-06-19T11:07:48Z</time>
      </trkpt>
      <trkpt lat="47.08541" lon="5.49084">
        <ele>196</ele>
        <time>2012-06-19T11:07:50Z</time>
      </trkpt>
      <trkpt lat="47.08532" lon="5.49073">
        <ele>196</ele>
        <time>2012-06-19T11:07:52Z</time>
      </trkpt>
      <trkpt lat="47.08522" lon="5.4906">
        <ele>196</ele>
        <time>2012-06-19T11:07:54Z</time>
      </trkpt>
      <trkpt lat="47.08514" lon="5.49048">
        <ele>196</ele>
        <time>2012-06-19T11:07:56Z</time>
      </trkpt>
      <trkpt lat="47.08507" lon="5.49035">
        <ele>196</ele>
        <time>2012-06-19T11:07:58Z</time>
      </trkpt>
      <trkpt lat="47.08499" lon="5.49023">
        <ele>196</ele>
        <time>2012-06-19T11:08:00Z</time>
      </trkpt>
      <trkpt lat="47.08491" lon="5.49009">
        <ele>196</ele>
        <time>2012-06-19T11:08:02Z</time>
      </trkpt>
      <trkpt lat="47.08483" lon="5.48996">
        <ele>196</ele>
        <time>2012-06-19T11:08:04Z</time>
      </trkpt>
      <trkpt lat="47.08476" lon="5.48983">
        <ele>196</ele>
        <time>2012-06-19T11:08:06Z</time>
      </trkpt>
      <trkpt lat="47.08469" lon="5.48969">
        <ele>196</ele>
        <time>2012-06-19T11:08:08Z</time>
      </trkpt>
      <trkpt lat="47.0846" lon="5.48955">
        <ele>196</ele>
        <time>2012-06-19T11:08:10Z</time>
      </trkpt>
      <trkpt lat="47.08451" lon="5.48941">
        <ele>196</ele>
        <time>2012-06-19T11:08:12Z</time>
      </trkpt>
      <trkpt lat="47.08443" lon="5.48927">
        <ele>196</ele>
        <time>2012-06-19T11:08:14Z</time>
      </trkpt>
      <trkpt lat="47.08433" lon="5.48914">
        <ele>196</ele>
        <time>2012-06-19T11:08:16Z</time>
      </trkpt>
      <trkpt lat="47.08425" lon="5.48901">
        <ele>196</ele>
        <time>2012-06-19T11:08:18Z</time>
      </trkpt>
      <trkpt lat="47.08419" lon="5.4889">
        <ele>196</ele>
        <time>2012-06-19T11:08:20Z</time>
      </trkpt>
      <trkpt lat="47.08413" lon="5.48879">
        <ele>196</ele>
        <time>2012-06-19T11:08:22Z</time>
      </trkpt>
      <trkpt lat="47.08405" lon="5.48866">
        <ele>196</ele>
        <time>2012-06-19T11:08:24Z</time>
      </trkpt>
      <trkpt lat="47.084" lon="5.48852">
        <ele>196</ele>
        <time>2012-06-19T11:08:26Z</time>
      </trkpt>
      <trkpt lat="47.08396" lon="5.48837">
        <ele>196</ele>
        <time>2012-06-19T11:08:28Z</time>
      </trkpt>
      <trkpt lat="47.08386" lon="5.4883">
        <ele>196</ele>
        <time>2012-06-19T11:08:30Z</time>
      </trkpt>
      <trkpt lat="47.08375" lon="5.48833">
        <ele>196</ele>
        <time>2012-06-19T11:08:32Z</time>
      </trkpt>
      <trkpt lat="47.08373" lon="5.48852">
        <ele>196</ele>
        <time>2012-06-19T11:08:35Z</time>
      </trkpt>
      <trkpt lat="47.0838" lon="5.48861">
        <ele>196</ele>
        <time>2012-06-19T11:08:37Z</time>
      </trkpt>
      <trkpt lat="47.0839" lon="5.48861">
        <ele>196</ele>
        <time>2012-06-19T11:08:39Z</time>
      </trkpt>
      <trkpt lat="47.08397" lon="5.48851">
        <ele>203</ele>
        <time>2012-06-19T11:08:41Z</time>
      </trkpt>
      <trkpt lat="47.08397" lon="5.48837">
        <ele>203</ele>
        <time>2012-06-19T11:08:43Z</time>
      </trkpt>
      <trkpt lat="47.0839" lon="5.48828">
        <ele>203</ele>
        <time>2012-06-19T11:08:45Z</time>
      </trkpt>
      <trkpt lat="47.08379" lon="5.48822">
        <ele>203</ele>
        <time>2012-06-19T11:08:47Z</time>
      </trkpt>
      <trkpt lat="47.0837" lon="5.48812">
        <ele>203</ele>
        <time>2012-06-19T11:08:49Z</time>
      </trkpt>
      <trkpt lat="47.08362" lon="5.488">
        <ele>203</ele>
        <time>2012-06-19T11:08:51Z</time>
      </trkpt>
      <trkpt lat="47.08356" lon="5.48789">
        <ele>203</ele>
        <time>2012-06-19T11:08:53Z</time>
      </trkpt>
      <trkpt lat="47.08348" lon="5.48775">
        <ele>203</ele>
        <time>2012-06-19T11:08:55Z</time>
      </trkpt>
      <trkpt lat="47.08339" lon="5.48762">
        <ele>203</ele>
        <time>2012-06-19T11:08:57Z</time>
      </trkpt>
      <trkpt lat="47.0833" lon="5.48749">
        <ele>203</ele>
        <time>2012-06-19T11:08:59Z</time>
      </trkpt>
      <trkpt lat="47.08322" lon="5.48736">
        <ele>203</ele>
        <time>2012-06-19T11:09:01Z</time>
      </trkpt>
      <trkpt lat="47.08314" lon="5.48723">
        <ele>203</ele>
        <time>2012-06-19T11:09:03Z</time>
      </trkpt>
      <trkpt lat="47.08306" lon="5.48711">
        <ele>203</ele>
        <time>2012-06-19T11:09:05Z</time>
      </trkpt>
      <trkpt lat="47.08297" lon="5.48696">
        <ele>203</ele>
        <time>2012-06-19T11:09:07Z</time>
      </trkpt>
      <trkpt lat="47.08289" lon="5.48684">
        <ele>203</ele>
        <time>2012-06-19T11:09:09Z</time>
      </trkpt>
      <trkpt lat="47.08283" lon="5.48672">
        <ele>203</ele>
        <time>2012-06-19T11:09:11Z</time>
      </trkpt>
      <trkpt lat="47.08275" lon="5.4866">
        <ele>203</ele>
        <time>2012-06-19T11:09:13Z</time>
      </trkpt>
      <trkpt lat="47.08266" lon="5.48646">
        <ele>203</ele>
        <time>2012-06-19T11:09:15Z</time>
      </trkpt>
      <trkpt lat="47.08257" lon="5.48633">
        <ele>203</ele>
        <time>2012-06-19T11:09:17Z</time>
      </trkpt>
      <trkpt lat="47.08248" lon="5.48621">
        <ele>203</ele>
        <time>2012-06-19T11:09:19Z</time>
      </trkpt>
      <trkpt lat="47.08238" lon="5.48607">
        <ele>203</ele>
        <time>2012-06-19T11:09:21Z</time>
      </trkpt>
      <trkpt lat="47.08229" lon="5.48596">
        <ele>203</ele>
        <time>2012-06-19T11:09:23Z</time>
      </trkpt>
      <trkpt lat="47.0822" lon="5.48586">
        <ele>203</ele>
        <time>2012-06-19T11:09:25Z</time>
      </trkpt>
      <trkpt lat="47.08209" lon="5.48575">
        <ele>203</ele>
        <time>2012-06-19T11:09:27Z</time>
      </trkpt>
      <trkpt lat="47.082" lon="5.48565">
        <ele>203</ele>
        <time>2012-06-19T11:09:29Z</time>
      </trkpt>
      <trkpt lat="47.08192" lon="5.48558">
        <ele>203</ele>
        <time>2012-06-19T11:09:31Z</time>
      </trkpt>
      <trkpt lat="47.08183" lon="5.4855">
        <ele>203</ele>
        <time>2012-06-19T11:09:33Z</time>
      </trkpt>
      <trkpt lat="47.08173" lon="5.48543">
        <ele>203</ele>
        <time>2012-06-19T11:09:35Z</time>
      </trkpt>
      <trkpt lat="47.08163" lon="5.48536">
        <ele>203</ele>
        <time>2012-06-19T11:09:37Z</time>
      </trkpt>
      <trkpt lat="47.08152" lon="5.48528">
        <ele>203</ele>
        <time>2012-06-19T11:09:39Z</time>
      </trkpt>
      <trkpt lat="47.0814" lon="5.48518">
        <ele>203</ele>
        <time>2012-06-19T11:09:41Z</time>
      </trkpt>
      <trkpt lat="47.08129" lon="5.4851">
        <ele>203</ele>
        <time>2012-06-19T11:09:43Z</time>
      </trkpt>
      <trkpt lat="47.08119" lon="5.48502">
        <ele>203</ele>
        <time>2012-06-19T11:09:45Z</time>
      </trkpt>
      <trkpt lat="47.08109" lon="5.48494">
        <ele>203</ele>
        <time>2012-06-19T11:09:47Z</time>
      </trkpt>
      <trkpt lat="47.08099" lon="5.48487">
        <ele>203</ele>
        <time>2012-06-19T11:09:49Z</time>
      </trkpt>
      <trkpt lat="47.0809" lon="5.48481">
        <ele>203</ele>
        <time>2012-06-19T11:09:51Z</time>
      </trkpt>
      <trkpt lat="47.08081" lon="5.48475">
        <ele>203</ele>
        <time>2012-06-19T11:09:53Z</time>
      </trkpt>
      <trkpt lat="47.0807" lon="5.48474">
        <ele>203</ele>
        <time>2012-06-19T11:09:55Z</time>
      </trkpt>
      <trkpt lat="47.0806" lon="5.48477">
        <ele>203</ele>
        <time>2012-06-19T11:09:57Z</time>
      </trkpt>
      <trkpt lat="47.08051" lon="5.48487">
        <ele>203</ele>
        <time>2012-06-19T11:09:59Z</time>
      </trkpt>
      <trkpt lat="47.08045" lon="5.48501">
        <ele>203</ele>
        <time>2012-06-19T11:10:01Z</time>
      </trkpt>
      <trkpt lat="47.0804" lon="5.48516">
        <ele>203</ele>
        <time>2012-06-19T11:10:03Z</time>
      </trkpt>
      <trkpt lat="47.08035" lon="5.4853">
        <ele>203</ele>
        <time>2012-06-19T11:10:05Z</time>
      </trkpt>
      <trkpt lat="47.0803" lon="5.48546">
        <ele>203</ele>
        <time>2012-06-19T11:10:07Z</time>
      </trkpt>
      <trkpt lat="47.08025" lon="5.48562">
        <ele>203</ele>
        <time>2012-06-19T11:10:09Z</time>
      </trkpt>
      <trkpt lat="47.0802" lon="5.48578">
        <ele>203</ele>
        <time>2012-06-19T11:10:11Z</time>
      </trkpt>
      <trkpt lat="47.08015" lon="5.48593">
        <ele>203</ele>
        <time>2012-06-19T11:10:13Z</time>
      </trkpt>
      <trkpt lat="47.0801" lon="5.48607">
        <ele>203</ele>
        <time>2012-06-19T11:10:15Z</time>
      </trkpt>
      <trkpt lat="47.08005" lon="5.48621">
        <ele>203</ele>
        <time>2012-06-19T11:10:17Z</time>
      </trkpt>
      <trkpt lat="47.08" lon="5.48636">
        <ele>203</ele>
        <time>2012-06-19T11:10:19Z</time>
      </trkpt>
      <trkpt lat="47.07994" lon="5.48651">
        <ele>203</ele>
        <time>2012-06-19T11:10:21Z</time>
      </trkpt>
      <trkpt lat="47.07989" lon="5.48665">
        <ele>203</ele>
        <time>2012-06-19T11:10:23Z</time>
      </trkpt>
      <trkpt lat="47.07984" lon="5.48679">
        <ele>203</ele>
        <time>2012-06-19T11:10:25Z</time>
      </trkpt>
      <trkpt lat="47.07979" lon="5.48694">
        <ele>203</ele>
        <time>2012-06-19T11:10:27Z</time>
      </trkpt>
      <trkpt lat="47.07974" lon="5.48709">
        <ele>203</ele>
        <time>2012-06-19T11:10:29Z</time>
      </trkpt>
      <trkpt lat="47.07969" lon="5.48723">
        <ele>203</ele>
        <time>2012-06-19T11:10:31Z</time>
      </trkpt>
      <trkpt lat="47.07963" lon="5.48739">
        <ele>203</ele>
        <time>2012-06-19T11:10:33Z</time>
      </trkpt>
      <trkpt lat="47.07958" lon="5.48752">
        <ele>197</ele>
        <time>2012-06-19T11:10:35Z</time>
      </trkpt>
      <trkpt lat="47.07953" lon="5.48767">
        <ele>197</ele>
        <time>2012-06-19T11:10:37Z</time>
      </trkpt>
      <trkpt lat="47.07948" lon="5.48782">
        <ele>197</ele>
        <time>2012-06-19T11:10:39Z</time>
      </trkpt>
      <trkpt lat="47.07943" lon="5.48796">
        <ele>197</ele>
        <time>2012-06-19T11:10:41Z</time>
      </trkpt>
      <trkpt lat="47.07938" lon="5.48811">
        <ele>197</ele>
        <time>2012-06-19T11:10:43Z</time>
      </trkpt>
      <trkpt lat="47.07932" lon="5.48826">
        <ele>197</ele>
        <time>2012-06-19T11:10:45Z</time>
      </trkpt>
      <trkpt lat="47.07927" lon="5.4884">
        <ele>197</ele>
        <time>2012-06-19T11:10:47Z</time>
      </trkpt>
      <trkpt lat="47.07922" lon="5.48855">
        <ele>197</ele>
        <time>2012-06-19T11:10:49Z</time>
      </trkpt>
      <trkpt lat="47.07917" lon="5.4887">
        <ele>197</ele>
        <time>2012-06-19T11:10:51Z</time>
      </trkpt>
      <trkpt lat="47.07912" lon="5.48884">
        <ele>197</ele>
        <time>2012-06-19T11:10:53Z</time>
      </trkpt>
      <trkpt lat="47.07908" lon="5.48899">
        <ele>197</ele>
        <time>2012-06-19T11:10:55Z</time>
      </trkpt>
      <trkpt lat="47.07902" lon="5.48915">
        <ele>197</ele>
        <time>2012-06-19T11:10:57Z</time>
      </trkpt>
      <trkpt lat="47.07895" lon="5.48927">
        <ele>197</ele>
        <time>2012-06-19T11:10:59Z</time>
      </trkpt>
      <trkpt lat="47.07886" lon="5.48937">
        <ele>197</ele>
        <time>2012-06-19T11:11:01Z</time>
      </trkpt>
      <trkpt lat="47.07876" lon="5.48945">
        <ele>197</ele>
        <time>2012-06-19T11:11:03Z</time>
      </trkpt>
      <trkpt lat="47.07865" lon="5.48952">
        <ele>197</ele>
        <time>2012-06-19T11:11:05Z</time>
      </trkpt>
      <trkpt lat="47.07853" lon="5.48955">
        <ele>197</ele>
        <time>2012-06-19T11:11:07Z</time>
      </trkpt>
      <trkpt lat="47.07841" lon="5.48956">
        <ele>197</ele>
        <time>2012-06-19T11:11:09Z</time>
      </trkpt>
      <trkpt lat="47.0783" lon="5.48953">
        <ele>197</ele>
        <time>2012-06-19T11:11:11Z</time>
      </trkpt>
      <trkpt lat="47.07819" lon="5.48946">
        <ele>197</ele>
        <time>2012-06-19T11:11:13Z</time>
      </trkpt>
      <trkpt lat="47.07811" lon="5.48934">
        <ele>197</ele>
        <time>2012-06-19T11:11:15Z</time>
      </trkpt>
      <trkpt lat="47.07809" lon="5.48919">
        <ele>197</ele>
        <time>2012-06-19T11:11:17Z</time>
      </trkpt>
      <trkpt lat="47.07806" lon="5.48905">
        <ele>197</ele>
        <time>2012-06-19T11:11:19Z</time>
      </trkpt>
      <trkpt lat="47.078" lon="5.48891">
        <ele>197</ele>
        <time>2012-06-19T11:11:21Z</time>
      </trkpt>
      <trkpt lat="47.07793" lon="5.48881">
        <ele>197</ele>
        <time>2012-06-19T11:11:23Z</time>
      </trkpt>
      <trkpt lat="47.07784" lon="5.48876">
        <ele>197</ele>
        <time>2012-06-19T11:11:25Z</time>
      </trkpt>
      <trkpt lat="47.07775" lon="5.48873">
        <ele>197</ele>
        <time>2012-06-19T11:11:27Z</time>
      </trkpt>
      <trkpt lat="47.07765" lon="5.48875">
        <ele>197</ele>
        <time>2012-06-19T11:11:29Z</time>
      </trkpt>
      <trkpt lat="47.07755" lon="5.48884">
        <ele>197</ele>
        <time>2012-06-19T11:11:31Z</time>
      </trkpt>
      <trkpt lat="47.07746" lon="5.48893">
        <ele>197</ele>
        <time>2012-06-19T11:11:33Z</time>
      </trkpt>
      <trkpt lat="47.07735" lon="5.48892">
        <ele>197</ele>
        <time>2012-06-19T11:11:35Z</time>
      </trkpt>
      <trkpt lat="47.07724" lon="5.48889">
        <ele>197</ele>
        <time>2012-06-19T11:11:37Z</time>
      </trkpt>
      <trkpt lat="47.07713" lon="5.48888">
        <ele>202</ele>
        <time>2012-06-19T11:11:39Z</time>
      </trkpt>
      <trkpt lat="47.07703" lon="5.48894">
        <ele>202</ele>
        <time>2012-06-19T11:11:41Z</time>
      </trkpt>
      <trkpt lat="47.07696" lon="5.48906">
        <ele>202</ele>
        <time>2012-06-19T11:11:43Z</time>
      </trkpt>
      <trkpt lat="47.0769" lon="5.48922">
        <ele>202</ele>
        <time>2012-06-19T11:11:45Z</time>
      </trkpt>
      <trkpt lat="47.07688" lon="5.48937">
        <ele>202</ele>
        <time>2012-06-19T11:11:47Z</time>
      </trkpt>
      <trkpt lat="47.07686" lon="5.48953">
        <ele>202</ele>
        <time>2012-06-19T11:11:49Z</time>
      </trkpt>
      <trkpt lat="47.07681" lon="5.48969">
        <ele>202</ele>
        <time>2012-06-19T11:11:51Z</time>
      </trkpt>
      <trkpt lat="47.07674" lon="5.48981">
        <ele>202</ele>
        <time>2012-06-19T11:11:53Z</time>
      </trkpt>
      <trkpt lat="47.07665" lon="5.48991">
        <ele>202</ele>
        <time>2012-06-19T11:11:55Z</time>
      </trkpt>
      <trkpt lat="47.07657" lon="5.49002">
        <ele>202</ele>
        <time>2012-06-19T11:11:57Z</time>
      </trkpt>
      <trkpt lat="47.07648" lon="5.49012">
        <ele>202</ele>
        <time>2012-06-19T11:11:59Z</time>
      </trkpt>
      <trkpt lat="47.07639" lon="5.49023">
        <ele>202</ele>
        <time>2012-06-19T11:12:01Z</time>
      </trkpt>
      <trkpt lat="47.07631" lon="5.49033">
        <ele>202</ele>
        <time>2012-06-19T11:12:03Z</time>
      </trkpt>
      <trkpt lat="47.07624" lon="5.49044">
        <ele>208</ele>
        <time>2012-06-19T11:12:05Z</time>
      </trkpt>
      <trkpt lat="47.07616" lon="5.49055">
        <ele>208</ele>
        <time>2012-06-19T11:12:07Z</time>
      </trkpt>
      <trkpt lat="47.07609" lon="5.49066">
        <ele>208</ele>
        <time>2012-06-19T11:12:09Z</time>
      </trkpt>
      <trkpt lat="47.07602" lon="5.49076">
        <ele>208</ele>
        <time>2012-06-19T11:12:11Z</time>
      </trkpt>
      <trkpt lat="47.07595" lon="5.49087">
        <ele>208</ele>
        <time>2012-06-19T11:12:13Z</time>
      </trkpt>
      <trkpt lat="47.07587" lon="5.49097">
        <ele>208</ele>
        <time>2012-06-19T11:12:15Z</time>
      </trkpt>
      <trkpt lat="47.07578" lon="5.49104">
        <ele>208</ele>
        <time>2012-06-19T11:12:17Z</time>
      </trkpt>
      <trkpt lat="47.07568" lon="5.49108">
        <ele>208</ele>
        <time>2012-06-19T11:12:19Z</time>
      </trkpt>
      <trkpt lat="47.07558" lon="5.49108">
        <ele>208</ele>
        <time>2012-06-19T11:12:21Z</time>
      </trkpt>
      <trkpt lat="47.07547" lon="5.49103">
        <ele>208</ele>
        <time>2012-06-19T11:12:23Z</time>
      </trkpt>
      <trkpt lat="47.07538" lon="5.49095">
        <ele>202</ele>
        <time>2012-06-19T11:12:25Z</time>
      </trkpt>
      <trkpt lat="47.07531" lon="5.49084">
        <ele>202</ele>
        <time>2012-06-19T11:12:27Z</time>
      </trkpt>
      <trkpt lat="47.07524" lon="5.4907">
        <ele>202</ele>
        <time>2012-06-19T11:12:29Z</time>
      </trkpt>
      <trkpt lat="47.07517" lon="5.49057">
        <ele>202</ele>
        <time>2012-06-19T11:12:31Z</time>
      </trkpt>
      <trkpt lat="47.07511" lon="5.49043">
        <ele>202</ele>
        <time>2012-06-19T11:12:33Z</time>
      </trkpt>
      <trkpt lat="47.07503" lon="5.49028">
        <ele>202</ele>
        <time>2012-06-19T11:12:35Z</time>
      </trkpt>
      <trkpt lat="47.07496" lon="5.49014">
        <ele>202</ele>
        <time>2012-06-19T11:12:37Z</time>
      </trkpt>
      <trkpt lat="47.0749" lon="5.49001">
        <ele>202</ele>
        <time>2012-06-19T11:12:39Z</time>
      </trkpt>
      <trkpt lat="47.07484" lon="5.48987">
        <ele>202</ele>
        <time>2012-06-19T11:12:41Z</time>
      </trkpt>
      <trkpt lat="47.07477" lon="5.48973">
        <ele>202</ele>
        <time>2012-06-19T11:12:43Z</time>
      </trkpt>
      <trkpt lat="47.07471" lon="5.4896">
        <ele>202</ele>
        <time>2012-06-19T11:12:45Z</time>
      </trkpt>
      <trkpt lat="47.07464" lon="5.48946">
        <ele>202</ele>
        <time>2012-06-19T11:12:47Z</time>
      </trkpt>
      <trkpt lat="47.07458" lon="5.48933">
        <ele>202</ele>
        <time>2012-06-19T11:12:49Z</time>
      </trkpt>
      <trkpt lat="47.07451" lon="5.48919">
        <ele>202</ele>
        <time>2012-06-19T11:12:51Z</time>
      </trkpt>
      <trkpt lat="47.07444" lon="5.48907">
        <ele>197</ele>
        <time>2012-06-19T11:12:53Z</time>
      </trkpt>
      <trkpt lat="47.07437" lon="5.48893">
        <ele>197</ele>
        <time>2012-06-19T11:12:55Z</time>
      </trkpt>
      <trkpt lat="47.0743" lon="5.4888">
        <ele>197</ele>
        <time>2012-06-19T11:12:57Z</time>
      </trkpt>
      <trkpt lat="47.07424" lon="5.48866">
        <ele>197</ele>
        <time>2012-06-19T11:12:59Z</time>
      </trkpt>
      <trkpt lat="47.07417" lon="5.48853">
        <ele>197</ele>
        <time>2012-06-19T11:13:01Z</time>
      </trkpt>
      <trkpt lat="47.07411" lon="5.48839">
        <ele>197</ele>
        <time>2012-06-19T11:13:03Z</time>
      </trkpt>
      <trkpt lat="47.07404" lon="5.48826">
        <ele>197</ele>
        <time>2012-06-19T11:13:05Z</time>
      </trkpt>
      <trkpt lat="47.07397" lon="5.48812">
        <ele>197</ele>
        <time>2012-06-19T11:13:07Z</time>
      </trkpt>
      <trkpt lat="47.0739" lon="5.48801">
        <ele>197</ele>
        <time>2012-06-19T11:13:09Z</time>
      </trkpt>
      <trkpt lat="47.07384" lon="5.48787">
        <ele>197</ele>
        <time>2012-06-19T11:13:11Z</time>
      </trkpt>
      <trkpt lat="47.07378" lon="5.48776">
        <ele>197</ele>
        <time>2012-06-19T11:13:13Z</time>
      </trkpt>
      <trkpt lat="47.07371" lon="5.4876">
        <ele>197</ele>
        <time>2012-06-19T11:13:16Z</time>
      </trkpt>
      <trkpt lat="47.07366" lon="5.48749">
        <ele>197</ele>
        <time>2012-06-19T11:13:18Z</time>
      </trkpt>
      <trkpt lat="47.07361" lon="5.48738">
        <ele>197</ele>
        <time>2012-06-19T11:13:20Z</time>
      </trkpt>
      <trkpt lat="47.07355" lon="5.48727">
        <ele>197</ele>
        <time>2012-06-19T11:13:22Z</time>
      </trkpt>
      <trkpt lat="47.07347" lon="5.48711">
        <ele>197</ele>
        <time>2012-06-19T11:13:25Z</time>
      </trkpt>
      <trkpt lat="47.07341" lon="5.48701">
        <ele>197</ele>
        <time>2012-06-19T11:13:27Z</time>
      </trkpt>
      <trkpt lat="47.07332" lon="5.48687">
        <ele>197</ele>
        <time>2012-06-19T11:13:30Z</time>
      </trkpt>
      <trkpt lat="47.07325" lon="5.48678">
        <ele>197</ele>
        <time>2012-06-19T11:13:32Z</time>
      </trkpt>
      <trkpt lat="47.07314" lon="5.48669">
        <ele>197</ele>
        <time>2012-06-19T11:13:35Z</time>
      </trkpt>
      <trkpt lat="47.0731" lon="5.48653">
        <ele>197</ele>
        <time>2012-06-19T11:13:38Z</time>
      </trkpt>
      <trkpt lat="47.07307" lon="5.48635">
        <ele>197</ele>
        <time>2012-06-19T11:13:41Z</time>
      </trkpt>
      <trkpt lat="47.07299" lon="5.48621">
        <ele>197</ele>
        <time>2012-06-19T11:13:44Z</time>
      </trkpt>
      <trkpt lat="47.07292" lon="5.4861">
        <ele>197</ele>
        <time>2012-06-19T11:13:47Z</time>
      </trkpt>
      <trkpt lat="47.07287" lon="5.48598">
        <ele>204</ele>
        <time>2012-06-19T11:13:50Z</time>
      </trkpt>
      <trkpt lat="47.07277" lon="5.48595">
        <ele>204</ele>
        <time>2012-06-19T11:13:54Z</time>
      </trkpt>
      <trkpt lat="47.07274" lon="5.48609">
        <ele>204</ele>
        <time>2012-06-19T11:13:57Z</time>
      </trkpt>
      <trkpt lat="47.07282" lon="5.48616">
        <ele>204</ele>
        <time>2012-06-19T11:14:00Z</time>
      </trkpt>
      <trkpt lat="47.07294" lon="5.48623">
        <ele>204</ele>
        <time>2012-06-19T11:14:03Z</time>
      </trkpt>
      <trkpt lat="47.07303" lon="5.48632">
        <ele>204</ele>
        <time>2012-06-19T11:14:05Z</time>
      </trkpt>
      <trkpt lat="47.07309" lon="5.48647">
        <ele>204</ele>
        <time>2012-06-19T11:14:07Z</time>
      </trkpt>
      <trkpt lat="47.07311" lon="5.48662">
        <ele>204</ele>
        <time>2012-06-19T11:14:09Z</time>
      </trkpt>
      <trkpt lat="47.07317" lon="5.48677">
        <ele>204</ele>
        <time>2012-06-19T11:14:11Z</time>
      </trkpt>
      <trkpt lat="47.07325" lon="5.4869">
        <ele>204</ele>
        <time>2012-06-19T11:14:13Z</time>
      </trkpt>
      <trkpt lat="47.07333" lon="5.48702">
        <ele>199</ele>
        <time>2012-06-19T11:14:15Z</time>
      </trkpt>
      <trkpt lat="47.07342" lon="5.48713">
        <ele>199</ele>
        <time>2012-06-19T11:14:17Z</time>
      </trkpt>
      <trkpt lat="47.07351" lon="5.48725">
        <ele>199</ele>
        <time>2012-06-19T11:14:19Z</time>
      </trkpt>
      <trkpt lat="47.07358" lon="5.48739">
        <ele>199</ele>
        <time>2012-06-19T11:14:21Z</time>
      </trkpt>
      <trkpt lat="47.07364" lon="5.48752">
        <ele>199</ele>
        <time>2012-06-19T11:14:23Z</time>
      </trkpt>
      <trkpt lat="47.07371" lon="5.48767">
        <ele>199</ele>
        <time>2012-06-19T11:14:25Z</time>
      </trkpt>
      <trkpt lat="47.07377" lon="5.48781">
        <ele>199</ele>
        <time>2012-06-19T11:14:27Z</time>
      </trkpt>
      <trkpt lat="47.07384" lon="5.48794">
        <ele>199</ele>
        <time>2012-06-19T11:14:29Z</time>
      </trkpt>
      <trkpt lat="47.0739" lon="5.48808">
        <ele>199</ele>
        <time>2012-06-19T11:14:31Z</time>
      </trkpt>
      <trkpt lat="47.07396" lon="5.4882">
        <ele>199</ele>
        <time>2012-06-19T11:14:33Z</time>
      </trkpt>
      <trkpt lat="47.07403" lon="5.48833">
        <ele>199</ele>
        <time>2012-06-19T11:14:35Z</time>
      </trkpt>
      <trkpt lat="47.07409" lon="5.48846">
        <ele>199</ele>
        <time>2012-06-19T11:14:37Z</time>
      </trkpt>
      <trkpt lat="47.07415" lon="5.48857">
        <ele>199</ele>
        <time>2012-06-19T11:14:39Z</time>
      </trkpt>
      <trkpt lat="47.07422" lon="5.48869">
        <ele>199</ele>
        <time>2012-06-19T11:14:41Z</time>
      </trkpt>
      <trkpt lat="47.07427" lon="5.48881">
        <ele>199</ele>
        <time>2012-06-19T11:14:43Z</time>
      </trkpt>
      <trkpt lat="47.07433" lon="5.48893">
        <ele>199</ele>
        <time>2012-06-19T11:14:45Z</time>
      </trkpt>
      <trkpt lat="47.07439" lon="5.48905">
        <ele>199</ele>
        <time>2012-06-19T11:14:47Z</time>
      </trkpt>
      <trkpt lat="47.07444" lon="5.48917">
        <ele>199</ele>
        <time>2012-06-19T11:14:49Z</time>
      </trkpt>
      <trkpt lat="47.0745" lon="5.48928">
        <ele>199</ele>
        <time>2012-06-19T11:14:51Z</time>
      </trkpt>
      <trkpt lat="47.07456" lon="5.48939">
        <ele>199</ele>
        <time>2012-06-19T11:14:53Z</time>
      </trkpt>
      <trkpt lat="47.07461" lon="5.48951">
        <ele>199</ele>
        <time>2012-06-19T11:14:55Z</time>
      </trkpt>
      <trkpt lat="47.07467" lon="5.48961">
        <ele>199</ele>
        <time>2012-06-19T11:14:57Z</time>
      </trkpt>
      <trkpt lat="47.07473" lon="5.48972">
        <ele>199</ele>
        <time>2012-06-19T11:14:59Z</time>
      </trkpt>
      <trkpt lat="47.07479" lon="5.48984">
        <ele>199</ele>
        <time>2012-06-19T11:15:01Z</time>
      </trkpt>
      <trkpt lat="47.07484" lon="5.48995">
        <ele>199</ele>
        <time>2012-06-19T11:15:03Z</time>
      </trkpt>
      <trkpt lat="47.0749" lon="5.49006">
        <ele>199</ele>
        <time>2012-06-19T11:15:05Z</time>
      </trkpt>
      <trkpt lat="47.07498" lon="5.49023">
        <ele>199</ele>
        <time>2012-06-19T11:15:08Z</time>
      </trkpt>
      <trkpt lat="47.07505" lon="5.49038">
        <ele>199</ele>
        <time>2012-06-19T11:15:11Z</time>
      </trkpt>
      <trkpt lat="47.07507" lon="5.49051">
        <ele>199</ele>
        <time>2012-06-19T11:15:14Z</time>
      </trkpt>
      <trkpt lat="47.07504" lon="5.49064">
        <ele>207</ele>
        <time>2012-06-19T11:15:22Z</time>
      </trkpt>
      <trkpt lat="47.07505" lon="5.4905">
        <ele>198</ele>
        <time>2012-06-19T11:17:52Z</time>
      </trkpt>
      <trkpt lat="47.07501" lon="5.49038">
        <ele>198</ele>
        <time>2012-06-19T11:18:02Z</time>
      </trkpt>
      <trkpt lat="47.07509" lon="5.49045">
        <ele>206</ele>
        <time>2012-06-19T11:20:33Z</time>
      </trkpt>
      <trkpt lat="47.07512" lon="5.49058">
        <ele>206</ele>
        <time>2012-06-19T11:20:40Z</time>
      </trkpt>
      <trkpt lat="47.07517" lon="5.49069">
        <ele>206</ele>
        <time>2012-06-19T11:28:04Z</time>
      </trkpt>
      <trkpt lat="47.07515" lon="5.49057">
        <ele>206</ele>
        <time>2012-06-19T11:33:30Z</time>
      </trkpt>
      <trkpt lat="47.07514" lon="5.4907">
        <ele>206</ele>
        <time>2012-06-19T11:42:02Z</time>
      </trkpt>
      <trkpt lat="47.07511" lon="5.49058">
        <ele>199</ele>
        <time>2012-06-19T11:44:09Z</time>
      </trkpt>
      <trkpt lat="47.0752" lon="5.49067">
        <ele>199</ele>
        <time>2012-06-19T11:47:44Z</time>
      </trkpt>
      <trkpt lat="47.07526" lon="5.49079">
        <ele>199</ele>
        <time>2012-06-19T11:47:49Z</time>
      </trkpt>
      <trkpt lat="47.07533" lon="5.4909">
        <ele>199</ele>
        <time>2012-06-19T11:47:53Z</time>
      </trkpt>
      <trkpt lat="47.0754" lon="5.49099">
        <ele>199</ele>
        <time>2012-06-19T11:47:57Z</time>
      </trkpt>
      <trkpt lat="47.0755" lon="5.49107">
        <ele>199</ele>
        <time>2012-06-19T11:48:01Z</time>
      </trkpt>
      <trkpt lat="47.07558" lon="5.49111">
        <ele>199</ele>
        <time>2012-06-19T11:48:04Z</time>
      </trkpt>
      <trkpt lat="47.07568" lon="5.49112">
        <ele>199</ele>
        <time>2012-06-19T11:48:07Z</time>
      </trkpt>
      <trkpt lat="47.07577" lon="5.4911">
        <ele>199</ele>
        <time>2012-06-19T11:48:10Z</time>
      </trkpt>
      <trkpt lat="47.07587" lon="5.49103">
        <ele>199</ele>
        <time>2012-06-19T11:48:13Z</time>
      </trkpt>
      <trkpt lat="47.07595" lon="5.49094">
        <ele>199</ele>
        <time>2012-06-19T11:48:16Z</time>
      </trkpt>
      <trkpt lat="47.07603" lon="5.49083">
        <ele>199</ele>
        <time>2012-06-19T11:48:19Z</time>
      </trkpt>
      <trkpt lat="47.07609" lon="5.49071">
        <ele>199</ele>
        <time>2012-06-19T11:48:22Z</time>
      </trkpt>
      <trkpt lat="47.07617" lon="5.49058">
        <ele>199</ele>
        <time>2012-06-19T11:48:25Z</time>
      </trkpt>
      <trkpt lat="47.07626" lon="5.49045">
        <ele>199</ele>
        <time>2012-06-19T11:48:28Z</time>
      </trkpt>
      <trkpt lat="47.07633" lon="5.49036">
        <ele>199</ele>
        <time>2012-06-19T11:48:30Z</time>
      </trkpt>
      <trkpt lat="47.0764" lon="5.49027">
        <ele>199</ele>
        <time>2012-06-19T11:48:32Z</time>
      </trkpt>
      <trkpt lat="47.07648" lon="5.49016">
        <ele>199</ele>
        <time>2012-06-19T11:48:34Z</time>
      </trkpt>
      <trkpt lat="47.07656" lon="5.49006">
        <ele>199</ele>
        <time>2012-06-19T11:48:36Z</time>
      </trkpt>
      <trkpt lat="47.07664" lon="5.48996">
        <ele>199</ele>
        <time>2012-06-19T11:48:38Z</time>
      </trkpt>
      <trkpt lat="47.07673" lon="5.48987">
        <ele>199</ele>
        <time>2012-06-19T11:48:40Z</time>
      </trkpt>
      <trkpt lat="47.07681" lon="5.48977">
        <ele>199</ele>
        <time>2012-06-19T11:48:42Z</time>
      </trkpt>
      <trkpt lat="47.07687" lon="5.48964">
        <ele>199</ele>
        <time>2012-06-19T11:48:44Z</time>
      </trkpt>
      <trkpt lat="47.07691" lon="5.48949">
        <ele>199</ele>
        <time>2012-06-19T11:48:46Z</time>
      </trkpt>
      <trkpt lat="47.07693" lon="5.48934">
        <ele>199</ele>
        <time>2012-06-19T11:48:48Z</time>
      </trkpt>
      <trkpt lat="47.07696" lon="5.48918">
        <ele>199</ele>
        <time>2012-06-19T11:48:50Z</time>
      </trkpt>
      <trkpt lat="47.07702" lon="5.48906">
        <ele>199</ele>
        <time>2012-06-19T11:48:52Z</time>
      </trkpt>
      <trkpt lat="47.07711" lon="5.48898">
        <ele>199</ele>
        <time>2012-06-19T11:48:54Z</time>
      </trkpt>
      <trkpt lat="47.0772" lon="5.48894">
        <ele>199</ele>
        <time>2012-06-19T11:48:56Z</time>
      </trkpt>
      <trkpt lat="47.0773" lon="5.48897">
        <ele>199</ele>
        <time>2012-06-19T11:48:58Z</time>
      </trkpt>
      <trkpt lat="47.07741" lon="5.48906">
        <ele>199</ele>
        <time>2012-06-19T11:49:01Z</time>
      </trkpt>
      <trkpt lat="47.07747" lon="5.48917">
        <ele>199</ele>
        <time>2012-06-19T11:49:04Z</time>
      </trkpt>
      <trkpt lat="47.07749" lon="5.48934">
        <ele>199</ele>
        <time>2012-06-19T11:49:08Z</time>
      </trkpt>
      <trkpt lat="47.07754" lon="5.48949">
        <ele>199</ele>
        <time>2012-06-19T11:49:11Z</time>
      </trkpt>
      <trkpt lat="47.07762" lon="5.48963">
        <ele>199</ele>
        <time>2012-06-19T11:49:14Z</time>
      </trkpt>
      <trkpt lat="47.07771" lon="5.4897">
        <ele>199</ele>
        <time>2012-06-19T11:49:16Z</time>
      </trkpt>
      <trkpt lat="47.07781" lon="5.48971">
        <ele>199</ele>
        <time>2012-06-19T11:49:18Z</time>
      </trkpt>
      <trkpt lat="47.07792" lon="5.48968">
        <ele>199</ele>
        <time>2012-06-19T11:49:20Z</time>
      </trkpt>
      <trkpt lat="47.078" lon="5.48959">
        <ele>199</ele>
        <time>2012-06-19T11:49:22Z</time>
      </trkpt>
      <trkpt lat="47.07807" lon="5.48945">
        <ele>199</ele>
        <time>2012-06-19T11:49:24Z</time>
      </trkpt>
      <trkpt lat="47.07811" lon="5.48931">
        <ele>199</ele>
        <time>2012-06-19T11:49:26Z</time>
      </trkpt>
      <trkpt lat="47.07811" lon="5.48916">
        <ele>199</ele>
        <time>2012-06-19T11:49:28Z</time>
      </trkpt>
      <trkpt lat="47.07808" lon="5.48902">
        <ele>199</ele>
        <time>2012-06-19T11:49:30Z</time>
      </trkpt>
      <trkpt lat="47.07804" lon="5.48885">
        <ele>199</ele>
        <time>2012-06-19T11:49:33Z</time>
      </trkpt>
      <trkpt lat="47.07804" lon="5.48872">
        <ele>199</ele>
        <time>2012-06-19T11:49:35Z</time>
      </trkpt>
      <trkpt lat="47.07806" lon="5.48858">
        <ele>199</ele>
        <time>2012-06-19T11:49:37Z</time>
      </trkpt>
      <trkpt lat="47.07808" lon="5.48844">
        <ele>199</ele>
        <time>2012-06-19T11:49:39Z</time>
      </trkpt>
      <trkpt lat="47.0781" lon="5.48828">
        <ele>199</ele>
        <time>2012-06-19T11:49:41Z</time>
      </trkpt>
      <trkpt lat="47.07812" lon="5.48814">
        <ele>199</ele>
        <time>2012-06-19T11:49:43Z</time>
      </trkpt>
      <trkpt lat="47.07816" lon="5.488">
        <ele>199</ele>
        <time>2012-06-19T11:49:45Z</time>
      </trkpt>
      <trkpt lat="47.07819" lon="5.48785">
        <ele>199</ele>
        <time>2012-06-19T11:49:47Z</time>
      </trkpt>
      <trkpt lat="47.07823" lon="5.48773">
        <ele>199</ele>
        <time>2012-06-19T11:49:49Z</time>
      </trkpt>
      <trkpt lat="47.07828" lon="5.48755">
        <ele>199</ele>
        <time>2012-06-19T11:49:52Z</time>
      </trkpt>
      <trkpt lat="47.07833" lon="5.48736">
        <ele>199</ele>
        <time>2012-06-19T11:49:55Z</time>
      </trkpt>
      <trkpt lat="47.07836" lon="5.48722">
        <ele>199</ele>
        <time>2012-06-19T11:49:57Z</time>
      </trkpt>
      <trkpt lat="47.07839" lon="5.4871">
        <ele>199</ele>
        <time>2012-06-19T11:49:59Z</time>
      </trkpt>
      <trkpt lat="47.07843" lon="5.48697">
        <ele>199</ele>
        <time>2012-06-19T11:50:01Z</time>
      </trkpt>
      <trkpt lat="47.07846" lon="5.48684">
        <ele>205</ele>
        <time>2012-06-19T11:50:03Z</time>
      </trkpt>
      <trkpt lat="47.07851" lon="5.48666">
        <ele>205</ele>
        <time>2012-06-19T11:50:06Z</time>
      </trkpt>
      <trkpt lat="47.07854" lon="5.48653">
        <ele>205</ele>
        <time>2012-06-19T11:50:08Z</time>
      </trkpt>
      <trkpt lat="47.07858" lon="5.48635">
        <ele>205</ele>
        <time>2012-06-19T11:50:11Z</time>
      </trkpt>
      <trkpt lat="47.07864" lon="5.48617">
        <ele>205</ele>
        <time>2012-06-19T11:50:14Z</time>
      </trkpt>
      <trkpt lat="47.07866" lon="5.48605">
        <ele>205</ele>
        <time>2012-06-19T11:50:16Z</time>
      </trkpt>
      <trkpt lat="47.0787" lon="5.48592">
        <ele>205</ele>
        <time>2012-06-19T11:50:18Z</time>
      </trkpt>
      <trkpt lat="47.07875" lon="5.48574">
        <ele>205</ele>
        <time>2012-06-19T11:50:21Z</time>
      </trkpt>
      <trkpt lat="47.07879" lon="5.48562">
        <ele>205</ele>
        <time>2012-06-19T11:50:23Z</time>
      </trkpt>
      <trkpt lat="47.07884" lon="5.48544">
        <ele>205</ele>
        <time>2012-06-19T11:50:26Z</time>
      </trkpt>
      <trkpt lat="47.07887" lon="5.48531">
        <ele>205</ele>
        <time>2012-06-19T11:50:28Z</time>
      </trkpt>
      <trkpt lat="47.07891" lon="5.48519">
        <ele>205</ele>
        <time>2012-06-19T11:50:30Z</time>
      </trkpt>
      <trkpt lat="47.07894" lon="5.48506">
        <ele>205</ele>
        <time>2012-06-19T11:50:32Z</time>
      </trkpt>
      <trkpt lat="47.07898" lon="5.48493">
        <ele>205</ele>
        <time>2012-06-19T11:50:34Z</time>
      </trkpt>
      <trkpt lat="47.07901" lon="5.48481">
        <ele>210</ele>
        <time>2012-06-19T11:50:36Z</time>
      </trkpt>
      <trkpt lat="47.07904" lon="5.48468">
        <ele>210</ele>
        <time>2012-06-19T11:50:38Z</time>
      </trkpt>
      <trkpt lat="47.07907" lon="5.48456">
        <ele>210</ele>
        <time>2012-06-19T11:50:40Z</time>
      </trkpt>
      <trkpt lat="47.07912" lon="5.48438">
        <ele>210</ele>
        <time>2012-06-19T11:50:43Z</time>
      </trkpt>
      <trkpt lat="47.07916" lon="5.48425">
        <ele>210</ele>
        <time>2012-06-19T11:50:45Z</time>
      </trkpt>
      <trkpt lat="47.07921" lon="5.48407">
        <ele>210</ele>
        <time>2012-06-19T11:50:48Z</time>
      </trkpt>
      <trkpt lat="47.07924" lon="5.48395">
        <ele>210</ele>
        <time>2012-06-19T11:50:50Z</time>
      </trkpt>
      <trkpt lat="47.07927" lon="5.48382">
        <ele>210</ele>
        <time>2012-06-19T11:50:52Z</time>
      </trkpt>
      <trkpt lat="47.0793" lon="5.48369">
        <ele>210</ele>
        <time>2012-06-19T11:50:54Z</time>
      </trkpt>
      <trkpt lat="47.07936" lon="5.48351">
        <ele>210</ele>
        <time>2012-06-19T11:50:57Z</time>
      </trkpt>
      <trkpt lat="47.07939" lon="5.48339">
        <ele>215</ele>
        <time>2012-06-19T11:50:59Z</time>
      </trkpt>
      <trkpt lat="47.07942" lon="5.48326">
        <ele>215</ele>
        <time>2012-06-19T11:51:01Z</time>
      </trkpt>
      <trkpt lat="47.07945" lon="5.48314">
        <ele>215</ele>
        <time>2012-06-19T11:51:03Z</time>
      </trkpt>
      <trkpt lat="47.07949" lon="5.48301">
        <ele>215</ele>
        <time>2012-06-19T11:51:05Z</time>
      </trkpt>
      <trkpt lat="47.07952" lon="5.48289">
        <ele>215</ele>
        <time>2012-06-19T11:51:07Z</time>
      </trkpt>
      <trkpt lat="47.07955" lon="5.48276">
        <ele>215</ele>
        <time>2012-06-19T11:51:09Z</time>
      </trkpt>
      <trkpt lat="47.07959" lon="5.48263">
        <ele>215</ele>
        <time>2012-06-19T11:51:11Z</time>
      </trkpt>
      <trkpt lat="47.07963" lon="5.48245">
        <ele>215</ele>
        <time>2012-06-19T11:51:14Z</time>
      </trkpt>
      <trkpt lat="47.07967" lon="5.48233">
        <ele>215</ele>
        <time>2012-06-19T11:51:16Z</time>
      </trkpt>
      <trkpt lat="47.07971" lon="5.4822">
        <ele>215</ele>
        <time>2012-06-19T11:51:18Z</time>
      </trkpt>
      <trkpt lat="47.07974" lon="5.48208">
        <ele>215</ele>
        <time>2012-06-19T11:51:20Z</time>
      </trkpt>
      <trkpt lat="47.07977" lon="5.48195">
        <ele>215</ele>
        <time>2012-06-19T11:51:22Z</time>
      </trkpt>
      <trkpt lat="47.0798" lon="5.48182">
        <ele>215</ele>
        <time>2012-06-19T11:51:24Z</time>
      </trkpt>
      <trkpt lat="47.07984" lon="5.48169">
        <ele>220</ele>
        <time>2012-06-19T11:51:26Z</time>
      </trkpt>
      <trkpt lat="47.07987" lon="5.48157">
        <ele>220</ele>
        <time>2012-06-19T11:51:28Z</time>
      </trkpt>
      <trkpt lat="47.07992" lon="5.48139">
        <ele>220</ele>
        <time>2012-06-19T11:51:31Z</time>
      </trkpt>
      <trkpt lat="47.07995" lon="5.48126">
        <ele>220</ele>
        <time>2012-06-19T11:51:33Z</time>
      </trkpt>
      <trkpt lat="47.07998" lon="5.48113">
        <ele>220</ele>
        <time>2012-06-19T11:51:35Z</time>
      </trkpt>
      <trkpt lat="47.08001" lon="5.48101">
        <ele>220</ele>
        <time>2012-06-19T11:51:37Z</time>
      </trkpt>
      <trkpt lat="47.08005" lon="5.48088">
        <ele>220</ele>
        <time>2012-06-19T11:51:39Z</time>
      </trkpt>
      <trkpt lat="47.08009" lon="5.4807">
        <ele>220</ele>
        <time>2012-06-19T11:51:42Z</time>
      </trkpt>
      <trkpt lat="47.08014" lon="5.48052">
        <ele>220</ele>
        <time>2012-06-19T11:51:45Z</time>
      </trkpt>
      <trkpt lat="47.08019" lon="5.48034">
        <ele>220</ele>
        <time>2012-06-19T11:51:48Z</time>
      </trkpt>
      <trkpt lat="47.08024" lon="5.48017">
        <ele>220</ele>
        <time>2012-06-19T11:51:51Z</time>
      </trkpt>
      <trkpt lat="47.08027" lon="5.48005">
        <ele>220</ele>
        <time>2012-06-19T11:51:53Z</time>
      </trkpt>
      <trkpt lat="47.08032" lon="5.47988">
        <ele>226</ele>
        <time>2012-06-19T11:51:56Z</time>
      </trkpt>
      <trkpt lat="47.08036" lon="5.47975">
        <ele>226</ele>
        <time>2012-06-19T11:51:58Z</time>
      </trkpt>
      <trkpt lat="47.0804" lon="5.47958">
        <ele>226</ele>
        <time>2012-06-19T11:52:01Z</time>
      </trkpt>
      <trkpt lat="47.08044" lon="5.47945">
        <ele>226</ele>
        <time>2012-06-19T11:52:03Z</time>
      </trkpt>
      <trkpt lat="47.08048" lon="5.47927">
        <ele>226</ele>
        <time>2012-06-19T11:52:06Z</time>
      </trkpt>
      <trkpt lat="47.08052" lon="5.47909">
        <ele>226</ele>
        <time>2012-06-19T11:52:09Z</time>
      </trkpt>
      <trkpt lat="47.08057" lon="5.47892">
        <ele>226</ele>
        <time>2012-06-19T11:52:12Z</time>
      </trkpt>
      <trkpt lat="47.08062" lon="5.47874">
        <ele>226</ele>
        <time>2012-06-19T11:52:15Z</time>
      </trkpt>
      <trkpt lat="47.08066" lon="5.47856">
        <ele>226</ele>
        <time>2012-06-19T11:52:18Z</time>
      </trkpt>
      <trkpt lat="47.08071" lon="5.47839">
        <ele>226</ele>
        <time>2012-06-19T11:52:21Z</time>
      </trkpt>
      <trkpt lat="47.08076" lon="5.47821">
        <ele>226</ele>
        <time>2012-06-19T11:52:24Z</time>
      </trkpt>
      <trkpt lat="47.08081" lon="5.47804">
        <ele>232</ele>
        <time>2012-06-19T11:52:27Z</time>
      </trkpt>
      <trkpt lat="47.08086" lon="5.47787">
        <ele>232</ele>
        <time>2012-06-19T11:52:30Z</time>
      </trkpt>
      <trkpt lat="47.0809" lon="5.47769">
        <ele>232</ele>
        <time>2012-06-19T11:52:33Z</time>
      </trkpt>
      <trkpt lat="47.08096" lon="5.47752">
        <ele>232</ele>
        <time>2012-06-19T11:52:36Z</time>
      </trkpt>
      <trkpt lat="47.08102" lon="5.47736">
        <ele>232</ele>
        <time>2012-06-19T11:52:39Z</time>
      </trkpt>
      <trkpt lat="47.08106" lon="5.47724">
        <ele>232</ele>
        <time>2012-06-19T11:52:41Z</time>
      </trkpt>
      <trkpt lat="47.08112" lon="5.47708">
        <ele>232</ele>
        <time>2012-06-19T11:52:44Z</time>
      </trkpt>
      <trkpt lat="47.08118" lon="5.47693">
        <ele>232</ele>
        <time>2012-06-19T11:52:47Z</time>
      </trkpt>
      <trkpt lat="47.08124" lon="5.4768">
        <ele>232</ele>
        <time>2012-06-19T11:52:50Z</time>
      </trkpt>
      <trkpt lat="47.08132" lon="5.47673">
        <ele>232</ele>
        <time>2012-06-19T11:52:53Z</time>
      </trkpt>
      <trkpt lat="47.08143" lon="5.47669">
        <ele>232</ele>
        <time>2012-06-19T11:52:56Z</time>
      </trkpt>
      <trkpt lat="47.08154" lon="5.47658">
        <ele>232</ele>
        <time>2012-06-19T11:52:59Z</time>
      </trkpt>
      <trkpt lat="47.08161" lon="5.47644">
        <ele>232</ele>
        <time>2012-06-19T11:53:02Z</time>
      </trkpt>
      <trkpt lat="47.08164" lon="5.47631">
        <ele>232</ele>
        <time>2012-06-19T11:53:04Z</time>
      </trkpt>
      <trkpt lat="47.08164" lon="5.47611">
        <ele>237</ele>
        <time>2012-06-19T11:53:07Z</time>
      </trkpt>
      <trkpt lat="47.0816" lon="5.47593">
        <ele>237</ele>
        <time>2012-06-19T11:53:10Z</time>
      </trkpt>
      <trkpt lat="47.08158" lon="5.47574">
        <ele>237</ele>
        <time>2012-06-19T11:53:13Z</time>
      </trkpt>
      <trkpt lat="47.08161" lon="5.47556">
        <ele>237</ele>
        <time>2012-06-19T11:53:16Z</time>
      </trkpt>
      <trkpt lat="47.08166" lon="5.47538">
        <ele>237</ele>
        <time>2012-06-19T11:53:19Z</time>
      </trkpt>
      <trkpt lat="47.0817" lon="5.47523">
        <ele>237</ele>
        <time>2012-06-19T11:53:22Z</time>
      </trkpt>
      <trkpt lat="47.08174" lon="5.4751">
        <ele>237</ele>
        <time>2012-06-19T11:53:25Z</time>
      </trkpt>
      <trkpt lat="47.08178" lon="5.47495">
        <ele>237</ele>
        <time>2012-06-19T11:53:28Z</time>
      </trkpt>
      <trkpt lat="47.08181" lon="5.47481">
        <ele>243</ele>
        <time>2012-06-19T11:53:32Z</time>
      </trkpt>
      <trkpt lat="47.08185" lon="5.47468">
        <ele>243</ele>
        <time>2012-06-19T11:53:36Z</time>
      </trkpt>
      <trkpt lat="47.08188" lon="5.47453">
        <ele>243</ele>
        <time>2012-06-19T11:53:40Z</time>
      </trkpt>
      <trkpt lat="47.08188" lon="5.4744">
        <ele>243</ele>
        <time>2012-06-19T11:53:43Z</time>
      </trkpt>
      <trkpt lat="47.08188" lon="5.47423">
        <ele>249</ele>
        <time>2012-06-19T11:53:47Z</time>
      </trkpt>
      <trkpt lat="47.0819" lon="5.47406">
        <ele>249</ele>
        <time>2012-06-19T11:53:51Z</time>
      </trkpt>
      <trkpt lat="47.08191" lon="5.47389">
        <ele>249</ele>
        <time>2012-06-19T11:53:54Z</time>
      </trkpt>
      <trkpt lat="47.08192" lon="5.47371">
        <ele>249</ele>
        <time>2012-06-19T11:53:57Z</time>
      </trkpt>
      <trkpt lat="47.08192" lon="5.47353">
        <ele>249</ele>
        <time>2012-06-19T11:54:00Z</time>
      </trkpt>
      <trkpt lat="47.08191" lon="5.47337">
        <ele>249</ele>
        <time>2012-06-19T11:54:03Z</time>
      </trkpt>
      <trkpt lat="47.0819" lon="5.47322">
        <ele>249</ele>
        <time>2012-06-19T11:54:06Z</time>
      </trkpt>
      <trkpt lat="47.08189" lon="5.47304">
        <ele>249</ele>
        <time>2012-06-19T11:54:09Z</time>
      </trkpt>
      <trkpt lat="47.08187" lon="5.47285">
        <ele>249</ele>
        <time>2012-06-19T11:54:12Z</time>
      </trkpt>
      <trkpt lat="47.08186" lon="5.47268">
        <ele>249</ele>
        <time>2012-06-19T11:54:15Z</time>
      </trkpt>
      <trkpt lat="47.08184" lon="5.4725">
        <ele>249</ele>
        <time>2012-06-19T11:54:18Z</time>
      </trkpt>
      <trkpt lat="47.08183" lon="5.47231">
        <ele>249</ele>
        <time>2012-06-19T11:54:21Z</time>
      </trkpt>
      <trkpt lat="47.08182" lon="5.47218">
        <ele>249</ele>
        <time>2012-06-19T11:54:23Z</time>
      </trkpt>
      <trkpt lat="47.08181" lon="5.47204">
        <ele>249</ele>
        <time>2012-06-19T11:54:25Z</time>
      </trkpt>
      <trkpt lat="47.0818" lon="5.47191">
        <ele>249</ele>
        <time>2012-06-19T11:54:27Z</time>
      </trkpt>
      <trkpt lat="47.08179" lon="5.47177">
        <ele>249</ele>
        <time>2012-06-19T11:54:29Z</time>
      </trkpt>
      <trkpt lat="47.08178" lon="5.47164">
        <ele>249</ele>
        <time>2012-06-19T11:54:31Z</time>
      </trkpt>
      <trkpt lat="47.08177" lon="5.47149">
        <ele>249</ele>
        <time>2012-06-19T11:54:33Z</time>
      </trkpt>
      <trkpt lat="47.08176" lon="5.47134">
        <ele>249</ele>
        <time>2012-06-19T11:54:35Z</time>
      </trkpt>
      <trkpt lat="47.08175" lon="5.47119">
        <ele>249</ele>
        <time>2012-06-19T11:54:37Z</time>
      </trkpt>
      <trkpt lat="47.08173" lon="5.47105">
        <ele>249</ele>
        <time>2012-06-19T11:54:39Z</time>
      </trkpt>
      <trkpt lat="47.08172" lon="5.4709">
        <ele>249</ele>
        <time>2012-06-19T11:54:41Z</time>
      </trkpt>
      <trkpt lat="47.08171" lon="5.47074">
        <ele>249</ele>
        <time>2012-06-19T11:54:43Z</time>
      </trkpt>
      <trkpt lat="47.0817" lon="5.47058">
        <ele>249</ele>
        <time>2012-06-19T11:54:45Z</time>
      </trkpt>
      <trkpt lat="47.08169" lon="5.47043">
        <ele>249</ele>
        <time>2012-06-19T11:54:47Z</time>
      </trkpt>
      <trkpt lat="47.08168" lon="5.47026">
        <ele>249</ele>
        <time>2012-06-19T11:54:49Z</time>
      </trkpt>
      <trkpt lat="47.08169" lon="5.47011">
        <ele>249</ele>
        <time>2012-06-19T11:54:51Z</time>
      </trkpt>
      <trkpt lat="47.08174" lon="5.46995">
        <ele>249</ele>
        <time>2012-06-19T11:54:54Z</time>
      </trkpt>
      <trkpt lat="47.08177" lon="5.46982">
        <ele>249</ele>
        <time>2012-06-19T11:54:56Z</time>
      </trkpt>
      <trkpt lat="47.08179" lon="5.46967">
        <ele>249</ele>
        <time>2012-06-19T11:54:58Z</time>
      </trkpt>
      <trkpt lat="47.08181" lon="5.4695">
        <ele>249</ele>
        <time>2012-06-19T11:55:00Z</time>
      </trkpt>
      <trkpt lat="47.08183" lon="5.46932">
        <ele>249</ele>
        <time>2012-06-19T11:55:02Z</time>
      </trkpt>
      <trkpt lat="47.08184" lon="5.46912">
        <ele>249</ele>
        <time>2012-06-19T11:55:04Z</time>
      </trkpt>
      <trkpt lat="47.08187" lon="5.46893">
        <ele>249</ele>
        <time>2012-06-19T11:55:06Z</time>
      </trkpt>
      <trkpt lat="47.08189" lon="5.46874">
        <ele>249</ele>
        <time>2012-06-19T11:55:08Z</time>
      </trkpt>
      <trkpt lat="47.08191" lon="5.46856">
        <ele>243</ele>
        <time>2012-06-19T11:55:10Z</time>
      </trkpt>
      <trkpt lat="47.08192" lon="5.46837">
        <ele>243</ele>
        <time>2012-06-19T11:55:12Z</time>
      </trkpt>
      <trkpt lat="47.08194" lon="5.46817">
        <ele>243</ele>
        <time>2012-06-19T11:55:14Z</time>
      </trkpt>
      <trkpt lat="47.08195" lon="5.46797">
        <ele>243</ele>
        <time>2012-06-19T11:55:16Z</time>
      </trkpt>
      <trkpt lat="47.08195" lon="5.46777">
        <ele>243</ele>
        <time>2012-06-19T11:55:18Z</time>
      </trkpt>
      <trkpt lat="47.08194" lon="5.46756">
        <ele>243</ele>
        <time>2012-06-19T11:55:20Z</time>
      </trkpt>
      <trkpt lat="47.08191" lon="5.46734">
        <ele>243</ele>
        <time>2012-06-19T11:55:22Z</time>
      </trkpt>
      <trkpt lat="47.08186" lon="5.46714">
        <ele>243</ele>
        <time>2012-06-19T11:55:24Z</time>
      </trkpt>
      <trkpt lat="47.08179" lon="5.46693">
        <ele>243</ele>
        <time>2012-06-19T11:55:26Z</time>
      </trkpt>
      <trkpt lat="47.08171" lon="5.46673">
        <ele>243</ele>
        <time>2012-06-19T11:55:28Z</time>
      </trkpt>
      <trkpt lat="47.0816" lon="5.46651">
        <ele>243</ele>
        <time>2012-06-19T11:55:30Z</time>
      </trkpt>
      <trkpt lat="47.08151" lon="5.4663">
        <ele>243</ele>
        <time>2012-06-19T11:55:32Z</time>
      </trkpt>
      <trkpt lat="47.08144" lon="5.4662">
        <ele>238</ele>
        <time>2012-06-19T11:55:33Z</time>
      </trkpt>
      <trkpt lat="47.08138" lon="5.46609">
        <ele>238</ele>
        <time>2012-06-19T11:55:34Z</time>
      </trkpt>
      <trkpt lat="47.08132" lon="5.46596">
        <ele>238</ele>
        <time>2012-06-19T11:55:35Z</time>
      </trkpt>
      <trkpt lat="47.08125" lon="5.46584">
        <ele>238</ele>
        <time>2012-06-19T11:55:36Z</time>
      </trkpt>
      <trkpt lat="47.08118" lon="5.46571">
        <ele>238</ele>
        <time>2012-06-19T11:55:37Z</time>
      </trkpt>
      <trkpt lat="47.08111" lon="5.46558">
        <ele>238</ele>
        <time>2012-06-19T11:55:38Z</time>
      </trkpt>
      <trkpt lat="47.08104" lon="5.46547">
        <ele>238</ele>
        <time>2012-06-19T11:55:39Z</time>
      </trkpt>
      <trkpt lat="47.08097" lon="5.46534">
        <ele>238</ele>
        <time>2012-06-19T11:55:40Z</time>
      </trkpt>
      <trkpt lat="47.08089" lon="5.46522">
        <ele>233</ele>
        <time>2012-06-19T11:55:41Z</time>
      </trkpt>
      <trkpt lat="47.08082" lon="5.46511">
        <ele>233</ele>
        <time>2012-06-19T11:55:42Z</time>
      </trkpt>
      <trkpt lat="47.08077" lon="5.46499">
        <ele>233</ele>
        <time>2012-06-19T11:55:43Z</time>
      </trkpt>
      <trkpt lat="47.08071" lon="5.46488">
        <ele>233</ele>
        <time>2012-06-19T11:55:44Z</time>
      </trkpt>
      <trkpt lat="47.08065" lon="5.46477">
        <ele>233</ele>
        <time>2012-06-19T11:55:45Z</time>
      </trkpt>
      <trkpt lat="47.08055" lon="5.46457">
        <ele>233</ele>
        <time>2012-06-19T11:55:47Z</time>
      </trkpt>
      <trkpt lat="47.08045" lon="5.46439">
        <ele>233</ele>
        <time>2012-06-19T11:55:49Z</time>
      </trkpt>
      <trkpt lat="47.08036" lon="5.46421">
        <ele>233</ele>
        <time>2012-06-19T11:55:51Z</time>
      </trkpt>
      <trkpt lat="47.0803" lon="5.46402">
        <ele>233</ele>
        <time>2012-06-19T11:55:53Z</time>
      </trkpt>
      <trkpt lat="47.08024" lon="5.46383">
        <ele>233</ele>
        <time>2012-06-19T11:55:55Z</time>
      </trkpt>
      <trkpt lat="47.08019" lon="5.46363">
        <ele>233</ele>
        <time>2012-06-19T11:55:57Z</time>
      </trkpt>
      <trkpt lat="47.08017" lon="5.46342">
        <ele>233</ele>
        <time>2012-06-19T11:55:59Z</time>
      </trkpt>
      <trkpt lat="47.08019" lon="5.46319">
        <ele>233</ele>
        <time>2012-06-19T11:56:01Z</time>
      </trkpt>
      <trkpt lat="47.08021" lon="5.46294">
        <ele>233</ele>
        <time>2012-06-19T11:56:03Z</time>
      </trkpt>
      <trkpt lat="47.08024" lon="5.46282">
        <ele>233</ele>
        <time>2012-06-19T11:56:04Z</time>
      </trkpt>
      <trkpt lat="47.08032" lon="5.46257">
        <ele>233</ele>
        <time>2012-06-19T11:56:06Z</time>
      </trkpt>
      <trkpt lat="47.08035" lon="5.46244">
        <ele>233</ele>
        <time>2012-06-19T11:56:07Z</time>
      </trkpt>
      <trkpt lat="47.08039" lon="5.46231">
        <ele>233</ele>
        <time>2012-06-19T11:56:08Z</time>
      </trkpt>
      <trkpt lat="47.08042" lon="5.46218">
        <ele>233</ele>
        <time>2012-06-19T11:56:09Z</time>
      </trkpt>
      <trkpt lat="47.08046" lon="5.46205">
        <ele>233</ele>
        <time>2012-06-19T11:56:10Z</time>
      </trkpt>
      <trkpt lat="47.08048" lon="5.46192">
        <ele>233</ele>
        <time>2012-06-19T11:56:11Z</time>
      </trkpt>
      <trkpt lat="47.08051" lon="5.46178">
        <ele>233</ele>
        <time>2012-06-19T11:56:12Z</time>
      </trkpt>
      <trkpt lat="47.08054" lon="5.46164">
        <ele>228</ele>
        <time>2012-06-19T11:56:13Z</time>
      </trkpt>
      <trkpt lat="47.08057" lon="5.46151">
        <ele>228</ele>
        <time>2012-06-19T11:56:14Z</time>
      </trkpt>
      <trkpt lat="47.08059" lon="5.46137">
        <ele>228</ele>
        <time>2012-06-19T11:56:15Z</time>
      </trkpt>
      <trkpt lat="47.08062" lon="5.46124">
        <ele>228</ele>
        <time>2012-06-19T11:56:16Z</time>
      </trkpt>
      <trkpt lat="47.08065" lon="5.46109">
        <ele>228</ele>
        <time>2012-06-19T11:56:17Z</time>
      </trkpt>
      <trkpt lat="47.08067" lon="5.46095">
        <ele>228</ele>
        <time>2012-06-19T11:56:18Z</time>
      </trkpt>
      <trkpt lat="47.0807" lon="5.4608">
        <ele>228</ele>
        <time>2012-06-19T11:56:19Z</time>
      </trkpt>
      <trkpt lat="47.08073" lon="5.46065">
        <ele>228</ele>
        <time>2012-06-19T11:56:20Z</time>
      </trkpt>
      <trkpt lat="47.08075" lon="5.46051">
        <ele>228</ele>
        <time>2012-06-19T11:56:21Z</time>
      </trkpt>
      <trkpt lat="47.08078" lon="5.46037">
        <ele>222</ele>
        <time>2012-06-19T11:56:22Z</time>
      </trkpt>
      <trkpt lat="47.08081" lon="5.46022">
        <ele>222</ele>
        <time>2012-06-19T11:56:23Z</time>
      </trkpt>
      <trkpt lat="47.08083" lon="5.46008">
        <ele>222</ele>
        <time>2012-06-19T11:56:24Z</time>
      </trkpt>
      <trkpt lat="47.08086" lon="5.45992">
        <ele>222</ele>
        <time>2012-06-19T11:56:25Z</time>
      </trkpt>
      <trkpt lat="47.08089" lon="5.45978">
        <ele>222</ele>
        <time>2012-06-19T11:56:26Z</time>
      </trkpt>
      <trkpt lat="47.08092" lon="5.45963">
        <ele>222</ele>
        <time>2012-06-19T11:56:27Z</time>
      </trkpt>
      <trkpt lat="47.08095" lon="5.45948">
        <ele>222</ele>
        <time>2012-06-19T11:56:28Z</time>
      </trkpt>
      <trkpt lat="47.08098" lon="5.45934">
        <ele>222</ele>
        <time>2012-06-19T11:56:29Z</time>
      </trkpt>
      <trkpt lat="47.081" lon="5.4592">
        <ele>222</ele>
        <time>2012-06-19T11:56:30Z</time>
      </trkpt>
      <trkpt lat="47.08103" lon="5.45904">
        <ele>222</ele>
        <time>2012-06-19T11:56:31Z</time>
      </trkpt>
      <trkpt lat="47.08104" lon="5.45891">
        <ele>222</ele>
        <time>2012-06-19T11:56:32Z</time>
      </trkpt>
      <trkpt lat="47.08103" lon="5.45867">
        <ele>222</ele>
        <time>2012-06-19T11:56:34Z</time>
      </trkpt>
      <trkpt lat="47.08109" lon="5.45845">
        <ele>222</ele>
        <time>2012-06-19T11:56:36Z</time>
      </trkpt>
      <trkpt lat="47.08121" lon="5.45829">
        <ele>217</ele>
        <time>2012-06-19T11:56:38Z</time>
      </trkpt>
      <trkpt lat="47.08133" lon="5.45815">
        <ele>217</ele>
        <time>2012-06-19T11:56:40Z</time>
      </trkpt>
      <trkpt lat="47.08145" lon="5.458">
        <ele>217</ele>
        <time>2012-06-19T11:56:42Z</time>
      </trkpt>
      <trkpt lat="47.08158" lon="5.45786">
        <ele>217</ele>
        <time>2012-06-19T11:56:44Z</time>
      </trkpt>
      <trkpt lat="47.08171" lon="5.45772">
        <ele>217</ele>
        <time>2012-06-19T11:56:46Z</time>
      </trkpt>
      <trkpt lat="47.08184" lon="5.45758">
        <ele>217</ele>
        <time>2012-06-19T11:56:48Z</time>
      </trkpt>
      <trkpt lat="47.08198" lon="5.45744">
        <ele>217</ele>
        <time>2012-06-19T11:56:50Z</time>
      </trkpt>
      <trkpt lat="47.08211" lon="5.4573">
        <ele>217</ele>
        <time>2012-06-19T11:56:52Z</time>
      </trkpt>
      <trkpt lat="47.08224" lon="5.45717">
        <ele>217</ele>
        <time>2012-06-19T11:56:54Z</time>
      </trkpt>
      <trkpt lat="47.08238" lon="5.45703">
        <ele>217</ele>
        <time>2012-06-19T11:56:56Z</time>
      </trkpt>
      <trkpt lat="47.08252" lon="5.45691">
        <ele>212</ele>
        <time>2012-06-19T11:56:58Z</time>
      </trkpt>
      <trkpt lat="47.08266" lon="5.45679">
        <ele>212</ele>
        <time>2012-06-19T11:57:00Z</time>
      </trkpt>
      <trkpt lat="47.08279" lon="5.45667">
        <ele>212</ele>
        <time>2012-06-19T11:57:02Z</time>
      </trkpt>
      <trkpt lat="47.08292" lon="5.45657">
        <ele>212</ele>
        <time>2012-06-19T11:57:04Z</time>
      </trkpt>
      <trkpt lat="47.08305" lon="5.45647">
        <ele>212</ele>
        <time>2012-06-19T11:57:06Z</time>
      </trkpt>
      <trkpt lat="47.08318" lon="5.45638">
        <ele>212</ele>
        <time>2012-06-19T11:57:08Z</time>
      </trkpt>
      <trkpt lat="47.0833" lon="5.45628">
        <ele>212</ele>
        <time>2012-06-19T11:57:10Z</time>
      </trkpt>
      <trkpt lat="47.08341" lon="5.45615">
        <ele>212</ele>
        <time>2012-06-19T11:57:12Z</time>
      </trkpt>
      <trkpt lat="47.08352" lon="5.45602">
        <ele>212</ele>
        <time>2012-06-19T11:57:14Z</time>
      </trkpt>
      <trkpt lat="47.08364" lon="5.45591">
        <ele>212</ele>
        <time>2012-06-19T11:57:16Z</time>
      </trkpt>
      <trkpt lat="47.08376" lon="5.45583">
        <ele>212</ele>
        <time>2012-06-19T11:57:18Z</time>
      </trkpt>
      <trkpt lat="47.08387" lon="5.45578">
        <ele>212</ele>
        <time>2012-06-19T11:57:20Z</time>
      </trkpt>
      <trkpt lat="47.08397" lon="5.45573">
        <ele>212</ele>
        <time>2012-06-19T11:57:22Z</time>
      </trkpt>
      <trkpt lat="47.08406" lon="5.45569">
        <ele>212</ele>
        <time>2012-06-19T11:57:24Z</time>
      </trkpt>
      <trkpt lat="47.08418" lon="5.45568">
        <ele>212</ele>
        <time>2012-06-19T11:57:27Z</time>
      </trkpt>
      <trkpt lat="47.08427" lon="5.45565">
        <ele>212</ele>
        <time>2012-06-19T11:57:31Z</time>
      </trkpt>
      <trkpt lat="47.08437" lon="5.4556">
        <ele>212</ele>
        <time>2012-06-19T11:59:00Z</time>
      </trkpt>
      <trkpt lat="47.08446" lon="5.45558">
        <ele>212</ele>
        <time>2012-06-19T11:59:04Z</time>
      </trkpt>
      <trkpt lat="47.08456" lon="5.45556">
        <ele>212</ele>
        <time>2012-06-19T11:59:07Z</time>
      </trkpt>
      <trkpt lat="47.08468" lon="5.45554">
        <ele>212</ele>
        <time>2012-06-19T11:59:10Z</time>
      </trkpt>
      <trkpt lat="47.08481" lon="5.4555">
        <ele>212</ele>
        <time>2012-06-19T11:59:13Z</time>
      </trkpt>
      <trkpt lat="47.08493" lon="5.45544">
        <ele>212</ele>
        <time>2012-06-19T11:59:16Z</time>
      </trkpt>
      <trkpt lat="47.08502" lon="5.4554">
        <ele>212</ele>
        <time>2012-06-19T11:59:18Z</time>
      </trkpt>
      <trkpt lat="47.08511" lon="5.45535">
        <ele>212</ele>
        <time>2012-06-19T11:59:20Z</time>
      </trkpt>
      <trkpt lat="47.08523" lon="5.45528">
        <ele>212</ele>
        <time>2012-06-19T11:59:23Z</time>
      </trkpt>
      <trkpt lat="47.08535" lon="5.45522">
        <ele>212</ele>
        <time>2012-06-19T11:59:26Z</time>
      </trkpt>
      <trkpt lat="47.08546" lon="5.45517">
        <ele>212</ele>
        <time>2012-06-19T11:59:29Z</time>
      </trkpt>
      <trkpt lat="47.08557" lon="5.45513">
        <ele>212</ele>
        <time>2012-06-19T11:59:32Z</time>
      </trkpt>
      <trkpt lat="47.08567" lon="5.4551">
        <ele>217</ele>
        <time>2012-06-19T11:59:34Z</time>
      </trkpt>
      <trkpt lat="47.08575" lon="5.45506">
        <ele>217</ele>
        <time>2012-06-19T11:59:36Z</time>
      </trkpt>
      <trkpt lat="47.08586" lon="5.45501">
        <ele>217</ele>
        <time>2012-06-19T11:59:39Z</time>
      </trkpt>
      <trkpt lat="47.08595" lon="5.45498">
        <ele>217</ele>
        <time>2012-06-19T11:59:41Z</time>
      </trkpt>
      <trkpt lat="47.08604" lon="5.45493">
        <ele>217</ele>
        <time>2012-06-19T11:59:43Z</time>
      </trkpt>
      <trkpt lat="47.08613" lon="5.45487">
        <ele>217</ele>
        <time>2012-06-19T11:59:45Z</time>
      </trkpt>
      <trkpt lat="47.08624" lon="5.4548">
        <ele>217</ele>
        <time>2012-06-19T11:59:48Z</time>
      </trkpt>
      <trkpt lat="47.08633" lon="5.45477">
        <ele>217</ele>
        <time>2012-06-19T11:59:50Z</time>
      </trkpt>
      <trkpt lat="47.08642" lon="5.45475">
        <ele>217</ele>
        <time>2012-06-19T11:59:52Z</time>
      </trkpt>
      <trkpt lat="47.08653" lon="5.45475">
        <ele>217</ele>
        <time>2012-06-19T11:59:55Z</time>
      </trkpt>
      <trkpt lat="47.08663" lon="5.45476">
        <ele>217</ele>
        <time>2012-06-19T11:59:58Z</time>
      </trkpt>
      <trkpt lat="47.08673" lon="5.45472">
        <ele>217</ele>
        <time>2012-06-19T12:00:02Z</time>
      </trkpt>
      <trkpt lat="47.08683" lon="5.4547">
        <ele>217</ele>
        <time>2012-06-19T12:00:05Z</time>
      </trkpt>
      <trkpt lat="47.08692" lon="5.45471">
        <ele>217</ele>
        <time>2012-06-19T12:00:08Z</time>
      </trkpt>
      <trkpt lat="47.08705" lon="5.45472">
        <ele>217</ele>
        <time>2012-06-19T12:00:11Z</time>
      </trkpt>
      <trkpt lat="47.08714" lon="5.45471">
        <ele>217</ele>
        <time>2012-06-19T12:00:13Z</time>
      </trkpt>
      <trkpt lat="47.08727" lon="5.45471">
        <ele>217</ele>
        <time>2012-06-19T12:00:16Z</time>
      </trkpt>
      <trkpt lat="47.08736" lon="5.45471">
        <ele>217</ele>
        <time>2012-06-19T12:00:18Z</time>
      </trkpt>
      <trkpt lat="47.08749" lon="5.45468">
        <ele>217</ele>
        <time>2012-06-19T12:00:21Z</time>
      </trkpt>
      <trkpt lat="47.08758" lon="5.45465">
        <ele>217</ele>
        <time>2012-06-19T12:00:23Z</time>
      </trkpt>
      <trkpt lat="47.08771" lon="5.45462">
        <ele>217</ele>
        <time>2012-06-19T12:00:26Z</time>
      </trkpt>
      <trkpt lat="47.08783" lon="5.45456">
        <ele>217</ele>
        <time>2012-06-19T12:00:29Z</time>
      </trkpt>
      <trkpt lat="47.08792" lon="5.45453">
        <ele>217</ele>
        <time>2012-06-19T12:00:31Z</time>
      </trkpt>
      <trkpt lat="47.08801" lon="5.45448">
        <ele>217</ele>
        <time>2012-06-19T12:00:33Z</time>
      </trkpt>
      <trkpt lat="47.0881" lon="5.45443">
        <ele>217</ele>
        <time>2012-06-19T12:00:35Z</time>
      </trkpt>
      <trkpt lat="47.08819" lon="5.45437">
        <ele>217</ele>
        <time>2012-06-19T12:00:37Z</time>
      </trkpt>
      <trkpt lat="47.08829" lon="5.45432">
        <ele>217</ele>
        <time>2012-06-19T12:00:39Z</time>
      </trkpt>
      <trkpt lat="47.08838" lon="5.45426">
        <ele>222</ele>
        <time>2012-06-19T12:00:41Z</time>
      </trkpt>
      <trkpt lat="47.08847" lon="5.45419">
        <ele>222</ele>
        <time>2012-06-19T12:00:43Z</time>
      </trkpt>
      <trkpt lat="47.08856" lon="5.45412">
        <ele>222</ele>
        <time>2012-06-19T12:00:45Z</time>
      </trkpt>
      <trkpt lat="47.08864" lon="5.45404">
        <ele>222</ele>
        <time>2012-06-19T12:00:47Z</time>
      </trkpt>
      <trkpt lat="47.08872" lon="5.45394">
        <ele>222</ele>
        <time>2012-06-19T12:00:49Z</time>
      </trkpt>
      <trkpt lat="47.08879" lon="5.45383">
        <ele>222</ele>
        <time>2012-06-19T12:00:51Z</time>
      </trkpt>
      <trkpt lat="47.08886" lon="5.45373">
        <ele>222</ele>
        <time>2012-06-19T12:00:53Z</time>
      </trkpt>
      <trkpt lat="47.08893" lon="5.45362">
        <ele>222</ele>
        <time>2012-06-19T12:00:55Z</time>
      </trkpt>
      <trkpt lat="47.089" lon="5.45351">
        <ele>222</ele>
        <time>2012-06-19T12:00:57Z</time>
      </trkpt>
      <trkpt lat="47.08906" lon="5.45339">
        <ele>222</ele>
        <time>2012-06-19T12:00:59Z</time>
      </trkpt>
      <trkpt lat="47.08915" lon="5.45324">
        <ele>222</ele>
        <time>2012-06-19T12:01:02Z</time>
      </trkpt>
      <trkpt lat="47.08928" lon="5.45317">
        <ele>222</ele>
        <time>2012-06-19T12:01:05Z</time>
      </trkpt>
      <trkpt lat="47.08941" lon="5.45317">
        <ele>222</ele>
        <time>2012-06-19T12:01:08Z</time>
      </trkpt>
      <trkpt lat="47.08953" lon="5.45319">
        <ele>222</ele>
        <time>2012-06-19T12:01:11Z</time>
      </trkpt>
      <trkpt lat="47.08964" lon="5.45321">
        <ele>222</ele>
        <time>2012-06-19T12:01:14Z</time>
      </trkpt>
      <trkpt lat="47.08975" lon="5.45324">
        <ele>222</ele>
        <time>2012-06-19T12:01:17Z</time>
      </trkpt>
      <trkpt lat="47.08987" lon="5.45323">
        <ele>222</ele>
        <time>2012-06-19T12:01:20Z</time>
      </trkpt>
      <trkpt lat="47.08999" lon="5.45321">
        <ele>222</ele>
        <time>2012-06-19T12:01:23Z</time>
      </trkpt>
      <trkpt lat="47.0901" lon="5.45315">
        <ele>228</ele>
        <time>2012-06-19T12:01:26Z</time>
      </trkpt>
      <trkpt lat="47.0902" lon="5.45309">
        <ele>228</ele>
        <time>2012-06-19T12:01:29Z</time>
      </trkpt>
      <trkpt lat="47.09032" lon="5.45303">
        <ele>228</ele>
        <time>2012-06-19T12:01:32Z</time>
      </trkpt>
      <trkpt lat="47.09042" lon="5.45296">
        <ele>228</ele>
        <time>2012-06-19T12:01:35Z</time>
      </trkpt>
      <trkpt lat="47.09053" lon="5.45289">
        <ele>228</ele>
        <time>2012-06-19T12:01:38Z</time>
      </trkpt>
      <trkpt lat="47.09063" lon="5.45283">
        <ele>228</ele>
        <time>2012-06-19T12:01:41Z</time>
      </trkpt>
      <trkpt lat="47.09073" lon="5.45276">
        <ele>228</ele>
        <time>2012-06-19T12:01:44Z</time>
      </trkpt>
      <trkpt lat="47.09084" lon="5.45269">
        <ele>233</ele>
        <time>2012-06-19T12:01:47Z</time>
      </trkpt>
      <trkpt lat="47.09095" lon="5.45262">
        <ele>233</ele>
        <time>2012-06-19T12:01:50Z</time>
      </trkpt>
      <trkpt lat="47.09107" lon="5.45256">
        <ele>233</ele>
        <time>2012-06-19T12:01:53Z</time>
      </trkpt>
      <trkpt lat="47.09118" lon="5.45249">
        <ele>233</ele>
        <time>2012-06-19T12:01:56Z</time>
      </trkpt>
      <trkpt lat="47.0913" lon="5.45241">
        <ele>233</ele>
        <time>2012-06-19T12:01:59Z</time>
      </trkpt>
      <trkpt lat="47.09143" lon="5.45234">
        <ele>233</ele>
        <time>2012-06-19T12:02:02Z</time>
      </trkpt>
      <trkpt lat="47.09151" lon="5.4523">
        <ele>233</ele>
        <time>2012-06-19T12:02:04Z</time>
      </trkpt>
      <trkpt lat="47.0916" lon="5.45224">
        <ele>233</ele>
        <time>2012-06-19T12:02:06Z</time>
      </trkpt>
      <trkpt lat="47.09168" lon="5.45218">
        <ele>233</ele>
        <time>2012-06-19T12:02:08Z</time>
      </trkpt>
      <trkpt lat="47.09178" lon="5.45213">
        <ele>233</ele>
        <time>2012-06-19T12:02:10Z</time>
      </trkpt>
      <trkpt lat="47.09188" lon="5.45206">
        <ele>233</ele>
        <time>2012-06-19T12:02:12Z</time>
      </trkpt>
      <trkpt lat="47.09199" lon="5.452">
        <ele>233</ele>
        <time>2012-06-19T12:02:14Z</time>
      </trkpt>
      <trkpt lat="47.09209" lon="5.45194">
        <ele>233</ele>
        <time>2012-06-19T12:02:16Z</time>
      </trkpt>
      <trkpt lat="47.09219" lon="5.45188">
        <ele>233</ele>
        <time>2012-06-19T12:02:18Z</time>
      </trkpt>
      <trkpt lat="47.09229" lon="5.45181">
        <ele>233</ele>
        <time>2012-06-19T12:02:20Z</time>
      </trkpt>
      <trkpt lat="47.0924" lon="5.45175">
        <ele>233</ele>
        <time>2012-06-19T12:02:22Z</time>
      </trkpt>
      <trkpt lat="47.09249" lon="5.45169">
        <ele>233</ele>
        <time>2012-06-19T12:02:24Z</time>
      </trkpt>
      <trkpt lat="47.0926" lon="5.45162">
        <ele>233</ele>
        <time>2012-06-19T12:02:26Z</time>
      </trkpt>
      <trkpt lat="47.09269" lon="5.45157">
        <ele>233</ele>
        <time>2012-06-19T12:02:28Z</time>
      </trkpt>
      <trkpt lat="47.09279" lon="5.45152">
        <ele>233</ele>
        <time>2012-06-19T12:02:30Z</time>
      </trkpt>
      <trkpt lat="47.09288" lon="5.45147">
        <ele>233</ele>
        <time>2012-06-19T12:02:32Z</time>
      </trkpt>
      <trkpt lat="47.09297" lon="5.45143">
        <ele>233</ele>
        <time>2012-06-19T12:02:34Z</time>
      </trkpt>
      <trkpt lat="47.09309" lon="5.45135">
        <ele>239</ele>
        <time>2012-06-19T12:02:37Z</time>
      </trkpt>
      <trkpt lat="47.0932" lon="5.45128">
        <ele>239</ele>
        <time>2012-06-19T12:02:40Z</time>
      </trkpt>
      <trkpt lat="47.09331" lon="5.45122">
        <ele>239</ele>
        <time>2012-06-19T12:02:43Z</time>
      </trkpt>
      <trkpt lat="47.09342" lon="5.45116">
        <ele>239</ele>
        <time>2012-06-19T12:02:46Z</time>
      </trkpt>
      <trkpt lat="47.09351" lon="5.45109">
        <ele>245</ele>
        <time>2012-06-19T12:02:49Z</time>
      </trkpt>
      <trkpt lat="47.09361" lon="5.45103">
        <ele>245</ele>
        <time>2012-06-19T12:02:52Z</time>
      </trkpt>
      <trkpt lat="47.09371" lon="5.45099">
        <ele>245</ele>
        <time>2012-06-19T12:02:55Z</time>
      </trkpt>
      <trkpt lat="47.09381" lon="5.45096">
        <ele>245</ele>
        <time>2012-06-19T12:02:58Z</time>
      </trkpt>
      <trkpt lat="47.09391" lon="5.45094">
        <ele>245</ele>
        <time>2012-06-19T12:03:01Z</time>
      </trkpt>
      <trkpt lat="47.09402" lon="5.45096">
        <ele>245</ele>
        <time>2012-06-19T12:03:04Z</time>
      </trkpt>
      <trkpt lat="47.09412" lon="5.451">
        <ele>245</ele>
        <time>2012-06-19T12:03:07Z</time>
      </trkpt>
      <trkpt lat="47.09423" lon="5.45106">
        <ele>245</ele>
        <time>2012-06-19T12:03:10Z</time>
      </trkpt>
      <trkpt lat="47.09435" lon="5.45112">
        <ele>245</ele>
        <time>2012-06-19T12:03:13Z</time>
      </trkpt>
      <trkpt lat="47.09445" lon="5.4512">
        <ele>245</ele>
        <time>2012-06-19T12:03:16Z</time>
      </trkpt>
      <trkpt lat="47.09456" lon="5.45128">
        <ele>245</ele>
        <time>2012-06-19T12:03:19Z</time>
      </trkpt>
      <trkpt lat="47.09468" lon="5.45135">
        <ele>245</ele>
        <time>2012-06-19T12:03:22Z</time>
      </trkpt>
      <trkpt lat="47.09479" lon="5.45144">
        <ele>245</ele>
        <time>2012-06-19T12:03:25Z</time>
      </trkpt>
      <trkpt lat="47.0949" lon="5.4515">
        <ele>245</ele>
        <time>2012-06-19T12:03:28Z</time>
      </trkpt>
      <trkpt lat="47.09502" lon="5.45155">
        <ele>245</ele>
        <time>2012-06-19T12:03:31Z</time>
      </trkpt>
      <trkpt lat="47.09513" lon="5.45161">
        <ele>245</ele>
        <time>2012-06-19T12:03:34Z</time>
      </trkpt>
      <trkpt lat="47.09524" lon="5.45166">
        <ele>245</ele>
        <time>2012-06-19T12:03:37Z</time>
      </trkpt>
      <trkpt lat="47.09533" lon="5.45169">
        <ele>245</ele>
        <time>2012-06-19T12:03:40Z</time>
      </trkpt>
      <trkpt lat="47.09542" lon="5.45174">
        <ele>245</ele>
        <time>2012-06-19T12:03:43Z</time>
      </trkpt>
      <trkpt lat="47.09552" lon="5.45179">
        <ele>245</ele>
        <time>2012-06-19T12:03:46Z</time>
      </trkpt>
      <trkpt lat="47.09563" lon="5.45183">
        <ele>245</ele>
        <time>2012-06-19T12:03:49Z</time>
      </trkpt>
      <trkpt lat="47.09575" lon="5.45187">
        <ele>245</ele>
        <time>2012-06-19T12:03:52Z</time>
      </trkpt>
      <trkpt lat="47.09586" lon="5.4519">
        <ele>245</ele>
        <time>2012-06-19T12:03:55Z</time>
      </trkpt>
      <trkpt lat="47.09599" lon="5.45193">
        <ele>251</ele>
        <time>2012-06-19T12:03:58Z</time>
      </trkpt>
      <trkpt lat="47.0961" lon="5.45195">
        <ele>251</ele>
        <time>2012-06-19T12:04:01Z</time>
      </trkpt>
      <trkpt lat="47.09619" lon="5.45197">
        <ele>251</ele>
        <time>2012-06-19T12:04:04Z</time>
      </trkpt>
      <trkpt lat="47.09628" lon="5.45191">
        <ele>251</ele>
        <time>2012-06-19T12:04:07Z</time>
      </trkpt>
      <trkpt lat="47.09638" lon="5.45185">
        <ele>251</ele>
        <time>2012-06-19T12:04:10Z</time>
      </trkpt>
      <trkpt lat="47.09648" lon="5.45176">
        <ele>251</ele>
        <time>2012-06-19T12:04:13Z</time>
      </trkpt>
      <trkpt lat="47.09657" lon="5.45166">
        <ele>251</ele>
        <time>2012-06-19T12:04:16Z</time>
      </trkpt>
      <trkpt lat="47.09665" lon="5.45155">
        <ele>256</ele>
        <time>2012-06-19T12:04:19Z</time>
      </trkpt>
      <trkpt lat="47.09673" lon="5.45144">
        <ele>256</ele>
        <time>2012-06-19T12:04:22Z</time>
      </trkpt>
      <trkpt lat="47.09681" lon="5.45134">
        <ele>256</ele>
        <time>2012-06-19T12:04:25Z</time>
      </trkpt>
      <trkpt lat="47.09688" lon="5.45124">
        <ele>256</ele>
        <time>2012-06-19T12:04:28Z</time>
      </trkpt>
      <trkpt lat="47.09695" lon="5.45114">
        <ele>256</ele>
        <time>2012-06-19T12:04:31Z</time>
      </trkpt>
      <trkpt lat="47.09703" lon="5.45103">
        <ele>256</ele>
        <time>2012-06-19T12:04:34Z</time>
      </trkpt>
      <trkpt lat="47.09711" lon="5.45092">
        <ele>256</ele>
        <time>2012-06-19T12:04:37Z</time>
      </trkpt>
      <trkpt lat="47.09719" lon="5.45082">
        <ele>261</ele>
        <time>2012-06-19T12:04:40Z</time>
      </trkpt>
      <trkpt lat="47.09726" lon="5.45072">
        <ele>261</ele>
        <time>2012-06-19T12:04:43Z</time>
      </trkpt>
      <trkpt lat="47.09734" lon="5.45062">
        <ele>261</ele>
        <time>2012-06-19T12:04:46Z</time>
      </trkpt>
      <trkpt lat="47.09741" lon="5.45052">
        <ele>261</ele>
        <time>2012-06-19T12:04:49Z</time>
      </trkpt>
      <trkpt lat="47.09748" lon="5.45042">
        <ele>261</ele>
        <time>2012-06-19T12:04:52Z</time>
      </trkpt>
      <trkpt lat="47.09755" lon="5.45032">
        <ele>261</ele>
        <time>2012-06-19T12:04:55Z</time>
      </trkpt>
      <trkpt lat="47.09762" lon="5.45023">
        <ele>261</ele>
        <time>2012-06-19T12:04:58Z</time>
      </trkpt>
      <trkpt lat="47.09768" lon="5.45013">
        <ele>261</ele>
        <time>2012-06-19T12:05:01Z</time>
      </trkpt>
      <trkpt lat="47.09775" lon="5.45003">
        <ele>267</ele>
        <time>2012-06-19T12:05:04Z</time>
      </trkpt>
      <trkpt lat="47.09783" lon="5.44992">
        <ele>267</ele>
        <time>2012-06-19T12:05:08Z</time>
      </trkpt>
      <trkpt lat="47.09788" lon="5.4498">
        <ele>267</ele>
        <time>2012-06-19T12:05:11Z</time>
      </trkpt>
      <trkpt lat="47.09792" lon="5.44968">
        <ele>267</ele>
        <time>2012-06-19T12:05:14Z</time>
      </trkpt>
      <trkpt lat="47.09795" lon="5.44956">
        <ele>267</ele>
        <time>2012-06-19T12:05:17Z</time>
      </trkpt>
      <trkpt lat="47.09797" lon="5.44941">
        <ele>267</ele>
        <time>2012-06-19T12:05:20Z</time>
      </trkpt>
      <trkpt lat="47.09799" lon="5.44924">
        <ele>267</ele>
        <time>2012-06-19T12:05:23Z</time>
      </trkpt>
      <trkpt lat="47.09799" lon="5.44905">
        <ele>267</ele>
        <time>2012-06-19T12:05:26Z</time>
      </trkpt>
      <trkpt lat="47.09799" lon="5.44891">
        <ele>267</ele>
        <time>2012-06-19T12:05:28Z</time>
      </trkpt>
      <trkpt lat="47.09796" lon="5.44877">
        <ele>267</ele>
        <time>2012-06-19T12:05:30Z</time>
      </trkpt>
      <trkpt lat="47.09791" lon="5.44863">
        <ele>267</ele>
        <time>2012-06-19T12:05:32Z</time>
      </trkpt>
      <trkpt lat="47.09786" lon="5.44847">
        <ele>267</ele>
        <time>2012-06-19T12:05:34Z</time>
      </trkpt>
      <trkpt lat="47.09781" lon="5.44828">
        <ele>267</ele>
        <time>2012-06-19T12:05:36Z</time>
      </trkpt>
      <trkpt lat="47.09781" lon="5.44808">
        <ele>262</ele>
        <time>2012-06-19T12:05:38Z</time>
      </trkpt>
      <trkpt lat="47.09785" lon="5.44786">
        <ele>262</ele>
        <time>2012-06-19T12:05:40Z</time>
      </trkpt>
      <trkpt lat="47.09791" lon="5.44764">
        <ele>262</ele>
        <time>2012-06-19T12:05:42Z</time>
      </trkpt>
      <trkpt lat="47.09797" lon="5.44742">
        <ele>262</ele>
        <time>2012-06-19T12:05:44Z</time>
      </trkpt>
      <trkpt lat="47.09803" lon="5.44722">
        <ele>252</ele>
        <time>2012-06-19T12:05:46Z</time>
      </trkpt>
      <trkpt lat="47.09811" lon="5.447">
        <ele>252</ele>
        <time>2012-06-19T12:05:48Z</time>
      </trkpt>
      <trkpt lat="47.09822" lon="5.44681">
        <ele>252</ele>
        <time>2012-06-19T12:05:50Z</time>
      </trkpt>
      <trkpt lat="47.09836" lon="5.44665">
        <ele>252</ele>
        <time>2012-06-19T12:05:52Z</time>
      </trkpt>
      <trkpt lat="47.09843" lon="5.44657">
        <ele>252</ele>
        <time>2012-06-19T12:05:53Z</time>
      </trkpt>
      <trkpt lat="47.09851" lon="5.44649">
        <ele>252</ele>
        <time>2012-06-19T12:05:54Z</time>
      </trkpt>
      <trkpt lat="47.09859" lon="5.44641">
        <ele>252</ele>
        <time>2012-06-19T12:05:55Z</time>
      </trkpt>
      <trkpt lat="47.09867" lon="5.44632">
        <ele>247</ele>
        <time>2012-06-19T12:05:56Z</time>
      </trkpt>
      <trkpt lat="47.09875" lon="5.44622">
        <ele>247</ele>
        <time>2012-06-19T12:05:57Z</time>
      </trkpt>
      <trkpt lat="47.09882" lon="5.44612">
        <ele>247</ele>
        <time>2012-06-19T12:05:58Z</time>
      </trkpt>
      <trkpt lat="47.09889" lon="5.446">
        <ele>247</ele>
        <time>2012-06-19T12:05:59Z</time>
      </trkpt>
      <trkpt lat="47.09896" lon="5.44588">
        <ele>247</ele>
        <time>2012-06-19T12:06:00Z</time>
      </trkpt>
      <trkpt lat="47.09902" lon="5.44576">
        <ele>247</ele>
        <time>2012-06-19T12:06:01Z</time>
      </trkpt>
      <trkpt lat="47.09908" lon="5.44563">
        <ele>247</ele>
        <time>2012-06-19T12:06:02Z</time>
      </trkpt>
      <trkpt lat="47.09914" lon="5.44551">
        <ele>247</ele>
        <time>2012-06-19T12:06:03Z</time>
      </trkpt>
      <trkpt lat="47.0992" lon="5.44537">
        <ele>247</ele>
        <time>2012-06-19T12:06:04Z</time>
      </trkpt>
      <trkpt lat="47.09926" lon="5.44524">
        <ele>242</ele>
        <time>2012-06-19T12:06:05Z</time>
      </trkpt>
      <trkpt lat="47.09932" lon="5.44511">
        <ele>242</ele>
        <time>2012-06-19T12:06:06Z</time>
      </trkpt>
      <trkpt lat="47.09938" lon="5.44498">
        <ele>242</ele>
        <time>2012-06-19T12:06:07Z</time>
      </trkpt>
      <trkpt lat="47.09944" lon="5.44484">
        <ele>242</ele>
        <time>2012-06-19T12:06:08Z</time>
      </trkpt>
      <trkpt lat="47.09949" lon="5.44471">
        <ele>242</ele>
        <time>2012-06-19T12:06:09Z</time>
      </trkpt>
      <trkpt lat="47.09954" lon="5.44458">
        <ele>242</ele>
        <time>2012-06-19T12:06:10Z</time>
      </trkpt>
      <trkpt lat="47.09959" lon="5.44446">
        <ele>242</ele>
        <time>2012-06-19T12:06:11Z</time>
      </trkpt>
      <trkpt lat="47.09968" lon="5.44424">
        <ele>242</ele>
        <time>2012-06-19T12:06:13Z</time>
      </trkpt>
      <trkpt lat="47.09975" lon="5.44405">
        <ele>242</ele>
        <time>2012-06-19T12:06:15Z</time>
      </trkpt>
      <trkpt lat="47.09979" lon="5.44391">
        <ele>242</ele>
        <time>2012-06-19T12:06:17Z</time>
      </trkpt>
      <trkpt lat="47.09983" lon="5.44377">
        <ele>242</ele>
        <time>2012-06-19T12:06:20Z</time>
      </trkpt>
      <trkpt lat="47.09987" lon="5.44366">
        <ele>242</ele>
        <time>2012-06-19T12:06:23Z</time>
      </trkpt>
      <trkpt lat="47.09991" lon="5.44349">
        <ele>236</ele>
        <time>2012-06-19T12:06:26Z</time>
      </trkpt>
      <trkpt lat="47.09995" lon="5.44332">
        <ele>236</ele>
        <time>2012-06-19T12:06:29Z</time>
      </trkpt>
      <trkpt lat="47.10001" lon="5.44315">
        <ele>236</ele>
        <time>2012-06-19T12:06:32Z</time>
      </trkpt>
      <trkpt lat="47.10005" lon="5.44303">
        <ele>236</ele>
        <time>2012-06-19T12:06:34Z</time>
      </trkpt>
      <trkpt lat="47.10008" lon="5.44289">
        <ele>236</ele>
        <time>2012-06-19T12:06:36Z</time>
      </trkpt>
      <trkpt lat="47.10013" lon="5.44274">
        <ele>236</ele>
        <time>2012-06-19T12:06:38Z</time>
      </trkpt>
      <trkpt lat="47.10018" lon="5.44259">
        <ele>236</ele>
        <time>2012-06-19T12:06:40Z</time>
      </trkpt>
      <trkpt lat="47.10023" lon="5.44243">
        <ele>236</ele>
        <time>2012-06-19T12:06:42Z</time>
      </trkpt>
      <trkpt lat="47.1003" lon="5.44227">
        <ele>236</ele>
        <time>2012-06-19T12:06:44Z</time>
      </trkpt>
      <trkpt lat="47.1004" lon="5.44215">
        <ele>236</ele>
        <time>2012-06-19T12:06:46Z</time>
      </trkpt>
      <trkpt lat="47.10049" lon="5.44204">
        <ele>236</ele>
        <time>2012-06-19T12:06:48Z</time>
      </trkpt>
      <trkpt lat="47.10061" lon="5.44195">
        <ele>236</ele>
        <time>2012-06-19T12:06:50Z</time>
      </trkpt>
      <trkpt lat="47.10073" lon="5.44186">
        <ele>236</ele>
        <time>2012-06-19T12:06:52Z</time>
      </trkpt>
      <trkpt lat="47.10085" lon="5.44179">
        <ele>236</ele>
        <time>2012-06-19T12:06:54Z</time>
      </trkpt>
      <trkpt lat="47.10097" lon="5.44171">
        <ele>236</ele>
        <time>2012-06-19T12:06:56Z</time>
      </trkpt>
      <trkpt lat="47.10109" lon="5.44164">
        <ele>236</ele>
        <time>2012-06-19T12:06:58Z</time>
      </trkpt>
      <trkpt lat="47.10121" lon="5.44158">
        <ele>236</ele>
        <time>2012-06-19T12:07:00Z</time>
      </trkpt>
      <trkpt lat="47.10133" lon="5.44153">
        <ele>236</ele>
        <time>2012-06-19T12:07:02Z</time>
      </trkpt>
      <trkpt lat="47.10144" lon="5.44147">
        <ele>236</ele>
        <time>2012-06-19T12:07:04Z</time>
      </trkpt>
      <trkpt lat="47.10156" lon="5.4414">
        <ele>236</ele>
        <time>2012-06-19T12:07:06Z</time>
      </trkpt>
      <trkpt lat="47.10167" lon="5.44132">
        <ele>236</ele>
        <time>2012-06-19T12:07:08Z</time>
      </trkpt>
      <trkpt lat="47.10179" lon="5.44123">
        <ele>236</ele>
        <time>2012-06-19T12:07:10Z</time>
      </trkpt>
      <trkpt lat="47.10191" lon="5.44113">
        <ele>236</ele>
        <time>2012-06-19T12:07:12Z</time>
      </trkpt>
      <trkpt lat="47.10203" lon="5.44105">
        <ele>236</ele>
        <time>2012-06-19T12:07:14Z</time>
      </trkpt>
      <trkpt lat="47.10214" lon="5.44096">
        <ele>236</ele>
        <time>2012-06-19T12:07:16Z</time>
      </trkpt>
      <trkpt lat="47.10226" lon="5.44087">
        <ele>236</ele>
        <time>2012-06-19T12:07:18Z</time>
      </trkpt>
      <trkpt lat="47.10238" lon="5.44079">
        <ele>236</ele>
        <time>2012-06-19T12:07:20Z</time>
      </trkpt>
      <trkpt lat="47.10249" lon="5.4407">
        <ele>236</ele>
        <time>2012-06-19T12:07:22Z</time>
      </trkpt>
      <trkpt lat="47.10262" lon="5.44062">
        <ele>236</ele>
        <time>2012-06-19T12:07:24Z</time>
      </trkpt>
      <trkpt lat="47.10275" lon="5.44053">
        <ele>236</ele>
        <time>2012-06-19T12:07:26Z</time>
      </trkpt>
      <trkpt lat="47.10287" lon="5.44043">
        <ele>236</ele>
        <time>2012-06-19T12:07:28Z</time>
      </trkpt>
      <trkpt lat="47.103" lon="5.44034">
        <ele>236</ele>
        <time>2012-06-19T12:07:30Z</time>
      </trkpt>
      <trkpt lat="47.10311" lon="5.44024">
        <ele>236</ele>
        <time>2012-06-19T12:07:32Z</time>
      </trkpt>
      <trkpt lat="47.10322" lon="5.44016">
        <ele>236</ele>
        <time>2012-06-19T12:07:34Z</time>
      </trkpt>
      <trkpt lat="47.10332" lon="5.44007">
        <ele>236</ele>
        <time>2012-06-19T12:07:36Z</time>
      </trkpt>
      <trkpt lat="47.10343" lon="5.43999">
        <ele>236</ele>
        <time>2012-06-19T12:07:38Z</time>
      </trkpt>
      <trkpt lat="47.10352" lon="5.43991">
        <ele>236</ele>
        <time>2012-06-19T12:07:40Z</time>
      </trkpt>
      <trkpt lat="47.10363" lon="5.43985">
        <ele>229</ele>
        <time>2012-06-19T12:07:42Z</time>
      </trkpt>
      <trkpt lat="47.10374" lon="5.43976">
        <ele>229</ele>
        <time>2012-06-19T12:07:44Z</time>
      </trkpt>
      <trkpt lat="47.10384" lon="5.43964">
        <ele>229</ele>
        <time>2012-06-19T12:07:46Z</time>
      </trkpt>
      <trkpt lat="47.10394" lon="5.43951">
        <ele>229</ele>
        <time>2012-06-19T12:07:48Z</time>
      </trkpt>
      <trkpt lat="47.10403" lon="5.43936">
        <ele>229</ele>
        <time>2012-06-19T12:07:50Z</time>
      </trkpt>
      <trkpt lat="47.10413" lon="5.43919">
        <ele>229</ele>
        <time>2012-06-19T12:07:52Z</time>
      </trkpt>
      <trkpt lat="47.10422" lon="5.43903">
        <ele>224</ele>
        <time>2012-06-19T12:07:54Z</time>
      </trkpt>
      <trkpt lat="47.10431" lon="5.43884">
        <ele>224</ele>
        <time>2012-06-19T12:07:56Z</time>
      </trkpt>
      <trkpt lat="47.10441" lon="5.43865">
        <ele>224</ele>
        <time>2012-06-19T12:07:58Z</time>
      </trkpt>
      <trkpt lat="47.10451" lon="5.43847">
        <ele>224</ele>
        <time>2012-06-19T12:08:00Z</time>
      </trkpt>
      <trkpt lat="47.10461" lon="5.43828">
        <ele>224</ele>
        <time>2012-06-19T12:08:02Z</time>
      </trkpt>
      <trkpt lat="47.10471" lon="5.43809">
        <ele>224</ele>
        <time>2012-06-19T12:08:04Z</time>
      </trkpt>
      <trkpt lat="47.1048" lon="5.4379">
        <ele>224</ele>
        <time>2012-06-19T12:08:06Z</time>
      </trkpt>
      <trkpt lat="47.1049" lon="5.43772">
        <ele>218</ele>
        <time>2012-06-19T12:08:08Z</time>
      </trkpt>
      <trkpt lat="47.10498" lon="5.43754">
        <ele>218</ele>
        <time>2012-06-19T12:08:10Z</time>
      </trkpt>
      <trkpt lat="47.10504" lon="5.43742">
        <ele>218</ele>
        <time>2012-06-19T12:08:12Z</time>
      </trkpt>
      <trkpt lat="47.10515" lon="5.43741">
        <ele>218</ele>
        <time>2012-06-19T12:08:15Z</time>
      </trkpt>
      <trkpt lat="47.10523" lon="5.43751">
        <ele>218</ele>
        <time>2012-06-19T12:08:19Z</time>
      </trkpt>
      <trkpt lat="47.10532" lon="5.4375">
        <ele>218</ele>
        <time>2012-06-19T12:08:26Z</time>
      </trkpt>
      <trkpt lat="47.10541" lon="5.43742">
        <ele>218</ele>
        <time>2012-06-19T12:08:29Z</time>
      </trkpt>
      <trkpt lat="47.10549" lon="5.43736">
        <ele>218</ele>
        <time>2012-06-19T12:08:31Z</time>
      </trkpt>
      <trkpt lat="47.10558" lon="5.43728">
        <ele>218</ele>
        <time>2012-06-19T12:08:33Z</time>
      </trkpt>
      <trkpt lat="47.10567" lon="5.4372">
        <ele>218</ele>
        <time>2012-06-19T12:08:35Z</time>
      </trkpt>
      <trkpt lat="47.10578" lon="5.43713">
        <ele>218</ele>
        <time>2012-06-19T12:08:37Z</time>
      </trkpt>
      <trkpt lat="47.10589" lon="5.43707">
        <ele>218</ele>
        <time>2012-06-19T12:08:39Z</time>
      </trkpt>
      <trkpt lat="47.106" lon="5.43699">
        <ele>218</ele>
        <time>2012-06-19T12:08:41Z</time>
      </trkpt>
      <trkpt lat="47.10609" lon="5.43689">
        <ele>218</ele>
        <time>2012-06-19T12:08:43Z</time>
      </trkpt>
      <trkpt lat="47.10617" lon="5.43677">
        <ele>218</ele>
        <time>2012-06-19T12:08:45Z</time>
      </trkpt>
      <trkpt lat="47.10623" lon="5.43662">
        <ele>218</ele>
        <time>2012-06-19T12:08:47Z</time>
      </trkpt>
      <trkpt lat="47.10627" lon="5.43645">
        <ele>218</ele>
        <time>2012-06-19T12:08:49Z</time>
      </trkpt>
      <trkpt lat="47.10632" lon="5.4363">
        <ele>218</ele>
        <time>2012-06-19T12:08:51Z</time>
      </trkpt>
      <trkpt lat="47.10635" lon="5.43616">
        <ele>218</ele>
        <time>2012-06-19T12:08:53Z</time>
      </trkpt>
      <trkpt lat="47.10638" lon="5.436">
        <ele>218</ele>
        <time>2012-06-19T12:08:56Z</time>
      </trkpt>
      <trkpt lat="47.10643" lon="5.43587">
        <ele>218</ele>
        <time>2012-06-19T12:09:02Z</time>
      </trkpt>
      <trkpt lat="47.10646" lon="5.43574">
        <ele>218</ele>
        <time>2012-06-19T12:09:05Z</time>
      </trkpt>
      <trkpt lat="47.10649" lon="5.43557">
        <ele>218</ele>
        <time>2012-06-19T12:09:08Z</time>
      </trkpt>
      <trkpt lat="47.10653" lon="5.43544">
        <ele>218</ele>
        <time>2012-06-19T12:09:10Z</time>
      </trkpt>
      <trkpt lat="47.10658" lon="5.43531">
        <ele>218</ele>
        <time>2012-06-19T12:09:12Z</time>
      </trkpt>
      <trkpt lat="47.10664" lon="5.43518">
        <ele>218</ele>
        <time>2012-06-19T12:09:14Z</time>
      </trkpt>
      <trkpt lat="47.10671" lon="5.43505">
        <ele>218</ele>
        <time>2012-06-19T12:09:16Z</time>
      </trkpt>
      <trkpt lat="47.10678" lon="5.43492">
        <ele>218</ele>
        <time>2012-06-19T12:09:18Z</time>
      </trkpt>
      <trkpt lat="47.10685" lon="5.4348">
        <ele>218</ele>
        <time>2012-06-19T12:09:20Z</time>
      </trkpt>
      <trkpt lat="47.10693" lon="5.43466">
        <ele>218</ele>
        <time>2012-06-19T12:09:22Z</time>
      </trkpt>
      <trkpt lat="47.10701" lon="5.43454">
        <ele>218</ele>
        <time>2012-06-19T12:09:24Z</time>
      </trkpt>
      <trkpt lat="47.10709" lon="5.43442">
        <ele>218</ele>
        <time>2012-06-19T12:09:26Z</time>
      </trkpt>
      <trkpt lat="47.10717" lon="5.4343">
        <ele>218</ele>
        <time>2012-06-19T12:09:28Z</time>
      </trkpt>
      <trkpt lat="47.10725" lon="5.4342">
        <ele>218</ele>
        <time>2012-06-19T12:09:30Z</time>
      </trkpt>
      <trkpt lat="47.10734" lon="5.43407">
        <ele>218</ele>
        <time>2012-06-19T12:09:32Z</time>
      </trkpt>
      <trkpt lat="47.10741" lon="5.43394">
        <ele>218</ele>
        <time>2012-06-19T12:09:34Z</time>
      </trkpt>
      <trkpt lat="47.10749" lon="5.43381">
        <ele>218</ele>
        <time>2012-06-19T12:09:36Z</time>
      </trkpt>
      <trkpt lat="47.10755" lon="5.43369">
        <ele>218</ele>
        <time>2012-06-19T12:09:38Z</time>
      </trkpt>
      <trkpt lat="47.10763" lon="5.43356">
        <ele>218</ele>
        <time>2012-06-19T12:09:40Z</time>
      </trkpt>
      <trkpt lat="47.1077" lon="5.43343">
        <ele>218</ele>
        <time>2012-06-19T12:09:42Z</time>
      </trkpt>
      <trkpt lat="47.10778" lon="5.43328">
        <ele>218</ele>
        <time>2012-06-19T12:09:44Z</time>
      </trkpt>
      <trkpt lat="47.10787" lon="5.43312">
        <ele>218</ele>
        <time>2012-06-19T12:09:46Z</time>
      </trkpt>
      <trkpt lat="47.10794" lon="5.43292">
        <ele>218</ele>
        <time>2012-06-19T12:09:48Z</time>
      </trkpt>
      <trkpt lat="47.10801" lon="5.43271">
        <ele>218</ele>
        <time>2012-06-19T12:09:50Z</time>
      </trkpt>
      <trkpt lat="47.10808" lon="5.43248">
        <ele>218</ele>
        <time>2012-06-19T12:09:52Z</time>
      </trkpt>
      <trkpt lat="47.10818" lon="5.43227">
        <ele>218</ele>
        <time>2012-06-19T12:09:54Z</time>
      </trkpt>
      <trkpt lat="47.10828" lon="5.43206">
        <ele>218</ele>
        <time>2012-06-19T12:09:56Z</time>
      </trkpt>
      <trkpt lat="47.10836" lon="5.43184">
        <ele>212</ele>
        <time>2012-06-19T12:09:58Z</time>
      </trkpt>
      <trkpt lat="47.10841" lon="5.43161">
        <ele>212</ele>
        <time>2012-06-19T12:10:00Z</time>
      </trkpt>
      <trkpt lat="47.10844" lon="5.43137">
        <ele>212</ele>
        <time>2012-06-19T12:10:02Z</time>
      </trkpt>
      <trkpt lat="47.10847" lon="5.43113">
        <ele>212</ele>
        <time>2012-06-19T12:10:04Z</time>
      </trkpt>
      <trkpt lat="47.10849" lon="5.43091">
        <ele>212</ele>
        <time>2012-06-19T12:10:06Z</time>
      </trkpt>
      <trkpt lat="47.10851" lon="5.43068">
        <ele>212</ele>
        <time>2012-06-19T12:10:08Z</time>
      </trkpt>
      <trkpt lat="47.10854" lon="5.43046">
        <ele>212</ele>
        <time>2012-06-19T12:10:10Z</time>
      </trkpt>
      <trkpt lat="47.10857" lon="5.43024">
        <ele>212</ele>
        <time>2012-06-19T12:10:12Z</time>
      </trkpt>
      <trkpt lat="47.10862" lon="5.43004">
        <ele>212</ele>
        <time>2012-06-19T12:10:14Z</time>
      </trkpt>
      <trkpt lat="47.10867" lon="5.42984">
        <ele>212</ele>
        <time>2012-06-19T12:10:16Z</time>
      </trkpt>
      <trkpt lat="47.10875" lon="5.42965">
        <ele>212</ele>
        <time>2012-06-19T12:10:18Z</time>
      </trkpt>
      <trkpt lat="47.10884" lon="5.42948">
        <ele>212</ele>
        <time>2012-06-19T12:10:20Z</time>
      </trkpt>
      <trkpt lat="47.10895" lon="5.42934">
        <ele>212</ele>
        <time>2012-06-19T12:10:22Z</time>
      </trkpt>
      <trkpt lat="47.10906" lon="5.42921">
        <ele>212</ele>
        <time>2012-06-19T12:10:24Z</time>
      </trkpt>
      <trkpt lat="47.1092" lon="5.42911">
        <ele>212</ele>
        <time>2012-06-19T12:10:26Z</time>
      </trkpt>
      <trkpt lat="47.10932" lon="5.42902">
        <ele>212</ele>
        <time>2012-06-19T12:10:28Z</time>
      </trkpt>
      <trkpt lat="47.10945" lon="5.42893">
        <ele>212</ele>
        <time>2012-06-19T12:10:30Z</time>
      </trkpt>
      <trkpt lat="47.10958" lon="5.42885">
        <ele>212</ele>
        <time>2012-06-19T12:10:32Z</time>
      </trkpt>
      <trkpt lat="47.10971" lon="5.42876">
        <ele>212</ele>
        <time>2012-06-19T12:10:34Z</time>
      </trkpt>
      <trkpt lat="47.10983" lon="5.42866">
        <ele>212</ele>
        <time>2012-06-19T12:10:36Z</time>
      </trkpt>
      <trkpt lat="47.10994" lon="5.42857">
        <ele>212</ele>
        <time>2012-06-19T12:10:38Z</time>
      </trkpt>
      <trkpt lat="47.11006" lon="5.42847">
        <ele>212</ele>
        <time>2012-06-19T12:10:40Z</time>
      </trkpt>
      <trkpt lat="47.11018" lon="5.42837">
        <ele>212</ele>
        <time>2012-06-19T12:10:42Z</time>
      </trkpt>
      <trkpt lat="47.1103" lon="5.42827">
        <ele>212</ele>
        <time>2012-06-19T12:10:44Z</time>
      </trkpt>
      <trkpt lat="47.11041" lon="5.42816">
        <ele>212</ele>
        <time>2012-06-19T12:10:46Z</time>
      </trkpt>
      <trkpt lat="47.11052" lon="5.42805">
        <ele>212</ele>
        <time>2012-06-19T12:10:48Z</time>
      </trkpt>
      <trkpt lat="47.11062" lon="5.42794">
        <ele>212</ele>
        <time>2012-06-19T12:10:50Z</time>
      </trkpt>
      <trkpt lat="47.11072" lon="5.42782">
        <ele>212</ele>
        <time>2012-06-19T12:10:52Z</time>
      </trkpt>
      <trkpt lat="47.11084" lon="5.4277">
        <ele>212</ele>
        <time>2012-06-19T12:10:54Z</time>
      </trkpt>
      <trkpt lat="47.11094" lon="5.42758">
        <ele>212</ele>
        <time>2012-06-19T12:10:56Z</time>
      </trkpt>
      <trkpt lat="47.11105" lon="5.42744">
        <ele>212</ele>
        <time>2012-06-19T12:10:58Z</time>
      </trkpt>
      <trkpt lat="47.11116" lon="5.42732">
        <ele>212</ele>
        <time>2012-06-19T12:11:00Z</time>
      </trkpt>
      <trkpt lat="47.11128" lon="5.42717">
        <ele>212</ele>
        <time>2012-06-19T12:11:02Z</time>
      </trkpt>
      <trkpt lat="47.11139" lon="5.42704">
        <ele>212</ele>
        <time>2012-06-19T12:11:04Z</time>
      </trkpt>
      <trkpt lat="47.11151" lon="5.42689">
        <ele>212</ele>
        <time>2012-06-19T12:11:06Z</time>
      </trkpt>
      <trkpt lat="47.11162" lon="5.42677">
        <ele>212</ele>
        <time>2012-06-19T12:11:08Z</time>
      </trkpt>
      <trkpt lat="47.11174" lon="5.42663">
        <ele>212</ele>
        <time>2012-06-19T12:11:10Z</time>
      </trkpt>
      <trkpt lat="47.11185" lon="5.4265">
        <ele>212</ele>
        <time>2012-06-19T12:11:12Z</time>
      </trkpt>
      <trkpt lat="47.11196" lon="5.42637">
        <ele>212</ele>
        <time>2012-06-19T12:11:14Z</time>
      </trkpt>
      <trkpt lat="47.11207" lon="5.42625">
        <ele>212</ele>
        <time>2012-06-19T12:11:16Z</time>
      </trkpt>
      <trkpt lat="47.11218" lon="5.42612">
        <ele>212</ele>
        <time>2012-06-19T12:11:18Z</time>
      </trkpt>
      <trkpt lat="47.11229" lon="5.42599">
        <ele>212</ele>
        <time>2012-06-19T12:11:20Z</time>
      </trkpt>
      <trkpt lat="47.1124" lon="5.42586">
        <ele>212</ele>
        <time>2012-06-19T12:11:22Z</time>
      </trkpt>
      <trkpt lat="47.1125" lon="5.42574">
        <ele>212</ele>
        <time>2012-06-19T12:11:24Z</time>
      </trkpt>
      <trkpt lat="47.11261" lon="5.42562">
        <ele>212</ele>
        <time>2012-06-19T12:11:26Z</time>
      </trkpt>
      <trkpt lat="47.11271" lon="5.42548">
        <ele>212</ele>
        <time>2012-06-19T12:11:28Z</time>
      </trkpt>
      <trkpt lat="47.1128" lon="5.42536">
        <ele>212</ele>
        <time>2012-06-19T12:11:30Z</time>
      </trkpt>
      <trkpt lat="47.11289" lon="5.42522">
        <ele>212</ele>
        <time>2012-06-19T12:11:32Z</time>
      </trkpt>
      <trkpt lat="47.11298" lon="5.42507">
        <ele>212</ele>
        <time>2012-06-19T12:11:34Z</time>
      </trkpt>
      <trkpt lat="47.11306" lon="5.42492">
        <ele>212</ele>
        <time>2012-06-19T12:11:36Z</time>
      </trkpt>
      <trkpt lat="47.11314" lon="5.42476">
        <ele>212</ele>
        <time>2012-06-19T12:11:38Z</time>
      </trkpt>
      <trkpt lat="47.11321" lon="5.4246">
        <ele>212</ele>
        <time>2012-06-19T12:11:40Z</time>
      </trkpt>
      <trkpt lat="47.11329" lon="5.42444">
        <ele>212</ele>
        <time>2012-06-19T12:11:42Z</time>
      </trkpt>
      <trkpt lat="47.11337" lon="5.42427">
        <ele>212</ele>
        <time>2012-06-19T12:11:44Z</time>
      </trkpt>
      <trkpt lat="47.11344" lon="5.4241">
        <ele>212</ele>
        <time>2012-06-19T12:11:46Z</time>
      </trkpt>
      <trkpt lat="47.11351" lon="5.42394">
        <ele>212</ele>
        <time>2012-06-19T12:11:48Z</time>
      </trkpt>
      <trkpt lat="47.11358" lon="5.42379">
        <ele>212</ele>
        <time>2012-06-19T12:11:50Z</time>
      </trkpt>
      <trkpt lat="47.11366" lon="5.42362">
        <ele>212</ele>
        <time>2012-06-19T12:11:52Z</time>
      </trkpt>
      <trkpt lat="47.11373" lon="5.42345">
        <ele>212</ele>
        <time>2012-06-19T12:11:54Z</time>
      </trkpt>
      <trkpt lat="47.1138" lon="5.42329">
        <ele>212</ele>
        <time>2012-06-19T12:11:56Z</time>
      </trkpt>
      <trkpt lat="47.11388" lon="5.42312">
        <ele>212</ele>
        <time>2012-06-19T12:11:58Z</time>
      </trkpt>
      <trkpt lat="47.11394" lon="5.42294">
        <ele>212</ele>
        <time>2012-06-19T12:12:00Z</time>
      </trkpt>
      <trkpt lat="47.11402" lon="5.42278">
        <ele>212</ele>
        <time>2012-06-19T12:12:02Z</time>
      </trkpt>
      <trkpt lat="47.11409" lon="5.42261">
        <ele>207</ele>
        <time>2012-06-19T12:12:04Z</time>
      </trkpt>
      <trkpt lat="47.11417" lon="5.42245">
        <ele>207</ele>
        <time>2012-06-19T12:12:06Z</time>
      </trkpt>
      <trkpt lat="47.11424" lon="5.42228">
        <ele>207</ele>
        <time>2012-06-19T12:12:08Z</time>
      </trkpt>
      <trkpt lat="47.11431" lon="5.42211">
        <ele>207</ele>
        <time>2012-06-19T12:12:10Z</time>
      </trkpt>
      <trkpt lat="47.11439" lon="5.42193">
        <ele>207</ele>
        <time>2012-06-19T12:12:12Z</time>
      </trkpt>
      <trkpt lat="47.11446" lon="5.42176">
        <ele>207</ele>
        <time>2012-06-19T12:12:14Z</time>
      </trkpt>
      <trkpt lat="47.11454" lon="5.4216">
        <ele>207</ele>
        <time>2012-06-19T12:12:16Z</time>
      </trkpt>
      <trkpt lat="47.11461" lon="5.42142">
        <ele>207</ele>
        <time>2012-06-19T12:12:18Z</time>
      </trkpt>
      <trkpt lat="47.11468" lon="5.42124">
        <ele>207</ele>
        <time>2012-06-19T12:12:20Z</time>
      </trkpt>
      <trkpt lat="47.11475" lon="5.42106">
        <ele>207</ele>
        <time>2012-06-19T12:12:22Z</time>
      </trkpt>
      <trkpt lat="47.11482" lon="5.42088">
        <ele>207</ele>
        <time>2012-06-19T12:12:24Z</time>
      </trkpt>
      <trkpt lat="47.11488" lon="5.4207">
        <ele>207</ele>
        <time>2012-06-19T12:12:26Z</time>
      </trkpt>
      <trkpt lat="47.11495" lon="5.42051">
        <ele>207</ele>
        <time>2012-06-19T12:12:28Z</time>
      </trkpt>
      <trkpt lat="47.11502" lon="5.42032">
        <ele>207</ele>
        <time>2012-06-19T12:12:30Z</time>
      </trkpt>
      <trkpt lat="47.11509" lon="5.42013">
        <ele>207</ele>
        <time>2012-06-19T12:12:32Z</time>
      </trkpt>
      <trkpt lat="47.11516" lon="5.41994">
        <ele>207</ele>
        <time>2012-06-19T12:12:34Z</time>
      </trkpt>
      <trkpt lat="47.11523" lon="5.41974">
        <ele>207</ele>
        <time>2012-06-19T12:12:36Z</time>
      </trkpt>
      <trkpt lat="47.11529" lon="5.41955">
        <ele>207</ele>
        <time>2012-06-19T12:12:38Z</time>
      </trkpt>
      <trkpt lat="47.11535" lon="5.41936">
        <ele>207</ele>
        <time>2012-06-19T12:12:40Z</time>
      </trkpt>
      <trkpt lat="47.11542" lon="5.41917">
        <ele>207</ele>
        <time>2012-06-19T12:12:42Z</time>
      </trkpt>
      <trkpt lat="47.11549" lon="5.41898">
        <ele>207</ele>
        <time>2012-06-19T12:12:44Z</time>
      </trkpt>
      <trkpt lat="47.11555" lon="5.4188">
        <ele>207</ele>
        <time>2012-06-19T12:12:46Z</time>
      </trkpt>
      <trkpt lat="47.11561" lon="5.41862">
        <ele>207</ele>
        <time>2012-06-19T12:12:48Z</time>
      </trkpt>
      <trkpt lat="47.11568" lon="5.41844">
        <ele>207</ele>
        <time>2012-06-19T12:12:50Z</time>
      </trkpt>
      <trkpt lat="47.11574" lon="5.41827">
        <ele>207</ele>
        <time>2012-06-19T12:12:52Z</time>
      </trkpt>
      <trkpt lat="47.1158" lon="5.41809">
        <ele>207</ele>
        <time>2012-06-19T12:12:54Z</time>
      </trkpt>
      <trkpt lat="47.11586" lon="5.41792">
        <ele>207</ele>
        <time>2012-06-19T12:12:56Z</time>
      </trkpt>
      <trkpt lat="47.11593" lon="5.41774">
        <ele>207</ele>
        <time>2012-06-19T12:12:58Z</time>
      </trkpt>
      <trkpt lat="47.11599" lon="5.41756">
        <ele>207</ele>
        <time>2012-06-19T12:13:00Z</time>
      </trkpt>
      <trkpt lat="47.11605" lon="5.41737">
        <ele>207</ele>
        <time>2012-06-19T12:13:02Z</time>
      </trkpt>
      <trkpt lat="47.11612" lon="5.41718">
        <ele>207</ele>
        <time>2012-06-19T12:13:04Z</time>
      </trkpt>
      <trkpt lat="47.11618" lon="5.41699">
        <ele>207</ele>
        <time>2012-06-19T12:13:06Z</time>
      </trkpt>
      <trkpt lat="47.11624" lon="5.41681">
        <ele>207</ele>
        <time>2012-06-19T12:13:08Z</time>
      </trkpt>
      <trkpt lat="47.11631" lon="5.41663">
        <ele>207</ele>
        <time>2012-06-19T12:13:10Z</time>
      </trkpt>
      <trkpt lat="47.11638" lon="5.41644">
        <ele>207</ele>
        <time>2012-06-19T12:13:12Z</time>
      </trkpt>
      <trkpt lat="47.11644" lon="5.41625">
        <ele>207</ele>
        <time>2012-06-19T12:13:14Z</time>
      </trkpt>
      <trkpt lat="47.11651" lon="5.41606">
        <ele>207</ele>
        <time>2012-06-19T12:13:16Z</time>
      </trkpt>
      <trkpt lat="47.11656" lon="5.41587">
        <ele>207</ele>
        <time>2012-06-19T12:13:18Z</time>
      </trkpt>
      <trkpt lat="47.11662" lon="5.41568">
        <ele>207</ele>
        <time>2012-06-19T12:13:20Z</time>
      </trkpt>
      <trkpt lat="47.11669" lon="5.41549">
        <ele>207</ele>
        <time>2012-06-19T12:13:22Z</time>
      </trkpt>
      <trkpt lat="47.11675" lon="5.4153">
        <ele>207</ele>
        <time>2012-06-19T12:13:24Z</time>
      </trkpt>
      <trkpt lat="47.11682" lon="5.41511">
        <ele>207</ele>
        <time>2012-06-19T12:13:26Z</time>
      </trkpt>
      <trkpt lat="47.11689" lon="5.41493">
        <ele>207</ele>
        <time>2012-06-19T12:13:28Z</time>
      </trkpt>
      <trkpt lat="47.11695" lon="5.41473">
        <ele>207</ele>
        <time>2012-06-19T12:13:30Z</time>
      </trkpt>
      <trkpt lat="47.11702" lon="5.41454">
        <ele>207</ele>
        <time>2012-06-19T12:13:32Z</time>
      </trkpt>
      <trkpt lat="47.11709" lon="5.41435">
        <ele>207</ele>
        <time>2012-06-19T12:13:34Z</time>
      </trkpt>
      <trkpt lat="47.11716" lon="5.41416">
        <ele>207</ele>
        <time>2012-06-19T12:13:36Z</time>
      </trkpt>
      <trkpt lat="47.11723" lon="5.41396">
        <ele>207</ele>
        <time>2012-06-19T12:13:38Z</time>
      </trkpt>
      <trkpt lat="47.11729" lon="5.41376">
        <ele>207</ele>
        <time>2012-06-19T12:13:40Z</time>
      </trkpt>
      <trkpt lat="47.11736" lon="5.41356">
        <ele>207</ele>
        <time>2012-06-19T12:13:42Z</time>
      </trkpt>
      <trkpt lat="47.11742" lon="5.41337">
        <ele>207</ele>
        <time>2012-06-19T12:13:44Z</time>
      </trkpt>
      <trkpt lat="47.1175" lon="5.41318">
        <ele>207</ele>
        <time>2012-06-19T12:13:46Z</time>
      </trkpt>
      <trkpt lat="47.11756" lon="5.413">
        <ele>207</ele>
        <time>2012-06-19T12:13:48Z</time>
      </trkpt>
      <trkpt lat="47.11763" lon="5.41282">
        <ele>207</ele>
        <time>2012-06-19T12:13:50Z</time>
      </trkpt>
      <trkpt lat="47.1177" lon="5.41264">
        <ele>207</ele>
        <time>2012-06-19T12:13:52Z</time>
      </trkpt>
      <trkpt lat="47.11776" lon="5.41245">
        <ele>207</ele>
        <time>2012-06-19T12:13:54Z</time>
      </trkpt>
      <trkpt lat="47.11784" lon="5.41225">
        <ele>207</ele>
        <time>2012-06-19T12:13:56Z</time>
      </trkpt>
      <trkpt lat="47.1179" lon="5.41205">
        <ele>207</ele>
        <time>2012-06-19T12:13:58Z</time>
      </trkpt>
      <trkpt lat="47.11797" lon="5.41186">
        <ele>207</ele>
        <time>2012-06-19T12:14:00Z</time>
      </trkpt>
      <trkpt lat="47.11803" lon="5.41167">
        <ele>207</ele>
        <time>2012-06-19T12:14:02Z</time>
      </trkpt>
      <trkpt lat="47.11809" lon="5.41147">
        <ele>207</ele>
        <time>2012-06-19T12:14:04Z</time>
      </trkpt>
      <trkpt lat="47.11815" lon="5.41125">
        <ele>207</ele>
        <time>2012-06-19T12:14:06Z</time>
      </trkpt>
      <trkpt lat="47.11819" lon="5.41104">
        <ele>207</ele>
        <time>2012-06-19T12:14:08Z</time>
      </trkpt>
      <trkpt lat="47.11824" lon="5.41082">
        <ele>207</ele>
        <time>2012-06-19T12:14:10Z</time>
      </trkpt>
      <trkpt lat="47.11828" lon="5.41063">
        <ele>207</ele>
        <time>2012-06-19T12:14:12Z</time>
      </trkpt>
      <trkpt lat="47.11832" lon="5.41042">
        <ele>207</ele>
        <time>2012-06-19T12:14:14Z</time>
      </trkpt>
      <trkpt lat="47.11837" lon="5.41021">
        <ele>207</ele>
        <time>2012-06-19T12:14:16Z</time>
      </trkpt>
      <trkpt lat="47.11841" lon="5.41">
        <ele>207</ele>
        <time>2012-06-19T12:14:18Z</time>
      </trkpt>
      <trkpt lat="47.11845" lon="5.40979">
        <ele>207</ele>
        <time>2012-06-19T12:14:20Z</time>
      </trkpt>
      <trkpt lat="47.11851" lon="5.40958">
        <ele>207</ele>
        <time>2012-06-19T12:14:22Z</time>
      </trkpt>
      <trkpt lat="47.11854" lon="5.40939">
        <ele>207</ele>
        <time>2012-06-19T12:14:24Z</time>
      </trkpt>
      <trkpt lat="47.11859" lon="5.40916">
        <ele>213</ele>
        <time>2012-06-19T12:14:26Z</time>
      </trkpt>
      <trkpt lat="47.11863" lon="5.40893">
        <ele>213</ele>
        <time>2012-06-19T12:14:28Z</time>
      </trkpt>
      <trkpt lat="47.1187" lon="5.40873">
        <ele>213</ele>
        <time>2012-06-19T12:14:30Z</time>
      </trkpt>
      <trkpt lat="47.11876" lon="5.40854">
        <ele>213</ele>
        <time>2012-06-19T12:14:32Z</time>
      </trkpt>
      <trkpt lat="47.11882" lon="5.40835">
        <ele>218</ele>
        <time>2012-06-19T12:14:34Z</time>
      </trkpt>
      <trkpt lat="47.11888" lon="5.40817">
        <ele>218</ele>
        <time>2012-06-19T12:14:36Z</time>
      </trkpt>
      <trkpt lat="47.11895" lon="5.40798">
        <ele>218</ele>
        <time>2012-06-19T12:14:38Z</time>
      </trkpt>
      <trkpt lat="47.119" lon="5.40781">
        <ele>212</ele>
        <time>2012-06-19T12:14:40Z</time>
      </trkpt>
      <trkpt lat="47.11906" lon="5.40762">
        <ele>212</ele>
        <time>2012-06-19T12:14:42Z</time>
      </trkpt>
      <trkpt lat="47.11911" lon="5.4074">
        <ele>212</ele>
        <time>2012-06-19T12:14:44Z</time>
      </trkpt>
      <trkpt lat="47.11915" lon="5.40718">
        <ele>212</ele>
        <time>2012-06-19T12:14:46Z</time>
      </trkpt>
      <trkpt lat="47.11916" lon="5.40697">
        <ele>212</ele>
        <time>2012-06-19T12:14:48Z</time>
      </trkpt>
      <trkpt lat="47.11917" lon="5.40674">
        <ele>212</ele>
        <time>2012-06-19T12:14:50Z</time>
      </trkpt>
      <trkpt lat="47.11916" lon="5.40651">
        <ele>212</ele>
        <time>2012-06-19T12:14:52Z</time>
      </trkpt>
      <trkpt lat="47.11914" lon="5.40628">
        <ele>212</ele>
        <time>2012-06-19T12:14:54Z</time>
      </trkpt>
      <trkpt lat="47.11911" lon="5.40604">
        <ele>212</ele>
        <time>2012-06-19T12:14:56Z</time>
      </trkpt>
      <trkpt lat="47.11909" lon="5.40579">
        <ele>212</ele>
        <time>2012-06-19T12:14:58Z</time>
      </trkpt>
      <trkpt lat="47.11906" lon="5.40554">
        <ele>212</ele>
        <time>2012-06-19T12:15:00Z</time>
      </trkpt>
      <trkpt lat="47.11902" lon="5.40531">
        <ele>212</ele>
        <time>2012-06-19T12:15:02Z</time>
      </trkpt>
      <trkpt lat="47.11897" lon="5.40509">
        <ele>212</ele>
        <time>2012-06-19T12:15:04Z</time>
      </trkpt>
      <trkpt lat="47.11893" lon="5.40488">
        <ele>212</ele>
        <time>2012-06-19T12:15:06Z</time>
      </trkpt>
      <trkpt lat="47.11887" lon="5.40468">
        <ele>212</ele>
        <time>2012-06-19T12:15:08Z</time>
      </trkpt>
      <trkpt lat="47.11883" lon="5.40448">
        <ele>212</ele>
        <time>2012-06-19T12:15:10Z</time>
      </trkpt>
      <trkpt lat="47.11878" lon="5.40431">
        <ele>212</ele>
        <time>2012-06-19T12:15:12Z</time>
      </trkpt>
      <trkpt lat="47.11872" lon="5.40414">
        <ele>212</ele>
        <time>2012-06-19T12:15:14Z</time>
      </trkpt>
      <trkpt lat="47.11865" lon="5.40397">
        <ele>212</ele>
        <time>2012-06-19T12:15:16Z</time>
      </trkpt>
      <trkpt lat="47.11856" lon="5.40382">
        <ele>212</ele>
        <time>2012-06-19T12:15:18Z</time>
      </trkpt>
      <trkpt lat="47.11846" lon="5.40367">
        <ele>212</ele>
        <time>2012-06-19T12:15:20Z</time>
      </trkpt>
      <trkpt lat="47.11836" lon="5.40353">
        <ele>212</ele>
        <time>2012-06-19T12:15:22Z</time>
      </trkpt>
      <trkpt lat="47.11827" lon="5.40337">
        <ele>212</ele>
        <time>2012-06-19T12:15:24Z</time>
      </trkpt>
      <trkpt lat="47.11819" lon="5.4032">
        <ele>212</ele>
        <time>2012-06-19T12:15:26Z</time>
      </trkpt>
      <trkpt lat="47.11815" lon="5.40299">
        <ele>212</ele>
        <time>2012-06-19T12:15:28Z</time>
      </trkpt>
      <trkpt lat="47.11813" lon="5.40277">
        <ele>212</ele>
        <time>2012-06-19T12:15:30Z</time>
      </trkpt>
      <trkpt lat="47.11814" lon="5.40256">
        <ele>212</ele>
        <time>2012-06-19T12:15:32Z</time>
      </trkpt>
      <trkpt lat="47.11815" lon="5.40235">
        <ele>212</ele>
        <time>2012-06-19T12:15:34Z</time>
      </trkpt>
      <trkpt lat="47.11816" lon="5.40214">
        <ele>212</ele>
        <time>2012-06-19T12:15:36Z</time>
      </trkpt>
      <trkpt lat="47.11817" lon="5.40192">
        <ele>212</ele>
        <time>2012-06-19T12:15:38Z</time>
      </trkpt>
      <trkpt lat="47.11818" lon="5.40171">
        <ele>212</ele>
        <time>2012-06-19T12:15:40Z</time>
      </trkpt>
      <trkpt lat="47.11819" lon="5.40151">
        <ele>212</ele>
        <time>2012-06-19T12:15:42Z</time>
      </trkpt>
      <trkpt lat="47.11819" lon="5.4013">
        <ele>212</ele>
        <time>2012-06-19T12:15:44Z</time>
      </trkpt>
      <trkpt lat="47.11821" lon="5.40109">
        <ele>212</ele>
        <time>2012-06-19T12:15:46Z</time>
      </trkpt>
      <trkpt lat="47.11822" lon="5.40089">
        <ele>212</ele>
        <time>2012-06-19T12:15:48Z</time>
      </trkpt>
      <trkpt lat="47.11824" lon="5.40068">
        <ele>212</ele>
        <time>2012-06-19T12:15:50Z</time>
      </trkpt>
      <trkpt lat="47.11825" lon="5.40048">
        <ele>212</ele>
        <time>2012-06-19T12:15:52Z</time>
      </trkpt>
      <trkpt lat="47.11826" lon="5.40029">
        <ele>212</ele>
        <time>2012-06-19T12:15:54Z</time>
      </trkpt>
      <trkpt lat="47.11829" lon="5.40008">
        <ele>212</ele>
        <time>2012-06-19T12:15:56Z</time>
      </trkpt>
      <trkpt lat="47.11832" lon="5.39988">
        <ele>212</ele>
        <time>2012-06-19T12:15:58Z</time>
      </trkpt>
      <trkpt lat="47.11835" lon="5.39968">
        <ele>212</ele>
        <time>2012-06-19T12:16:00Z</time>
      </trkpt>
      <trkpt lat="47.11838" lon="5.3995">
        <ele>212</ele>
        <time>2012-06-19T12:16:02Z</time>
      </trkpt>
      <trkpt lat="47.11841" lon="5.39932">
        <ele>212</ele>
        <time>2012-06-19T12:16:04Z</time>
      </trkpt>
      <trkpt lat="47.11844" lon="5.39913">
        <ele>212</ele>
        <time>2012-06-19T12:16:06Z</time>
      </trkpt>
      <trkpt lat="47.11846" lon="5.39894">
        <ele>212</ele>
        <time>2012-06-19T12:16:08Z</time>
      </trkpt>
      <trkpt lat="47.11848" lon="5.39875">
        <ele>207</ele>
        <time>2012-06-19T12:16:10Z</time>
      </trkpt>
      <trkpt lat="47.11849" lon="5.39854">
        <ele>207</ele>
        <time>2012-06-19T12:16:12Z</time>
      </trkpt>
      <trkpt lat="47.11849" lon="5.39834">
        <ele>207</ele>
        <time>2012-06-19T12:16:14Z</time>
      </trkpt>
      <trkpt lat="47.11848" lon="5.39812">
        <ele>207</ele>
        <time>2012-06-19T12:16:16Z</time>
      </trkpt>
      <trkpt lat="47.11845" lon="5.3979">
        <ele>207</ele>
        <time>2012-06-19T12:16:18Z</time>
      </trkpt>
      <trkpt lat="47.11841" lon="5.39767">
        <ele>207</ele>
        <time>2012-06-19T12:16:20Z</time>
      </trkpt>
      <trkpt lat="47.11839" lon="5.39755">
        <ele>207</ele>
        <time>2012-06-19T12:16:21Z</time>
      </trkpt>
      <trkpt lat="47.11833" lon="5.39731">
        <ele>207</ele>
        <time>2012-06-19T12:16:23Z</time>
      </trkpt>
      <trkpt lat="47.1183" lon="5.39719">
        <ele>207</ele>
        <time>2012-06-19T12:16:24Z</time>
      </trkpt>
      <trkpt lat="47.11822" lon="5.39695">
        <ele>202</ele>
        <time>2012-06-19T12:16:26Z</time>
      </trkpt>
      <trkpt lat="47.11818" lon="5.39683">
        <ele>202</ele>
        <time>2012-06-19T12:16:27Z</time>
      </trkpt>
      <trkpt lat="47.11811" lon="5.39658">
        <ele>202</ele>
        <time>2012-06-19T12:16:29Z</time>
      </trkpt>
      <trkpt lat="47.11807" lon="5.39646">
        <ele>202</ele>
        <time>2012-06-19T12:16:30Z</time>
      </trkpt>
      <trkpt lat="47.11802" lon="5.39634">
        <ele>202</ele>
        <time>2012-06-19T12:16:31Z</time>
      </trkpt>
      <trkpt lat="47.11798" lon="5.39622">
        <ele>202</ele>
        <time>2012-06-19T12:16:32Z</time>
      </trkpt>
      <trkpt lat="47.11794" lon="5.39609">
        <ele>202</ele>
        <time>2012-06-19T12:16:33Z</time>
      </trkpt>
      <trkpt lat="47.11789" lon="5.39596">
        <ele>202</ele>
        <time>2012-06-19T12:16:34Z</time>
      </trkpt>
      <trkpt lat="47.11785" lon="5.39584">
        <ele>202</ele>
        <time>2012-06-19T12:16:35Z</time>
      </trkpt>
      <trkpt lat="47.11778" lon="5.3956">
        <ele>202</ele>
        <time>2012-06-19T12:16:37Z</time>
      </trkpt>
      <trkpt lat="47.1177" lon="5.39537">
        <ele>202</ele>
        <time>2012-06-19T12:16:39Z</time>
      </trkpt>
      <trkpt lat="47.11764" lon="5.39517">
        <ele>202</ele>
        <time>2012-06-19T12:16:41Z</time>
      </trkpt>
      <trkpt lat="47.11758" lon="5.39498">
        <ele>202</ele>
        <time>2012-06-19T12:16:43Z</time>
      </trkpt>
      <trkpt lat="47.11753" lon="5.39481">
        <ele>202</ele>
        <time>2012-06-19T12:16:45Z</time>
      </trkpt>
      <trkpt lat="47.11748" lon="5.39465">
        <ele>202</ele>
        <time>2012-06-19T12:16:47Z</time>
      </trkpt>
      <trkpt lat="47.11744" lon="5.3945">
        <ele>202</ele>
        <time>2012-06-19T12:16:49Z</time>
      </trkpt>
      <trkpt lat="47.1174" lon="5.39435">
        <ele>202</ele>
        <time>2012-06-19T12:16:51Z</time>
      </trkpt>
      <trkpt lat="47.11735" lon="5.3942">
        <ele>202</ele>
        <time>2012-06-19T12:16:53Z</time>
      </trkpt>
      <trkpt lat="47.11731" lon="5.39407">
        <ele>202</ele>
        <time>2012-06-19T12:16:55Z</time>
      </trkpt>
      <trkpt lat="47.11727" lon="5.39393">
        <ele>202</ele>
        <time>2012-06-19T12:16:57Z</time>
      </trkpt>
      <trkpt lat="47.11723" lon="5.3938">
        <ele>202</ele>
        <time>2012-06-19T12:16:59Z</time>
      </trkpt>
      <trkpt lat="47.11718" lon="5.39367">
        <ele>207</ele>
        <time>2012-06-19T12:17:01Z</time>
      </trkpt>
      <trkpt lat="47.11715" lon="5.39353">
        <ele>207</ele>
        <time>2012-06-19T12:17:03Z</time>
      </trkpt>
      <trkpt lat="47.1171" lon="5.3934">
        <ele>207</ele>
        <time>2012-06-19T12:17:05Z</time>
      </trkpt>
      <trkpt lat="47.11706" lon="5.39326">
        <ele>207</ele>
        <time>2012-06-19T12:17:07Z</time>
      </trkpt>
      <trkpt lat="47.11702" lon="5.39313">
        <ele>207</ele>
        <time>2012-06-19T12:17:09Z</time>
      </trkpt>
      <trkpt lat="47.11698" lon="5.39297">
        <ele>207</ele>
        <time>2012-06-19T12:17:11Z</time>
      </trkpt>
      <trkpt lat="47.11694" lon="5.39282">
        <ele>207</ele>
        <time>2012-06-19T12:17:13Z</time>
      </trkpt>
      <trkpt lat="47.11689" lon="5.39267">
        <ele>207</ele>
        <time>2012-06-19T12:17:15Z</time>
      </trkpt>
      <trkpt lat="47.11683" lon="5.39251">
        <ele>207</ele>
        <time>2012-06-19T12:17:17Z</time>
      </trkpt>
      <trkpt lat="47.11677" lon="5.39233">
        <ele>207</ele>
        <time>2012-06-19T12:17:19Z</time>
      </trkpt>
      <trkpt lat="47.11672" lon="5.39214">
        <ele>207</ele>
        <time>2012-06-19T12:17:21Z</time>
      </trkpt>
      <trkpt lat="47.11666" lon="5.39195">
        <ele>207</ele>
        <time>2012-06-19T12:17:23Z</time>
      </trkpt>
      <trkpt lat="47.11661" lon="5.39176">
        <ele>207</ele>
        <time>2012-06-19T12:17:25Z</time>
      </trkpt>
      <trkpt lat="47.11654" lon="5.39156">
        <ele>207</ele>
        <time>2012-06-19T12:17:27Z</time>
      </trkpt>
      <trkpt lat="47.11649" lon="5.39137">
        <ele>207</ele>
        <time>2012-06-19T12:17:29Z</time>
      </trkpt>
      <trkpt lat="47.11643" lon="5.39119">
        <ele>207</ele>
        <time>2012-06-19T12:17:31Z</time>
      </trkpt>
      <trkpt lat="47.11637" lon="5.391">
        <ele>207</ele>
        <time>2012-06-19T12:17:33Z</time>
      </trkpt>
      <trkpt lat="47.11632" lon="5.39081">
        <ele>207</ele>
        <time>2012-06-19T12:17:35Z</time>
      </trkpt>
      <trkpt lat="47.11626" lon="5.39062">
        <ele>207</ele>
        <time>2012-06-19T12:17:37Z</time>
      </trkpt>
      <trkpt lat="47.11621" lon="5.39043">
        <ele>207</ele>
        <time>2012-06-19T12:17:39Z</time>
      </trkpt>
      <trkpt lat="47.11616" lon="5.39023">
        <ele>207</ele>
        <time>2012-06-19T12:17:41Z</time>
      </trkpt>
      <trkpt lat="47.11612" lon="5.39004">
        <ele>201</ele>
        <time>2012-06-19T12:17:43Z</time>
      </trkpt>
      <trkpt lat="47.11607" lon="5.38984">
        <ele>201</ele>
        <time>2012-06-19T12:17:45Z</time>
      </trkpt>
      <trkpt lat="47.11602" lon="5.38962">
        <ele>201</ele>
        <time>2012-06-19T12:17:47Z</time>
      </trkpt>
      <trkpt lat="47.11599" lon="5.38941">
        <ele>201</ele>
        <time>2012-06-19T12:17:49Z</time>
      </trkpt>
      <trkpt lat="47.11595" lon="5.38919">
        <ele>201</ele>
        <time>2012-06-19T12:17:51Z</time>
      </trkpt>
      <trkpt lat="47.11591" lon="5.38898">
        <ele>201</ele>
        <time>2012-06-19T12:17:53Z</time>
      </trkpt>
      <trkpt lat="47.11588" lon="5.38878">
        <ele>201</ele>
        <time>2012-06-19T12:17:55Z</time>
      </trkpt>
      <trkpt lat="47.11585" lon="5.38856">
        <ele>201</ele>
        <time>2012-06-19T12:17:57Z</time>
      </trkpt>
      <trkpt lat="47.11581" lon="5.38835">
        <ele>201</ele>
        <time>2012-06-19T12:17:59Z</time>
      </trkpt>
      <trkpt lat="47.11579" lon="5.38813">
        <ele>201</ele>
        <time>2012-06-19T12:18:01Z</time>
      </trkpt>
      <trkpt lat="47.11577" lon="5.38792">
        <ele>201</ele>
        <time>2012-06-19T12:18:03Z</time>
      </trkpt>
      <trkpt lat="47.11574" lon="5.38772">
        <ele>201</ele>
        <time>2012-06-19T12:18:05Z</time>
      </trkpt>
      <trkpt lat="47.11572" lon="5.38751">
        <ele>201</ele>
        <time>2012-06-19T12:18:07Z</time>
      </trkpt>
      <trkpt lat="47.11571" lon="5.3873">
        <ele>201</ele>
        <time>2012-06-19T12:18:09Z</time>
      </trkpt>
      <trkpt lat="47.1157" lon="5.38709">
        <ele>201</ele>
        <time>2012-06-19T12:18:11Z</time>
      </trkpt>
      <trkpt lat="47.11569" lon="5.38687">
        <ele>201</ele>
        <time>2012-06-19T12:18:13Z</time>
      </trkpt>
      <trkpt lat="47.11568" lon="5.38666">
        <ele>201</ele>
        <time>2012-06-19T12:18:15Z</time>
      </trkpt>
      <trkpt lat="47.11567" lon="5.38643">
        <ele>201</ele>
        <time>2012-06-19T12:18:17Z</time>
      </trkpt>
      <trkpt lat="47.11567" lon="5.38622">
        <ele>201</ele>
        <time>2012-06-19T12:18:19Z</time>
      </trkpt>
      <trkpt lat="47.11567" lon="5.38599">
        <ele>201</ele>
        <time>2012-06-19T12:18:21Z</time>
      </trkpt>
      <trkpt lat="47.11567" lon="5.38579">
        <ele>201</ele>
        <time>2012-06-19T12:18:23Z</time>
      </trkpt>
      <trkpt lat="47.11567" lon="5.38559">
        <ele>201</ele>
        <time>2012-06-19T12:18:25Z</time>
      </trkpt>
      <trkpt lat="47.11567" lon="5.38538">
        <ele>201</ele>
        <time>2012-06-19T12:18:27Z</time>
      </trkpt>
      <trkpt lat="47.11566" lon="5.38518">
        <ele>201</ele>
        <time>2012-06-19T12:18:29Z</time>
      </trkpt>
      <trkpt lat="47.11567" lon="5.38496">
        <ele>201</ele>
        <time>2012-06-19T12:18:31Z</time>
      </trkpt>
      <trkpt lat="47.11568" lon="5.38474">
        <ele>201</ele>
        <time>2012-06-19T12:18:33Z</time>
      </trkpt>
      <trkpt lat="47.1157" lon="5.38452">
        <ele>201</ele>
        <time>2012-06-19T12:18:35Z</time>
      </trkpt>
      <trkpt lat="47.11574" lon="5.3843">
        <ele>201</ele>
        <time>2012-06-19T12:18:37Z</time>
      </trkpt>
      <trkpt lat="47.11578" lon="5.38409">
        <ele>201</ele>
        <time>2012-06-19T12:18:39Z</time>
      </trkpt>
      <trkpt lat="47.11583" lon="5.38387">
        <ele>201</ele>
        <time>2012-06-19T12:18:41Z</time>
      </trkpt>
      <trkpt lat="47.11589" lon="5.38368">
        <ele>201</ele>
        <time>2012-06-19T12:18:43Z</time>
      </trkpt>
      <trkpt lat="47.11596" lon="5.38348">
        <ele>201</ele>
        <time>2012-06-19T12:18:45Z</time>
      </trkpt>
      <trkpt lat="47.11604" lon="5.38329">
        <ele>201</ele>
        <time>2012-06-19T12:18:47Z</time>
      </trkpt>
      <trkpt lat="47.11612" lon="5.38311">
        <ele>201</ele>
        <time>2012-06-19T12:18:49Z</time>
      </trkpt>
      <trkpt lat="47.11621" lon="5.38295">
        <ele>201</ele>
        <time>2012-06-19T12:18:51Z</time>
      </trkpt>
      <trkpt lat="47.1163" lon="5.3828">
        <ele>201</ele>
        <time>2012-06-19T12:18:53Z</time>
      </trkpt>
      <trkpt lat="47.11639" lon="5.38263">
        <ele>201</ele>
        <time>2012-06-19T12:18:55Z</time>
      </trkpt>
      <trkpt lat="47.11648" lon="5.38247">
        <ele>201</ele>
        <time>2012-06-19T12:18:57Z</time>
      </trkpt>
      <trkpt lat="47.11658" lon="5.38231">
        <ele>201</ele>
        <time>2012-06-19T12:18:59Z</time>
      </trkpt>
      <trkpt lat="47.11666" lon="5.38215">
        <ele>201</ele>
        <time>2012-06-19T12:19:01Z</time>
      </trkpt>
      <trkpt lat="47.11675" lon="5.382">
        <ele>201</ele>
        <time>2012-06-19T12:19:03Z</time>
      </trkpt>
      <trkpt lat="47.11685" lon="5.38183">
        <ele>201</ele>
        <time>2012-06-19T12:19:05Z</time>
      </trkpt>
      <trkpt lat="47.11694" lon="5.38166">
        <ele>201</ele>
        <time>2012-06-19T12:19:07Z</time>
      </trkpt>
      <trkpt lat="47.11704" lon="5.38149">
        <ele>201</ele>
        <time>2012-06-19T12:19:09Z</time>
      </trkpt>
      <trkpt lat="47.11714" lon="5.38131">
        <ele>201</ele>
        <time>2012-06-19T12:19:11Z</time>
      </trkpt>
      <trkpt lat="47.11724" lon="5.38113">
        <ele>201</ele>
        <time>2012-06-19T12:19:13Z</time>
      </trkpt>
      <trkpt lat="47.11734" lon="5.38096">
        <ele>201</ele>
        <time>2012-06-19T12:19:15Z</time>
      </trkpt>
      <trkpt lat="47.11743" lon="5.38078">
        <ele>201</ele>
        <time>2012-06-19T12:19:17Z</time>
      </trkpt>
      <trkpt lat="47.11753" lon="5.3806">
        <ele>201</ele>
        <time>2012-06-19T12:19:19Z</time>
      </trkpt>
      <trkpt lat="47.11763" lon="5.38043">
        <ele>201</ele>
        <time>2012-06-19T12:19:21Z</time>
      </trkpt>
      <trkpt lat="47.11773" lon="5.38025">
        <ele>201</ele>
        <time>2012-06-19T12:19:23Z</time>
      </trkpt>
      <trkpt lat="47.11783" lon="5.38008">
        <ele>201</ele>
        <time>2012-06-19T12:19:25Z</time>
      </trkpt>
      <trkpt lat="47.11792" lon="5.3799">
        <ele>201</ele>
        <time>2012-06-19T12:19:27Z</time>
      </trkpt>
      <trkpt lat="47.11802" lon="5.37974">
        <ele>201</ele>
        <time>2012-06-19T12:19:29Z</time>
      </trkpt>
      <trkpt lat="47.11811" lon="5.37957">
        <ele>201</ele>
        <time>2012-06-19T12:19:31Z</time>
      </trkpt>
      <trkpt lat="47.11821" lon="5.37941">
        <ele>201</ele>
        <time>2012-06-19T12:19:33Z</time>
      </trkpt>
      <trkpt lat="47.1183" lon="5.37924">
        <ele>201</ele>
        <time>2012-06-19T12:19:35Z</time>
      </trkpt>
      <trkpt lat="47.11839" lon="5.37906">
        <ele>201</ele>
        <time>2012-06-19T12:19:37Z</time>
      </trkpt>
      <trkpt lat="47.11848" lon="5.37887">
        <ele>201</ele>
        <time>2012-06-19T12:19:39Z</time>
      </trkpt>
      <trkpt lat="47.11856" lon="5.37869">
        <ele>201</ele>
        <time>2012-06-19T12:19:41Z</time>
      </trkpt>
      <trkpt lat="47.11864" lon="5.3785">
        <ele>201</ele>
        <time>2012-06-19T12:19:43Z</time>
      </trkpt>
      <trkpt lat="47.1187" lon="5.37831">
        <ele>201</ele>
        <time>2012-06-19T12:19:45Z</time>
      </trkpt>
      <trkpt lat="47.11875" lon="5.37812">
        <ele>201</ele>
        <time>2012-06-19T12:19:47Z</time>
      </trkpt>
      <trkpt lat="47.1188" lon="5.37793">
        <ele>196</ele>
        <time>2012-06-19T12:19:49Z</time>
      </trkpt>
      <trkpt lat="47.11883" lon="5.37775">
        <ele>196</ele>
        <time>2012-06-19T12:19:51Z</time>
      </trkpt>
      <trkpt lat="47.11886" lon="5.37756">
        <ele>196</ele>
        <time>2012-06-19T12:19:53Z</time>
      </trkpt>
      <trkpt lat="47.11889" lon="5.37738">
        <ele>196</ele>
        <time>2012-06-19T12:19:55Z</time>
      </trkpt>
      <trkpt lat="47.11891" lon="5.37721">
        <ele>196</ele>
        <time>2012-06-19T12:19:57Z</time>
      </trkpt>
      <trkpt lat="47.11891" lon="5.37705">
        <ele>196</ele>
        <time>2012-06-19T12:19:59Z</time>
      </trkpt>
      <trkpt lat="47.11892" lon="5.37688">
        <ele>196</ele>
        <time>2012-06-19T12:20:01Z</time>
      </trkpt>
      <trkpt lat="47.11891" lon="5.37671">
        <ele>196</ele>
        <time>2012-06-19T12:20:03Z</time>
      </trkpt>
      <trkpt lat="47.11891" lon="5.37654">
        <ele>196</ele>
        <time>2012-06-19T12:20:05Z</time>
      </trkpt>
      <trkpt lat="47.1189" lon="5.37636">
        <ele>196</ele>
        <time>2012-06-19T12:20:07Z</time>
      </trkpt>
      <trkpt lat="47.11889" lon="5.37619">
        <ele>196</ele>
        <time>2012-06-19T12:20:09Z</time>
      </trkpt>
      <trkpt lat="47.11888" lon="5.37602">
        <ele>196</ele>
        <time>2012-06-19T12:20:11Z</time>
      </trkpt>
      <trkpt lat="47.11886" lon="5.37585">
        <ele>196</ele>
        <time>2012-06-19T12:20:13Z</time>
      </trkpt>
      <trkpt lat="47.11883" lon="5.37568">
        <ele>196</ele>
        <time>2012-06-19T12:20:15Z</time>
      </trkpt>
      <trkpt lat="47.1188" lon="5.37551">
        <ele>196</ele>
        <time>2012-06-19T12:20:17Z</time>
      </trkpt>
      <trkpt lat="47.11876" lon="5.37533">
        <ele>196</ele>
        <time>2012-06-19T12:20:19Z</time>
      </trkpt>
      <trkpt lat="47.11873" lon="5.37516">
        <ele>196</ele>
        <time>2012-06-19T12:20:21Z</time>
      </trkpt>
      <trkpt lat="47.11869" lon="5.37497">
        <ele>196</ele>
        <time>2012-06-19T12:20:23Z</time>
      </trkpt>
      <trkpt lat="47.11867" lon="5.37478">
        <ele>196</ele>
        <time>2012-06-19T12:20:25Z</time>
      </trkpt>
      <trkpt lat="47.11867" lon="5.37458">
        <ele>196</ele>
        <time>2012-06-19T12:20:27Z</time>
      </trkpt>
      <trkpt lat="47.11867" lon="5.37439">
        <ele>196</ele>
        <time>2012-06-19T12:20:29Z</time>
      </trkpt>
      <trkpt lat="47.11869" lon="5.37418">
        <ele>196</ele>
        <time>2012-06-19T12:20:31Z</time>
      </trkpt>
      <trkpt lat="47.11871" lon="5.37398">
        <ele>196</ele>
        <time>2012-06-19T12:20:33Z</time>
      </trkpt>
      <trkpt lat="47.11872" lon="5.37378">
        <ele>196</ele>
        <time>2012-06-19T12:20:35Z</time>
      </trkpt>
      <trkpt lat="47.11875" lon="5.37356">
        <ele>196</ele>
        <time>2012-06-19T12:20:37Z</time>
      </trkpt>
      <trkpt lat="47.11876" lon="5.37335">
        <ele>196</ele>
        <time>2012-06-19T12:20:39Z</time>
      </trkpt>
      <trkpt lat="47.1188" lon="5.37312">
        <ele>196</ele>
        <time>2012-06-19T12:20:41Z</time>
      </trkpt>
      <trkpt lat="47.11883" lon="5.37291">
        <ele>196</ele>
        <time>2012-06-19T12:20:43Z</time>
      </trkpt>
      <trkpt lat="47.11886" lon="5.37269">
        <ele>196</ele>
        <time>2012-06-19T12:20:45Z</time>
      </trkpt>
      <trkpt lat="47.11891" lon="5.37248">
        <ele>196</ele>
        <time>2012-06-19T12:20:47Z</time>
      </trkpt>
      <trkpt lat="47.11895" lon="5.37227">
        <ele>196</ele>
        <time>2012-06-19T12:20:49Z</time>
      </trkpt>
      <trkpt lat="47.11902" lon="5.37207">
        <ele>196</ele>
        <time>2012-06-19T12:20:51Z</time>
      </trkpt>
      <trkpt lat="47.11908" lon="5.37188">
        <ele>196</ele>
        <time>2012-06-19T12:20:53Z</time>
      </trkpt>
      <trkpt lat="47.11916" lon="5.3717">
        <ele>196</ele>
        <time>2012-06-19T12:20:55Z</time>
      </trkpt>
      <trkpt lat="47.11925" lon="5.37154">
        <ele>196</ele>
        <time>2012-06-19T12:20:57Z</time>
      </trkpt>
      <trkpt lat="47.11933" lon="5.37137">
        <ele>196</ele>
        <time>2012-06-19T12:20:59Z</time>
      </trkpt>
      <trkpt lat="47.11942" lon="5.37121">
        <ele>196</ele>
        <time>2012-06-19T12:21:01Z</time>
      </trkpt>
      <trkpt lat="47.11951" lon="5.37105">
        <ele>196</ele>
        <time>2012-06-19T12:21:03Z</time>
      </trkpt>
      <trkpt lat="47.11959" lon="5.37089">
        <ele>196</ele>
        <time>2012-06-19T12:21:05Z</time>
      </trkpt>
      <trkpt lat="47.11968" lon="5.37075">
        <ele>196</ele>
        <time>2012-06-19T12:21:07Z</time>
      </trkpt>
      <trkpt lat="47.11977" lon="5.37061">
        <ele>196</ele>
        <time>2012-06-19T12:21:09Z</time>
      </trkpt>
      <trkpt lat="47.11986" lon="5.37046">
        <ele>196</ele>
        <time>2012-06-19T12:21:11Z</time>
      </trkpt>
      <trkpt lat="47.11996" lon="5.37033">
        <ele>196</ele>
        <time>2012-06-19T12:21:13Z</time>
      </trkpt>
      <trkpt lat="47.12005" lon="5.37021">
        <ele>196</ele>
        <time>2012-06-19T12:21:15Z</time>
      </trkpt>
      <trkpt lat="47.12014" lon="5.37009">
        <ele>196</ele>
        <time>2012-06-19T12:21:17Z</time>
      </trkpt>
      <trkpt lat="47.12023" lon="5.36999">
        <ele>196</ele>
        <time>2012-06-19T12:21:19Z</time>
      </trkpt>
      <trkpt lat="47.12032" lon="5.36987">
        <ele>196</ele>
        <time>2012-06-19T12:21:21Z</time>
      </trkpt>
      <trkpt lat="47.12042" lon="5.36976">
        <ele>196</ele>
        <time>2012-06-19T12:21:23Z</time>
      </trkpt>
      <trkpt lat="47.12052" lon="5.36965">
        <ele>196</ele>
        <time>2012-06-19T12:21:25Z</time>
      </trkpt>
      <trkpt lat="47.12062" lon="5.36952">
        <ele>196</ele>
        <time>2012-06-19T12:21:27Z</time>
      </trkpt>
      <trkpt lat="47.12072" lon="5.3694">
        <ele>196</ele>
        <time>2012-06-19T12:21:29Z</time>
      </trkpt>
      <trkpt lat="47.12082" lon="5.36928">
        <ele>196</ele>
        <time>2012-06-19T12:21:31Z</time>
      </trkpt>
      <trkpt lat="47.12094" lon="5.36913">
        <ele>196</ele>
        <time>2012-06-19T12:21:33Z</time>
      </trkpt>
      <trkpt lat="47.12105" lon="5.36897">
        <ele>196</ele>
        <time>2012-06-19T12:21:35Z</time>
      </trkpt>
      <trkpt lat="47.12115" lon="5.36878">
        <ele>196</ele>
        <time>2012-06-19T12:21:37Z</time>
      </trkpt>
      <trkpt lat="47.12125" lon="5.36858">
        <ele>196</ele>
        <time>2012-06-19T12:21:39Z</time>
      </trkpt>
      <trkpt lat="47.12131" lon="5.36848">
        <ele>196</ele>
        <time>2012-06-19T12:21:40Z</time>
      </trkpt>
      <trkpt lat="47.12143" lon="5.36827">
        <ele>196</ele>
        <time>2012-06-19T12:21:42Z</time>
      </trkpt>
      <trkpt lat="47.12149" lon="5.36815">
        <ele>191</ele>
        <time>2012-06-19T12:21:43Z</time>
      </trkpt>
      <trkpt lat="47.12155" lon="5.36805">
        <ele>191</ele>
        <time>2012-06-19T12:21:44Z</time>
      </trkpt>
      <trkpt lat="47.12161" lon="5.36793">
        <ele>191</ele>
        <time>2012-06-19T12:21:45Z</time>
      </trkpt>
      <trkpt lat="47.12168" lon="5.36781">
        <ele>191</ele>
        <time>2012-06-19T12:21:46Z</time>
      </trkpt>
      <trkpt lat="47.12176" lon="5.3677">
        <ele>191</ele>
        <time>2012-06-19T12:21:47Z</time>
      </trkpt>
      <trkpt lat="47.12183" lon="5.3676">
        <ele>191</ele>
        <time>2012-06-19T12:21:48Z</time>
      </trkpt>
      <trkpt lat="47.1219" lon="5.36749">
        <ele>191</ele>
        <time>2012-06-19T12:21:49Z</time>
      </trkpt>
      <trkpt lat="47.12198" lon="5.36739">
        <ele>191</ele>
        <time>2012-06-19T12:21:50Z</time>
      </trkpt>
      <trkpt lat="47.12205" lon="5.36728">
        <ele>191</ele>
        <time>2012-06-19T12:21:51Z</time>
      </trkpt>
      <trkpt lat="47.12212" lon="5.36718">
        <ele>191</ele>
        <time>2012-06-19T12:21:52Z</time>
      </trkpt>
      <trkpt lat="47.1222" lon="5.36707">
        <ele>191</ele>
        <time>2012-06-19T12:21:53Z</time>
      </trkpt>
      <trkpt lat="47.12227" lon="5.36698">
        <ele>191</ele>
        <time>2012-06-19T12:21:54Z</time>
      </trkpt>
      <trkpt lat="47.12233" lon="5.36687">
        <ele>191</ele>
        <time>2012-06-19T12:21:55Z</time>
      </trkpt>
      <trkpt lat="47.1224" lon="5.36677">
        <ele>185</ele>
        <time>2012-06-19T12:21:56Z</time>
      </trkpt>
      <trkpt lat="47.12246" lon="5.36666">
        <ele>185</ele>
        <time>2012-06-19T12:21:57Z</time>
      </trkpt>
      <trkpt lat="47.12252" lon="5.36655">
        <ele>185</ele>
        <time>2012-06-19T12:21:58Z</time>
      </trkpt>
      <trkpt lat="47.12258" lon="5.36645">
        <ele>185</ele>
        <time>2012-06-19T12:21:59Z</time>
      </trkpt>
      <trkpt lat="47.12271" lon="5.36626">
        <ele>185</ele>
        <time>2012-06-19T12:22:01Z</time>
      </trkpt>
      <trkpt lat="47.12284" lon="5.36609">
        <ele>185</ele>
        <time>2012-06-19T12:22:03Z</time>
      </trkpt>
      <trkpt lat="47.12296" lon="5.36592">
        <ele>185</ele>
        <time>2012-06-19T12:22:05Z</time>
      </trkpt>
      <trkpt lat="47.12309" lon="5.36576">
        <ele>185</ele>
        <time>2012-06-19T12:22:07Z</time>
      </trkpt>
      <trkpt lat="47.12321" lon="5.36562">
        <ele>185</ele>
        <time>2012-06-19T12:22:09Z</time>
      </trkpt>
      <trkpt lat="47.12334" lon="5.36546">
        <ele>185</ele>
        <time>2012-06-19T12:22:11Z</time>
      </trkpt>
      <trkpt lat="47.12346" lon="5.36531">
        <ele>185</ele>
        <time>2012-06-19T12:22:13Z</time>
      </trkpt>
      <trkpt lat="47.12359" lon="5.36514">
        <ele>185</ele>
        <time>2012-06-19T12:22:15Z</time>
      </trkpt>
      <trkpt lat="47.12371" lon="5.36499">
        <ele>185</ele>
        <time>2012-06-19T12:22:17Z</time>
      </trkpt>
      <trkpt lat="47.12384" lon="5.36485">
        <ele>185</ele>
        <time>2012-06-19T12:22:19Z</time>
      </trkpt>
      <trkpt lat="47.12395" lon="5.36471">
        <ele>185</ele>
        <time>2012-06-19T12:22:21Z</time>
      </trkpt>
      <trkpt lat="47.12406" lon="5.36458">
        <ele>185</ele>
        <time>2012-06-19T12:22:23Z</time>
      </trkpt>
      <trkpt lat="47.12415" lon="5.36445">
        <ele>185</ele>
        <time>2012-06-19T12:22:25Z</time>
      </trkpt>
      <trkpt lat="47.12426" lon="5.36433">
        <ele>180</ele>
        <time>2012-06-19T12:22:27Z</time>
      </trkpt>
      <trkpt lat="47.12437" lon="5.36419">
        <ele>180</ele>
        <time>2012-06-19T12:22:29Z</time>
      </trkpt>
      <trkpt lat="47.12449" lon="5.36406">
        <ele>180</ele>
        <time>2012-06-19T12:22:31Z</time>
      </trkpt>
      <trkpt lat="47.1246" lon="5.36391">
        <ele>180</ele>
        <time>2012-06-19T12:22:33Z</time>
      </trkpt>
      <trkpt lat="47.12471" lon="5.36378">
        <ele>180</ele>
        <time>2012-06-19T12:22:35Z</time>
      </trkpt>
      <trkpt lat="47.12482" lon="5.36363">
        <ele>180</ele>
        <time>2012-06-19T12:22:37Z</time>
      </trkpt>
      <trkpt lat="47.12495" lon="5.3635">
        <ele>180</ele>
        <time>2012-06-19T12:22:39Z</time>
      </trkpt>
      <trkpt lat="47.12506" lon="5.36336">
        <ele>180</ele>
        <time>2012-06-19T12:22:41Z</time>
      </trkpt>
      <trkpt lat="47.12517" lon="5.36326">
        <ele>180</ele>
        <time>2012-06-19T12:22:43Z</time>
      </trkpt>
      <trkpt lat="47.12529" lon="5.36317">
        <ele>180</ele>
        <time>2012-06-19T12:22:45Z</time>
      </trkpt>
      <trkpt lat="47.12539" lon="5.36308">
        <ele>180</ele>
        <time>2012-06-19T12:22:47Z</time>
      </trkpt>
      <trkpt lat="47.12549" lon="5.36301">
        <ele>180</ele>
        <time>2012-06-19T12:22:49Z</time>
      </trkpt>
      <trkpt lat="47.12561" lon="5.36292">
        <ele>180</ele>
        <time>2012-06-19T12:22:52Z</time>
      </trkpt>
      <trkpt lat="47.12569" lon="5.36286">
        <ele>180</ele>
        <time>2012-06-19T12:22:54Z</time>
      </trkpt>
      <trkpt lat="47.12581" lon="5.36277">
        <ele>180</ele>
        <time>2012-06-19T12:22:57Z</time>
      </trkpt>
      <trkpt lat="47.12592" lon="5.3627">
        <ele>180</ele>
        <time>2012-06-19T12:23:00Z</time>
      </trkpt>
      <trkpt lat="47.12601" lon="5.36264">
        <ele>180</ele>
        <time>2012-06-19T12:23:03Z</time>
      </trkpt>
      <trkpt lat="47.1261" lon="5.36257">
        <ele>180</ele>
        <time>2012-06-19T12:23:06Z</time>
      </trkpt>
      <trkpt lat="47.1262" lon="5.36249">
        <ele>180</ele>
        <time>2012-06-19T12:23:09Z</time>
      </trkpt>
      <trkpt lat="47.12629" lon="5.36241">
        <ele>186</ele>
        <time>2012-06-19T12:23:13Z</time>
      </trkpt>
      <trkpt lat="47.12638" lon="5.36235">
        <ele>186</ele>
        <time>2012-06-19T12:23:17Z</time>
      </trkpt>
      <trkpt lat="47.12647" lon="5.3623">
        <ele>186</ele>
        <time>2012-06-19T12:23:26Z</time>
      </trkpt>
      <trkpt lat="47.12656" lon="5.36222">
        <ele>186</ele>
        <time>2012-06-19T12:23:37Z</time>
      </trkpt>
      <trkpt lat="47.12666" lon="5.36215">
        <ele>186</ele>
        <time>2012-06-19T12:23:41Z</time>
      </trkpt>
      <trkpt lat="47.12675" lon="5.36207">
        <ele>186</ele>
        <time>2012-06-19T12:23:44Z</time>
      </trkpt>
      <trkpt lat="47.12685" lon="5.36199">
        <ele>186</ele>
        <time>2012-06-19T12:23:47Z</time>
      </trkpt>
      <trkpt lat="47.12696" lon="5.3619">
        <ele>186</ele>
        <time>2012-06-19T12:23:50Z</time>
      </trkpt>
      <trkpt lat="47.12708" lon="5.36182">
        <ele>186</ele>
        <time>2012-06-19T12:23:53Z</time>
      </trkpt>
      <trkpt lat="47.12716" lon="5.36176">
        <ele>186</ele>
        <time>2012-06-19T12:23:55Z</time>
      </trkpt>
      <trkpt lat="47.12724" lon="5.36169">
        <ele>186</ele>
        <time>2012-06-19T12:23:57Z</time>
      </trkpt>
      <trkpt lat="47.12735" lon="5.3616">
        <ele>186</ele>
        <time>2012-06-19T12:24:00Z</time>
      </trkpt>
      <trkpt lat="47.12744" lon="5.36154">
        <ele>186</ele>
        <time>2012-06-19T12:24:02Z</time>
      </trkpt>
      <trkpt lat="47.12753" lon="5.36148">
        <ele>186</ele>
        <time>2012-06-19T12:24:04Z</time>
      </trkpt>
      <trkpt lat="47.12763" lon="5.36141">
        <ele>186</ele>
        <time>2012-06-19T12:24:06Z</time>
      </trkpt>
      <trkpt lat="47.12773" lon="5.36133">
        <ele>186</ele>
        <time>2012-06-19T12:24:08Z</time>
      </trkpt>
      <trkpt lat="47.12785" lon="5.36124">
        <ele>186</ele>
        <time>2012-06-19T12:24:10Z</time>
      </trkpt>
      <trkpt lat="47.12796" lon="5.36116">
        <ele>186</ele>
        <time>2012-06-19T12:24:12Z</time>
      </trkpt>
      <trkpt lat="47.12807" lon="5.36108">
        <ele>186</ele>
        <time>2012-06-19T12:24:14Z</time>
      </trkpt>
      <trkpt lat="47.12819" lon="5.36101">
        <ele>186</ele>
        <time>2012-06-19T12:24:16Z</time>
      </trkpt>
      <trkpt lat="47.12831" lon="5.36094">
        <ele>186</ele>
        <time>2012-06-19T12:24:18Z</time>
      </trkpt>
      <trkpt lat="47.12845" lon="5.36085">
        <ele>186</ele>
        <time>2012-06-19T12:24:20Z</time>
      </trkpt>
      <trkpt lat="47.12857" lon="5.36075">
        <ele>186</ele>
        <time>2012-06-19T12:24:22Z</time>
      </trkpt>
      <trkpt lat="47.12872" lon="5.36065">
        <ele>186</ele>
        <time>2012-06-19T12:24:24Z</time>
      </trkpt>
      <trkpt lat="47.12887" lon="5.36054">
        <ele>186</ele>
        <time>2012-06-19T12:24:26Z</time>
      </trkpt>
      <trkpt lat="47.12902" lon="5.36044">
        <ele>186</ele>
        <time>2012-06-19T12:24:28Z</time>
      </trkpt>
      <trkpt lat="47.12917" lon="5.36032">
        <ele>186</ele>
        <time>2012-06-19T12:24:30Z</time>
      </trkpt>
      <trkpt lat="47.12932" lon="5.36019">
        <ele>186</ele>
        <time>2012-06-19T12:24:32Z</time>
      </trkpt>
      <trkpt lat="47.12946" lon="5.36005">
        <ele>186</ele>
        <time>2012-06-19T12:24:34Z</time>
      </trkpt>
      <trkpt lat="47.12961" lon="5.35991">
        <ele>186</ele>
        <time>2012-06-19T12:24:36Z</time>
      </trkpt>
      <trkpt lat="47.12975" lon="5.35974">
        <ele>186</ele>
        <time>2012-06-19T12:24:38Z</time>
      </trkpt>
      <trkpt lat="47.12987" lon="5.35957">
        <ele>186</ele>
        <time>2012-06-19T12:24:40Z</time>
      </trkpt>
      <trkpt lat="47.12998" lon="5.35939">
        <ele>186</ele>
        <time>2012-06-19T12:24:42Z</time>
      </trkpt>
      <trkpt lat="47.1301" lon="5.35922">
        <ele>186</ele>
        <time>2012-06-19T12:24:44Z</time>
      </trkpt>
      <trkpt lat="47.1302" lon="5.35906">
        <ele>180</ele>
        <time>2012-06-19T12:24:46Z</time>
      </trkpt>
      <trkpt lat="47.1303" lon="5.35891">
        <ele>180</ele>
        <time>2012-06-19T12:24:48Z</time>
      </trkpt>
      <trkpt lat="47.13039" lon="5.35873">
        <ele>180</ele>
        <time>2012-06-19T12:24:50Z</time>
      </trkpt>
      <trkpt lat="47.13048" lon="5.35855">
        <ele>180</ele>
        <time>2012-06-19T12:24:52Z</time>
      </trkpt>
      <trkpt lat="47.13057" lon="5.3584">
        <ele>180</ele>
        <time>2012-06-19T12:24:54Z</time>
      </trkpt>
      <trkpt lat="47.13066" lon="5.35824">
        <ele>180</ele>
        <time>2012-06-19T12:24:56Z</time>
      </trkpt>
      <trkpt lat="47.13076" lon="5.35808">
        <ele>180</ele>
        <time>2012-06-19T12:24:58Z</time>
      </trkpt>
      <trkpt lat="47.13085" lon="5.35791">
        <ele>180</ele>
        <time>2012-06-19T12:25:00Z</time>
      </trkpt>
      <trkpt lat="47.13095" lon="5.35775">
        <ele>180</ele>
        <time>2012-06-19T12:25:02Z</time>
      </trkpt>
      <trkpt lat="47.13104" lon="5.3576">
        <ele>180</ele>
        <time>2012-06-19T12:25:04Z</time>
      </trkpt>
      <trkpt lat="47.13113" lon="5.35744">
        <ele>180</ele>
        <time>2012-06-19T12:25:06Z</time>
      </trkpt>
      <trkpt lat="47.13122" lon="5.35729">
        <ele>180</ele>
        <time>2012-06-19T12:25:08Z</time>
      </trkpt>
      <trkpt lat="47.13131" lon="5.35714">
        <ele>180</ele>
        <time>2012-06-19T12:25:10Z</time>
      </trkpt>
      <trkpt lat="47.13139" lon="5.35699">
        <ele>180</ele>
        <time>2012-06-19T12:25:12Z</time>
      </trkpt>
      <trkpt lat="47.13149" lon="5.35683">
        <ele>180</ele>
        <time>2012-06-19T12:25:14Z</time>
      </trkpt>
      <trkpt lat="47.13157" lon="5.35667">
        <ele>180</ele>
        <time>2012-06-19T12:25:16Z</time>
      </trkpt>
      <trkpt lat="47.13166" lon="5.35652">
        <ele>180</ele>
        <time>2012-06-19T12:25:18Z</time>
      </trkpt>
      <trkpt lat="47.13175" lon="5.35637">
        <ele>180</ele>
        <time>2012-06-19T12:25:20Z</time>
      </trkpt>
      <trkpt lat="47.13184" lon="5.35621">
        <ele>180</ele>
        <time>2012-06-19T12:25:22Z</time>
      </trkpt>
      <trkpt lat="47.13193" lon="5.35605">
        <ele>180</ele>
        <time>2012-06-19T12:25:24Z</time>
      </trkpt>
      <trkpt lat="47.13203" lon="5.3559">
        <ele>180</ele>
        <time>2012-06-19T12:25:26Z</time>
      </trkpt>
      <trkpt lat="47.13212" lon="5.35574">
        <ele>180</ele>
        <time>2012-06-19T12:25:28Z</time>
      </trkpt>
      <trkpt lat="47.13221" lon="5.35559">
        <ele>180</ele>
        <time>2012-06-19T12:25:30Z</time>
      </trkpt>
      <trkpt lat="47.1323" lon="5.35543">
        <ele>180</ele>
        <time>2012-06-19T12:25:32Z</time>
      </trkpt>
      <trkpt lat="47.13239" lon="5.35529">
        <ele>180</ele>
        <time>2012-06-19T12:25:34Z</time>
      </trkpt>
      <trkpt lat="47.13248" lon="5.35514">
        <ele>180</ele>
        <time>2012-06-19T12:25:36Z</time>
      </trkpt>
      <trkpt lat="47.13257" lon="5.35497">
        <ele>180</ele>
        <time>2012-06-19T12:25:38Z</time>
      </trkpt>
      <trkpt lat="47.13266" lon="5.35481">
        <ele>180</ele>
        <time>2012-06-19T12:25:40Z</time>
      </trkpt>
      <trkpt lat="47.13275" lon="5.35463">
        <ele>180</ele>
        <time>2012-06-19T12:25:42Z</time>
      </trkpt>
      <trkpt lat="47.13284" lon="5.35449">
        <ele>180</ele>
        <time>2012-06-19T12:25:44Z</time>
      </trkpt>
      <trkpt lat="47.13293" lon="5.35434">
        <ele>180</ele>
        <time>2012-06-19T12:25:46Z</time>
      </trkpt>
      <trkpt lat="47.13302" lon="5.35418">
        <ele>180</ele>
        <time>2012-06-19T12:25:48Z</time>
      </trkpt>
      <trkpt lat="47.13311" lon="5.354">
        <ele>180</ele>
        <time>2012-06-19T12:25:50Z</time>
      </trkpt>
      <trkpt lat="47.1332" lon="5.35385">
        <ele>180</ele>
        <time>2012-06-19T12:25:52Z</time>
      </trkpt>
      <trkpt lat="47.13329" lon="5.35371">
        <ele>180</ele>
        <time>2012-06-19T12:25:54Z</time>
      </trkpt>
      <trkpt lat="47.13338" lon="5.35356">
        <ele>180</ele>
        <time>2012-06-19T12:25:56Z</time>
      </trkpt>
      <trkpt lat="47.13347" lon="5.3534">
        <ele>180</ele>
        <time>2012-06-19T12:25:58Z</time>
      </trkpt>
      <trkpt lat="47.13356" lon="5.35325">
        <ele>180</ele>
        <time>2012-06-19T12:26:00Z</time>
      </trkpt>
      <trkpt lat="47.13366" lon="5.3531">
        <ele>180</ele>
        <time>2012-06-19T12:26:02Z</time>
      </trkpt>
      <trkpt lat="47.13374" lon="5.35295">
        <ele>180</ele>
        <time>2012-06-19T12:26:04Z</time>
      </trkpt>
      <trkpt lat="47.13383" lon="5.35279">
        <ele>180</ele>
        <time>2012-06-19T12:26:06Z</time>
      </trkpt>
      <trkpt lat="47.13393" lon="5.35263">
        <ele>180</ele>
        <time>2012-06-19T12:26:08Z</time>
      </trkpt>
      <trkpt lat="47.13401" lon="5.35246">
        <ele>180</ele>
        <time>2012-06-19T12:26:10Z</time>
      </trkpt>
      <trkpt lat="47.1341" lon="5.3523">
        <ele>180</ele>
        <time>2012-06-19T12:26:12Z</time>
      </trkpt>
      <trkpt lat="47.1342" lon="5.35214">
        <ele>180</ele>
        <time>2012-06-19T12:26:14Z</time>
      </trkpt>
      <trkpt lat="47.13429" lon="5.35198">
        <ele>180</ele>
        <time>2012-06-19T12:26:16Z</time>
      </trkpt>
      <trkpt lat="47.13439" lon="5.35182">
        <ele>180</ele>
        <time>2012-06-19T12:26:18Z</time>
      </trkpt>
      <trkpt lat="47.13448" lon="5.35166">
        <ele>180</ele>
        <time>2012-06-19T12:26:20Z</time>
      </trkpt>
      <trkpt lat="47.13458" lon="5.3515">
        <ele>180</ele>
        <time>2012-06-19T12:26:22Z</time>
      </trkpt>
      <trkpt lat="47.13467" lon="5.35135">
        <ele>180</ele>
        <time>2012-06-19T12:26:24Z</time>
      </trkpt>
      <trkpt lat="47.13477" lon="5.35118">
        <ele>180</ele>
        <time>2012-06-19T12:26:26Z</time>
      </trkpt>
      <trkpt lat="47.13487" lon="5.35102">
        <ele>180</ele>
        <time>2012-06-19T12:26:28Z</time>
      </trkpt>
      <trkpt lat="47.13496" lon="5.35085">
        <ele>180</ele>
        <time>2012-06-19T12:26:30Z</time>
      </trkpt>
      <trkpt lat="47.13506" lon="5.35069">
        <ele>180</ele>
        <time>2012-06-19T12:26:32Z</time>
      </trkpt>
      <trkpt lat="47.13515" lon="5.35053">
        <ele>180</ele>
        <time>2012-06-19T12:26:34Z</time>
      </trkpt>
      <trkpt lat="47.13526" lon="5.35037">
        <ele>180</ele>
        <time>2012-06-19T12:26:36Z</time>
      </trkpt>
      <trkpt lat="47.13535" lon="5.3502">
        <ele>180</ele>
        <time>2012-06-19T12:26:38Z</time>
      </trkpt>
      <trkpt lat="47.13545" lon="5.35005">
        <ele>180</ele>
        <time>2012-06-19T12:26:40Z</time>
      </trkpt>
      <trkpt lat="47.13554" lon="5.34988">
        <ele>180</ele>
        <time>2012-06-19T12:26:42Z</time>
      </trkpt>
      <trkpt lat="47.13564" lon="5.34973">
        <ele>180</ele>
        <time>2012-06-19T12:26:44Z</time>
      </trkpt>
      <trkpt lat="47.13573" lon="5.34958">
        <ele>180</ele>
        <time>2012-06-19T12:26:46Z</time>
      </trkpt>
      <trkpt lat="47.13582" lon="5.34941">
        <ele>180</ele>
        <time>2012-06-19T12:26:48Z</time>
      </trkpt>
      <trkpt lat="47.13591" lon="5.34926">
        <ele>180</ele>
        <time>2012-06-19T12:26:50Z</time>
      </trkpt>
      <trkpt lat="47.13599" lon="5.34912">
        <ele>180</ele>
        <time>2012-06-19T12:26:52Z</time>
      </trkpt>
      <trkpt lat="47.13607" lon="5.34896">
        <ele>180</ele>
        <time>2012-06-19T12:26:54Z</time>
      </trkpt>
      <trkpt lat="47.13616" lon="5.34881">
        <ele>180</ele>
        <time>2012-06-19T12:26:56Z</time>
      </trkpt>
      <trkpt lat="47.13625" lon="5.34866">
        <ele>180</ele>
        <time>2012-06-19T12:26:58Z</time>
      </trkpt>
      <trkpt lat="47.13634" lon="5.34851">
        <ele>180</ele>
        <time>2012-06-19T12:27:00Z</time>
      </trkpt>
      <trkpt lat="47.13643" lon="5.34835">
        <ele>180</ele>
        <time>2012-06-19T12:27:02Z</time>
      </trkpt>
      <trkpt lat="47.13651" lon="5.3482">
        <ele>180</ele>
        <time>2012-06-19T12:27:04Z</time>
      </trkpt>
      <trkpt lat="47.1366" lon="5.34805">
        <ele>180</ele>
        <time>2012-06-19T12:27:06Z</time>
      </trkpt>
      <trkpt lat="47.13668" lon="5.3479">
        <ele>180</ele>
        <time>2012-06-19T12:27:08Z</time>
      </trkpt>
      <trkpt lat="47.13676" lon="5.34774">
        <ele>180</ele>
        <time>2012-06-19T12:27:10Z</time>
      </trkpt>
      <trkpt lat="47.13684" lon="5.3476">
        <ele>180</ele>
        <time>2012-06-19T12:27:12Z</time>
      </trkpt>
      <trkpt lat="47.13694" lon="5.34746">
        <ele>180</ele>
        <time>2012-06-19T12:27:14Z</time>
      </trkpt>
      <trkpt lat="47.13703" lon="5.34731">
        <ele>180</ele>
        <time>2012-06-19T12:27:16Z</time>
      </trkpt>
      <trkpt lat="47.13712" lon="5.34715">
        <ele>180</ele>
        <time>2012-06-19T12:27:18Z</time>
      </trkpt>
      <trkpt lat="47.13722" lon="5.347">
        <ele>180</ele>
        <time>2012-06-19T12:27:20Z</time>
      </trkpt>
      <trkpt lat="47.13731" lon="5.34684">
        <ele>180</ele>
        <time>2012-06-19T12:27:22Z</time>
      </trkpt>
      <trkpt lat="47.1374" lon="5.34667">
        <ele>180</ele>
        <time>2012-06-19T12:27:24Z</time>
      </trkpt>
      <trkpt lat="47.13749" lon="5.34651">
        <ele>180</ele>
        <time>2012-06-19T12:27:26Z</time>
      </trkpt>
      <trkpt lat="47.13757" lon="5.34635">
        <ele>180</ele>
        <time>2012-06-19T12:27:28Z</time>
      </trkpt>
      <trkpt lat="47.13766" lon="5.3462">
        <ele>180</ele>
        <time>2012-06-19T12:27:30Z</time>
      </trkpt>
      <trkpt lat="47.13774" lon="5.34605">
        <ele>180</ele>
        <time>2012-06-19T12:27:32Z</time>
      </trkpt>
      <trkpt lat="47.13783" lon="5.3459">
        <ele>180</ele>
        <time>2012-06-19T12:27:34Z</time>
      </trkpt>
      <trkpt lat="47.1379" lon="5.34576">
        <ele>180</ele>
        <time>2012-06-19T12:27:36Z</time>
      </trkpt>
      <trkpt lat="47.138" lon="5.34561">
        <ele>180</ele>
        <time>2012-06-19T12:27:38Z</time>
      </trkpt>
      <trkpt lat="47.13808" lon="5.34546">
        <ele>180</ele>
        <time>2012-06-19T12:27:40Z</time>
      </trkpt>
      <trkpt lat="47.13817" lon="5.34532">
        <ele>180</ele>
        <time>2012-06-19T12:27:42Z</time>
      </trkpt>
      <trkpt lat="47.13825" lon="5.34517">
        <ele>180</ele>
        <time>2012-06-19T12:27:44Z</time>
      </trkpt>
      <trkpt lat="47.13833" lon="5.34503">
        <ele>185</ele>
        <time>2012-06-19T12:27:46Z</time>
      </trkpt>
      <trkpt lat="47.1384" lon="5.3449">
        <ele>185</ele>
        <time>2012-06-19T12:27:48Z</time>
      </trkpt>
      <trkpt lat="47.13847" lon="5.34479">
        <ele>185</ele>
        <time>2012-06-19T12:27:50Z</time>
      </trkpt>
      <trkpt lat="47.13854" lon="5.34469">
        <ele>185</ele>
        <time>2012-06-19T12:27:52Z</time>
      </trkpt>
      <trkpt lat="47.13862" lon="5.34455">
        <ele>185</ele>
        <time>2012-06-19T12:27:55Z</time>
      </trkpt>
      <trkpt lat="47.13868" lon="5.34443">
        <ele>185</ele>
        <time>2012-06-19T12:27:58Z</time>
      </trkpt>
      <trkpt lat="47.13876" lon="5.34433">
        <ele>185</ele>
        <time>2012-06-19T12:28:01Z</time>
      </trkpt>
      <trkpt lat="47.13882" lon="5.34423">
        <ele>185</ele>
        <time>2012-06-19T12:28:04Z</time>
      </trkpt>
      <trkpt lat="47.13891" lon="5.34412">
        <ele>185</ele>
        <time>2012-06-19T12:28:08Z</time>
      </trkpt>
      <trkpt lat="47.13897" lon="5.34401">
        <ele>185</ele>
        <time>2012-06-19T12:28:12Z</time>
      </trkpt>
      <trkpt lat="47.13892" lon="5.34385">
        <ele>185</ele>
        <time>2012-06-19T12:28:16Z</time>
      </trkpt>
      <trkpt lat="47.13882" lon="5.34376">
        <ele>185</ele>
        <time>2012-06-19T12:28:19Z</time>
      </trkpt>
      <trkpt lat="47.13873" lon="5.34366">
        <ele>185</ele>
        <time>2012-06-19T12:28:22Z</time>
      </trkpt>
      <trkpt lat="47.13863" lon="5.34356">
        <ele>185</ele>
        <time>2012-06-19T12:28:25Z</time>
      </trkpt>
      <trkpt lat="47.13855" lon="5.34347">
        <ele>185</ele>
        <time>2012-06-19T12:28:27Z</time>
      </trkpt>
      <trkpt lat="47.13845" lon="5.34334">
        <ele>179</ele>
        <time>2012-06-19T12:28:30Z</time>
      </trkpt>
      <trkpt lat="47.13838" lon="5.34323">
        <ele>179</ele>
        <time>2012-06-19T12:28:32Z</time>
      </trkpt>
      <trkpt lat="47.13831" lon="5.34312">
        <ele>179</ele>
        <time>2012-06-19T12:28:34Z</time>
      </trkpt>
      <trkpt lat="47.13824" lon="5.34301">
        <ele>179</ele>
        <time>2012-06-19T12:28:36Z</time>
      </trkpt>
      <trkpt lat="47.13817" lon="5.34291">
        <ele>179</ele>
        <time>2012-06-19T12:28:38Z</time>
      </trkpt>
      <trkpt lat="47.1381" lon="5.34279">
        <ele>179</ele>
        <time>2012-06-19T12:28:40Z</time>
      </trkpt>
      <trkpt lat="47.13803" lon="5.34268">
        <ele>179</ele>
        <time>2012-06-19T12:28:42Z</time>
      </trkpt>
      <trkpt lat="47.13795" lon="5.34257">
        <ele>179</ele>
        <time>2012-06-19T12:28:44Z</time>
      </trkpt>
      <trkpt lat="47.13788" lon="5.34245">
        <ele>179</ele>
        <time>2012-06-19T12:28:46Z</time>
      </trkpt>
      <trkpt lat="47.1378" lon="5.34234">
        <ele>179</ele>
        <time>2012-06-19T12:28:48Z</time>
      </trkpt>
      <trkpt lat="47.13771" lon="5.34221">
        <ele>179</ele>
        <time>2012-06-19T12:28:50Z</time>
      </trkpt>
      <trkpt lat="47.13761" lon="5.34208">
        <ele>179</ele>
        <time>2012-06-19T12:28:52Z</time>
      </trkpt>
      <trkpt lat="47.13751" lon="5.34194">
        <ele>179</ele>
        <time>2012-06-19T12:28:54Z</time>
      </trkpt>
      <trkpt lat="47.13742" lon="5.34181">
        <ele>179</ele>
        <time>2012-06-19T12:28:56Z</time>
      </trkpt>
      <trkpt lat="47.13733" lon="5.34167">
        <ele>179</ele>
        <time>2012-06-19T12:28:58Z</time>
      </trkpt>
      <trkpt lat="47.13724" lon="5.34153">
        <ele>179</ele>
        <time>2012-06-19T12:29:00Z</time>
      </trkpt>
      <trkpt lat="47.13715" lon="5.34138">
        <ele>179</ele>
        <time>2012-06-19T12:29:02Z</time>
      </trkpt>
      <trkpt lat="47.13707" lon="5.34124">
        <ele>179</ele>
        <time>2012-06-19T12:29:04Z</time>
      </trkpt>
      <trkpt lat="47.137" lon="5.34109">
        <ele>179</ele>
        <time>2012-06-19T12:29:06Z</time>
      </trkpt>
      <trkpt lat="47.13692" lon="5.34093">
        <ele>179</ele>
        <time>2012-06-19T12:29:08Z</time>
      </trkpt>
      <trkpt lat="47.13684" lon="5.34076">
        <ele>179</ele>
        <time>2012-06-19T12:29:10Z</time>
      </trkpt>
      <trkpt lat="47.13678" lon="5.34059">
        <ele>179</ele>
        <time>2012-06-19T12:29:12Z</time>
      </trkpt>
      <trkpt lat="47.13672" lon="5.34043">
        <ele>179</ele>
        <time>2012-06-19T12:29:14Z</time>
      </trkpt>
      <trkpt lat="47.13665" lon="5.34026">
        <ele>179</ele>
        <time>2012-06-19T12:29:16Z</time>
      </trkpt>
      <trkpt lat="47.13659" lon="5.3401">
        <ele>179</ele>
        <time>2012-06-19T12:29:18Z</time>
      </trkpt>
      <trkpt lat="47.13653" lon="5.33994">
        <ele>179</ele>
        <time>2012-06-19T12:29:20Z</time>
      </trkpt>
      <trkpt lat="47.13645" lon="5.33978">
        <ele>179</ele>
        <time>2012-06-19T12:29:22Z</time>
      </trkpt>
      <trkpt lat="47.13638" lon="5.33963">
        <ele>179</ele>
        <time>2012-06-19T12:29:24Z</time>
      </trkpt>
      <trkpt lat="47.13631" lon="5.33949">
        <ele>179</ele>
        <time>2012-06-19T12:29:26Z</time>
      </trkpt>
      <trkpt lat="47.13623" lon="5.33933">
        <ele>179</ele>
        <time>2012-06-19T12:29:28Z</time>
      </trkpt>
      <trkpt lat="47.13616" lon="5.33917">
        <ele>179</ele>
        <time>2012-06-19T12:29:30Z</time>
      </trkpt>
      <trkpt lat="47.13609" lon="5.33901">
        <ele>179</ele>
        <time>2012-06-19T12:29:32Z</time>
      </trkpt>
      <trkpt lat="47.13603" lon="5.33885">
        <ele>179</ele>
        <time>2012-06-19T12:29:34Z</time>
      </trkpt>
      <trkpt lat="47.13597" lon="5.3387">
        <ele>179</ele>
        <time>2012-06-19T12:29:36Z</time>
      </trkpt>
      <trkpt lat="47.1359" lon="5.33854">
        <ele>179</ele>
        <time>2012-06-19T12:29:38Z</time>
      </trkpt>
      <trkpt lat="47.13583" lon="5.33836">
        <ele>179</ele>
        <time>2012-06-19T12:29:40Z</time>
      </trkpt>
      <trkpt lat="47.13575" lon="5.33819">
        <ele>179</ele>
        <time>2012-06-19T12:29:42Z</time>
      </trkpt>
      <trkpt lat="47.13567" lon="5.33801">
        <ele>179</ele>
        <time>2012-06-19T12:29:44Z</time>
      </trkpt>
      <trkpt lat="47.1356" lon="5.33784">
        <ele>179</ele>
        <time>2012-06-19T12:29:46Z</time>
      </trkpt>
      <trkpt lat="47.13553" lon="5.33768">
        <ele>179</ele>
        <time>2012-06-19T12:29:48Z</time>
      </trkpt>
      <trkpt lat="47.13545" lon="5.33751">
        <ele>179</ele>
        <time>2012-06-19T12:29:50Z</time>
      </trkpt>
      <trkpt lat="47.13538" lon="5.33733">
        <ele>179</ele>
        <time>2012-06-19T12:29:52Z</time>
      </trkpt>
      <trkpt lat="47.1353" lon="5.33716">
        <ele>179</ele>
        <time>2012-06-19T12:29:54Z</time>
      </trkpt>
      <trkpt lat="47.13521" lon="5.33698">
        <ele>179</ele>
        <time>2012-06-19T12:29:56Z</time>
      </trkpt>
      <trkpt lat="47.13513" lon="5.33682">
        <ele>179</ele>
        <time>2012-06-19T12:29:58Z</time>
      </trkpt>
      <trkpt lat="47.13506" lon="5.33665">
        <ele>179</ele>
        <time>2012-06-19T12:30:00Z</time>
      </trkpt>
      <trkpt lat="47.13498" lon="5.33647">
        <ele>179</ele>
        <time>2012-06-19T12:30:02Z</time>
      </trkpt>
      <trkpt lat="47.13491" lon="5.33631">
        <ele>179</ele>
        <time>2012-06-19T12:30:04Z</time>
      </trkpt>
      <trkpt lat="47.13483" lon="5.33615">
        <ele>179</ele>
        <time>2012-06-19T12:30:06Z</time>
      </trkpt>
      <trkpt lat="47.13475" lon="5.336">
        <ele>179</ele>
        <time>2012-06-19T12:30:08Z</time>
      </trkpt>
      <trkpt lat="47.13467" lon="5.33587">
        <ele>179</ele>
        <time>2012-06-19T12:30:10Z</time>
      </trkpt>
      <trkpt lat="47.13459" lon="5.33574">
        <ele>179</ele>
        <time>2012-06-19T12:30:12Z</time>
      </trkpt>
      <trkpt lat="47.13452" lon="5.33562">
        <ele>179</ele>
        <time>2012-06-19T12:30:14Z</time>
      </trkpt>
      <trkpt lat="47.13445" lon="5.3355">
        <ele>179</ele>
        <time>2012-06-19T12:30:16Z</time>
      </trkpt>
      <trkpt lat="47.1345" lon="5.33532">
        <ele>179</ele>
        <time>2012-06-19T12:30:19Z</time>
      </trkpt>
      <trkpt lat="47.13461" lon="5.33521">
        <ele>179</ele>
        <time>2012-06-19T12:30:21Z</time>
      </trkpt>
      <trkpt lat="47.13471" lon="5.3351">
        <ele>179</ele>
        <time>2012-06-19T12:30:23Z</time>
      </trkpt>
      <trkpt lat="47.13481" lon="5.33499">
        <ele>179</ele>
        <time>2012-06-19T12:30:25Z</time>
      </trkpt>
      <trkpt lat="47.13491" lon="5.33487">
        <ele>179</ele>
        <time>2012-06-19T12:30:27Z</time>
      </trkpt>
      <trkpt lat="47.13501" lon="5.33476">
        <ele>179</ele>
        <time>2012-06-19T12:30:29Z</time>
      </trkpt>
      <trkpt lat="47.13511" lon="5.33465">
        <ele>179</ele>
        <time>2012-06-19T12:30:31Z</time>
      </trkpt>
      <trkpt lat="47.13521" lon="5.33453">
        <ele>184</ele>
        <time>2012-06-19T12:30:33Z</time>
      </trkpt>
      <trkpt lat="47.13531" lon="5.33441">
        <ele>184</ele>
        <time>2012-06-19T12:30:35Z</time>
      </trkpt>
      <trkpt lat="47.13541" lon="5.3343">
        <ele>184</ele>
        <time>2012-06-19T12:30:37Z</time>
      </trkpt>
      <trkpt lat="47.1355" lon="5.33419">
        <ele>184</ele>
        <time>2012-06-19T12:30:39Z</time>
      </trkpt>
      <trkpt lat="47.1356" lon="5.33408">
        <ele>184</ele>
        <time>2012-06-19T12:30:41Z</time>
      </trkpt>
      <trkpt lat="47.1357" lon="5.33397">
        <ele>184</ele>
        <time>2012-06-19T12:30:43Z</time>
      </trkpt>
      <trkpt lat="47.1358" lon="5.33386">
        <ele>184</ele>
        <time>2012-06-19T12:30:45Z</time>
      </trkpt>
      <trkpt lat="47.1359" lon="5.33376">
        <ele>184</ele>
        <time>2012-06-19T12:30:47Z</time>
      </trkpt>
      <trkpt lat="47.136" lon="5.33364">
        <ele>184</ele>
        <time>2012-06-19T12:30:49Z</time>
      </trkpt>
      <trkpt lat="47.13608" lon="5.33351">
        <ele>184</ele>
        <time>2012-06-19T12:30:51Z</time>
      </trkpt>
      <trkpt lat="47.13613" lon="5.33336">
        <ele>184</ele>
        <time>2012-06-19T12:30:53Z</time>
      </trkpt>
      <trkpt lat="47.13615" lon="5.33319">
        <ele>184</ele>
        <time>2012-06-19T12:30:55Z</time>
      </trkpt>
      <trkpt lat="47.13611" lon="5.33302">
        <ele>184</ele>
        <time>2012-06-19T12:30:57Z</time>
      </trkpt>
      <trkpt lat="47.13604" lon="5.33288">
        <ele>184</ele>
        <time>2012-06-19T12:30:59Z</time>
      </trkpt>
      <trkpt lat="47.13595" lon="5.33272">
        <ele>184</ele>
        <time>2012-06-19T12:31:01Z</time>
      </trkpt>
      <trkpt lat="47.13586" lon="5.33258">
        <ele>184</ele>
        <time>2012-06-19T12:31:03Z</time>
      </trkpt>
      <trkpt lat="47.13577" lon="5.33243">
        <ele>184</ele>
        <time>2012-06-19T12:31:05Z</time>
      </trkpt>
      <trkpt lat="47.13567" lon="5.33227">
        <ele>184</ele>
        <time>2012-06-19T12:31:07Z</time>
      </trkpt>
      <trkpt lat="47.13558" lon="5.33212">
        <ele>184</ele>
        <time>2012-06-19T12:31:09Z</time>
      </trkpt>
      <trkpt lat="47.13548" lon="5.33196">
        <ele>184</ele>
        <time>2012-06-19T12:31:11Z</time>
      </trkpt>
      <trkpt lat="47.13539" lon="5.33181">
        <ele>184</ele>
        <time>2012-06-19T12:31:13Z</time>
      </trkpt>
      <trkpt lat="47.1353" lon="5.33165">
        <ele>184</ele>
        <time>2012-06-19T12:31:15Z</time>
      </trkpt>
      <trkpt lat="47.13521" lon="5.3315">
        <ele>184</ele>
        <time>2012-06-19T12:31:17Z</time>
      </trkpt>
      <trkpt lat="47.13512" lon="5.33134">
        <ele>184</ele>
        <time>2012-06-19T12:31:19Z</time>
      </trkpt>
      <trkpt lat="47.13503" lon="5.33118">
        <ele>184</ele>
        <time>2012-06-19T12:31:21Z</time>
      </trkpt>
      <trkpt lat="47.13494" lon="5.331">
        <ele>184</ele>
        <time>2012-06-19T12:31:23Z</time>
      </trkpt>
      <trkpt lat="47.13488" lon="5.33082">
        <ele>184</ele>
        <time>2012-06-19T12:31:25Z</time>
      </trkpt>
      <trkpt lat="47.13484" lon="5.33062">
        <ele>184</ele>
        <time>2012-06-19T12:31:27Z</time>
      </trkpt>
      <trkpt lat="47.1348" lon="5.33041">
        <ele>184</ele>
        <time>2012-06-19T12:31:29Z</time>
      </trkpt>
      <trkpt lat="47.13479" lon="5.33021">
        <ele>184</ele>
        <time>2012-06-19T12:31:31Z</time>
      </trkpt>
      <trkpt lat="47.1348" lon="5.33">
        <ele>184</ele>
        <time>2012-06-19T12:31:33Z</time>
      </trkpt>
      <trkpt lat="47.13483" lon="5.32979">
        <ele>184</ele>
        <time>2012-06-19T12:31:35Z</time>
      </trkpt>
      <trkpt lat="47.13488" lon="5.3296">
        <ele>184</ele>
        <time>2012-06-19T12:31:37Z</time>
      </trkpt>
      <trkpt lat="47.13494" lon="5.32942">
        <ele>184</ele>
        <time>2012-06-19T12:31:39Z</time>
      </trkpt>
      <trkpt lat="47.13501" lon="5.32924">
        <ele>184</ele>
        <time>2012-06-19T12:31:41Z</time>
      </trkpt>
      <trkpt lat="47.13509" lon="5.32908">
        <ele>184</ele>
        <time>2012-06-19T12:31:43Z</time>
      </trkpt>
      <trkpt lat="47.13518" lon="5.32891">
        <ele>184</ele>
        <time>2012-06-19T12:31:45Z</time>
      </trkpt>
      <trkpt lat="47.13526" lon="5.32875">
        <ele>184</ele>
        <time>2012-06-19T12:31:47Z</time>
      </trkpt>
      <trkpt lat="47.13534" lon="5.32858">
        <ele>184</ele>
        <time>2012-06-19T12:31:49Z</time>
      </trkpt>
      <trkpt lat="47.13543" lon="5.32842">
        <ele>184</ele>
        <time>2012-06-19T12:31:51Z</time>
      </trkpt>
      <trkpt lat="47.13551" lon="5.32825">
        <ele>184</ele>
        <time>2012-06-19T12:31:53Z</time>
      </trkpt>
      <trkpt lat="47.1356" lon="5.32809">
        <ele>184</ele>
        <time>2012-06-19T12:31:55Z</time>
      </trkpt>
      <trkpt lat="47.13569" lon="5.32792">
        <ele>184</ele>
        <time>2012-06-19T12:31:57Z</time>
      </trkpt>
      <trkpt lat="47.13577" lon="5.32775">
        <ele>184</ele>
        <time>2012-06-19T12:31:59Z</time>
      </trkpt>
      <trkpt lat="47.13586" lon="5.32758">
        <ele>184</ele>
        <time>2012-06-19T12:32:01Z</time>
      </trkpt>
      <trkpt lat="47.13594" lon="5.32741">
        <ele>184</ele>
        <time>2012-06-19T12:32:03Z</time>
      </trkpt>
      <trkpt lat="47.13603" lon="5.32724">
        <ele>184</ele>
        <time>2012-06-19T12:32:05Z</time>
      </trkpt>
      <trkpt lat="47.13611" lon="5.32707">
        <ele>184</ele>
        <time>2012-06-19T12:32:07Z</time>
      </trkpt>
      <trkpt lat="47.13619" lon="5.32691">
        <ele>184</ele>
        <time>2012-06-19T12:32:09Z</time>
      </trkpt>
      <trkpt lat="47.13627" lon="5.32674">
        <ele>184</ele>
        <time>2012-06-19T12:32:11Z</time>
      </trkpt>
      <trkpt lat="47.13636" lon="5.32657">
        <ele>184</ele>
        <time>2012-06-19T12:32:13Z</time>
      </trkpt>
      <trkpt lat="47.13644" lon="5.32641">
        <ele>184</ele>
        <time>2012-06-19T12:32:15Z</time>
      </trkpt>
      <trkpt lat="47.13652" lon="5.32625">
        <ele>184</ele>
        <time>2012-06-19T12:32:17Z</time>
      </trkpt>
      <trkpt lat="47.13661" lon="5.32608">
        <ele>184</ele>
        <time>2012-06-19T12:32:19Z</time>
      </trkpt>
      <trkpt lat="47.13669" lon="5.3259">
        <ele>184</ele>
        <time>2012-06-19T12:32:21Z</time>
      </trkpt>
      <trkpt lat="47.13676" lon="5.32573">
        <ele>184</ele>
        <time>2012-06-19T12:32:23Z</time>
      </trkpt>
      <trkpt lat="47.13684" lon="5.32557">
        <ele>184</ele>
        <time>2012-06-19T12:32:25Z</time>
      </trkpt>
      <trkpt lat="47.13692" lon="5.32541">
        <ele>184</ele>
        <time>2012-06-19T12:32:27Z</time>
      </trkpt>
      <trkpt lat="47.137" lon="5.32525">
        <ele>184</ele>
        <time>2012-06-19T12:32:29Z</time>
      </trkpt>
      <trkpt lat="47.13708" lon="5.3251">
        <ele>184</ele>
        <time>2012-06-19T12:32:31Z</time>
      </trkpt>
      <trkpt lat="47.13716" lon="5.32494">
        <ele>184</ele>
        <time>2012-06-19T12:32:33Z</time>
      </trkpt>
      <trkpt lat="47.13724" lon="5.32479">
        <ele>184</ele>
        <time>2012-06-19T12:32:35Z</time>
      </trkpt>
      <trkpt lat="47.13732" lon="5.32463">
        <ele>184</ele>
        <time>2012-06-19T12:32:37Z</time>
      </trkpt>
      <trkpt lat="47.13739" lon="5.32448">
        <ele>184</ele>
        <time>2012-06-19T12:32:39Z</time>
      </trkpt>
      <trkpt lat="47.13747" lon="5.32432">
        <ele>184</ele>
        <time>2012-06-19T12:32:41Z</time>
      </trkpt>
      <trkpt lat="47.13755" lon="5.32416">
        <ele>184</ele>
        <time>2012-06-19T12:32:43Z</time>
      </trkpt>
      <trkpt lat="47.13763" lon="5.324">
        <ele>184</ele>
        <time>2012-06-19T12:32:45Z</time>
      </trkpt>
      <trkpt lat="47.1377" lon="5.32385">
        <ele>184</ele>
        <time>2012-06-19T12:32:47Z</time>
      </trkpt>
      <trkpt lat="47.13778" lon="5.32369">
        <ele>184</ele>
        <time>2012-06-19T12:32:49Z</time>
      </trkpt>
      <trkpt lat="47.13787" lon="5.32352">
        <ele>184</ele>
        <time>2012-06-19T12:32:51Z</time>
      </trkpt>
      <trkpt lat="47.13795" lon="5.32337">
        <ele>184</ele>
        <time>2012-06-19T12:32:53Z</time>
      </trkpt>
      <trkpt lat="47.13803" lon="5.32321">
        <ele>184</ele>
        <time>2012-06-19T12:32:55Z</time>
      </trkpt>
      <trkpt lat="47.1381" lon="5.32306">
        <ele>184</ele>
        <time>2012-06-19T12:32:57Z</time>
      </trkpt>
      <trkpt lat="47.13816" lon="5.32289">
        <ele>184</ele>
        <time>2012-06-19T12:32:59Z</time>
      </trkpt>
      <trkpt lat="47.13818" lon="5.3227">
        <ele>184</ele>
        <time>2012-06-19T12:33:01Z</time>
      </trkpt>
      <trkpt lat="47.13817" lon="5.3225">
        <ele>184</ele>
        <time>2012-06-19T12:33:03Z</time>
      </trkpt>
      <trkpt lat="47.13813" lon="5.32231">
        <ele>184</ele>
        <time>2012-06-19T12:33:05Z</time>
      </trkpt>
      <trkpt lat="47.13808" lon="5.32212">
        <ele>184</ele>
        <time>2012-06-19T12:33:07Z</time>
      </trkpt>
      <trkpt lat="47.13805" lon="5.32194">
        <ele>184</ele>
        <time>2012-06-19T12:33:09Z</time>
      </trkpt>
      <trkpt lat="47.138" lon="5.32176">
        <ele>184</ele>
        <time>2012-06-19T12:33:11Z</time>
      </trkpt>
      <trkpt lat="47.13797" lon="5.3216">
        <ele>184</ele>
        <time>2012-06-19T12:33:13Z</time>
      </trkpt>
      <trkpt lat="47.13794" lon="5.32143">
        <ele>184</ele>
        <time>2012-06-19T12:33:15Z</time>
      </trkpt>
      <trkpt lat="47.1379" lon="5.32126">
        <ele>184</ele>
        <time>2012-06-19T12:33:17Z</time>
      </trkpt>
      <trkpt lat="47.13786" lon="5.3211">
        <ele>184</ele>
        <time>2012-06-19T12:33:19Z</time>
      </trkpt>
      <trkpt lat="47.13781" lon="5.32092">
        <ele>184</ele>
        <time>2012-06-19T12:33:21Z</time>
      </trkpt>
      <trkpt lat="47.13778" lon="5.32074">
        <ele>184</ele>
        <time>2012-06-19T12:33:23Z</time>
      </trkpt>
      <trkpt lat="47.13773" lon="5.32054">
        <ele>184</ele>
        <time>2012-06-19T12:33:25Z</time>
      </trkpt>
      <trkpt lat="47.1377" lon="5.32034">
        <ele>184</ele>
        <time>2012-06-19T12:33:27Z</time>
      </trkpt>
      <trkpt lat="47.13767" lon="5.32015">
        <ele>184</ele>
        <time>2012-06-19T12:33:29Z</time>
      </trkpt>
      <trkpt lat="47.13764" lon="5.31994">
        <ele>184</ele>
        <time>2012-06-19T12:33:31Z</time>
      </trkpt>
      <trkpt lat="47.13761" lon="5.31972">
        <ele>184</ele>
        <time>2012-06-19T12:33:33Z</time>
      </trkpt>
      <trkpt lat="47.13759" lon="5.31952">
        <ele>184</ele>
        <time>2012-06-19T12:33:35Z</time>
      </trkpt>
      <trkpt lat="47.13756" lon="5.3193">
        <ele>184</ele>
        <time>2012-06-19T12:33:37Z</time>
      </trkpt>
      <trkpt lat="47.13753" lon="5.31908">
        <ele>184</ele>
        <time>2012-06-19T12:33:39Z</time>
      </trkpt>
      <trkpt lat="47.13751" lon="5.31886">
        <ele>184</ele>
        <time>2012-06-19T12:33:41Z</time>
      </trkpt>
      <trkpt lat="47.13748" lon="5.31865">
        <ele>184</ele>
        <time>2012-06-19T12:33:43Z</time>
      </trkpt>
      <trkpt lat="47.13745" lon="5.31843">
        <ele>184</ele>
        <time>2012-06-19T12:33:45Z</time>
      </trkpt>
      <trkpt lat="47.13743" lon="5.31822">
        <ele>184</ele>
        <time>2012-06-19T12:33:47Z</time>
      </trkpt>
      <trkpt lat="47.1374" lon="5.31801">
        <ele>184</ele>
        <time>2012-06-19T12:33:49Z</time>
      </trkpt>
      <trkpt lat="47.13737" lon="5.31779">
        <ele>184</ele>
        <time>2012-06-19T12:33:51Z</time>
      </trkpt>
      <trkpt lat="47.13734" lon="5.31759">
        <ele>184</ele>
        <time>2012-06-19T12:33:53Z</time>
      </trkpt>
      <trkpt lat="47.13733" lon="5.31736">
        <ele>184</ele>
        <time>2012-06-19T12:33:55Z</time>
      </trkpt>
      <trkpt lat="47.13735" lon="5.31716">
        <ele>184</ele>
        <time>2012-06-19T12:33:57Z</time>
      </trkpt>
      <trkpt lat="47.13746" lon="5.31705">
        <ele>184</ele>
        <time>2012-06-19T12:33:59Z</time>
      </trkpt>
      <trkpt lat="47.1376" lon="5.31693">
        <ele>184</ele>
        <time>2012-06-19T12:34:01Z</time>
      </trkpt>
      <trkpt lat="47.13772" lon="5.31682">
        <ele>184</ele>
        <time>2012-06-19T12:34:03Z</time>
      </trkpt>
      <trkpt lat="47.13786" lon="5.31673">
        <ele>184</ele>
        <time>2012-06-19T12:34:05Z</time>
      </trkpt>
      <trkpt lat="47.13798" lon="5.31662">
        <ele>184</ele>
        <time>2012-06-19T12:34:07Z</time>
      </trkpt>
      <trkpt lat="47.13811" lon="5.31649">
        <ele>184</ele>
        <time>2012-06-19T12:34:09Z</time>
      </trkpt>
      <trkpt lat="47.13824" lon="5.31637">
        <ele>184</ele>
        <time>2012-06-19T12:34:11Z</time>
      </trkpt>
      <trkpt lat="47.13836" lon="5.31623">
        <ele>184</ele>
        <time>2012-06-19T12:34:13Z</time>
      </trkpt>
      <trkpt lat="47.13848" lon="5.3161">
        <ele>184</ele>
        <time>2012-06-19T12:34:15Z</time>
      </trkpt>
      <trkpt lat="47.13861" lon="5.316">
        <ele>184</ele>
        <time>2012-06-19T12:34:17Z</time>
      </trkpt>
      <trkpt lat="47.13874" lon="5.31587">
        <ele>184</ele>
        <time>2012-06-19T12:34:19Z</time>
      </trkpt>
      <trkpt lat="47.13887" lon="5.31575">
        <ele>184</ele>
        <time>2012-06-19T12:34:21Z</time>
      </trkpt>
      <trkpt lat="47.139" lon="5.31563">
        <ele>184</ele>
        <time>2012-06-19T12:34:23Z</time>
      </trkpt>
      <trkpt lat="47.13913" lon="5.3155">
        <ele>184</ele>
        <time>2012-06-19T12:34:25Z</time>
      </trkpt>
      <trkpt lat="47.13927" lon="5.31539">
        <ele>184</ele>
        <time>2012-06-19T12:34:27Z</time>
      </trkpt>
      <trkpt lat="47.1394" lon="5.31526">
        <ele>184</ele>
        <time>2012-06-19T12:34:29Z</time>
      </trkpt>
      <trkpt lat="47.13955" lon="5.31513">
        <ele>184</ele>
        <time>2012-06-19T12:34:31Z</time>
      </trkpt>
      <trkpt lat="47.13969" lon="5.31499">
        <ele>184</ele>
        <time>2012-06-19T12:34:33Z</time>
      </trkpt>
      <trkpt lat="47.13983" lon="5.31486">
        <ele>184</ele>
        <time>2012-06-19T12:34:35Z</time>
      </trkpt>
      <trkpt lat="47.13996" lon="5.31472">
        <ele>184</ele>
        <time>2012-06-19T12:34:37Z</time>
      </trkpt>
      <trkpt lat="47.1401" lon="5.31459">
        <ele>184</ele>
        <time>2012-06-19T12:34:39Z</time>
      </trkpt>
      <trkpt lat="47.14023" lon="5.31445">
        <ele>184</ele>
        <time>2012-06-19T12:34:41Z</time>
      </trkpt>
      <trkpt lat="47.14038" lon="5.31433">
        <ele>184</ele>
        <time>2012-06-19T12:34:43Z</time>
      </trkpt>
      <trkpt lat="47.14051" lon="5.31418">
        <ele>184</ele>
        <time>2012-06-19T12:34:45Z</time>
      </trkpt>
      <trkpt lat="47.14064" lon="5.31406">
        <ele>184</ele>
        <time>2012-06-19T12:34:47Z</time>
      </trkpt>
      <trkpt lat="47.14077" lon="5.31393">
        <ele>184</ele>
        <time>2012-06-19T12:34:49Z</time>
      </trkpt>
      <trkpt lat="47.14089" lon="5.31381">
        <ele>184</ele>
        <time>2012-06-19T12:34:51Z</time>
      </trkpt>
      <trkpt lat="47.14101" lon="5.3137">
        <ele>184</ele>
        <time>2012-06-19T12:34:53Z</time>
      </trkpt>
      <trkpt lat="47.14114" lon="5.31359">
        <ele>184</ele>
        <time>2012-06-19T12:34:55Z</time>
      </trkpt>
      <trkpt lat="47.14125" lon="5.31348">
        <ele>184</ele>
        <time>2012-06-19T12:34:57Z</time>
      </trkpt>
      <trkpt lat="47.14137" lon="5.31336">
        <ele>184</ele>
        <time>2012-06-19T12:34:59Z</time>
      </trkpt>
      <trkpt lat="47.1415" lon="5.31325">
        <ele>184</ele>
        <time>2012-06-19T12:35:01Z</time>
      </trkpt>
      <trkpt lat="47.14163" lon="5.31313">
        <ele>184</ele>
        <time>2012-06-19T12:35:03Z</time>
      </trkpt>
      <trkpt lat="47.14175" lon="5.31302">
        <ele>184</ele>
        <time>2012-06-19T12:35:05Z</time>
      </trkpt>
      <trkpt lat="47.14189" lon="5.3129">
        <ele>184</ele>
        <time>2012-06-19T12:35:07Z</time>
      </trkpt>
      <trkpt lat="47.14202" lon="5.31279">
        <ele>184</ele>
        <time>2012-06-19T12:35:09Z</time>
      </trkpt>
      <trkpt lat="47.14214" lon="5.31267">
        <ele>184</ele>
        <time>2012-06-19T12:35:11Z</time>
      </trkpt>
      <trkpt lat="47.14228" lon="5.31255">
        <ele>184</ele>
        <time>2012-06-19T12:35:13Z</time>
      </trkpt>
      <trkpt lat="47.1424" lon="5.31244">
        <ele>184</ele>
        <time>2012-06-19T12:35:15Z</time>
      </trkpt>
      <trkpt lat="47.14252" lon="5.31232">
        <ele>184</ele>
        <time>2012-06-19T12:35:17Z</time>
      </trkpt>
      <trkpt lat="47.14264" lon="5.31221">
        <ele>184</ele>
        <time>2012-06-19T12:35:19Z</time>
      </trkpt>
      <trkpt lat="47.14277" lon="5.31211">
        <ele>184</ele>
        <time>2012-06-19T12:35:21Z</time>
      </trkpt>
      <trkpt lat="47.14289" lon="5.31201">
        <ele>184</ele>
        <time>2012-06-19T12:35:23Z</time>
      </trkpt>
      <trkpt lat="47.14302" lon="5.31189">
        <ele>184</ele>
        <time>2012-06-19T12:35:25Z</time>
      </trkpt>
      <trkpt lat="47.14314" lon="5.31177">
        <ele>184</ele>
        <time>2012-06-19T12:35:27Z</time>
      </trkpt>
      <trkpt lat="47.14327" lon="5.31166">
        <ele>184</ele>
        <time>2012-06-19T12:35:29Z</time>
      </trkpt>
      <trkpt lat="47.1434" lon="5.31154">
        <ele>184</ele>
        <time>2012-06-19T12:35:31Z</time>
      </trkpt>
      <trkpt lat="47.14352" lon="5.31142">
        <ele>184</ele>
        <time>2012-06-19T12:35:33Z</time>
      </trkpt>
      <trkpt lat="47.14364" lon="5.3113">
        <ele>184</ele>
        <time>2012-06-19T12:35:35Z</time>
      </trkpt>
      <trkpt lat="47.14375" lon="5.31118">
        <ele>184</ele>
        <time>2012-06-19T12:35:37Z</time>
      </trkpt>
      <trkpt lat="47.14384" lon="5.31105">
        <ele>184</ele>
        <time>2012-06-19T12:35:39Z</time>
      </trkpt>
      <trkpt lat="47.14392" lon="5.31089">
        <ele>184</ele>
        <time>2012-06-19T12:35:41Z</time>
      </trkpt>
      <trkpt lat="47.14397" lon="5.3107">
        <ele>184</ele>
        <time>2012-06-19T12:35:43Z</time>
      </trkpt>
      <trkpt lat="47.14399" lon="5.31049">
        <ele>184</ele>
        <time>2012-06-19T12:35:45Z</time>
      </trkpt>
      <trkpt lat="47.14401" lon="5.31027">
        <ele>184</ele>
        <time>2012-06-19T12:35:47Z</time>
      </trkpt>
      <trkpt lat="47.14402" lon="5.31005">
        <ele>184</ele>
        <time>2012-06-19T12:35:49Z</time>
      </trkpt>
      <trkpt lat="47.14403" lon="5.30983">
        <ele>184</ele>
        <time>2012-06-19T12:35:51Z</time>
      </trkpt>
      <trkpt lat="47.14405" lon="5.30961">
        <ele>184</ele>
        <time>2012-06-19T12:35:53Z</time>
      </trkpt>
      <trkpt lat="47.14406" lon="5.30939">
        <ele>184</ele>
        <time>2012-06-19T12:35:55Z</time>
      </trkpt>
      <trkpt lat="47.14408" lon="5.30918">
        <ele>184</ele>
        <time>2012-06-19T12:35:57Z</time>
      </trkpt>
      <trkpt lat="47.14408" lon="5.30897">
        <ele>189</ele>
        <time>2012-06-19T12:35:59Z</time>
      </trkpt>
      <trkpt lat="47.14409" lon="5.30876">
        <ele>189</ele>
        <time>2012-06-19T12:36:01Z</time>
      </trkpt>
      <trkpt lat="47.14411" lon="5.30852">
        <ele>189</ele>
        <time>2012-06-19T12:36:03Z</time>
      </trkpt>
      <trkpt lat="47.14413" lon="5.3083">
        <ele>195</ele>
        <time>2012-06-19T12:36:05Z</time>
      </trkpt>
      <trkpt lat="47.14416" lon="5.30806">
        <ele>195</ele>
        <time>2012-06-19T12:36:07Z</time>
      </trkpt>
      <trkpt lat="47.14418" lon="5.30785">
        <ele>195</ele>
        <time>2012-06-19T12:36:09Z</time>
      </trkpt>
      <trkpt lat="47.14422" lon="5.30762">
        <ele>195</ele>
        <time>2012-06-19T12:36:11Z</time>
      </trkpt>
      <trkpt lat="47.14426" lon="5.30741">
        <ele>195</ele>
        <time>2012-06-19T12:36:13Z</time>
      </trkpt>
      <trkpt lat="47.1443" lon="5.30719">
        <ele>195</ele>
        <time>2012-06-19T12:36:15Z</time>
      </trkpt>
      <trkpt lat="47.14435" lon="5.30698">
        <ele>195</ele>
        <time>2012-06-19T12:36:17Z</time>
      </trkpt>
      <trkpt lat="47.14438" lon="5.30677">
        <ele>195</ele>
        <time>2012-06-19T12:36:19Z</time>
      </trkpt>
      <trkpt lat="47.14442" lon="5.30656">
        <ele>195</ele>
        <time>2012-06-19T12:36:21Z</time>
      </trkpt>
      <trkpt lat="47.14446" lon="5.30634">
        <ele>195</ele>
        <time>2012-06-19T12:36:23Z</time>
      </trkpt>
      <trkpt lat="47.14451" lon="5.30612">
        <ele>195</ele>
        <time>2012-06-19T12:36:25Z</time>
      </trkpt>
      <trkpt lat="47.14456" lon="5.30591">
        <ele>195</ele>
        <time>2012-06-19T12:36:27Z</time>
      </trkpt>
      <trkpt lat="47.1446" lon="5.30569">
        <ele>189</ele>
        <time>2012-06-19T12:36:29Z</time>
      </trkpt>
      <trkpt lat="47.14464" lon="5.30549">
        <ele>189</ele>
        <time>2012-06-19T12:36:31Z</time>
      </trkpt>
      <trkpt lat="47.14468" lon="5.30527">
        <ele>189</ele>
        <time>2012-06-19T12:36:33Z</time>
      </trkpt>
      <trkpt lat="47.14472" lon="5.30507">
        <ele>189</ele>
        <time>2012-06-19T12:36:35Z</time>
      </trkpt>
      <trkpt lat="47.14476" lon="5.30488">
        <ele>189</ele>
        <time>2012-06-19T12:36:37Z</time>
      </trkpt>
      <trkpt lat="47.14479" lon="5.3047">
        <ele>189</ele>
        <time>2012-06-19T12:36:39Z</time>
      </trkpt>
      <trkpt lat="47.14483" lon="5.30452">
        <ele>189</ele>
        <time>2012-06-19T12:36:41Z</time>
      </trkpt>
      <trkpt lat="47.14487" lon="5.30434">
        <ele>189</ele>
        <time>2012-06-19T12:36:43Z</time>
      </trkpt>
      <trkpt lat="47.14492" lon="5.30415">
        <ele>189</ele>
        <time>2012-06-19T12:36:45Z</time>
      </trkpt>
      <trkpt lat="47.14496" lon="5.30395">
        <ele>189</ele>
        <time>2012-06-19T12:36:47Z</time>
      </trkpt>
      <trkpt lat="47.145" lon="5.30373">
        <ele>189</ele>
        <time>2012-06-19T12:36:49Z</time>
      </trkpt>
      <trkpt lat="47.14505" lon="5.3035">
        <ele>189</ele>
        <time>2012-06-19T12:36:51Z</time>
      </trkpt>
      <trkpt lat="47.14507" lon="5.30338">
        <ele>189</ele>
        <time>2012-06-19T12:36:52Z</time>
      </trkpt>
      <trkpt lat="47.14512" lon="5.30315">
        <ele>189</ele>
        <time>2012-06-19T12:36:54Z</time>
      </trkpt>
      <trkpt lat="47.14516" lon="5.30293">
        <ele>189</ele>
        <time>2012-06-19T12:36:56Z</time>
      </trkpt>
      <trkpt lat="47.1452" lon="5.30271">
        <ele>189</ele>
        <time>2012-06-19T12:36:58Z</time>
      </trkpt>
      <trkpt lat="47.14525" lon="5.3025">
        <ele>189</ele>
        <time>2012-06-19T12:37:00Z</time>
      </trkpt>
      <trkpt lat="47.14528" lon="5.30231">
        <ele>189</ele>
        <time>2012-06-19T12:37:02Z</time>
      </trkpt>
      <trkpt lat="47.14533" lon="5.30209">
        <ele>189</ele>
        <time>2012-06-19T12:37:04Z</time>
      </trkpt>
      <trkpt lat="47.14537" lon="5.30187">
        <ele>189</ele>
        <time>2012-06-19T12:37:06Z</time>
      </trkpt>
      <trkpt lat="47.14541" lon="5.30165">
        <ele>189</ele>
        <time>2012-06-19T12:37:08Z</time>
      </trkpt>
      <trkpt lat="47.14546" lon="5.30144">
        <ele>189</ele>
        <time>2012-06-19T12:37:10Z</time>
      </trkpt>
      <trkpt lat="47.1455" lon="5.30121">
        <ele>189</ele>
        <time>2012-06-19T12:37:12Z</time>
      </trkpt>
      <trkpt lat="47.14554" lon="5.30099">
        <ele>189</ele>
        <time>2012-06-19T12:37:14Z</time>
      </trkpt>
      <trkpt lat="47.14558" lon="5.30078">
        <ele>189</ele>
        <time>2012-06-19T12:37:16Z</time>
      </trkpt>
      <trkpt lat="47.14563" lon="5.30056">
        <ele>189</ele>
        <time>2012-06-19T12:37:18Z</time>
      </trkpt>
      <trkpt lat="47.14568" lon="5.30035">
        <ele>189</ele>
        <time>2012-06-19T12:37:20Z</time>
      </trkpt>
      <trkpt lat="47.14572" lon="5.30014">
        <ele>189</ele>
        <time>2012-06-19T12:37:22Z</time>
      </trkpt>
      <trkpt lat="47.14576" lon="5.29993">
        <ele>189</ele>
        <time>2012-06-19T12:37:24Z</time>
      </trkpt>
      <trkpt lat="47.14579" lon="5.29973">
        <ele>189</ele>
        <time>2012-06-19T12:37:26Z</time>
      </trkpt>
      <trkpt lat="47.14584" lon="5.29952">
        <ele>189</ele>
        <time>2012-06-19T12:37:28Z</time>
      </trkpt>
      <trkpt lat="47.14587" lon="5.29932">
        <ele>189</ele>
        <time>2012-06-19T12:37:30Z</time>
      </trkpt>
      <trkpt lat="47.14592" lon="5.2991">
        <ele>189</ele>
        <time>2012-06-19T12:37:32Z</time>
      </trkpt>
      <trkpt lat="47.14596" lon="5.29889">
        <ele>189</ele>
        <time>2012-06-19T12:37:34Z</time>
      </trkpt>
      <trkpt lat="47.146" lon="5.29868">
        <ele>189</ele>
        <time>2012-06-19T12:37:36Z</time>
      </trkpt>
      <trkpt lat="47.14604" lon="5.29846">
        <ele>189</ele>
        <time>2012-06-19T12:37:38Z</time>
      </trkpt>
      <trkpt lat="47.14608" lon="5.29825">
        <ele>189</ele>
        <time>2012-06-19T12:37:40Z</time>
      </trkpt>
      <trkpt lat="47.14612" lon="5.29803">
        <ele>189</ele>
        <time>2012-06-19T12:37:42Z</time>
      </trkpt>
      <trkpt lat="47.14617" lon="5.29781">
        <ele>189</ele>
        <time>2012-06-19T12:37:44Z</time>
      </trkpt>
      <trkpt lat="47.14622" lon="5.2976">
        <ele>189</ele>
        <time>2012-06-19T12:37:46Z</time>
      </trkpt>
      <trkpt lat="47.14625" lon="5.29738">
        <ele>189</ele>
        <time>2012-06-19T12:37:48Z</time>
      </trkpt>
      <trkpt lat="47.1463" lon="5.29718">
        <ele>189</ele>
        <time>2012-06-19T12:37:50Z</time>
      </trkpt>
      <trkpt lat="47.14634" lon="5.29695">
        <ele>189</ele>
        <time>2012-06-19T12:37:52Z</time>
      </trkpt>
      <trkpt lat="47.14638" lon="5.29674">
        <ele>189</ele>
        <time>2012-06-19T12:37:54Z</time>
      </trkpt>
      <trkpt lat="47.14642" lon="5.29651">
        <ele>189</ele>
        <time>2012-06-19T12:37:56Z</time>
      </trkpt>
      <trkpt lat="47.14647" lon="5.29629">
        <ele>189</ele>
        <time>2012-06-19T12:37:58Z</time>
      </trkpt>
      <trkpt lat="47.1465" lon="5.29607">
        <ele>189</ele>
        <time>2012-06-19T12:38:00Z</time>
      </trkpt>
      <trkpt lat="47.14652" lon="5.29587">
        <ele>189</ele>
        <time>2012-06-19T12:38:02Z</time>
      </trkpt>
      <trkpt lat="47.14653" lon="5.29567">
        <ele>189</ele>
        <time>2012-06-19T12:38:04Z</time>
      </trkpt>
      <trkpt lat="47.14653" lon="5.29546">
        <ele>189</ele>
        <time>2012-06-19T12:38:06Z</time>
      </trkpt>
      <trkpt lat="47.14652" lon="5.29525">
        <ele>189</ele>
        <time>2012-06-19T12:38:08Z</time>
      </trkpt>
      <trkpt lat="47.14649" lon="5.29505">
        <ele>189</ele>
        <time>2012-06-19T12:38:10Z</time>
      </trkpt>
      <trkpt lat="47.14645" lon="5.29482">
        <ele>189</ele>
        <time>2012-06-19T12:38:12Z</time>
      </trkpt>
      <trkpt lat="47.14641" lon="5.2946">
        <ele>189</ele>
        <time>2012-06-19T12:38:14Z</time>
      </trkpt>
      <trkpt lat="47.14638" lon="5.29437">
        <ele>189</ele>
        <time>2012-06-19T12:38:16Z</time>
      </trkpt>
      <trkpt lat="47.14634" lon="5.29413">
        <ele>189</ele>
        <time>2012-06-19T12:38:18Z</time>
      </trkpt>
      <trkpt lat="47.1463" lon="5.2939">
        <ele>189</ele>
        <time>2012-06-19T12:38:20Z</time>
      </trkpt>
      <trkpt lat="47.14627" lon="5.29366">
        <ele>184</ele>
        <time>2012-06-19T12:38:22Z</time>
      </trkpt>
      <trkpt lat="47.14623" lon="5.29341">
        <ele>184</ele>
        <time>2012-06-19T12:38:24Z</time>
      </trkpt>
      <trkpt lat="47.1462" lon="5.29319">
        <ele>184</ele>
        <time>2012-06-19T12:38:26Z</time>
      </trkpt>
      <trkpt lat="47.14616" lon="5.29297">
        <ele>184</ele>
        <time>2012-06-19T12:38:28Z</time>
      </trkpt>
      <trkpt lat="47.14613" lon="5.29277">
        <ele>184</ele>
        <time>2012-06-19T12:38:30Z</time>
      </trkpt>
      <trkpt lat="47.14609" lon="5.29257">
        <ele>184</ele>
        <time>2012-06-19T12:38:32Z</time>
      </trkpt>
      <trkpt lat="47.14606" lon="5.29236">
        <ele>184</ele>
        <time>2012-06-19T12:38:34Z</time>
      </trkpt>
      <trkpt lat="47.14603" lon="5.29216">
        <ele>184</ele>
        <time>2012-06-19T12:38:36Z</time>
      </trkpt>
      <trkpt lat="47.146" lon="5.29195">
        <ele>184</ele>
        <time>2012-06-19T12:38:38Z</time>
      </trkpt>
      <trkpt lat="47.14596" lon="5.29174">
        <ele>184</ele>
        <time>2012-06-19T12:38:40Z</time>
      </trkpt>
      <trkpt lat="47.14593" lon="5.29154">
        <ele>184</ele>
        <time>2012-06-19T12:38:42Z</time>
      </trkpt>
      <trkpt lat="47.14592" lon="5.29132">
        <ele>184</ele>
        <time>2012-06-19T12:38:44Z</time>
      </trkpt>
      <trkpt lat="47.14594" lon="5.2911">
        <ele>184</ele>
        <time>2012-06-19T12:38:46Z</time>
      </trkpt>
      <trkpt lat="47.146" lon="5.2909">
        <ele>184</ele>
        <time>2012-06-19T12:38:48Z</time>
      </trkpt>
      <trkpt lat="47.14607" lon="5.2907">
        <ele>184</ele>
        <time>2012-06-19T12:38:50Z</time>
      </trkpt>
      <trkpt lat="47.14615" lon="5.29051">
        <ele>184</ele>
        <time>2012-06-19T12:38:52Z</time>
      </trkpt>
      <trkpt lat="47.14622" lon="5.29033">
        <ele>184</ele>
        <time>2012-06-19T12:38:54Z</time>
      </trkpt>
      <trkpt lat="47.14629" lon="5.29014">
        <ele>184</ele>
        <time>2012-06-19T12:38:56Z</time>
      </trkpt>
      <trkpt lat="47.14636" lon="5.28996">
        <ele>184</ele>
        <time>2012-06-19T12:38:58Z</time>
      </trkpt>
      <trkpt lat="47.14644" lon="5.28978">
        <ele>184</ele>
        <time>2012-06-19T12:39:00Z</time>
      </trkpt>
      <trkpt lat="47.14652" lon="5.2896">
        <ele>184</ele>
        <time>2012-06-19T12:39:02Z</time>
      </trkpt>
      <trkpt lat="47.14659" lon="5.28942">
        <ele>184</ele>
        <time>2012-06-19T12:39:04Z</time>
      </trkpt>
      <trkpt lat="47.14666" lon="5.28924">
        <ele>184</ele>
        <time>2012-06-19T12:39:06Z</time>
      </trkpt>
      <trkpt lat="47.14674" lon="5.28906">
        <ele>184</ele>
        <time>2012-06-19T12:39:08Z</time>
      </trkpt>
      <trkpt lat="47.1468" lon="5.28888">
        <ele>184</ele>
        <time>2012-06-19T12:39:10Z</time>
      </trkpt>
      <trkpt lat="47.14688" lon="5.28869">
        <ele>184</ele>
        <time>2012-06-19T12:39:12Z</time>
      </trkpt>
      <trkpt lat="47.14695" lon="5.28851">
        <ele>184</ele>
        <time>2012-06-19T12:39:14Z</time>
      </trkpt>
      <trkpt lat="47.14702" lon="5.28833">
        <ele>184</ele>
        <time>2012-06-19T12:39:16Z</time>
      </trkpt>
      <trkpt lat="47.14709" lon="5.28815">
        <ele>184</ele>
        <time>2012-06-19T12:39:18Z</time>
      </trkpt>
      <trkpt lat="47.14716" lon="5.28797">
        <ele>184</ele>
        <time>2012-06-19T12:39:20Z</time>
      </trkpt>
      <trkpt lat="47.14723" lon="5.28779">
        <ele>184</ele>
        <time>2012-06-19T12:39:22Z</time>
      </trkpt>
      <trkpt lat="47.1473" lon="5.28761">
        <ele>184</ele>
        <time>2012-06-19T12:39:24Z</time>
      </trkpt>
      <trkpt lat="47.14737" lon="5.28743">
        <ele>184</ele>
        <time>2012-06-19T12:39:26Z</time>
      </trkpt>
      <trkpt lat="47.14744" lon="5.28724">
        <ele>184</ele>
        <time>2012-06-19T12:39:28Z</time>
      </trkpt>
      <trkpt lat="47.14751" lon="5.28706">
        <ele>184</ele>
        <time>2012-06-19T12:39:30Z</time>
      </trkpt>
      <trkpt lat="47.14758" lon="5.28687">
        <ele>184</ele>
        <time>2012-06-19T12:39:32Z</time>
      </trkpt>
      <trkpt lat="47.14764" lon="5.2867">
        <ele>184</ele>
        <time>2012-06-19T12:39:34Z</time>
      </trkpt>
      <trkpt lat="47.14771" lon="5.28654">
        <ele>184</ele>
        <time>2012-06-19T12:39:36Z</time>
      </trkpt>
      <trkpt lat="47.14776" lon="5.2864">
        <ele>184</ele>
        <time>2012-06-19T12:39:38Z</time>
      </trkpt>
      <trkpt lat="47.14782" lon="5.28624">
        <ele>184</ele>
        <time>2012-06-19T12:39:40Z</time>
      </trkpt>
      <trkpt lat="47.14788" lon="5.28606">
        <ele>184</ele>
        <time>2012-06-19T12:39:42Z</time>
      </trkpt>
      <trkpt lat="47.14795" lon="5.28589">
        <ele>184</ele>
        <time>2012-06-19T12:39:44Z</time>
      </trkpt>
      <trkpt lat="47.14802" lon="5.28571">
        <ele>184</ele>
        <time>2012-06-19T12:39:46Z</time>
      </trkpt>
      <trkpt lat="47.14809" lon="5.28555">
        <ele>184</ele>
        <time>2012-06-19T12:39:48Z</time>
      </trkpt>
      <trkpt lat="47.14815" lon="5.2854">
        <ele>184</ele>
        <time>2012-06-19T12:39:50Z</time>
      </trkpt>
      <trkpt lat="47.14821" lon="5.28526">
        <ele>184</ele>
        <time>2012-06-19T12:39:52Z</time>
      </trkpt>
      <trkpt lat="47.14826" lon="5.28514">
        <ele>184</ele>
        <time>2012-06-19T12:39:54Z</time>
      </trkpt>
      <trkpt lat="47.1483" lon="5.28502">
        <ele>184</ele>
        <time>2012-06-19T12:39:56Z</time>
      </trkpt>
      <trkpt lat="47.14834" lon="5.2849">
        <ele>184</ele>
        <time>2012-06-19T12:39:58Z</time>
      </trkpt>
      <trkpt lat="47.1484" lon="5.28474">
        <ele>184</ele>
        <time>2012-06-19T12:40:01Z</time>
      </trkpt>
      <trkpt lat="47.14845" lon="5.28462">
        <ele>184</ele>
        <time>2012-06-19T12:40:04Z</time>
      </trkpt>
      <trkpt lat="47.14847" lon="5.28449">
        <ele>184</ele>
        <time>2012-06-19T12:40:10Z</time>
      </trkpt>
      <trkpt lat="47.14841" lon="5.28438">
        <ele>184</ele>
        <time>2012-06-19T12:40:26Z</time>
      </trkpt>
      <trkpt lat="47.14832" lon="5.2843">
        <ele>184</ele>
        <time>2012-06-19T12:40:29Z</time>
      </trkpt>
      <trkpt lat="47.14823" lon="5.28425">
        <ele>184</ele>
        <time>2012-06-19T12:40:31Z</time>
      </trkpt>
      <trkpt lat="47.14815" lon="5.2842">
        <ele>184</ele>
        <time>2012-06-19T12:40:33Z</time>
      </trkpt>
      <trkpt lat="47.14805" lon="5.28412">
        <ele>184</ele>
        <time>2012-06-19T12:40:35Z</time>
      </trkpt>
      <trkpt lat="47.14796" lon="5.28405">
        <ele>184</ele>
        <time>2012-06-19T12:40:37Z</time>
      </trkpt>
      <trkpt lat="47.14786" lon="5.28396">
        <ele>184</ele>
        <time>2012-06-19T12:40:39Z</time>
      </trkpt>
      <trkpt lat="47.14777" lon="5.28386">
        <ele>184</ele>
        <time>2012-06-19T12:40:41Z</time>
      </trkpt>
      <trkpt lat="47.14769" lon="5.28374">
        <ele>184</ele>
        <time>2012-06-19T12:40:43Z</time>
      </trkpt>
      <trkpt lat="47.14763" lon="5.28357">
        <ele>184</ele>
        <time>2012-06-19T12:40:45Z</time>
      </trkpt>
      <trkpt lat="47.1476" lon="5.28338">
        <ele>184</ele>
        <time>2012-06-19T12:40:47Z</time>
      </trkpt>
      <trkpt lat="47.14759" lon="5.28319">
        <ele>184</ele>
        <time>2012-06-19T12:40:49Z</time>
      </trkpt>
      <trkpt lat="47.1476" lon="5.283">
        <ele>184</ele>
        <time>2012-06-19T12:40:51Z</time>
      </trkpt>
      <trkpt lat="47.14763" lon="5.2828">
        <ele>184</ele>
        <time>2012-06-19T12:40:53Z</time>
      </trkpt>
      <trkpt lat="47.14766" lon="5.28262">
        <ele>184</ele>
        <time>2012-06-19T12:40:55Z</time>
      </trkpt>
      <trkpt lat="47.14768" lon="5.28243">
        <ele>184</ele>
        <time>2012-06-19T12:40:57Z</time>
      </trkpt>
      <trkpt lat="47.14771" lon="5.28226">
        <ele>184</ele>
        <time>2012-06-19T12:40:59Z</time>
      </trkpt>
      <trkpt lat="47.14773" lon="5.28208">
        <ele>184</ele>
        <time>2012-06-19T12:41:01Z</time>
      </trkpt>
      <trkpt lat="47.14775" lon="5.28191">
        <ele>184</ele>
        <time>2012-06-19T12:41:03Z</time>
      </trkpt>
      <trkpt lat="47.14777" lon="5.28173">
        <ele>184</ele>
        <time>2012-06-19T12:41:05Z</time>
      </trkpt>
      <trkpt lat="47.1478" lon="5.28155">
        <ele>184</ele>
        <time>2012-06-19T12:41:07Z</time>
      </trkpt>
      <trkpt lat="47.14782" lon="5.28137">
        <ele>184</ele>
        <time>2012-06-19T12:41:09Z</time>
      </trkpt>
      <trkpt lat="47.14785" lon="5.28118">
        <ele>184</ele>
        <time>2012-06-19T12:41:11Z</time>
      </trkpt>
      <trkpt lat="47.14787" lon="5.28098">
        <ele>184</ele>
        <time>2012-06-19T12:41:13Z</time>
      </trkpt>
      <trkpt lat="47.1479" lon="5.28078">
        <ele>184</ele>
        <time>2012-06-19T12:41:15Z</time>
      </trkpt>
      <trkpt lat="47.14793" lon="5.28059">
        <ele>184</ele>
        <time>2012-06-19T12:41:17Z</time>
      </trkpt>
      <trkpt lat="47.14794" lon="5.28041">
        <ele>184</ele>
        <time>2012-06-19T12:41:19Z</time>
      </trkpt>
      <trkpt lat="47.14798" lon="5.28022">
        <ele>184</ele>
        <time>2012-06-19T12:41:21Z</time>
      </trkpt>
      <trkpt lat="47.14799" lon="5.28003">
        <ele>184</ele>
        <time>2012-06-19T12:41:23Z</time>
      </trkpt>
      <trkpt lat="47.14802" lon="5.27984">
        <ele>184</ele>
        <time>2012-06-19T12:41:25Z</time>
      </trkpt>
      <trkpt lat="47.14804" lon="5.27966">
        <ele>184</ele>
        <time>2012-06-19T12:41:27Z</time>
      </trkpt>
      <trkpt lat="47.14807" lon="5.27947">
        <ele>184</ele>
        <time>2012-06-19T12:41:29Z</time>
      </trkpt>
      <trkpt lat="47.14809" lon="5.27928">
        <ele>184</ele>
        <time>2012-06-19T12:41:31Z</time>
      </trkpt>
      <trkpt lat="47.14812" lon="5.2791">
        <ele>184</ele>
        <time>2012-06-19T12:41:33Z</time>
      </trkpt>
      <trkpt lat="47.14813" lon="5.27891">
        <ele>184</ele>
        <time>2012-06-19T12:41:35Z</time>
      </trkpt>
      <trkpt lat="47.14816" lon="5.27873">
        <ele>184</ele>
        <time>2012-06-19T12:41:37Z</time>
      </trkpt>
      <trkpt lat="47.14818" lon="5.27855">
        <ele>184</ele>
        <time>2012-06-19T12:41:39Z</time>
      </trkpt>
      <trkpt lat="47.14821" lon="5.27835">
        <ele>184</ele>
        <time>2012-06-19T12:41:41Z</time>
      </trkpt>
      <trkpt lat="47.14823" lon="5.27816">
        <ele>184</ele>
        <time>2012-06-19T12:41:43Z</time>
      </trkpt>
      <trkpt lat="47.14825" lon="5.27797">
        <ele>184</ele>
        <time>2012-06-19T12:41:45Z</time>
      </trkpt>
      <trkpt lat="47.14826" lon="5.27779">
        <ele>184</ele>
        <time>2012-06-19T12:41:47Z</time>
      </trkpt>
      <trkpt lat="47.14826" lon="5.27763">
        <ele>184</ele>
        <time>2012-06-19T12:41:49Z</time>
      </trkpt>
      <trkpt lat="47.14825" lon="5.27748">
        <ele>184</ele>
        <time>2012-06-19T12:41:51Z</time>
      </trkpt>
      <trkpt lat="47.14824" lon="5.27734">
        <ele>184</ele>
        <time>2012-06-19T12:41:53Z</time>
      </trkpt>
      <trkpt lat="47.14824" lon="5.27721">
        <ele>184</ele>
        <time>2012-06-19T12:41:55Z</time>
      </trkpt>
      <trkpt lat="47.14823" lon="5.27704">
        <ele>184</ele>
        <time>2012-06-19T12:41:58Z</time>
      </trkpt>
      <trkpt lat="47.14822" lon="5.27686">
        <ele>184</ele>
        <time>2012-06-19T12:42:01Z</time>
      </trkpt>
      <trkpt lat="47.14821" lon="5.27671">
        <ele>184</ele>
        <time>2012-06-19T12:42:04Z</time>
      </trkpt>
      <trkpt lat="47.14821" lon="5.27658">
        <ele>184</ele>
        <time>2012-06-19T12:42:09Z</time>
      </trkpt>
      <trkpt lat="47.14821" lon="5.27643">
        <ele>184</ele>
        <time>2012-06-19T12:42:15Z</time>
      </trkpt>
      <trkpt lat="47.14819" lon="5.27626">
        <ele>184</ele>
        <time>2012-06-19T12:42:40Z</time>
      </trkpt>
      <trkpt lat="47.14818" lon="5.2761">
        <ele>184</ele>
        <time>2012-06-19T12:42:43Z</time>
      </trkpt>
      <trkpt lat="47.1482" lon="5.27591">
        <ele>184</ele>
        <time>2012-06-19T12:42:46Z</time>
      </trkpt>
      <trkpt lat="47.14826" lon="5.27574">
        <ele>184</ele>
        <time>2012-06-19T12:42:49Z</time>
      </trkpt>
      <trkpt lat="47.14834" lon="5.2756">
        <ele>184</ele>
        <time>2012-06-19T12:42:52Z</time>
      </trkpt>
      <trkpt lat="47.14841" lon="5.27545">
        <ele>184</ele>
        <time>2012-06-19T12:42:55Z</time>
      </trkpt>
      <trkpt lat="47.14847" lon="5.27528">
        <ele>184</ele>
        <time>2012-06-19T12:42:58Z</time>
      </trkpt>
      <trkpt lat="47.14852" lon="5.27511">
        <ele>184</ele>
        <time>2012-06-19T12:43:01Z</time>
      </trkpt>
      <trkpt lat="47.14858" lon="5.27494">
        <ele>184</ele>
        <time>2012-06-19T12:43:04Z</time>
      </trkpt>
      <trkpt lat="47.14864" lon="5.27482">
        <ele>184</ele>
        <time>2012-06-19T12:43:06Z</time>
      </trkpt>
      <trkpt lat="47.14871" lon="5.2747">
        <ele>184</ele>
        <time>2012-06-19T12:43:08Z</time>
      </trkpt>
      <trkpt lat="47.1488" lon="5.27462">
        <ele>184</ele>
        <time>2012-06-19T12:43:10Z</time>
      </trkpt>
      <trkpt lat="47.14891" lon="5.27457">
        <ele>184</ele>
        <time>2012-06-19T12:43:12Z</time>
      </trkpt>
      <trkpt lat="47.149" lon="5.27455">
        <ele>184</ele>
        <time>2012-06-19T12:43:14Z</time>
      </trkpt>
      <trkpt lat="47.1491" lon="5.27452">
        <ele>184</ele>
        <time>2012-06-19T12:43:16Z</time>
      </trkpt>
      <trkpt lat="47.14921" lon="5.2744">
        <ele>184</ele>
        <time>2012-06-19T12:43:19Z</time>
      </trkpt>
      <trkpt lat="47.14926" lon="5.27426">
        <ele>184</ele>
        <time>2012-06-19T12:43:21Z</time>
      </trkpt>
      <trkpt lat="47.1493" lon="5.27411">
        <ele>184</ele>
        <time>2012-06-19T12:43:23Z</time>
      </trkpt>
      <trkpt lat="47.14932" lon="5.27396">
        <ele>184</ele>
        <time>2012-06-19T12:43:25Z</time>
      </trkpt>
      <trkpt lat="47.14935" lon="5.27383">
        <ele>184</ele>
        <time>2012-06-19T12:43:27Z</time>
      </trkpt>
      <trkpt lat="47.14938" lon="5.27365">
        <ele>184</ele>
        <time>2012-06-19T12:43:30Z</time>
      </trkpt>
      <trkpt lat="47.14941" lon="5.27352">
        <ele>184</ele>
        <time>2012-06-19T12:43:32Z</time>
      </trkpt>
      <trkpt lat="47.14944" lon="5.27333">
        <ele>184</ele>
        <time>2012-06-19T12:43:35Z</time>
      </trkpt>
      <trkpt lat="47.14946" lon="5.2732">
        <ele>184</ele>
        <time>2012-06-19T12:43:37Z</time>
      </trkpt>
      <trkpt lat="47.14949" lon="5.27302">
        <ele>184</ele>
        <time>2012-06-19T12:43:40Z</time>
      </trkpt>
      <trkpt lat="47.14951" lon="5.27284">
        <ele>184</ele>
        <time>2012-06-19T12:43:43Z</time>
      </trkpt>
      <trkpt lat="47.14954" lon="5.27266">
        <ele>184</ele>
        <time>2012-06-19T12:43:46Z</time>
      </trkpt>
      <trkpt lat="47.14956" lon="5.27247">
        <ele>184</ele>
        <time>2012-06-19T12:43:49Z</time>
      </trkpt>
      <trkpt lat="47.14958" lon="5.27229">
        <ele>184</ele>
        <time>2012-06-19T12:43:52Z</time>
      </trkpt>
      <trkpt lat="47.14961" lon="5.27213">
        <ele>184</ele>
        <time>2012-06-19T12:43:55Z</time>
      </trkpt>
      <trkpt lat="47.14959" lon="5.27199">
        <ele>184</ele>
        <time>2012-06-19T12:43:58Z</time>
      </trkpt>
      <trkpt lat="47.14951" lon="5.27189">
        <ele>184</ele>
        <time>2012-06-19T12:44:01Z</time>
      </trkpt>
      <trkpt lat="47.14941" lon="5.27184">
        <ele>184</ele>
        <time>2012-06-19T12:44:04Z</time>
      </trkpt>
      <trkpt lat="47.1493" lon="5.27179">
        <ele>184</ele>
        <time>2012-06-19T12:44:07Z</time>
      </trkpt>
      <trkpt lat="47.14921" lon="5.27174">
        <ele>184</ele>
        <time>2012-06-19T12:44:10Z</time>
      </trkpt>
      <trkpt lat="47.14911" lon="5.27168">
        <ele>184</ele>
        <time>2012-06-19T12:44:13Z</time>
      </trkpt>
      <trkpt lat="47.149" lon="5.27161">
        <ele>184</ele>
        <time>2012-06-19T12:44:16Z</time>
      </trkpt>
      <trkpt lat="47.14889" lon="5.27155">
        <ele>184</ele>
        <time>2012-06-19T12:44:19Z</time>
      </trkpt>
      <trkpt lat="47.1488" lon="5.2715">
        <ele>184</ele>
        <time>2012-06-19T12:44:22Z</time>
      </trkpt>
      <trkpt lat="47.14869" lon="5.27144">
        <ele>184</ele>
        <time>2012-06-19T12:44:25Z</time>
      </trkpt>
      <trkpt lat="47.14859" lon="5.27138">
        <ele>184</ele>
        <time>2012-06-19T12:44:29Z</time>
      </trkpt>
      <trkpt lat="47.1486" lon="5.27151">
        <ele>184</ele>
        <time>2012-06-19T12:45:13Z</time>
      </trkpt>
      <trkpt lat="47.14867" lon="5.27141">
        <ele>191</ele>
        <time>2012-06-19T12:47:22Z</time>
      </trkpt>
      <trkpt lat="47.14857" lon="5.27138">
        <ele>191</ele>
        <time>2012-06-19T12:47:27Z</time>
      </trkpt>
      <trkpt lat="47.14848" lon="5.27134">
        <ele>191</ele>
        <time>2012-06-19T12:47:31Z</time>
      </trkpt>
      <trkpt lat="47.14839" lon="5.2713">
        <ele>191</ele>
        <time>2012-06-19T12:47:34Z</time>
      </trkpt>
      <trkpt lat="47.14828" lon="5.27124">
        <ele>191</ele>
        <time>2012-06-19T12:47:37Z</time>
      </trkpt>
      <trkpt lat="47.14818" lon="5.2712">
        <ele>191</ele>
        <time>2012-06-19T12:47:40Z</time>
      </trkpt>
      <trkpt lat="47.1481" lon="5.27116">
        <ele>191</ele>
        <time>2012-06-19T12:47:43Z</time>
      </trkpt>
      <trkpt lat="47.14799" lon="5.27111">
        <ele>191</ele>
        <time>2012-06-19T12:47:46Z</time>
      </trkpt>
      <trkpt lat="47.14791" lon="5.27105">
        <ele>191</ele>
        <time>2012-06-19T12:47:48Z</time>
      </trkpt>
      <trkpt lat="47.14782" lon="5.271">
        <ele>191</ele>
        <time>2012-06-19T12:47:50Z</time>
      </trkpt>
      <trkpt lat="47.14773" lon="5.27096">
        <ele>191</ele>
        <time>2012-06-19T12:47:52Z</time>
      </trkpt>
      <trkpt lat="47.14764" lon="5.27092">
        <ele>191</ele>
        <time>2012-06-19T12:47:54Z</time>
      </trkpt>
      <trkpt lat="47.14755" lon="5.27088">
        <ele>191</ele>
        <time>2012-06-19T12:47:56Z</time>
      </trkpt>
      <trkpt lat="47.14745" lon="5.27086">
        <ele>191</ele>
        <time>2012-06-19T12:47:58Z</time>
      </trkpt>
      <trkpt lat="47.14736" lon="5.27083">
        <ele>185</ele>
        <time>2012-06-19T12:48:00Z</time>
      </trkpt>
      <trkpt lat="47.14725" lon="5.27078">
        <ele>185</ele>
        <time>2012-06-19T12:48:02Z</time>
      </trkpt>
      <trkpt lat="47.14714" lon="5.27075">
        <ele>185</ele>
        <time>2012-06-19T12:48:04Z</time>
      </trkpt>
      <trkpt lat="47.14702" lon="5.27071">
        <ele>185</ele>
        <time>2012-06-19T12:48:06Z</time>
      </trkpt>
      <trkpt lat="47.1469" lon="5.27068">
        <ele>185</ele>
        <time>2012-06-19T12:48:08Z</time>
      </trkpt>
      <trkpt lat="47.14677" lon="5.27063">
        <ele>185</ele>
        <time>2012-06-19T12:48:10Z</time>
      </trkpt>
      <trkpt lat="47.14663" lon="5.27059">
        <ele>185</ele>
        <time>2012-06-19T12:48:12Z</time>
      </trkpt>
      <trkpt lat="47.1465" lon="5.27054">
        <ele>185</ele>
        <time>2012-06-19T12:48:14Z</time>
      </trkpt>
      <trkpt lat="47.14637" lon="5.27051">
        <ele>185</ele>
        <time>2012-06-19T12:48:16Z</time>
      </trkpt>
      <trkpt lat="47.14623" lon="5.27046">
        <ele>185</ele>
        <time>2012-06-19T12:48:18Z</time>
      </trkpt>
      <trkpt lat="47.1461" lon="5.27043">
        <ele>185</ele>
        <time>2012-06-19T12:48:20Z</time>
      </trkpt>
      <trkpt lat="47.14595" lon="5.27037">
        <ele>185</ele>
        <time>2012-06-19T12:48:22Z</time>
      </trkpt>
      <trkpt lat="47.14581" lon="5.27033">
        <ele>185</ele>
        <time>2012-06-19T12:48:24Z</time>
      </trkpt>
      <trkpt lat="47.14567" lon="5.27029">
        <ele>185</ele>
        <time>2012-06-19T12:48:26Z</time>
      </trkpt>
      <trkpt lat="47.14552" lon="5.27025">
        <ele>185</ele>
        <time>2012-06-19T12:48:28Z</time>
      </trkpt>
      <trkpt lat="47.14538" lon="5.2702">
        <ele>185</ele>
        <time>2012-06-19T12:48:30Z</time>
      </trkpt>
      <trkpt lat="47.14523" lon="5.27016">
        <ele>185</ele>
        <time>2012-06-19T12:48:32Z</time>
      </trkpt>
      <trkpt lat="47.14508" lon="5.27012">
        <ele>185</ele>
        <time>2012-06-19T12:48:34Z</time>
      </trkpt>
      <trkpt lat="47.14492" lon="5.27007">
        <ele>185</ele>
        <time>2012-06-19T12:48:36Z</time>
      </trkpt>
      <trkpt lat="47.14477" lon="5.27001">
        <ele>185</ele>
        <time>2012-06-19T12:48:38Z</time>
      </trkpt>
      <trkpt lat="47.14462" lon="5.26997">
        <ele>185</ele>
        <time>2012-06-19T12:48:40Z</time>
      </trkpt>
      <trkpt lat="47.14446" lon="5.26992">
        <ele>185</ele>
        <time>2012-06-19T12:48:42Z</time>
      </trkpt>
      <trkpt lat="47.14431" lon="5.26988">
        <ele>185</ele>
        <time>2012-06-19T12:48:44Z</time>
      </trkpt>
      <trkpt lat="47.14416" lon="5.26983">
        <ele>185</ele>
        <time>2012-06-19T12:48:46Z</time>
      </trkpt>
      <trkpt lat="47.144" lon="5.26979">
        <ele>185</ele>
        <time>2012-06-19T12:48:48Z</time>
      </trkpt>
      <trkpt lat="47.14385" lon="5.26972">
        <ele>185</ele>
        <time>2012-06-19T12:48:50Z</time>
      </trkpt>
      <trkpt lat="47.14369" lon="5.26968">
        <ele>185</ele>
        <time>2012-06-19T12:48:52Z</time>
      </trkpt>
      <trkpt lat="47.14354" lon="5.26962">
        <ele>185</ele>
        <time>2012-06-19T12:48:54Z</time>
      </trkpt>
      <trkpt lat="47.14338" lon="5.26956">
        <ele>185</ele>
        <time>2012-06-19T12:48:56Z</time>
      </trkpt>
      <trkpt lat="47.14324" lon="5.26952">
        <ele>185</ele>
        <time>2012-06-19T12:48:58Z</time>
      </trkpt>
      <trkpt lat="47.14308" lon="5.26946">
        <ele>185</ele>
        <time>2012-06-19T12:49:00Z</time>
      </trkpt>
      <trkpt lat="47.14294" lon="5.2694">
        <ele>185</ele>
        <time>2012-06-19T12:49:02Z</time>
      </trkpt>
      <trkpt lat="47.14278" lon="5.26934">
        <ele>185</ele>
        <time>2012-06-19T12:49:04Z</time>
      </trkpt>
      <trkpt lat="47.14264" lon="5.26928">
        <ele>185</ele>
        <time>2012-06-19T12:49:06Z</time>
      </trkpt>
      <trkpt lat="47.14249" lon="5.26923">
        <ele>185</ele>
        <time>2012-06-19T12:49:08Z</time>
      </trkpt>
      <trkpt lat="47.14234" lon="5.26918">
        <ele>185</ele>
        <time>2012-06-19T12:49:10Z</time>
      </trkpt>
      <trkpt lat="47.1422" lon="5.26912">
        <ele>185</ele>
        <time>2012-06-19T12:49:12Z</time>
      </trkpt>
      <trkpt lat="47.14205" lon="5.26908">
        <ele>185</ele>
        <time>2012-06-19T12:49:14Z</time>
      </trkpt>
      <trkpt lat="47.1419" lon="5.26902">
        <ele>185</ele>
        <time>2012-06-19T12:49:16Z</time>
      </trkpt>
      <trkpt lat="47.14175" lon="5.26897">
        <ele>185</ele>
        <time>2012-06-19T12:49:18Z</time>
      </trkpt>
      <trkpt lat="47.14161" lon="5.26893">
        <ele>185</ele>
        <time>2012-06-19T12:49:20Z</time>
      </trkpt>
      <trkpt lat="47.14147" lon="5.26887">
        <ele>185</ele>
        <time>2012-06-19T12:49:22Z</time>
      </trkpt>
      <trkpt lat="47.14133" lon="5.26883">
        <ele>185</ele>
        <time>2012-06-19T12:49:24Z</time>
      </trkpt>
      <trkpt lat="47.14118" lon="5.26877">
        <ele>185</ele>
        <time>2012-06-19T12:49:26Z</time>
      </trkpt>
      <trkpt lat="47.14104" lon="5.26872">
        <ele>185</ele>
        <time>2012-06-19T12:49:28Z</time>
      </trkpt>
      <trkpt lat="47.1409" lon="5.26866">
        <ele>185</ele>
        <time>2012-06-19T12:49:30Z</time>
      </trkpt>
      <trkpt lat="47.14076" lon="5.2686">
        <ele>185</ele>
        <time>2012-06-19T12:49:32Z</time>
      </trkpt>
      <trkpt lat="47.14061" lon="5.26853">
        <ele>185</ele>
        <time>2012-06-19T12:49:34Z</time>
      </trkpt>
      <trkpt lat="47.14047" lon="5.26847">
        <ele>185</ele>
        <time>2012-06-19T12:49:36Z</time>
      </trkpt>
      <trkpt lat="47.14032" lon="5.26841">
        <ele>185</ele>
        <time>2012-06-19T12:49:38Z</time>
      </trkpt>
      <trkpt lat="47.14018" lon="5.26835">
        <ele>185</ele>
        <time>2012-06-19T12:49:40Z</time>
      </trkpt>
      <trkpt lat="47.14004" lon="5.26829">
        <ele>185</ele>
        <time>2012-06-19T12:49:42Z</time>
      </trkpt>
      <trkpt lat="47.1399" lon="5.26822">
        <ele>185</ele>
        <time>2012-06-19T12:49:44Z</time>
      </trkpt>
      <trkpt lat="47.13976" lon="5.26816">
        <ele>185</ele>
        <time>2012-06-19T12:49:46Z</time>
      </trkpt>
      <trkpt lat="47.13962" lon="5.2681">
        <ele>185</ele>
        <time>2012-06-19T12:49:48Z</time>
      </trkpt>
      <trkpt lat="47.13947" lon="5.26804">
        <ele>185</ele>
        <time>2012-06-19T12:49:50Z</time>
      </trkpt>
      <trkpt lat="47.13933" lon="5.26797">
        <ele>185</ele>
        <time>2012-06-19T12:49:52Z</time>
      </trkpt>
      <trkpt lat="47.13919" lon="5.26791">
        <ele>185</ele>
        <time>2012-06-19T12:49:54Z</time>
      </trkpt>
      <trkpt lat="47.13905" lon="5.26785">
        <ele>185</ele>
        <time>2012-06-19T12:49:56Z</time>
      </trkpt>
      <trkpt lat="47.1389" lon="5.26779">
        <ele>185</ele>
        <time>2012-06-19T12:49:58Z</time>
      </trkpt>
      <trkpt lat="47.13875" lon="5.26773">
        <ele>185</ele>
        <time>2012-06-19T12:50:00Z</time>
      </trkpt>
      <trkpt lat="47.13861" lon="5.26767">
        <ele>185</ele>
        <time>2012-06-19T12:50:02Z</time>
      </trkpt>
      <trkpt lat="47.13847" lon="5.2676">
        <ele>185</ele>
        <time>2012-06-19T12:50:04Z</time>
      </trkpt>
      <trkpt lat="47.13835" lon="5.26751">
        <ele>185</ele>
        <time>2012-06-19T12:50:06Z</time>
      </trkpt>
      <trkpt lat="47.13823" lon="5.26742">
        <ele>185</ele>
        <time>2012-06-19T12:50:08Z</time>
      </trkpt>
      <trkpt lat="47.13814" lon="5.26729">
        <ele>185</ele>
        <time>2012-06-19T12:50:10Z</time>
      </trkpt>
      <trkpt lat="47.13811" lon="5.26711">
        <ele>185</ele>
        <time>2012-06-19T12:50:12Z</time>
      </trkpt>
      <trkpt lat="47.13816" lon="5.26692">
        <ele>185</ele>
        <time>2012-06-19T12:50:14Z</time>
      </trkpt>
      <trkpt lat="47.13825" lon="5.26675">
        <ele>185</ele>
        <time>2012-06-19T12:50:16Z</time>
      </trkpt>
      <trkpt lat="47.13835" lon="5.26659">
        <ele>185</ele>
        <time>2012-06-19T12:50:18Z</time>
      </trkpt>
      <trkpt lat="47.13844" lon="5.26643">
        <ele>185</ele>
        <time>2012-06-19T12:50:20Z</time>
      </trkpt>
      <trkpt lat="47.13853" lon="5.26627">
        <ele>185</ele>
        <time>2012-06-19T12:50:22Z</time>
      </trkpt>
      <trkpt lat="47.13862" lon="5.2661">
        <ele>185</ele>
        <time>2012-06-19T12:50:24Z</time>
      </trkpt>
      <trkpt lat="47.13871" lon="5.26595">
        <ele>185</ele>
        <time>2012-06-19T12:50:26Z</time>
      </trkpt>
      <trkpt lat="47.1388" lon="5.26579">
        <ele>185</ele>
        <time>2012-06-19T12:50:28Z</time>
      </trkpt>
      <trkpt lat="47.13888" lon="5.26563">
        <ele>185</ele>
        <time>2012-06-19T12:50:30Z</time>
      </trkpt>
      <trkpt lat="47.13896" lon="5.26547">
        <ele>185</ele>
        <time>2012-06-19T12:50:32Z</time>
      </trkpt>
      <trkpt lat="47.13903" lon="5.2653">
        <ele>185</ele>
        <time>2012-06-19T12:50:34Z</time>
      </trkpt>
      <trkpt lat="47.13909" lon="5.26511">
        <ele>185</ele>
        <time>2012-06-19T12:50:36Z</time>
      </trkpt>
      <trkpt lat="47.13914" lon="5.26491">
        <ele>185</ele>
        <time>2012-06-19T12:50:38Z</time>
      </trkpt>
      <trkpt lat="47.13919" lon="5.26472">
        <ele>185</ele>
        <time>2012-06-19T12:50:40Z</time>
      </trkpt>
      <trkpt lat="47.13924" lon="5.26452">
        <ele>185</ele>
        <time>2012-06-19T12:50:42Z</time>
      </trkpt>
      <trkpt lat="47.13928" lon="5.26433">
        <ele>185</ele>
        <time>2012-06-19T12:50:44Z</time>
      </trkpt>
      <trkpt lat="47.13933" lon="5.26415">
        <ele>185</ele>
        <time>2012-06-19T12:50:46Z</time>
      </trkpt>
      <trkpt lat="47.13937" lon="5.26396">
        <ele>185</ele>
        <time>2012-06-19T12:50:48Z</time>
      </trkpt>
      <trkpt lat="47.13942" lon="5.26376">
        <ele>185</ele>
        <time>2012-06-19T12:50:50Z</time>
      </trkpt>
      <trkpt lat="47.13946" lon="5.26357">
        <ele>185</ele>
        <time>2012-06-19T12:50:52Z</time>
      </trkpt>
      <trkpt lat="47.13951" lon="5.26338">
        <ele>185</ele>
        <time>2012-06-19T12:50:54Z</time>
      </trkpt>
      <trkpt lat="47.13956" lon="5.26318">
        <ele>185</ele>
        <time>2012-06-19T12:50:56Z</time>
      </trkpt>
      <trkpt lat="47.1396" lon="5.263">
        <ele>185</ele>
        <time>2012-06-19T12:50:58Z</time>
      </trkpt>
      <trkpt lat="47.13965" lon="5.26281">
        <ele>185</ele>
        <time>2012-06-19T12:51:00Z</time>
      </trkpt>
      <trkpt lat="47.1397" lon="5.26261">
        <ele>185</ele>
        <time>2012-06-19T12:51:02Z</time>
      </trkpt>
      <trkpt lat="47.13974" lon="5.26242">
        <ele>185</ele>
        <time>2012-06-19T12:51:04Z</time>
      </trkpt>
      <trkpt lat="47.13979" lon="5.26223">
        <ele>185</ele>
        <time>2012-06-19T12:51:06Z</time>
      </trkpt>
      <trkpt lat="47.13982" lon="5.26203">
        <ele>185</ele>
        <time>2012-06-19T12:51:08Z</time>
      </trkpt>
      <trkpt lat="47.13985" lon="5.26184">
        <ele>185</ele>
        <time>2012-06-19T12:51:10Z</time>
      </trkpt>
      <trkpt lat="47.13985" lon="5.26163">
        <ele>185</ele>
        <time>2012-06-19T12:51:12Z</time>
      </trkpt>
      <trkpt lat="47.13985" lon="5.26142">
        <ele>185</ele>
        <time>2012-06-19T12:51:14Z</time>
      </trkpt>
      <trkpt lat="47.13984" lon="5.26119">
        <ele>185</ele>
        <time>2012-06-19T12:51:16Z</time>
      </trkpt>
      <trkpt lat="47.13982" lon="5.26097">
        <ele>185</ele>
        <time>2012-06-19T12:51:18Z</time>
      </trkpt>
      <trkpt lat="47.13982" lon="5.26074">
        <ele>185</ele>
        <time>2012-06-19T12:51:20Z</time>
      </trkpt>
      <trkpt lat="47.13981" lon="5.26052">
        <ele>185</ele>
        <time>2012-06-19T12:51:22Z</time>
      </trkpt>
      <trkpt lat="47.1398" lon="5.26028">
        <ele>185</ele>
        <time>2012-06-19T12:51:24Z</time>
      </trkpt>
      <trkpt lat="47.13979" lon="5.26005">
        <ele>185</ele>
        <time>2012-06-19T12:51:26Z</time>
      </trkpt>
      <trkpt lat="47.13977" lon="5.25982">
        <ele>185</ele>
        <time>2012-06-19T12:51:28Z</time>
      </trkpt>
      <trkpt lat="47.13977" lon="5.25958">
        <ele>185</ele>
        <time>2012-06-19T12:51:30Z</time>
      </trkpt>
      <trkpt lat="47.13976" lon="5.25936">
        <ele>185</ele>
        <time>2012-06-19T12:51:32Z</time>
      </trkpt>
      <trkpt lat="47.13975" lon="5.25914">
        <ele>185</ele>
        <time>2012-06-19T12:51:34Z</time>
      </trkpt>
      <trkpt lat="47.13974" lon="5.25892">
        <ele>185</ele>
        <time>2012-06-19T12:51:36Z</time>
      </trkpt>
      <trkpt lat="47.13973" lon="5.25869">
        <ele>185</ele>
        <time>2012-06-19T12:51:38Z</time>
      </trkpt>
      <trkpt lat="47.13972" lon="5.25848">
        <ele>185</ele>
        <time>2012-06-19T12:51:40Z</time>
      </trkpt>
      <trkpt lat="47.13972" lon="5.25827">
        <ele>185</ele>
        <time>2012-06-19T12:51:42Z</time>
      </trkpt>
      <trkpt lat="47.13971" lon="5.25806">
        <ele>185</ele>
        <time>2012-06-19T12:51:44Z</time>
      </trkpt>
      <trkpt lat="47.1397" lon="5.25786">
        <ele>185</ele>
        <time>2012-06-19T12:51:46Z</time>
      </trkpt>
      <trkpt lat="47.1397" lon="5.25765">
        <ele>185</ele>
        <time>2012-06-19T12:51:48Z</time>
      </trkpt>
      <trkpt lat="47.1397" lon="5.25744">
        <ele>185</ele>
        <time>2012-06-19T12:51:50Z</time>
      </trkpt>
      <trkpt lat="47.13969" lon="5.25725">
        <ele>185</ele>
        <time>2012-06-19T12:51:52Z</time>
      </trkpt>
      <trkpt lat="47.13969" lon="5.25704">
        <ele>185</ele>
        <time>2012-06-19T12:51:54Z</time>
      </trkpt>
      <trkpt lat="47.13968" lon="5.25682">
        <ele>185</ele>
        <time>2012-06-19T12:51:56Z</time>
      </trkpt>
      <trkpt lat="47.13968" lon="5.25661">
        <ele>185</ele>
        <time>2012-06-19T12:51:58Z</time>
      </trkpt>
      <trkpt lat="47.13968" lon="5.2564">
        <ele>185</ele>
        <time>2012-06-19T12:52:00Z</time>
      </trkpt>
      <trkpt lat="47.13966" lon="5.2562">
        <ele>185</ele>
        <time>2012-06-19T12:52:02Z</time>
      </trkpt>
      <trkpt lat="47.13965" lon="5.256">
        <ele>185</ele>
        <time>2012-06-19T12:52:04Z</time>
      </trkpt>
      <trkpt lat="47.13965" lon="5.25578">
        <ele>185</ele>
        <time>2012-06-19T12:52:06Z</time>
      </trkpt>
      <trkpt lat="47.13966" lon="5.25557">
        <ele>185</ele>
        <time>2012-06-19T12:52:08Z</time>
      </trkpt>
      <trkpt lat="47.13967" lon="5.25537">
        <ele>185</ele>
        <time>2012-06-19T12:52:10Z</time>
      </trkpt>
      <trkpt lat="47.13971" lon="5.25517">
        <ele>185</ele>
        <time>2012-06-19T12:52:12Z</time>
      </trkpt>
      <trkpt lat="47.13975" lon="5.25497">
        <ele>185</ele>
        <time>2012-06-19T12:52:14Z</time>
      </trkpt>
      <trkpt lat="47.13979" lon="5.25478">
        <ele>185</ele>
        <time>2012-06-19T12:52:16Z</time>
      </trkpt>
      <trkpt lat="47.13983" lon="5.25458">
        <ele>185</ele>
        <time>2012-06-19T12:52:18Z</time>
      </trkpt>
      <trkpt lat="47.13988" lon="5.25439">
        <ele>185</ele>
        <time>2012-06-19T12:52:20Z</time>
      </trkpt>
      <trkpt lat="47.13992" lon="5.25419">
        <ele>185</ele>
        <time>2012-06-19T12:52:22Z</time>
      </trkpt>
      <trkpt lat="47.13997" lon="5.254">
        <ele>185</ele>
        <time>2012-06-19T12:52:24Z</time>
      </trkpt>
      <trkpt lat="47.14003" lon="5.25382">
        <ele>185</ele>
        <time>2012-06-19T12:52:26Z</time>
      </trkpt>
      <trkpt lat="47.14008" lon="5.25363">
        <ele>185</ele>
        <time>2012-06-19T12:52:28Z</time>
      </trkpt>
      <trkpt lat="47.14014" lon="5.25343">
        <ele>185</ele>
        <time>2012-06-19T12:52:30Z</time>
      </trkpt>
      <trkpt lat="47.1402" lon="5.25324">
        <ele>185</ele>
        <time>2012-06-19T12:52:32Z</time>
      </trkpt>
      <trkpt lat="47.14027" lon="5.25304">
        <ele>185</ele>
        <time>2012-06-19T12:52:34Z</time>
      </trkpt>
      <trkpt lat="47.14035" lon="5.25286">
        <ele>185</ele>
        <time>2012-06-19T12:52:36Z</time>
      </trkpt>
      <trkpt lat="47.14044" lon="5.25269">
        <ele>185</ele>
        <time>2012-06-19T12:52:38Z</time>
      </trkpt>
      <trkpt lat="47.14054" lon="5.25254">
        <ele>185</ele>
        <time>2012-06-19T12:52:40Z</time>
      </trkpt>
      <trkpt lat="47.14063" lon="5.25238">
        <ele>185</ele>
        <time>2012-06-19T12:52:42Z</time>
      </trkpt>
      <trkpt lat="47.14072" lon="5.2522">
        <ele>185</ele>
        <time>2012-06-19T12:52:44Z</time>
      </trkpt>
      <trkpt lat="47.1408" lon="5.25203">
        <ele>185</ele>
        <time>2012-06-19T12:52:46Z</time>
      </trkpt>
      <trkpt lat="47.14088" lon="5.25185">
        <ele>185</ele>
        <time>2012-06-19T12:52:48Z</time>
      </trkpt>
      <trkpt lat="47.14095" lon="5.25167">
        <ele>185</ele>
        <time>2012-06-19T12:52:50Z</time>
      </trkpt>
      <trkpt lat="47.14098" lon="5.25147">
        <ele>185</ele>
        <time>2012-06-19T12:52:52Z</time>
      </trkpt>
      <trkpt lat="47.14099" lon="5.25127">
        <ele>185</ele>
        <time>2012-06-19T12:52:54Z</time>
      </trkpt>
      <trkpt lat="47.14099" lon="5.25108">
        <ele>185</ele>
        <time>2012-06-19T12:52:56Z</time>
      </trkpt>
      <trkpt lat="47.14096" lon="5.25088">
        <ele>185</ele>
        <time>2012-06-19T12:52:58Z</time>
      </trkpt>
      <trkpt lat="47.14093" lon="5.25069">
        <ele>185</ele>
        <time>2012-06-19T12:53:00Z</time>
      </trkpt>
      <trkpt lat="47.1409" lon="5.25049">
        <ele>185</ele>
        <time>2012-06-19T12:53:02Z</time>
      </trkpt>
      <trkpt lat="47.14088" lon="5.2503">
        <ele>185</ele>
        <time>2012-06-19T12:53:04Z</time>
      </trkpt>
      <trkpt lat="47.14088" lon="5.25011">
        <ele>185</ele>
        <time>2012-06-19T12:53:06Z</time>
      </trkpt>
      <trkpt lat="47.1409" lon="5.24993">
        <ele>190</ele>
        <time>2012-06-19T12:53:08Z</time>
      </trkpt>
      <trkpt lat="47.14093" lon="5.24976">
        <ele>190</ele>
        <time>2012-06-19T12:53:10Z</time>
      </trkpt>
      <trkpt lat="47.14097" lon="5.2496">
        <ele>190</ele>
        <time>2012-06-19T12:53:12Z</time>
      </trkpt>
      <trkpt lat="47.14102" lon="5.24946">
        <ele>190</ele>
        <time>2012-06-19T12:53:14Z</time>
      </trkpt>
      <trkpt lat="47.14107" lon="5.24932">
        <ele>190</ele>
        <time>2012-06-19T12:53:16Z</time>
      </trkpt>
      <trkpt lat="47.14114" lon="5.24919">
        <ele>190</ele>
        <time>2012-06-19T12:53:18Z</time>
      </trkpt>
      <trkpt lat="47.14121" lon="5.24906">
        <ele>190</ele>
        <time>2012-06-19T12:53:20Z</time>
      </trkpt>
      <trkpt lat="47.14128" lon="5.24894">
        <ele>190</ele>
        <time>2012-06-19T12:53:22Z</time>
      </trkpt>
      <trkpt lat="47.14135" lon="5.24881">
        <ele>190</ele>
        <time>2012-06-19T12:53:24Z</time>
      </trkpt>
      <trkpt lat="47.14142" lon="5.2487">
        <ele>190</ele>
        <time>2012-06-19T12:53:26Z</time>
      </trkpt>
      <trkpt lat="47.1415" lon="5.24856">
        <ele>198</ele>
        <time>2012-06-19T12:53:28Z</time>
      </trkpt>
      <trkpt lat="47.14158" lon="5.2484">
        <ele>198</ele>
        <time>2012-06-19T12:53:31Z</time>
      </trkpt>
      <trkpt lat="47.14164" lon="5.24827">
        <ele>198</ele>
        <time>2012-06-19T12:53:33Z</time>
      </trkpt>
      <trkpt lat="47.14169" lon="5.24816">
        <ele>198</ele>
        <time>2012-06-19T12:53:35Z</time>
      </trkpt>
      <trkpt lat="47.14174" lon="5.24803">
        <ele>198</ele>
        <time>2012-06-19T12:53:37Z</time>
      </trkpt>
      <trkpt lat="47.14178" lon="5.2479">
        <ele>198</ele>
        <time>2012-06-19T12:53:39Z</time>
      </trkpt>
      <trkpt lat="47.14184" lon="5.24772">
        <ele>198</ele>
        <time>2012-06-19T12:53:42Z</time>
      </trkpt>
      <trkpt lat="47.14187" lon="5.24755">
        <ele>198</ele>
        <time>2012-06-19T12:53:45Z</time>
      </trkpt>
      <trkpt lat="47.14188" lon="5.24736">
        <ele>198</ele>
        <time>2012-06-19T12:53:48Z</time>
      </trkpt>
      <trkpt lat="47.14188" lon="5.24717">
        <ele>198</ele>
        <time>2012-06-19T12:53:51Z</time>
      </trkpt>
      <trkpt lat="47.14185" lon="5.24704">
        <ele>198</ele>
        <time>2012-06-19T12:53:53Z</time>
      </trkpt>
      <trkpt lat="47.14178" lon="5.24693">
        <ele>198</ele>
        <time>2012-06-19T12:53:55Z</time>
      </trkpt>
      <trkpt lat="47.14169" lon="5.2468">
        <ele>198</ele>
        <time>2012-06-19T12:53:57Z</time>
      </trkpt>
      <trkpt lat="47.14162" lon="5.2467">
        <ele>198</ele>
        <time>2012-06-19T12:53:59Z</time>
      </trkpt>
      <trkpt lat="47.14154" lon="5.24658">
        <ele>198</ele>
        <time>2012-06-19T12:54:01Z</time>
      </trkpt>
      <trkpt lat="47.14145" lon="5.24646">
        <ele>198</ele>
        <time>2012-06-19T12:54:03Z</time>
      </trkpt>
      <trkpt lat="47.14136" lon="5.24634">
        <ele>198</ele>
        <time>2012-06-19T12:54:05Z</time>
      </trkpt>
      <trkpt lat="47.14127" lon="5.24622">
        <ele>198</ele>
        <time>2012-06-19T12:54:07Z</time>
      </trkpt>
      <trkpt lat="47.14118" lon="5.24608">
        <ele>198</ele>
        <time>2012-06-19T12:54:09Z</time>
      </trkpt>
      <trkpt lat="47.14109" lon="5.24596">
        <ele>198</ele>
        <time>2012-06-19T12:54:11Z</time>
      </trkpt>
      <trkpt lat="47.141" lon="5.24582">
        <ele>198</ele>
        <time>2012-06-19T12:54:13Z</time>
      </trkpt>
      <trkpt lat="47.14091" lon="5.24567">
        <ele>198</ele>
        <time>2012-06-19T12:54:15Z</time>
      </trkpt>
      <trkpt lat="47.14084" lon="5.24551">
        <ele>198</ele>
        <time>2012-06-19T12:54:17Z</time>
      </trkpt>
      <trkpt lat="47.14077" lon="5.24534">
        <ele>198</ele>
        <time>2012-06-19T12:54:19Z</time>
      </trkpt>
      <trkpt lat="47.14072" lon="5.24519">
        <ele>198</ele>
        <time>2012-06-19T12:54:21Z</time>
      </trkpt>
      <trkpt lat="47.14066" lon="5.24502">
        <ele>198</ele>
        <time>2012-06-19T12:54:23Z</time>
      </trkpt>
      <trkpt lat="47.14061" lon="5.24484">
        <ele>198</ele>
        <time>2012-06-19T12:54:25Z</time>
      </trkpt>
      <trkpt lat="47.14059" lon="5.24465">
        <ele>198</ele>
        <time>2012-06-19T12:54:27Z</time>
      </trkpt>
      <trkpt lat="47.14057" lon="5.24445">
        <ele>198</ele>
        <time>2012-06-19T12:54:29Z</time>
      </trkpt>
      <trkpt lat="47.14057" lon="5.24424">
        <ele>198</ele>
        <time>2012-06-19T12:54:31Z</time>
      </trkpt>
      <trkpt lat="47.14057" lon="5.24403">
        <ele>198</ele>
        <time>2012-06-19T12:54:33Z</time>
      </trkpt>
      <trkpt lat="47.14059" lon="5.24383">
        <ele>198</ele>
        <time>2012-06-19T12:54:35Z</time>
      </trkpt>
      <trkpt lat="47.14061" lon="5.24362">
        <ele>198</ele>
        <time>2012-06-19T12:54:37Z</time>
      </trkpt>
      <trkpt lat="47.14065" lon="5.24341">
        <ele>198</ele>
        <time>2012-06-19T12:54:39Z</time>
      </trkpt>
      <trkpt lat="47.1407" lon="5.24322">
        <ele>198</ele>
        <time>2012-06-19T12:54:41Z</time>
      </trkpt>
      <trkpt lat="47.14076" lon="5.24303">
        <ele>198</ele>
        <time>2012-06-19T12:54:43Z</time>
      </trkpt>
      <trkpt lat="47.14081" lon="5.24283">
        <ele>198</ele>
        <time>2012-06-19T12:54:45Z</time>
      </trkpt>
      <trkpt lat="47.14086" lon="5.24264">
        <ele>198</ele>
        <time>2012-06-19T12:54:47Z</time>
      </trkpt>
      <trkpt lat="47.14089" lon="5.24242">
        <ele>198</ele>
        <time>2012-06-19T12:54:49Z</time>
      </trkpt>
      <trkpt lat="47.1409" lon="5.24221">
        <ele>198</ele>
        <time>2012-06-19T12:54:51Z</time>
      </trkpt>
      <trkpt lat="47.14087" lon="5.24199">
        <ele>198</ele>
        <time>2012-06-19T12:54:53Z</time>
      </trkpt>
      <trkpt lat="47.1408" lon="5.24179">
        <ele>198</ele>
        <time>2012-06-19T12:54:55Z</time>
      </trkpt>
      <trkpt lat="47.14072" lon="5.24157">
        <ele>198</ele>
        <time>2012-06-19T12:54:57Z</time>
      </trkpt>
      <trkpt lat="47.14068" lon="5.24145">
        <ele>198</ele>
        <time>2012-06-19T12:54:58Z</time>
      </trkpt>
      <trkpt lat="47.14059" lon="5.24124">
        <ele>198</ele>
        <time>2012-06-19T12:55:00Z</time>
      </trkpt>
      <trkpt lat="47.14055" lon="5.24112">
        <ele>193</ele>
        <time>2012-06-19T12:55:01Z</time>
      </trkpt>
      <trkpt lat="47.1405" lon="5.24101">
        <ele>193</ele>
        <time>2012-06-19T12:55:02Z</time>
      </trkpt>
      <trkpt lat="47.14045" lon="5.24088">
        <ele>193</ele>
        <time>2012-06-19T12:55:03Z</time>
      </trkpt>
      <trkpt lat="47.14041" lon="5.24076">
        <ele>193</ele>
        <time>2012-06-19T12:55:04Z</time>
      </trkpt>
      <trkpt lat="47.14033" lon="5.24053">
        <ele>193</ele>
        <time>2012-06-19T12:55:06Z</time>
      </trkpt>
      <trkpt lat="47.14025" lon="5.2403">
        <ele>193</ele>
        <time>2012-06-19T12:55:08Z</time>
      </trkpt>
      <trkpt lat="47.1402" lon="5.24019">
        <ele>193</ele>
        <time>2012-06-19T12:55:09Z</time>
      </trkpt>
      <trkpt lat="47.14016" lon="5.24007">
        <ele>193</ele>
        <time>2012-06-19T12:55:10Z</time>
      </trkpt>
      <trkpt lat="47.14011" lon="5.23995">
        <ele>193</ele>
        <time>2012-06-19T12:55:11Z</time>
      </trkpt>
      <trkpt lat="47.14006" lon="5.23984">
        <ele>193</ele>
        <time>2012-06-19T12:55:12Z</time>
      </trkpt>
      <trkpt lat="47.14" lon="5.23973">
        <ele>193</ele>
        <time>2012-06-19T12:55:13Z</time>
      </trkpt>
      <trkpt lat="47.13993" lon="5.23961">
        <ele>193</ele>
        <time>2012-06-19T12:55:14Z</time>
      </trkpt>
      <trkpt lat="47.13986" lon="5.23951">
        <ele>193</ele>
        <time>2012-06-19T12:55:15Z</time>
      </trkpt>
      <trkpt lat="47.13979" lon="5.23941">
        <ele>193</ele>
        <time>2012-06-19T12:55:16Z</time>
      </trkpt>
      <trkpt lat="47.13973" lon="5.2393">
        <ele>188</ele>
        <time>2012-06-19T12:55:17Z</time>
      </trkpt>
      <trkpt lat="47.13966" lon="5.23919">
        <ele>188</ele>
        <time>2012-06-19T12:55:18Z</time>
      </trkpt>
      <trkpt lat="47.13959" lon="5.23909">
        <ele>188</ele>
        <time>2012-06-19T12:55:19Z</time>
      </trkpt>
      <trkpt lat="47.13952" lon="5.23899">
        <ele>188</ele>
        <time>2012-06-19T12:55:20Z</time>
      </trkpt>
      <trkpt lat="47.13946" lon="5.23889">
        <ele>188</ele>
        <time>2012-06-19T12:55:21Z</time>
      </trkpt>
      <trkpt lat="47.13939" lon="5.23879">
        <ele>188</ele>
        <time>2012-06-19T12:55:22Z</time>
      </trkpt>
      <trkpt lat="47.13933" lon="5.23869">
        <ele>188</ele>
        <time>2012-06-19T12:55:23Z</time>
      </trkpt>
      <trkpt lat="47.1392" lon="5.2385">
        <ele>188</ele>
        <time>2012-06-19T12:55:25Z</time>
      </trkpt>
      <trkpt lat="47.13914" lon="5.23841">
        <ele>188</ele>
        <time>2012-06-19T12:55:26Z</time>
      </trkpt>
      <trkpt lat="47.13902" lon="5.23821">
        <ele>188</ele>
        <time>2012-06-19T12:55:28Z</time>
      </trkpt>
      <trkpt lat="47.13896" lon="5.23811">
        <ele>188</ele>
        <time>2012-06-19T12:55:29Z</time>
      </trkpt>
      <trkpt lat="47.13885" lon="5.23792">
        <ele>188</ele>
        <time>2012-06-19T12:55:31Z</time>
      </trkpt>
      <trkpt lat="47.13874" lon="5.23772">
        <ele>188</ele>
        <time>2012-06-19T12:55:33Z</time>
      </trkpt>
      <trkpt lat="47.13865" lon="5.23752">
        <ele>188</ele>
        <time>2012-06-19T12:55:35Z</time>
      </trkpt>
      <trkpt lat="47.13856" lon="5.23733">
        <ele>188</ele>
        <time>2012-06-19T12:55:37Z</time>
      </trkpt>
      <trkpt lat="47.13847" lon="5.23712">
        <ele>188</ele>
        <time>2012-06-19T12:55:39Z</time>
      </trkpt>
      <trkpt lat="47.1384" lon="5.23692">
        <ele>188</ele>
        <time>2012-06-19T12:55:41Z</time>
      </trkpt>
      <trkpt lat="47.13834" lon="5.2367">
        <ele>188</ele>
        <time>2012-06-19T12:55:43Z</time>
      </trkpt>
      <trkpt lat="47.1383" lon="5.23648">
        <ele>188</ele>
        <time>2012-06-19T12:55:45Z</time>
      </trkpt>
      <trkpt lat="47.13827" lon="5.23624">
        <ele>188</ele>
        <time>2012-06-19T12:55:47Z</time>
      </trkpt>
      <trkpt lat="47.13825" lon="5.23602">
        <ele>188</ele>
        <time>2012-06-19T12:55:49Z</time>
      </trkpt>
      <trkpt lat="47.13825" lon="5.2358">
        <ele>188</ele>
        <time>2012-06-19T12:55:51Z</time>
      </trkpt>
      <trkpt lat="47.13827" lon="5.23558">
        <ele>188</ele>
        <time>2012-06-19T12:55:53Z</time>
      </trkpt>
      <trkpt lat="47.1383" lon="5.23537">
        <ele>188</ele>
        <time>2012-06-19T12:55:55Z</time>
      </trkpt>
      <trkpt lat="47.13833" lon="5.23517">
        <ele>188</ele>
        <time>2012-06-19T12:55:57Z</time>
      </trkpt>
      <trkpt lat="47.13835" lon="5.23495">
        <ele>188</ele>
        <time>2012-06-19T12:55:59Z</time>
      </trkpt>
      <trkpt lat="47.13838" lon="5.23474">
        <ele>188</ele>
        <time>2012-06-19T12:56:01Z</time>
      </trkpt>
      <trkpt lat="47.1384" lon="5.23452">
        <ele>188</ele>
        <time>2012-06-19T12:56:03Z</time>
      </trkpt>
      <trkpt lat="47.13843" lon="5.2343">
        <ele>188</ele>
        <time>2012-06-19T12:56:05Z</time>
      </trkpt>
      <trkpt lat="47.13846" lon="5.2341">
        <ele>188</ele>
        <time>2012-06-19T12:56:07Z</time>
      </trkpt>
      <trkpt lat="47.13848" lon="5.23388">
        <ele>188</ele>
        <time>2012-06-19T12:56:09Z</time>
      </trkpt>
      <trkpt lat="47.13851" lon="5.23366">
        <ele>188</ele>
        <time>2012-06-19T12:56:11Z</time>
      </trkpt>
      <trkpt lat="47.13853" lon="5.23344">
        <ele>188</ele>
        <time>2012-06-19T12:56:13Z</time>
      </trkpt>
      <trkpt lat="47.13854" lon="5.23323">
        <ele>188</ele>
        <time>2012-06-19T12:56:15Z</time>
      </trkpt>
      <trkpt lat="47.13854" lon="5.23301">
        <ele>188</ele>
        <time>2012-06-19T12:56:17Z</time>
      </trkpt>
      <trkpt lat="47.13854" lon="5.23279">
        <ele>188</ele>
        <time>2012-06-19T12:56:19Z</time>
      </trkpt>
      <trkpt lat="47.13852" lon="5.23256">
        <ele>188</ele>
        <time>2012-06-19T12:56:21Z</time>
      </trkpt>
      <trkpt lat="47.13851" lon="5.23235">
        <ele>188</ele>
        <time>2012-06-19T12:56:23Z</time>
      </trkpt>
      <trkpt lat="47.13849" lon="5.23211">
        <ele>188</ele>
        <time>2012-06-19T12:56:25Z</time>
      </trkpt>
      <trkpt lat="47.13847" lon="5.23188">
        <ele>188</ele>
        <time>2012-06-19T12:56:27Z</time>
      </trkpt>
      <trkpt lat="47.13844" lon="5.23164">
        <ele>188</ele>
        <time>2012-06-19T12:56:29Z</time>
      </trkpt>
      <trkpt lat="47.13842" lon="5.23142">
        <ele>188</ele>
        <time>2012-06-19T12:56:31Z</time>
      </trkpt>
      <trkpt lat="47.13837" lon="5.2312">
        <ele>188</ele>
        <time>2012-06-19T12:56:33Z</time>
      </trkpt>
      <trkpt lat="47.13831" lon="5.231">
        <ele>188</ele>
        <time>2012-06-19T12:56:35Z</time>
      </trkpt>
      <trkpt lat="47.13824" lon="5.23079">
        <ele>188</ele>
        <time>2012-06-19T12:56:37Z</time>
      </trkpt>
      <trkpt lat="47.13818" lon="5.23059">
        <ele>188</ele>
        <time>2012-06-19T12:56:39Z</time>
      </trkpt>
      <trkpt lat="47.13813" lon="5.2304">
        <ele>188</ele>
        <time>2012-06-19T12:56:41Z</time>
      </trkpt>
      <trkpt lat="47.13807" lon="5.23021">
        <ele>188</ele>
        <time>2012-06-19T12:56:43Z</time>
      </trkpt>
      <trkpt lat="47.13802" lon="5.22999">
        <ele>188</ele>
        <time>2012-06-19T12:56:45Z</time>
      </trkpt>
      <trkpt lat="47.13798" lon="5.22978">
        <ele>188</ele>
        <time>2012-06-19T12:56:47Z</time>
      </trkpt>
      <trkpt lat="47.13795" lon="5.22955">
        <ele>188</ele>
        <time>2012-06-19T12:56:49Z</time>
      </trkpt>
      <trkpt lat="47.13792" lon="5.22934">
        <ele>188</ele>
        <time>2012-06-19T12:56:51Z</time>
      </trkpt>
      <trkpt lat="47.13789" lon="5.22911">
        <ele>188</ele>
        <time>2012-06-19T12:56:53Z</time>
      </trkpt>
      <trkpt lat="47.13785" lon="5.2289">
        <ele>188</ele>
        <time>2012-06-19T12:56:55Z</time>
      </trkpt>
      <trkpt lat="47.13781" lon="5.22869">
        <ele>188</ele>
        <time>2012-06-19T12:56:57Z</time>
      </trkpt>
      <trkpt lat="47.13776" lon="5.22849">
        <ele>188</ele>
        <time>2012-06-19T12:56:59Z</time>
      </trkpt>
      <trkpt lat="47.1377" lon="5.2283">
        <ele>188</ele>
        <time>2012-06-19T12:57:01Z</time>
      </trkpt>
      <trkpt lat="47.13762" lon="5.22812">
        <ele>188</ele>
        <time>2012-06-19T12:57:03Z</time>
      </trkpt>
      <trkpt lat="47.13753" lon="5.22795">
        <ele>188</ele>
        <time>2012-06-19T12:57:05Z</time>
      </trkpt>
      <trkpt lat="47.13743" lon="5.22779">
        <ele>188</ele>
        <time>2012-06-19T12:57:07Z</time>
      </trkpt>
      <trkpt lat="47.13732" lon="5.22765">
        <ele>188</ele>
        <time>2012-06-19T12:57:09Z</time>
      </trkpt>
      <trkpt lat="47.1372" lon="5.22751">
        <ele>188</ele>
        <time>2012-06-19T12:57:11Z</time>
      </trkpt>
      <trkpt lat="47.13708" lon="5.22738">
        <ele>188</ele>
        <time>2012-06-19T12:57:13Z</time>
      </trkpt>
      <trkpt lat="47.13696" lon="5.22724">
        <ele>188</ele>
        <time>2012-06-19T12:57:15Z</time>
      </trkpt>
      <trkpt lat="47.13685" lon="5.22708">
        <ele>188</ele>
        <time>2012-06-19T12:57:17Z</time>
      </trkpt>
      <trkpt lat="47.13675" lon="5.22692">
        <ele>188</ele>
        <time>2012-06-19T12:57:19Z</time>
      </trkpt>
      <trkpt lat="47.13667" lon="5.22674">
        <ele>188</ele>
        <time>2012-06-19T12:57:21Z</time>
      </trkpt>
      <trkpt lat="47.1366" lon="5.22654">
        <ele>188</ele>
        <time>2012-06-19T12:57:23Z</time>
      </trkpt>
      <trkpt lat="47.13654" lon="5.22634">
        <ele>188</ele>
        <time>2012-06-19T12:57:25Z</time>
      </trkpt>
      <trkpt lat="47.13648" lon="5.22611">
        <ele>188</ele>
        <time>2012-06-19T12:57:27Z</time>
      </trkpt>
      <trkpt lat="47.13645" lon="5.2259">
        <ele>188</ele>
        <time>2012-06-19T12:57:29Z</time>
      </trkpt>
      <trkpt lat="47.13645" lon="5.22569">
        <ele>188</ele>
        <time>2012-06-19T12:57:31Z</time>
      </trkpt>
      <trkpt lat="47.13645" lon="5.22546">
        <ele>188</ele>
        <time>2012-06-19T12:57:33Z</time>
      </trkpt>
      <trkpt lat="47.13647" lon="5.22524">
        <ele>188</ele>
        <time>2012-06-19T12:57:35Z</time>
      </trkpt>
      <trkpt lat="47.13651" lon="5.22502">
        <ele>188</ele>
        <time>2012-06-19T12:57:37Z</time>
      </trkpt>
      <trkpt lat="47.13657" lon="5.22481">
        <ele>188</ele>
        <time>2012-06-19T12:57:39Z</time>
      </trkpt>
      <trkpt lat="47.13663" lon="5.22461">
        <ele>188</ele>
        <time>2012-06-19T12:57:41Z</time>
      </trkpt>
      <trkpt lat="47.13667" lon="5.2244">
        <ele>188</ele>
        <time>2012-06-19T12:57:43Z</time>
      </trkpt>
      <trkpt lat="47.13667" lon="5.2242">
        <ele>188</ele>
        <time>2012-06-19T12:57:45Z</time>
      </trkpt>
      <trkpt lat="47.13665" lon="5.22399">
        <ele>188</ele>
        <time>2012-06-19T12:57:47Z</time>
      </trkpt>
      <trkpt lat="47.13661" lon="5.22379">
        <ele>188</ele>
        <time>2012-06-19T12:57:49Z</time>
      </trkpt>
      <trkpt lat="47.13656" lon="5.2236">
        <ele>188</ele>
        <time>2012-06-19T12:57:51Z</time>
      </trkpt>
      <trkpt lat="47.13651" lon="5.22343">
        <ele>188</ele>
        <time>2012-06-19T12:57:53Z</time>
      </trkpt>
      <trkpt lat="47.13645" lon="5.22328">
        <ele>188</ele>
        <time>2012-06-19T12:57:55Z</time>
      </trkpt>
      <trkpt lat="47.13638" lon="5.22314">
        <ele>188</ele>
        <time>2012-06-19T12:57:57Z</time>
      </trkpt>
      <trkpt lat="47.13632" lon="5.223">
        <ele>188</ele>
        <time>2012-06-19T12:57:59Z</time>
      </trkpt>
      <trkpt lat="47.13626" lon="5.22285">
        <ele>188</ele>
        <time>2012-06-19T12:58:01Z</time>
      </trkpt>
      <trkpt lat="47.13619" lon="5.22265">
        <ele>188</ele>
        <time>2012-06-19T12:58:03Z</time>
      </trkpt>
      <trkpt lat="47.13611" lon="5.22244">
        <ele>188</ele>
        <time>2012-06-19T12:58:05Z</time>
      </trkpt>
      <trkpt lat="47.13602" lon="5.22223">
        <ele>188</ele>
        <time>2012-06-19T12:58:07Z</time>
      </trkpt>
      <trkpt lat="47.13595" lon="5.222">
        <ele>188</ele>
        <time>2012-06-19T12:58:09Z</time>
      </trkpt>
      <trkpt lat="47.13591" lon="5.22188">
        <ele>188</ele>
        <time>2012-06-19T12:58:10Z</time>
      </trkpt>
      <trkpt lat="47.13582" lon="5.22166">
        <ele>188</ele>
        <time>2012-06-19T12:58:12Z</time>
      </trkpt>
      <trkpt lat="47.13575" lon="5.22142">
        <ele>188</ele>
        <time>2012-06-19T12:58:14Z</time>
      </trkpt>
      <trkpt lat="47.13573" lon="5.22117">
        <ele>188</ele>
        <time>2012-06-19T12:58:16Z</time>
      </trkpt>
      <trkpt lat="47.13574" lon="5.22094">
        <ele>188</ele>
        <time>2012-06-19T12:58:18Z</time>
      </trkpt>
      <trkpt lat="47.13574" lon="5.22075">
        <ele>188</ele>
        <time>2012-06-19T12:58:20Z</time>
      </trkpt>
      <trkpt lat="47.13574" lon="5.22056">
        <ele>188</ele>
        <time>2012-06-19T12:58:22Z</time>
      </trkpt>
      <trkpt lat="47.13574" lon="5.22041">
        <ele>188</ele>
        <time>2012-06-19T12:58:24Z</time>
      </trkpt>
      <trkpt lat="47.13575" lon="5.22025">
        <ele>188</ele>
        <time>2012-06-19T12:58:26Z</time>
      </trkpt>
      <trkpt lat="47.13574" lon="5.22012">
        <ele>188</ele>
        <time>2012-06-19T12:58:28Z</time>
      </trkpt>
      <trkpt lat="47.13574" lon="5.21998">
        <ele>188</ele>
        <time>2012-06-19T12:58:31Z</time>
      </trkpt>
      <trkpt lat="47.13575" lon="5.21982">
        <ele>188</ele>
        <time>2012-06-19T12:58:35Z</time>
      </trkpt>
      <trkpt lat="47.13575" lon="5.21968">
        <ele>188</ele>
        <time>2012-06-19T12:58:38Z</time>
      </trkpt>
      <trkpt lat="47.13575" lon="5.21952">
        <ele>188</ele>
        <time>2012-06-19T12:58:41Z</time>
      </trkpt>
      <trkpt lat="47.13575" lon="5.21933">
        <ele>188</ele>
        <time>2012-06-19T12:58:44Z</time>
      </trkpt>
      <trkpt lat="47.13573" lon="5.21919">
        <ele>188</ele>
        <time>2012-06-19T12:58:46Z</time>
      </trkpt>
      <trkpt lat="47.13569" lon="5.21906">
        <ele>188</ele>
        <time>2012-06-19T12:58:48Z</time>
      </trkpt>
      <trkpt lat="47.13564" lon="5.21891">
        <ele>188</ele>
        <time>2012-06-19T12:58:50Z</time>
      </trkpt>
      <trkpt lat="47.13557" lon="5.21878">
        <ele>188</ele>
        <time>2012-06-19T12:58:52Z</time>
      </trkpt>
      <trkpt lat="47.1355" lon="5.21867">
        <ele>188</ele>
        <time>2012-06-19T12:58:54Z</time>
      </trkpt>
      <trkpt lat="47.13543" lon="5.21857">
        <ele>188</ele>
        <time>2012-06-19T12:58:56Z</time>
      </trkpt>
      <trkpt lat="47.13535" lon="5.21848">
        <ele>188</ele>
        <time>2012-06-19T12:58:58Z</time>
      </trkpt>
      <trkpt lat="47.13526" lon="5.21839">
        <ele>188</ele>
        <time>2012-06-19T12:59:00Z</time>
      </trkpt>
      <trkpt lat="47.13516" lon="5.21831">
        <ele>188</ele>
        <time>2012-06-19T12:59:02Z</time>
      </trkpt>
      <trkpt lat="47.13508" lon="5.21823">
        <ele>188</ele>
        <time>2012-06-19T12:59:04Z</time>
      </trkpt>
      <trkpt lat="47.13499" lon="5.21815">
        <ele>188</ele>
        <time>2012-06-19T12:59:06Z</time>
      </trkpt>
      <trkpt lat="47.1349" lon="5.21806">
        <ele>188</ele>
        <time>2012-06-19T12:59:08Z</time>
      </trkpt>
      <trkpt lat="47.13482" lon="5.21798">
        <ele>188</ele>
        <time>2012-06-19T12:59:10Z</time>
      </trkpt>
      <trkpt lat="47.13473" lon="5.21789">
        <ele>188</ele>
        <time>2012-06-19T12:59:12Z</time>
      </trkpt>
      <trkpt lat="47.13464" lon="5.21781">
        <ele>188</ele>
        <time>2012-06-19T12:59:14Z</time>
      </trkpt>
      <trkpt lat="47.13456" lon="5.21772">
        <ele>188</ele>
        <time>2012-06-19T12:59:16Z</time>
      </trkpt>
      <trkpt lat="47.13448" lon="5.21762">
        <ele>188</ele>
        <time>2012-06-19T12:59:18Z</time>
      </trkpt>
      <trkpt lat="47.13439" lon="5.21751">
        <ele>188</ele>
        <time>2012-06-19T12:59:20Z</time>
      </trkpt>
      <trkpt lat="47.13431" lon="5.21742">
        <ele>188</ele>
        <time>2012-06-19T12:59:22Z</time>
      </trkpt>
      <trkpt lat="47.13423" lon="5.21732">
        <ele>188</ele>
        <time>2012-06-19T12:59:24Z</time>
      </trkpt>
      <trkpt lat="47.13414" lon="5.21721">
        <ele>188</ele>
        <time>2012-06-19T12:59:26Z</time>
      </trkpt>
      <trkpt lat="47.13406" lon="5.2171">
        <ele>188</ele>
        <time>2012-06-19T12:59:28Z</time>
      </trkpt>
      <trkpt lat="47.13397" lon="5.217">
        <ele>188</ele>
        <time>2012-06-19T12:59:30Z</time>
      </trkpt>
      <trkpt lat="47.13388" lon="5.21689">
        <ele>188</ele>
        <time>2012-06-19T12:59:32Z</time>
      </trkpt>
      <trkpt lat="47.13379" lon="5.2168">
        <ele>188</ele>
        <time>2012-06-19T12:59:34Z</time>
      </trkpt>
      <trkpt lat="47.1337" lon="5.21668">
        <ele>188</ele>
        <time>2012-06-19T12:59:36Z</time>
      </trkpt>
      <trkpt lat="47.13361" lon="5.21658">
        <ele>188</ele>
        <time>2012-06-19T12:59:38Z</time>
      </trkpt>
      <trkpt lat="47.13352" lon="5.21646">
        <ele>188</ele>
        <time>2012-06-19T12:59:40Z</time>
      </trkpt>
      <trkpt lat="47.13343" lon="5.21636">
        <ele>188</ele>
        <time>2012-06-19T12:59:42Z</time>
      </trkpt>
      <trkpt lat="47.13336" lon="5.21624">
        <ele>188</ele>
        <time>2012-06-19T12:59:44Z</time>
      </trkpt>
      <trkpt lat="47.1333" lon="5.21612">
        <ele>188</ele>
        <time>2012-06-19T12:59:46Z</time>
      </trkpt>
      <trkpt lat="47.13326" lon="5.21601">
        <ele>188</ele>
        <time>2012-06-19T12:59:48Z</time>
      </trkpt>
      <trkpt lat="47.13321" lon="5.21584">
        <ele>188</ele>
        <time>2012-06-19T12:59:51Z</time>
      </trkpt>
      <trkpt lat="47.13316" lon="5.2157">
        <ele>188</ele>
        <time>2012-06-19T12:59:54Z</time>
      </trkpt>
      <trkpt lat="47.13304" lon="5.21565">
        <ele>188</ele>
        <time>2012-06-19T12:59:57Z</time>
      </trkpt>
      <trkpt lat="47.13296" lon="5.2157">
        <ele>188</ele>
        <time>2012-06-19T12:59:59Z</time>
      </trkpt>
      <trkpt lat="47.13287" lon="5.21576">
        <ele>188</ele>
        <time>2012-06-19T13:00:01Z</time>
      </trkpt>
      <trkpt lat="47.13277" lon="5.21584">
        <ele>188</ele>
        <time>2012-06-19T13:00:03Z</time>
      </trkpt>
      <trkpt lat="47.13268" lon="5.21593">
        <ele>188</ele>
        <time>2012-06-19T13:00:05Z</time>
      </trkpt>
      <trkpt lat="47.13259" lon="5.21601">
        <ele>182</ele>
        <time>2012-06-19T13:00:07Z</time>
      </trkpt>
      <trkpt lat="47.1325" lon="5.21611">
        <ele>182</ele>
        <time>2012-06-19T13:00:09Z</time>
      </trkpt>
      <trkpt lat="47.13242" lon="5.21622">
        <ele>182</ele>
        <time>2012-06-19T13:00:11Z</time>
      </trkpt>
      <trkpt lat="47.13235" lon="5.2163">
        <ele>182</ele>
        <time>2012-06-19T13:00:13Z</time>
      </trkpt>
      <trkpt lat="47.13225" lon="5.21644">
        <ele>182</ele>
        <time>2012-06-19T13:00:16Z</time>
      </trkpt>
      <trkpt lat="47.13216" lon="5.21654">
        <ele>182</ele>
        <time>2012-06-19T13:00:18Z</time>
      </trkpt>
      <trkpt lat="47.13206" lon="5.21665">
        <ele>182</ele>
        <time>2012-06-19T13:00:20Z</time>
      </trkpt>
      <trkpt lat="47.13198" lon="5.21677">
        <ele>182</ele>
        <time>2012-06-19T13:00:22Z</time>
      </trkpt>
      <trkpt lat="47.13189" lon="5.21689">
        <ele>182</ele>
        <time>2012-06-19T13:00:24Z</time>
      </trkpt>
      <trkpt lat="47.1318" lon="5.21701">
        <ele>182</ele>
        <time>2012-06-19T13:00:26Z</time>
      </trkpt>
      <trkpt lat="47.13171" lon="5.21714">
        <ele>182</ele>
        <time>2012-06-19T13:00:28Z</time>
      </trkpt>
      <trkpt lat="47.13161" lon="5.21726">
        <ele>182</ele>
        <time>2012-06-19T13:00:30Z</time>
      </trkpt>
      <trkpt lat="47.13152" lon="5.21739">
        <ele>182</ele>
        <time>2012-06-19T13:00:32Z</time>
      </trkpt>
      <trkpt lat="47.13143" lon="5.2175">
        <ele>182</ele>
        <time>2012-06-19T13:00:34Z</time>
      </trkpt>
      <trkpt lat="47.13135" lon="5.2176">
        <ele>182</ele>
        <time>2012-06-19T13:00:36Z</time>
      </trkpt>
      <trkpt lat="47.13128" lon="5.21769">
        <ele>182</ele>
        <time>2012-06-19T13:00:38Z</time>
      </trkpt>
      <trkpt lat="47.13117" lon="5.2177">
        <ele>182</ele>
        <time>2012-06-19T13:00:40Z</time>
      </trkpt>
      <trkpt lat="47.13108" lon="5.21761">
        <ele>182</ele>
        <time>2012-06-19T13:00:42Z</time>
      </trkpt>
      <trkpt lat="47.131" lon="5.21749">
        <ele>182</ele>
        <time>2012-06-19T13:00:44Z</time>
      </trkpt>
      <trkpt lat="47.13091" lon="5.21736">
        <ele>182</ele>
        <time>2012-06-19T13:00:46Z</time>
      </trkpt>
      <trkpt lat="47.13082" lon="5.21722">
        <ele>182</ele>
        <time>2012-06-19T13:00:48Z</time>
      </trkpt>
      <trkpt lat="47.13073" lon="5.21707">
        <ele>182</ele>
        <time>2012-06-19T13:00:50Z</time>
      </trkpt>
      <trkpt lat="47.13063" lon="5.21692">
        <ele>182</ele>
        <time>2012-06-19T13:00:52Z</time>
      </trkpt>
      <trkpt lat="47.13054" lon="5.21676">
        <ele>182</ele>
        <time>2012-06-19T13:00:54Z</time>
      </trkpt>
      <trkpt lat="47.13044" lon="5.2166">
        <ele>182</ele>
        <time>2012-06-19T13:00:56Z</time>
      </trkpt>
      <trkpt lat="47.13036" lon="5.21643">
        <ele>182</ele>
        <time>2012-06-19T13:00:58Z</time>
      </trkpt>
      <trkpt lat="47.13029" lon="5.21627">
        <ele>182</ele>
        <time>2012-06-19T13:01:00Z</time>
      </trkpt>
      <trkpt lat="47.13021" lon="5.21611">
        <ele>182</ele>
        <time>2012-06-19T13:01:02Z</time>
      </trkpt>
      <trkpt lat="47.13014" lon="5.21597">
        <ele>182</ele>
        <time>2012-06-19T13:01:04Z</time>
      </trkpt>
      <trkpt lat="47.13007" lon="5.21583">
        <ele>182</ele>
        <time>2012-06-19T13:01:06Z</time>
      </trkpt>
      <trkpt lat="47.13002" lon="5.21569">
        <ele>182</ele>
        <time>2012-06-19T13:01:08Z</time>
      </trkpt>
      <trkpt lat="47.12995" lon="5.21556">
        <ele>182</ele>
        <time>2012-06-19T13:01:10Z</time>
      </trkpt>
      <trkpt lat="47.1299" lon="5.21542">
        <ele>182</ele>
        <time>2012-06-19T13:01:12Z</time>
      </trkpt>
      <trkpt lat="47.12984" lon="5.2153">
        <ele>182</ele>
        <time>2012-06-19T13:01:14Z</time>
      </trkpt>
      <trkpt lat="47.12978" lon="5.21519">
        <ele>188</ele>
        <time>2012-06-19T13:01:16Z</time>
      </trkpt>
      <trkpt lat="47.12971" lon="5.21506">
        <ele>188</ele>
        <time>2012-06-19T13:01:18Z</time>
      </trkpt>
      <trkpt lat="47.12964" lon="5.21492">
        <ele>188</ele>
        <time>2012-06-19T13:01:20Z</time>
      </trkpt>
      <trkpt lat="47.12958" lon="5.21478">
        <ele>188</ele>
        <time>2012-06-19T13:01:22Z</time>
      </trkpt>
      <trkpt lat="47.12951" lon="5.21466">
        <ele>188</ele>
        <time>2012-06-19T13:01:24Z</time>
      </trkpt>
      <trkpt lat="47.12945" lon="5.21452">
        <ele>188</ele>
        <time>2012-06-19T13:01:26Z</time>
      </trkpt>
      <trkpt lat="47.12939" lon="5.21439">
        <ele>188</ele>
        <time>2012-06-19T13:01:28Z</time>
      </trkpt>
      <trkpt lat="47.12933" lon="5.21427">
        <ele>188</ele>
        <time>2012-06-19T13:01:30Z</time>
      </trkpt>
      <trkpt lat="47.12927" lon="5.21415">
        <ele>188</ele>
        <time>2012-06-19T13:01:32Z</time>
      </trkpt>
      <trkpt lat="47.1292" lon="5.21399">
        <ele>188</ele>
        <time>2012-06-19T13:01:34Z</time>
      </trkpt>
      <trkpt lat="47.12913" lon="5.21383">
        <ele>188</ele>
        <time>2012-06-19T13:01:36Z</time>
      </trkpt>
      <trkpt lat="47.12905" lon="5.21367">
        <ele>188</ele>
        <time>2012-06-19T13:01:38Z</time>
      </trkpt>
      <trkpt lat="47.12896" lon="5.2135">
        <ele>188</ele>
        <time>2012-06-19T13:01:40Z</time>
      </trkpt>
      <trkpt lat="47.12888" lon="5.21331">
        <ele>188</ele>
        <time>2012-06-19T13:01:42Z</time>
      </trkpt>
      <trkpt lat="47.12878" lon="5.2131">
        <ele>188</ele>
        <time>2012-06-19T13:01:44Z</time>
      </trkpt>
      <trkpt lat="47.12868" lon="5.2129">
        <ele>188</ele>
        <time>2012-06-19T13:01:46Z</time>
      </trkpt>
      <trkpt lat="47.12859" lon="5.21267">
        <ele>188</ele>
        <time>2012-06-19T13:01:48Z</time>
      </trkpt>
      <trkpt lat="47.12855" lon="5.21256">
        <ele>188</ele>
        <time>2012-06-19T13:01:49Z</time>
      </trkpt>
      <trkpt lat="47.12851" lon="5.21243">
        <ele>188</ele>
        <time>2012-06-19T13:01:50Z</time>
      </trkpt>
      <trkpt lat="47.12848" lon="5.2123">
        <ele>188</ele>
        <time>2012-06-19T13:01:51Z</time>
      </trkpt>
      <trkpt lat="47.12845" lon="5.21216">
        <ele>188</ele>
        <time>2012-06-19T13:01:52Z</time>
      </trkpt>
      <trkpt lat="47.12843" lon="5.21202">
        <ele>188</ele>
        <time>2012-06-19T13:01:53Z</time>
      </trkpt>
      <trkpt lat="47.12842" lon="5.21187">
        <ele>188</ele>
        <time>2012-06-19T13:01:54Z</time>
      </trkpt>
      <trkpt lat="47.1284" lon="5.21172">
        <ele>188</ele>
        <time>2012-06-19T13:01:55Z</time>
      </trkpt>
      <trkpt lat="47.12839" lon="5.21158">
        <ele>183</ele>
        <time>2012-06-19T13:01:56Z</time>
      </trkpt>
      <trkpt lat="47.12838" lon="5.21142">
        <ele>183</ele>
        <time>2012-06-19T13:01:57Z</time>
      </trkpt>
      <trkpt lat="47.12838" lon="5.21127">
        <ele>183</ele>
        <time>2012-06-19T13:01:58Z</time>
      </trkpt>
      <trkpt lat="47.1284" lon="5.21113">
        <ele>183</ele>
        <time>2012-06-19T13:01:59Z</time>
      </trkpt>
      <trkpt lat="47.12841" lon="5.21097">
        <ele>183</ele>
        <time>2012-06-19T13:02:00Z</time>
      </trkpt>
      <trkpt lat="47.12843" lon="5.21084">
        <ele>183</ele>
        <time>2012-06-19T13:02:01Z</time>
      </trkpt>
      <trkpt lat="47.12848" lon="5.2106">
        <ele>183</ele>
        <time>2012-06-19T13:02:03Z</time>
      </trkpt>
      <trkpt lat="47.12855" lon="5.21038">
        <ele>183</ele>
        <time>2012-06-19T13:02:05Z</time>
      </trkpt>
      <trkpt lat="47.12862" lon="5.21018">
        <ele>183</ele>
        <time>2012-06-19T13:02:07Z</time>
      </trkpt>
      <trkpt lat="47.1287" lon="5.20999">
        <ele>183</ele>
        <time>2012-06-19T13:02:09Z</time>
      </trkpt>
      <trkpt lat="47.1288" lon="5.20981">
        <ele>183</ele>
        <time>2012-06-19T13:02:11Z</time>
      </trkpt>
      <trkpt lat="47.12891" lon="5.20964">
        <ele>183</ele>
        <time>2012-06-19T13:02:13Z</time>
      </trkpt>
      <trkpt lat="47.12902" lon="5.20947">
        <ele>183</ele>
        <time>2012-06-19T13:02:15Z</time>
      </trkpt>
      <trkpt lat="47.12914" lon="5.20934">
        <ele>183</ele>
        <time>2012-06-19T13:02:17Z</time>
      </trkpt>
      <trkpt lat="47.12927" lon="5.2092">
        <ele>183</ele>
        <time>2012-06-19T13:02:19Z</time>
      </trkpt>
      <trkpt lat="47.12939" lon="5.20908">
        <ele>183</ele>
        <time>2012-06-19T13:02:21Z</time>
      </trkpt>
      <trkpt lat="47.12951" lon="5.20895">
        <ele>183</ele>
        <time>2012-06-19T13:02:23Z</time>
      </trkpt>
      <trkpt lat="47.12962" lon="5.20883">
        <ele>183</ele>
        <time>2012-06-19T13:02:25Z</time>
      </trkpt>
      <trkpt lat="47.12973" lon="5.20871">
        <ele>183</ele>
        <time>2012-06-19T13:02:27Z</time>
      </trkpt>
      <trkpt lat="47.12984" lon="5.20858">
        <ele>183</ele>
        <time>2012-06-19T13:02:29Z</time>
      </trkpt>
      <trkpt lat="47.12996" lon="5.20846">
        <ele>183</ele>
        <time>2012-06-19T13:02:31Z</time>
      </trkpt>
      <trkpt lat="47.13008" lon="5.20832">
        <ele>183</ele>
        <time>2012-06-19T13:02:33Z</time>
      </trkpt>
      <trkpt lat="47.13019" lon="5.2082">
        <ele>183</ele>
        <time>2012-06-19T13:02:35Z</time>
      </trkpt>
      <trkpt lat="47.13031" lon="5.20807">
        <ele>183</ele>
        <time>2012-06-19T13:02:37Z</time>
      </trkpt>
      <trkpt lat="47.13043" lon="5.20795">
        <ele>183</ele>
        <time>2012-06-19T13:02:39Z</time>
      </trkpt>
      <trkpt lat="47.13055" lon="5.20781">
        <ele>183</ele>
        <time>2012-06-19T13:02:41Z</time>
      </trkpt>
      <trkpt lat="47.13067" lon="5.20768">
        <ele>183</ele>
        <time>2012-06-19T13:02:43Z</time>
      </trkpt>
      <trkpt lat="47.1308" lon="5.20754">
        <ele>183</ele>
        <time>2012-06-19T13:02:45Z</time>
      </trkpt>
      <trkpt lat="47.13092" lon="5.20742">
        <ele>183</ele>
        <time>2012-06-19T13:02:47Z</time>
      </trkpt>
      <trkpt lat="47.13103" lon="5.20729">
        <ele>183</ele>
        <time>2012-06-19T13:02:49Z</time>
      </trkpt>
      <trkpt lat="47.13112" lon="5.20715">
        <ele>183</ele>
        <time>2012-06-19T13:02:51Z</time>
      </trkpt>
      <trkpt lat="47.13122" lon="5.207">
        <ele>183</ele>
        <time>2012-06-19T13:02:53Z</time>
      </trkpt>
      <trkpt lat="47.13129" lon="5.20686">
        <ele>183</ele>
        <time>2012-06-19T13:02:55Z</time>
      </trkpt>
      <trkpt lat="47.13135" lon="5.20672">
        <ele>183</ele>
        <time>2012-06-19T13:02:57Z</time>
      </trkpt>
      <trkpt lat="47.13141" lon="5.20656">
        <ele>183</ele>
        <time>2012-06-19T13:02:59Z</time>
      </trkpt>
      <trkpt lat="47.13147" lon="5.20638">
        <ele>183</ele>
        <time>2012-06-19T13:03:01Z</time>
      </trkpt>
      <trkpt lat="47.13154" lon="5.20621">
        <ele>183</ele>
        <time>2012-06-19T13:03:03Z</time>
      </trkpt>
      <trkpt lat="47.1316" lon="5.20603">
        <ele>183</ele>
        <time>2012-06-19T13:03:05Z</time>
      </trkpt>
      <trkpt lat="47.13166" lon="5.20585">
        <ele>183</ele>
        <time>2012-06-19T13:03:07Z</time>
      </trkpt>
      <trkpt lat="47.13172" lon="5.20565">
        <ele>183</ele>
        <time>2012-06-19T13:03:09Z</time>
      </trkpt>
      <trkpt lat="47.13179" lon="5.20546">
        <ele>183</ele>
        <time>2012-06-19T13:03:11Z</time>
      </trkpt>
      <trkpt lat="47.13185" lon="5.20527">
        <ele>183</ele>
        <time>2012-06-19T13:03:13Z</time>
      </trkpt>
      <trkpt lat="47.13192" lon="5.20508">
        <ele>183</ele>
        <time>2012-06-19T13:03:15Z</time>
      </trkpt>
      <trkpt lat="47.13198" lon="5.20488">
        <ele>183</ele>
        <time>2012-06-19T13:03:17Z</time>
      </trkpt>
      <trkpt lat="47.13205" lon="5.20469">
        <ele>183</ele>
        <time>2012-06-19T13:03:19Z</time>
      </trkpt>
      <trkpt lat="47.13212" lon="5.20449">
        <ele>183</ele>
        <time>2012-06-19T13:03:21Z</time>
      </trkpt>
      <trkpt lat="47.13219" lon="5.20428">
        <ele>183</ele>
        <time>2012-06-19T13:03:23Z</time>
      </trkpt>
      <trkpt lat="47.13225" lon="5.20408">
        <ele>183</ele>
        <time>2012-06-19T13:03:25Z</time>
      </trkpt>
      <trkpt lat="47.13233" lon="5.20388">
        <ele>183</ele>
        <time>2012-06-19T13:03:27Z</time>
      </trkpt>
      <trkpt lat="47.1324" lon="5.20368">
        <ele>183</ele>
        <time>2012-06-19T13:03:29Z</time>
      </trkpt>
      <trkpt lat="47.13247" lon="5.20347">
        <ele>183</ele>
        <time>2012-06-19T13:03:31Z</time>
      </trkpt>
      <trkpt lat="47.13254" lon="5.20327">
        <ele>183</ele>
        <time>2012-06-19T13:03:33Z</time>
      </trkpt>
      <trkpt lat="47.13261" lon="5.20307">
        <ele>183</ele>
        <time>2012-06-19T13:03:35Z</time>
      </trkpt>
      <trkpt lat="47.13268" lon="5.20286">
        <ele>183</ele>
        <time>2012-06-19T13:03:37Z</time>
      </trkpt>
      <trkpt lat="47.13275" lon="5.20266">
        <ele>183</ele>
        <time>2012-06-19T13:03:39Z</time>
      </trkpt>
      <trkpt lat="47.13282" lon="5.20245">
        <ele>183</ele>
        <time>2012-06-19T13:03:41Z</time>
      </trkpt>
      <trkpt lat="47.1329" lon="5.20224">
        <ele>183</ele>
        <time>2012-06-19T13:03:43Z</time>
      </trkpt>
      <trkpt lat="47.13298" lon="5.20203">
        <ele>183</ele>
        <time>2012-06-19T13:03:45Z</time>
      </trkpt>
      <trkpt lat="47.13305" lon="5.20182">
        <ele>183</ele>
        <time>2012-06-19T13:03:47Z</time>
      </trkpt>
      <trkpt lat="47.13311" lon="5.20161">
        <ele>183</ele>
        <time>2012-06-19T13:03:49Z</time>
      </trkpt>
      <trkpt lat="47.13317" lon="5.20139">
        <ele>183</ele>
        <time>2012-06-19T13:03:51Z</time>
      </trkpt>
      <trkpt lat="47.1332" lon="5.20116">
        <ele>183</ele>
        <time>2012-06-19T13:03:53Z</time>
      </trkpt>
      <trkpt lat="47.13321" lon="5.20091">
        <ele>183</ele>
        <time>2012-06-19T13:03:55Z</time>
      </trkpt>
      <trkpt lat="47.13322" lon="5.20066">
        <ele>183</ele>
        <time>2012-06-19T13:03:57Z</time>
      </trkpt>
      <trkpt lat="47.13322" lon="5.20041">
        <ele>183</ele>
        <time>2012-06-19T13:03:59Z</time>
      </trkpt>
      <trkpt lat="47.13322" lon="5.20015">
        <ele>183</ele>
        <time>2012-06-19T13:04:01Z</time>
      </trkpt>
      <trkpt lat="47.13321" lon="5.1999">
        <ele>183</ele>
        <time>2012-06-19T13:04:03Z</time>
      </trkpt>
      <trkpt lat="47.13321" lon="5.19965">
        <ele>183</ele>
        <time>2012-06-19T13:04:05Z</time>
      </trkpt>
      <trkpt lat="47.13321" lon="5.19939">
        <ele>183</ele>
        <time>2012-06-19T13:04:07Z</time>
      </trkpt>
      <trkpt lat="47.1332" lon="5.19913">
        <ele>183</ele>
        <time>2012-06-19T13:04:09Z</time>
      </trkpt>
      <trkpt lat="47.1332" lon="5.19889">
        <ele>183</ele>
        <time>2012-06-19T13:04:11Z</time>
      </trkpt>
      <trkpt lat="47.1332" lon="5.19864">
        <ele>183</ele>
        <time>2012-06-19T13:04:13Z</time>
      </trkpt>
      <trkpt lat="47.13321" lon="5.1984">
        <ele>183</ele>
        <time>2012-06-19T13:04:15Z</time>
      </trkpt>
      <trkpt lat="47.13323" lon="5.19816">
        <ele>183</ele>
        <time>2012-06-19T13:04:17Z</time>
      </trkpt>
      <trkpt lat="47.13326" lon="5.19793">
        <ele>183</ele>
        <time>2012-06-19T13:04:19Z</time>
      </trkpt>
      <trkpt lat="47.13333" lon="5.1977">
        <ele>183</ele>
        <time>2012-06-19T13:04:21Z</time>
      </trkpt>
      <trkpt lat="47.13341" lon="5.19748">
        <ele>183</ele>
        <time>2012-06-19T13:04:23Z</time>
      </trkpt>
      <trkpt lat="47.13351" lon="5.19728">
        <ele>183</ele>
        <time>2012-06-19T13:04:25Z</time>
      </trkpt>
      <trkpt lat="47.13361" lon="5.1971">
        <ele>183</ele>
        <time>2012-06-19T13:04:27Z</time>
      </trkpt>
      <trkpt lat="47.13372" lon="5.19693">
        <ele>183</ele>
        <time>2012-06-19T13:04:29Z</time>
      </trkpt>
      <trkpt lat="47.13383" lon="5.19676">
        <ele>183</ele>
        <time>2012-06-19T13:04:31Z</time>
      </trkpt>
      <trkpt lat="47.13394" lon="5.19659">
        <ele>183</ele>
        <time>2012-06-19T13:04:33Z</time>
      </trkpt>
      <trkpt lat="47.13406" lon="5.19642">
        <ele>183</ele>
        <time>2012-06-19T13:04:35Z</time>
      </trkpt>
      <trkpt lat="47.13416" lon="5.19625">
        <ele>183</ele>
        <time>2012-06-19T13:04:37Z</time>
      </trkpt>
      <trkpt lat="47.13426" lon="5.19608">
        <ele>183</ele>
        <time>2012-06-19T13:04:39Z</time>
      </trkpt>
      <trkpt lat="47.13437" lon="5.19592">
        <ele>183</ele>
        <time>2012-06-19T13:04:41Z</time>
      </trkpt>
      <trkpt lat="47.13447" lon="5.19575">
        <ele>183</ele>
        <time>2012-06-19T13:04:43Z</time>
      </trkpt>
      <trkpt lat="47.13458" lon="5.19558">
        <ele>183</ele>
        <time>2012-06-19T13:04:45Z</time>
      </trkpt>
      <trkpt lat="47.13468" lon="5.19541">
        <ele>183</ele>
        <time>2012-06-19T13:04:47Z</time>
      </trkpt>
      <trkpt lat="47.13478" lon="5.19525">
        <ele>183</ele>
        <time>2012-06-19T13:04:49Z</time>
      </trkpt>
      <trkpt lat="47.13489" lon="5.19507">
        <ele>183</ele>
        <time>2012-06-19T13:04:51Z</time>
      </trkpt>
      <trkpt lat="47.135" lon="5.1949">
        <ele>183</ele>
        <time>2012-06-19T13:04:53Z</time>
      </trkpt>
      <trkpt lat="47.13511" lon="5.19473">
        <ele>183</ele>
        <time>2012-06-19T13:04:55Z</time>
      </trkpt>
      <trkpt lat="47.13521" lon="5.19456">
        <ele>183</ele>
        <time>2012-06-19T13:04:57Z</time>
      </trkpt>
      <trkpt lat="47.13532" lon="5.19438">
        <ele>183</ele>
        <time>2012-06-19T13:04:59Z</time>
      </trkpt>
      <trkpt lat="47.13542" lon="5.19422">
        <ele>183</ele>
        <time>2012-06-19T13:05:01Z</time>
      </trkpt>
      <trkpt lat="47.13552" lon="5.19405">
        <ele>183</ele>
        <time>2012-06-19T13:05:03Z</time>
      </trkpt>
      <trkpt lat="47.13562" lon="5.19388">
        <ele>183</ele>
        <time>2012-06-19T13:05:05Z</time>
      </trkpt>
      <trkpt lat="47.13572" lon="5.19372">
        <ele>183</ele>
        <time>2012-06-19T13:05:07Z</time>
      </trkpt>
      <trkpt lat="47.13582" lon="5.19356">
        <ele>183</ele>
        <time>2012-06-19T13:05:09Z</time>
      </trkpt>
      <trkpt lat="47.13593" lon="5.19338">
        <ele>183</ele>
        <time>2012-06-19T13:05:11Z</time>
      </trkpt>
      <trkpt lat="47.13604" lon="5.19323">
        <ele>183</ele>
        <time>2012-06-19T13:05:13Z</time>
      </trkpt>
      <trkpt lat="47.13615" lon="5.19306">
        <ele>183</ele>
        <time>2012-06-19T13:05:15Z</time>
      </trkpt>
      <trkpt lat="47.13625" lon="5.19288">
        <ele>183</ele>
        <time>2012-06-19T13:05:17Z</time>
      </trkpt>
      <trkpt lat="47.13637" lon="5.1927">
        <ele>183</ele>
        <time>2012-06-19T13:05:19Z</time>
      </trkpt>
      <trkpt lat="47.13648" lon="5.19252">
        <ele>183</ele>
        <time>2012-06-19T13:05:21Z</time>
      </trkpt>
      <trkpt lat="47.13658" lon="5.19235">
        <ele>183</ele>
        <time>2012-06-19T13:05:23Z</time>
      </trkpt>
      <trkpt lat="47.1367" lon="5.19219">
        <ele>183</ele>
        <time>2012-06-19T13:05:25Z</time>
      </trkpt>
      <trkpt lat="47.1368" lon="5.19202">
        <ele>183</ele>
        <time>2012-06-19T13:05:27Z</time>
      </trkpt>
      <trkpt lat="47.13691" lon="5.19185">
        <ele>183</ele>
        <time>2012-06-19T13:05:29Z</time>
      </trkpt>
      <trkpt lat="47.137" lon="5.19169">
        <ele>183</ele>
        <time>2012-06-19T13:05:31Z</time>
      </trkpt>
      <trkpt lat="47.1371" lon="5.19152">
        <ele>183</ele>
        <time>2012-06-19T13:05:33Z</time>
      </trkpt>
      <trkpt lat="47.1372" lon="5.19135">
        <ele>183</ele>
        <time>2012-06-19T13:05:35Z</time>
      </trkpt>
      <trkpt lat="47.1373" lon="5.19118">
        <ele>183</ele>
        <time>2012-06-19T13:05:37Z</time>
      </trkpt>
      <trkpt lat="47.1374" lon="5.19102">
        <ele>183</ele>
        <time>2012-06-19T13:05:39Z</time>
      </trkpt>
      <trkpt lat="47.1375" lon="5.19085">
        <ele>183</ele>
        <time>2012-06-19T13:05:41Z</time>
      </trkpt>
      <trkpt lat="47.1376" lon="5.19069">
        <ele>183</ele>
        <time>2012-06-19T13:05:43Z</time>
      </trkpt>
      <trkpt lat="47.1377" lon="5.19053">
        <ele>188</ele>
        <time>2012-06-19T13:05:45Z</time>
      </trkpt>
      <trkpt lat="47.13781" lon="5.19035">
        <ele>188</ele>
        <time>2012-06-19T13:05:47Z</time>
      </trkpt>
      <trkpt lat="47.13789" lon="5.19017">
        <ele>188</ele>
        <time>2012-06-19T13:05:49Z</time>
      </trkpt>
      <trkpt lat="47.13794" lon="5.18997">
        <ele>188</ele>
        <time>2012-06-19T13:05:51Z</time>
      </trkpt>
      <trkpt lat="47.13794" lon="5.18976">
        <ele>188</ele>
        <time>2012-06-19T13:05:53Z</time>
      </trkpt>
      <trkpt lat="47.1379" lon="5.18954">
        <ele>188</ele>
        <time>2012-06-19T13:05:55Z</time>
      </trkpt>
      <trkpt lat="47.13784" lon="5.18934">
        <ele>188</ele>
        <time>2012-06-19T13:05:57Z</time>
      </trkpt>
      <trkpt lat="47.13777" lon="5.18915">
        <ele>188</ele>
        <time>2012-06-19T13:05:59Z</time>
      </trkpt>
      <trkpt lat="47.1377" lon="5.18896">
        <ele>188</ele>
        <time>2012-06-19T13:06:01Z</time>
      </trkpt>
      <trkpt lat="47.13762" lon="5.18876">
        <ele>188</ele>
        <time>2012-06-19T13:06:03Z</time>
      </trkpt>
      <trkpt lat="47.13754" lon="5.18856">
        <ele>188</ele>
        <time>2012-06-19T13:06:05Z</time>
      </trkpt>
      <trkpt lat="47.13746" lon="5.18836">
        <ele>188</ele>
        <time>2012-06-19T13:06:07Z</time>
      </trkpt>
      <trkpt lat="47.13738" lon="5.18817">
        <ele>188</ele>
        <time>2012-06-19T13:06:09Z</time>
      </trkpt>
      <trkpt lat="47.13731" lon="5.18796">
        <ele>188</ele>
        <time>2012-06-19T13:06:11Z</time>
      </trkpt>
      <trkpt lat="47.13725" lon="5.18775">
        <ele>188</ele>
        <time>2012-06-19T13:06:13Z</time>
      </trkpt>
      <trkpt lat="47.13718" lon="5.18756">
        <ele>188</ele>
        <time>2012-06-19T13:06:15Z</time>
      </trkpt>
      <trkpt lat="47.13711" lon="5.18736">
        <ele>188</ele>
        <time>2012-06-19T13:06:17Z</time>
      </trkpt>
      <trkpt lat="47.13703" lon="5.18715">
        <ele>188</ele>
        <time>2012-06-19T13:06:19Z</time>
      </trkpt>
      <trkpt lat="47.13695" lon="5.18694">
        <ele>188</ele>
        <time>2012-06-19T13:06:21Z</time>
      </trkpt>
      <trkpt lat="47.13688" lon="5.18673">
        <ele>188</ele>
        <time>2012-06-19T13:06:23Z</time>
      </trkpt>
      <trkpt lat="47.13681" lon="5.18651">
        <ele>188</ele>
        <time>2012-06-19T13:06:25Z</time>
      </trkpt>
      <trkpt lat="47.13674" lon="5.18631">
        <ele>188</ele>
        <time>2012-06-19T13:06:27Z</time>
      </trkpt>
      <trkpt lat="47.13667" lon="5.1861">
        <ele>188</ele>
        <time>2012-06-19T13:06:29Z</time>
      </trkpt>
      <trkpt lat="47.13659" lon="5.18589">
        <ele>188</ele>
        <time>2012-06-19T13:06:31Z</time>
      </trkpt>
      <trkpt lat="47.13653" lon="5.18568">
        <ele>188</ele>
        <time>2012-06-19T13:06:33Z</time>
      </trkpt>
      <trkpt lat="47.13646" lon="5.18545">
        <ele>188</ele>
        <time>2012-06-19T13:06:35Z</time>
      </trkpt>
      <trkpt lat="47.13639" lon="5.18524">
        <ele>188</ele>
        <time>2012-06-19T13:06:37Z</time>
      </trkpt>
      <trkpt lat="47.13632" lon="5.18503">
        <ele>188</ele>
        <time>2012-06-19T13:06:39Z</time>
      </trkpt>
      <trkpt lat="47.13626" lon="5.18483">
        <ele>188</ele>
        <time>2012-06-19T13:06:41Z</time>
      </trkpt>
      <trkpt lat="47.13621" lon="5.18462">
        <ele>188</ele>
        <time>2012-06-19T13:06:43Z</time>
      </trkpt>
      <trkpt lat="47.13613" lon="5.18443">
        <ele>188</ele>
        <time>2012-06-19T13:06:45Z</time>
      </trkpt>
      <trkpt lat="47.13605" lon="5.18424">
        <ele>188</ele>
        <time>2012-06-19T13:06:47Z</time>
      </trkpt>
      <trkpt lat="47.13599" lon="5.18406">
        <ele>188</ele>
        <time>2012-06-19T13:06:49Z</time>
      </trkpt>
      <trkpt lat="47.13592" lon="5.18387">
        <ele>188</ele>
        <time>2012-06-19T13:06:51Z</time>
      </trkpt>
      <trkpt lat="47.13588" lon="5.18366">
        <ele>188</ele>
        <time>2012-06-19T13:06:53Z</time>
      </trkpt>
      <trkpt lat="47.13583" lon="5.18343">
        <ele>188</ele>
        <time>2012-06-19T13:06:55Z</time>
      </trkpt>
      <trkpt lat="47.13579" lon="5.18321">
        <ele>188</ele>
        <time>2012-06-19T13:06:57Z</time>
      </trkpt>
      <trkpt lat="47.13575" lon="5.18298">
        <ele>188</ele>
        <time>2012-06-19T13:06:59Z</time>
      </trkpt>
      <trkpt lat="47.1357" lon="5.18277">
        <ele>188</ele>
        <time>2012-06-19T13:07:01Z</time>
      </trkpt>
      <trkpt lat="47.13565" lon="5.18256">
        <ele>188</ele>
        <time>2012-06-19T13:07:03Z</time>
      </trkpt>
      <trkpt lat="47.13559" lon="5.18237">
        <ele>188</ele>
        <time>2012-06-19T13:07:05Z</time>
      </trkpt>
      <trkpt lat="47.13553" lon="5.18217">
        <ele>188</ele>
        <time>2012-06-19T13:07:07Z</time>
      </trkpt>
      <trkpt lat="47.13547" lon="5.18199">
        <ele>188</ele>
        <time>2012-06-19T13:07:09Z</time>
      </trkpt>
      <trkpt lat="47.1354" lon="5.1818">
        <ele>188</ele>
        <time>2012-06-19T13:07:11Z</time>
      </trkpt>
      <trkpt lat="47.13534" lon="5.18161">
        <ele>188</ele>
        <time>2012-06-19T13:07:13Z</time>
      </trkpt>
      <trkpt lat="47.13527" lon="5.18142">
        <ele>188</ele>
        <time>2012-06-19T13:07:15Z</time>
      </trkpt>
      <trkpt lat="47.1352" lon="5.18123">
        <ele>188</ele>
        <time>2012-06-19T13:07:17Z</time>
      </trkpt>
      <trkpt lat="47.13513" lon="5.18104">
        <ele>188</ele>
        <time>2012-06-19T13:07:19Z</time>
      </trkpt>
      <trkpt lat="47.13507" lon="5.18086">
        <ele>188</ele>
        <time>2012-06-19T13:07:21Z</time>
      </trkpt>
      <trkpt lat="47.135" lon="5.18067">
        <ele>188</ele>
        <time>2012-06-19T13:07:23Z</time>
      </trkpt>
      <trkpt lat="47.13494" lon="5.18049">
        <ele>188</ele>
        <time>2012-06-19T13:07:25Z</time>
      </trkpt>
      <trkpt lat="47.13486" lon="5.18035">
        <ele>188</ele>
        <time>2012-06-19T13:07:27Z</time>
      </trkpt>
      <trkpt lat="47.13479" lon="5.18023">
        <ele>188</ele>
        <time>2012-06-19T13:07:29Z</time>
      </trkpt>
      <trkpt lat="47.13471" lon="5.18014">
        <ele>188</ele>
        <time>2012-06-19T13:07:31Z</time>
      </trkpt>
      <trkpt lat="47.13461" lon="5.18007">
        <ele>188</ele>
        <time>2012-06-19T13:07:33Z</time>
      </trkpt>
      <trkpt lat="47.13452" lon="5.18001">
        <ele>188</ele>
        <time>2012-06-19T13:07:35Z</time>
      </trkpt>
      <trkpt lat="47.13441" lon="5.17994">
        <ele>188</ele>
        <time>2012-06-19T13:07:37Z</time>
      </trkpt>
      <trkpt lat="47.13431" lon="5.17985">
        <ele>188</ele>
        <time>2012-06-19T13:07:39Z</time>
      </trkpt>
      <trkpt lat="47.13421" lon="5.17976">
        <ele>188</ele>
        <time>2012-06-19T13:07:41Z</time>
      </trkpt>
      <trkpt lat="47.13413" lon="5.17966">
        <ele>188</ele>
        <time>2012-06-19T13:07:43Z</time>
      </trkpt>
      <trkpt lat="47.13404" lon="5.17955">
        <ele>188</ele>
        <time>2012-06-19T13:07:45Z</time>
      </trkpt>
      <trkpt lat="47.13395" lon="5.17944">
        <ele>188</ele>
        <time>2012-06-19T13:07:47Z</time>
      </trkpt>
      <trkpt lat="47.13386" lon="5.17933">
        <ele>188</ele>
        <time>2012-06-19T13:07:49Z</time>
      </trkpt>
      <trkpt lat="47.13377" lon="5.17918">
        <ele>188</ele>
        <time>2012-06-19T13:07:51Z</time>
      </trkpt>
      <trkpt lat="47.13369" lon="5.17902">
        <ele>188</ele>
        <time>2012-06-19T13:07:53Z</time>
      </trkpt>
      <trkpt lat="47.13362" lon="5.17886">
        <ele>188</ele>
        <time>2012-06-19T13:07:55Z</time>
      </trkpt>
      <trkpt lat="47.13355" lon="5.17872">
        <ele>188</ele>
        <time>2012-06-19T13:07:57Z</time>
      </trkpt>
      <trkpt lat="47.13348" lon="5.17858">
        <ele>188</ele>
        <time>2012-06-19T13:07:59Z</time>
      </trkpt>
      <trkpt lat="47.13342" lon="5.17845">
        <ele>188</ele>
        <time>2012-06-19T13:08:01Z</time>
      </trkpt>
      <trkpt lat="47.13336" lon="5.17832">
        <ele>188</ele>
        <time>2012-06-19T13:08:03Z</time>
      </trkpt>
      <trkpt lat="47.1333" lon="5.1782">
        <ele>188</ele>
        <time>2012-06-19T13:08:05Z</time>
      </trkpt>
      <trkpt lat="47.13325" lon="5.17807">
        <ele>188</ele>
        <time>2012-06-19T13:08:07Z</time>
      </trkpt>
      <trkpt lat="47.13318" lon="5.17795">
        <ele>188</ele>
        <time>2012-06-19T13:08:09Z</time>
      </trkpt>
      <trkpt lat="47.13312" lon="5.1778">
        <ele>188</ele>
        <time>2012-06-19T13:08:12Z</time>
      </trkpt>
      <trkpt lat="47.13305" lon="5.17767">
        <ele>188</ele>
        <time>2012-06-19T13:08:15Z</time>
      </trkpt>
      <trkpt lat="47.13299" lon="5.17756">
        <ele>188</ele>
        <time>2012-06-19T13:08:18Z</time>
      </trkpt>
      <trkpt lat="47.13293" lon="5.17746">
        <ele>188</ele>
        <time>2012-06-19T13:08:21Z</time>
      </trkpt>
      <trkpt lat="47.13284" lon="5.17737">
        <ele>193</ele>
        <time>2012-06-19T13:08:24Z</time>
      </trkpt>
      <trkpt lat="47.13274" lon="5.17729">
        <ele>193</ele>
        <time>2012-06-19T13:08:27Z</time>
      </trkpt>
      <trkpt lat="47.13263" lon="5.17723">
        <ele>193</ele>
        <time>2012-06-19T13:08:30Z</time>
      </trkpt>
      <trkpt lat="47.13252" lon="5.17715">
        <ele>193</ele>
        <time>2012-06-19T13:08:33Z</time>
      </trkpt>
      <trkpt lat="47.13239" lon="5.1771">
        <ele>193</ele>
        <time>2012-06-19T13:08:36Z</time>
      </trkpt>
      <trkpt lat="47.13231" lon="5.17705">
        <ele>193</ele>
        <time>2012-06-19T13:08:38Z</time>
      </trkpt>
      <trkpt lat="47.13222" lon="5.177">
        <ele>193</ele>
        <time>2012-06-19T13:08:40Z</time>
      </trkpt>
      <trkpt lat="47.13212" lon="5.17695">
        <ele>193</ele>
        <time>2012-06-19T13:08:42Z</time>
      </trkpt>
      <trkpt lat="47.13203" lon="5.17689">
        <ele>193</ele>
        <time>2012-06-19T13:08:44Z</time>
      </trkpt>
      <trkpt lat="47.13193" lon="5.17685">
        <ele>193</ele>
        <time>2012-06-19T13:08:46Z</time>
      </trkpt>
      <trkpt lat="47.13185" lon="5.1768">
        <ele>193</ele>
        <time>2012-06-19T13:08:48Z</time>
      </trkpt>
      <trkpt lat="47.13176" lon="5.17676">
        <ele>193</ele>
        <time>2012-06-19T13:08:50Z</time>
      </trkpt>
      <trkpt lat="47.13163" lon="5.17669">
        <ele>193</ele>
        <time>2012-06-19T13:08:53Z</time>
      </trkpt>
      <trkpt lat="47.13152" lon="5.17663">
        <ele>193</ele>
        <time>2012-06-19T13:08:56Z</time>
      </trkpt>
      <trkpt lat="47.13141" lon="5.17658">
        <ele>193</ele>
        <time>2012-06-19T13:08:59Z</time>
      </trkpt>
      <trkpt lat="47.13129" lon="5.17652">
        <ele>193</ele>
        <time>2012-06-19T13:09:02Z</time>
      </trkpt>
      <trkpt lat="47.13117" lon="5.17645">
        <ele>193</ele>
        <time>2012-06-19T13:09:05Z</time>
      </trkpt>
      <trkpt lat="47.13106" lon="5.17638">
        <ele>193</ele>
        <time>2012-06-19T13:09:08Z</time>
      </trkpt>
      <trkpt lat="47.13097" lon="5.17634">
        <ele>193</ele>
        <time>2012-06-19T13:09:10Z</time>
      </trkpt>
      <trkpt lat="47.13089" lon="5.17629">
        <ele>193</ele>
        <time>2012-06-19T13:09:12Z</time>
      </trkpt>
      <trkpt lat="47.13079" lon="5.17624">
        <ele>193</ele>
        <time>2012-06-19T13:09:14Z</time>
      </trkpt>
      <trkpt lat="47.13072" lon="5.17612">
        <ele>193</ele>
        <time>2012-06-19T13:09:16Z</time>
      </trkpt>
      <trkpt lat="47.1307" lon="5.17595">
        <ele>193</ele>
        <time>2012-06-19T13:09:18Z</time>
      </trkpt>
      <trkpt lat="47.13071" lon="5.17577">
        <ele>193</ele>
        <time>2012-06-19T13:09:20Z</time>
      </trkpt>
      <trkpt lat="47.13071" lon="5.17557">
        <ele>193</ele>
        <time>2012-06-19T13:09:22Z</time>
      </trkpt>
      <trkpt lat="47.13073" lon="5.17537">
        <ele>193</ele>
        <time>2012-06-19T13:09:24Z</time>
      </trkpt>
      <trkpt lat="47.13074" lon="5.17517">
        <ele>193</ele>
        <time>2012-06-19T13:09:26Z</time>
      </trkpt>
      <trkpt lat="47.13076" lon="5.17496">
        <ele>193</ele>
        <time>2012-06-19T13:09:28Z</time>
      </trkpt>
      <trkpt lat="47.13078" lon="5.17475">
        <ele>193</ele>
        <time>2012-06-19T13:09:30Z</time>
      </trkpt>
      <trkpt lat="47.13079" lon="5.17454">
        <ele>193</ele>
        <time>2012-06-19T13:09:32Z</time>
      </trkpt>
      <trkpt lat="47.13079" lon="5.17432">
        <ele>193</ele>
        <time>2012-06-19T13:09:34Z</time>
      </trkpt>
      <trkpt lat="47.13081" lon="5.17413">
        <ele>188</ele>
        <time>2012-06-19T13:09:36Z</time>
      </trkpt>
      <trkpt lat="47.13082" lon="5.17392">
        <ele>188</ele>
        <time>2012-06-19T13:09:38Z</time>
      </trkpt>
      <trkpt lat="47.13082" lon="5.17373">
        <ele>188</ele>
        <time>2012-06-19T13:09:40Z</time>
      </trkpt>
      <trkpt lat="47.13084" lon="5.17353">
        <ele>188</ele>
        <time>2012-06-19T13:09:42Z</time>
      </trkpt>
      <trkpt lat="47.13084" lon="5.17333">
        <ele>188</ele>
        <time>2012-06-19T13:09:44Z</time>
      </trkpt>
      <trkpt lat="47.13083" lon="5.17312">
        <ele>188</ele>
        <time>2012-06-19T13:09:46Z</time>
      </trkpt>
      <trkpt lat="47.13082" lon="5.1729">
        <ele>188</ele>
        <time>2012-06-19T13:09:48Z</time>
      </trkpt>
      <trkpt lat="47.1308" lon="5.17268">
        <ele>188</ele>
        <time>2012-06-19T13:09:50Z</time>
      </trkpt>
      <trkpt lat="47.13076" lon="5.17246">
        <ele>188</ele>
        <time>2012-06-19T13:09:52Z</time>
      </trkpt>
      <trkpt lat="47.13071" lon="5.17226">
        <ele>188</ele>
        <time>2012-06-19T13:09:54Z</time>
      </trkpt>
      <trkpt lat="47.13068" lon="5.17206">
        <ele>188</ele>
        <time>2012-06-19T13:09:56Z</time>
      </trkpt>
      <trkpt lat="47.13066" lon="5.17185">
        <ele>188</ele>
        <time>2012-06-19T13:09:58Z</time>
      </trkpt>
      <trkpt lat="47.13063" lon="5.17165">
        <ele>188</ele>
        <time>2012-06-19T13:10:00Z</time>
      </trkpt>
      <trkpt lat="47.1306" lon="5.17145">
        <ele>188</ele>
        <time>2012-06-19T13:10:02Z</time>
      </trkpt>
      <trkpt lat="47.13057" lon="5.17125">
        <ele>188</ele>
        <time>2012-06-19T13:10:04Z</time>
      </trkpt>
      <trkpt lat="47.13054" lon="5.17107">
        <ele>188</ele>
        <time>2012-06-19T13:10:06Z</time>
      </trkpt>
      <trkpt lat="47.13052" lon="5.17088">
        <ele>188</ele>
        <time>2012-06-19T13:10:08Z</time>
      </trkpt>
      <trkpt lat="47.13049" lon="5.1707">
        <ele>188</ele>
        <time>2012-06-19T13:10:10Z</time>
      </trkpt>
      <trkpt lat="47.13046" lon="5.17051">
        <ele>188</ele>
        <time>2012-06-19T13:10:12Z</time>
      </trkpt>
      <trkpt lat="47.13044" lon="5.17033">
        <ele>188</ele>
        <time>2012-06-19T13:10:14Z</time>
      </trkpt>
      <trkpt lat="47.13041" lon="5.17014">
        <ele>188</ele>
        <time>2012-06-19T13:10:16Z</time>
      </trkpt>
      <trkpt lat="47.13038" lon="5.16995">
        <ele>188</ele>
        <time>2012-06-19T13:10:18Z</time>
      </trkpt>
      <trkpt lat="47.13035" lon="5.16975">
        <ele>188</ele>
        <time>2012-06-19T13:10:20Z</time>
      </trkpt>
      <trkpt lat="47.13032" lon="5.16956">
        <ele>188</ele>
        <time>2012-06-19T13:10:22Z</time>
      </trkpt>
      <trkpt lat="47.1303" lon="5.16936">
        <ele>188</ele>
        <time>2012-06-19T13:10:24Z</time>
      </trkpt>
      <trkpt lat="47.13027" lon="5.16917">
        <ele>188</ele>
        <time>2012-06-19T13:10:26Z</time>
      </trkpt>
      <trkpt lat="47.13024" lon="5.16897">
        <ele>188</ele>
        <time>2012-06-19T13:10:28Z</time>
      </trkpt>
      <trkpt lat="47.13021" lon="5.16876">
        <ele>188</ele>
        <time>2012-06-19T13:10:30Z</time>
      </trkpt>
      <trkpt lat="47.13018" lon="5.16855">
        <ele>188</ele>
        <time>2012-06-19T13:10:32Z</time>
      </trkpt>
      <trkpt lat="47.13016" lon="5.16834">
        <ele>188</ele>
        <time>2012-06-19T13:10:34Z</time>
      </trkpt>
      <trkpt lat="47.13013" lon="5.16813">
        <ele>188</ele>
        <time>2012-06-19T13:10:36Z</time>
      </trkpt>
      <trkpt lat="47.1301" lon="5.16793">
        <ele>188</ele>
        <time>2012-06-19T13:10:38Z</time>
      </trkpt>
      <trkpt lat="47.13008" lon="5.16773">
        <ele>188</ele>
        <time>2012-06-19T13:10:40Z</time>
      </trkpt>
      <trkpt lat="47.13005" lon="5.16752">
        <ele>188</ele>
        <time>2012-06-19T13:10:42Z</time>
      </trkpt>
      <trkpt lat="47.13002" lon="5.16732">
        <ele>188</ele>
        <time>2012-06-19T13:10:44Z</time>
      </trkpt>
      <trkpt lat="47.12998" lon="5.16712">
        <ele>188</ele>
        <time>2012-06-19T13:10:46Z</time>
      </trkpt>
      <trkpt lat="47.12996" lon="5.16693">
        <ele>188</ele>
        <time>2012-06-19T13:10:48Z</time>
      </trkpt>
      <trkpt lat="47.12992" lon="5.16674">
        <ele>188</ele>
        <time>2012-06-19T13:10:50Z</time>
      </trkpt>
      <trkpt lat="47.12989" lon="5.16655">
        <ele>188</ele>
        <time>2012-06-19T13:10:52Z</time>
      </trkpt>
      <trkpt lat="47.12984" lon="5.16636">
        <ele>188</ele>
        <time>2012-06-19T13:10:54Z</time>
      </trkpt>
      <trkpt lat="47.12979" lon="5.16617">
        <ele>188</ele>
        <time>2012-06-19T13:10:56Z</time>
      </trkpt>
      <trkpt lat="47.12973" lon="5.16598">
        <ele>193</ele>
        <time>2012-06-19T13:10:58Z</time>
      </trkpt>
      <trkpt lat="47.12967" lon="5.16579">
        <ele>193</ele>
        <time>2012-06-19T13:11:00Z</time>
      </trkpt>
      <trkpt lat="47.12961" lon="5.1656">
        <ele>193</ele>
        <time>2012-06-19T13:11:02Z</time>
      </trkpt>
      <trkpt lat="47.12954" lon="5.16541">
        <ele>193</ele>
        <time>2012-06-19T13:11:04Z</time>
      </trkpt>
      <trkpt lat="47.12948" lon="5.16522">
        <ele>193</ele>
        <time>2012-06-19T13:11:06Z</time>
      </trkpt>
      <trkpt lat="47.12941" lon="5.16503">
        <ele>193</ele>
        <time>2012-06-19T13:11:08Z</time>
      </trkpt>
      <trkpt lat="47.12934" lon="5.16485">
        <ele>193</ele>
        <time>2012-06-19T13:11:10Z</time>
      </trkpt>
      <trkpt lat="47.12928" lon="5.16466">
        <ele>193</ele>
        <time>2012-06-19T13:11:12Z</time>
      </trkpt>
      <trkpt lat="47.12922" lon="5.16446">
        <ele>193</ele>
        <time>2012-06-19T13:11:14Z</time>
      </trkpt>
      <trkpt lat="47.12915" lon="5.16427">
        <ele>193</ele>
        <time>2012-06-19T13:11:16Z</time>
      </trkpt>
      <trkpt lat="47.12907" lon="5.16409">
        <ele>193</ele>
        <time>2012-06-19T13:11:18Z</time>
      </trkpt>
      <trkpt lat="47.12899" lon="5.1639">
        <ele>193</ele>
        <time>2012-06-19T13:11:20Z</time>
      </trkpt>
      <trkpt lat="47.12892" lon="5.16372">
        <ele>193</ele>
        <time>2012-06-19T13:11:22Z</time>
      </trkpt>
      <trkpt lat="47.12884" lon="5.16354">
        <ele>193</ele>
        <time>2012-06-19T13:11:24Z</time>
      </trkpt>
      <trkpt lat="47.12877" lon="5.16336">
        <ele>193</ele>
        <time>2012-06-19T13:11:26Z</time>
      </trkpt>
      <trkpt lat="47.1287" lon="5.16318">
        <ele>193</ele>
        <time>2012-06-19T13:11:28Z</time>
      </trkpt>
      <trkpt lat="47.12864" lon="5.16299">
        <ele>193</ele>
        <time>2012-06-19T13:11:30Z</time>
      </trkpt>
      <trkpt lat="47.12857" lon="5.16281">
        <ele>193</ele>
        <time>2012-06-19T13:11:32Z</time>
      </trkpt>
      <trkpt lat="47.1285" lon="5.16263">
        <ele>193</ele>
        <time>2012-06-19T13:11:34Z</time>
      </trkpt>
      <trkpt lat="47.12843" lon="5.16245">
        <ele>193</ele>
        <time>2012-06-19T13:11:36Z</time>
      </trkpt>
      <trkpt lat="47.12837" lon="5.16226">
        <ele>193</ele>
        <time>2012-06-19T13:11:38Z</time>
      </trkpt>
      <trkpt lat="47.1283" lon="5.16207">
        <ele>193</ele>
        <time>2012-06-19T13:11:40Z</time>
      </trkpt>
      <trkpt lat="47.12824" lon="5.16188">
        <ele>193</ele>
        <time>2012-06-19T13:11:42Z</time>
      </trkpt>
      <trkpt lat="47.12818" lon="5.1617">
        <ele>193</ele>
        <time>2012-06-19T13:11:44Z</time>
      </trkpt>
      <trkpt lat="47.12811" lon="5.16151">
        <ele>193</ele>
        <time>2012-06-19T13:11:46Z</time>
      </trkpt>
      <trkpt lat="47.12807" lon="5.16132">
        <ele>193</ele>
        <time>2012-06-19T13:11:48Z</time>
      </trkpt>
      <trkpt lat="47.12802" lon="5.16114">
        <ele>193</ele>
        <time>2012-06-19T13:11:50Z</time>
      </trkpt>
      <trkpt lat="47.12797" lon="5.16095">
        <ele>193</ele>
        <time>2012-06-19T13:11:52Z</time>
      </trkpt>
      <trkpt lat="47.12793" lon="5.16075">
        <ele>193</ele>
        <time>2012-06-19T13:11:54Z</time>
      </trkpt>
      <trkpt lat="47.12789" lon="5.16054">
        <ele>193</ele>
        <time>2012-06-19T13:11:56Z</time>
      </trkpt>
      <trkpt lat="47.12785" lon="5.16035">
        <ele>193</ele>
        <time>2012-06-19T13:11:58Z</time>
      </trkpt>
      <trkpt lat="47.12781" lon="5.16016">
        <ele>193</ele>
        <time>2012-06-19T13:12:00Z</time>
      </trkpt>
      <trkpt lat="47.12777" lon="5.15997">
        <ele>199</ele>
        <time>2012-06-19T13:12:02Z</time>
      </trkpt>
      <trkpt lat="47.12773" lon="5.15977">
        <ele>199</ele>
        <time>2012-06-19T13:12:04Z</time>
      </trkpt>
      <trkpt lat="47.12769" lon="5.15958">
        <ele>199</ele>
        <time>2012-06-19T13:12:06Z</time>
      </trkpt>
      <trkpt lat="47.12766" lon="5.15939">
        <ele>199</ele>
        <time>2012-06-19T13:12:08Z</time>
      </trkpt>
      <trkpt lat="47.12761" lon="5.1592">
        <ele>199</ele>
        <time>2012-06-19T13:12:10Z</time>
      </trkpt>
      <trkpt lat="47.12757" lon="5.15902">
        <ele>199</ele>
        <time>2012-06-19T13:12:12Z</time>
      </trkpt>
      <trkpt lat="47.12753" lon="5.15883">
        <ele>199</ele>
        <time>2012-06-19T13:12:14Z</time>
      </trkpt>
      <trkpt lat="47.12749" lon="5.15864">
        <ele>199</ele>
        <time>2012-06-19T13:12:16Z</time>
      </trkpt>
      <trkpt lat="47.12745" lon="5.15844">
        <ele>199</ele>
        <time>2012-06-19T13:12:18Z</time>
      </trkpt>
      <trkpt lat="47.12742" lon="5.15823">
        <ele>199</ele>
        <time>2012-06-19T13:12:20Z</time>
      </trkpt>
      <trkpt lat="47.12739" lon="5.15803">
        <ele>199</ele>
        <time>2012-06-19T13:12:22Z</time>
      </trkpt>
      <trkpt lat="47.12737" lon="5.1578">
        <ele>199</ele>
        <time>2012-06-19T13:12:24Z</time>
      </trkpt>
      <trkpt lat="47.12736" lon="5.1576">
        <ele>199</ele>
        <time>2012-06-19T13:12:26Z</time>
      </trkpt>
      <trkpt lat="47.12735" lon="5.15739">
        <ele>199</ele>
        <time>2012-06-19T13:12:28Z</time>
      </trkpt>
      <trkpt lat="47.12734" lon="5.1572">
        <ele>199</ele>
        <time>2012-06-19T13:12:30Z</time>
      </trkpt>
      <trkpt lat="47.12732" lon="5.15701">
        <ele>199</ele>
        <time>2012-06-19T13:12:32Z</time>
      </trkpt>
      <trkpt lat="47.12732" lon="5.15682">
        <ele>199</ele>
        <time>2012-06-19T13:12:34Z</time>
      </trkpt>
      <trkpt lat="47.12732" lon="5.15661">
        <ele>199</ele>
        <time>2012-06-19T13:12:36Z</time>
      </trkpt>
      <trkpt lat="47.12731" lon="5.15642">
        <ele>199</ele>
        <time>2012-06-19T13:12:38Z</time>
      </trkpt>
      <trkpt lat="47.12729" lon="5.15622">
        <ele>199</ele>
        <time>2012-06-19T13:12:40Z</time>
      </trkpt>
      <trkpt lat="47.12728" lon="5.15602">
        <ele>199</ele>
        <time>2012-06-19T13:12:42Z</time>
      </trkpt>
      <trkpt lat="47.12727" lon="5.1558">
        <ele>199</ele>
        <time>2012-06-19T13:12:44Z</time>
      </trkpt>
      <trkpt lat="47.12726" lon="5.15558">
        <ele>199</ele>
        <time>2012-06-19T13:12:46Z</time>
      </trkpt>
      <trkpt lat="47.12724" lon="5.15538">
        <ele>199</ele>
        <time>2012-06-19T13:12:48Z</time>
      </trkpt>
      <trkpt lat="47.12724" lon="5.15517">
        <ele>199</ele>
        <time>2012-06-19T13:12:50Z</time>
      </trkpt>
      <trkpt lat="47.12723" lon="5.15496">
        <ele>199</ele>
        <time>2012-06-19T13:12:52Z</time>
      </trkpt>
      <trkpt lat="47.12723" lon="5.15474">
        <ele>199</ele>
        <time>2012-06-19T13:12:54Z</time>
      </trkpt>
      <trkpt lat="47.12722" lon="5.15453">
        <ele>199</ele>
        <time>2012-06-19T13:12:56Z</time>
      </trkpt>
      <trkpt lat="47.12721" lon="5.1543">
        <ele>199</ele>
        <time>2012-06-19T13:12:58Z</time>
      </trkpt>
      <trkpt lat="47.1272" lon="5.15409">
        <ele>199</ele>
        <time>2012-06-19T13:13:00Z</time>
      </trkpt>
      <trkpt lat="47.12718" lon="5.15388">
        <ele>199</ele>
        <time>2012-06-19T13:13:02Z</time>
      </trkpt>
      <trkpt lat="47.12716" lon="5.15367">
        <ele>199</ele>
        <time>2012-06-19T13:13:04Z</time>
      </trkpt>
      <trkpt lat="47.12716" lon="5.15346">
        <ele>199</ele>
        <time>2012-06-19T13:13:06Z</time>
      </trkpt>
      <trkpt lat="47.12715" lon="5.15323">
        <ele>199</ele>
        <time>2012-06-19T13:13:08Z</time>
      </trkpt>
      <trkpt lat="47.12713" lon="5.15302">
        <ele>199</ele>
        <time>2012-06-19T13:13:10Z</time>
      </trkpt>
      <trkpt lat="47.12712" lon="5.15282">
        <ele>199</ele>
        <time>2012-06-19T13:13:12Z</time>
      </trkpt>
      <trkpt lat="47.1271" lon="5.15261">
        <ele>199</ele>
        <time>2012-06-19T13:13:14Z</time>
      </trkpt>
      <trkpt lat="47.12709" lon="5.15241">
        <ele>199</ele>
        <time>2012-06-19T13:13:16Z</time>
      </trkpt>
      <trkpt lat="47.12707" lon="5.1522">
        <ele>199</ele>
        <time>2012-06-19T13:13:18Z</time>
      </trkpt>
      <trkpt lat="47.12706" lon="5.15198">
        <ele>199</ele>
        <time>2012-06-19T13:13:20Z</time>
      </trkpt>
      <trkpt lat="47.12705" lon="5.15178">
        <ele>199</ele>
        <time>2012-06-19T13:13:22Z</time>
      </trkpt>
      <trkpt lat="47.12704" lon="5.15157">
        <ele>199</ele>
        <time>2012-06-19T13:13:24Z</time>
      </trkpt>
      <trkpt lat="47.12703" lon="5.15137">
        <ele>199</ele>
        <time>2012-06-19T13:13:26Z</time>
      </trkpt>
      <trkpt lat="47.12702" lon="5.15116">
        <ele>199</ele>
        <time>2012-06-19T13:13:28Z</time>
      </trkpt>
      <trkpt lat="47.12702" lon="5.15094">
        <ele>199</ele>
        <time>2012-06-19T13:13:30Z</time>
      </trkpt>
      <trkpt lat="47.127" lon="5.15072">
        <ele>199</ele>
        <time>2012-06-19T13:13:32Z</time>
      </trkpt>
      <trkpt lat="47.12697" lon="5.15052">
        <ele>205</ele>
        <time>2012-06-19T13:13:34Z</time>
      </trkpt>
      <trkpt lat="47.12696" lon="5.15031">
        <ele>205</ele>
        <time>2012-06-19T13:13:36Z</time>
      </trkpt>
      <trkpt lat="47.12694" lon="5.1501">
        <ele>205</ele>
        <time>2012-06-19T13:13:38Z</time>
      </trkpt>
      <trkpt lat="47.12691" lon="5.1499">
        <ele>205</ele>
        <time>2012-06-19T13:13:40Z</time>
      </trkpt>
      <trkpt lat="47.12691" lon="5.14968">
        <ele>205</ele>
        <time>2012-06-19T13:13:42Z</time>
      </trkpt>
      <trkpt lat="47.1269" lon="5.14948">
        <ele>205</ele>
        <time>2012-06-19T13:13:44Z</time>
      </trkpt>
      <trkpt lat="47.12689" lon="5.14928">
        <ele>205</ele>
        <time>2012-06-19T13:13:46Z</time>
      </trkpt>
      <trkpt lat="47.12688" lon="5.14908">
        <ele>205</ele>
        <time>2012-06-19T13:13:48Z</time>
      </trkpt>
      <trkpt lat="47.12685" lon="5.14888">
        <ele>205</ele>
        <time>2012-06-19T13:13:50Z</time>
      </trkpt>
      <trkpt lat="47.12684" lon="5.14868">
        <ele>205</ele>
        <time>2012-06-19T13:13:52Z</time>
      </trkpt>
      <trkpt lat="47.12683" lon="5.14847">
        <ele>205</ele>
        <time>2012-06-19T13:13:54Z</time>
      </trkpt>
      <trkpt lat="47.1268" lon="5.14826">
        <ele>205</ele>
        <time>2012-06-19T13:13:56Z</time>
      </trkpt>
      <trkpt lat="47.12678" lon="5.14805">
        <ele>205</ele>
        <time>2012-06-19T13:13:58Z</time>
      </trkpt>
      <trkpt lat="47.12677" lon="5.14784">
        <ele>205</ele>
        <time>2012-06-19T13:14:00Z</time>
      </trkpt>
      <trkpt lat="47.12673" lon="5.14763">
        <ele>205</ele>
        <time>2012-06-19T13:14:02Z</time>
      </trkpt>
      <trkpt lat="47.12672" lon="5.14742">
        <ele>205</ele>
        <time>2012-06-19T13:14:04Z</time>
      </trkpt>
      <trkpt lat="47.12673" lon="5.1472">
        <ele>205</ele>
        <time>2012-06-19T13:14:06Z</time>
      </trkpt>
      <trkpt lat="47.12673" lon="5.14699">
        <ele>205</ele>
        <time>2012-06-19T13:14:08Z</time>
      </trkpt>
      <trkpt lat="47.12672" lon="5.14679">
        <ele>205</ele>
        <time>2012-06-19T13:14:10Z</time>
      </trkpt>
      <trkpt lat="47.12669" lon="5.14659">
        <ele>205</ele>
        <time>2012-06-19T13:14:12Z</time>
      </trkpt>
      <trkpt lat="47.12667" lon="5.14638">
        <ele>210</ele>
        <time>2012-06-19T13:14:14Z</time>
      </trkpt>
      <trkpt lat="47.12668" lon="5.14617">
        <ele>210</ele>
        <time>2012-06-19T13:14:16Z</time>
      </trkpt>
      <trkpt lat="47.12669" lon="5.14596">
        <ele>210</ele>
        <time>2012-06-19T13:14:18Z</time>
      </trkpt>
      <trkpt lat="47.12669" lon="5.14577">
        <ele>210</ele>
        <time>2012-06-19T13:14:20Z</time>
      </trkpt>
      <trkpt lat="47.12668" lon="5.14557">
        <ele>210</ele>
        <time>2012-06-19T13:14:22Z</time>
      </trkpt>
      <trkpt lat="47.12667" lon="5.14537">
        <ele>210</ele>
        <time>2012-06-19T13:14:24Z</time>
      </trkpt>
      <trkpt lat="47.12664" lon="5.14518">
        <ele>210</ele>
        <time>2012-06-19T13:14:26Z</time>
      </trkpt>
      <trkpt lat="47.12661" lon="5.14499">
        <ele>210</ele>
        <time>2012-06-19T13:14:28Z</time>
      </trkpt>
      <trkpt lat="47.12658" lon="5.1448">
        <ele>210</ele>
        <time>2012-06-19T13:14:30Z</time>
      </trkpt>
      <trkpt lat="47.12655" lon="5.14458">
        <ele>210</ele>
        <time>2012-06-19T13:14:32Z</time>
      </trkpt>
      <trkpt lat="47.12651" lon="5.14437">
        <ele>210</ele>
        <time>2012-06-19T13:14:34Z</time>
      </trkpt>
      <trkpt lat="47.12647" lon="5.14416">
        <ele>210</ele>
        <time>2012-06-19T13:14:36Z</time>
      </trkpt>
      <trkpt lat="47.12643" lon="5.14393">
        <ele>210</ele>
        <time>2012-06-19T13:14:38Z</time>
      </trkpt>
      <trkpt lat="47.1264" lon="5.14371">
        <ele>210</ele>
        <time>2012-06-19T13:14:40Z</time>
      </trkpt>
      <trkpt lat="47.12635" lon="5.14348">
        <ele>210</ele>
        <time>2012-06-19T13:14:42Z</time>
      </trkpt>
      <trkpt lat="47.12631" lon="5.14325">
        <ele>210</ele>
        <time>2012-06-19T13:14:44Z</time>
      </trkpt>
      <trkpt lat="47.12627" lon="5.14303">
        <ele>210</ele>
        <time>2012-06-19T13:14:46Z</time>
      </trkpt>
      <trkpt lat="47.12623" lon="5.14281">
        <ele>210</ele>
        <time>2012-06-19T13:14:48Z</time>
      </trkpt>
      <trkpt lat="47.12619" lon="5.14261">
        <ele>210</ele>
        <time>2012-06-19T13:14:50Z</time>
      </trkpt>
      <trkpt lat="47.12616" lon="5.14241">
        <ele>210</ele>
        <time>2012-06-19T13:14:52Z</time>
      </trkpt>
      <trkpt lat="47.12612" lon="5.1422">
        <ele>210</ele>
        <time>2012-06-19T13:14:54Z</time>
      </trkpt>
      <trkpt lat="47.12608" lon="5.14198">
        <ele>210</ele>
        <time>2012-06-19T13:14:56Z</time>
      </trkpt>
      <trkpt lat="47.12604" lon="5.14175">
        <ele>210</ele>
        <time>2012-06-19T13:14:58Z</time>
      </trkpt>
      <trkpt lat="47.12599" lon="5.14153">
        <ele>210</ele>
        <time>2012-06-19T13:15:00Z</time>
      </trkpt>
      <trkpt lat="47.12595" lon="5.1413">
        <ele>210</ele>
        <time>2012-06-19T13:15:02Z</time>
      </trkpt>
      <trkpt lat="47.12593" lon="5.14109">
        <ele>210</ele>
        <time>2012-06-19T13:15:04Z</time>
      </trkpt>
      <trkpt lat="47.12591" lon="5.14087">
        <ele>210</ele>
        <time>2012-06-19T13:15:06Z</time>
      </trkpt>
      <trkpt lat="47.12588" lon="5.14065">
        <ele>210</ele>
        <time>2012-06-19T13:15:08Z</time>
      </trkpt>
      <trkpt lat="47.12584" lon="5.14045">
        <ele>210</ele>
        <time>2012-06-19T13:15:10Z</time>
      </trkpt>
      <trkpt lat="47.12579" lon="5.14024">
        <ele>210</ele>
        <time>2012-06-19T13:15:12Z</time>
      </trkpt>
      <trkpt lat="47.12573" lon="5.14003">
        <ele>210</ele>
        <time>2012-06-19T13:15:14Z</time>
      </trkpt>
      <trkpt lat="47.12569" lon="5.13983">
        <ele>210</ele>
        <time>2012-06-19T13:15:16Z</time>
      </trkpt>
      <trkpt lat="47.12564" lon="5.13961">
        <ele>210</ele>
        <time>2012-06-19T13:15:18Z</time>
      </trkpt>
      <trkpt lat="47.12558" lon="5.1394">
        <ele>210</ele>
        <time>2012-06-19T13:15:20Z</time>
      </trkpt>
      <trkpt lat="47.12554" lon="5.13918">
        <ele>210</ele>
        <time>2012-06-19T13:15:22Z</time>
      </trkpt>
      <trkpt lat="47.12549" lon="5.13897">
        <ele>210</ele>
        <time>2012-06-19T13:15:24Z</time>
      </trkpt>
      <trkpt lat="47.12545" lon="5.13874">
        <ele>210</ele>
        <time>2012-06-19T13:15:26Z</time>
      </trkpt>
      <trkpt lat="47.12542" lon="5.13853">
        <ele>210</ele>
        <time>2012-06-19T13:15:28Z</time>
      </trkpt>
      <trkpt lat="47.12537" lon="5.1383">
        <ele>210</ele>
        <time>2012-06-19T13:15:30Z</time>
      </trkpt>
      <trkpt lat="47.12535" lon="5.13809">
        <ele>210</ele>
        <time>2012-06-19T13:15:32Z</time>
      </trkpt>
      <trkpt lat="47.12531" lon="5.13788">
        <ele>210</ele>
        <time>2012-06-19T13:15:34Z</time>
      </trkpt>
      <trkpt lat="47.12529" lon="5.13765">
        <ele>210</ele>
        <time>2012-06-19T13:15:36Z</time>
      </trkpt>
      <trkpt lat="47.12526" lon="5.13743">
        <ele>210</ele>
        <time>2012-06-19T13:15:38Z</time>
      </trkpt>
      <trkpt lat="47.12526" lon="5.13721">
        <ele>210</ele>
        <time>2012-06-19T13:15:40Z</time>
      </trkpt>
      <trkpt lat="47.12527" lon="5.13698">
        <ele>210</ele>
        <time>2012-06-19T13:15:42Z</time>
      </trkpt>
      <trkpt lat="47.1253" lon="5.13676">
        <ele>210</ele>
        <time>2012-06-19T13:15:44Z</time>
      </trkpt>
      <trkpt lat="47.12534" lon="5.13654">
        <ele>210</ele>
        <time>2012-06-19T13:15:46Z</time>
      </trkpt>
      <trkpt lat="47.12541" lon="5.13632">
        <ele>210</ele>
        <time>2012-06-19T13:15:48Z</time>
      </trkpt>
      <trkpt lat="47.12545" lon="5.13609">
        <ele>210</ele>
        <time>2012-06-19T13:15:50Z</time>
      </trkpt>
      <trkpt lat="47.12551" lon="5.13586">
        <ele>210</ele>
        <time>2012-06-19T13:15:52Z</time>
      </trkpt>
      <trkpt lat="47.12557" lon="5.13565">
        <ele>210</ele>
        <time>2012-06-19T13:15:54Z</time>
      </trkpt>
      <trkpt lat="47.12565" lon="5.13543">
        <ele>210</ele>
        <time>2012-06-19T13:15:56Z</time>
      </trkpt>
      <trkpt lat="47.1257" lon="5.13521">
        <ele>210</ele>
        <time>2012-06-19T13:15:58Z</time>
      </trkpt>
      <trkpt lat="47.12576" lon="5.13499">
        <ele>210</ele>
        <time>2012-06-19T13:16:00Z</time>
      </trkpt>
      <trkpt lat="47.12582" lon="5.13476">
        <ele>210</ele>
        <time>2012-06-19T13:16:02Z</time>
      </trkpt>
      <trkpt lat="47.12588" lon="5.13456">
        <ele>210</ele>
        <time>2012-06-19T13:16:04Z</time>
      </trkpt>
      <trkpt lat="47.12593" lon="5.13435">
        <ele>210</ele>
        <time>2012-06-19T13:16:06Z</time>
      </trkpt>
      <trkpt lat="47.12599" lon="5.13413">
        <ele>210</ele>
        <time>2012-06-19T13:16:08Z</time>
      </trkpt>
      <trkpt lat="47.12604" lon="5.13394">
        <ele>210</ele>
        <time>2012-06-19T13:16:10Z</time>
      </trkpt>
      <trkpt lat="47.12609" lon="5.13373">
        <ele>210</ele>
        <time>2012-06-19T13:16:12Z</time>
      </trkpt>
      <trkpt lat="47.12613" lon="5.13352">
        <ele>210</ele>
        <time>2012-06-19T13:16:14Z</time>
      </trkpt>
      <trkpt lat="47.12618" lon="5.13332">
        <ele>210</ele>
        <time>2012-06-19T13:16:16Z</time>
      </trkpt>
      <trkpt lat="47.12623" lon="5.13311">
        <ele>210</ele>
        <time>2012-06-19T13:16:18Z</time>
      </trkpt>
      <trkpt lat="47.12628" lon="5.13289">
        <ele>210</ele>
        <time>2012-06-19T13:16:20Z</time>
      </trkpt>
      <trkpt lat="47.12633" lon="5.13269">
        <ele>210</ele>
        <time>2012-06-19T13:16:22Z</time>
      </trkpt>
      <trkpt lat="47.12639" lon="5.13247">
        <ele>210</ele>
        <time>2012-06-19T13:16:24Z</time>
      </trkpt>
      <trkpt lat="47.12642" lon="5.13224">
        <ele>210</ele>
        <time>2012-06-19T13:16:26Z</time>
      </trkpt>
      <trkpt lat="47.12647" lon="5.13202">
        <ele>210</ele>
        <time>2012-06-19T13:16:28Z</time>
      </trkpt>
      <trkpt lat="47.12651" lon="5.13181">
        <ele>210</ele>
        <time>2012-06-19T13:16:30Z</time>
      </trkpt>
      <trkpt lat="47.12656" lon="5.13158">
        <ele>210</ele>
        <time>2012-06-19T13:16:32Z</time>
      </trkpt>
      <trkpt lat="47.1266" lon="5.13135">
        <ele>210</ele>
        <time>2012-06-19T13:16:34Z</time>
      </trkpt>
      <trkpt lat="47.12664" lon="5.13113">
        <ele>210</ele>
        <time>2012-06-19T13:16:36Z</time>
      </trkpt>
      <trkpt lat="47.12669" lon="5.1309">
        <ele>210</ele>
        <time>2012-06-19T13:16:38Z</time>
      </trkpt>
      <trkpt lat="47.12673" lon="5.13067">
        <ele>210</ele>
        <time>2012-06-19T13:16:40Z</time>
      </trkpt>
      <trkpt lat="47.12678" lon="5.13043">
        <ele>210</ele>
        <time>2012-06-19T13:16:42Z</time>
      </trkpt>
      <trkpt lat="47.12682" lon="5.13019">
        <ele>210</ele>
        <time>2012-06-19T13:16:44Z</time>
      </trkpt>
      <trkpt lat="47.12685" lon="5.13006">
        <ele>210</ele>
        <time>2012-06-19T13:16:45Z</time>
      </trkpt>
      <trkpt lat="47.12689" lon="5.12983">
        <ele>210</ele>
        <time>2012-06-19T13:16:47Z</time>
      </trkpt>
      <trkpt lat="47.12693" lon="5.12961">
        <ele>210</ele>
        <time>2012-06-19T13:16:49Z</time>
      </trkpt>
      <trkpt lat="47.12697" lon="5.12938">
        <ele>210</ele>
        <time>2012-06-19T13:16:51Z</time>
      </trkpt>
      <trkpt lat="47.12702" lon="5.12915">
        <ele>210</ele>
        <time>2012-06-19T13:16:53Z</time>
      </trkpt>
      <trkpt lat="47.12705" lon="5.12902">
        <ele>210</ele>
        <time>2012-06-19T13:16:54Z</time>
      </trkpt>
      <trkpt lat="47.12708" lon="5.12879">
        <ele>210</ele>
        <time>2012-06-19T13:16:56Z</time>
      </trkpt>
      <trkpt lat="47.12712" lon="5.12854">
        <ele>210</ele>
        <time>2012-06-19T13:16:58Z</time>
      </trkpt>
      <trkpt lat="47.12716" lon="5.12831">
        <ele>210</ele>
        <time>2012-06-19T13:17:00Z</time>
      </trkpt>
      <trkpt lat="47.1272" lon="5.1281">
        <ele>210</ele>
        <time>2012-06-19T13:17:02Z</time>
      </trkpt>
      <trkpt lat="47.12724" lon="5.12787">
        <ele>210</ele>
        <time>2012-06-19T13:17:04Z</time>
      </trkpt>
      <trkpt lat="47.12727" lon="5.12764">
        <ele>210</ele>
        <time>2012-06-19T13:17:06Z</time>
      </trkpt>
      <trkpt lat="47.12731" lon="5.12739">
        <ele>210</ele>
        <time>2012-06-19T13:17:08Z</time>
      </trkpt>
      <trkpt lat="47.12731" lon="5.12725">
        <ele>210</ele>
        <time>2012-06-19T13:17:09Z</time>
      </trkpt>
      <trkpt lat="47.12731" lon="5.12712">
        <ele>210</ele>
        <time>2012-06-19T13:17:10Z</time>
      </trkpt>
      <trkpt lat="47.1273" lon="5.12697">
        <ele>210</ele>
        <time>2012-06-19T13:17:11Z</time>
      </trkpt>
      <trkpt lat="47.12729" lon="5.12683">
        <ele>210</ele>
        <time>2012-06-19T13:17:12Z</time>
      </trkpt>
      <trkpt lat="47.12728" lon="5.12669">
        <ele>210</ele>
        <time>2012-06-19T13:17:13Z</time>
      </trkpt>
      <trkpt lat="47.12725" lon="5.12656">
        <ele>210</ele>
        <time>2012-06-19T13:17:14Z</time>
      </trkpt>
      <trkpt lat="47.12722" lon="5.12642">
        <ele>210</ele>
        <time>2012-06-19T13:17:15Z</time>
      </trkpt>
      <trkpt lat="47.12718" lon="5.12628">
        <ele>210</ele>
        <time>2012-06-19T13:17:16Z</time>
      </trkpt>
      <trkpt lat="47.12714" lon="5.12616">
        <ele>210</ele>
        <time>2012-06-19T13:17:17Z</time>
      </trkpt>
      <trkpt lat="47.1271" lon="5.12602">
        <ele>210</ele>
        <time>2012-06-19T13:17:18Z</time>
      </trkpt>
      <trkpt lat="47.12704" lon="5.1259">
        <ele>210</ele>
        <time>2012-06-19T13:17:19Z</time>
      </trkpt>
      <trkpt lat="47.12699" lon="5.12578">
        <ele>210</ele>
        <time>2012-06-19T13:17:20Z</time>
      </trkpt>
      <trkpt lat="47.12694" lon="5.12566">
        <ele>210</ele>
        <time>2012-06-19T13:17:21Z</time>
      </trkpt>
      <trkpt lat="47.12688" lon="5.12554">
        <ele>210</ele>
        <time>2012-06-19T13:17:22Z</time>
      </trkpt>
      <trkpt lat="47.12683" lon="5.12543">
        <ele>210</ele>
        <time>2012-06-19T13:17:23Z</time>
      </trkpt>
      <trkpt lat="47.12678" lon="5.12531">
        <ele>210</ele>
        <time>2012-06-19T13:17:24Z</time>
      </trkpt>
      <trkpt lat="47.12674" lon="5.12519">
        <ele>210</ele>
        <time>2012-06-19T13:17:25Z</time>
      </trkpt>
      <trkpt lat="47.12669" lon="5.12506">
        <ele>210</ele>
        <time>2012-06-19T13:17:26Z</time>
      </trkpt>
      <trkpt lat="47.12665" lon="5.12494">
        <ele>210</ele>
        <time>2012-06-19T13:17:27Z</time>
      </trkpt>
      <trkpt lat="47.12661" lon="5.12483">
        <ele>210</ele>
        <time>2012-06-19T13:17:28Z</time>
      </trkpt>
      <trkpt lat="47.12656" lon="5.12471">
        <ele>210</ele>
        <time>2012-06-19T13:17:29Z</time>
      </trkpt>
      <trkpt lat="47.12651" lon="5.12459">
        <ele>210</ele>
        <time>2012-06-19T13:17:30Z</time>
      </trkpt>
      <trkpt lat="47.12642" lon="5.12437">
        <ele>210</ele>
        <time>2012-06-19T13:17:32Z</time>
      </trkpt>
      <trkpt lat="47.12634" lon="5.12416">
        <ele>210</ele>
        <time>2012-06-19T13:17:34Z</time>
      </trkpt>
      <trkpt lat="47.12624" lon="5.12393">
        <ele>210</ele>
        <time>2012-06-19T13:17:36Z</time>
      </trkpt>
      <trkpt lat="47.12617" lon="5.1237">
        <ele>210</ele>
        <time>2012-06-19T13:17:38Z</time>
      </trkpt>
      <trkpt lat="47.12612" lon="5.12359">
        <ele>210</ele>
        <time>2012-06-19T13:17:39Z</time>
      </trkpt>
      <trkpt lat="47.12607" lon="5.12347">
        <ele>210</ele>
        <time>2012-06-19T13:17:40Z</time>
      </trkpt>
      <trkpt lat="47.12602" lon="5.12335">
        <ele>210</ele>
        <time>2012-06-19T13:17:41Z</time>
      </trkpt>
      <trkpt lat="47.12598" lon="5.12324">
        <ele>210</ele>
        <time>2012-06-19T13:17:42Z</time>
      </trkpt>
      <trkpt lat="47.12591" lon="5.12302">
        <ele>210</ele>
        <time>2012-06-19T13:17:44Z</time>
      </trkpt>
      <trkpt lat="47.12586" lon="5.1229">
        <ele>210</ele>
        <time>2012-06-19T13:17:45Z</time>
      </trkpt>
      <trkpt lat="47.12579" lon="5.1227">
        <ele>210</ele>
        <time>2012-06-19T13:17:47Z</time>
      </trkpt>
      <trkpt lat="47.12571" lon="5.1225">
        <ele>210</ele>
        <time>2012-06-19T13:17:49Z</time>
      </trkpt>
      <trkpt lat="47.12563" lon="5.12228">
        <ele>210</ele>
        <time>2012-06-19T13:17:51Z</time>
      </trkpt>
      <trkpt lat="47.12556" lon="5.12209">
        <ele>210</ele>
        <time>2012-06-19T13:17:53Z</time>
      </trkpt>
      <trkpt lat="47.12548" lon="5.1219">
        <ele>210</ele>
        <time>2012-06-19T13:17:55Z</time>
      </trkpt>
      <trkpt lat="47.12544" lon="5.12175">
        <ele>210</ele>
        <time>2012-06-19T13:17:57Z</time>
      </trkpt>
      <trkpt lat="47.12537" lon="5.12157">
        <ele>210</ele>
        <time>2012-06-19T13:17:59Z</time>
      </trkpt>
      <trkpt lat="47.12531" lon="5.12139">
        <ele>210</ele>
        <time>2012-06-19T13:18:01Z</time>
      </trkpt>
      <trkpt lat="47.12525" lon="5.12121">
        <ele>210</ele>
        <time>2012-06-19T13:18:03Z</time>
      </trkpt>
      <trkpt lat="47.12518" lon="5.12101">
        <ele>210</ele>
        <time>2012-06-19T13:18:05Z</time>
      </trkpt>
      <trkpt lat="47.12512" lon="5.12081">
        <ele>210</ele>
        <time>2012-06-19T13:18:07Z</time>
      </trkpt>
      <trkpt lat="47.1251" lon="5.1206">
        <ele>210</ele>
        <time>2012-06-19T13:18:09Z</time>
      </trkpt>
      <trkpt lat="47.12503" lon="5.12038">
        <ele>210</ele>
        <time>2012-06-19T13:18:11Z</time>
      </trkpt>
      <trkpt lat="47.12495" lon="5.12016">
        <ele>210</ele>
        <time>2012-06-19T13:18:13Z</time>
      </trkpt>
      <trkpt lat="47.12486" lon="5.11994">
        <ele>210</ele>
        <time>2012-06-19T13:18:15Z</time>
      </trkpt>
      <trkpt lat="47.12477" lon="5.11972">
        <ele>210</ele>
        <time>2012-06-19T13:18:17Z</time>
      </trkpt>
      <trkpt lat="47.12468" lon="5.11951">
        <ele>210</ele>
        <time>2012-06-19T13:18:19Z</time>
      </trkpt>
      <trkpt lat="47.12463" lon="5.11939">
        <ele>210</ele>
        <time>2012-06-19T13:18:20Z</time>
      </trkpt>
      <trkpt lat="47.12455" lon="5.11918">
        <ele>210</ele>
        <time>2012-06-19T13:18:22Z</time>
      </trkpt>
      <trkpt lat="47.1245" lon="5.11906">
        <ele>210</ele>
        <time>2012-06-19T13:18:23Z</time>
      </trkpt>
      <trkpt lat="47.12442" lon="5.11883">
        <ele>210</ele>
        <time>2012-06-19T13:18:25Z</time>
      </trkpt>
      <trkpt lat="47.12433" lon="5.11862">
        <ele>210</ele>
        <time>2012-06-19T13:18:27Z</time>
      </trkpt>
      <trkpt lat="47.12428" lon="5.1185">
        <ele>210</ele>
        <time>2012-06-19T13:18:28Z</time>
      </trkpt>
      <trkpt lat="47.12424" lon="5.11838">
        <ele>210</ele>
        <time>2012-06-19T13:18:29Z</time>
      </trkpt>
      <trkpt lat="47.1242" lon="5.11826">
        <ele>210</ele>
        <time>2012-06-19T13:18:30Z</time>
      </trkpt>
      <trkpt lat="47.12415" lon="5.11814">
        <ele>210</ele>
        <time>2012-06-19T13:18:31Z</time>
      </trkpt>
      <trkpt lat="47.12411" lon="5.11803">
        <ele>210</ele>
        <time>2012-06-19T13:18:32Z</time>
      </trkpt>
      <trkpt lat="47.12402" lon="5.11781">
        <ele>210</ele>
        <time>2012-06-19T13:18:34Z</time>
      </trkpt>
      <trkpt lat="47.12398" lon="5.11769">
        <ele>210</ele>
        <time>2012-06-19T13:18:35Z</time>
      </trkpt>
      <trkpt lat="47.1239" lon="5.11748">
        <ele>210</ele>
        <time>2012-06-19T13:18:37Z</time>
      </trkpt>
      <trkpt lat="47.12382" lon="5.11726">
        <ele>204</ele>
        <time>2012-06-19T13:18:39Z</time>
      </trkpt>
      <trkpt lat="47.12373" lon="5.11704">
        <ele>204</ele>
        <time>2012-06-19T13:18:41Z</time>
      </trkpt>
      <trkpt lat="47.12364" lon="5.1168">
        <ele>204</ele>
        <time>2012-06-19T13:18:43Z</time>
      </trkpt>
      <trkpt lat="47.1236" lon="5.11668">
        <ele>204</ele>
        <time>2012-06-19T13:18:44Z</time>
      </trkpt>
      <trkpt lat="47.12356" lon="5.11655">
        <ele>204</ele>
        <time>2012-06-19T13:18:45Z</time>
      </trkpt>
      <trkpt lat="47.12352" lon="5.11643">
        <ele>204</ele>
        <time>2012-06-19T13:18:46Z</time>
      </trkpt>
      <trkpt lat="47.12348" lon="5.11629">
        <ele>204</ele>
        <time>2012-06-19T13:18:47Z</time>
      </trkpt>
      <trkpt lat="47.12346" lon="5.11616">
        <ele>204</ele>
        <time>2012-06-19T13:18:48Z</time>
      </trkpt>
      <trkpt lat="47.12342" lon="5.11592">
        <ele>196</ele>
        <time>2012-06-19T13:18:50Z</time>
      </trkpt>
      <trkpt lat="47.12341" lon="5.11578">
        <ele>196</ele>
        <time>2012-06-19T13:18:51Z</time>
      </trkpt>
      <trkpt lat="47.12341" lon="5.11564">
        <ele>196</ele>
        <time>2012-06-19T13:18:52Z</time>
      </trkpt>
      <trkpt lat="47.1234" lon="5.11549">
        <ele>196</ele>
        <time>2012-06-19T13:18:53Z</time>
      </trkpt>
      <trkpt lat="47.12339" lon="5.11535">
        <ele>196</ele>
        <time>2012-06-19T13:18:54Z</time>
      </trkpt>
      <trkpt lat="47.1234" lon="5.11521">
        <ele>196</ele>
        <time>2012-06-19T13:18:55Z</time>
      </trkpt>
      <trkpt lat="47.1234" lon="5.11506">
        <ele>196</ele>
        <time>2012-06-19T13:18:56Z</time>
      </trkpt>
      <trkpt lat="47.12339" lon="5.1148">
        <ele>196</ele>
        <time>2012-06-19T13:18:58Z</time>
      </trkpt>
      <trkpt lat="47.12339" lon="5.11455">
        <ele>196</ele>
        <time>2012-06-19T13:19:00Z</time>
      </trkpt>
      <trkpt lat="47.12338" lon="5.11431">
        <ele>196</ele>
        <time>2012-06-19T13:19:02Z</time>
      </trkpt>
      <trkpt lat="47.12336" lon="5.11406">
        <ele>196</ele>
        <time>2012-06-19T13:19:04Z</time>
      </trkpt>
      <trkpt lat="47.12334" lon="5.1138">
        <ele>196</ele>
        <time>2012-06-19T13:19:06Z</time>
      </trkpt>
      <trkpt lat="47.12333" lon="5.11367">
        <ele>196</ele>
        <time>2012-06-19T13:19:07Z</time>
      </trkpt>
      <trkpt lat="47.12331" lon="5.11341">
        <ele>196</ele>
        <time>2012-06-19T13:19:09Z</time>
      </trkpt>
      <trkpt lat="47.12331" lon="5.11315">
        <ele>196</ele>
        <time>2012-06-19T13:19:11Z</time>
      </trkpt>
      <trkpt lat="47.12331" lon="5.11301">
        <ele>196</ele>
        <time>2012-06-19T13:19:12Z</time>
      </trkpt>
      <trkpt lat="47.1233" lon="5.11288">
        <ele>196</ele>
        <time>2012-06-19T13:19:13Z</time>
      </trkpt>
      <trkpt lat="47.1233" lon="5.11274">
        <ele>196</ele>
        <time>2012-06-19T13:19:14Z</time>
      </trkpt>
      <trkpt lat="47.1233" lon="5.11261">
        <ele>196</ele>
        <time>2012-06-19T13:19:15Z</time>
      </trkpt>
      <trkpt lat="47.1233" lon="5.11247">
        <ele>196</ele>
        <time>2012-06-19T13:19:16Z</time>
      </trkpt>
      <trkpt lat="47.1233" lon="5.11234">
        <ele>196</ele>
        <time>2012-06-19T13:19:17Z</time>
      </trkpt>
      <trkpt lat="47.1233" lon="5.1122">
        <ele>196</ele>
        <time>2012-06-19T13:19:18Z</time>
      </trkpt>
      <trkpt lat="47.1233" lon="5.11206">
        <ele>196</ele>
        <time>2012-06-19T13:19:19Z</time>
      </trkpt>
      <trkpt lat="47.1233" lon="5.11192">
        <ele>196</ele>
        <time>2012-06-19T13:19:20Z</time>
      </trkpt>
      <trkpt lat="47.12328" lon="5.11166">
        <ele>196</ele>
        <time>2012-06-19T13:19:22Z</time>
      </trkpt>
      <trkpt lat="47.12328" lon="5.11151">
        <ele>196</ele>
        <time>2012-06-19T13:19:23Z</time>
      </trkpt>
      <trkpt lat="47.12328" lon="5.11137">
        <ele>196</ele>
        <time>2012-06-19T13:19:24Z</time>
      </trkpt>
      <trkpt lat="47.12327" lon="5.11123">
        <ele>196</ele>
        <time>2012-06-19T13:19:25Z</time>
      </trkpt>
      <trkpt lat="47.12327" lon="5.1111">
        <ele>196</ele>
        <time>2012-06-19T13:19:26Z</time>
      </trkpt>
      <trkpt lat="47.12327" lon="5.11097">
        <ele>196</ele>
        <time>2012-06-19T13:19:27Z</time>
      </trkpt>
      <trkpt lat="47.12326" lon="5.11083">
        <ele>196</ele>
        <time>2012-06-19T13:19:28Z</time>
      </trkpt>
      <trkpt lat="47.12325" lon="5.1107">
        <ele>196</ele>
        <time>2012-06-19T13:19:29Z</time>
      </trkpt>
      <trkpt lat="47.12325" lon="5.11056">
        <ele>196</ele>
        <time>2012-06-19T13:19:30Z</time>
      </trkpt>
      <trkpt lat="47.12325" lon="5.11042">
        <ele>196</ele>
        <time>2012-06-19T13:19:31Z</time>
      </trkpt>
      <trkpt lat="47.12323" lon="5.11028">
        <ele>196</ele>
        <time>2012-06-19T13:19:32Z</time>
      </trkpt>
      <trkpt lat="47.12323" lon="5.11015">
        <ele>196</ele>
        <time>2012-06-19T13:19:33Z</time>
      </trkpt>
      <trkpt lat="47.12323" lon="5.11001">
        <ele>196</ele>
        <time>2012-06-19T13:19:34Z</time>
      </trkpt>
      <trkpt lat="47.12323" lon="5.10988">
        <ele>196</ele>
        <time>2012-06-19T13:19:35Z</time>
      </trkpt>
      <trkpt lat="47.12322" lon="5.10974">
        <ele>196</ele>
        <time>2012-06-19T13:19:36Z</time>
      </trkpt>
      <trkpt lat="47.12322" lon="5.1096">
        <ele>196</ele>
        <time>2012-06-19T13:19:37Z</time>
      </trkpt>
      <trkpt lat="47.1232" lon="5.10933">
        <ele>196</ele>
        <time>2012-06-19T13:19:39Z</time>
      </trkpt>
      <trkpt lat="47.1232" lon="5.10919">
        <ele>196</ele>
        <time>2012-06-19T13:19:40Z</time>
      </trkpt>
      <trkpt lat="47.12319" lon="5.10905">
        <ele>196</ele>
        <time>2012-06-19T13:19:41Z</time>
      </trkpt>
      <trkpt lat="47.12319" lon="5.10892">
        <ele>196</ele>
        <time>2012-06-19T13:19:42Z</time>
      </trkpt>
      <trkpt lat="47.12317" lon="5.10866">
        <ele>196</ele>
        <time>2012-06-19T13:19:44Z</time>
      </trkpt>
      <trkpt lat="47.12317" lon="5.10852">
        <ele>196</ele>
        <time>2012-06-19T13:19:45Z</time>
      </trkpt>
      <trkpt lat="47.12316" lon="5.10826">
        <ele>196</ele>
        <time>2012-06-19T13:19:47Z</time>
      </trkpt>
      <trkpt lat="47.12314" lon="5.108">
        <ele>196</ele>
        <time>2012-06-19T13:19:49Z</time>
      </trkpt>
      <trkpt lat="47.12313" lon="5.10775">
        <ele>196</ele>
        <time>2012-06-19T13:19:51Z</time>
      </trkpt>
      <trkpt lat="47.12312" lon="5.1075">
        <ele>196</ele>
        <time>2012-06-19T13:19:53Z</time>
      </trkpt>
      <trkpt lat="47.12312" lon="5.10724">
        <ele>196</ele>
        <time>2012-06-19T13:19:55Z</time>
      </trkpt>
      <trkpt lat="47.12311" lon="5.10699">
        <ele>196</ele>
        <time>2012-06-19T13:19:57Z</time>
      </trkpt>
      <trkpt lat="47.12311" lon="5.10674">
        <ele>196</ele>
        <time>2012-06-19T13:19:59Z</time>
      </trkpt>
      <trkpt lat="47.1231" lon="5.10649">
        <ele>196</ele>
        <time>2012-06-19T13:20:01Z</time>
      </trkpt>
      <trkpt lat="47.12309" lon="5.10623">
        <ele>196</ele>
        <time>2012-06-19T13:20:03Z</time>
      </trkpt>
      <trkpt lat="47.12308" lon="5.10598">
        <ele>196</ele>
        <time>2012-06-19T13:20:05Z</time>
      </trkpt>
      <trkpt lat="47.12306" lon="5.10573">
        <ele>196</ele>
        <time>2012-06-19T13:20:07Z</time>
      </trkpt>
      <trkpt lat="47.12306" lon="5.10548">
        <ele>196</ele>
        <time>2012-06-19T13:20:09Z</time>
      </trkpt>
      <trkpt lat="47.12304" lon="5.10522">
        <ele>196</ele>
        <time>2012-06-19T13:20:11Z</time>
      </trkpt>
      <trkpt lat="47.12304" lon="5.10508">
        <ele>196</ele>
        <time>2012-06-19T13:20:12Z</time>
      </trkpt>
      <trkpt lat="47.12304" lon="5.10484">
        <ele>196</ele>
        <time>2012-06-19T13:20:14Z</time>
      </trkpt>
      <trkpt lat="47.12304" lon="5.1047">
        <ele>196</ele>
        <time>2012-06-19T13:20:15Z</time>
      </trkpt>
      <trkpt lat="47.12304" lon="5.10444">
        <ele>196</ele>
        <time>2012-06-19T13:20:17Z</time>
      </trkpt>
      <trkpt lat="47.12305" lon="5.10431">
        <ele>196</ele>
        <time>2012-06-19T13:20:18Z</time>
      </trkpt>
      <trkpt lat="47.12305" lon="5.10406">
        <ele>196</ele>
        <time>2012-06-19T13:20:20Z</time>
      </trkpt>
      <trkpt lat="47.12306" lon="5.10392">
        <ele>196</ele>
        <time>2012-06-19T13:20:21Z</time>
      </trkpt>
      <trkpt lat="47.12306" lon="5.10368">
        <ele>196</ele>
        <time>2012-06-19T13:20:23Z</time>
      </trkpt>
      <trkpt lat="47.12306" lon="5.10345">
        <ele>196</ele>
        <time>2012-06-19T13:20:25Z</time>
      </trkpt>
      <trkpt lat="47.12306" lon="5.1032">
        <ele>196</ele>
        <time>2012-06-19T13:20:27Z</time>
      </trkpt>
      <trkpt lat="47.12306" lon="5.10295">
        <ele>196</ele>
        <time>2012-06-19T13:20:29Z</time>
      </trkpt>
      <trkpt lat="47.12306" lon="5.10271">
        <ele>196</ele>
        <time>2012-06-19T13:20:31Z</time>
      </trkpt>
      <trkpt lat="47.12306" lon="5.10246">
        <ele>196</ele>
        <time>2012-06-19T13:20:33Z</time>
      </trkpt>
      <trkpt lat="47.12309" lon="5.10222">
        <ele>196</ele>
        <time>2012-06-19T13:20:35Z</time>
      </trkpt>
      <trkpt lat="47.12311" lon="5.10197">
        <ele>196</ele>
        <time>2012-06-19T13:20:37Z</time>
      </trkpt>
      <trkpt lat="47.1231" lon="5.10174">
        <ele>196</ele>
        <time>2012-06-19T13:20:39Z</time>
      </trkpt>
      <trkpt lat="47.12311" lon="5.10152">
        <ele>196</ele>
        <time>2012-06-19T13:20:41Z</time>
      </trkpt>
      <trkpt lat="47.12311" lon="5.1013">
        <ele>196</ele>
        <time>2012-06-19T13:20:43Z</time>
      </trkpt>
      <trkpt lat="47.12312" lon="5.10108">
        <ele>196</ele>
        <time>2012-06-19T13:20:45Z</time>
      </trkpt>
      <trkpt lat="47.12312" lon="5.10087">
        <ele>196</ele>
        <time>2012-06-19T13:20:47Z</time>
      </trkpt>
      <trkpt lat="47.12314" lon="5.10065">
        <ele>196</ele>
        <time>2012-06-19T13:20:49Z</time>
      </trkpt>
      <trkpt lat="47.12314" lon="5.10045">
        <ele>196</ele>
        <time>2012-06-19T13:20:51Z</time>
      </trkpt>
      <trkpt lat="47.12315" lon="5.10023">
        <ele>196</ele>
        <time>2012-06-19T13:20:53Z</time>
      </trkpt>
      <trkpt lat="47.12315" lon="5.10003">
        <ele>196</ele>
        <time>2012-06-19T13:20:55Z</time>
      </trkpt>
      <trkpt lat="47.12316" lon="5.09984">
        <ele>196</ele>
        <time>2012-06-19T13:20:57Z</time>
      </trkpt>
      <trkpt lat="47.12315" lon="5.09966">
        <ele>196</ele>
        <time>2012-06-19T13:20:59Z</time>
      </trkpt>
      <trkpt lat="47.12314" lon="5.09948">
        <ele>196</ele>
        <time>2012-06-19T13:21:01Z</time>
      </trkpt>
      <trkpt lat="47.12314" lon="5.09931">
        <ele>196</ele>
        <time>2012-06-19T13:21:03Z</time>
      </trkpt>
      <trkpt lat="47.12315" lon="5.09918">
        <ele>196</ele>
        <time>2012-06-19T13:21:05Z</time>
      </trkpt>
      <trkpt lat="47.12322" lon="5.09909">
        <ele>196</ele>
        <time>2012-06-19T13:21:08Z</time>
      </trkpt>
      <trkpt lat="47.12332" lon="5.09906">
        <ele>196</ele>
        <time>2012-06-19T13:21:11Z</time>
      </trkpt>
      <trkpt lat="47.12342" lon="5.09906">
        <ele>196</ele>
        <time>2012-06-19T13:21:16Z</time>
      </trkpt>
      <trkpt lat="47.12351" lon="5.09902">
        <ele>201</ele>
        <time>2012-06-19T13:21:29Z</time>
      </trkpt>
      <trkpt lat="47.1236" lon="5.09902">
        <ele>201</ele>
        <time>2012-06-19T13:21:32Z</time>
      </trkpt>
      <trkpt lat="47.12373" lon="5.09899">
        <ele>201</ele>
        <time>2012-06-19T13:21:35Z</time>
      </trkpt>
      <trkpt lat="47.12383" lon="5.09896">
        <ele>201</ele>
        <time>2012-06-19T13:21:37Z</time>
      </trkpt>
      <trkpt lat="47.12393" lon="5.09895">
        <ele>201</ele>
        <time>2012-06-19T13:21:39Z</time>
      </trkpt>
      <trkpt lat="47.12403" lon="5.0989">
        <ele>201</ele>
        <time>2012-06-19T13:21:41Z</time>
      </trkpt>
      <trkpt lat="47.12414" lon="5.09887">
        <ele>201</ele>
        <time>2012-06-19T13:21:43Z</time>
      </trkpt>
      <trkpt lat="47.12426" lon="5.09884">
        <ele>201</ele>
        <time>2012-06-19T13:21:45Z</time>
      </trkpt>
      <trkpt lat="47.12438" lon="5.09879">
        <ele>201</ele>
        <time>2012-06-19T13:21:47Z</time>
      </trkpt>
      <trkpt lat="47.1245" lon="5.09876">
        <ele>201</ele>
        <time>2012-06-19T13:21:49Z</time>
      </trkpt>
      <trkpt lat="47.12463" lon="5.09872">
        <ele>201</ele>
        <time>2012-06-19T13:21:51Z</time>
      </trkpt>
      <trkpt lat="47.12476" lon="5.09869">
        <ele>201</ele>
        <time>2012-06-19T13:21:53Z</time>
      </trkpt>
      <trkpt lat="47.12488" lon="5.09865">
        <ele>201</ele>
        <time>2012-06-19T13:21:55Z</time>
      </trkpt>
      <trkpt lat="47.12501" lon="5.0986">
        <ele>201</ele>
        <time>2012-06-19T13:21:57Z</time>
      </trkpt>
      <trkpt lat="47.12514" lon="5.09855">
        <ele>201</ele>
        <time>2012-06-19T13:21:59Z</time>
      </trkpt>
      <trkpt lat="47.12528" lon="5.09851">
        <ele>201</ele>
        <time>2012-06-19T13:22:01Z</time>
      </trkpt>
      <trkpt lat="47.12542" lon="5.09847">
        <ele>201</ele>
        <time>2012-06-19T13:22:03Z</time>
      </trkpt>
      <trkpt lat="47.12555" lon="5.09844">
        <ele>201</ele>
        <time>2012-06-19T13:22:05Z</time>
      </trkpt>
      <trkpt lat="47.12567" lon="5.09841">
        <ele>201</ele>
        <time>2012-06-19T13:22:07Z</time>
      </trkpt>
      <trkpt lat="47.12579" lon="5.09836">
        <ele>201</ele>
        <time>2012-06-19T13:22:09Z</time>
      </trkpt>
      <trkpt lat="47.12591" lon="5.0983">
        <ele>201</ele>
        <time>2012-06-19T13:22:11Z</time>
      </trkpt>
      <trkpt lat="47.12603" lon="5.09822">
        <ele>201</ele>
        <time>2012-06-19T13:22:13Z</time>
      </trkpt>
      <trkpt lat="47.12615" lon="5.09813">
        <ele>201</ele>
        <time>2012-06-19T13:22:15Z</time>
      </trkpt>
      <trkpt lat="47.12627" lon="5.09804">
        <ele>201</ele>
        <time>2012-06-19T13:22:17Z</time>
      </trkpt>
      <trkpt lat="47.12639" lon="5.09795">
        <ele>201</ele>
        <time>2012-06-19T13:22:19Z</time>
      </trkpt>
      <trkpt lat="47.1265" lon="5.09784">
        <ele>201</ele>
        <time>2012-06-19T13:22:21Z</time>
      </trkpt>
      <trkpt lat="47.12661" lon="5.09777">
        <ele>201</ele>
        <time>2012-06-19T13:22:23Z</time>
      </trkpt>
      <trkpt lat="47.12671" lon="5.09769">
        <ele>201</ele>
        <time>2012-06-19T13:22:25Z</time>
      </trkpt>
      <trkpt lat="47.12682" lon="5.09761">
        <ele>201</ele>
        <time>2012-06-19T13:22:27Z</time>
      </trkpt>
      <trkpt lat="47.12691" lon="5.09754">
        <ele>201</ele>
        <time>2012-06-19T13:22:29Z</time>
      </trkpt>
      <trkpt lat="47.12701" lon="5.09745">
        <ele>201</ele>
        <time>2012-06-19T13:22:31Z</time>
      </trkpt>
      <trkpt lat="47.1271" lon="5.09739">
        <ele>201</ele>
        <time>2012-06-19T13:22:33Z</time>
      </trkpt>
      <trkpt lat="47.12719" lon="5.09733">
        <ele>201</ele>
        <time>2012-06-19T13:22:35Z</time>
      </trkpt>
      <trkpt lat="47.12726" lon="5.09724">
        <ele>201</ele>
        <time>2012-06-19T13:22:37Z</time>
      </trkpt>
      <trkpt lat="47.12734" lon="5.09718">
        <ele>201</ele>
        <time>2012-06-19T13:22:39Z</time>
      </trkpt>
      <trkpt lat="47.12746" lon="5.0971">
        <ele>201</ele>
        <time>2012-06-19T13:22:42Z</time>
      </trkpt>
      <trkpt lat="47.12754" lon="5.09702">
        <ele>201</ele>
        <time>2012-06-19T13:22:44Z</time>
      </trkpt>
      <trkpt lat="47.12762" lon="5.09695">
        <ele>201</ele>
        <time>2012-06-19T13:22:46Z</time>
      </trkpt>
      <trkpt lat="47.12771" lon="5.09688">
        <ele>201</ele>
        <time>2012-06-19T13:22:48Z</time>
      </trkpt>
      <trkpt lat="47.1278" lon="5.0968">
        <ele>201</ele>
        <time>2012-06-19T13:22:50Z</time>
      </trkpt>
      <trkpt lat="47.12789" lon="5.09671">
        <ele>201</ele>
        <time>2012-06-19T13:22:52Z</time>
      </trkpt>
      <trkpt lat="47.12798" lon="5.0966">
        <ele>201</ele>
        <time>2012-06-19T13:22:54Z</time>
      </trkpt>
      <trkpt lat="47.12806" lon="5.09651">
        <ele>201</ele>
        <time>2012-06-19T13:22:56Z</time>
      </trkpt>
      <trkpt lat="47.12815" lon="5.09642">
        <ele>201</ele>
        <time>2012-06-19T13:22:58Z</time>
      </trkpt>
      <trkpt lat="47.12824" lon="5.09633">
        <ele>201</ele>
        <time>2012-06-19T13:23:00Z</time>
      </trkpt>
      <trkpt lat="47.12833" lon="5.09626">
        <ele>201</ele>
        <time>2012-06-19T13:23:02Z</time>
      </trkpt>
      <trkpt lat="47.12842" lon="5.09618">
        <ele>201</ele>
        <time>2012-06-19T13:23:04Z</time>
      </trkpt>
      <trkpt lat="47.12851" lon="5.09609">
        <ele>201</ele>
        <time>2012-06-19T13:23:06Z</time>
      </trkpt>
      <trkpt lat="47.12861" lon="5.096">
        <ele>201</ele>
        <time>2012-06-19T13:23:08Z</time>
      </trkpt>
      <trkpt lat="47.1287" lon="5.09592">
        <ele>201</ele>
        <time>2012-06-19T13:23:10Z</time>
      </trkpt>
      <trkpt lat="47.12879" lon="5.09583">
        <ele>201</ele>
        <time>2012-06-19T13:23:12Z</time>
      </trkpt>
      <trkpt lat="47.12888" lon="5.09575">
        <ele>201</ele>
        <time>2012-06-19T13:23:14Z</time>
      </trkpt>
      <trkpt lat="47.12897" lon="5.09567">
        <ele>201</ele>
        <time>2012-06-19T13:23:16Z</time>
      </trkpt>
      <trkpt lat="47.12906" lon="5.09558">
        <ele>201</ele>
        <time>2012-06-19T13:23:18Z</time>
      </trkpt>
      <trkpt lat="47.12915" lon="5.09549">
        <ele>201</ele>
        <time>2012-06-19T13:23:20Z</time>
      </trkpt>
      <trkpt lat="47.12925" lon="5.09541">
        <ele>201</ele>
        <time>2012-06-19T13:23:22Z</time>
      </trkpt>
      <trkpt lat="47.12935" lon="5.09531">
        <ele>201</ele>
        <time>2012-06-19T13:23:24Z</time>
      </trkpt>
      <trkpt lat="47.12945" lon="5.09522">
        <ele>201</ele>
        <time>2012-06-19T13:23:26Z</time>
      </trkpt>
      <trkpt lat="47.12954" lon="5.09512">
        <ele>201</ele>
        <time>2012-06-19T13:23:28Z</time>
      </trkpt>
      <trkpt lat="47.12965" lon="5.09503">
        <ele>201</ele>
        <time>2012-06-19T13:23:30Z</time>
      </trkpt>
      <trkpt lat="47.12974" lon="5.09494">
        <ele>201</ele>
        <time>2012-06-19T13:23:32Z</time>
      </trkpt>
      <trkpt lat="47.12983" lon="5.09485">
        <ele>201</ele>
        <time>2012-06-19T13:23:34Z</time>
      </trkpt>
      <trkpt lat="47.12992" lon="5.09477">
        <ele>201</ele>
        <time>2012-06-19T13:23:36Z</time>
      </trkpt>
      <trkpt lat="47.13001" lon="5.09469">
        <ele>201</ele>
        <time>2012-06-19T13:23:38Z</time>
      </trkpt>
      <trkpt lat="47.1301" lon="5.0946">
        <ele>201</ele>
        <time>2012-06-19T13:23:40Z</time>
      </trkpt>
      <trkpt lat="47.13019" lon="5.09451">
        <ele>201</ele>
        <time>2012-06-19T13:23:42Z</time>
      </trkpt>
      <trkpt lat="47.13027" lon="5.09444">
        <ele>201</ele>
        <time>2012-06-19T13:23:44Z</time>
      </trkpt>
      <trkpt lat="47.13036" lon="5.09436">
        <ele>201</ele>
        <time>2012-06-19T13:23:46Z</time>
      </trkpt>
      <trkpt lat="47.13045" lon="5.09427">
        <ele>201</ele>
        <time>2012-06-19T13:23:48Z</time>
      </trkpt>
      <trkpt lat="47.13054" lon="5.09418">
        <ele>201</ele>
        <time>2012-06-19T13:23:50Z</time>
      </trkpt>
      <trkpt lat="47.13063" lon="5.09407">
        <ele>201</ele>
        <time>2012-06-19T13:23:52Z</time>
      </trkpt>
      <trkpt lat="47.13071" lon="5.09397">
        <ele>201</ele>
        <time>2012-06-19T13:23:54Z</time>
      </trkpt>
      <trkpt lat="47.13079" lon="5.09387">
        <ele>201</ele>
        <time>2012-06-19T13:23:56Z</time>
      </trkpt>
      <trkpt lat="47.13087" lon="5.09378">
        <ele>201</ele>
        <time>2012-06-19T13:23:58Z</time>
      </trkpt>
      <trkpt lat="47.13095" lon="5.0937">
        <ele>201</ele>
        <time>2012-06-19T13:24:00Z</time>
      </trkpt>
      <trkpt lat="47.13102" lon="5.09361">
        <ele>201</ele>
        <time>2012-06-19T13:24:02Z</time>
      </trkpt>
      <trkpt lat="47.13112" lon="5.0935">
        <ele>201</ele>
        <time>2012-06-19T13:24:05Z</time>
      </trkpt>
      <trkpt lat="47.13123" lon="5.09342">
        <ele>201</ele>
        <time>2012-06-19T13:24:08Z</time>
      </trkpt>
      <trkpt lat="47.13135" lon="5.09335">
        <ele>201</ele>
        <time>2012-06-19T13:24:11Z</time>
      </trkpt>
      <trkpt lat="47.13143" lon="5.09322">
        <ele>201</ele>
        <time>2012-06-19T13:24:15Z</time>
      </trkpt>
      <trkpt lat="47.13144" lon="5.09309">
        <ele>201</ele>
        <time>2012-06-19T13:24:34Z</time>
      </trkpt>
      <trkpt lat="47.13136" lon="5.09321">
        <ele>201</ele>
        <time>2012-06-19T13:30:09Z</time>
      </trkpt>
      <trkpt lat="47.13129" lon="5.09334">
        <ele>201</ele>
        <time>2012-06-19T13:30:13Z</time>
      </trkpt>
      <trkpt lat="47.13121" lon="5.0934">
        <ele>201</ele>
        <time>2012-06-19T13:30:16Z</time>
      </trkpt>
      <trkpt lat="47.13111" lon="5.09348">
        <ele>201</ele>
        <time>2012-06-19T13:30:20Z</time>
      </trkpt>
      <trkpt lat="47.13102" lon="5.09355">
        <ele>201</ele>
        <time>2012-06-19T13:30:23Z</time>
      </trkpt>
      <trkpt lat="47.13092" lon="5.09365">
        <ele>201</ele>
        <time>2012-06-19T13:30:26Z</time>
      </trkpt>
      <trkpt lat="47.13084" lon="5.09373">
        <ele>201</ele>
        <time>2012-06-19T13:30:28Z</time>
      </trkpt>
      <trkpt lat="47.13075" lon="5.09382">
        <ele>201</ele>
        <time>2012-06-19T13:30:30Z</time>
      </trkpt>
      <trkpt lat="47.13067" lon="5.09392">
        <ele>201</ele>
        <time>2012-06-19T13:30:32Z</time>
      </trkpt>
      <trkpt lat="47.13059" lon="5.09403">
        <ele>201</ele>
        <time>2012-06-19T13:30:34Z</time>
      </trkpt>
      <trkpt lat="47.13049" lon="5.09414">
        <ele>201</ele>
        <time>2012-06-19T13:30:36Z</time>
      </trkpt>
      <trkpt lat="47.1304" lon="5.09424">
        <ele>201</ele>
        <time>2012-06-19T13:30:38Z</time>
      </trkpt>
      <trkpt lat="47.13029" lon="5.09434">
        <ele>201</ele>
        <time>2012-06-19T13:30:40Z</time>
      </trkpt>
      <trkpt lat="47.13018" lon="5.09445">
        <ele>201</ele>
        <time>2012-06-19T13:30:42Z</time>
      </trkpt>
      <trkpt lat="47.13007" lon="5.09455">
        <ele>201</ele>
        <time>2012-06-19T13:30:44Z</time>
      </trkpt>
      <trkpt lat="47.12996" lon="5.09466">
        <ele>201</ele>
        <time>2012-06-19T13:30:46Z</time>
      </trkpt>
      <trkpt lat="47.12984" lon="5.09477">
        <ele>201</ele>
        <time>2012-06-19T13:30:48Z</time>
      </trkpt>
      <trkpt lat="47.12973" lon="5.09489">
        <ele>201</ele>
        <time>2012-06-19T13:30:50Z</time>
      </trkpt>
      <trkpt lat="47.1296" lon="5.09499">
        <ele>201</ele>
        <time>2012-06-19T13:30:52Z</time>
      </trkpt>
      <trkpt lat="47.12949" lon="5.09511">
        <ele>201</ele>
        <time>2012-06-19T13:30:54Z</time>
      </trkpt>
      <trkpt lat="47.12937" lon="5.09522">
        <ele>201</ele>
        <time>2012-06-19T13:30:56Z</time>
      </trkpt>
      <trkpt lat="47.12924" lon="5.09533">
        <ele>201</ele>
        <time>2012-06-19T13:30:58Z</time>
      </trkpt>
      <trkpt lat="47.12912" lon="5.09545">
        <ele>201</ele>
        <time>2012-06-19T13:31:00Z</time>
      </trkpt>
      <trkpt lat="47.12899" lon="5.09557">
        <ele>201</ele>
        <time>2012-06-19T13:31:02Z</time>
      </trkpt>
      <trkpt lat="47.12887" lon="5.09568">
        <ele>201</ele>
        <time>2012-06-19T13:31:04Z</time>
      </trkpt>
      <trkpt lat="47.12875" lon="5.0958">
        <ele>201</ele>
        <time>2012-06-19T13:31:06Z</time>
      </trkpt>
      <trkpt lat="47.12862" lon="5.09593">
        <ele>201</ele>
        <time>2012-06-19T13:31:08Z</time>
      </trkpt>
      <trkpt lat="47.12849" lon="5.09604">
        <ele>201</ele>
        <time>2012-06-19T13:31:10Z</time>
      </trkpt>
      <trkpt lat="47.12837" lon="5.09616">
        <ele>201</ele>
        <time>2012-06-19T13:31:12Z</time>
      </trkpt>
      <trkpt lat="47.12824" lon="5.09629">
        <ele>201</ele>
        <time>2012-06-19T13:31:14Z</time>
      </trkpt>
      <trkpt lat="47.1281" lon="5.09641">
        <ele>201</ele>
        <time>2012-06-19T13:31:16Z</time>
      </trkpt>
      <trkpt lat="47.12797" lon="5.09653">
        <ele>201</ele>
        <time>2012-06-19T13:31:18Z</time>
      </trkpt>
      <trkpt lat="47.12785" lon="5.09666">
        <ele>201</ele>
        <time>2012-06-19T13:31:20Z</time>
      </trkpt>
      <trkpt lat="47.12771" lon="5.09678">
        <ele>201</ele>
        <time>2012-06-19T13:31:22Z</time>
      </trkpt>
      <trkpt lat="47.12758" lon="5.09691">
        <ele>201</ele>
        <time>2012-06-19T13:31:24Z</time>
      </trkpt>
      <trkpt lat="47.12744" lon="5.09702">
        <ele>201</ele>
        <time>2012-06-19T13:31:26Z</time>
      </trkpt>
      <trkpt lat="47.12729" lon="5.09715">
        <ele>201</ele>
        <time>2012-06-19T13:31:28Z</time>
      </trkpt>
      <trkpt lat="47.12715" lon="5.09727">
        <ele>201</ele>
        <time>2012-06-19T13:31:30Z</time>
      </trkpt>
      <trkpt lat="47.12699" lon="5.09739">
        <ele>201</ele>
        <time>2012-06-19T13:31:32Z</time>
      </trkpt>
      <trkpt lat="47.12684" lon="5.09753">
        <ele>201</ele>
        <time>2012-06-19T13:31:34Z</time>
      </trkpt>
      <trkpt lat="47.12676" lon="5.09759">
        <ele>201</ele>
        <time>2012-06-19T13:31:35Z</time>
      </trkpt>
      <trkpt lat="47.12668" lon="5.09766">
        <ele>201</ele>
        <time>2012-06-19T13:31:36Z</time>
      </trkpt>
      <trkpt lat="47.1266" lon="5.09772">
        <ele>201</ele>
        <time>2012-06-19T13:31:37Z</time>
      </trkpt>
      <trkpt lat="47.12652" lon="5.0978">
        <ele>201</ele>
        <time>2012-06-19T13:31:38Z</time>
      </trkpt>
      <trkpt lat="47.12643" lon="5.09787">
        <ele>201</ele>
        <time>2012-06-19T13:31:39Z</time>
      </trkpt>
      <trkpt lat="47.12635" lon="5.09794">
        <ele>196</ele>
        <time>2012-06-19T13:31:40Z</time>
      </trkpt>
      <trkpt lat="47.12626" lon="5.098">
        <ele>196</ele>
        <time>2012-06-19T13:31:41Z</time>
      </trkpt>
      <trkpt lat="47.12618" lon="5.09807">
        <ele>196</ele>
        <time>2012-06-19T13:31:42Z</time>
      </trkpt>
      <trkpt lat="47.12609" lon="5.09813">
        <ele>196</ele>
        <time>2012-06-19T13:31:43Z</time>
      </trkpt>
      <trkpt lat="47.12601" lon="5.09819">
        <ele>196</ele>
        <time>2012-06-19T13:31:44Z</time>
      </trkpt>
      <trkpt lat="47.12592" lon="5.09825">
        <ele>196</ele>
        <time>2012-06-19T13:31:45Z</time>
      </trkpt>
      <trkpt lat="47.12583" lon="5.09831">
        <ele>196</ele>
        <time>2012-06-19T13:31:46Z</time>
      </trkpt>
      <trkpt lat="47.12575" lon="5.09836">
        <ele>196</ele>
        <time>2012-06-19T13:31:47Z</time>
      </trkpt>
      <trkpt lat="47.12566" lon="5.0984">
        <ele>196</ele>
        <time>2012-06-19T13:31:48Z</time>
      </trkpt>
      <trkpt lat="47.12548" lon="5.09845">
        <ele>196</ele>
        <time>2012-06-19T13:31:50Z</time>
      </trkpt>
      <trkpt lat="47.12539" lon="5.09849">
        <ele>196</ele>
        <time>2012-06-19T13:31:51Z</time>
      </trkpt>
      <trkpt lat="47.12522" lon="5.09853">
        <ele>196</ele>
        <time>2012-06-19T13:31:53Z</time>
      </trkpt>
      <trkpt lat="47.12505" lon="5.09858">
        <ele>196</ele>
        <time>2012-06-19T13:31:55Z</time>
      </trkpt>
      <trkpt lat="47.12488" lon="5.09862">
        <ele>196</ele>
        <time>2012-06-19T13:31:57Z</time>
      </trkpt>
      <trkpt lat="47.12472" lon="5.09866">
        <ele>196</ele>
        <time>2012-06-19T13:31:59Z</time>
      </trkpt>
      <trkpt lat="47.12456" lon="5.09869">
        <ele>196</ele>
        <time>2012-06-19T13:32:01Z</time>
      </trkpt>
      <trkpt lat="47.12441" lon="5.09873">
        <ele>196</ele>
        <time>2012-06-19T13:32:03Z</time>
      </trkpt>
      <trkpt lat="47.12426" lon="5.09877">
        <ele>196</ele>
        <time>2012-06-19T13:32:05Z</time>
      </trkpt>
      <trkpt lat="47.12411" lon="5.0988">
        <ele>196</ele>
        <time>2012-06-19T13:32:07Z</time>
      </trkpt>
      <trkpt lat="47.12396" lon="5.09884">
        <ele>196</ele>
        <time>2012-06-19T13:32:09Z</time>
      </trkpt>
      <trkpt lat="47.12381" lon="5.09887">
        <ele>196</ele>
        <time>2012-06-19T13:32:11Z</time>
      </trkpt>
      <trkpt lat="47.12366" lon="5.09891">
        <ele>196</ele>
        <time>2012-06-19T13:32:13Z</time>
      </trkpt>
      <trkpt lat="47.12351" lon="5.09895">
        <ele>196</ele>
        <time>2012-06-19T13:32:15Z</time>
      </trkpt>
      <trkpt lat="47.12336" lon="5.09899">
        <ele>196</ele>
        <time>2012-06-19T13:32:17Z</time>
      </trkpt>
      <trkpt lat="47.12322" lon="5.09903">
        <ele>196</ele>
        <time>2012-06-19T13:32:19Z</time>
      </trkpt>
      <trkpt lat="47.12307" lon="5.09905">
        <ele>196</ele>
        <time>2012-06-19T13:47:56Z</time>
      </trkpt>
      <trkpt lat="47.08638" lon="5.15503">
        <ele>191</ele>
        <time>2012-06-19T13:47:58Z</time>
      </trkpt>
      <trkpt lat="47.08644" lon="5.15524">
        <ele>191</ele>
        <time>2012-06-19T13:48:00Z</time>
      </trkpt>
      <trkpt lat="47.08649" lon="5.15547">
        <ele>191</ele>
        <time>2012-06-19T13:48:02Z</time>
      </trkpt>
      <trkpt lat="47.08655" lon="5.1557">
        <ele>191</ele>
        <time>2012-06-19T13:48:04Z</time>
      </trkpt>
      <trkpt lat="47.0866" lon="5.15593">
        <ele>191</ele>
        <time>2012-06-19T13:48:06Z</time>
      </trkpt>
      <trkpt lat="47.08666" lon="5.15617">
        <ele>191</ele>
        <time>2012-06-19T13:48:08Z</time>
      </trkpt>
      <trkpt lat="47.08669" lon="5.15629">
        <ele>191</ele>
        <time>2012-06-19T13:48:09Z</time>
      </trkpt>
      <trkpt lat="47.08675" lon="5.15653">
        <ele>191</ele>
        <time>2012-06-19T13:48:11Z</time>
      </trkpt>
      <trkpt lat="47.08681" lon="5.15677">
        <ele>191</ele>
        <time>2012-06-19T13:48:13Z</time>
      </trkpt>
      <trkpt lat="47.08686" lon="5.157">
        <ele>191</ele>
        <time>2012-06-19T13:48:15Z</time>
      </trkpt>
      <trkpt lat="47.08692" lon="5.15724">
        <ele>191</ele>
        <time>2012-06-19T13:48:17Z</time>
      </trkpt>
      <trkpt lat="47.08698" lon="5.15747">
        <ele>191</ele>
        <time>2012-06-19T13:48:19Z</time>
      </trkpt>
      <trkpt lat="47.08704" lon="5.1577">
        <ele>191</ele>
        <time>2012-06-19T13:48:21Z</time>
      </trkpt>
      <trkpt lat="47.08707" lon="5.15783">
        <ele>191</ele>
        <time>2012-06-19T13:48:22Z</time>
      </trkpt>
      <trkpt lat="47.08713" lon="5.15807">
        <ele>191</ele>
        <time>2012-06-19T13:48:24Z</time>
      </trkpt>
      <trkpt lat="47.08718" lon="5.15831">
        <ele>191</ele>
        <time>2012-06-19T13:48:26Z</time>
      </trkpt>
      <trkpt lat="47.08724" lon="5.15854">
        <ele>191</ele>
        <time>2012-06-19T13:48:28Z</time>
      </trkpt>
      <trkpt lat="47.0873" lon="5.15877">
        <ele>191</ele>
        <time>2012-06-19T13:48:30Z</time>
      </trkpt>
      <trkpt lat="47.08735" lon="5.15901">
        <ele>191</ele>
        <time>2012-06-19T13:48:32Z</time>
      </trkpt>
      <trkpt lat="47.08741" lon="5.15923">
        <ele>191</ele>
        <time>2012-06-19T13:48:34Z</time>
      </trkpt>
      <trkpt lat="47.08747" lon="5.15946">
        <ele>191</ele>
        <time>2012-06-19T13:48:36Z</time>
      </trkpt>
      <trkpt lat="47.08753" lon="5.15967">
        <ele>191</ele>
        <time>2012-06-19T13:48:38Z</time>
      </trkpt>
      <trkpt lat="47.08759" lon="5.15987">
        <ele>191</ele>
        <time>2012-06-19T13:48:40Z</time>
      </trkpt>
      <trkpt lat="47.08764" lon="5.16008">
        <ele>191</ele>
        <time>2012-06-19T13:48:42Z</time>
      </trkpt>
      <trkpt lat="47.0877" lon="5.16028">
        <ele>191</ele>
        <time>2012-06-19T13:48:44Z</time>
      </trkpt>
      <trkpt lat="47.08776" lon="5.16051">
        <ele>191</ele>
        <time>2012-06-19T13:48:46Z</time>
      </trkpt>
      <trkpt lat="47.08781" lon="5.16072">
        <ele>191</ele>
        <time>2012-06-19T13:48:48Z</time>
      </trkpt>
      <trkpt lat="47.08787" lon="5.16095">
        <ele>191</ele>
        <time>2012-06-19T13:48:50Z</time>
      </trkpt>
      <trkpt lat="47.08793" lon="5.16116">
        <ele>191</ele>
        <time>2012-06-19T13:48:52Z</time>
      </trkpt>
      <trkpt lat="47.08799" lon="5.16139">
        <ele>185</ele>
        <time>2012-06-19T13:48:54Z</time>
      </trkpt>
      <trkpt lat="47.08805" lon="5.16162">
        <ele>185</ele>
        <time>2012-06-19T13:48:56Z</time>
      </trkpt>
      <trkpt lat="47.08811" lon="5.16184">
        <ele>185</ele>
        <time>2012-06-19T13:48:58Z</time>
      </trkpt>
      <trkpt lat="47.08818" lon="5.16206">
        <ele>185</ele>
        <time>2012-06-19T13:49:00Z</time>
      </trkpt>
      <trkpt lat="47.08824" lon="5.16229">
        <ele>185</ele>
        <time>2012-06-19T13:49:02Z</time>
      </trkpt>
      <trkpt lat="47.08831" lon="5.16251">
        <ele>185</ele>
        <time>2012-06-19T13:49:04Z</time>
      </trkpt>
      <trkpt lat="47.08837" lon="5.16273">
        <ele>185</ele>
        <time>2012-06-19T13:49:06Z</time>
      </trkpt>
      <trkpt lat="47.08841" lon="5.16294">
        <ele>185</ele>
        <time>2012-06-19T13:49:08Z</time>
      </trkpt>
      <trkpt lat="47.08842" lon="5.16317">
        <ele>185</ele>
        <time>2012-06-19T13:49:10Z</time>
      </trkpt>
      <trkpt lat="47.08841" lon="5.16338">
        <ele>185</ele>
        <time>2012-06-19T13:49:12Z</time>
      </trkpt>
      <trkpt lat="47.08839" lon="5.16355">
        <ele>185</ele>
        <time>2012-06-19T13:49:14Z</time>
      </trkpt>
      <trkpt lat="47.08834" lon="5.16369">
        <ele>185</ele>
        <time>2012-06-19T13:49:17Z</time>
      </trkpt>
      <trkpt lat="47.08823" lon="5.16374">
        <ele>185</ele>
        <time>2012-06-19T13:49:21Z</time>
      </trkpt>
      <trkpt lat="47.08813" lon="5.1638">
        <ele>185</ele>
        <time>2012-06-19T13:50:02Z</time>
      </trkpt>
      <trkpt lat="47.08801" lon="5.16383">
        <ele>185</ele>
        <time>2012-06-19T13:50:06Z</time>
      </trkpt>
      <trkpt lat="47.08789" lon="5.16388">
        <ele>185</ele>
        <time>2012-06-19T13:50:09Z</time>
      </trkpt>
      <trkpt lat="47.0878" lon="5.16391">
        <ele>185</ele>
        <time>2012-06-19T13:50:11Z</time>
      </trkpt>
      <trkpt lat="47.08771" lon="5.16395">
        <ele>185</ele>
        <time>2012-06-19T13:50:13Z</time>
      </trkpt>
      <trkpt lat="47.08761" lon="5.16399">
        <ele>185</ele>
        <time>2012-06-19T13:50:15Z</time>
      </trkpt>
      <trkpt lat="47.08748" lon="5.16403">
        <ele>185</ele>
        <time>2012-06-19T13:50:17Z</time>
      </trkpt>
      <trkpt lat="47.08735" lon="5.16406">
        <ele>185</ele>
        <time>2012-06-19T13:50:19Z</time>
      </trkpt>
      <trkpt lat="47.08723" lon="5.16411">
        <ele>185</ele>
        <time>2012-06-19T13:50:21Z</time>
      </trkpt>
      <trkpt lat="47.0871" lon="5.16414">
        <ele>185</ele>
        <time>2012-06-19T13:50:23Z</time>
      </trkpt>
      <trkpt lat="47.08697" lon="5.16417">
        <ele>185</ele>
        <time>2012-06-19T13:50:25Z</time>
      </trkpt>
      <trkpt lat="47.08684" lon="5.16419">
        <ele>185</ele>
        <time>2012-06-19T13:50:27Z</time>
      </trkpt>
      <trkpt lat="47.08672" lon="5.16421">
        <ele>185</ele>
        <time>2012-06-19T13:50:29Z</time>
      </trkpt>
      <trkpt lat="47.0866" lon="5.1642">
        <ele>185</ele>
        <time>2012-06-19T13:50:31Z</time>
      </trkpt>
      <trkpt lat="47.08649" lon="5.16414">
        <ele>185</ele>
        <time>2012-06-19T13:50:33Z</time>
      </trkpt>
      <trkpt lat="47.08641" lon="5.16402">
        <ele>185</ele>
        <time>2012-06-19T13:50:35Z</time>
      </trkpt>
      <trkpt lat="47.08632" lon="5.16387">
        <ele>180</ele>
        <time>2012-06-19T13:50:37Z</time>
      </trkpt>
      <trkpt lat="47.08621" lon="5.16375">
        <ele>180</ele>
        <time>2012-06-19T13:50:39Z</time>
      </trkpt>
      <trkpt lat="47.08607" lon="5.16369">
        <ele>180</ele>
        <time>2012-06-19T13:50:41Z</time>
      </trkpt>
      <trkpt lat="47.08592" lon="5.16368">
        <ele>180</ele>
        <time>2012-06-19T13:50:43Z</time>
      </trkpt>
      <trkpt lat="47.08577" lon="5.1637">
        <ele>180</ele>
        <time>2012-06-19T13:50:45Z</time>
      </trkpt>
      <trkpt lat="47.08561" lon="5.16373">
        <ele>180</ele>
        <time>2012-06-19T13:50:47Z</time>
      </trkpt>
      <trkpt lat="47.08546" lon="5.16377">
        <ele>180</ele>
        <time>2012-06-19T13:50:49Z</time>
      </trkpt>
      <trkpt lat="47.08531" lon="5.1638">
        <ele>180</ele>
        <time>2012-06-19T13:50:51Z</time>
      </trkpt>
      <trkpt lat="47.08516" lon="5.16383">
        <ele>180</ele>
        <time>2012-06-19T13:50:53Z</time>
      </trkpt>
      <trkpt lat="47.08501" lon="5.16387">
        <ele>180</ele>
        <time>2012-06-19T13:50:55Z</time>
      </trkpt>
      <trkpt lat="47.08486" lon="5.16389">
        <ele>180</ele>
        <time>2012-06-19T13:50:57Z</time>
      </trkpt>
      <trkpt lat="47.08472" lon="5.16393">
        <ele>180</ele>
        <time>2012-06-19T13:50:59Z</time>
      </trkpt>
      <trkpt lat="47.08456" lon="5.16396">
        <ele>180</ele>
        <time>2012-06-19T13:51:01Z</time>
      </trkpt>
      <trkpt lat="47.08441" lon="5.164">
        <ele>180</ele>
        <time>2012-06-19T13:51:03Z</time>
      </trkpt>
      <trkpt lat="47.08427" lon="5.16408">
        <ele>180</ele>
        <time>2012-06-19T13:51:05Z</time>
      </trkpt>
      <trkpt lat="47.08413" lon="5.16417">
        <ele>180</ele>
        <time>2012-06-19T13:51:07Z</time>
      </trkpt>
      <trkpt lat="47.08399" lon="5.16427">
        <ele>180</ele>
        <time>2012-06-19T13:51:09Z</time>
      </trkpt>
      <trkpt lat="47.08386" lon="5.16437">
        <ele>180</ele>
        <time>2012-06-19T13:51:11Z</time>
      </trkpt>
      <trkpt lat="47.08372" lon="5.16446">
        <ele>180</ele>
        <time>2012-06-19T13:51:13Z</time>
      </trkpt>
      <trkpt lat="47.08358" lon="5.16455">
        <ele>180</ele>
        <time>2012-06-19T13:51:15Z</time>
      </trkpt>
      <trkpt lat="47.08344" lon="5.16463">
        <ele>180</ele>
        <time>2012-06-19T13:51:17Z</time>
      </trkpt>
      <trkpt lat="47.0833" lon="5.16472">
        <ele>180</ele>
        <time>2012-06-19T13:51:19Z</time>
      </trkpt>
      <trkpt lat="47.08316" lon="5.16481">
        <ele>180</ele>
        <time>2012-06-19T13:51:21Z</time>
      </trkpt>
      <trkpt lat="47.08302" lon="5.1649">
        <ele>180</ele>
        <time>2012-06-19T13:51:23Z</time>
      </trkpt>
      <trkpt lat="47.08287" lon="5.16499">
        <ele>180</ele>
        <time>2012-06-19T13:51:25Z</time>
      </trkpt>
      <trkpt lat="47.08273" lon="5.16507">
        <ele>180</ele>
        <time>2012-06-19T13:51:27Z</time>
      </trkpt>
      <trkpt lat="47.08258" lon="5.16514">
        <ele>180</ele>
        <time>2012-06-19T13:51:29Z</time>
      </trkpt>
      <trkpt lat="47.08244" lon="5.1652">
        <ele>180</ele>
        <time>2012-06-19T13:51:31Z</time>
      </trkpt>
      <trkpt lat="47.08229" lon="5.16526">
        <ele>180</ele>
        <time>2012-06-19T13:51:33Z</time>
      </trkpt>
      <trkpt lat="47.08215" lon="5.16531">
        <ele>180</ele>
        <time>2012-06-19T13:51:35Z</time>
      </trkpt>
      <trkpt lat="47.08202" lon="5.16536">
        <ele>180</ele>
        <time>2012-06-19T13:51:37Z</time>
      </trkpt>
      <trkpt lat="47.08189" lon="5.1654">
        <ele>180</ele>
        <time>2012-06-19T13:51:39Z</time>
      </trkpt>
      <trkpt lat="47.08177" lon="5.16544">
        <ele>180</ele>
        <time>2012-06-19T13:51:41Z</time>
      </trkpt>
      <trkpt lat="47.08165" lon="5.16548">
        <ele>180</ele>
        <time>2012-06-19T13:51:43Z</time>
      </trkpt>
      <trkpt lat="47.08154" lon="5.16554">
        <ele>180</ele>
        <time>2012-06-19T13:51:45Z</time>
      </trkpt>
      <trkpt lat="47.08142" lon="5.16557">
        <ele>180</ele>
        <time>2012-06-19T13:51:47Z</time>
      </trkpt>
      <trkpt lat="47.08132" lon="5.16563">
        <ele>180</ele>
        <time>2012-06-19T13:51:49Z</time>
      </trkpt>
      <trkpt lat="47.08122" lon="5.16567">
        <ele>180</ele>
        <time>2012-06-19T13:51:51Z</time>
      </trkpt>
      <trkpt lat="47.08111" lon="5.16571">
        <ele>180</ele>
        <time>2012-06-19T13:51:53Z</time>
      </trkpt>
      <trkpt lat="47.08098" lon="5.16575">
        <ele>180</ele>
        <time>2012-06-19T13:51:56Z</time>
      </trkpt>
      <trkpt lat="47.08086" lon="5.16579">
        <ele>180</ele>
        <time>2012-06-19T13:51:59Z</time>
      </trkpt>
      <trkpt lat="47.08075" lon="5.16583">
        <ele>180</ele>
        <time>2012-06-19T13:52:02Z</time>
      </trkpt>
      <trkpt lat="47.08066" lon="5.16586">
        <ele>180</ele>
        <time>2012-06-19T13:52:04Z</time>
      </trkpt>
      <trkpt lat="47.08052" lon="5.16591">
        <ele>180</ele>
        <time>2012-06-19T13:52:07Z</time>
      </trkpt>
      <trkpt lat="47.08043" lon="5.16594">
        <ele>180</ele>
        <time>2012-06-19T13:52:09Z</time>
      </trkpt>
      <trkpt lat="47.08032" lon="5.16599">
        <ele>180</ele>
        <time>2012-06-19T13:52:11Z</time>
      </trkpt>
      <trkpt lat="47.08021" lon="5.16602">
        <ele>180</ele>
        <time>2012-06-19T13:52:13Z</time>
      </trkpt>
      <trkpt lat="47.08009" lon="5.16607">
        <ele>180</ele>
        <time>2012-06-19T13:52:15Z</time>
      </trkpt>
      <trkpt lat="47.07998" lon="5.16612">
        <ele>180</ele>
        <time>2012-06-19T13:52:17Z</time>
      </trkpt>
      <trkpt lat="47.07987" lon="5.16617">
        <ele>180</ele>
        <time>2012-06-19T13:52:19Z</time>
      </trkpt>
      <trkpt lat="47.07975" lon="5.1662">
        <ele>180</ele>
        <time>2012-06-19T13:52:21Z</time>
      </trkpt>
      <trkpt lat="47.07964" lon="5.16624">
        <ele>180</ele>
        <time>2012-06-19T13:52:23Z</time>
      </trkpt>
      <trkpt lat="47.07952" lon="5.16627">
        <ele>180</ele>
        <time>2012-06-19T13:52:25Z</time>
      </trkpt>
      <trkpt lat="47.07941" lon="5.16632">
        <ele>180</ele>
        <time>2012-06-19T13:52:27Z</time>
      </trkpt>
      <trkpt lat="47.07928" lon="5.16636">
        <ele>180</ele>
        <time>2012-06-19T13:52:29Z</time>
      </trkpt>
      <trkpt lat="47.07916" lon="5.1664">
        <ele>180</ele>
        <time>2012-06-19T13:52:31Z</time>
      </trkpt>
      <trkpt lat="47.07903" lon="5.16644">
        <ele>180</ele>
        <time>2012-06-19T13:52:33Z</time>
      </trkpt>
      <trkpt lat="47.07889" lon="5.16647">
        <ele>180</ele>
        <time>2012-06-19T13:52:35Z</time>
      </trkpt>
      <trkpt lat="47.07874" lon="5.16651">
        <ele>180</ele>
        <time>2012-06-19T13:52:37Z</time>
      </trkpt>
      <trkpt lat="47.07858" lon="5.16654">
        <ele>180</ele>
        <time>2012-06-19T13:52:39Z</time>
      </trkpt>
      <trkpt lat="47.07843" lon="5.16655">
        <ele>180</ele>
        <time>2012-06-19T13:52:41Z</time>
      </trkpt>
      <trkpt lat="47.07827" lon="5.16658">
        <ele>180</ele>
        <time>2012-06-19T13:52:43Z</time>
      </trkpt>
      <trkpt lat="47.07812" lon="5.16661">
        <ele>180</ele>
        <time>2012-06-19T13:52:45Z</time>
      </trkpt>
      <trkpt lat="47.07796" lon="5.16663">
        <ele>180</ele>
        <time>2012-06-19T13:52:47Z</time>
      </trkpt>
      <trkpt lat="47.0778" lon="5.16666">
        <ele>180</ele>
        <time>2012-06-19T13:52:49Z</time>
      </trkpt>
      <trkpt lat="47.07764" lon="5.1667">
        <ele>180</ele>
        <time>2012-06-19T13:52:51Z</time>
      </trkpt>
      <trkpt lat="47.07749" lon="5.16671">
        <ele>180</ele>
        <time>2012-06-19T13:52:53Z</time>
      </trkpt>
      <trkpt lat="47.07733" lon="5.16674">
        <ele>180</ele>
        <time>2012-06-19T13:52:55Z</time>
      </trkpt>
      <trkpt lat="47.07718" lon="5.16677">
        <ele>180</ele>
        <time>2012-06-19T13:52:57Z</time>
      </trkpt>
      <trkpt lat="47.07703" lon="5.1668">
        <ele>180</ele>
        <time>2012-06-19T13:52:59Z</time>
      </trkpt>
      <trkpt lat="47.07688" lon="5.16681">
        <ele>180</ele>
        <time>2012-06-19T13:53:01Z</time>
      </trkpt>
      <trkpt lat="47.07673" lon="5.16684">
        <ele>180</ele>
        <time>2012-06-19T13:53:03Z</time>
      </trkpt>
      <trkpt lat="47.07658" lon="5.16687">
        <ele>180</ele>
        <time>2012-06-19T13:53:05Z</time>
      </trkpt>
      <trkpt lat="47.07643" lon="5.16689">
        <ele>180</ele>
        <time>2012-06-19T13:53:07Z</time>
      </trkpt>
      <trkpt lat="47.07628" lon="5.16691">
        <ele>180</ele>
        <time>2012-06-19T13:53:09Z</time>
      </trkpt>
      <trkpt lat="47.07614" lon="5.1669">
        <ele>180</ele>
        <time>2012-06-19T13:53:11Z</time>
      </trkpt>
      <trkpt lat="47.07599" lon="5.16686">
        <ele>180</ele>
        <time>2012-06-19T13:53:13Z</time>
      </trkpt>
      <trkpt lat="47.07586" lon="5.16678">
        <ele>180</ele>
        <time>2012-06-19T13:53:15Z</time>
      </trkpt>
      <trkpt lat="47.07573" lon="5.16668">
        <ele>180</ele>
        <time>2012-06-19T13:53:17Z</time>
      </trkpt>
      <trkpt lat="47.07561" lon="5.16657">
        <ele>180</ele>
        <time>2012-06-19T13:53:19Z</time>
      </trkpt>
      <trkpt lat="47.0755" lon="5.16646">
        <ele>180</ele>
        <time>2012-06-19T13:53:21Z</time>
      </trkpt>
      <trkpt lat="47.07539" lon="5.16636">
        <ele>180</ele>
        <time>2012-06-19T13:53:23Z</time>
      </trkpt>
      <trkpt lat="47.07529" lon="5.16627">
        <ele>180</ele>
        <time>2012-06-19T13:53:25Z</time>
      </trkpt>
      <trkpt lat="47.07519" lon="5.16618">
        <ele>180</ele>
        <time>2012-06-19T13:53:27Z</time>
      </trkpt>
      <trkpt lat="47.07509" lon="5.16609">
        <ele>180</ele>
        <time>2012-06-19T13:53:29Z</time>
      </trkpt>
      <trkpt lat="47.07499" lon="5.16602">
        <ele>180</ele>
        <time>2012-06-19T13:53:31Z</time>
      </trkpt>
      <trkpt lat="47.07488" lon="5.16598">
        <ele>180</ele>
        <time>2012-06-19T13:53:33Z</time>
      </trkpt>
      <trkpt lat="47.07476" lon="5.16594">
        <ele>180</ele>
        <time>2012-06-19T13:53:35Z</time>
      </trkpt>
      <trkpt lat="47.07465" lon="5.16592">
        <ele>180</ele>
        <time>2012-06-19T13:53:37Z</time>
      </trkpt>
      <trkpt lat="47.07452" lon="5.16592">
        <ele>180</ele>
        <time>2012-06-19T13:53:39Z</time>
      </trkpt>
      <trkpt lat="47.07441" lon="5.1659">
        <ele>186</ele>
        <time>2012-06-19T13:53:41Z</time>
      </trkpt>
      <trkpt lat="47.07428" lon="5.16589">
        <ele>186</ele>
        <time>2012-06-19T13:53:43Z</time>
      </trkpt>
      <trkpt lat="47.07416" lon="5.16586">
        <ele>186</ele>
        <time>2012-06-19T13:53:45Z</time>
      </trkpt>
      <trkpt lat="47.07404" lon="5.16585">
        <ele>186</ele>
        <time>2012-06-19T13:53:47Z</time>
      </trkpt>
      <trkpt lat="47.07391" lon="5.16583">
        <ele>186</ele>
        <time>2012-06-19T13:53:49Z</time>
      </trkpt>
      <trkpt lat="47.07378" lon="5.16582">
        <ele>186</ele>
        <time>2012-06-19T13:53:51Z</time>
      </trkpt>
      <trkpt lat="47.07365" lon="5.1658">
        <ele>186</ele>
        <time>2012-06-19T13:53:53Z</time>
      </trkpt>
      <trkpt lat="47.07352" lon="5.16579">
        <ele>186</ele>
        <time>2012-06-19T13:53:55Z</time>
      </trkpt>
      <trkpt lat="47.07338" lon="5.16577">
        <ele>186</ele>
        <time>2012-06-19T13:53:57Z</time>
      </trkpt>
      <trkpt lat="47.07324" lon="5.16574">
        <ele>186</ele>
        <time>2012-06-19T13:53:59Z</time>
      </trkpt>
      <trkpt lat="47.07309" lon="5.16573">
        <ele>186</ele>
        <time>2012-06-19T13:54:01Z</time>
      </trkpt>
      <trkpt lat="47.07295" lon="5.16571">
        <ele>186</ele>
        <time>2012-06-19T13:54:03Z</time>
      </trkpt>
      <trkpt lat="47.07279" lon="5.1657">
        <ele>186</ele>
        <time>2012-06-19T13:54:05Z</time>
      </trkpt>
      <trkpt lat="47.07262" lon="5.16572">
        <ele>186</ele>
        <time>2012-06-19T13:54:07Z</time>
      </trkpt>
      <trkpt lat="47.07245" lon="5.16579">
        <ele>186</ele>
        <time>2012-06-19T13:54:09Z</time>
      </trkpt>
      <trkpt lat="47.07237" lon="5.16585">
        <ele>186</ele>
        <time>2012-06-19T13:54:10Z</time>
      </trkpt>
      <trkpt lat="47.07229" lon="5.16592">
        <ele>186</ele>
        <time>2012-06-19T13:54:11Z</time>
      </trkpt>
      <trkpt lat="47.07222" lon="5.16601">
        <ele>186</ele>
        <time>2012-06-19T13:54:12Z</time>
      </trkpt>
      <trkpt lat="47.07215" lon="5.16609">
        <ele>186</ele>
        <time>2012-06-19T13:54:13Z</time>
      </trkpt>
      <trkpt lat="47.07208" lon="5.16619">
        <ele>186</ele>
        <time>2012-06-19T13:54:14Z</time>
      </trkpt>
      <trkpt lat="47.07201" lon="5.16629">
        <ele>186</ele>
        <time>2012-06-19T13:54:15Z</time>
      </trkpt>
      <trkpt lat="47.07193" lon="5.1664">
        <ele>186</ele>
        <time>2012-06-19T13:54:16Z</time>
      </trkpt>
      <trkpt lat="47.07186" lon="5.1665">
        <ele>186</ele>
        <time>2012-06-19T13:54:17Z</time>
      </trkpt>
      <trkpt lat="47.07179" lon="5.16661">
        <ele>186</ele>
        <time>2012-06-19T13:54:18Z</time>
      </trkpt>
      <trkpt lat="47.07172" lon="5.16671">
        <ele>186</ele>
        <time>2012-06-19T13:54:19Z</time>
      </trkpt>
      <trkpt lat="47.07164" lon="5.16682">
        <ele>186</ele>
        <time>2012-06-19T13:54:20Z</time>
      </trkpt>
      <trkpt lat="47.07156" lon="5.16692">
        <ele>186</ele>
        <time>2012-06-19T13:54:21Z</time>
      </trkpt>
      <trkpt lat="47.07149" lon="5.16702">
        <ele>186</ele>
        <time>2012-06-19T13:54:22Z</time>
      </trkpt>
      <trkpt lat="47.07141" lon="5.16712">
        <ele>186</ele>
        <time>2012-06-19T13:54:23Z</time>
      </trkpt>
      <trkpt lat="47.07133" lon="5.1672">
        <ele>186</ele>
        <time>2012-06-19T13:54:24Z</time>
      </trkpt>
      <trkpt lat="47.07125" lon="5.16727">
        <ele>186</ele>
        <time>2012-06-19T13:54:25Z</time>
      </trkpt>
      <trkpt lat="47.07116" lon="5.16734">
        <ele>186</ele>
        <time>2012-06-19T13:54:26Z</time>
      </trkpt>
      <trkpt lat="47.07107" lon="5.16741">
        <ele>186</ele>
        <time>2012-06-19T13:54:27Z</time>
      </trkpt>
      <trkpt lat="47.07098" lon="5.16746">
        <ele>186</ele>
        <time>2012-06-19T13:54:28Z</time>
      </trkpt>
      <trkpt lat="47.07089" lon="5.16751">
        <ele>186</ele>
        <time>2012-06-19T13:54:29Z</time>
      </trkpt>
      <trkpt lat="47.0708" lon="5.16755">
        <ele>186</ele>
        <time>2012-06-19T13:54:30Z</time>
      </trkpt>
      <trkpt lat="47.07071" lon="5.16759">
        <ele>186</ele>
        <time>2012-06-19T13:54:31Z</time>
      </trkpt>
      <trkpt lat="47.07061" lon="5.16763">
        <ele>186</ele>
        <time>2012-06-19T13:54:32Z</time>
      </trkpt>
      <trkpt lat="47.07052" lon="5.16767">
        <ele>186</ele>
        <time>2012-06-19T13:54:33Z</time>
      </trkpt>
      <trkpt lat="47.07043" lon="5.16771">
        <ele>186</ele>
        <time>2012-06-19T13:54:34Z</time>
      </trkpt>
      <trkpt lat="47.07034" lon="5.16775">
        <ele>186</ele>
        <time>2012-06-19T13:54:35Z</time>
      </trkpt>
      <trkpt lat="47.07017" lon="5.16781">
        <ele>186</ele>
        <time>2012-06-19T13:54:37Z</time>
      </trkpt>
      <trkpt lat="47.07009" lon="5.16785">
        <ele>186</ele>
        <time>2012-06-19T13:54:38Z</time>
      </trkpt>
      <trkpt lat="47.07" lon="5.16788">
        <ele>186</ele>
        <time>2012-06-19T13:54:39Z</time>
      </trkpt>
      <trkpt lat="47.06991" lon="5.16792">
        <ele>186</ele>
        <time>2012-06-19T13:54:40Z</time>
      </trkpt>
      <trkpt lat="47.06974" lon="5.16798">
        <ele>186</ele>
        <time>2012-06-19T13:54:42Z</time>
      </trkpt>
      <trkpt lat="47.06966" lon="5.16802">
        <ele>186</ele>
        <time>2012-06-19T13:54:43Z</time>
      </trkpt>
      <trkpt lat="47.06957" lon="5.16805">
        <ele>186</ele>
        <time>2012-06-19T13:54:44Z</time>
      </trkpt>
      <trkpt lat="47.0694" lon="5.16813">
        <ele>186</ele>
        <time>2012-06-19T13:54:46Z</time>
      </trkpt>
      <trkpt lat="47.06932" lon="5.16816">
        <ele>186</ele>
        <time>2012-06-19T13:54:47Z</time>
      </trkpt>
      <trkpt lat="47.06923" lon="5.1682">
        <ele>186</ele>
        <time>2012-06-19T13:54:48Z</time>
      </trkpt>
      <trkpt lat="47.06907" lon="5.16826">
        <ele>186</ele>
        <time>2012-06-19T13:54:50Z</time>
      </trkpt>
      <trkpt lat="47.06891" lon="5.16834">
        <ele>180</ele>
        <time>2012-06-19T13:54:52Z</time>
      </trkpt>
      <trkpt lat="47.06882" lon="5.16838">
        <ele>180</ele>
        <time>2012-06-19T13:54:53Z</time>
      </trkpt>
      <trkpt lat="47.06866" lon="5.16844">
        <ele>180</ele>
        <time>2012-06-19T13:54:55Z</time>
      </trkpt>
      <trkpt lat="47.06857" lon="5.16848">
        <ele>180</ele>
        <time>2012-06-19T13:54:56Z</time>
      </trkpt>
      <trkpt lat="47.0684" lon="5.16855">
        <ele>180</ele>
        <time>2012-06-19T13:54:58Z</time>
      </trkpt>
      <trkpt lat="47.06824" lon="5.16862">
        <ele>180</ele>
        <time>2012-06-19T13:55:00Z</time>
      </trkpt>
      <trkpt lat="47.06808" lon="5.16869">
        <ele>180</ele>
        <time>2012-06-19T13:55:02Z</time>
      </trkpt>
      <trkpt lat="47.06792" lon="5.16875">
        <ele>180</ele>
        <time>2012-06-19T13:55:04Z</time>
      </trkpt>
      <trkpt lat="47.06775" lon="5.16883">
        <ele>180</ele>
        <time>2012-06-19T13:55:06Z</time>
      </trkpt>
      <trkpt lat="47.06759" lon="5.16889">
        <ele>180</ele>
        <time>2012-06-19T13:55:08Z</time>
      </trkpt>
      <trkpt lat="47.06743" lon="5.16895">
        <ele>180</ele>
        <time>2012-06-19T13:55:10Z</time>
      </trkpt>
      <trkpt lat="47.06727" lon="5.16902">
        <ele>180</ele>
        <time>2012-06-19T13:55:12Z</time>
      </trkpt>
      <trkpt lat="47.06711" lon="5.16909">
        <ele>180</ele>
        <time>2012-06-19T13:55:14Z</time>
      </trkpt>
      <trkpt lat="47.06695" lon="5.16915">
        <ele>180</ele>
        <time>2012-06-19T13:55:16Z</time>
      </trkpt>
      <trkpt lat="47.06679" lon="5.16921">
        <ele>180</ele>
        <time>2012-06-19T13:55:18Z</time>
      </trkpt>
      <trkpt lat="47.06663" lon="5.16928">
        <ele>180</ele>
        <time>2012-06-19T13:55:20Z</time>
      </trkpt>
      <trkpt lat="47.06647" lon="5.16935">
        <ele>180</ele>
        <time>2012-06-19T13:55:22Z</time>
      </trkpt>
      <trkpt lat="47.06632" lon="5.16941">
        <ele>180</ele>
        <time>2012-06-19T13:55:24Z</time>
      </trkpt>
      <trkpt lat="47.06616" lon="5.16948">
        <ele>180</ele>
        <time>2012-06-19T13:55:26Z</time>
      </trkpt>
      <trkpt lat="47.066" lon="5.16954">
        <ele>180</ele>
        <time>2012-06-19T13:55:28Z</time>
      </trkpt>
      <trkpt lat="47.06585" lon="5.1696">
        <ele>180</ele>
        <time>2012-06-19T13:55:30Z</time>
      </trkpt>
      <trkpt lat="47.0657" lon="5.16967">
        <ele>180</ele>
        <time>2012-06-19T13:55:32Z</time>
      </trkpt>
      <trkpt lat="47.06554" lon="5.16974">
        <ele>180</ele>
        <time>2012-06-19T13:55:34Z</time>
      </trkpt>
      <trkpt lat="47.06539" lon="5.16983">
        <ele>180</ele>
        <time>2012-06-19T13:55:36Z</time>
      </trkpt>
      <trkpt lat="47.06524" lon="5.16993">
        <ele>180</ele>
        <time>2012-06-19T13:55:38Z</time>
      </trkpt>
      <trkpt lat="47.0651" lon="5.17003">
        <ele>180</ele>
        <time>2012-06-19T13:55:40Z</time>
      </trkpt>
      <trkpt lat="47.06497" lon="5.17015">
        <ele>180</ele>
        <time>2012-06-19T13:55:42Z</time>
      </trkpt>
      <trkpt lat="47.06484" lon="5.17025">
        <ele>180</ele>
        <time>2012-06-19T13:55:44Z</time>
      </trkpt>
      <trkpt lat="47.06473" lon="5.17034">
        <ele>180</ele>
        <time>2012-06-19T13:55:46Z</time>
      </trkpt>
      <trkpt lat="47.06462" lon="5.17043">
        <ele>180</ele>
        <time>2012-06-19T13:55:48Z</time>
      </trkpt>
      <trkpt lat="47.06451" lon="5.17053">
        <ele>180</ele>
        <time>2012-06-19T13:55:50Z</time>
      </trkpt>
      <trkpt lat="47.0644" lon="5.17064">
        <ele>180</ele>
        <time>2012-06-19T13:55:52Z</time>
      </trkpt>
      <trkpt lat="47.06428" lon="5.17075">
        <ele>180</ele>
        <time>2012-06-19T13:55:54Z</time>
      </trkpt>
      <trkpt lat="47.06416" lon="5.17086">
        <ele>180</ele>
        <time>2012-06-19T13:55:56Z</time>
      </trkpt>
      <trkpt lat="47.06405" lon="5.17097">
        <ele>180</ele>
        <time>2012-06-19T13:55:58Z</time>
      </trkpt>
      <trkpt lat="47.06393" lon="5.17109">
        <ele>180</ele>
        <time>2012-06-19T13:56:00Z</time>
      </trkpt>
      <trkpt lat="47.06381" lon="5.17121">
        <ele>180</ele>
        <time>2012-06-19T13:56:02Z</time>
      </trkpt>
      <trkpt lat="47.0637" lon="5.17132">
        <ele>180</ele>
        <time>2012-06-19T13:56:04Z</time>
      </trkpt>
      <trkpt lat="47.06358" lon="5.17145">
        <ele>180</ele>
        <time>2012-06-19T13:56:06Z</time>
      </trkpt>
      <trkpt lat="47.06347" lon="5.17156">
        <ele>180</ele>
        <time>2012-06-19T13:56:08Z</time>
      </trkpt>
      <trkpt lat="47.06336" lon="5.17166">
        <ele>180</ele>
        <time>2012-06-19T13:56:10Z</time>
      </trkpt>
      <trkpt lat="47.06327" lon="5.17178">
        <ele>180</ele>
        <time>2012-06-19T13:56:12Z</time>
      </trkpt>
      <trkpt lat="47.06319" lon="5.17191">
        <ele>180</ele>
        <time>2012-06-19T13:56:14Z</time>
      </trkpt>
      <trkpt lat="47.06313" lon="5.17203">
        <ele>180</ele>
        <time>2012-06-19T13:56:16Z</time>
      </trkpt>
      <trkpt lat="47.06312" lon="5.17217">
        <ele>186</ele>
        <time>2012-06-19T13:56:18Z</time>
      </trkpt>
      <trkpt lat="47.06316" lon="5.1723">
        <ele>186</ele>
        <time>2012-06-19T13:56:20Z</time>
      </trkpt>
      <trkpt lat="47.06322" lon="5.17244">
        <ele>186</ele>
        <time>2012-06-19T13:56:22Z</time>
      </trkpt>
      <trkpt lat="47.06328" lon="5.17259">
        <ele>186</ele>
        <time>2012-06-19T13:56:24Z</time>
      </trkpt>
      <trkpt lat="47.06334" lon="5.17273">
        <ele>186</ele>
        <time>2012-06-19T13:56:26Z</time>
      </trkpt>
      <trkpt lat="47.0634" lon="5.17288">
        <ele>186</ele>
        <time>2012-06-19T13:56:28Z</time>
      </trkpt>
      <trkpt lat="47.06347" lon="5.17302">
        <ele>186</ele>
        <time>2012-06-19T13:56:30Z</time>
      </trkpt>
      <trkpt lat="47.06352" lon="5.17317">
        <ele>186</ele>
        <time>2012-06-19T13:56:32Z</time>
      </trkpt>
      <trkpt lat="47.06352" lon="5.17335">
        <ele>186</ele>
        <time>2012-06-19T13:56:34Z</time>
      </trkpt>
      <trkpt lat="47.06345" lon="5.17352">
        <ele>186</ele>
        <time>2012-06-19T13:56:36Z</time>
      </trkpt>
      <trkpt lat="47.06337" lon="5.17368">
        <ele>186</ele>
        <time>2012-06-19T13:56:38Z</time>
      </trkpt>
      <trkpt lat="47.06325" lon="5.17379">
        <ele>186</ele>
        <time>2012-06-19T13:56:40Z</time>
      </trkpt>
      <trkpt lat="47.06313" lon="5.17392">
        <ele>186</ele>
        <time>2012-06-19T13:56:42Z</time>
      </trkpt>
      <trkpt lat="47.06301" lon="5.17404">
        <ele>186</ele>
        <time>2012-06-19T13:56:44Z</time>
      </trkpt>
      <trkpt lat="47.06291" lon="5.17413">
        <ele>186</ele>
        <time>2012-06-19T13:56:46Z</time>
      </trkpt>
      <trkpt lat="47.06281" lon="5.17425">
        <ele>186</ele>
        <time>2012-06-19T13:56:48Z</time>
      </trkpt>
      <trkpt lat="47.06272" lon="5.17439">
        <ele>186</ele>
        <time>2012-06-19T13:56:50Z</time>
      </trkpt>
      <trkpt lat="47.06262" lon="5.1745">
        <ele>186</ele>
        <time>2012-06-19T13:56:52Z</time>
      </trkpt>
      <trkpt lat="47.06252" lon="5.17462">
        <ele>186</ele>
        <time>2012-06-19T13:56:54Z</time>
      </trkpt>
      <trkpt lat="47.06242" lon="5.17475">
        <ele>186</ele>
        <time>2012-06-19T13:56:56Z</time>
      </trkpt>
      <trkpt lat="47.06233" lon="5.17489">
        <ele>186</ele>
        <time>2012-06-19T13:56:58Z</time>
      </trkpt>
      <trkpt lat="47.06223" lon="5.17502">
        <ele>186</ele>
        <time>2012-06-19T13:57:00Z</time>
      </trkpt>
      <trkpt lat="47.06214" lon="5.17517">
        <ele>186</ele>
        <time>2012-06-19T13:57:02Z</time>
      </trkpt>
      <trkpt lat="47.06204" lon="5.17533">
        <ele>186</ele>
        <time>2012-06-19T13:57:04Z</time>
      </trkpt>
      <trkpt lat="47.06196" lon="5.17549">
        <ele>186</ele>
        <time>2012-06-19T13:57:06Z</time>
      </trkpt>
      <trkpt lat="47.06188" lon="5.17565">
        <ele>186</ele>
        <time>2012-06-19T13:57:08Z</time>
      </trkpt>
      <trkpt lat="47.06182" lon="5.17583">
        <ele>186</ele>
        <time>2012-06-19T13:57:10Z</time>
      </trkpt>
      <trkpt lat="47.06176" lon="5.17601">
        <ele>186</ele>
        <time>2012-06-19T13:57:12Z</time>
      </trkpt>
      <trkpt lat="47.06168" lon="5.17619">
        <ele>186</ele>
        <time>2012-06-19T13:57:14Z</time>
      </trkpt>
      <trkpt lat="47.06161" lon="5.17637">
        <ele>186</ele>
        <time>2012-06-19T13:57:16Z</time>
      </trkpt>
      <trkpt lat="47.06155" lon="5.17657">
        <ele>186</ele>
        <time>2012-06-19T13:57:18Z</time>
      </trkpt>
      <trkpt lat="47.06148" lon="5.17675">
        <ele>186</ele>
        <time>2012-06-19T13:57:20Z</time>
      </trkpt>
      <trkpt lat="47.06143" lon="5.17695">
        <ele>186</ele>
        <time>2012-06-19T13:57:22Z</time>
      </trkpt>
      <trkpt lat="47.06138" lon="5.17715">
        <ele>186</ele>
        <time>2012-06-19T13:57:24Z</time>
      </trkpt>
      <trkpt lat="47.06132" lon="5.17736">
        <ele>186</ele>
        <time>2012-06-19T13:57:26Z</time>
      </trkpt>
      <trkpt lat="47.06127" lon="5.17757">
        <ele>186</ele>
        <time>2012-06-19T13:57:28Z</time>
      </trkpt>
      <trkpt lat="47.06121" lon="5.17776">
        <ele>186</ele>
        <time>2012-06-19T13:57:30Z</time>
      </trkpt>
      <trkpt lat="47.06114" lon="5.17795">
        <ele>186</ele>
        <time>2012-06-19T13:57:32Z</time>
      </trkpt>
      <trkpt lat="47.06106" lon="5.17814">
        <ele>186</ele>
        <time>2012-06-19T13:57:34Z</time>
      </trkpt>
      <trkpt lat="47.06098" lon="5.17833">
        <ele>186</ele>
        <time>2012-06-19T13:57:36Z</time>
      </trkpt>
      <trkpt lat="47.0609" lon="5.17852">
        <ele>186</ele>
        <time>2012-06-19T13:57:38Z</time>
      </trkpt>
      <trkpt lat="47.06083" lon="5.17872">
        <ele>186</ele>
        <time>2012-06-19T13:57:40Z</time>
      </trkpt>
      <trkpt lat="47.06075" lon="5.1789">
        <ele>186</ele>
        <time>2012-06-19T13:57:42Z</time>
      </trkpt>
      <trkpt lat="47.06067" lon="5.17911">
        <ele>186</ele>
        <time>2012-06-19T13:57:44Z</time>
      </trkpt>
      <trkpt lat="47.06059" lon="5.1793">
        <ele>186</ele>
        <time>2012-06-19T13:57:46Z</time>
      </trkpt>
      <trkpt lat="47.0605" lon="5.17949">
        <ele>186</ele>
        <time>2012-06-19T13:57:48Z</time>
      </trkpt>
      <trkpt lat="47.06042" lon="5.17968">
        <ele>186</ele>
        <time>2012-06-19T13:57:50Z</time>
      </trkpt>
      <trkpt lat="47.06033" lon="5.17986">
        <ele>186</ele>
        <time>2012-06-19T13:57:52Z</time>
      </trkpt>
      <trkpt lat="47.06021" lon="5.18003">
        <ele>186</ele>
        <time>2012-06-19T13:57:54Z</time>
      </trkpt>
      <trkpt lat="47.06008" lon="5.18016">
        <ele>186</ele>
        <time>2012-06-19T13:57:56Z</time>
      </trkpt>
      <trkpt lat="47.05993" lon="5.18027">
        <ele>186</ele>
        <time>2012-06-19T13:57:58Z</time>
      </trkpt>
      <trkpt lat="47.05978" lon="5.18037">
        <ele>186</ele>
        <time>2012-06-19T13:58:00Z</time>
      </trkpt>
      <trkpt lat="47.05963" lon="5.18046">
        <ele>186</ele>
        <time>2012-06-19T13:58:02Z</time>
      </trkpt>
      <trkpt lat="47.05948" lon="5.18054">
        <ele>186</ele>
        <time>2012-06-19T13:58:04Z</time>
      </trkpt>
      <trkpt lat="47.05933" lon="5.18063">
        <ele>186</ele>
        <time>2012-06-19T13:58:06Z</time>
      </trkpt>
      <trkpt lat="47.05918" lon="5.18072">
        <ele>186</ele>
        <time>2012-06-19T13:58:08Z</time>
      </trkpt>
      <trkpt lat="47.05903" lon="5.18081">
        <ele>186</ele>
        <time>2012-06-19T13:58:10Z</time>
      </trkpt>
      <trkpt lat="47.05888" lon="5.1809">
        <ele>186</ele>
        <time>2012-06-19T13:58:12Z</time>
      </trkpt>
      <trkpt lat="47.05874" lon="5.18099">
        <ele>186</ele>
        <time>2012-06-19T13:58:14Z</time>
      </trkpt>
      <trkpt lat="47.05859" lon="5.18108">
        <ele>186</ele>
        <time>2012-06-19T13:58:16Z</time>
      </trkpt>
      <trkpt lat="47.05844" lon="5.18118">
        <ele>186</ele>
        <time>2012-06-19T13:58:18Z</time>
      </trkpt>
      <trkpt lat="47.05828" lon="5.18128">
        <ele>186</ele>
        <time>2012-06-19T13:58:20Z</time>
      </trkpt>
      <trkpt lat="47.05813" lon="5.18138">
        <ele>186</ele>
        <time>2012-06-19T13:58:22Z</time>
      </trkpt>
      <trkpt lat="47.05798" lon="5.18149">
        <ele>186</ele>
        <time>2012-06-19T13:58:24Z</time>
      </trkpt>
      <trkpt lat="47.05784" lon="5.1816">
        <ele>186</ele>
        <time>2012-06-19T13:58:26Z</time>
      </trkpt>
      <trkpt lat="47.0577" lon="5.18173">
        <ele>186</ele>
        <time>2012-06-19T13:58:28Z</time>
      </trkpt>
      <trkpt lat="47.05758" lon="5.18189">
        <ele>186</ele>
        <time>2012-06-19T13:58:30Z</time>
      </trkpt>
      <trkpt lat="47.05746" lon="5.18207">
        <ele>186</ele>
        <time>2012-06-19T13:58:32Z</time>
      </trkpt>
      <trkpt lat="47.05735" lon="5.18226">
        <ele>186</ele>
        <time>2012-06-19T13:58:34Z</time>
      </trkpt>
      <trkpt lat="47.05724" lon="5.18244">
        <ele>186</ele>
        <time>2012-06-19T13:58:36Z</time>
      </trkpt>
      <trkpt lat="47.05714" lon="5.18263">
        <ele>186</ele>
        <time>2012-06-19T13:58:38Z</time>
      </trkpt>
      <trkpt lat="47.05703" lon="5.18282">
        <ele>186</ele>
        <time>2012-06-19T13:58:40Z</time>
      </trkpt>
      <trkpt lat="47.05692" lon="5.18301">
        <ele>186</ele>
        <time>2012-06-19T13:58:42Z</time>
      </trkpt>
      <trkpt lat="47.05683" lon="5.18319">
        <ele>186</ele>
        <time>2012-06-19T13:58:44Z</time>
      </trkpt>
      <trkpt lat="47.05672" lon="5.18337">
        <ele>186</ele>
        <time>2012-06-19T13:58:46Z</time>
      </trkpt>
      <trkpt lat="47.05663" lon="5.18355">
        <ele>186</ele>
        <time>2012-06-19T13:58:48Z</time>
      </trkpt>
      <trkpt lat="47.05653" lon="5.18372">
        <ele>186</ele>
        <time>2012-06-19T13:58:50Z</time>
      </trkpt>
      <trkpt lat="47.05644" lon="5.18389">
        <ele>186</ele>
        <time>2012-06-19T13:58:52Z</time>
      </trkpt>
      <trkpt lat="47.05635" lon="5.18406">
        <ele>186</ele>
        <time>2012-06-19T13:58:54Z</time>
      </trkpt>
      <trkpt lat="47.05625" lon="5.18423">
        <ele>186</ele>
        <time>2012-06-19T13:58:56Z</time>
      </trkpt>
      <trkpt lat="47.05615" lon="5.1844">
        <ele>186</ele>
        <time>2012-06-19T13:58:58Z</time>
      </trkpt>
      <trkpt lat="47.05604" lon="5.18457">
        <ele>186</ele>
        <time>2012-06-19T13:59:00Z</time>
      </trkpt>
      <trkpt lat="47.05592" lon="5.18473">
        <ele>186</ele>
        <time>2012-06-19T13:59:02Z</time>
      </trkpt>
      <trkpt lat="47.05581" lon="5.18489">
        <ele>186</ele>
        <time>2012-06-19T13:59:04Z</time>
      </trkpt>
      <trkpt lat="47.05568" lon="5.18503">
        <ele>186</ele>
        <time>2012-06-19T13:59:06Z</time>
      </trkpt>
      <trkpt lat="47.05557" lon="5.18518">
        <ele>186</ele>
        <time>2012-06-19T13:59:08Z</time>
      </trkpt>
      <trkpt lat="47.05544" lon="5.18531">
        <ele>186</ele>
        <time>2012-06-19T13:59:10Z</time>
      </trkpt>
      <trkpt lat="47.05533" lon="5.18544">
        <ele>186</ele>
        <time>2012-06-19T13:59:12Z</time>
      </trkpt>
      <trkpt lat="47.05522" lon="5.18555">
        <ele>186</ele>
        <time>2012-06-19T13:59:14Z</time>
      </trkpt>
      <trkpt lat="47.05512" lon="5.18566">
        <ele>186</ele>
        <time>2012-06-19T13:59:16Z</time>
      </trkpt>
      <trkpt lat="47.05502" lon="5.18577">
        <ele>186</ele>
        <time>2012-06-19T13:59:18Z</time>
      </trkpt>
      <trkpt lat="47.05492" lon="5.18587">
        <ele>186</ele>
        <time>2012-06-19T13:59:20Z</time>
      </trkpt>
      <trkpt lat="47.05482" lon="5.18597">
        <ele>191</ele>
        <time>2012-06-19T13:59:22Z</time>
      </trkpt>
      <trkpt lat="47.05473" lon="5.18607">
        <ele>191</ele>
        <time>2012-06-19T13:59:24Z</time>
      </trkpt>
      <trkpt lat="47.05463" lon="5.18618">
        <ele>191</ele>
        <time>2012-06-19T13:59:26Z</time>
      </trkpt>
      <trkpt lat="47.05454" lon="5.18628">
        <ele>191</ele>
        <time>2012-06-19T13:59:28Z</time>
      </trkpt>
      <trkpt lat="47.05444" lon="5.18639">
        <ele>191</ele>
        <time>2012-06-19T13:59:30Z</time>
      </trkpt>
      <trkpt lat="47.05434" lon="5.1865">
        <ele>191</ele>
        <time>2012-06-19T13:59:32Z</time>
      </trkpt>
      <trkpt lat="47.05424" lon="5.18662">
        <ele>191</ele>
        <time>2012-06-19T13:59:34Z</time>
      </trkpt>
      <trkpt lat="47.05414" lon="5.18674">
        <ele>191</ele>
        <time>2012-06-19T13:59:36Z</time>
      </trkpt>
      <trkpt lat="47.05403" lon="5.18686">
        <ele>191</ele>
        <time>2012-06-19T13:59:38Z</time>
      </trkpt>
      <trkpt lat="47.05391" lon="5.18699">
        <ele>191</ele>
        <time>2012-06-19T13:59:40Z</time>
      </trkpt>
      <trkpt lat="47.05379" lon="5.18713">
        <ele>191</ele>
        <time>2012-06-19T13:59:42Z</time>
      </trkpt>
      <trkpt lat="47.05365" lon="5.18729">
        <ele>191</ele>
        <time>2012-06-19T13:59:44Z</time>
      </trkpt>
      <trkpt lat="47.05351" lon="5.18745">
        <ele>191</ele>
        <time>2012-06-19T13:59:46Z</time>
      </trkpt>
      <trkpt lat="47.05336" lon="5.18761">
        <ele>191</ele>
        <time>2012-06-19T13:59:48Z</time>
      </trkpt>
      <trkpt lat="47.05329" lon="5.18769">
        <ele>191</ele>
        <time>2012-06-19T13:59:49Z</time>
      </trkpt>
      <trkpt lat="47.05315" lon="5.18785">
        <ele>186</ele>
        <time>2012-06-19T13:59:51Z</time>
      </trkpt>
      <trkpt lat="47.05308" lon="5.18793">
        <ele>186</ele>
        <time>2012-06-19T13:59:52Z</time>
      </trkpt>
      <trkpt lat="47.05293" lon="5.18809">
        <ele>186</ele>
        <time>2012-06-19T13:59:54Z</time>
      </trkpt>
      <trkpt lat="47.05279" lon="5.18825">
        <ele>186</ele>
        <time>2012-06-19T13:59:56Z</time>
      </trkpt>
      <trkpt lat="47.05266" lon="5.1884">
        <ele>186</ele>
        <time>2012-06-19T13:59:58Z</time>
      </trkpt>
      <trkpt lat="47.05253" lon="5.18855">
        <ele>186</ele>
        <time>2012-06-19T14:00:00Z</time>
      </trkpt>
      <trkpt lat="47.0524" lon="5.18871">
        <ele>186</ele>
        <time>2012-06-19T14:00:02Z</time>
      </trkpt>
      <trkpt lat="47.05227" lon="5.18886">
        <ele>186</ele>
        <time>2012-06-19T14:00:04Z</time>
      </trkpt>
      <trkpt lat="47.05214" lon="5.18901">
        <ele>186</ele>
        <time>2012-06-19T14:00:06Z</time>
      </trkpt>
      <trkpt lat="47.05201" lon="5.18916">
        <ele>186</ele>
        <time>2012-06-19T14:00:08Z</time>
      </trkpt>
      <trkpt lat="47.05188" lon="5.18932">
        <ele>186</ele>
        <time>2012-06-19T14:00:10Z</time>
      </trkpt>
      <trkpt lat="47.05174" lon="5.18948">
        <ele>186</ele>
        <time>2012-06-19T14:00:12Z</time>
      </trkpt>
      <trkpt lat="47.05161" lon="5.18963">
        <ele>186</ele>
        <time>2012-06-19T14:00:14Z</time>
      </trkpt>
      <trkpt lat="47.05147" lon="5.18979">
        <ele>186</ele>
        <time>2012-06-19T14:00:16Z</time>
      </trkpt>
      <trkpt lat="47.05133" lon="5.18995">
        <ele>186</ele>
        <time>2012-06-19T14:00:18Z</time>
      </trkpt>
      <trkpt lat="47.0512" lon="5.19011">
        <ele>186</ele>
        <time>2012-06-19T14:00:20Z</time>
      </trkpt>
      <trkpt lat="47.05106" lon="5.19027">
        <ele>186</ele>
        <time>2012-06-19T14:00:22Z</time>
      </trkpt>
      <trkpt lat="47.05093" lon="5.19043">
        <ele>186</ele>
        <time>2012-06-19T14:00:24Z</time>
      </trkpt>
      <trkpt lat="47.05079" lon="5.19059">
        <ele>186</ele>
        <time>2012-06-19T14:00:26Z</time>
      </trkpt>
      <trkpt lat="47.05066" lon="5.19075">
        <ele>186</ele>
        <time>2012-06-19T14:00:28Z</time>
      </trkpt>
      <trkpt lat="47.05052" lon="5.19092">
        <ele>186</ele>
        <time>2012-06-19T14:00:30Z</time>
      </trkpt>
      <trkpt lat="47.05039" lon="5.19109">
        <ele>186</ele>
        <time>2012-06-19T14:00:32Z</time>
      </trkpt>
      <trkpt lat="47.05026" lon="5.19124">
        <ele>186</ele>
        <time>2012-06-19T14:00:34Z</time>
      </trkpt>
      <trkpt lat="47.05014" lon="5.19141">
        <ele>186</ele>
        <time>2012-06-19T14:00:36Z</time>
      </trkpt>
      <trkpt lat="47.05003" lon="5.1916">
        <ele>186</ele>
        <time>2012-06-19T14:00:38Z</time>
      </trkpt>
      <trkpt lat="47.04993" lon="5.19179">
        <ele>186</ele>
        <time>2012-06-19T14:00:40Z</time>
      </trkpt>
      <trkpt lat="47.04984" lon="5.19199">
        <ele>186</ele>
        <time>2012-06-19T14:00:42Z</time>
      </trkpt>
      <trkpt lat="47.04976" lon="5.19221">
        <ele>186</ele>
        <time>2012-06-19T14:00:44Z</time>
      </trkpt>
      <trkpt lat="47.04969" lon="5.19242">
        <ele>186</ele>
        <time>2012-06-19T14:00:46Z</time>
      </trkpt>
      <trkpt lat="47.04961" lon="5.19262">
        <ele>186</ele>
        <time>2012-06-19T14:00:48Z</time>
      </trkpt>
      <trkpt lat="47.04953" lon="5.19283">
        <ele>186</ele>
        <time>2012-06-19T14:00:50Z</time>
      </trkpt>
      <trkpt lat="47.04945" lon="5.19303">
        <ele>186</ele>
        <time>2012-06-19T14:00:52Z</time>
      </trkpt>
      <trkpt lat="47.04936" lon="5.19321">
        <ele>186</ele>
        <time>2012-06-19T14:00:54Z</time>
      </trkpt>
      <trkpt lat="47.04925" lon="5.19336">
        <ele>186</ele>
        <time>2012-06-19T14:00:56Z</time>
      </trkpt>
      <trkpt lat="47.04911" lon="5.19345">
        <ele>186</ele>
        <time>2012-06-19T14:00:58Z</time>
      </trkpt>
      <trkpt lat="47.04897" lon="5.19354">
        <ele>186</ele>
        <time>2012-06-19T14:01:00Z</time>
      </trkpt>
      <trkpt lat="47.04884" lon="5.19365">
        <ele>186</ele>
        <time>2012-06-19T14:01:02Z</time>
      </trkpt>
      <trkpt lat="47.04872" lon="5.19377">
        <ele>186</ele>
        <time>2012-06-19T14:01:04Z</time>
      </trkpt>
      <trkpt lat="47.0486" lon="5.19392">
        <ele>186</ele>
        <time>2012-06-19T14:01:06Z</time>
      </trkpt>
      <trkpt lat="47.04849" lon="5.19407">
        <ele>186</ele>
        <time>2012-06-19T14:01:08Z</time>
      </trkpt>
      <trkpt lat="47.04839" lon="5.1942">
        <ele>186</ele>
        <time>2012-06-19T14:01:10Z</time>
      </trkpt>
      <trkpt lat="47.0483" lon="5.19431">
        <ele>186</ele>
        <time>2012-06-19T14:01:12Z</time>
      </trkpt>
      <trkpt lat="47.04824" lon="5.19441">
        <ele>186</ele>
        <time>2012-06-19T14:01:14Z</time>
      </trkpt>
      <trkpt lat="47.04813" lon="5.19454">
        <ele>186</ele>
        <time>2012-06-19T14:01:17Z</time>
      </trkpt>
      <trkpt lat="47.04807" lon="5.19463">
        <ele>186</ele>
        <time>2012-06-19T14:01:19Z</time>
      </trkpt>
      <trkpt lat="47.048" lon="5.19473">
        <ele>186</ele>
        <time>2012-06-19T14:01:21Z</time>
      </trkpt>
      <trkpt lat="47.04792" lon="5.19484">
        <ele>186</ele>
        <time>2012-06-19T14:01:23Z</time>
      </trkpt>
      <trkpt lat="47.04784" lon="5.19495">
        <ele>186</ele>
        <time>2012-06-19T14:01:25Z</time>
      </trkpt>
      <trkpt lat="47.04775" lon="5.19506">
        <ele>186</ele>
        <time>2012-06-19T14:01:27Z</time>
      </trkpt>
      <trkpt lat="47.04767" lon="5.19516">
        <ele>186</ele>
        <time>2012-06-19T14:01:29Z</time>
      </trkpt>
      <trkpt lat="47.04759" lon="5.19525">
        <ele>186</ele>
        <time>2012-06-19T14:01:31Z</time>
      </trkpt>
      <trkpt lat="47.04751" lon="5.19534">
        <ele>186</ele>
        <time>2012-06-19T14:01:33Z</time>
      </trkpt>
      <trkpt lat="47.04743" lon="5.19543">
        <ele>186</ele>
        <time>2012-06-19T14:01:35Z</time>
      </trkpt>
      <trkpt lat="47.04734" lon="5.19553">
        <ele>186</ele>
        <time>2012-06-19T14:01:37Z</time>
      </trkpt>
      <trkpt lat="47.04725" lon="5.19565">
        <ele>186</ele>
        <time>2012-06-19T14:01:39Z</time>
      </trkpt>
      <trkpt lat="47.04717" lon="5.19577">
        <ele>186</ele>
        <time>2012-06-19T14:01:41Z</time>
      </trkpt>
      <trkpt lat="47.04711" lon="5.19588">
        <ele>186</ele>
        <time>2012-06-19T14:01:43Z</time>
      </trkpt>
      <trkpt lat="47.04706" lon="5.196">
        <ele>186</ele>
        <time>2012-06-19T14:01:45Z</time>
      </trkpt>
      <trkpt lat="47.04705" lon="5.19613">
        <ele>186</ele>
        <time>2012-06-19T14:01:47Z</time>
      </trkpt>
      <trkpt lat="47.04706" lon="5.19629">
        <ele>186</ele>
        <time>2012-06-19T14:01:49Z</time>
      </trkpt>
      <trkpt lat="47.04709" lon="5.19646">
        <ele>186</ele>
        <time>2012-06-19T14:01:51Z</time>
      </trkpt>
      <trkpt lat="47.04714" lon="5.19664">
        <ele>186</ele>
        <time>2012-06-19T14:01:53Z</time>
      </trkpt>
      <trkpt lat="47.04719" lon="5.19682">
        <ele>186</ele>
        <time>2012-06-19T14:01:55Z</time>
      </trkpt>
      <trkpt lat="47.04719" lon="5.19701">
        <ele>186</ele>
        <time>2012-06-19T14:01:57Z</time>
      </trkpt>
      <trkpt lat="47.04711" lon="5.19718">
        <ele>186</ele>
        <time>2012-06-19T14:01:59Z</time>
      </trkpt>
      <trkpt lat="47.04701" lon="5.19734">
        <ele>186</ele>
        <time>2012-06-19T14:02:01Z</time>
      </trkpt>
      <trkpt lat="47.0469" lon="5.19748">
        <ele>186</ele>
        <time>2012-06-19T14:02:03Z</time>
      </trkpt>
      <trkpt lat="47.04681" lon="5.19763">
        <ele>186</ele>
        <time>2012-06-19T14:02:05Z</time>
      </trkpt>
      <trkpt lat="47.0467" lon="5.19776">
        <ele>186</ele>
        <time>2012-06-19T14:02:07Z</time>
      </trkpt>
      <trkpt lat="47.0466" lon="5.1979">
        <ele>186</ele>
        <time>2012-06-19T14:02:09Z</time>
      </trkpt>
      <trkpt lat="47.04647" lon="5.19799">
        <ele>186</ele>
        <time>2012-06-19T14:02:11Z</time>
      </trkpt>
      <trkpt lat="47.04633" lon="5.198">
        <ele>186</ele>
        <time>2012-06-19T14:02:13Z</time>
      </trkpt>
      <trkpt lat="47.0462" lon="5.19793">
        <ele>186</ele>
        <time>2012-06-19T14:02:15Z</time>
      </trkpt>
      <trkpt lat="47.04608" lon="5.19781">
        <ele>186</ele>
        <time>2012-06-19T14:02:17Z</time>
      </trkpt>
      <trkpt lat="47.04597" lon="5.19768">
        <ele>186</ele>
        <time>2012-06-19T14:02:19Z</time>
      </trkpt>
      <trkpt lat="47.04585" lon="5.19754">
        <ele>186</ele>
        <time>2012-06-19T14:02:21Z</time>
      </trkpt>
      <trkpt lat="47.04573" lon="5.19743">
        <ele>186</ele>
        <time>2012-06-19T14:02:23Z</time>
      </trkpt>
      <trkpt lat="47.04561" lon="5.19729">
        <ele>186</ele>
        <time>2012-06-19T14:02:25Z</time>
      </trkpt>
      <trkpt lat="47.04549" lon="5.19718">
        <ele>186</ele>
        <time>2012-06-19T14:02:27Z</time>
      </trkpt>
      <trkpt lat="47.04538" lon="5.19706">
        <ele>186</ele>
        <time>2012-06-19T14:02:29Z</time>
      </trkpt>
      <trkpt lat="47.04525" lon="5.19696">
        <ele>186</ele>
        <time>2012-06-19T14:02:31Z</time>
      </trkpt>
      <trkpt lat="47.04512" lon="5.19689">
        <ele>186</ele>
        <time>2012-06-19T14:02:33Z</time>
      </trkpt>
      <trkpt lat="47.04499" lon="5.19684">
        <ele>186</ele>
        <time>2012-06-19T14:02:35Z</time>
      </trkpt>
      <trkpt lat="47.04486" lon="5.19684">
        <ele>186</ele>
        <time>2012-06-19T14:02:37Z</time>
      </trkpt>
      <trkpt lat="47.04472" lon="5.19685">
        <ele>186</ele>
        <time>2012-06-19T14:02:39Z</time>
      </trkpt>
      <trkpt lat="47.0446" lon="5.1969">
        <ele>186</ele>
        <time>2012-06-19T14:02:41Z</time>
      </trkpt>
      <trkpt lat="47.04449" lon="5.19695">
        <ele>186</ele>
        <time>2012-06-19T14:02:43Z</time>
      </trkpt>
      <trkpt lat="47.04438" lon="5.19704">
        <ele>186</ele>
        <time>2012-06-19T14:02:45Z</time>
      </trkpt>
      <trkpt lat="47.04428" lon="5.19715">
        <ele>186</ele>
        <time>2012-06-19T14:02:47Z</time>
      </trkpt>
      <trkpt lat="47.0442" lon="5.19727">
        <ele>186</ele>
        <time>2012-06-19T14:02:49Z</time>
      </trkpt>
      <trkpt lat="47.04412" lon="5.19741">
        <ele>186</ele>
        <time>2012-06-19T14:02:51Z</time>
      </trkpt>
      <trkpt lat="47.04404" lon="5.19754">
        <ele>186</ele>
        <time>2012-06-19T14:02:53Z</time>
      </trkpt>
      <trkpt lat="47.04396" lon="5.19769">
        <ele>186</ele>
        <time>2012-06-19T14:02:55Z</time>
      </trkpt>
      <trkpt lat="47.04388" lon="5.19783">
        <ele>186</ele>
        <time>2012-06-19T14:02:57Z</time>
      </trkpt>
      <trkpt lat="47.0438" lon="5.19797">
        <ele>191</ele>
        <time>2012-06-19T14:02:59Z</time>
      </trkpt>
      <trkpt lat="47.04371" lon="5.19812">
        <ele>191</ele>
        <time>2012-06-19T14:03:01Z</time>
      </trkpt>
      <trkpt lat="47.04363" lon="5.19825">
        <ele>191</ele>
        <time>2012-06-19T14:03:03Z</time>
      </trkpt>
      <trkpt lat="47.04354" lon="5.19841">
        <ele>191</ele>
        <time>2012-06-19T14:03:05Z</time>
      </trkpt>
      <trkpt lat="47.04345" lon="5.19857">
        <ele>191</ele>
        <time>2012-06-19T14:03:07Z</time>
      </trkpt>
      <trkpt lat="47.04336" lon="5.19875">
        <ele>191</ele>
        <time>2012-06-19T14:03:09Z</time>
      </trkpt>
      <trkpt lat="47.04328" lon="5.19895">
        <ele>191</ele>
        <time>2012-06-19T14:03:11Z</time>
      </trkpt>
      <trkpt lat="47.04322" lon="5.19918">
        <ele>191</ele>
        <time>2012-06-19T14:03:13Z</time>
      </trkpt>
      <trkpt lat="47.04319" lon="5.19944">
        <ele>191</ele>
        <time>2012-06-19T14:03:15Z</time>
      </trkpt>
      <trkpt lat="47.0432" lon="5.19958">
        <ele>191</ele>
        <time>2012-06-19T14:03:16Z</time>
      </trkpt>
      <trkpt lat="47.0432" lon="5.19971">
        <ele>191</ele>
        <time>2012-06-19T14:03:17Z</time>
      </trkpt>
      <trkpt lat="47.04323" lon="5.19984">
        <ele>191</ele>
        <time>2012-06-19T14:03:18Z</time>
      </trkpt>
      <trkpt lat="47.04325" lon="5.19998">
        <ele>186</ele>
        <time>2012-06-19T14:03:19Z</time>
      </trkpt>
      <trkpt lat="47.04329" lon="5.20011">
        <ele>186</ele>
        <time>2012-06-19T14:03:20Z</time>
      </trkpt>
      <trkpt lat="47.04334" lon="5.20024">
        <ele>186</ele>
        <time>2012-06-19T14:03:21Z</time>
      </trkpt>
      <trkpt lat="47.04339" lon="5.20037">
        <ele>186</ele>
        <time>2012-06-19T14:03:22Z</time>
      </trkpt>
      <trkpt lat="47.04345" lon="5.20049">
        <ele>186</ele>
        <time>2012-06-19T14:03:23Z</time>
      </trkpt>
      <trkpt lat="47.0435" lon="5.20062">
        <ele>186</ele>
        <time>2012-06-19T14:03:24Z</time>
      </trkpt>
      <trkpt lat="47.04356" lon="5.20073">
        <ele>186</ele>
        <time>2012-06-19T14:03:25Z</time>
      </trkpt>
      <trkpt lat="47.04361" lon="5.20085">
        <ele>186</ele>
        <time>2012-06-19T14:03:26Z</time>
      </trkpt>
      <trkpt lat="47.04367" lon="5.20096">
        <ele>186</ele>
        <time>2012-06-19T14:03:27Z</time>
      </trkpt>
      <trkpt lat="47.04372" lon="5.20108">
        <ele>186</ele>
        <time>2012-06-19T14:03:28Z</time>
      </trkpt>
      <trkpt lat="47.0438" lon="5.20127">
        <ele>186</ele>
        <time>2012-06-19T14:03:30Z</time>
      </trkpt>
      <trkpt lat="47.04389" lon="5.20146">
        <ele>186</ele>
        <time>2012-06-19T14:03:32Z</time>
      </trkpt>
      <trkpt lat="47.04397" lon="5.20165">
        <ele>186</ele>
        <time>2012-06-19T14:03:34Z</time>
      </trkpt>
      <trkpt lat="47.04405" lon="5.20184">
        <ele>186</ele>
        <time>2012-06-19T14:03:36Z</time>
      </trkpt>
      <trkpt lat="47.04414" lon="5.20202">
        <ele>186</ele>
        <time>2012-06-19T14:03:38Z</time>
      </trkpt>
      <trkpt lat="47.04422" lon="5.2022">
        <ele>186</ele>
        <time>2012-06-19T14:03:40Z</time>
      </trkpt>
      <trkpt lat="47.04429" lon="5.20239">
        <ele>186</ele>
        <time>2012-06-19T14:03:42Z</time>
      </trkpt>
      <trkpt lat="47.04436" lon="5.20259">
        <ele>186</ele>
        <time>2012-06-19T14:03:44Z</time>
      </trkpt>
      <trkpt lat="47.04438" lon="5.20281">
        <ele>186</ele>
        <time>2012-06-19T14:03:46Z</time>
      </trkpt>
      <trkpt lat="47.04439" lon="5.20302">
        <ele>186</ele>
        <time>2012-06-19T14:03:48Z</time>
      </trkpt>
      <trkpt lat="47.04436" lon="5.20325">
        <ele>186</ele>
        <time>2012-06-19T14:03:50Z</time>
      </trkpt>
      <trkpt lat="47.04432" lon="5.20346">
        <ele>186</ele>
        <time>2012-06-19T14:03:52Z</time>
      </trkpt>
      <trkpt lat="47.04426" lon="5.20365">
        <ele>186</ele>
        <time>2012-06-19T14:03:54Z</time>
      </trkpt>
      <trkpt lat="47.04417" lon="5.20383">
        <ele>186</ele>
        <time>2012-06-19T14:03:56Z</time>
      </trkpt>
      <trkpt lat="47.04407" lon="5.20398">
        <ele>186</ele>
        <time>2012-06-19T14:03:58Z</time>
      </trkpt>
      <trkpt lat="47.04397" lon="5.20412">
        <ele>186</ele>
        <time>2012-06-19T14:04:00Z</time>
      </trkpt>
      <trkpt lat="47.04387" lon="5.20426">
        <ele>186</ele>
        <time>2012-06-19T14:04:02Z</time>
      </trkpt>
      <trkpt lat="47.04375" lon="5.2044">
        <ele>186</ele>
        <time>2012-06-19T14:04:04Z</time>
      </trkpt>
      <trkpt lat="47.04365" lon="5.20453">
        <ele>186</ele>
        <time>2012-06-19T14:04:06Z</time>
      </trkpt>
      <trkpt lat="47.04355" lon="5.20467">
        <ele>186</ele>
        <time>2012-06-19T14:04:08Z</time>
      </trkpt>
      <trkpt lat="47.04344" lon="5.20481">
        <ele>186</ele>
        <time>2012-06-19T14:04:10Z</time>
      </trkpt>
      <trkpt lat="47.04334" lon="5.20497">
        <ele>186</ele>
        <time>2012-06-19T14:04:12Z</time>
      </trkpt>
      <trkpt lat="47.04324" lon="5.20512">
        <ele>186</ele>
        <time>2012-06-19T14:04:14Z</time>
      </trkpt>
      <trkpt lat="47.04314" lon="5.20527">
        <ele>186</ele>
        <time>2012-06-19T14:04:16Z</time>
      </trkpt>
      <trkpt lat="47.04304" lon="5.20542">
        <ele>186</ele>
        <time>2012-06-19T14:04:18Z</time>
      </trkpt>
      <trkpt lat="47.04293" lon="5.20558">
        <ele>186</ele>
        <time>2012-06-19T14:04:20Z</time>
      </trkpt>
      <trkpt lat="47.04282" lon="5.20572">
        <ele>186</ele>
        <time>2012-06-19T14:04:22Z</time>
      </trkpt>
      <trkpt lat="47.04269" lon="5.20584">
        <ele>186</ele>
        <time>2012-06-19T14:04:24Z</time>
      </trkpt>
      <trkpt lat="47.04255" lon="5.20594">
        <ele>186</ele>
        <time>2012-06-19T14:04:26Z</time>
      </trkpt>
      <trkpt lat="47.04241" lon="5.20603">
        <ele>186</ele>
        <time>2012-06-19T14:04:28Z</time>
      </trkpt>
      <trkpt lat="47.04227" lon="5.20612">
        <ele>186</ele>
        <time>2012-06-19T14:04:30Z</time>
      </trkpt>
      <trkpt lat="47.04212" lon="5.20621">
        <ele>186</ele>
        <time>2012-06-19T14:04:32Z</time>
      </trkpt>
      <trkpt lat="47.04199" lon="5.2063">
        <ele>186</ele>
        <time>2012-06-19T14:04:34Z</time>
      </trkpt>
      <trkpt lat="47.04185" lon="5.20639">
        <ele>186</ele>
        <time>2012-06-19T14:04:36Z</time>
      </trkpt>
      <trkpt lat="47.04172" lon="5.20648">
        <ele>186</ele>
        <time>2012-06-19T14:04:38Z</time>
      </trkpt>
      <trkpt lat="47.04159" lon="5.20657">
        <ele>186</ele>
        <time>2012-06-19T14:04:40Z</time>
      </trkpt>
      <trkpt lat="47.04146" lon="5.20665">
        <ele>186</ele>
        <time>2012-06-19T14:04:42Z</time>
      </trkpt>
      <trkpt lat="47.04134" lon="5.20673">
        <ele>186</ele>
        <time>2012-06-19T14:04:44Z</time>
      </trkpt>
      <trkpt lat="47.04122" lon="5.20682">
        <ele>186</ele>
        <time>2012-06-19T14:04:46Z</time>
      </trkpt>
      <trkpt lat="47.0411" lon="5.2069">
        <ele>186</ele>
        <time>2012-06-19T14:04:48Z</time>
      </trkpt>
      <trkpt lat="47.04099" lon="5.20699">
        <ele>191</ele>
        <time>2012-06-19T14:04:50Z</time>
      </trkpt>
      <trkpt lat="47.04087" lon="5.20707">
        <ele>191</ele>
        <time>2012-06-19T14:04:52Z</time>
      </trkpt>
      <trkpt lat="47.04076" lon="5.20715">
        <ele>191</ele>
        <time>2012-06-19T14:04:54Z</time>
      </trkpt>
      <trkpt lat="47.04066" lon="5.20723">
        <ele>191</ele>
        <time>2012-06-19T14:04:56Z</time>
      </trkpt>
      <trkpt lat="47.04056" lon="5.20731">
        <ele>191</ele>
        <time>2012-06-19T14:04:58Z</time>
      </trkpt>
      <trkpt lat="47.04046" lon="5.20739">
        <ele>191</ele>
        <time>2012-06-19T14:05:00Z</time>
      </trkpt>
      <trkpt lat="47.04036" lon="5.20746">
        <ele>191</ele>
        <time>2012-06-19T14:05:02Z</time>
      </trkpt>
      <trkpt lat="47.04025" lon="5.20753">
        <ele>191</ele>
        <time>2012-06-19T14:05:04Z</time>
      </trkpt>
      <trkpt lat="47.04016" lon="5.20761">
        <ele>191</ele>
        <time>2012-06-19T14:05:06Z</time>
      </trkpt>
      <trkpt lat="47.04006" lon="5.20769">
        <ele>191</ele>
        <time>2012-06-19T14:05:08Z</time>
      </trkpt>
      <trkpt lat="47.03995" lon="5.20777">
        <ele>191</ele>
        <time>2012-06-19T14:05:10Z</time>
      </trkpt>
      <trkpt lat="47.03985" lon="5.20786">
        <ele>191</ele>
        <time>2012-06-19T14:05:12Z</time>
      </trkpt>
      <trkpt lat="47.03974" lon="5.20794">
        <ele>196</ele>
        <time>2012-06-19T14:05:14Z</time>
      </trkpt>
      <trkpt lat="47.03963" lon="5.20803">
        <ele>196</ele>
        <time>2012-06-19T14:05:16Z</time>
      </trkpt>
      <trkpt lat="47.03952" lon="5.20812">
        <ele>196</ele>
        <time>2012-06-19T14:05:18Z</time>
      </trkpt>
      <trkpt lat="47.0394" lon="5.20821">
        <ele>196</ele>
        <time>2012-06-19T14:05:20Z</time>
      </trkpt>
      <trkpt lat="47.03928" lon="5.2083">
        <ele>196</ele>
        <time>2012-06-19T14:05:22Z</time>
      </trkpt>
      <trkpt lat="47.03915" lon="5.2084">
        <ele>196</ele>
        <time>2012-06-19T14:05:24Z</time>
      </trkpt>
      <trkpt lat="47.03901" lon="5.20849">
        <ele>196</ele>
        <time>2012-06-19T14:05:26Z</time>
      </trkpt>
      <trkpt lat="47.03888" lon="5.20859">
        <ele>196</ele>
        <time>2012-06-19T14:05:28Z</time>
      </trkpt>
      <trkpt lat="47.03875" lon="5.2087">
        <ele>196</ele>
        <time>2012-06-19T14:05:30Z</time>
      </trkpt>
      <trkpt lat="47.03861" lon="5.2088">
        <ele>196</ele>
        <time>2012-06-19T14:05:32Z</time>
      </trkpt>
      <trkpt lat="47.03847" lon="5.20892">
        <ele>196</ele>
        <time>2012-06-19T14:05:34Z</time>
      </trkpt>
      <trkpt lat="47.03833" lon="5.20903">
        <ele>196</ele>
        <time>2012-06-19T14:05:36Z</time>
      </trkpt>
      <trkpt lat="47.03819" lon="5.20915">
        <ele>196</ele>
        <time>2012-06-19T14:05:38Z</time>
      </trkpt>
      <trkpt lat="47.03805" lon="5.20927">
        <ele>196</ele>
        <time>2012-06-19T14:05:40Z</time>
      </trkpt>
      <trkpt lat="47.03791" lon="5.2094">
        <ele>191</ele>
        <time>2012-06-19T14:05:42Z</time>
      </trkpt>
      <trkpt lat="47.03776" lon="5.20955">
        <ele>191</ele>
        <time>2012-06-19T14:05:44Z</time>
      </trkpt>
      <trkpt lat="47.03763" lon="5.2097">
        <ele>191</ele>
        <time>2012-06-19T14:05:46Z</time>
      </trkpt>
      <trkpt lat="47.03748" lon="5.20986">
        <ele>191</ele>
        <time>2012-06-19T14:05:48Z</time>
      </trkpt>
      <trkpt lat="47.03736" lon="5.21003">
        <ele>191</ele>
        <time>2012-06-19T14:05:50Z</time>
      </trkpt>
      <trkpt lat="47.03724" lon="5.21021">
        <ele>191</ele>
        <time>2012-06-19T14:05:52Z</time>
      </trkpt>
      <trkpt lat="47.03712" lon="5.21039">
        <ele>191</ele>
        <time>2012-06-19T14:05:54Z</time>
      </trkpt>
      <trkpt lat="47.03701" lon="5.21058">
        <ele>191</ele>
        <time>2012-06-19T14:05:56Z</time>
      </trkpt>
      <trkpt lat="47.03696" lon="5.21069">
        <ele>191</ele>
        <time>2012-06-19T14:05:57Z</time>
      </trkpt>
      <trkpt lat="47.03688" lon="5.2109">
        <ele>191</ele>
        <time>2012-06-19T14:05:59Z</time>
      </trkpt>
      <trkpt lat="47.03681" lon="5.21111">
        <ele>191</ele>
        <time>2012-06-19T14:06:01Z</time>
      </trkpt>
      <trkpt lat="47.03674" lon="5.21133">
        <ele>191</ele>
        <time>2012-06-19T14:06:03Z</time>
      </trkpt>
      <trkpt lat="47.03667" lon="5.21154">
        <ele>191</ele>
        <time>2012-06-19T14:06:05Z</time>
      </trkpt>
      <trkpt lat="47.03661" lon="5.21175">
        <ele>191</ele>
        <time>2012-06-19T14:06:07Z</time>
      </trkpt>
      <trkpt lat="47.03655" lon="5.21194">
        <ele>191</ele>
        <time>2012-06-19T14:06:09Z</time>
      </trkpt>
      <trkpt lat="47.0365" lon="5.21215">
        <ele>191</ele>
        <time>2012-06-19T14:06:11Z</time>
      </trkpt>
      <trkpt lat="47.03643" lon="5.21236">
        <ele>191</ele>
        <time>2012-06-19T14:06:13Z</time>
      </trkpt>
      <trkpt lat="47.03639" lon="5.21256">
        <ele>191</ele>
        <time>2012-06-19T14:06:15Z</time>
      </trkpt>
      <trkpt lat="47.03634" lon="5.21277">
        <ele>191</ele>
        <time>2012-06-19T14:06:17Z</time>
      </trkpt>
      <trkpt lat="47.03628" lon="5.21298">
        <ele>191</ele>
        <time>2012-06-19T14:06:19Z</time>
      </trkpt>
      <trkpt lat="47.03624" lon="5.21317">
        <ele>191</ele>
        <time>2012-06-19T14:06:21Z</time>
      </trkpt>
      <trkpt lat="47.03619" lon="5.21336">
        <ele>191</ele>
        <time>2012-06-19T14:06:23Z</time>
      </trkpt>
      <trkpt lat="47.03615" lon="5.21356">
        <ele>191</ele>
        <time>2012-06-19T14:06:25Z</time>
      </trkpt>
      <trkpt lat="47.03611" lon="5.21375">
        <ele>191</ele>
        <time>2012-06-19T14:06:27Z</time>
      </trkpt>
      <trkpt lat="47.03607" lon="5.21394">
        <ele>191</ele>
        <time>2012-06-19T14:06:29Z</time>
      </trkpt>
      <trkpt lat="47.03603" lon="5.21413">
        <ele>191</ele>
        <time>2012-06-19T14:06:31Z</time>
      </trkpt>
      <trkpt lat="47.036" lon="5.21433">
        <ele>196</ele>
        <time>2012-06-19T14:06:33Z</time>
      </trkpt>
      <trkpt lat="47.03597" lon="5.21453">
        <ele>196</ele>
        <time>2012-06-19T14:06:35Z</time>
      </trkpt>
      <trkpt lat="47.03592" lon="5.21471">
        <ele>196</ele>
        <time>2012-06-19T14:06:37Z</time>
      </trkpt>
      <trkpt lat="47.03589" lon="5.21492">
        <ele>196</ele>
        <time>2012-06-19T14:06:39Z</time>
      </trkpt>
      <trkpt lat="47.03585" lon="5.2151">
        <ele>196</ele>
        <time>2012-06-19T14:06:41Z</time>
      </trkpt>
      <trkpt lat="47.03581" lon="5.21529">
        <ele>196</ele>
        <time>2012-06-19T14:06:43Z</time>
      </trkpt>
      <trkpt lat="47.03577" lon="5.21548">
        <ele>196</ele>
        <time>2012-06-19T14:06:45Z</time>
      </trkpt>
      <trkpt lat="47.03573" lon="5.21571">
        <ele>196</ele>
        <time>2012-06-19T14:06:47Z</time>
      </trkpt>
      <trkpt lat="47.03569" lon="5.21592">
        <ele>196</ele>
        <time>2012-06-19T14:06:49Z</time>
      </trkpt>
      <trkpt lat="47.03564" lon="5.21612">
        <ele>196</ele>
        <time>2012-06-19T14:06:51Z</time>
      </trkpt>
      <trkpt lat="47.03559" lon="5.21632">
        <ele>196</ele>
        <time>2012-06-19T14:06:53Z</time>
      </trkpt>
      <trkpt lat="47.03555" lon="5.21652">
        <ele>196</ele>
        <time>2012-06-19T14:06:55Z</time>
      </trkpt>
      <trkpt lat="47.03551" lon="5.21673">
        <ele>196</ele>
        <time>2012-06-19T14:06:57Z</time>
      </trkpt>
      <trkpt lat="47.03546" lon="5.21695">
        <ele>196</ele>
        <time>2012-06-19T14:06:59Z</time>
      </trkpt>
      <trkpt lat="47.03541" lon="5.21715">
        <ele>196</ele>
        <time>2012-06-19T14:07:01Z</time>
      </trkpt>
      <trkpt lat="47.03535" lon="5.21735">
        <ele>196</ele>
        <time>2012-06-19T14:07:03Z</time>
      </trkpt>
      <trkpt lat="47.03529" lon="5.21754">
        <ele>196</ele>
        <time>2012-06-19T14:07:05Z</time>
      </trkpt>
      <trkpt lat="47.03522" lon="5.21775">
        <ele>196</ele>
        <time>2012-06-19T14:07:07Z</time>
      </trkpt>
      <trkpt lat="47.03516" lon="5.21794">
        <ele>196</ele>
        <time>2012-06-19T14:07:09Z</time>
      </trkpt>
      <trkpt lat="47.0351" lon="5.21813">
        <ele>196</ele>
        <time>2012-06-19T14:07:11Z</time>
      </trkpt>
      <trkpt lat="47.03504" lon="5.21833">
        <ele>196</ele>
        <time>2012-06-19T14:07:13Z</time>
      </trkpt>
      <trkpt lat="47.03498" lon="5.21853">
        <ele>196</ele>
        <time>2012-06-19T14:07:15Z</time>
      </trkpt>
      <trkpt lat="47.03492" lon="5.21874">
        <ele>196</ele>
        <time>2012-06-19T14:07:17Z</time>
      </trkpt>
      <trkpt lat="47.03486" lon="5.21894">
        <ele>202</ele>
        <time>2012-06-19T14:07:19Z</time>
      </trkpt>
      <trkpt lat="47.0348" lon="5.21915">
        <ele>202</ele>
        <time>2012-06-19T14:07:21Z</time>
      </trkpt>
      <trkpt lat="47.03474" lon="5.21936">
        <ele>202</ele>
        <time>2012-06-19T14:07:23Z</time>
      </trkpt>
      <trkpt lat="47.03467" lon="5.21955">
        <ele>202</ele>
        <time>2012-06-19T14:07:25Z</time>
      </trkpt>
      <trkpt lat="47.03462" lon="5.21977">
        <ele>202</ele>
        <time>2012-06-19T14:07:27Z</time>
      </trkpt>
      <trkpt lat="47.03456" lon="5.21997">
        <ele>202</ele>
        <time>2012-06-19T14:07:29Z</time>
      </trkpt>
      <trkpt lat="47.0345" lon="5.22016">
        <ele>202</ele>
        <time>2012-06-19T14:07:31Z</time>
      </trkpt>
      <trkpt lat="47.03444" lon="5.22034">
        <ele>202</ele>
        <time>2012-06-19T14:07:33Z</time>
      </trkpt>
      <trkpt lat="47.03438" lon="5.22053">
        <ele>202</ele>
        <time>2012-06-19T14:07:35Z</time>
      </trkpt>
      <trkpt lat="47.03435" lon="5.22076">
        <ele>202</ele>
        <time>2012-06-19T14:07:37Z</time>
      </trkpt>
      <trkpt lat="47.03428" lon="5.22096">
        <ele>202</ele>
        <time>2012-06-19T14:07:39Z</time>
      </trkpt>
      <trkpt lat="47.03423" lon="5.22117">
        <ele>202</ele>
        <time>2012-06-19T14:07:41Z</time>
      </trkpt>
      <trkpt lat="47.03417" lon="5.22139">
        <ele>202</ele>
        <time>2012-06-19T14:07:43Z</time>
      </trkpt>
      <trkpt lat="47.03411" lon="5.2216">
        <ele>202</ele>
        <time>2012-06-19T14:07:45Z</time>
      </trkpt>
      <trkpt lat="47.03405" lon="5.22182">
        <ele>202</ele>
        <time>2012-06-19T14:07:47Z</time>
      </trkpt>
      <trkpt lat="47.034" lon="5.22204">
        <ele>202</ele>
        <time>2012-06-19T14:07:49Z</time>
      </trkpt>
      <trkpt lat="47.03393" lon="5.22224">
        <ele>202</ele>
        <time>2012-06-19T14:07:51Z</time>
      </trkpt>
      <trkpt lat="47.03388" lon="5.22245">
        <ele>202</ele>
        <time>2012-06-19T14:07:53Z</time>
      </trkpt>
      <trkpt lat="47.03382" lon="5.22264">
        <ele>202</ele>
        <time>2012-06-19T14:07:55Z</time>
      </trkpt>
      <trkpt lat="47.03378" lon="5.22286">
        <ele>202</ele>
        <time>2012-06-19T14:07:57Z</time>
      </trkpt>
      <trkpt lat="47.03373" lon="5.22307">
        <ele>202</ele>
        <time>2012-06-19T14:07:59Z</time>
      </trkpt>
      <trkpt lat="47.03368" lon="5.22329">
        <ele>202</ele>
        <time>2012-06-19T14:08:01Z</time>
      </trkpt>
      <trkpt lat="47.03363" lon="5.2235">
        <ele>202</ele>
        <time>2012-06-19T14:08:03Z</time>
      </trkpt>
      <trkpt lat="47.03358" lon="5.2237">
        <ele>202</ele>
        <time>2012-06-19T14:08:05Z</time>
      </trkpt>
      <trkpt lat="47.03353" lon="5.22391">
        <ele>202</ele>
        <time>2012-06-19T14:08:07Z</time>
      </trkpt>
      <trkpt lat="47.03347" lon="5.2241">
        <ele>202</ele>
        <time>2012-06-19T14:08:09Z</time>
      </trkpt>
      <trkpt lat="47.03341" lon="5.22429">
        <ele>202</ele>
        <time>2012-06-19T14:08:11Z</time>
      </trkpt>
      <trkpt lat="47.03335" lon="5.22449">
        <ele>202</ele>
        <time>2012-06-19T14:08:13Z</time>
      </trkpt>
      <trkpt lat="47.0333" lon="5.22468">
        <ele>202</ele>
        <time>2012-06-19T14:08:15Z</time>
      </trkpt>
      <trkpt lat="47.03323" lon="5.22489">
        <ele>202</ele>
        <time>2012-06-19T14:08:17Z</time>
      </trkpt>
      <trkpt lat="47.03318" lon="5.22511">
        <ele>202</ele>
        <time>2012-06-19T14:08:19Z</time>
      </trkpt>
      <trkpt lat="47.03314" lon="5.22532">
        <ele>202</ele>
        <time>2012-06-19T14:08:21Z</time>
      </trkpt>
      <trkpt lat="47.03308" lon="5.22554">
        <ele>202</ele>
        <time>2012-06-19T14:08:23Z</time>
      </trkpt>
      <trkpt lat="47.03303" lon="5.22574">
        <ele>202</ele>
        <time>2012-06-19T14:08:25Z</time>
      </trkpt>
      <trkpt lat="47.03296" lon="5.22594">
        <ele>202</ele>
        <time>2012-06-19T14:08:27Z</time>
      </trkpt>
      <trkpt lat="47.03292" lon="5.22616">
        <ele>202</ele>
        <time>2012-06-19T14:08:29Z</time>
      </trkpt>
      <trkpt lat="47.03286" lon="5.22637">
        <ele>202</ele>
        <time>2012-06-19T14:08:31Z</time>
      </trkpt>
      <trkpt lat="47.03281" lon="5.22658">
        <ele>202</ele>
        <time>2012-06-19T14:08:33Z</time>
      </trkpt>
      <trkpt lat="47.03275" lon="5.22679">
        <ele>202</ele>
        <time>2012-06-19T14:08:35Z</time>
      </trkpt>
      <trkpt lat="47.0327" lon="5.22701">
        <ele>202</ele>
        <time>2012-06-19T14:08:37Z</time>
      </trkpt>
      <trkpt lat="47.03264" lon="5.22723">
        <ele>202</ele>
        <time>2012-06-19T14:08:39Z</time>
      </trkpt>
      <trkpt lat="47.03258" lon="5.22744">
        <ele>202</ele>
        <time>2012-06-19T14:08:41Z</time>
      </trkpt>
      <trkpt lat="47.03252" lon="5.22765">
        <ele>202</ele>
        <time>2012-06-19T14:08:43Z</time>
      </trkpt>
      <trkpt lat="47.03246" lon="5.22786">
        <ele>202</ele>
        <time>2012-06-19T14:08:45Z</time>
      </trkpt>
      <trkpt lat="47.03239" lon="5.22807">
        <ele>202</ele>
        <time>2012-06-19T14:08:47Z</time>
      </trkpt>
      <trkpt lat="47.03233" lon="5.22828">
        <ele>202</ele>
        <time>2012-06-19T14:08:49Z</time>
      </trkpt>
      <trkpt lat="47.03228" lon="5.22849">
        <ele>202</ele>
        <time>2012-06-19T14:08:51Z</time>
      </trkpt>
      <trkpt lat="47.03221" lon="5.22871">
        <ele>202</ele>
        <time>2012-06-19T14:08:53Z</time>
      </trkpt>
      <trkpt lat="47.03215" lon="5.22891">
        <ele>202</ele>
        <time>2012-06-19T14:08:55Z</time>
      </trkpt>
      <trkpt lat="47.03209" lon="5.22913">
        <ele>202</ele>
        <time>2012-06-19T14:08:57Z</time>
      </trkpt>
      <trkpt lat="47.03203" lon="5.22935">
        <ele>202</ele>
        <time>2012-06-19T14:08:59Z</time>
      </trkpt>
      <trkpt lat="47.03197" lon="5.22956">
        <ele>202</ele>
        <time>2012-06-19T14:09:01Z</time>
      </trkpt>
      <trkpt lat="47.03191" lon="5.22978">
        <ele>202</ele>
        <time>2012-06-19T14:09:03Z</time>
      </trkpt>
      <trkpt lat="47.03185" lon="5.22999">
        <ele>202</ele>
        <time>2012-06-19T14:09:05Z</time>
      </trkpt>
      <trkpt lat="47.03179" lon="5.2302">
        <ele>202</ele>
        <time>2012-06-19T14:09:07Z</time>
      </trkpt>
      <trkpt lat="47.03175" lon="5.2304">
        <ele>202</ele>
        <time>2012-06-19T14:09:09Z</time>
      </trkpt>
      <trkpt lat="47.03169" lon="5.23058">
        <ele>202</ele>
        <time>2012-06-19T14:09:11Z</time>
      </trkpt>
      <trkpt lat="47.03164" lon="5.23076">
        <ele>202</ele>
        <time>2012-06-19T14:09:13Z</time>
      </trkpt>
      <trkpt lat="47.0316" lon="5.23094">
        <ele>202</ele>
        <time>2012-06-19T14:09:15Z</time>
      </trkpt>
      <trkpt lat="47.03155" lon="5.23111">
        <ele>202</ele>
        <time>2012-06-19T14:09:17Z</time>
      </trkpt>
      <trkpt lat="47.0315" lon="5.23129">
        <ele>202</ele>
        <time>2012-06-19T14:09:19Z</time>
      </trkpt>
      <trkpt lat="47.03144" lon="5.23147">
        <ele>197</ele>
        <time>2012-06-19T14:09:21Z</time>
      </trkpt>
      <trkpt lat="47.03138" lon="5.23168">
        <ele>197</ele>
        <time>2012-06-19T14:09:23Z</time>
      </trkpt>
      <trkpt lat="47.03132" lon="5.2319">
        <ele>197</ele>
        <time>2012-06-19T14:09:25Z</time>
      </trkpt>
      <trkpt lat="47.03124" lon="5.23212">
        <ele>197</ele>
        <time>2012-06-19T14:09:27Z</time>
      </trkpt>
      <trkpt lat="47.03117" lon="5.23235">
        <ele>197</ele>
        <time>2012-06-19T14:09:29Z</time>
      </trkpt>
      <trkpt lat="47.03111" lon="5.23258">
        <ele>197</ele>
        <time>2012-06-19T14:09:31Z</time>
      </trkpt>
      <trkpt lat="47.03108" lon="5.2327">
        <ele>197</ele>
        <time>2012-06-19T14:09:32Z</time>
      </trkpt>
      <trkpt lat="47.03101" lon="5.23294">
        <ele>197</ele>
        <time>2012-06-19T14:09:34Z</time>
      </trkpt>
      <trkpt lat="47.03095" lon="5.23316">
        <ele>197</ele>
        <time>2012-06-19T14:09:36Z</time>
      </trkpt>
      <trkpt lat="47.03089" lon="5.2334">
        <ele>197</ele>
        <time>2012-06-19T14:09:38Z</time>
      </trkpt>
      <trkpt lat="47.03083" lon="5.23364">
        <ele>197</ele>
        <time>2012-06-19T14:09:40Z</time>
      </trkpt>
      <trkpt lat="47.03077" lon="5.23388">
        <ele>197</ele>
        <time>2012-06-19T14:09:42Z</time>
      </trkpt>
      <trkpt lat="47.03072" lon="5.23412">
        <ele>197</ele>
        <time>2012-06-19T14:09:44Z</time>
      </trkpt>
      <trkpt lat="47.03065" lon="5.23434">
        <ele>197</ele>
        <time>2012-06-19T14:09:46Z</time>
      </trkpt>
      <trkpt lat="47.03058" lon="5.23456">
        <ele>197</ele>
        <time>2012-06-19T14:09:48Z</time>
      </trkpt>
      <trkpt lat="47.03053" lon="5.23479">
        <ele>197</ele>
        <time>2012-06-19T14:09:50Z</time>
      </trkpt>
      <trkpt lat="47.03046" lon="5.235">
        <ele>197</ele>
        <time>2012-06-19T14:09:52Z</time>
      </trkpt>
      <trkpt lat="47.03039" lon="5.23524">
        <ele>197</ele>
        <time>2012-06-19T14:09:54Z</time>
      </trkpt>
      <trkpt lat="47.03034" lon="5.23546">
        <ele>197</ele>
        <time>2012-06-19T14:09:56Z</time>
      </trkpt>
      <trkpt lat="47.03027" lon="5.23569">
        <ele>197</ele>
        <time>2012-06-19T14:09:58Z</time>
      </trkpt>
      <trkpt lat="47.0302" lon="5.2359">
        <ele>197</ele>
        <time>2012-06-19T14:10:00Z</time>
      </trkpt>
      <trkpt lat="47.03014" lon="5.23612">
        <ele>197</ele>
        <time>2012-06-19T14:10:02Z</time>
      </trkpt>
      <trkpt lat="47.03008" lon="5.23633">
        <ele>197</ele>
        <time>2012-06-19T14:10:04Z</time>
      </trkpt>
      <trkpt lat="47.03002" lon="5.23657">
        <ele>197</ele>
        <time>2012-06-19T14:10:06Z</time>
      </trkpt>
      <trkpt lat="47.02999" lon="5.23669">
        <ele>197</ele>
        <time>2012-06-19T14:10:07Z</time>
      </trkpt>
      <trkpt lat="47.02993" lon="5.23692">
        <ele>197</ele>
        <time>2012-06-19T14:10:09Z</time>
      </trkpt>
      <trkpt lat="47.02986" lon="5.23715">
        <ele>197</ele>
        <time>2012-06-19T14:10:11Z</time>
      </trkpt>
      <trkpt lat="47.02979" lon="5.23739">
        <ele>197</ele>
        <time>2012-06-19T14:10:13Z</time>
      </trkpt>
      <trkpt lat="47.02974" lon="5.23761">
        <ele>197</ele>
        <time>2012-06-19T14:10:15Z</time>
      </trkpt>
      <trkpt lat="47.02967" lon="5.23783">
        <ele>197</ele>
        <time>2012-06-19T14:10:17Z</time>
      </trkpt>
      <trkpt lat="47.0296" lon="5.23807">
        <ele>197</ele>
        <time>2012-06-19T14:10:19Z</time>
      </trkpt>
      <trkpt lat="47.02953" lon="5.23829">
        <ele>197</ele>
        <time>2012-06-19T14:10:21Z</time>
      </trkpt>
      <trkpt lat="47.02947" lon="5.23853">
        <ele>197</ele>
        <time>2012-06-19T14:10:23Z</time>
      </trkpt>
      <trkpt lat="47.0294" lon="5.23876">
        <ele>197</ele>
        <time>2012-06-19T14:10:25Z</time>
      </trkpt>
      <trkpt lat="47.02935" lon="5.23898">
        <ele>197</ele>
        <time>2012-06-19T14:10:27Z</time>
      </trkpt>
      <trkpt lat="47.02929" lon="5.23921">
        <ele>197</ele>
        <time>2012-06-19T14:10:29Z</time>
      </trkpt>
      <trkpt lat="47.02921" lon="5.23942">
        <ele>197</ele>
        <time>2012-06-19T14:10:31Z</time>
      </trkpt>
      <trkpt lat="47.02914" lon="5.23964">
        <ele>197</ele>
        <time>2012-06-19T14:10:33Z</time>
      </trkpt>
      <trkpt lat="47.02908" lon="5.23986">
        <ele>197</ele>
        <time>2012-06-19T14:10:35Z</time>
      </trkpt>
      <trkpt lat="47.02901" lon="5.24007">
        <ele>197</ele>
        <time>2012-06-19T14:10:37Z</time>
      </trkpt>
      <trkpt lat="47.02895" lon="5.24027">
        <ele>197</ele>
        <time>2012-06-19T14:10:39Z</time>
      </trkpt>
      <trkpt lat="47.02889" lon="5.24048">
        <ele>197</ele>
        <time>2012-06-19T14:10:41Z</time>
      </trkpt>
      <trkpt lat="47.02883" lon="5.24071">
        <ele>197</ele>
        <time>2012-06-19T14:10:43Z</time>
      </trkpt>
      <trkpt lat="47.02877" lon="5.24092">
        <ele>197</ele>
        <time>2012-06-19T14:10:45Z</time>
      </trkpt>
      <trkpt lat="47.02871" lon="5.24114">
        <ele>197</ele>
        <time>2012-06-19T14:10:47Z</time>
      </trkpt>
      <trkpt lat="47.02865" lon="5.24136">
        <ele>197</ele>
        <time>2012-06-19T14:10:49Z</time>
      </trkpt>
      <trkpt lat="47.0286" lon="5.24159">
        <ele>197</ele>
        <time>2012-06-19T14:10:51Z</time>
      </trkpt>
      <trkpt lat="47.02855" lon="5.2418">
        <ele>197</ele>
        <time>2012-06-19T14:10:53Z</time>
      </trkpt>
      <trkpt lat="47.02852" lon="5.24202">
        <ele>197</ele>
        <time>2012-06-19T14:10:55Z</time>
      </trkpt>
      <trkpt lat="47.02851" lon="5.24224">
        <ele>197</ele>
        <time>2012-06-19T14:10:57Z</time>
      </trkpt>
      <trkpt lat="47.02853" lon="5.24246">
        <ele>197</ele>
        <time>2012-06-19T14:10:59Z</time>
      </trkpt>
      <trkpt lat="47.02858" lon="5.24269">
        <ele>197</ele>
        <time>2012-06-19T14:11:01Z</time>
      </trkpt>
      <trkpt lat="47.02865" lon="5.24291">
        <ele>197</ele>
        <time>2012-06-19T14:11:03Z</time>
      </trkpt>
      <trkpt lat="47.02872" lon="5.24312">
        <ele>197</ele>
        <time>2012-06-19T14:11:05Z</time>
      </trkpt>
      <trkpt lat="47.02879" lon="5.24332">
        <ele>197</ele>
        <time>2012-06-19T14:11:07Z</time>
      </trkpt>
      <trkpt lat="47.02886" lon="5.24354">
        <ele>192</ele>
        <time>2012-06-19T14:11:09Z</time>
      </trkpt>
      <trkpt lat="47.02894" lon="5.24376">
        <ele>192</ele>
        <time>2012-06-19T14:11:11Z</time>
      </trkpt>
      <trkpt lat="47.029" lon="5.24398">
        <ele>192</ele>
        <time>2012-06-19T14:11:13Z</time>
      </trkpt>
      <trkpt lat="47.02908" lon="5.2442">
        <ele>192</ele>
        <time>2012-06-19T14:11:15Z</time>
      </trkpt>
      <trkpt lat="47.02914" lon="5.24443">
        <ele>192</ele>
        <time>2012-06-19T14:11:17Z</time>
      </trkpt>
      <trkpt lat="47.0292" lon="5.24466">
        <ele>192</ele>
        <time>2012-06-19T14:11:19Z</time>
      </trkpt>
      <trkpt lat="47.02922" lon="5.2449">
        <ele>192</ele>
        <time>2012-06-19T14:11:21Z</time>
      </trkpt>
      <trkpt lat="47.02922" lon="5.24514">
        <ele>192</ele>
        <time>2012-06-19T14:11:23Z</time>
      </trkpt>
      <trkpt lat="47.02919" lon="5.24537">
        <ele>192</ele>
        <time>2012-06-19T14:11:25Z</time>
      </trkpt>
      <trkpt lat="47.02916" lon="5.2456">
        <ele>192</ele>
        <time>2012-06-19T14:11:27Z</time>
      </trkpt>
      <trkpt lat="47.02912" lon="5.24583">
        <ele>192</ele>
        <time>2012-06-19T14:11:29Z</time>
      </trkpt>
      <trkpt lat="47.02908" lon="5.24604">
        <ele>192</ele>
        <time>2012-06-19T14:11:31Z</time>
      </trkpt>
      <trkpt lat="47.02903" lon="5.24626">
        <ele>192</ele>
        <time>2012-06-19T14:11:33Z</time>
      </trkpt>
      <trkpt lat="47.02897" lon="5.24648">
        <ele>192</ele>
        <time>2012-06-19T14:11:35Z</time>
      </trkpt>
      <trkpt lat="47.02889" lon="5.24668">
        <ele>192</ele>
        <time>2012-06-19T14:11:37Z</time>
      </trkpt>
      <trkpt lat="47.02879" lon="5.24687">
        <ele>192</ele>
        <time>2012-06-19T14:11:39Z</time>
      </trkpt>
      <trkpt lat="47.02868" lon="5.24706">
        <ele>192</ele>
        <time>2012-06-19T14:11:41Z</time>
      </trkpt>
      <trkpt lat="47.02857" lon="5.24723">
        <ele>192</ele>
        <time>2012-06-19T14:11:43Z</time>
      </trkpt>
      <trkpt lat="47.02846" lon="5.24741">
        <ele>192</ele>
        <time>2012-06-19T14:11:45Z</time>
      </trkpt>
      <trkpt lat="47.02834" lon="5.24758">
        <ele>192</ele>
        <time>2012-06-19T14:11:47Z</time>
      </trkpt>
      <trkpt lat="47.02822" lon="5.24776">
        <ele>192</ele>
        <time>2012-06-19T14:11:49Z</time>
      </trkpt>
      <trkpt lat="47.02809" lon="5.24795">
        <ele>192</ele>
        <time>2012-06-19T14:11:51Z</time>
      </trkpt>
      <trkpt lat="47.02803" lon="5.24804">
        <ele>192</ele>
        <time>2012-06-19T14:11:52Z</time>
      </trkpt>
      <trkpt lat="47.02788" lon="5.24821">
        <ele>192</ele>
        <time>2012-06-19T14:11:54Z</time>
      </trkpt>
      <trkpt lat="47.02781" lon="5.24829">
        <ele>192</ele>
        <time>2012-06-19T14:11:55Z</time>
      </trkpt>
      <trkpt lat="47.02767" lon="5.24844">
        <ele>192</ele>
        <time>2012-06-19T14:11:57Z</time>
      </trkpt>
      <trkpt lat="47.02759" lon="5.24852">
        <ele>192</ele>
        <time>2012-06-19T14:11:58Z</time>
      </trkpt>
      <trkpt lat="47.02744" lon="5.24865">
        <ele>192</ele>
        <time>2012-06-19T14:12:00Z</time>
      </trkpt>
      <trkpt lat="47.0273" lon="5.24879">
        <ele>192</ele>
        <time>2012-06-19T14:12:02Z</time>
      </trkpt>
      <trkpt lat="47.02716" lon="5.24893">
        <ele>192</ele>
        <time>2012-06-19T14:12:04Z</time>
      </trkpt>
      <trkpt lat="47.02701" lon="5.24906">
        <ele>192</ele>
        <time>2012-06-19T14:12:06Z</time>
      </trkpt>
      <trkpt lat="47.02687" lon="5.24919">
        <ele>192</ele>
        <time>2012-06-19T14:12:08Z</time>
      </trkpt>
      <trkpt lat="47.02674" lon="5.24931">
        <ele>192</ele>
        <time>2012-06-19T14:12:10Z</time>
      </trkpt>
      <trkpt lat="47.02659" lon="5.24944">
        <ele>192</ele>
        <time>2012-06-19T14:12:12Z</time>
      </trkpt>
      <trkpt lat="47.02647" lon="5.24957">
        <ele>192</ele>
        <time>2012-06-19T14:12:14Z</time>
      </trkpt>
      <trkpt lat="47.02635" lon="5.24971">
        <ele>192</ele>
        <time>2012-06-19T14:12:16Z</time>
      </trkpt>
      <trkpt lat="47.02626" lon="5.24989">
        <ele>192</ele>
        <time>2012-06-19T14:12:18Z</time>
      </trkpt>
      <trkpt lat="47.02619" lon="5.25007">
        <ele>192</ele>
        <time>2012-06-19T14:12:20Z</time>
      </trkpt>
      <trkpt lat="47.02614" lon="5.25028">
        <ele>192</ele>
        <time>2012-06-19T14:12:22Z</time>
      </trkpt>
      <trkpt lat="47.02609" lon="5.25048">
        <ele>192</ele>
        <time>2012-06-19T14:12:24Z</time>
      </trkpt>
      <trkpt lat="47.02605" lon="5.25068">
        <ele>192</ele>
        <time>2012-06-19T14:12:26Z</time>
      </trkpt>
      <trkpt lat="47.02601" lon="5.25088">
        <ele>192</ele>
        <time>2012-06-19T14:12:28Z</time>
      </trkpt>
      <trkpt lat="47.02597" lon="5.25108">
        <ele>192</ele>
        <time>2012-06-19T14:12:30Z</time>
      </trkpt>
      <trkpt lat="47.02595" lon="5.25131">
        <ele>192</ele>
        <time>2012-06-19T14:12:32Z</time>
      </trkpt>
      <trkpt lat="47.02596" lon="5.25153">
        <ele>192</ele>
        <time>2012-06-19T14:12:34Z</time>
      </trkpt>
      <trkpt lat="47.02595" lon="5.25177">
        <ele>192</ele>
        <time>2012-06-19T14:12:36Z</time>
      </trkpt>
      <trkpt lat="47.02591" lon="5.25198">
        <ele>192</ele>
        <time>2012-06-19T14:12:38Z</time>
      </trkpt>
      <trkpt lat="47.02587" lon="5.2522">
        <ele>192</ele>
        <time>2012-06-19T14:12:40Z</time>
      </trkpt>
      <trkpt lat="47.02583" lon="5.2524">
        <ele>192</ele>
        <time>2012-06-19T14:12:42Z</time>
      </trkpt>
      <trkpt lat="47.0258" lon="5.25258">
        <ele>192</ele>
        <time>2012-06-19T14:12:44Z</time>
      </trkpt>
      <trkpt lat="47.02577" lon="5.25278">
        <ele>192</ele>
        <time>2012-06-19T14:12:46Z</time>
      </trkpt>
      <trkpt lat="47.02574" lon="5.25296">
        <ele>192</ele>
        <time>2012-06-19T14:12:48Z</time>
      </trkpt>
      <trkpt lat="47.02571" lon="5.25314">
        <ele>192</ele>
        <time>2012-06-19T14:12:50Z</time>
      </trkpt>
      <trkpt lat="47.02568" lon="5.25333">
        <ele>192</ele>
        <time>2012-06-19T14:12:52Z</time>
      </trkpt>
      <trkpt lat="47.02565" lon="5.25351">
        <ele>192</ele>
        <time>2012-06-19T14:12:54Z</time>
      </trkpt>
      <trkpt lat="47.02562" lon="5.2537">
        <ele>192</ele>
        <time>2012-06-19T14:12:56Z</time>
      </trkpt>
      <trkpt lat="47.02559" lon="5.2539">
        <ele>192</ele>
        <time>2012-06-19T14:12:58Z</time>
      </trkpt>
      <trkpt lat="47.02556" lon="5.25408">
        <ele>192</ele>
        <time>2012-06-19T14:13:00Z</time>
      </trkpt>
      <trkpt lat="47.02553" lon="5.25425">
        <ele>192</ele>
        <time>2012-06-19T14:13:02Z</time>
      </trkpt>
      <trkpt lat="47.0255" lon="5.25439">
        <ele>192</ele>
        <time>2012-06-19T14:13:04Z</time>
      </trkpt>
      <trkpt lat="47.02546" lon="5.25453">
        <ele>192</ele>
        <time>2012-06-19T14:13:06Z</time>
      </trkpt>
      <trkpt lat="47.02543" lon="5.2547">
        <ele>192</ele>
        <time>2012-06-19T14:13:09Z</time>
      </trkpt>
      <trkpt lat="47.02539" lon="5.25484">
        <ele>192</ele>
        <time>2012-06-19T14:13:12Z</time>
      </trkpt>
      <trkpt lat="47.0253" lon="5.25496">
        <ele>192</ele>
        <time>2012-06-19T14:13:15Z</time>
      </trkpt>
      <trkpt lat="47.02518" lon="5.25501">
        <ele>192</ele>
        <time>2012-06-19T14:13:18Z</time>
      </trkpt>
      <trkpt lat="47.02507" lon="5.25502">
        <ele>192</ele>
        <time>2012-06-19T14:13:20Z</time>
      </trkpt>
      <trkpt lat="47.02496" lon="5.25503">
        <ele>192</ele>
        <time>2012-06-19T14:13:22Z</time>
      </trkpt>
      <trkpt lat="47.02485" lon="5.25502">
        <ele>192</ele>
        <time>2012-06-19T14:13:24Z</time>
      </trkpt>
      <trkpt lat="47.02475" lon="5.25501">
        <ele>192</ele>
        <time>2012-06-19T14:13:26Z</time>
      </trkpt>
      <trkpt lat="47.02465" lon="5.255">
        <ele>192</ele>
        <time>2012-06-19T14:13:28Z</time>
      </trkpt>
      <trkpt lat="47.02452" lon="5.25497">
        <ele>192</ele>
        <time>2012-06-19T14:13:31Z</time>
      </trkpt>
      <trkpt lat="47.02442" lon="5.25496">
        <ele>192</ele>
        <time>2012-06-19T14:13:34Z</time>
      </trkpt>
      <trkpt lat="47.0243" lon="5.25492">
        <ele>192</ele>
        <time>2012-06-19T14:13:38Z</time>
      </trkpt>
      <trkpt lat="47.0242" lon="5.25488">
        <ele>192</ele>
        <time>2012-06-19T14:13:42Z</time>
      </trkpt>
      <trkpt lat="47.0241" lon="5.25486">
        <ele>192</ele>
        <time>2012-06-19T14:13:48Z</time>
      </trkpt>
      <trkpt lat="47.02401" lon="5.25488">
        <ele>192</ele>
        <time>2012-06-19T14:14:11Z</time>
      </trkpt>
      <trkpt lat="47.02401" lon="5.25475">
        <ele>192</ele>
        <time>2012-06-19T14:16:53Z</time>
      </trkpt>
      <trkpt lat="47.02392" lon="5.25469">
        <ele>192</ele>
        <time>2012-06-19T14:16:57Z</time>
      </trkpt>
      <trkpt lat="47.02383" lon="5.25461">
        <ele>192</ele>
        <time>2012-06-19T14:17:01Z</time>
      </trkpt>
      <trkpt lat="47.02373" lon="5.25454">
        <ele>192</ele>
        <time>2012-06-19T14:17:05Z</time>
      </trkpt>
      <trkpt lat="47.02365" lon="5.25447">
        <ele>192</ele>
        <time>2012-06-19T14:17:09Z</time>
      </trkpt>
      <trkpt lat="47.02355" lon="5.25438">
        <ele>192</ele>
        <time>2012-06-19T14:17:13Z</time>
      </trkpt>
      <trkpt lat="47.02347" lon="5.25431">
        <ele>192</ele>
        <time>2012-06-19T14:17:16Z</time>
      </trkpt>
      <trkpt lat="47.02337" lon="5.25424">
        <ele>192</ele>
        <time>2012-06-19T14:17:19Z</time>
      </trkpt>
      <trkpt lat="47.02325" lon="5.2542">
        <ele>192</ele>
        <time>2012-06-19T14:17:22Z</time>
      </trkpt>
      <trkpt lat="47.02312" lon="5.25425">
        <ele>192</ele>
        <time>2012-06-19T14:17:25Z</time>
      </trkpt>
      <trkpt lat="47.02303" lon="5.25431">
        <ele>192</ele>
        <time>2012-06-19T14:17:27Z</time>
      </trkpt>
      <trkpt lat="47.02293" lon="5.25439">
        <ele>192</ele>
        <time>2012-06-19T14:17:29Z</time>
      </trkpt>
      <trkpt lat="47.02282" lon="5.25444">
        <ele>186</ele>
        <time>2012-06-19T14:17:31Z</time>
      </trkpt>
      <trkpt lat="47.02271" lon="5.25447">
        <ele>186</ele>
        <time>2012-06-19T14:17:33Z</time>
      </trkpt>
      <trkpt lat="47.02258" lon="5.25448">
        <ele>186</ele>
        <time>2012-06-19T14:17:35Z</time>
      </trkpt>
      <trkpt lat="47.02245" lon="5.25446">
        <ele>186</ele>
        <time>2012-06-19T14:17:37Z</time>
      </trkpt>
      <trkpt lat="47.02232" lon="5.25445">
        <ele>186</ele>
        <time>2012-06-19T14:17:39Z</time>
      </trkpt>
      <trkpt lat="47.02218" lon="5.25446">
        <ele>186</ele>
        <time>2012-06-19T14:17:41Z</time>
      </trkpt>
      <trkpt lat="47.02201" lon="5.25445">
        <ele>181</ele>
        <time>2012-06-19T14:17:43Z</time>
      </trkpt>
      <trkpt lat="47.02185" lon="5.25445">
        <ele>181</ele>
        <time>2012-06-19T14:17:45Z</time>
      </trkpt>
      <trkpt lat="47.02167" lon="5.25446">
        <ele>181</ele>
        <time>2012-06-19T14:17:47Z</time>
      </trkpt>
      <trkpt lat="47.02153" lon="5.25453">
        <ele>181</ele>
        <time>2012-06-19T14:17:49Z</time>
      </trkpt>
      <trkpt lat="47.0214" lon="5.25468">
        <ele>181</ele>
        <time>2012-06-19T14:17:51Z</time>
      </trkpt>
      <trkpt lat="47.02129" lon="5.25485">
        <ele>181</ele>
        <time>2012-06-19T14:17:53Z</time>
      </trkpt>
      <trkpt lat="47.02118" lon="5.25501">
        <ele>181</ele>
        <time>2012-06-19T14:17:55Z</time>
      </trkpt>
      <trkpt lat="47.02107" lon="5.25516">
        <ele>181</ele>
        <time>2012-06-19T14:17:57Z</time>
      </trkpt>
      <trkpt lat="47.02096" lon="5.25532">
        <ele>181</ele>
        <time>2012-06-19T14:17:59Z</time>
      </trkpt>
      <trkpt lat="47.02084" lon="5.25548">
        <ele>181</ele>
        <time>2012-06-19T14:18:01Z</time>
      </trkpt>
      <trkpt lat="47.02073" lon="5.25562">
        <ele>181</ele>
        <time>2012-06-19T14:18:03Z</time>
      </trkpt>
      <trkpt lat="47.02062" lon="5.25578">
        <ele>181</ele>
        <time>2012-06-19T14:18:05Z</time>
      </trkpt>
      <trkpt lat="47.02053" lon="5.25594">
        <ele>181</ele>
        <time>2012-06-19T14:18:07Z</time>
      </trkpt>
      <trkpt lat="47.02048" lon="5.25612">
        <ele>181</ele>
        <time>2012-06-19T14:18:09Z</time>
      </trkpt>
      <trkpt lat="47.02047" lon="5.25633">
        <ele>181</ele>
        <time>2012-06-19T14:18:11Z</time>
      </trkpt>
      <trkpt lat="47.02048" lon="5.25655">
        <ele>181</ele>
        <time>2012-06-19T14:18:13Z</time>
      </trkpt>
      <trkpt lat="47.02049" lon="5.25676">
        <ele>181</ele>
        <time>2012-06-19T14:18:15Z</time>
      </trkpt>
      <trkpt lat="47.02048" lon="5.25699">
        <ele>181</ele>
        <time>2012-06-19T14:18:17Z</time>
      </trkpt>
      <trkpt lat="47.02043" lon="5.2572">
        <ele>181</ele>
        <time>2012-06-19T14:18:19Z</time>
      </trkpt>
      <trkpt lat="47.02038" lon="5.25743">
        <ele>181</ele>
        <time>2012-06-19T14:18:21Z</time>
      </trkpt>
      <trkpt lat="47.02034" lon="5.25765">
        <ele>181</ele>
        <time>2012-06-19T14:18:23Z</time>
      </trkpt>
      <trkpt lat="47.02029" lon="5.25788">
        <ele>181</ele>
        <time>2012-06-19T14:18:25Z</time>
      </trkpt>
      <trkpt lat="47.02025" lon="5.25809">
        <ele>181</ele>
        <time>2012-06-19T14:18:27Z</time>
      </trkpt>
      <trkpt lat="47.02022" lon="5.25832">
        <ele>181</ele>
        <time>2012-06-19T14:18:29Z</time>
      </trkpt>
      <trkpt lat="47.02019" lon="5.25854">
        <ele>181</ele>
        <time>2012-06-19T14:18:31Z</time>
      </trkpt>
      <trkpt lat="47.02017" lon="5.25877">
        <ele>181</ele>
        <time>2012-06-19T14:18:33Z</time>
      </trkpt>
      <trkpt lat="47.02015" lon="5.259">
        <ele>181</ele>
        <time>2012-06-19T14:18:35Z</time>
      </trkpt>
      <trkpt lat="47.02014" lon="5.25922">
        <ele>181</ele>
        <time>2012-06-19T14:18:37Z</time>
      </trkpt>
      <trkpt lat="47.02013" lon="5.25945">
        <ele>181</ele>
        <time>2012-06-19T14:18:39Z</time>
      </trkpt>
      <trkpt lat="47.02012" lon="5.25966">
        <ele>181</ele>
        <time>2012-06-19T14:18:41Z</time>
      </trkpt>
      <trkpt lat="47.02011" lon="5.25987">
        <ele>181</ele>
        <time>2012-06-19T14:18:43Z</time>
      </trkpt>
      <trkpt lat="47.02011" lon="5.26008">
        <ele>181</ele>
        <time>2012-06-19T14:18:45Z</time>
      </trkpt>
      <trkpt lat="47.02011" lon="5.26029">
        <ele>181</ele>
        <time>2012-06-19T14:18:47Z</time>
      </trkpt>
      <trkpt lat="47.02011" lon="5.2605">
        <ele>181</ele>
        <time>2012-06-19T14:18:49Z</time>
      </trkpt>
      <trkpt lat="47.02011" lon="5.26071">
        <ele>181</ele>
        <time>2012-06-19T14:18:51Z</time>
      </trkpt>
      <trkpt lat="47.02012" lon="5.26092">
        <ele>181</ele>
        <time>2012-06-19T14:18:53Z</time>
      </trkpt>
      <trkpt lat="47.02013" lon="5.26114">
        <ele>181</ele>
        <time>2012-06-19T14:18:55Z</time>
      </trkpt>
      <trkpt lat="47.02013" lon="5.26136">
        <ele>181</ele>
        <time>2012-06-19T14:18:57Z</time>
      </trkpt>
      <trkpt lat="47.02014" lon="5.26158">
        <ele>181</ele>
        <time>2012-06-19T14:18:59Z</time>
      </trkpt>
      <trkpt lat="47.02014" lon="5.26179">
        <ele>181</ele>
        <time>2012-06-19T14:19:01Z</time>
      </trkpt>
      <trkpt lat="47.02015" lon="5.26201">
        <ele>181</ele>
        <time>2012-06-19T14:19:03Z</time>
      </trkpt>
      <trkpt lat="47.02015" lon="5.26223">
        <ele>181</ele>
        <time>2012-06-19T14:19:05Z</time>
      </trkpt>
      <trkpt lat="47.02014" lon="5.26246">
        <ele>181</ele>
        <time>2012-06-19T14:19:07Z</time>
      </trkpt>
      <trkpt lat="47.02014" lon="5.26268">
        <ele>181</ele>
        <time>2012-06-19T14:19:09Z</time>
      </trkpt>
      <trkpt lat="47.02013" lon="5.26291">
        <ele>181</ele>
        <time>2012-06-19T14:19:11Z</time>
      </trkpt>
      <trkpt lat="47.02011" lon="5.26313">
        <ele>181</ele>
        <time>2012-06-19T14:19:13Z</time>
      </trkpt>
      <trkpt lat="47.0201" lon="5.26336">
        <ele>181</ele>
        <time>2012-06-19T14:19:15Z</time>
      </trkpt>
      <trkpt lat="47.02009" lon="5.26357">
        <ele>181</ele>
        <time>2012-06-19T14:19:17Z</time>
      </trkpt>
      <trkpt lat="47.02008" lon="5.2638">
        <ele>181</ele>
        <time>2012-06-19T14:19:19Z</time>
      </trkpt>
      <trkpt lat="47.02007" lon="5.26402">
        <ele>181</ele>
        <time>2012-06-19T14:19:21Z</time>
      </trkpt>
      <trkpt lat="47.02006" lon="5.26424">
        <ele>181</ele>
        <time>2012-06-19T14:19:23Z</time>
      </trkpt>
      <trkpt lat="47.02006" lon="5.26445">
        <ele>181</ele>
        <time>2012-06-19T14:19:25Z</time>
      </trkpt>
      <trkpt lat="47.02005" lon="5.26467">
        <ele>181</ele>
        <time>2012-06-19T14:19:27Z</time>
      </trkpt>
      <trkpt lat="47.02004" lon="5.26488">
        <ele>181</ele>
        <time>2012-06-19T14:19:29Z</time>
      </trkpt>
      <trkpt lat="47.02003" lon="5.2651">
        <ele>181</ele>
        <time>2012-06-19T14:19:31Z</time>
      </trkpt>
      <trkpt lat="47.02" lon="5.26531">
        <ele>181</ele>
        <time>2012-06-19T14:19:33Z</time>
      </trkpt>
      <trkpt lat="47.01997" lon="5.26553">
        <ele>181</ele>
        <time>2012-06-19T14:19:35Z</time>
      </trkpt>
      <trkpt lat="47.01992" lon="5.26574">
        <ele>181</ele>
        <time>2012-06-19T14:19:37Z</time>
      </trkpt>
      <trkpt lat="47.01988" lon="5.26593">
        <ele>181</ele>
        <time>2012-06-19T14:19:39Z</time>
      </trkpt>
      <trkpt lat="47.01984" lon="5.26611">
        <ele>181</ele>
        <time>2012-06-19T14:19:41Z</time>
      </trkpt>
      <trkpt lat="47.01979" lon="5.26629">
        <ele>181</ele>
        <time>2012-06-19T14:19:43Z</time>
      </trkpt>
      <trkpt lat="47.01973" lon="5.26648">
        <ele>181</ele>
        <time>2012-06-19T14:19:45Z</time>
      </trkpt>
      <trkpt lat="47.01968" lon="5.26665">
        <ele>181</ele>
        <time>2012-06-19T14:19:47Z</time>
      </trkpt>
      <trkpt lat="47.01964" lon="5.26682">
        <ele>181</ele>
        <time>2012-06-19T14:19:49Z</time>
      </trkpt>
      <trkpt lat="47.0196" lon="5.26697">
        <ele>181</ele>
        <time>2012-06-19T14:19:51Z</time>
      </trkpt>
      <trkpt lat="47.01955" lon="5.26715">
        <ele>181</ele>
        <time>2012-06-19T14:19:54Z</time>
      </trkpt>
      <trkpt lat="47.01954" lon="5.26728">
        <ele>181</ele>
        <time>2012-06-19T14:19:56Z</time>
      </trkpt>
      <trkpt lat="47.01951" lon="5.26743">
        <ele>181</ele>
        <time>2012-06-19T14:19:58Z</time>
      </trkpt>
      <trkpt lat="47.01949" lon="5.26761">
        <ele>181</ele>
        <time>2012-06-19T14:20:00Z</time>
      </trkpt>
      <trkpt lat="47.01945" lon="5.26781">
        <ele>181</ele>
        <time>2012-06-19T14:20:02Z</time>
      </trkpt>
      <trkpt lat="47.0194" lon="5.268">
        <ele>181</ele>
        <time>2012-06-19T14:20:04Z</time>
      </trkpt>
      <trkpt lat="47.01933" lon="5.26819">
        <ele>181</ele>
        <time>2012-06-19T14:20:06Z</time>
      </trkpt>
      <trkpt lat="47.01927" lon="5.26837">
        <ele>181</ele>
        <time>2012-06-19T14:20:08Z</time>
      </trkpt>
      <trkpt lat="47.01921" lon="5.26856">
        <ele>181</ele>
        <time>2012-06-19T14:20:10Z</time>
      </trkpt>
      <trkpt lat="47.01915" lon="5.26875">
        <ele>181</ele>
        <time>2012-06-19T14:20:12Z</time>
      </trkpt>
      <trkpt lat="47.01909" lon="5.26896">
        <ele>181</ele>
        <time>2012-06-19T14:20:14Z</time>
      </trkpt>
      <trkpt lat="47.01903" lon="5.26917">
        <ele>181</ele>
        <time>2012-06-19T14:20:16Z</time>
      </trkpt>
      <trkpt lat="47.01898" lon="5.26938">
        <ele>181</ele>
        <time>2012-06-19T14:20:18Z</time>
      </trkpt>
      <trkpt lat="47.01892" lon="5.26959">
        <ele>181</ele>
        <time>2012-06-19T14:20:20Z</time>
      </trkpt>
      <trkpt lat="47.01887" lon="5.2698">
        <ele>181</ele>
        <time>2012-06-19T14:20:22Z</time>
      </trkpt>
      <trkpt lat="47.01881" lon="5.27">
        <ele>181</ele>
        <time>2012-06-19T14:20:24Z</time>
      </trkpt>
      <trkpt lat="47.01874" lon="5.27021">
        <ele>181</ele>
        <time>2012-06-19T14:20:26Z</time>
      </trkpt>
      <trkpt lat="47.01867" lon="5.27041">
        <ele>181</ele>
        <time>2012-06-19T14:20:28Z</time>
      </trkpt>
      <trkpt lat="47.01858" lon="5.2706">
        <ele>181</ele>
        <time>2012-06-19T14:20:30Z</time>
      </trkpt>
      <trkpt lat="47.0185" lon="5.27077">
        <ele>181</ele>
        <time>2012-06-19T14:20:32Z</time>
      </trkpt>
      <trkpt lat="47.01841" lon="5.27095">
        <ele>181</ele>
        <time>2012-06-19T14:20:34Z</time>
      </trkpt>
      <trkpt lat="47.0183" lon="5.27111">
        <ele>181</ele>
        <time>2012-06-19T14:20:36Z</time>
      </trkpt>
      <trkpt lat="47.0182" lon="5.27127">
        <ele>181</ele>
        <time>2012-06-19T14:20:38Z</time>
      </trkpt>
      <trkpt lat="47.01809" lon="5.27143">
        <ele>181</ele>
        <time>2012-06-19T14:20:40Z</time>
      </trkpt>
      <trkpt lat="47.01799" lon="5.27159">
        <ele>181</ele>
        <time>2012-06-19T14:20:42Z</time>
      </trkpt>
      <trkpt lat="47.01789" lon="5.27175">
        <ele>181</ele>
        <time>2012-06-19T14:20:44Z</time>
      </trkpt>
      <trkpt lat="47.01779" lon="5.27189">
        <ele>181</ele>
        <time>2012-06-19T14:20:46Z</time>
      </trkpt>
      <trkpt lat="47.01769" lon="5.27204">
        <ele>181</ele>
        <time>2012-06-19T14:20:48Z</time>
      </trkpt>
      <trkpt lat="47.01758" lon="5.27219">
        <ele>181</ele>
        <time>2012-06-19T14:20:50Z</time>
      </trkpt>
      <trkpt lat="47.01747" lon="5.27236">
        <ele>181</ele>
        <time>2012-06-19T14:20:52Z</time>
      </trkpt>
      <trkpt lat="47.01736" lon="5.27252">
        <ele>181</ele>
        <time>2012-06-19T14:20:54Z</time>
      </trkpt>
      <trkpt lat="47.01726" lon="5.27269">
        <ele>181</ele>
        <time>2012-06-19T14:20:56Z</time>
      </trkpt>
      <trkpt lat="47.01717" lon="5.27287">
        <ele>181</ele>
        <time>2012-06-19T14:20:58Z</time>
      </trkpt>
      <trkpt lat="47.01709" lon="5.27305">
        <ele>181</ele>
        <time>2012-06-19T14:21:00Z</time>
      </trkpt>
      <trkpt lat="47.01702" lon="5.27324">
        <ele>181</ele>
        <time>2012-06-19T14:21:02Z</time>
      </trkpt>
      <trkpt lat="47.01695" lon="5.27343">
        <ele>181</ele>
        <time>2012-06-19T14:21:04Z</time>
      </trkpt>
      <trkpt lat="47.01686" lon="5.27361">
        <ele>181</ele>
        <time>2012-06-19T14:21:06Z</time>
      </trkpt>
      <trkpt lat="47.01678" lon="5.2738">
        <ele>181</ele>
        <time>2012-06-19T14:21:08Z</time>
      </trkpt>
      <trkpt lat="47.01669" lon="5.27398">
        <ele>181</ele>
        <time>2012-06-19T14:21:10Z</time>
      </trkpt>
      <trkpt lat="47.01661" lon="5.27416">
        <ele>181</ele>
        <time>2012-06-19T14:21:12Z</time>
      </trkpt>
      <trkpt lat="47.01652" lon="5.27434">
        <ele>181</ele>
        <time>2012-06-19T14:21:14Z</time>
      </trkpt>
      <trkpt lat="47.01643" lon="5.27453">
        <ele>181</ele>
        <time>2012-06-19T14:21:16Z</time>
      </trkpt>
      <trkpt lat="47.01634" lon="5.2747">
        <ele>181</ele>
        <time>2012-06-19T14:21:18Z</time>
      </trkpt>
      <trkpt lat="47.01626" lon="5.27489">
        <ele>181</ele>
        <time>2012-06-19T14:21:20Z</time>
      </trkpt>
      <trkpt lat="47.01617" lon="5.27507">
        <ele>181</ele>
        <time>2012-06-19T14:21:22Z</time>
      </trkpt>
      <trkpt lat="47.01608" lon="5.27526">
        <ele>181</ele>
        <time>2012-06-19T14:21:24Z</time>
      </trkpt>
      <trkpt lat="47.016" lon="5.27546">
        <ele>181</ele>
        <time>2012-06-19T14:21:26Z</time>
      </trkpt>
      <trkpt lat="47.01592" lon="5.27564">
        <ele>181</ele>
        <time>2012-06-19T14:21:28Z</time>
      </trkpt>
      <trkpt lat="47.01583" lon="5.27582">
        <ele>181</ele>
        <time>2012-06-19T14:21:30Z</time>
      </trkpt>
      <trkpt lat="47.01575" lon="5.276">
        <ele>181</ele>
        <time>2012-06-19T14:21:32Z</time>
      </trkpt>
      <trkpt lat="47.01567" lon="5.2762">
        <ele>181</ele>
        <time>2012-06-19T14:21:34Z</time>
      </trkpt>
      <trkpt lat="47.01559" lon="5.27639">
        <ele>181</ele>
        <time>2012-06-19T14:21:36Z</time>
      </trkpt>
      <trkpt lat="47.0155" lon="5.27659">
        <ele>181</ele>
        <time>2012-06-19T14:21:38Z</time>
      </trkpt>
      <trkpt lat="47.01541" lon="5.27677">
        <ele>181</ele>
        <time>2012-06-19T14:21:40Z</time>
      </trkpt>
      <trkpt lat="47.01533" lon="5.27695">
        <ele>181</ele>
        <time>2012-06-19T14:21:42Z</time>
      </trkpt>
      <trkpt lat="47.01525" lon="5.27714">
        <ele>181</ele>
        <time>2012-06-19T14:21:44Z</time>
      </trkpt>
      <trkpt lat="47.01517" lon="5.27732">
        <ele>181</ele>
        <time>2012-06-19T14:21:46Z</time>
      </trkpt>
      <trkpt lat="47.01509" lon="5.2775">
        <ele>181</ele>
        <time>2012-06-19T14:21:48Z</time>
      </trkpt>
      <trkpt lat="47.01501" lon="5.27768">
        <ele>181</ele>
        <time>2012-06-19T14:21:50Z</time>
      </trkpt>
      <trkpt lat="47.01493" lon="5.27787">
        <ele>181</ele>
        <time>2012-06-19T14:21:52Z</time>
      </trkpt>
      <trkpt lat="47.01485" lon="5.27806">
        <ele>181</ele>
        <time>2012-06-19T14:21:54Z</time>
      </trkpt>
      <trkpt lat="47.01478" lon="5.27825">
        <ele>181</ele>
        <time>2012-06-19T14:21:56Z</time>
      </trkpt>
      <trkpt lat="47.0147" lon="5.27843">
        <ele>181</ele>
        <time>2012-06-19T14:21:58Z</time>
      </trkpt>
      <trkpt lat="47.01462" lon="5.27861">
        <ele>181</ele>
        <time>2012-06-19T14:22:00Z</time>
      </trkpt>
      <trkpt lat="47.01452" lon="5.27878">
        <ele>181</ele>
        <time>2012-06-19T14:22:02Z</time>
      </trkpt>
      <trkpt lat="47.01441" lon="5.27892">
        <ele>181</ele>
        <time>2012-06-19T14:22:04Z</time>
      </trkpt>
      <trkpt lat="47.01427" lon="5.27903">
        <ele>181</ele>
        <time>2012-06-19T14:22:06Z</time>
      </trkpt>
      <trkpt lat="47.01412" lon="5.27909">
        <ele>181</ele>
        <time>2012-06-19T14:22:08Z</time>
      </trkpt>
      <trkpt lat="47.01396" lon="5.27909">
        <ele>181</ele>
        <time>2012-06-19T14:22:10Z</time>
      </trkpt>
      <trkpt lat="47.01382" lon="5.27904">
        <ele>181</ele>
        <time>2012-06-19T14:22:12Z</time>
      </trkpt>
      <trkpt lat="47.01369" lon="5.27898">
        <ele>181</ele>
        <time>2012-06-19T14:22:14Z</time>
      </trkpt>
      <trkpt lat="47.01355" lon="5.27891">
        <ele>181</ele>
        <time>2012-06-19T14:22:16Z</time>
      </trkpt>
      <trkpt lat="47.01343" lon="5.27884">
        <ele>181</ele>
        <time>2012-06-19T14:22:18Z</time>
      </trkpt>
      <trkpt lat="47.0133" lon="5.27878">
        <ele>181</ele>
        <time>2012-06-19T14:22:20Z</time>
      </trkpt>
      <trkpt lat="47.01318" lon="5.27875">
        <ele>181</ele>
        <time>2012-06-19T14:22:22Z</time>
      </trkpt>
      <trkpt lat="47.01305" lon="5.27879">
        <ele>181</ele>
        <time>2012-06-19T14:22:24Z</time>
      </trkpt>
      <trkpt lat="47.01294" lon="5.27891">
        <ele>181</ele>
        <time>2012-06-19T14:22:26Z</time>
      </trkpt>
      <trkpt lat="47.01287" lon="5.27909">
        <ele>181</ele>
        <time>2012-06-19T14:22:28Z</time>
      </trkpt>
      <trkpt lat="47.01281" lon="5.27926">
        <ele>181</ele>
        <time>2012-06-19T14:22:30Z</time>
      </trkpt>
      <trkpt lat="47.01275" lon="5.27944">
        <ele>181</ele>
        <time>2012-06-19T14:22:32Z</time>
      </trkpt>
      <trkpt lat="47.01269" lon="5.27962">
        <ele>181</ele>
        <time>2012-06-19T14:22:34Z</time>
      </trkpt>
      <trkpt lat="47.01264" lon="5.27979">
        <ele>181</ele>
        <time>2012-06-19T14:22:36Z</time>
      </trkpt>
      <trkpt lat="47.01258" lon="5.27997">
        <ele>181</ele>
        <time>2012-06-19T14:22:38Z</time>
      </trkpt>
      <trkpt lat="47.01251" lon="5.28015">
        <ele>181</ele>
        <time>2012-06-19T14:22:40Z</time>
      </trkpt>
      <trkpt lat="47.01245" lon="5.28032">
        <ele>181</ele>
        <time>2012-06-19T14:22:42Z</time>
      </trkpt>
      <trkpt lat="47.0124" lon="5.2805">
        <ele>181</ele>
        <time>2012-06-19T14:22:44Z</time>
      </trkpt>
      <trkpt lat="47.01239" lon="5.2807">
        <ele>181</ele>
        <time>2012-06-19T14:22:46Z</time>
      </trkpt>
      <trkpt lat="47.0124" lon="5.2809">
        <ele>181</ele>
        <time>2012-06-19T14:22:48Z</time>
      </trkpt>
      <trkpt lat="47.01242" lon="5.28109">
        <ele>181</ele>
        <time>2012-06-19T14:22:50Z</time>
      </trkpt>
      <trkpt lat="47.01243" lon="5.28128">
        <ele>181</ele>
        <time>2012-06-19T14:22:52Z</time>
      </trkpt>
      <trkpt lat="47.01243" lon="5.28148">
        <ele>181</ele>
        <time>2012-06-19T14:22:54Z</time>
      </trkpt>
      <trkpt lat="47.01242" lon="5.28168">
        <ele>181</ele>
        <time>2012-06-19T14:22:56Z</time>
      </trkpt>
      <trkpt lat="47.01239" lon="5.28189">
        <ele>181</ele>
        <time>2012-06-19T14:22:58Z</time>
      </trkpt>
      <trkpt lat="47.01235" lon="5.28209">
        <ele>181</ele>
        <time>2012-06-19T14:23:00Z</time>
      </trkpt>
      <trkpt lat="47.01231" lon="5.28229">
        <ele>181</ele>
        <time>2012-06-19T14:23:02Z</time>
      </trkpt>
      <trkpt lat="47.01229" lon="5.2825">
        <ele>181</ele>
        <time>2012-06-19T14:23:04Z</time>
      </trkpt>
      <trkpt lat="47.01229" lon="5.28271">
        <ele>181</ele>
        <time>2012-06-19T14:23:06Z</time>
      </trkpt>
      <trkpt lat="47.01234" lon="5.2829">
        <ele>181</ele>
        <time>2012-06-19T14:23:08Z</time>
      </trkpt>
      <trkpt lat="47.01242" lon="5.28307">
        <ele>181</ele>
        <time>2012-06-19T14:23:10Z</time>
      </trkpt>
      <trkpt lat="47.01251" lon="5.28322">
        <ele>181</ele>
        <time>2012-06-19T14:23:12Z</time>
      </trkpt>
      <trkpt lat="47.01261" lon="5.28333">
        <ele>181</ele>
        <time>2012-06-19T14:23:14Z</time>
      </trkpt>
      <trkpt lat="47.01272" lon="5.28343">
        <ele>181</ele>
        <time>2012-06-19T14:23:16Z</time>
      </trkpt>
      <trkpt lat="47.01283" lon="5.28353">
        <ele>181</ele>
        <time>2012-06-19T14:23:18Z</time>
      </trkpt>
      <trkpt lat="47.01297" lon="5.28363">
        <ele>181</ele>
        <time>2012-06-19T14:23:20Z</time>
      </trkpt>
      <trkpt lat="47.01311" lon="5.28372">
        <ele>181</ele>
        <time>2012-06-19T14:23:22Z</time>
      </trkpt>
      <trkpt lat="47.01326" lon="5.28381">
        <ele>181</ele>
        <time>2012-06-19T14:23:24Z</time>
      </trkpt>
      <trkpt lat="47.0134" lon="5.2839">
        <ele>181</ele>
        <time>2012-06-19T14:23:26Z</time>
      </trkpt>
      <trkpt lat="47.01355" lon="5.28397">
        <ele>181</ele>
        <time>2012-06-19T14:23:28Z</time>
      </trkpt>
      <trkpt lat="47.0137" lon="5.28404">
        <ele>181</ele>
        <time>2012-06-19T14:23:30Z</time>
      </trkpt>
      <trkpt lat="47.01384" lon="5.28409">
        <ele>181</ele>
        <time>2012-06-19T14:23:32Z</time>
      </trkpt>
      <trkpt lat="47.01399" lon="5.28412">
        <ele>181</ele>
        <time>2012-06-19T14:23:34Z</time>
      </trkpt>
      <trkpt lat="47.01413" lon="5.28415">
        <ele>181</ele>
        <time>2012-06-19T14:23:36Z</time>
      </trkpt>
      <trkpt lat="47.01427" lon="5.28418">
        <ele>181</ele>
        <time>2012-06-19T14:23:38Z</time>
      </trkpt>
      <trkpt lat="47.01442" lon="5.2842">
        <ele>181</ele>
        <time>2012-06-19T14:23:40Z</time>
      </trkpt>
      <trkpt lat="47.01456" lon="5.2842">
        <ele>181</ele>
        <time>2012-06-19T14:23:42Z</time>
      </trkpt>
      <trkpt lat="47.0147" lon="5.28419">
        <ele>181</ele>
        <time>2012-06-19T14:23:44Z</time>
      </trkpt>
      <trkpt lat="47.01484" lon="5.28418">
        <ele>181</ele>
        <time>2012-06-19T14:23:46Z</time>
      </trkpt>
      <trkpt lat="47.01498" lon="5.28416">
        <ele>181</ele>
        <time>2012-06-19T14:23:48Z</time>
      </trkpt>
      <trkpt lat="47.01512" lon="5.28414">
        <ele>181</ele>
        <time>2012-06-19T14:23:50Z</time>
      </trkpt>
      <trkpt lat="47.01525" lon="5.28412">
        <ele>181</ele>
        <time>2012-06-19T14:23:52Z</time>
      </trkpt>
      <trkpt lat="47.0154" lon="5.2841">
        <ele>181</ele>
        <time>2012-06-19T14:23:54Z</time>
      </trkpt>
      <trkpt lat="47.01554" lon="5.28412">
        <ele>181</ele>
        <time>2012-06-19T14:23:56Z</time>
      </trkpt>
      <trkpt lat="47.01568" lon="5.28419">
        <ele>181</ele>
        <time>2012-06-19T14:23:58Z</time>
      </trkpt>
      <trkpt lat="47.01581" lon="5.28427">
        <ele>181</ele>
        <time>2012-06-19T14:24:00Z</time>
      </trkpt>
      <trkpt lat="47.01594" lon="5.28434">
        <ele>181</ele>
        <time>2012-06-19T14:24:02Z</time>
      </trkpt>
      <trkpt lat="47.01607" lon="5.28443">
        <ele>181</ele>
        <time>2012-06-19T14:24:04Z</time>
      </trkpt>
      <trkpt lat="47.0162" lon="5.28451">
        <ele>181</ele>
        <time>2012-06-19T14:24:06Z</time>
      </trkpt>
      <trkpt lat="47.01632" lon="5.28459">
        <ele>181</ele>
        <time>2012-06-19T14:24:08Z</time>
      </trkpt>
      <trkpt lat="47.01643" lon="5.28473">
        <ele>181</ele>
        <time>2012-06-19T14:24:10Z</time>
      </trkpt>
      <trkpt lat="47.0165" lon="5.28491">
        <ele>181</ele>
        <time>2012-06-19T14:24:12Z</time>
      </trkpt>
      <trkpt lat="47.01653" lon="5.2851">
        <ele>181</ele>
        <time>2012-06-19T14:24:14Z</time>
      </trkpt>
      <trkpt lat="47.01654" lon="5.28531">
        <ele>181</ele>
        <time>2012-06-19T14:24:16Z</time>
      </trkpt>
      <trkpt lat="47.01653" lon="5.28551">
        <ele>181</ele>
        <time>2012-06-19T14:24:18Z</time>
      </trkpt>
      <trkpt lat="47.01651" lon="5.28571">
        <ele>181</ele>
        <time>2012-06-19T14:24:20Z</time>
      </trkpt>
      <trkpt lat="47.0165" lon="5.2859">
        <ele>181</ele>
        <time>2012-06-19T14:24:22Z</time>
      </trkpt>
      <trkpt lat="47.01646" lon="5.28609">
        <ele>181</ele>
        <time>2012-06-19T14:24:24Z</time>
      </trkpt>
      <trkpt lat="47.01643" lon="5.28629">
        <ele>181</ele>
        <time>2012-06-19T14:24:26Z</time>
      </trkpt>
      <trkpt lat="47.0164" lon="5.28651">
        <ele>181</ele>
        <time>2012-06-19T14:24:28Z</time>
      </trkpt>
      <trkpt lat="47.01637" lon="5.2867">
        <ele>181</ele>
        <time>2012-06-19T14:24:30Z</time>
      </trkpt>
      <trkpt lat="47.01635" lon="5.2869">
        <ele>181</ele>
        <time>2012-06-19T14:24:32Z</time>
      </trkpt>
      <trkpt lat="47.01633" lon="5.28711">
        <ele>181</ele>
        <time>2012-06-19T14:24:34Z</time>
      </trkpt>
      <trkpt lat="47.01634" lon="5.28731">
        <ele>181</ele>
        <time>2012-06-19T14:24:36Z</time>
      </trkpt>
      <trkpt lat="47.01637" lon="5.28751">
        <ele>181</ele>
        <time>2012-06-19T14:24:38Z</time>
      </trkpt>
      <trkpt lat="47.01641" lon="5.28771">
        <ele>181</ele>
        <time>2012-06-19T14:24:40Z</time>
      </trkpt>
      <trkpt lat="47.01646" lon="5.2879">
        <ele>181</ele>
        <time>2012-06-19T14:24:42Z</time>
      </trkpt>
      <trkpt lat="47.01654" lon="5.28809">
        <ele>181</ele>
        <time>2012-06-19T14:24:44Z</time>
      </trkpt>
      <trkpt lat="47.01662" lon="5.28826">
        <ele>181</ele>
        <time>2012-06-19T14:24:46Z</time>
      </trkpt>
      <trkpt lat="47.01672" lon="5.28841">
        <ele>181</ele>
        <time>2012-06-19T14:24:48Z</time>
      </trkpt>
      <trkpt lat="47.01683" lon="5.28855">
        <ele>181</ele>
        <time>2012-06-19T14:24:50Z</time>
      </trkpt>
      <trkpt lat="47.01694" lon="5.2887">
        <ele>181</ele>
        <time>2012-06-19T14:24:52Z</time>
      </trkpt>
      <trkpt lat="47.01705" lon="5.28883">
        <ele>181</ele>
        <time>2012-06-19T14:24:54Z</time>
      </trkpt>
      <trkpt lat="47.01717" lon="5.28898">
        <ele>181</ele>
        <time>2012-06-19T14:24:56Z</time>
      </trkpt>
      <trkpt lat="47.01729" lon="5.28911">
        <ele>181</ele>
        <time>2012-06-19T14:24:58Z</time>
      </trkpt>
      <trkpt lat="47.0174" lon="5.28925">
        <ele>181</ele>
        <time>2012-06-19T14:25:00Z</time>
      </trkpt>
      <trkpt lat="47.01751" lon="5.28939">
        <ele>181</ele>
        <time>2012-06-19T14:25:02Z</time>
      </trkpt>
      <trkpt lat="47.01763" lon="5.28952">
        <ele>181</ele>
        <time>2012-06-19T14:25:04Z</time>
      </trkpt>
      <trkpt lat="47.01774" lon="5.28967">
        <ele>181</ele>
        <time>2012-06-19T14:25:06Z</time>
      </trkpt>
      <trkpt lat="47.01785" lon="5.2898">
        <ele>181</ele>
        <time>2012-06-19T14:25:08Z</time>
      </trkpt>
      <trkpt lat="47.01796" lon="5.28994">
        <ele>181</ele>
        <time>2012-06-19T14:25:10Z</time>
      </trkpt>
      <trkpt lat="47.01807" lon="5.29008">
        <ele>181</ele>
        <time>2012-06-19T14:25:12Z</time>
      </trkpt>
      <trkpt lat="47.01817" lon="5.29022">
        <ele>181</ele>
        <time>2012-06-19T14:25:14Z</time>
      </trkpt>
      <trkpt lat="47.01829" lon="5.29035">
        <ele>181</ele>
        <time>2012-06-19T14:25:16Z</time>
      </trkpt>
      <trkpt lat="47.0184" lon="5.29049">
        <ele>181</ele>
        <time>2012-06-19T14:25:18Z</time>
      </trkpt>
      <trkpt lat="47.0185" lon="5.29063">
        <ele>181</ele>
        <time>2012-06-19T14:25:20Z</time>
      </trkpt>
      <trkpt lat="47.01862" lon="5.29077">
        <ele>181</ele>
        <time>2012-06-19T14:25:22Z</time>
      </trkpt>
      <trkpt lat="47.01873" lon="5.29091">
        <ele>181</ele>
        <time>2012-06-19T14:25:24Z</time>
      </trkpt>
      <trkpt lat="47.01884" lon="5.29105">
        <ele>181</ele>
        <time>2012-06-19T14:25:26Z</time>
      </trkpt>
      <trkpt lat="47.01895" lon="5.29119">
        <ele>181</ele>
        <time>2012-06-19T14:25:28Z</time>
      </trkpt>
      <trkpt lat="47.01906" lon="5.29134">
        <ele>181</ele>
        <time>2012-06-19T14:25:30Z</time>
      </trkpt>
      <trkpt lat="47.01918" lon="5.29147">
        <ele>181</ele>
        <time>2012-06-19T14:25:32Z</time>
      </trkpt>
      <trkpt lat="47.01929" lon="5.29161">
        <ele>181</ele>
        <time>2012-06-19T14:25:34Z</time>
      </trkpt>
      <trkpt lat="47.0194" lon="5.29172">
        <ele>181</ele>
        <time>2012-06-19T14:25:36Z</time>
      </trkpt>
      <trkpt lat="47.01953" lon="5.29183">
        <ele>181</ele>
        <time>2012-06-19T14:25:38Z</time>
      </trkpt>
      <trkpt lat="47.01966" lon="5.29193">
        <ele>181</ele>
        <time>2012-06-19T14:25:40Z</time>
      </trkpt>
      <trkpt lat="47.01979" lon="5.29201">
        <ele>181</ele>
        <time>2012-06-19T14:25:42Z</time>
      </trkpt>
      <trkpt lat="47.01992" lon="5.29209">
        <ele>181</ele>
        <time>2012-06-19T14:25:44Z</time>
      </trkpt>
      <trkpt lat="47.02006" lon="5.29218">
        <ele>181</ele>
        <time>2012-06-19T14:25:46Z</time>
      </trkpt>
      <trkpt lat="47.0202" lon="5.29226">
        <ele>186</ele>
        <time>2012-06-19T14:25:48Z</time>
      </trkpt>
      <trkpt lat="47.02034" lon="5.29234">
        <ele>186</ele>
        <time>2012-06-19T14:25:50Z</time>
      </trkpt>
      <trkpt lat="47.02047" lon="5.29242">
        <ele>186</ele>
        <time>2012-06-19T14:25:52Z</time>
      </trkpt>
      <trkpt lat="47.02061" lon="5.29251">
        <ele>186</ele>
        <time>2012-06-19T14:25:54Z</time>
      </trkpt>
      <trkpt lat="47.02074" lon="5.29259">
        <ele>186</ele>
        <time>2012-06-19T14:25:56Z</time>
      </trkpt>
      <trkpt lat="47.02087" lon="5.29267">
        <ele>186</ele>
        <time>2012-06-19T14:25:58Z</time>
      </trkpt>
      <trkpt lat="47.021" lon="5.29276">
        <ele>186</ele>
        <time>2012-06-19T14:26:00Z</time>
      </trkpt>
      <trkpt lat="47.02114" lon="5.29285">
        <ele>186</ele>
        <time>2012-06-19T14:26:02Z</time>
      </trkpt>
      <trkpt lat="47.02127" lon="5.29295">
        <ele>186</ele>
        <time>2012-06-19T14:26:04Z</time>
      </trkpt>
      <trkpt lat="47.02141" lon="5.29304">
        <ele>186</ele>
        <time>2012-06-19T14:26:06Z</time>
      </trkpt>
      <trkpt lat="47.02155" lon="5.29316">
        <ele>186</ele>
        <time>2012-06-19T14:26:08Z</time>
      </trkpt>
      <trkpt lat="47.02167" lon="5.2933">
        <ele>186</ele>
        <time>2012-06-19T14:26:10Z</time>
      </trkpt>
      <trkpt lat="47.02179" lon="5.29347">
        <ele>186</ele>
        <time>2012-06-19T14:26:12Z</time>
      </trkpt>
      <trkpt lat="47.02187" lon="5.29366">
        <ele>186</ele>
        <time>2012-06-19T14:26:14Z</time>
      </trkpt>
      <trkpt lat="47.02193" lon="5.29388">
        <ele>186</ele>
        <time>2012-06-19T14:26:16Z</time>
      </trkpt>
      <trkpt lat="47.02196" lon="5.29409">
        <ele>186</ele>
        <time>2012-06-19T14:26:18Z</time>
      </trkpt>
      <trkpt lat="47.022" lon="5.29429">
        <ele>186</ele>
        <time>2012-06-19T14:26:20Z</time>
      </trkpt>
      <trkpt lat="47.02204" lon="5.29451">
        <ele>186</ele>
        <time>2012-06-19T14:26:22Z</time>
      </trkpt>
      <trkpt lat="47.02208" lon="5.29472">
        <ele>186</ele>
        <time>2012-06-19T14:26:24Z</time>
      </trkpt>
      <trkpt lat="47.02212" lon="5.29493">
        <ele>186</ele>
        <time>2012-06-19T14:26:26Z</time>
      </trkpt>
      <trkpt lat="47.02215" lon="5.29514">
        <ele>186</ele>
        <time>2012-06-19T14:26:28Z</time>
      </trkpt>
      <trkpt lat="47.0222" lon="5.29534">
        <ele>186</ele>
        <time>2012-06-19T14:26:30Z</time>
      </trkpt>
      <trkpt lat="47.02223" lon="5.29555">
        <ele>186</ele>
        <time>2012-06-19T14:26:32Z</time>
      </trkpt>
      <trkpt lat="47.02227" lon="5.29576">
        <ele>186</ele>
        <time>2012-06-19T14:26:34Z</time>
      </trkpt>
      <trkpt lat="47.02231" lon="5.29596">
        <ele>186</ele>
        <time>2012-06-19T14:26:36Z</time>
      </trkpt>
      <trkpt lat="47.02234" lon="5.29617">
        <ele>186</ele>
        <time>2012-06-19T14:26:38Z</time>
      </trkpt>
      <trkpt lat="47.02239" lon="5.29639">
        <ele>186</ele>
        <time>2012-06-19T14:26:40Z</time>
      </trkpt>
      <trkpt lat="47.02243" lon="5.2966">
        <ele>186</ele>
        <time>2012-06-19T14:26:42Z</time>
      </trkpt>
      <trkpt lat="47.02247" lon="5.29682">
        <ele>186</ele>
        <time>2012-06-19T14:26:44Z</time>
      </trkpt>
      <trkpt lat="47.02251" lon="5.29703">
        <ele>186</ele>
        <time>2012-06-19T14:26:46Z</time>
      </trkpt>
      <trkpt lat="47.02255" lon="5.29726">
        <ele>186</ele>
        <time>2012-06-19T14:26:48Z</time>
      </trkpt>
      <trkpt lat="47.0226" lon="5.29748">
        <ele>186</ele>
        <time>2012-06-19T14:26:50Z</time>
      </trkpt>
      <trkpt lat="47.02264" lon="5.29771">
        <ele>186</ele>
        <time>2012-06-19T14:26:52Z</time>
      </trkpt>
      <trkpt lat="47.02269" lon="5.29793">
        <ele>186</ele>
        <time>2012-06-19T14:26:54Z</time>
      </trkpt>
      <trkpt lat="47.02273" lon="5.29815">
        <ele>186</ele>
        <time>2012-06-19T14:26:56Z</time>
      </trkpt>
      <trkpt lat="47.02277" lon="5.29836">
        <ele>186</ele>
        <time>2012-06-19T14:26:58Z</time>
      </trkpt>
      <trkpt lat="47.02281" lon="5.2986">
        <ele>186</ele>
        <time>2012-06-19T14:27:00Z</time>
      </trkpt>
      <trkpt lat="47.02285" lon="5.29882">
        <ele>186</ele>
        <time>2012-06-19T14:27:02Z</time>
      </trkpt>
      <trkpt lat="47.0229" lon="5.29904">
        <ele>186</ele>
        <time>2012-06-19T14:27:04Z</time>
      </trkpt>
      <trkpt lat="47.02293" lon="5.29925">
        <ele>186</ele>
        <time>2012-06-19T14:27:06Z</time>
      </trkpt>
      <trkpt lat="47.02297" lon="5.29947">
        <ele>186</ele>
        <time>2012-06-19T14:27:08Z</time>
      </trkpt>
      <trkpt lat="47.02301" lon="5.29968">
        <ele>186</ele>
        <time>2012-06-19T14:27:10Z</time>
      </trkpt>
      <trkpt lat="47.02305" lon="5.29989">
        <ele>186</ele>
        <time>2012-06-19T14:27:12Z</time>
      </trkpt>
      <trkpt lat="47.02309" lon="5.3001">
        <ele>186</ele>
        <time>2012-06-19T14:27:14Z</time>
      </trkpt>
      <trkpt lat="47.02314" lon="5.30031">
        <ele>186</ele>
        <time>2012-06-19T14:27:16Z</time>
      </trkpt>
      <trkpt lat="47.02318" lon="5.30053">
        <ele>186</ele>
        <time>2012-06-19T14:27:18Z</time>
      </trkpt>
      <trkpt lat="47.02322" lon="5.30073">
        <ele>186</ele>
        <time>2012-06-19T14:27:20Z</time>
      </trkpt>
      <trkpt lat="47.02326" lon="5.30094">
        <ele>186</ele>
        <time>2012-06-19T14:27:22Z</time>
      </trkpt>
      <trkpt lat="47.0233" lon="5.30114">
        <ele>186</ele>
        <time>2012-06-19T14:27:24Z</time>
      </trkpt>
      <trkpt lat="47.02334" lon="5.30135">
        <ele>186</ele>
        <time>2012-06-19T14:27:26Z</time>
      </trkpt>
      <trkpt lat="47.02338" lon="5.30154">
        <ele>186</ele>
        <time>2012-06-19T14:27:28Z</time>
      </trkpt>
      <trkpt lat="47.02342" lon="5.30175">
        <ele>186</ele>
        <time>2012-06-19T14:27:30Z</time>
      </trkpt>
      <trkpt lat="47.02346" lon="5.30196">
        <ele>186</ele>
        <time>2012-06-19T14:27:32Z</time>
      </trkpt>
      <trkpt lat="47.0235" lon="5.30215">
        <ele>186</ele>
        <time>2012-06-19T14:27:34Z</time>
      </trkpt>
      <trkpt lat="47.02354" lon="5.30236">
        <ele>186</ele>
        <time>2012-06-19T14:27:36Z</time>
      </trkpt>
      <trkpt lat="47.02358" lon="5.30256">
        <ele>186</ele>
        <time>2012-06-19T14:27:38Z</time>
      </trkpt>
      <trkpt lat="47.02362" lon="5.30276">
        <ele>186</ele>
        <time>2012-06-19T14:27:40Z</time>
      </trkpt>
      <trkpt lat="47.02366" lon="5.30296">
        <ele>186</ele>
        <time>2012-06-19T14:27:42Z</time>
      </trkpt>
      <trkpt lat="47.0237" lon="5.30317">
        <ele>186</ele>
        <time>2012-06-19T14:27:44Z</time>
      </trkpt>
      <trkpt lat="47.02374" lon="5.30337">
        <ele>186</ele>
        <time>2012-06-19T14:27:46Z</time>
      </trkpt>
      <trkpt lat="47.02378" lon="5.30357">
        <ele>186</ele>
        <time>2012-06-19T14:27:48Z</time>
      </trkpt>
      <trkpt lat="47.02382" lon="5.30378">
        <ele>186</ele>
        <time>2012-06-19T14:27:50Z</time>
      </trkpt>
      <trkpt lat="47.02386" lon="5.30399">
        <ele>186</ele>
        <time>2012-06-19T14:27:52Z</time>
      </trkpt>
      <trkpt lat="47.0239" lon="5.30418">
        <ele>186</ele>
        <time>2012-06-19T14:27:54Z</time>
      </trkpt>
      <trkpt lat="47.02393" lon="5.30439">
        <ele>186</ele>
        <time>2012-06-19T14:27:56Z</time>
      </trkpt>
      <trkpt lat="47.02398" lon="5.3046">
        <ele>186</ele>
        <time>2012-06-19T14:27:58Z</time>
      </trkpt>
      <trkpt lat="47.02401" lon="5.30481">
        <ele>186</ele>
        <time>2012-06-19T14:28:00Z</time>
      </trkpt>
      <trkpt lat="47.02406" lon="5.30503">
        <ele>186</ele>
        <time>2012-06-19T14:28:02Z</time>
      </trkpt>
      <trkpt lat="47.02409" lon="5.30523">
        <ele>186</ele>
        <time>2012-06-19T14:28:04Z</time>
      </trkpt>
      <trkpt lat="47.02414" lon="5.30545">
        <ele>186</ele>
        <time>2012-06-19T14:28:06Z</time>
      </trkpt>
      <trkpt lat="47.02418" lon="5.30567">
        <ele>186</ele>
        <time>2012-06-19T14:28:08Z</time>
      </trkpt>
      <trkpt lat="47.02422" lon="5.30588">
        <ele>186</ele>
        <time>2012-06-19T14:28:10Z</time>
      </trkpt>
      <trkpt lat="47.02426" lon="5.3061">
        <ele>186</ele>
        <time>2012-06-19T14:28:12Z</time>
      </trkpt>
      <trkpt lat="47.0243" lon="5.30631">
        <ele>186</ele>
        <time>2012-06-19T14:28:14Z</time>
      </trkpt>
      <trkpt lat="47.02434" lon="5.30654">
        <ele>186</ele>
        <time>2012-06-19T14:28:16Z</time>
      </trkpt>
      <trkpt lat="47.02438" lon="5.30675">
        <ele>186</ele>
        <time>2012-06-19T14:28:18Z</time>
      </trkpt>
      <trkpt lat="47.02443" lon="5.30696">
        <ele>186</ele>
        <time>2012-06-19T14:28:20Z</time>
      </trkpt>
      <trkpt lat="47.02447" lon="5.30717">
        <ele>186</ele>
        <time>2012-06-19T14:28:22Z</time>
      </trkpt>
      <trkpt lat="47.02451" lon="5.30738">
        <ele>186</ele>
        <time>2012-06-19T14:28:24Z</time>
      </trkpt>
      <trkpt lat="47.02455" lon="5.30759">
        <ele>186</ele>
        <time>2012-06-19T14:28:26Z</time>
      </trkpt>
      <trkpt lat="47.02459" lon="5.3078">
        <ele>186</ele>
        <time>2012-06-19T14:28:28Z</time>
      </trkpt>
      <trkpt lat="47.02463" lon="5.308">
        <ele>186</ele>
        <time>2012-06-19T14:28:30Z</time>
      </trkpt>
      <trkpt lat="47.02467" lon="5.30822">
        <ele>186</ele>
        <time>2012-06-19T14:28:32Z</time>
      </trkpt>
      <trkpt lat="47.02471" lon="5.30843">
        <ele>186</ele>
        <time>2012-06-19T14:28:34Z</time>
      </trkpt>
      <trkpt lat="47.02475" lon="5.30865">
        <ele>186</ele>
        <time>2012-06-19T14:28:36Z</time>
      </trkpt>
      <trkpt lat="47.02479" lon="5.30886">
        <ele>186</ele>
        <time>2012-06-19T14:28:38Z</time>
      </trkpt>
      <trkpt lat="47.02484" lon="5.30908">
        <ele>186</ele>
        <time>2012-06-19T14:28:40Z</time>
      </trkpt>
      <trkpt lat="47.02489" lon="5.3093">
        <ele>186</ele>
        <time>2012-06-19T14:28:42Z</time>
      </trkpt>
      <trkpt lat="47.02495" lon="5.30952">
        <ele>186</ele>
        <time>2012-06-19T14:28:44Z</time>
      </trkpt>
      <trkpt lat="47.02503" lon="5.30972">
        <ele>186</ele>
        <time>2012-06-19T14:28:46Z</time>
      </trkpt>
      <trkpt lat="47.02513" lon="5.3099">
        <ele>186</ele>
        <time>2012-06-19T14:28:48Z</time>
      </trkpt>
      <trkpt lat="47.02524" lon="5.31008">
        <ele>186</ele>
        <time>2012-06-19T14:28:50Z</time>
      </trkpt>
      <trkpt lat="47.02535" lon="5.31025">
        <ele>186</ele>
        <time>2012-06-19T14:28:52Z</time>
      </trkpt>
      <trkpt lat="47.02546" lon="5.31041">
        <ele>186</ele>
        <time>2012-06-19T14:28:54Z</time>
      </trkpt>
      <trkpt lat="47.02556" lon="5.31058">
        <ele>186</ele>
        <time>2012-06-19T14:28:56Z</time>
      </trkpt>
      <trkpt lat="47.02568" lon="5.31074">
        <ele>186</ele>
        <time>2012-06-19T14:28:58Z</time>
      </trkpt>
      <trkpt lat="47.02578" lon="5.3109">
        <ele>186</ele>
        <time>2012-06-19T14:29:00Z</time>
      </trkpt>
      <trkpt lat="47.02589" lon="5.31106">
        <ele>186</ele>
        <time>2012-06-19T14:29:02Z</time>
      </trkpt>
      <trkpt lat="47.026" lon="5.31122">
        <ele>186</ele>
        <time>2012-06-19T14:29:04Z</time>
      </trkpt>
      <trkpt lat="47.02611" lon="5.31136">
        <ele>186</ele>
        <time>2012-06-19T14:29:06Z</time>
      </trkpt>
      <trkpt lat="47.02622" lon="5.31151">
        <ele>186</ele>
        <time>2012-06-19T14:29:08Z</time>
      </trkpt>
      <trkpt lat="47.02633" lon="5.31165">
        <ele>186</ele>
        <time>2012-06-19T14:29:10Z</time>
      </trkpt>
      <trkpt lat="47.02645" lon="5.31179">
        <ele>186</ele>
        <time>2012-06-19T14:29:12Z</time>
      </trkpt>
      <trkpt lat="47.02656" lon="5.31194">
        <ele>186</ele>
        <time>2012-06-19T14:29:14Z</time>
      </trkpt>
      <trkpt lat="47.02667" lon="5.31207">
        <ele>186</ele>
        <time>2012-06-19T14:29:16Z</time>
      </trkpt>
      <trkpt lat="47.02679" lon="5.31221">
        <ele>186</ele>
        <time>2012-06-19T14:29:18Z</time>
      </trkpt>
      <trkpt lat="47.0269" lon="5.31236">
        <ele>186</ele>
        <time>2012-06-19T14:29:20Z</time>
      </trkpt>
      <trkpt lat="47.02701" lon="5.3125">
        <ele>186</ele>
        <time>2012-06-19T14:29:22Z</time>
      </trkpt>
      <trkpt lat="47.02712" lon="5.31264">
        <ele>186</ele>
        <time>2012-06-19T14:29:24Z</time>
      </trkpt>
      <trkpt lat="47.02723" lon="5.31278">
        <ele>186</ele>
        <time>2012-06-19T14:29:26Z</time>
      </trkpt>
      <trkpt lat="47.02734" lon="5.31292">
        <ele>186</ele>
        <time>2012-06-19T14:29:28Z</time>
      </trkpt>
      <trkpt lat="47.02745" lon="5.31307">
        <ele>186</ele>
        <time>2012-06-19T14:29:30Z</time>
      </trkpt>
      <trkpt lat="47.02757" lon="5.31322">
        <ele>186</ele>
        <time>2012-06-19T14:29:32Z</time>
      </trkpt>
      <trkpt lat="47.02768" lon="5.31337">
        <ele>186</ele>
        <time>2012-06-19T14:29:34Z</time>
      </trkpt>
      <trkpt lat="47.0278" lon="5.31352">
        <ele>186</ele>
        <time>2012-06-19T14:29:36Z</time>
      </trkpt>
      <trkpt lat="47.02792" lon="5.31365">
        <ele>186</ele>
        <time>2012-06-19T14:29:38Z</time>
      </trkpt>
      <trkpt lat="47.02804" lon="5.31379">
        <ele>186</ele>
        <time>2012-06-19T14:29:40Z</time>
      </trkpt>
      <trkpt lat="47.02817" lon="5.31391">
        <ele>186</ele>
        <time>2012-06-19T14:29:42Z</time>
      </trkpt>
      <trkpt lat="47.0283" lon="5.31402">
        <ele>186</ele>
        <time>2012-06-19T14:29:44Z</time>
      </trkpt>
      <trkpt lat="47.02843" lon="5.31413">
        <ele>186</ele>
        <time>2012-06-19T14:29:46Z</time>
      </trkpt>
      <trkpt lat="47.02857" lon="5.31422">
        <ele>186</ele>
        <time>2012-06-19T14:29:48Z</time>
      </trkpt>
      <trkpt lat="47.02871" lon="5.31431">
        <ele>186</ele>
        <time>2012-06-19T14:29:50Z</time>
      </trkpt>
      <trkpt lat="47.02884" lon="5.3144">
        <ele>186</ele>
        <time>2012-06-19T14:29:52Z</time>
      </trkpt>
      <trkpt lat="47.02898" lon="5.3145">
        <ele>186</ele>
        <time>2012-06-19T14:29:54Z</time>
      </trkpt>
      <trkpt lat="47.02912" lon="5.3146">
        <ele>186</ele>
        <time>2012-06-19T14:29:56Z</time>
      </trkpt>
      <trkpt lat="47.02925" lon="5.3147">
        <ele>186</ele>
        <time>2012-06-19T14:29:58Z</time>
      </trkpt>
      <trkpt lat="47.02938" lon="5.31483">
        <ele>186</ele>
        <time>2012-06-19T14:30:00Z</time>
      </trkpt>
      <trkpt lat="47.02949" lon="5.31497">
        <ele>186</ele>
        <time>2012-06-19T14:30:02Z</time>
      </trkpt>
      <trkpt lat="47.0296" lon="5.31512">
        <ele>186</ele>
        <time>2012-06-19T14:30:04Z</time>
      </trkpt>
      <trkpt lat="47.02972" lon="5.31528">
        <ele>186</ele>
        <time>2012-06-19T14:30:06Z</time>
      </trkpt>
      <trkpt lat="47.02982" lon="5.31543">
        <ele>186</ele>
        <time>2012-06-19T14:30:08Z</time>
      </trkpt>
      <trkpt lat="47.02992" lon="5.31559">
        <ele>186</ele>
        <time>2012-06-19T14:30:10Z</time>
      </trkpt>
      <trkpt lat="47.03003" lon="5.31575">
        <ele>186</ele>
        <time>2012-06-19T14:30:12Z</time>
      </trkpt>
      <trkpt lat="47.03013" lon="5.31592">
        <ele>186</ele>
        <time>2012-06-19T14:30:14Z</time>
      </trkpt>
      <trkpt lat="47.03022" lon="5.31609">
        <ele>186</ele>
        <time>2012-06-19T14:30:16Z</time>
      </trkpt>
      <trkpt lat="47.03033" lon="5.31626">
        <ele>186</ele>
        <time>2012-06-19T14:30:18Z</time>
      </trkpt>
      <trkpt lat="47.03043" lon="5.31644">
        <ele>186</ele>
        <time>2012-06-19T14:30:20Z</time>
      </trkpt>
      <trkpt lat="47.03053" lon="5.31661">
        <ele>186</ele>
        <time>2012-06-19T14:30:22Z</time>
      </trkpt>
      <trkpt lat="47.03063" lon="5.31679">
        <ele>186</ele>
        <time>2012-06-19T14:30:24Z</time>
      </trkpt>
      <trkpt lat="47.03073" lon="5.31696">
        <ele>186</ele>
        <time>2012-06-19T14:30:26Z</time>
      </trkpt>
      <trkpt lat="47.03083" lon="5.31713">
        <ele>186</ele>
        <time>2012-06-19T14:30:28Z</time>
      </trkpt>
      <trkpt lat="47.03093" lon="5.3173">
        <ele>186</ele>
        <time>2012-06-19T14:30:30Z</time>
      </trkpt>
      <trkpt lat="47.03102" lon="5.31747">
        <ele>186</ele>
        <time>2012-06-19T14:30:32Z</time>
      </trkpt>
      <trkpt lat="47.03112" lon="5.31763">
        <ele>186</ele>
        <time>2012-06-19T14:30:34Z</time>
      </trkpt>
      <trkpt lat="47.03122" lon="5.31779">
        <ele>186</ele>
        <time>2012-06-19T14:30:36Z</time>
      </trkpt>
      <trkpt lat="47.03132" lon="5.31795">
        <ele>186</ele>
        <time>2012-06-19T14:30:38Z</time>
      </trkpt>
      <trkpt lat="47.03143" lon="5.31808">
        <ele>186</ele>
        <time>2012-06-19T14:30:40Z</time>
      </trkpt>
      <trkpt lat="47.03156" lon="5.31822">
        <ele>186</ele>
        <time>2012-06-19T14:30:42Z</time>
      </trkpt>
      <trkpt lat="47.03168" lon="5.31837">
        <ele>186</ele>
        <time>2012-06-19T14:30:44Z</time>
      </trkpt>
      <trkpt lat="47.0318" lon="5.3185">
        <ele>186</ele>
        <time>2012-06-19T14:30:46Z</time>
      </trkpt>
      <trkpt lat="47.03192" lon="5.31865">
        <ele>186</ele>
        <time>2012-06-19T14:30:48Z</time>
      </trkpt>
      <trkpt lat="47.03204" lon="5.31878">
        <ele>186</ele>
        <time>2012-06-19T14:30:50Z</time>
      </trkpt>
      <trkpt lat="47.03215" lon="5.31893">
        <ele>186</ele>
        <time>2012-06-19T14:30:52Z</time>
      </trkpt>
      <trkpt lat="47.03228" lon="5.31906">
        <ele>186</ele>
        <time>2012-06-19T14:30:54Z</time>
      </trkpt>
      <trkpt lat="47.03239" lon="5.31919">
        <ele>186</ele>
        <time>2012-06-19T14:30:56Z</time>
      </trkpt>
      <trkpt lat="47.03249" lon="5.3193">
        <ele>186</ele>
        <time>2012-06-19T14:30:58Z</time>
      </trkpt>
      <trkpt lat="47.03258" lon="5.31942">
        <ele>186</ele>
        <time>2012-06-19T14:31:00Z</time>
      </trkpt>
      <trkpt lat="47.03268" lon="5.31955">
        <ele>186</ele>
        <time>2012-06-19T14:31:02Z</time>
      </trkpt>
      <trkpt lat="47.0328" lon="5.31967">
        <ele>186</ele>
        <time>2012-06-19T14:31:04Z</time>
      </trkpt>
      <trkpt lat="47.03292" lon="5.31981">
        <ele>186</ele>
        <time>2012-06-19T14:31:06Z</time>
      </trkpt>
      <trkpt lat="47.03304" lon="5.31993">
        <ele>186</ele>
        <time>2012-06-19T14:31:08Z</time>
      </trkpt>
      <trkpt lat="47.03316" lon="5.32006">
        <ele>186</ele>
        <time>2012-06-19T14:31:10Z</time>
      </trkpt>
      <trkpt lat="47.03328" lon="5.32019">
        <ele>186</ele>
        <time>2012-06-19T14:31:12Z</time>
      </trkpt>
      <trkpt lat="47.0334" lon="5.32034">
        <ele>186</ele>
        <time>2012-06-19T14:31:14Z</time>
      </trkpt>
      <trkpt lat="47.03351" lon="5.32052">
        <ele>186</ele>
        <time>2012-06-19T14:31:16Z</time>
      </trkpt>
      <trkpt lat="47.0336" lon="5.3207">
        <ele>186</ele>
        <time>2012-06-19T14:31:18Z</time>
      </trkpt>
      <trkpt lat="47.03368" lon="5.3209">
        <ele>186</ele>
        <time>2012-06-19T14:31:20Z</time>
      </trkpt>
      <trkpt lat="47.03376" lon="5.32111">
        <ele>186</ele>
        <time>2012-06-19T14:31:22Z</time>
      </trkpt>
      <trkpt lat="47.03384" lon="5.32131">
        <ele>186</ele>
        <time>2012-06-19T14:31:24Z</time>
      </trkpt>
      <trkpt lat="47.03392" lon="5.3215">
        <ele>186</ele>
        <time>2012-06-19T14:31:26Z</time>
      </trkpt>
      <trkpt lat="47.03401" lon="5.3217">
        <ele>186</ele>
        <time>2012-06-19T14:31:28Z</time>
      </trkpt>
      <trkpt lat="47.03409" lon="5.32189">
        <ele>186</ele>
        <time>2012-06-19T14:31:30Z</time>
      </trkpt>
      <trkpt lat="47.03419" lon="5.32207">
        <ele>186</ele>
        <time>2012-06-19T14:31:32Z</time>
      </trkpt>
      <trkpt lat="47.03429" lon="5.32223">
        <ele>186</ele>
        <time>2012-06-19T14:31:34Z</time>
      </trkpt>
      <trkpt lat="47.0344" lon="5.3224">
        <ele>186</ele>
        <time>2012-06-19T14:31:36Z</time>
      </trkpt>
      <trkpt lat="47.03449" lon="5.32256">
        <ele>186</ele>
        <time>2012-06-19T14:31:38Z</time>
      </trkpt>
      <trkpt lat="47.03459" lon="5.32272">
        <ele>186</ele>
        <time>2012-06-19T14:31:40Z</time>
      </trkpt>
      <trkpt lat="47.03468" lon="5.32288">
        <ele>186</ele>
        <time>2012-06-19T14:31:42Z</time>
      </trkpt>
      <trkpt lat="47.03478" lon="5.32302">
        <ele>186</ele>
        <time>2012-06-19T14:31:44Z</time>
      </trkpt>
      <trkpt lat="47.03487" lon="5.32317">
        <ele>186</ele>
        <time>2012-06-19T14:31:46Z</time>
      </trkpt>
      <trkpt lat="47.03495" lon="5.32331">
        <ele>186</ele>
        <time>2012-06-19T14:31:48Z</time>
      </trkpt>
      <trkpt lat="47.03503" lon="5.32344">
        <ele>186</ele>
        <time>2012-06-19T14:31:50Z</time>
      </trkpt>
      <trkpt lat="47.03511" lon="5.32358">
        <ele>186</ele>
        <time>2012-06-19T14:31:52Z</time>
      </trkpt>
      <trkpt lat="47.03518" lon="5.32372">
        <ele>186</ele>
        <time>2012-06-19T14:31:54Z</time>
      </trkpt>
      <trkpt lat="47.03524" lon="5.32386">
        <ele>186</ele>
        <time>2012-06-19T14:31:56Z</time>
      </trkpt>
      <trkpt lat="47.0353" lon="5.324">
        <ele>186</ele>
        <time>2012-06-19T14:31:58Z</time>
      </trkpt>
      <trkpt lat="47.03535" lon="5.32414">
        <ele>186</ele>
        <time>2012-06-19T14:32:00Z</time>
      </trkpt>
      <trkpt lat="47.03541" lon="5.32427">
        <ele>186</ele>
        <time>2012-06-19T14:32:02Z</time>
      </trkpt>
      <trkpt lat="47.03546" lon="5.3244">
        <ele>186</ele>
        <time>2012-06-19T14:32:04Z</time>
      </trkpt>
      <trkpt lat="47.03553" lon="5.32456">
        <ele>186</ele>
        <time>2012-06-19T14:32:07Z</time>
      </trkpt>
      <trkpt lat="47.03557" lon="5.32468">
        <ele>186</ele>
        <time>2012-06-19T14:32:10Z</time>
      </trkpt>
      <trkpt lat="47.03558" lon="5.32483">
        <ele>186</ele>
        <time>2012-06-19T14:32:13Z</time>
      </trkpt>
      <trkpt lat="47.03562" lon="5.32499">
        <ele>186</ele>
        <time>2012-06-19T14:32:16Z</time>
      </trkpt>
      <trkpt lat="47.03569" lon="5.32507">
        <ele>186</ele>
        <time>2012-06-19T14:32:18Z</time>
      </trkpt>
      <trkpt lat="47.03578" lon="5.32511">
        <ele>186</ele>
        <time>2012-06-19T14:32:20Z</time>
      </trkpt>
      <trkpt lat="47.03586" lon="5.32514">
        <ele>186</ele>
        <time>2012-06-19T14:32:22Z</time>
      </trkpt>
      <trkpt lat="47.03594" lon="5.32523">
        <ele>186</ele>
        <time>2012-06-19T14:32:24Z</time>
      </trkpt>
      <trkpt lat="47.036" lon="5.32537">
        <ele>186</ele>
        <time>2012-06-19T14:32:26Z</time>
      </trkpt>
      <trkpt lat="47.03605" lon="5.32552">
        <ele>186</ele>
        <time>2012-06-19T14:32:28Z</time>
      </trkpt>
      <trkpt lat="47.03607" lon="5.32568">
        <ele>186</ele>
        <time>2012-06-19T14:32:30Z</time>
      </trkpt>
      <trkpt lat="47.03606" lon="5.32585">
        <ele>186</ele>
        <time>2012-06-19T14:32:32Z</time>
      </trkpt>
      <trkpt lat="47.03605" lon="5.32602">
        <ele>186</ele>
        <time>2012-06-19T14:32:34Z</time>
      </trkpt>
      <trkpt lat="47.03605" lon="5.3262">
        <ele>186</ele>
        <time>2012-06-19T14:32:36Z</time>
      </trkpt>
      <trkpt lat="47.0361" lon="5.32638">
        <ele>186</ele>
        <time>2012-06-19T14:32:38Z</time>
      </trkpt>
      <trkpt lat="47.03617" lon="5.32654">
        <ele>186</ele>
        <time>2012-06-19T14:32:40Z</time>
      </trkpt>
      <trkpt lat="47.03626" lon="5.32669">
        <ele>186</ele>
        <time>2012-06-19T14:32:42Z</time>
      </trkpt>
      <trkpt lat="47.03634" lon="5.32684">
        <ele>186</ele>
        <time>2012-06-19T14:32:44Z</time>
      </trkpt>
      <trkpt lat="47.03642" lon="5.32699">
        <ele>186</ele>
        <time>2012-06-19T14:32:46Z</time>
      </trkpt>
      <trkpt lat="47.03648" lon="5.32714">
        <ele>186</ele>
        <time>2012-06-19T14:32:48Z</time>
      </trkpt>
      <trkpt lat="47.03656" lon="5.32729">
        <ele>186</ele>
        <time>2012-06-19T14:32:50Z</time>
      </trkpt>
      <trkpt lat="47.03663" lon="5.32743">
        <ele>186</ele>
        <time>2012-06-19T14:32:52Z</time>
      </trkpt>
      <trkpt lat="47.03672" lon="5.32758">
        <ele>186</ele>
        <time>2012-06-19T14:32:54Z</time>
      </trkpt>
      <trkpt lat="47.0368" lon="5.32773">
        <ele>186</ele>
        <time>2012-06-19T14:32:56Z</time>
      </trkpt>
      <trkpt lat="47.03689" lon="5.32787">
        <ele>186</ele>
        <time>2012-06-19T14:32:58Z</time>
      </trkpt>
      <trkpt lat="47.03699" lon="5.32802">
        <ele>186</ele>
        <time>2012-06-19T14:33:00Z</time>
      </trkpt>
      <trkpt lat="47.03709" lon="5.32816">
        <ele>186</ele>
        <time>2012-06-19T14:33:02Z</time>
      </trkpt>
      <trkpt lat="47.0372" lon="5.32829">
        <ele>186</ele>
        <time>2012-06-19T14:33:04Z</time>
      </trkpt>
      <trkpt lat="47.03732" lon="5.32841">
        <ele>186</ele>
        <time>2012-06-19T14:33:06Z</time>
      </trkpt>
      <trkpt lat="47.03745" lon="5.32853">
        <ele>186</ele>
        <time>2012-06-19T14:33:08Z</time>
      </trkpt>
      <trkpt lat="47.03758" lon="5.32864">
        <ele>186</ele>
        <time>2012-06-19T14:33:10Z</time>
      </trkpt>
      <trkpt lat="47.03771" lon="5.32875">
        <ele>186</ele>
        <time>2012-06-19T14:33:12Z</time>
      </trkpt>
      <trkpt lat="47.03783" lon="5.32887">
        <ele>186</ele>
        <time>2012-06-19T14:33:14Z</time>
      </trkpt>
      <trkpt lat="47.03795" lon="5.32899">
        <ele>186</ele>
        <time>2012-06-19T14:33:16Z</time>
      </trkpt>
      <trkpt lat="47.03807" lon="5.3291">
        <ele>186</ele>
        <time>2012-06-19T14:33:18Z</time>
      </trkpt>
      <trkpt lat="47.03819" lon="5.32921">
        <ele>186</ele>
        <time>2012-06-19T14:33:20Z</time>
      </trkpt>
      <trkpt lat="47.03831" lon="5.32934">
        <ele>186</ele>
        <time>2012-06-19T14:33:22Z</time>
      </trkpt>
      <trkpt lat="47.03841" lon="5.3295">
        <ele>186</ele>
        <time>2012-06-19T14:33:24Z</time>
      </trkpt>
      <trkpt lat="47.03851" lon="5.32966">
        <ele>186</ele>
        <time>2012-06-19T14:33:26Z</time>
      </trkpt>
      <trkpt lat="47.0386" lon="5.32983">
        <ele>186</ele>
        <time>2012-06-19T14:33:28Z</time>
      </trkpt>
      <trkpt lat="47.03869" lon="5.32999">
        <ele>186</ele>
        <time>2012-06-19T14:33:30Z</time>
      </trkpt>
      <trkpt lat="47.03879" lon="5.33015">
        <ele>186</ele>
        <time>2012-06-19T14:33:32Z</time>
      </trkpt>
      <trkpt lat="47.03888" lon="5.33032">
        <ele>186</ele>
        <time>2012-06-19T14:33:34Z</time>
      </trkpt>
      <trkpt lat="47.03898" lon="5.33048">
        <ele>186</ele>
        <time>2012-06-19T14:33:36Z</time>
      </trkpt>
      <trkpt lat="47.03908" lon="5.33064">
        <ele>186</ele>
        <time>2012-06-19T14:33:38Z</time>
      </trkpt>
      <trkpt lat="47.03917" lon="5.33081">
        <ele>186</ele>
        <time>2012-06-19T14:33:40Z</time>
      </trkpt>
      <trkpt lat="47.03928" lon="5.33097">
        <ele>186</ele>
        <time>2012-06-19T14:33:42Z</time>
      </trkpt>
      <trkpt lat="47.03938" lon="5.33114">
        <ele>186</ele>
        <time>2012-06-19T14:33:44Z</time>
      </trkpt>
      <trkpt lat="47.03947" lon="5.33131">
        <ele>186</ele>
        <time>2012-06-19T14:33:46Z</time>
      </trkpt>
      <trkpt lat="47.03958" lon="5.33148">
        <ele>186</ele>
        <time>2012-06-19T14:33:48Z</time>
      </trkpt>
      <trkpt lat="47.03969" lon="5.33165">
        <ele>186</ele>
        <time>2012-06-19T14:33:50Z</time>
      </trkpt>
      <trkpt lat="47.03979" lon="5.33183">
        <ele>186</ele>
        <time>2012-06-19T14:33:52Z</time>
      </trkpt>
      <trkpt lat="47.0399" lon="5.332">
        <ele>186</ele>
        <time>2012-06-19T14:33:54Z</time>
      </trkpt>
      <trkpt lat="47.04001" lon="5.33218">
        <ele>186</ele>
        <time>2012-06-19T14:33:56Z</time>
      </trkpt>
      <trkpt lat="47.04012" lon="5.33235">
        <ele>186</ele>
        <time>2012-06-19T14:33:58Z</time>
      </trkpt>
      <trkpt lat="47.04022" lon="5.33251">
        <ele>186</ele>
        <time>2012-06-19T14:34:00Z</time>
      </trkpt>
      <trkpt lat="47.04032" lon="5.33267">
        <ele>186</ele>
        <time>2012-06-19T14:34:02Z</time>
      </trkpt>
      <trkpt lat="47.04043" lon="5.33284">
        <ele>186</ele>
        <time>2012-06-19T14:34:04Z</time>
      </trkpt>
      <trkpt lat="47.04053" lon="5.333">
        <ele>186</ele>
        <time>2012-06-19T14:34:06Z</time>
      </trkpt>
      <trkpt lat="47.04063" lon="5.33316">
        <ele>186</ele>
        <time>2012-06-19T14:34:08Z</time>
      </trkpt>
      <trkpt lat="47.04074" lon="5.33333">
        <ele>186</ele>
        <time>2012-06-19T14:34:10Z</time>
      </trkpt>
      <trkpt lat="47.04084" lon="5.3335">
        <ele>186</ele>
        <time>2012-06-19T14:34:12Z</time>
      </trkpt>
      <trkpt lat="47.04094" lon="5.33367">
        <ele>186</ele>
        <time>2012-06-19T14:34:14Z</time>
      </trkpt>
      <trkpt lat="47.04103" lon="5.33383">
        <ele>186</ele>
        <time>2012-06-19T14:34:16Z</time>
      </trkpt>
      <trkpt lat="47.04113" lon="5.33398">
        <ele>186</ele>
        <time>2012-06-19T14:34:18Z</time>
      </trkpt>
      <trkpt lat="47.04124" lon="5.33414">
        <ele>186</ele>
        <time>2012-06-19T14:34:20Z</time>
      </trkpt>
      <trkpt lat="47.04134" lon="5.3343">
        <ele>186</ele>
        <time>2012-06-19T14:34:22Z</time>
      </trkpt>
      <trkpt lat="47.04144" lon="5.33446">
        <ele>186</ele>
        <time>2012-06-19T14:34:24Z</time>
      </trkpt>
      <trkpt lat="47.04155" lon="5.33463">
        <ele>186</ele>
        <time>2012-06-19T14:34:26Z</time>
      </trkpt>
      <trkpt lat="47.04165" lon="5.33479">
        <ele>186</ele>
        <time>2012-06-19T14:34:28Z</time>
      </trkpt>
      <trkpt lat="47.04176" lon="5.33496">
        <ele>186</ele>
        <time>2012-06-19T14:34:30Z</time>
      </trkpt>
      <trkpt lat="47.04187" lon="5.33512">
        <ele>186</ele>
        <time>2012-06-19T14:34:32Z</time>
      </trkpt>
      <trkpt lat="47.04198" lon="5.33529">
        <ele>186</ele>
        <time>2012-06-19T14:34:34Z</time>
      </trkpt>
      <trkpt lat="47.04209" lon="5.33546">
        <ele>186</ele>
        <time>2012-06-19T14:34:36Z</time>
      </trkpt>
      <trkpt lat="47.04219" lon="5.33562">
        <ele>186</ele>
        <time>2012-06-19T14:34:38Z</time>
      </trkpt>
      <trkpt lat="47.04229" lon="5.33579">
        <ele>186</ele>
        <time>2012-06-19T14:34:40Z</time>
      </trkpt>
      <trkpt lat="47.04239" lon="5.33596">
        <ele>186</ele>
        <time>2012-06-19T14:34:42Z</time>
      </trkpt>
      <trkpt lat="47.04247" lon="5.33612">
        <ele>186</ele>
        <time>2012-06-19T14:34:44Z</time>
      </trkpt>
      <trkpt lat="47.04257" lon="5.33628">
        <ele>186</ele>
        <time>2012-06-19T14:34:46Z</time>
      </trkpt>
      <trkpt lat="47.04267" lon="5.33644">
        <ele>186</ele>
        <time>2012-06-19T14:34:48Z</time>
      </trkpt>
      <trkpt lat="47.04278" lon="5.3366">
        <ele>186</ele>
        <time>2012-06-19T14:34:50Z</time>
      </trkpt>
      <trkpt lat="47.04288" lon="5.33677">
        <ele>186</ele>
        <time>2012-06-19T14:34:52Z</time>
      </trkpt>
      <trkpt lat="47.04298" lon="5.33694">
        <ele>186</ele>
        <time>2012-06-19T14:34:54Z</time>
      </trkpt>
      <trkpt lat="47.04309" lon="5.3371">
        <ele>186</ele>
        <time>2012-06-19T14:34:56Z</time>
      </trkpt>
      <trkpt lat="47.04318" lon="5.33726">
        <ele>186</ele>
        <time>2012-06-19T14:34:58Z</time>
      </trkpt>
      <trkpt lat="47.04328" lon="5.33742">
        <ele>186</ele>
        <time>2012-06-19T14:35:00Z</time>
      </trkpt>
      <trkpt lat="47.04337" lon="5.33757">
        <ele>186</ele>
        <time>2012-06-19T14:35:02Z</time>
      </trkpt>
      <trkpt lat="47.04347" lon="5.33774">
        <ele>186</ele>
        <time>2012-06-19T14:35:04Z</time>
      </trkpt>
      <trkpt lat="47.04356" lon="5.3379">
        <ele>186</ele>
        <time>2012-06-19T14:35:06Z</time>
      </trkpt>
      <trkpt lat="47.04366" lon="5.33805">
        <ele>186</ele>
        <time>2012-06-19T14:35:08Z</time>
      </trkpt>
      <trkpt lat="47.04375" lon="5.33821">
        <ele>186</ele>
        <time>2012-06-19T14:35:10Z</time>
      </trkpt>
      <trkpt lat="47.04385" lon="5.33836">
        <ele>186</ele>
        <time>2012-06-19T14:35:12Z</time>
      </trkpt>
      <trkpt lat="47.04395" lon="5.33853">
        <ele>186</ele>
        <time>2012-06-19T14:35:14Z</time>
      </trkpt>
      <trkpt lat="47.04405" lon="5.33868">
        <ele>186</ele>
        <time>2012-06-19T14:35:16Z</time>
      </trkpt>
      <trkpt lat="47.04416" lon="5.33882">
        <ele>186</ele>
        <time>2012-06-19T14:35:18Z</time>
      </trkpt>
      <trkpt lat="47.04428" lon="5.33897">
        <ele>186</ele>
        <time>2012-06-19T14:35:20Z</time>
      </trkpt>
      <trkpt lat="47.04442" lon="5.33909">
        <ele>186</ele>
        <time>2012-06-19T14:35:22Z</time>
      </trkpt>
      <trkpt lat="47.04455" lon="5.33919">
        <ele>186</ele>
        <time>2012-06-19T14:35:24Z</time>
      </trkpt>
      <trkpt lat="47.04469" lon="5.33926">
        <ele>186</ele>
        <time>2012-06-19T14:35:26Z</time>
      </trkpt>
      <trkpt lat="47.04484" lon="5.33933">
        <ele>186</ele>
        <time>2012-06-19T14:35:28Z</time>
      </trkpt>
      <trkpt lat="47.04498" lon="5.33938">
        <ele>186</ele>
        <time>2012-06-19T14:35:30Z</time>
      </trkpt>
      <trkpt lat="47.04512" lon="5.33942">
        <ele>186</ele>
        <time>2012-06-19T14:35:32Z</time>
      </trkpt>
      <trkpt lat="47.04527" lon="5.33944">
        <ele>186</ele>
        <time>2012-06-19T14:35:34Z</time>
      </trkpt>
      <trkpt lat="47.04542" lon="5.33948">
        <ele>186</ele>
        <time>2012-06-19T14:35:36Z</time>
      </trkpt>
      <trkpt lat="47.04557" lon="5.33951">
        <ele>186</ele>
        <time>2012-06-19T14:35:38Z</time>
      </trkpt>
      <trkpt lat="47.04571" lon="5.33954">
        <ele>186</ele>
        <time>2012-06-19T14:35:40Z</time>
      </trkpt>
      <trkpt lat="47.04586" lon="5.33957">
        <ele>186</ele>
        <time>2012-06-19T14:35:42Z</time>
      </trkpt>
      <trkpt lat="47.04601" lon="5.3396">
        <ele>186</ele>
        <time>2012-06-19T14:35:44Z</time>
      </trkpt>
      <trkpt lat="47.04615" lon="5.33963">
        <ele>186</ele>
        <time>2012-06-19T14:35:46Z</time>
      </trkpt>
      <trkpt lat="47.0463" lon="5.33966">
        <ele>186</ele>
        <time>2012-06-19T14:35:48Z</time>
      </trkpt>
      <trkpt lat="47.04645" lon="5.33969">
        <ele>186</ele>
        <time>2012-06-19T14:35:50Z</time>
      </trkpt>
      <trkpt lat="47.0466" lon="5.33972">
        <ele>186</ele>
        <time>2012-06-19T14:35:52Z</time>
      </trkpt>
      <trkpt lat="47.04675" lon="5.33975">
        <ele>186</ele>
        <time>2012-06-19T14:35:54Z</time>
      </trkpt>
      <trkpt lat="47.0469" lon="5.33978">
        <ele>186</ele>
        <time>2012-06-19T14:35:56Z</time>
      </trkpt>
      <trkpt lat="47.04704" lon="5.33981">
        <ele>186</ele>
        <time>2012-06-19T14:35:58Z</time>
      </trkpt>
      <trkpt lat="47.04718" lon="5.33984">
        <ele>186</ele>
        <time>2012-06-19T14:36:00Z</time>
      </trkpt>
      <trkpt lat="47.04732" lon="5.33987">
        <ele>186</ele>
        <time>2012-06-19T14:36:02Z</time>
      </trkpt>
      <trkpt lat="47.04746" lon="5.33989">
        <ele>186</ele>
        <time>2012-06-19T14:36:04Z</time>
      </trkpt>
      <trkpt lat="47.04762" lon="5.33993">
        <ele>186</ele>
        <time>2012-06-19T14:36:06Z</time>
      </trkpt>
      <trkpt lat="47.04776" lon="5.33995">
        <ele>186</ele>
        <time>2012-06-19T14:36:08Z</time>
      </trkpt>
      <trkpt lat="47.04791" lon="5.33998">
        <ele>186</ele>
        <time>2012-06-19T14:36:10Z</time>
      </trkpt>
      <trkpt lat="47.04807" lon="5.34002">
        <ele>186</ele>
        <time>2012-06-19T14:36:12Z</time>
      </trkpt>
      <trkpt lat="47.04822" lon="5.34004">
        <ele>186</ele>
        <time>2012-06-19T14:36:14Z</time>
      </trkpt>
      <trkpt lat="47.04836" lon="5.34007">
        <ele>186</ele>
        <time>2012-06-19T14:36:16Z</time>
      </trkpt>
      <trkpt lat="47.04851" lon="5.34011">
        <ele>186</ele>
        <time>2012-06-19T14:36:18Z</time>
      </trkpt>
      <trkpt lat="47.04865" lon="5.34014">
        <ele>186</ele>
        <time>2012-06-19T14:36:20Z</time>
      </trkpt>
      <trkpt lat="47.0488" lon="5.34017">
        <ele>186</ele>
        <time>2012-06-19T14:36:22Z</time>
      </trkpt>
      <trkpt lat="47.04896" lon="5.34021">
        <ele>186</ele>
        <time>2012-06-19T14:36:24Z</time>
      </trkpt>
      <trkpt lat="47.0491" lon="5.34023">
        <ele>186</ele>
        <time>2012-06-19T14:36:26Z</time>
      </trkpt>
      <trkpt lat="47.04925" lon="5.34027">
        <ele>186</ele>
        <time>2012-06-19T14:36:28Z</time>
      </trkpt>
      <trkpt lat="47.0494" lon="5.3403">
        <ele>186</ele>
        <time>2012-06-19T14:36:30Z</time>
      </trkpt>
      <trkpt lat="47.04954" lon="5.34032">
        <ele>186</ele>
        <time>2012-06-19T14:36:32Z</time>
      </trkpt>
      <trkpt lat="47.04969" lon="5.34036">
        <ele>186</ele>
        <time>2012-06-19T14:36:34Z</time>
      </trkpt>
      <trkpt lat="47.04983" lon="5.34039">
        <ele>186</ele>
        <time>2012-06-19T14:36:36Z</time>
      </trkpt>
      <trkpt lat="47.04997" lon="5.34042">
        <ele>186</ele>
        <time>2012-06-19T14:36:38Z</time>
      </trkpt>
      <trkpt lat="47.05012" lon="5.34045">
        <ele>186</ele>
        <time>2012-06-19T14:36:40Z</time>
      </trkpt>
      <trkpt lat="47.05026" lon="5.34048">
        <ele>186</ele>
        <time>2012-06-19T14:36:42Z</time>
      </trkpt>
      <trkpt lat="47.05041" lon="5.34052">
        <ele>186</ele>
        <time>2012-06-19T14:36:44Z</time>
      </trkpt>
      <trkpt lat="47.05055" lon="5.34055">
        <ele>186</ele>
        <time>2012-06-19T14:36:46Z</time>
      </trkpt>
      <trkpt lat="47.0507" lon="5.34058">
        <ele>186</ele>
        <time>2012-06-19T14:36:48Z</time>
      </trkpt>
      <trkpt lat="47.05085" lon="5.34063">
        <ele>186</ele>
        <time>2012-06-19T14:36:50Z</time>
      </trkpt>
      <trkpt lat="47.05099" lon="5.34066">
        <ele>186</ele>
        <time>2012-06-19T14:36:52Z</time>
      </trkpt>
      <trkpt lat="47.05114" lon="5.3407">
        <ele>186</ele>
        <time>2012-06-19T14:36:54Z</time>
      </trkpt>
      <trkpt lat="47.05129" lon="5.34075">
        <ele>186</ele>
        <time>2012-06-19T14:36:56Z</time>
      </trkpt>
      <trkpt lat="47.05144" lon="5.34079">
        <ele>186</ele>
        <time>2012-06-19T14:36:58Z</time>
      </trkpt>
      <trkpt lat="47.05158" lon="5.34084">
        <ele>186</ele>
        <time>2012-06-19T14:37:00Z</time>
      </trkpt>
      <trkpt lat="47.05172" lon="5.34087">
        <ele>186</ele>
        <time>2012-06-19T14:37:02Z</time>
      </trkpt>
      <trkpt lat="47.05187" lon="5.34092">
        <ele>186</ele>
        <time>2012-06-19T14:37:04Z</time>
      </trkpt>
      <trkpt lat="47.05201" lon="5.34095">
        <ele>186</ele>
        <time>2012-06-19T14:37:06Z</time>
      </trkpt>
      <trkpt lat="47.05216" lon="5.341">
        <ele>186</ele>
        <time>2012-06-19T14:37:08Z</time>
      </trkpt>
      <trkpt lat="47.05231" lon="5.34104">
        <ele>186</ele>
        <time>2012-06-19T14:37:10Z</time>
      </trkpt>
      <trkpt lat="47.05247" lon="5.34109">
        <ele>186</ele>
        <time>2012-06-19T14:37:12Z</time>
      </trkpt>
      <trkpt lat="47.05263" lon="5.34113">
        <ele>186</ele>
        <time>2012-06-19T14:37:14Z</time>
      </trkpt>
      <trkpt lat="47.0528" lon="5.34118">
        <ele>186</ele>
        <time>2012-06-19T14:37:16Z</time>
      </trkpt>
      <trkpt lat="47.05296" lon="5.34122">
        <ele>186</ele>
        <time>2012-06-19T14:37:18Z</time>
      </trkpt>
      <trkpt lat="47.05314" lon="5.34127">
        <ele>186</ele>
        <time>2012-06-19T14:37:20Z</time>
      </trkpt>
      <trkpt lat="47.0533" lon="5.34131">
        <ele>186</ele>
        <time>2012-06-19T14:37:22Z</time>
      </trkpt>
      <trkpt lat="47.05347" lon="5.34136">
        <ele>186</ele>
        <time>2012-06-19T14:37:24Z</time>
      </trkpt>
      <trkpt lat="47.05363" lon="5.3414">
        <ele>186</ele>
        <time>2012-06-19T14:37:26Z</time>
      </trkpt>
      <trkpt lat="47.0538" lon="5.34145">
        <ele>186</ele>
        <time>2012-06-19T14:37:28Z</time>
      </trkpt>
      <trkpt lat="47.05396" lon="5.34149">
        <ele>186</ele>
        <time>2012-06-19T14:37:30Z</time>
      </trkpt>
      <trkpt lat="47.05411" lon="5.34154">
        <ele>186</ele>
        <time>2012-06-19T14:37:32Z</time>
      </trkpt>
      <trkpt lat="47.05426" lon="5.34157">
        <ele>186</ele>
        <time>2012-06-19T14:37:34Z</time>
      </trkpt>
      <trkpt lat="47.05441" lon="5.34161">
        <ele>186</ele>
        <time>2012-06-19T14:37:36Z</time>
      </trkpt>
      <trkpt lat="47.05455" lon="5.34166">
        <ele>186</ele>
        <time>2012-06-19T14:37:38Z</time>
      </trkpt>
      <trkpt lat="47.0547" lon="5.34171">
        <ele>186</ele>
        <time>2012-06-19T14:37:40Z</time>
      </trkpt>
      <trkpt lat="47.05486" lon="5.34175">
        <ele>186</ele>
        <time>2012-06-19T14:37:42Z</time>
      </trkpt>
      <trkpt lat="47.05502" lon="5.34179">
        <ele>186</ele>
        <time>2012-06-19T14:37:44Z</time>
      </trkpt>
      <trkpt lat="47.05517" lon="5.34183">
        <ele>186</ele>
        <time>2012-06-19T14:37:46Z</time>
      </trkpt>
      <trkpt lat="47.05533" lon="5.34189">
        <ele>186</ele>
        <time>2012-06-19T14:37:48Z</time>
      </trkpt>
      <trkpt lat="47.0555" lon="5.34193">
        <ele>186</ele>
        <time>2012-06-19T14:37:50Z</time>
      </trkpt>
      <trkpt lat="47.05567" lon="5.34199">
        <ele>186</ele>
        <time>2012-06-19T14:37:52Z</time>
      </trkpt>
      <trkpt lat="47.05583" lon="5.34207">
        <ele>186</ele>
        <time>2012-06-19T14:37:54Z</time>
      </trkpt>
      <trkpt lat="47.05597" lon="5.34216">
        <ele>186</ele>
        <time>2012-06-19T14:37:56Z</time>
      </trkpt>
      <trkpt lat="47.05611" lon="5.34226">
        <ele>186</ele>
        <time>2012-06-19T14:37:58Z</time>
      </trkpt>
      <trkpt lat="47.05626" lon="5.34238">
        <ele>186</ele>
        <time>2012-06-19T14:38:00Z</time>
      </trkpt>
      <trkpt lat="47.05639" lon="5.3425">
        <ele>186</ele>
        <time>2012-06-19T14:38:02Z</time>
      </trkpt>
      <trkpt lat="47.05653" lon="5.34261">
        <ele>186</ele>
        <time>2012-06-19T14:38:04Z</time>
      </trkpt>
      <trkpt lat="47.05666" lon="5.34274">
        <ele>186</ele>
        <time>2012-06-19T14:38:06Z</time>
      </trkpt>
      <trkpt lat="47.0568" lon="5.34287">
        <ele>186</ele>
        <time>2012-06-19T14:38:08Z</time>
      </trkpt>
      <trkpt lat="47.05693" lon="5.34301">
        <ele>186</ele>
        <time>2012-06-19T14:38:10Z</time>
      </trkpt>
      <trkpt lat="47.05707" lon="5.34315">
        <ele>186</ele>
        <time>2012-06-19T14:38:12Z</time>
      </trkpt>
      <trkpt lat="47.05721" lon="5.34331">
        <ele>186</ele>
        <time>2012-06-19T14:38:14Z</time>
      </trkpt>
      <trkpt lat="47.05734" lon="5.34346">
        <ele>186</ele>
        <time>2012-06-19T14:38:16Z</time>
      </trkpt>
      <trkpt lat="47.05748" lon="5.34361">
        <ele>186</ele>
        <time>2012-06-19T14:38:18Z</time>
      </trkpt>
      <trkpt lat="47.05763" lon="5.34375">
        <ele>186</ele>
        <time>2012-06-19T14:38:20Z</time>
      </trkpt>
      <trkpt lat="47.05778" lon="5.3439">
        <ele>186</ele>
        <time>2012-06-19T14:38:22Z</time>
      </trkpt>
      <trkpt lat="47.05791" lon="5.34402">
        <ele>186</ele>
        <time>2012-06-19T14:38:24Z</time>
      </trkpt>
      <trkpt lat="47.05804" lon="5.34415">
        <ele>186</ele>
        <time>2012-06-19T14:38:26Z</time>
      </trkpt>
      <trkpt lat="47.05816" lon="5.34426">
        <ele>186</ele>
        <time>2012-06-19T14:38:28Z</time>
      </trkpt>
      <trkpt lat="47.05827" lon="5.34436">
        <ele>186</ele>
        <time>2012-06-19T14:38:30Z</time>
      </trkpt>
      <trkpt lat="47.05838" lon="5.34446">
        <ele>186</ele>
        <time>2012-06-19T14:38:32Z</time>
      </trkpt>
      <trkpt lat="47.05848" lon="5.34457">
        <ele>186</ele>
        <time>2012-06-19T14:38:34Z</time>
      </trkpt>
      <trkpt lat="47.05859" lon="5.3447">
        <ele>186</ele>
        <time>2012-06-19T14:38:36Z</time>
      </trkpt>
      <trkpt lat="47.05872" lon="5.34481">
        <ele>186</ele>
        <time>2012-06-19T14:38:38Z</time>
      </trkpt>
      <trkpt lat="47.05884" lon="5.34491">
        <ele>186</ele>
        <time>2012-06-19T14:38:40Z</time>
      </trkpt>
      <trkpt lat="47.05896" lon="5.34501">
        <ele>186</ele>
        <time>2012-06-19T14:38:42Z</time>
      </trkpt>
      <trkpt lat="47.05909" lon="5.34511">
        <ele>186</ele>
        <time>2012-06-19T14:38:44Z</time>
      </trkpt>
      <trkpt lat="47.05921" lon="5.34521">
        <ele>186</ele>
        <time>2012-06-19T14:38:46Z</time>
      </trkpt>
      <trkpt lat="47.05933" lon="5.34531">
        <ele>186</ele>
        <time>2012-06-19T14:38:48Z</time>
      </trkpt>
      <trkpt lat="47.05945" lon="5.3454">
        <ele>186</ele>
        <time>2012-06-19T14:38:50Z</time>
      </trkpt>
      <trkpt lat="47.05956" lon="5.34549">
        <ele>186</ele>
        <time>2012-06-19T14:38:52Z</time>
      </trkpt>
      <trkpt lat="47.05966" lon="5.34559">
        <ele>186</ele>
        <time>2012-06-19T14:38:54Z</time>
      </trkpt>
      <trkpt lat="47.05977" lon="5.34569">
        <ele>186</ele>
        <time>2012-06-19T14:38:56Z</time>
      </trkpt>
      <trkpt lat="47.05987" lon="5.34578">
        <ele>186</ele>
        <time>2012-06-19T14:38:58Z</time>
      </trkpt>
      <trkpt lat="47.05995" lon="5.34588">
        <ele>186</ele>
        <time>2012-06-19T14:39:00Z</time>
      </trkpt>
      <trkpt lat="47.06" lon="5.34604">
        <ele>186</ele>
        <time>2012-06-19T14:39:02Z</time>
      </trkpt>
      <trkpt lat="47.05998" lon="5.34621">
        <ele>186</ele>
        <time>2012-06-19T14:39:04Z</time>
      </trkpt>
      <trkpt lat="47.05991" lon="5.3464">
        <ele>186</ele>
        <time>2012-06-19T14:39:06Z</time>
      </trkpt>
      <trkpt lat="47.05983" lon="5.34659">
        <ele>186</ele>
        <time>2012-06-19T14:39:08Z</time>
      </trkpt>
      <trkpt lat="47.05977" lon="5.34676">
        <ele>186</ele>
        <time>2012-06-19T14:39:10Z</time>
      </trkpt>
      <trkpt lat="47.0597" lon="5.34693">
        <ele>186</ele>
        <time>2012-06-19T14:39:12Z</time>
      </trkpt>
      <trkpt lat="47.05963" lon="5.34708">
        <ele>186</ele>
        <time>2012-06-19T14:39:14Z</time>
      </trkpt>
      <trkpt lat="47.05955" lon="5.34723">
        <ele>186</ele>
        <time>2012-06-19T14:39:16Z</time>
      </trkpt>
      <trkpt lat="47.05947" lon="5.34738">
        <ele>186</ele>
        <time>2012-06-19T14:39:18Z</time>
      </trkpt>
      <trkpt lat="47.05938" lon="5.34753">
        <ele>186</ele>
        <time>2012-06-19T14:39:20Z</time>
      </trkpt>
      <trkpt lat="47.05929" lon="5.34768">
        <ele>186</ele>
        <time>2012-06-19T14:39:22Z</time>
      </trkpt>
      <trkpt lat="47.05919" lon="5.34783">
        <ele>186</ele>
        <time>2012-06-19T14:39:24Z</time>
      </trkpt>
      <trkpt lat="47.0591" lon="5.34799">
        <ele>186</ele>
        <time>2012-06-19T14:39:26Z</time>
      </trkpt>
      <trkpt lat="47.05902" lon="5.34815">
        <ele>186</ele>
        <time>2012-06-19T14:39:28Z</time>
      </trkpt>
      <trkpt lat="47.05894" lon="5.34831">
        <ele>186</ele>
        <time>2012-06-19T14:39:30Z</time>
      </trkpt>
      <trkpt lat="47.05886" lon="5.34846">
        <ele>186</ele>
        <time>2012-06-19T14:39:32Z</time>
      </trkpt>
      <trkpt lat="47.05879" lon="5.34862">
        <ele>186</ele>
        <time>2012-06-19T14:39:34Z</time>
      </trkpt>
      <trkpt lat="47.05872" lon="5.34879">
        <ele>186</ele>
        <time>2012-06-19T14:39:36Z</time>
      </trkpt>
      <trkpt lat="47.05865" lon="5.34895">
        <ele>186</ele>
        <time>2012-06-19T14:39:38Z</time>
      </trkpt>
      <trkpt lat="47.05859" lon="5.34912">
        <ele>186</ele>
        <time>2012-06-19T14:39:40Z</time>
      </trkpt>
      <trkpt lat="47.05852" lon="5.34929">
        <ele>186</ele>
        <time>2012-06-19T14:39:42Z</time>
      </trkpt>
      <trkpt lat="47.05846" lon="5.34946">
        <ele>186</ele>
        <time>2012-06-19T14:39:44Z</time>
      </trkpt>
      <trkpt lat="47.05839" lon="5.34963">
        <ele>186</ele>
        <time>2012-06-19T14:39:46Z</time>
      </trkpt>
      <trkpt lat="47.05832" lon="5.3498">
        <ele>186</ele>
        <time>2012-06-19T14:39:48Z</time>
      </trkpt>
      <trkpt lat="47.05826" lon="5.34995">
        <ele>186</ele>
        <time>2012-06-19T14:39:50Z</time>
      </trkpt>
      <trkpt lat="47.0582" lon="5.35011">
        <ele>186</ele>
        <time>2012-06-19T14:39:52Z</time>
      </trkpt>
      <trkpt lat="47.05813" lon="5.35027">
        <ele>186</ele>
        <time>2012-06-19T14:39:54Z</time>
      </trkpt>
      <trkpt lat="47.05806" lon="5.35043">
        <ele>186</ele>
        <time>2012-06-19T14:39:56Z</time>
      </trkpt>
      <trkpt lat="47.058" lon="5.35058">
        <ele>186</ele>
        <time>2012-06-19T14:39:58Z</time>
      </trkpt>
      <trkpt lat="47.05793" lon="5.35074">
        <ele>186</ele>
        <time>2012-06-19T14:40:00Z</time>
      </trkpt>
      <trkpt lat="47.05786" lon="5.35091">
        <ele>186</ele>
        <time>2012-06-19T14:40:02Z</time>
      </trkpt>
      <trkpt lat="47.0578" lon="5.35107">
        <ele>186</ele>
        <time>2012-06-19T14:40:04Z</time>
      </trkpt>
      <trkpt lat="47.05772" lon="5.35124">
        <ele>186</ele>
        <time>2012-06-19T14:40:06Z</time>
      </trkpt>
      <trkpt lat="47.05769" lon="5.35142">
        <ele>186</ele>
        <time>2012-06-19T14:40:08Z</time>
      </trkpt>
      <trkpt lat="47.05772" lon="5.3516">
        <ele>186</ele>
        <time>2012-06-19T14:40:10Z</time>
      </trkpt>
      <trkpt lat="47.05781" lon="5.35171">
        <ele>186</ele>
        <time>2012-06-19T14:40:12Z</time>
      </trkpt>
      <trkpt lat="47.05793" lon="5.35181">
        <ele>186</ele>
        <time>2012-06-19T14:40:14Z</time>
      </trkpt>
      <trkpt lat="47.05804" lon="5.3519">
        <ele>186</ele>
        <time>2012-06-19T14:40:16Z</time>
      </trkpt>
      <trkpt lat="47.05816" lon="5.352">
        <ele>186</ele>
        <time>2012-06-19T14:40:18Z</time>
      </trkpt>
      <trkpt lat="47.05829" lon="5.35211">
        <ele>186</ele>
        <time>2012-06-19T14:40:20Z</time>
      </trkpt>
      <trkpt lat="47.05842" lon="5.35223">
        <ele>186</ele>
        <time>2012-06-19T14:40:22Z</time>
      </trkpt>
      <trkpt lat="47.05854" lon="5.35237">
        <ele>186</ele>
        <time>2012-06-19T14:40:24Z</time>
      </trkpt>
      <trkpt lat="47.05866" lon="5.3525">
        <ele>186</ele>
        <time>2012-06-19T14:40:26Z</time>
      </trkpt>
      <trkpt lat="47.05878" lon="5.35265">
        <ele>186</ele>
        <time>2012-06-19T14:40:28Z</time>
      </trkpt>
      <trkpt lat="47.0589" lon="5.35277">
        <ele>186</ele>
        <time>2012-06-19T14:40:30Z</time>
      </trkpt>
      <trkpt lat="47.05903" lon="5.35288">
        <ele>186</ele>
        <time>2012-06-19T14:40:32Z</time>
      </trkpt>
      <trkpt lat="47.05915" lon="5.35298">
        <ele>186</ele>
        <time>2012-06-19T14:40:34Z</time>
      </trkpt>
      <trkpt lat="47.05929" lon="5.35306">
        <ele>186</ele>
        <time>2012-06-19T14:40:36Z</time>
      </trkpt>
      <trkpt lat="47.05942" lon="5.35312">
        <ele>186</ele>
        <time>2012-06-19T14:40:38Z</time>
      </trkpt>
      <trkpt lat="47.05956" lon="5.35317">
        <ele>186</ele>
        <time>2012-06-19T14:40:40Z</time>
      </trkpt>
      <trkpt lat="47.0597" lon="5.35319">
        <ele>186</ele>
        <time>2012-06-19T14:40:42Z</time>
      </trkpt>
      <trkpt lat="47.05983" lon="5.3532">
        <ele>186</ele>
        <time>2012-06-19T14:40:44Z</time>
      </trkpt>
      <trkpt lat="47.05998" lon="5.35317">
        <ele>186</ele>
        <time>2012-06-19T14:40:46Z</time>
      </trkpt>
      <trkpt lat="47.06011" lon="5.35314">
        <ele>186</ele>
        <time>2012-06-19T14:40:48Z</time>
      </trkpt>
      <trkpt lat="47.06025" lon="5.35312">
        <ele>186</ele>
        <time>2012-06-19T14:40:50Z</time>
      </trkpt>
      <trkpt lat="47.06039" lon="5.35312">
        <ele>186</ele>
        <time>2012-06-19T14:40:52Z</time>
      </trkpt>
      <trkpt lat="47.06053" lon="5.35313">
        <ele>186</ele>
        <time>2012-06-19T14:40:54Z</time>
      </trkpt>
      <trkpt lat="47.06066" lon="5.35316">
        <ele>186</ele>
        <time>2012-06-19T14:40:56Z</time>
      </trkpt>
      <trkpt lat="47.0608" lon="5.35321">
        <ele>186</ele>
        <time>2012-06-19T14:40:58Z</time>
      </trkpt>
      <trkpt lat="47.06094" lon="5.35327">
        <ele>186</ele>
        <time>2012-06-19T14:41:00Z</time>
      </trkpt>
      <trkpt lat="47.06107" lon="5.35337">
        <ele>186</ele>
        <time>2012-06-19T14:41:02Z</time>
      </trkpt>
      <trkpt lat="47.06121" lon="5.35349">
        <ele>186</ele>
        <time>2012-06-19T14:41:04Z</time>
      </trkpt>
      <trkpt lat="47.06132" lon="5.35365">
        <ele>186</ele>
        <time>2012-06-19T14:41:06Z</time>
      </trkpt>
      <trkpt lat="47.06142" lon="5.35382">
        <ele>186</ele>
        <time>2012-06-19T14:41:08Z</time>
      </trkpt>
      <trkpt lat="47.06151" lon="5.35399">
        <ele>186</ele>
        <time>2012-06-19T14:41:10Z</time>
      </trkpt>
      <trkpt lat="47.06162" lon="5.35413">
        <ele>186</ele>
        <time>2012-06-19T14:41:12Z</time>
      </trkpt>
      <trkpt lat="47.06173" lon="5.35426">
        <ele>186</ele>
        <time>2012-06-19T14:41:14Z</time>
      </trkpt>
      <trkpt lat="47.06185" lon="5.35436">
        <ele>186</ele>
        <time>2012-06-19T14:41:16Z</time>
      </trkpt>
      <trkpt lat="47.06198" lon="5.35447">
        <ele>186</ele>
        <time>2012-06-19T14:41:18Z</time>
      </trkpt>
      <trkpt lat="47.06212" lon="5.35458">
        <ele>186</ele>
        <time>2012-06-19T14:41:20Z</time>
      </trkpt>
      <trkpt lat="47.06225" lon="5.35469">
        <ele>186</ele>
        <time>2012-06-19T14:41:22Z</time>
      </trkpt>
      <trkpt lat="47.06239" lon="5.35479">
        <ele>186</ele>
        <time>2012-06-19T14:41:24Z</time>
      </trkpt>
      <trkpt lat="47.06252" lon="5.35489">
        <ele>186</ele>
        <time>2012-06-19T14:41:26Z</time>
      </trkpt>
      <trkpt lat="47.06265" lon="5.35501">
        <ele>186</ele>
        <time>2012-06-19T14:41:28Z</time>
      </trkpt>
      <trkpt lat="47.06277" lon="5.35514">
        <ele>186</ele>
        <time>2012-06-19T14:41:30Z</time>
      </trkpt>
      <trkpt lat="47.0629" lon="5.35528">
        <ele>186</ele>
        <time>2012-06-19T14:41:32Z</time>
      </trkpt>
      <trkpt lat="47.06302" lon="5.35541">
        <ele>186</ele>
        <time>2012-06-19T14:41:34Z</time>
      </trkpt>
      <trkpt lat="47.06313" lon="5.35555">
        <ele>186</ele>
        <time>2012-06-19T14:41:36Z</time>
      </trkpt>
      <trkpt lat="47.06325" lon="5.35569">
        <ele>186</ele>
        <time>2012-06-19T14:41:38Z</time>
      </trkpt>
      <trkpt lat="47.06336" lon="5.35583">
        <ele>186</ele>
        <time>2012-06-19T14:41:40Z</time>
      </trkpt>
      <trkpt lat="47.06347" lon="5.35597">
        <ele>186</ele>
        <time>2012-06-19T14:41:42Z</time>
      </trkpt>
      <trkpt lat="47.06359" lon="5.35612">
        <ele>186</ele>
        <time>2012-06-19T14:41:44Z</time>
      </trkpt>
      <trkpt lat="47.06368" lon="5.35629">
        <ele>186</ele>
        <time>2012-06-19T14:41:46Z</time>
      </trkpt>
      <trkpt lat="47.06376" lon="5.35646">
        <ele>186</ele>
        <time>2012-06-19T14:41:48Z</time>
      </trkpt>
      <trkpt lat="47.06384" lon="5.35664">
        <ele>186</ele>
        <time>2012-06-19T14:41:50Z</time>
      </trkpt>
      <trkpt lat="47.06391" lon="5.35683">
        <ele>186</ele>
        <time>2012-06-19T14:41:52Z</time>
      </trkpt>
      <trkpt lat="47.06398" lon="5.35701">
        <ele>186</ele>
        <time>2012-06-19T14:41:54Z</time>
      </trkpt>
      <trkpt lat="47.06405" lon="5.35721">
        <ele>186</ele>
        <time>2012-06-19T14:41:56Z</time>
      </trkpt>
      <trkpt lat="47.06413" lon="5.35741">
        <ele>186</ele>
        <time>2012-06-19T14:41:58Z</time>
      </trkpt>
      <trkpt lat="47.06419" lon="5.35761">
        <ele>186</ele>
        <time>2012-06-19T14:42:00Z</time>
      </trkpt>
      <trkpt lat="47.06427" lon="5.35781">
        <ele>186</ele>
        <time>2012-06-19T14:42:02Z</time>
      </trkpt>
      <trkpt lat="47.06433" lon="5.35801">
        <ele>186</ele>
        <time>2012-06-19T14:42:04Z</time>
      </trkpt>
      <trkpt lat="47.0644" lon="5.35821">
        <ele>186</ele>
        <time>2012-06-19T14:42:06Z</time>
      </trkpt>
      <trkpt lat="47.06446" lon="5.35841">
        <ele>186</ele>
        <time>2012-06-19T14:42:08Z</time>
      </trkpt>
      <trkpt lat="47.06454" lon="5.35861">
        <ele>186</ele>
        <time>2012-06-19T14:42:10Z</time>
      </trkpt>
      <trkpt lat="47.0646" lon="5.35882">
        <ele>186</ele>
        <time>2012-06-19T14:42:12Z</time>
      </trkpt>
      <trkpt lat="47.06468" lon="5.35902">
        <ele>186</ele>
        <time>2012-06-19T14:42:14Z</time>
      </trkpt>
      <trkpt lat="47.06475" lon="5.35921">
        <ele>186</ele>
        <time>2012-06-19T14:42:16Z</time>
      </trkpt>
      <trkpt lat="47.06481" lon="5.35941">
        <ele>186</ele>
        <time>2012-06-19T14:42:18Z</time>
      </trkpt>
      <trkpt lat="47.06489" lon="5.35961">
        <ele>186</ele>
        <time>2012-06-19T14:42:20Z</time>
      </trkpt>
      <trkpt lat="47.06495" lon="5.3598">
        <ele>186</ele>
        <time>2012-06-19T14:42:22Z</time>
      </trkpt>
      <trkpt lat="47.06502" lon="5.36">
        <ele>186</ele>
        <time>2012-06-19T14:42:24Z</time>
      </trkpt>
      <trkpt lat="47.0651" lon="5.36018">
        <ele>186</ele>
        <time>2012-06-19T14:42:26Z</time>
      </trkpt>
      <trkpt lat="47.06517" lon="5.36037">
        <ele>186</ele>
        <time>2012-06-19T14:42:28Z</time>
      </trkpt>
      <trkpt lat="47.06526" lon="5.36054">
        <ele>186</ele>
        <time>2012-06-19T14:42:30Z</time>
      </trkpt>
      <trkpt lat="47.06537" lon="5.36071">
        <ele>186</ele>
        <time>2012-06-19T14:42:32Z</time>
      </trkpt>
      <trkpt lat="47.06548" lon="5.36085">
        <ele>186</ele>
        <time>2012-06-19T14:42:34Z</time>
      </trkpt>
      <trkpt lat="47.0656" lon="5.36099">
        <ele>186</ele>
        <time>2012-06-19T14:42:36Z</time>
      </trkpt>
      <trkpt lat="47.06573" lon="5.36113">
        <ele>186</ele>
        <time>2012-06-19T14:42:38Z</time>
      </trkpt>
      <trkpt lat="47.06586" lon="5.36127">
        <ele>186</ele>
        <time>2012-06-19T14:42:40Z</time>
      </trkpt>
      <trkpt lat="47.06598" lon="5.36141">
        <ele>186</ele>
        <time>2012-06-19T14:42:42Z</time>
      </trkpt>
      <trkpt lat="47.0661" lon="5.36154">
        <ele>186</ele>
        <time>2012-06-19T14:42:44Z</time>
      </trkpt>
      <trkpt lat="47.06622" lon="5.36168">
        <ele>186</ele>
        <time>2012-06-19T14:42:46Z</time>
      </trkpt>
      <trkpt lat="47.06634" lon="5.36181">
        <ele>186</ele>
        <time>2012-06-19T14:42:48Z</time>
      </trkpt>
      <trkpt lat="47.06647" lon="5.36195">
        <ele>186</ele>
        <time>2012-06-19T14:42:50Z</time>
      </trkpt>
      <trkpt lat="47.06659" lon="5.36208">
        <ele>186</ele>
        <time>2012-06-19T14:42:52Z</time>
      </trkpt>
      <trkpt lat="47.06672" lon="5.36222">
        <ele>186</ele>
        <time>2012-06-19T14:42:54Z</time>
      </trkpt>
      <trkpt lat="47.06685" lon="5.36236">
        <ele>186</ele>
        <time>2012-06-19T14:42:56Z</time>
      </trkpt>
      <trkpt lat="47.06697" lon="5.3625">
        <ele>186</ele>
        <time>2012-06-19T14:42:58Z</time>
      </trkpt>
      <trkpt lat="47.0671" lon="5.36264">
        <ele>186</ele>
        <time>2012-06-19T14:43:00Z</time>
      </trkpt>
      <trkpt lat="47.06722" lon="5.36278">
        <ele>186</ele>
        <time>2012-06-19T14:43:02Z</time>
      </trkpt>
      <trkpt lat="47.06735" lon="5.36292">
        <ele>186</ele>
        <time>2012-06-19T14:43:04Z</time>
      </trkpt>
      <trkpt lat="47.06748" lon="5.36306">
        <ele>186</ele>
        <time>2012-06-19T14:43:06Z</time>
      </trkpt>
      <trkpt lat="47.06762" lon="5.3632">
        <ele>186</ele>
        <time>2012-06-19T14:43:08Z</time>
      </trkpt>
      <trkpt lat="47.06775" lon="5.36333">
        <ele>186</ele>
        <time>2012-06-19T14:43:10Z</time>
      </trkpt>
      <trkpt lat="47.06789" lon="5.36345">
        <ele>186</ele>
        <time>2012-06-19T14:43:12Z</time>
      </trkpt>
      <trkpt lat="47.06803" lon="5.36355">
        <ele>186</ele>
        <time>2012-06-19T14:43:14Z</time>
      </trkpt>
      <trkpt lat="47.06817" lon="5.36364">
        <ele>186</ele>
        <time>2012-06-19T14:43:16Z</time>
      </trkpt>
      <trkpt lat="47.06832" lon="5.36372">
        <ele>186</ele>
        <time>2012-06-19T14:43:18Z</time>
      </trkpt>
      <trkpt lat="47.06848" lon="5.36377">
        <ele>186</ele>
        <time>2012-06-19T14:43:20Z</time>
      </trkpt>
      <trkpt lat="47.06864" lon="5.36381">
        <ele>186</ele>
        <time>2012-06-19T14:43:22Z</time>
      </trkpt>
      <trkpt lat="47.0688" lon="5.36383">
        <ele>186</ele>
        <time>2012-06-19T14:43:24Z</time>
      </trkpt>
      <trkpt lat="47.06896" lon="5.36387">
        <ele>186</ele>
        <time>2012-06-19T14:43:26Z</time>
      </trkpt>
      <trkpt lat="47.06912" lon="5.3639">
        <ele>186</ele>
        <time>2012-06-19T14:43:28Z</time>
      </trkpt>
      <trkpt lat="47.06928" lon="5.36395">
        <ele>186</ele>
        <time>2012-06-19T14:43:30Z</time>
      </trkpt>
      <trkpt lat="47.06944" lon="5.36399">
        <ele>186</ele>
        <time>2012-06-19T14:43:32Z</time>
      </trkpt>
      <trkpt lat="47.06959" lon="5.36404">
        <ele>186</ele>
        <time>2012-06-19T14:43:34Z</time>
      </trkpt>
      <trkpt lat="47.06974" lon="5.3641">
        <ele>186</ele>
        <time>2012-06-19T14:43:36Z</time>
      </trkpt>
      <trkpt lat="47.06988" lon="5.36416">
        <ele>186</ele>
        <time>2012-06-19T14:43:38Z</time>
      </trkpt>
      <trkpt lat="47.07002" lon="5.3642">
        <ele>186</ele>
        <time>2012-06-19T14:43:40Z</time>
      </trkpt>
      <trkpt lat="47.07016" lon="5.36427">
        <ele>186</ele>
        <time>2012-06-19T14:43:42Z</time>
      </trkpt>
      <trkpt lat="47.0703" lon="5.36433">
        <ele>186</ele>
        <time>2012-06-19T14:43:44Z</time>
      </trkpt>
      <trkpt lat="47.07044" lon="5.36438">
        <ele>186</ele>
        <time>2012-06-19T14:43:46Z</time>
      </trkpt>
      <trkpt lat="47.07058" lon="5.36441">
        <ele>186</ele>
        <time>2012-06-19T14:43:48Z</time>
      </trkpt>
      <trkpt lat="47.07071" lon="5.36443">
        <ele>186</ele>
        <time>2012-06-19T14:43:50Z</time>
      </trkpt>
      <trkpt lat="47.07082" lon="5.36446">
        <ele>186</ele>
        <time>2012-06-19T14:43:52Z</time>
      </trkpt>
      <trkpt lat="47.07093" lon="5.36449">
        <ele>186</ele>
        <time>2012-06-19T14:43:54Z</time>
      </trkpt>
      <trkpt lat="47.07104" lon="5.36451">
        <ele>186</ele>
        <time>2012-06-19T14:43:56Z</time>
      </trkpt>
      <trkpt lat="47.07115" lon="5.36456">
        <ele>186</ele>
        <time>2012-06-19T14:43:58Z</time>
      </trkpt>
      <trkpt lat="47.07124" lon="5.36462">
        <ele>186</ele>
        <time>2012-06-19T14:44:00Z</time>
      </trkpt>
      <trkpt lat="47.07135" lon="5.3647">
        <ele>186</ele>
        <time>2012-06-19T14:44:03Z</time>
      </trkpt>
      <trkpt lat="47.07141" lon="5.36482">
        <ele>186</ele>
        <time>2012-06-19T14:44:20Z</time>
      </trkpt>
      <trkpt lat="47.0714" lon="5.36497">
        <ele>186</ele>
        <time>2012-06-19T14:44:24Z</time>
      </trkpt>
      <trkpt lat="47.07135" lon="5.36511">
        <ele>186</ele>
        <time>2012-06-19T14:44:27Z</time>
      </trkpt>
      <trkpt lat="47.07129" lon="5.36529">
        <ele>186</ele>
        <time>2012-06-19T14:44:30Z</time>
      </trkpt>
      <trkpt lat="47.07123" lon="5.36542">
        <ele>186</ele>
        <time>2012-06-19T14:44:32Z</time>
      </trkpt>
      <trkpt lat="47.07117" lon="5.36557">
        <ele>186</ele>
        <time>2012-06-19T14:44:34Z</time>
      </trkpt>
      <trkpt lat="47.07111" lon="5.36572">
        <ele>186</ele>
        <time>2012-06-19T14:44:36Z</time>
      </trkpt>
      <trkpt lat="47.07105" lon="5.36589">
        <ele>186</ele>
        <time>2012-06-19T14:44:38Z</time>
      </trkpt>
      <trkpt lat="47.071" lon="5.36607">
        <ele>186</ele>
        <time>2012-06-19T14:44:40Z</time>
      </trkpt>
      <trkpt lat="47.07096" lon="5.36626">
        <ele>186</ele>
        <time>2012-06-19T14:44:42Z</time>
      </trkpt>
      <trkpt lat="47.07091" lon="5.36646">
        <ele>186</ele>
        <time>2012-06-19T14:44:44Z</time>
      </trkpt>
      <trkpt lat="47.07086" lon="5.36666">
        <ele>186</ele>
        <time>2012-06-19T14:44:46Z</time>
      </trkpt>
      <trkpt lat="47.0708" lon="5.36686">
        <ele>186</ele>
        <time>2012-06-19T14:44:48Z</time>
      </trkpt>
      <trkpt lat="47.07074" lon="5.36706">
        <ele>186</ele>
        <time>2012-06-19T14:44:50Z</time>
      </trkpt>
      <trkpt lat="47.07067" lon="5.36725">
        <ele>186</ele>
        <time>2012-06-19T14:44:52Z</time>
      </trkpt>
      <trkpt lat="47.07061" lon="5.36745">
        <ele>186</ele>
        <time>2012-06-19T14:44:54Z</time>
      </trkpt>
      <trkpt lat="47.07053" lon="5.36765">
        <ele>186</ele>
        <time>2012-06-19T14:44:56Z</time>
      </trkpt>
      <trkpt lat="47.07047" lon="5.36785">
        <ele>186</ele>
        <time>2012-06-19T14:44:58Z</time>
      </trkpt>
      <trkpt lat="47.07039" lon="5.36804">
        <ele>186</ele>
        <time>2012-06-19T14:45:00Z</time>
      </trkpt>
      <trkpt lat="47.07031" lon="5.36822">
        <ele>186</ele>
        <time>2012-06-19T14:45:02Z</time>
      </trkpt>
      <trkpt lat="47.07022" lon="5.36841">
        <ele>186</ele>
        <time>2012-06-19T14:45:04Z</time>
      </trkpt>
      <trkpt lat="47.07015" lon="5.3686">
        <ele>186</ele>
        <time>2012-06-19T14:45:06Z</time>
      </trkpt>
      <trkpt lat="47.0701" lon="5.3688">
        <ele>186</ele>
        <time>2012-06-19T14:45:08Z</time>
      </trkpt>
      <trkpt lat="47.07008" lon="5.36901">
        <ele>186</ele>
        <time>2012-06-19T14:45:10Z</time>
      </trkpt>
      <trkpt lat="47.07012" lon="5.36919">
        <ele>186</ele>
        <time>2012-06-19T14:45:12Z</time>
      </trkpt>
      <trkpt lat="47.07021" lon="5.36929">
        <ele>186</ele>
        <time>2012-06-19T14:45:14Z</time>
      </trkpt>
      <trkpt lat="47.07034" lon="5.36937">
        <ele>186</ele>
        <time>2012-06-19T14:45:16Z</time>
      </trkpt>
      <trkpt lat="47.07048" lon="5.36946">
        <ele>186</ele>
        <time>2012-06-19T14:45:18Z</time>
      </trkpt>
      <trkpt lat="47.07061" lon="5.36955">
        <ele>186</ele>
        <time>2012-06-19T14:45:20Z</time>
      </trkpt>
      <trkpt lat="47.07073" lon="5.36964">
        <ele>186</ele>
        <time>2012-06-19T14:45:22Z</time>
      </trkpt>
      <trkpt lat="47.07086" lon="5.36973">
        <ele>186</ele>
        <time>2012-06-19T14:45:24Z</time>
      </trkpt>
      <trkpt lat="47.07099" lon="5.36981">
        <ele>191</ele>
        <time>2012-06-19T14:45:26Z</time>
      </trkpt>
      <trkpt lat="47.07109" lon="5.36988">
        <ele>191</ele>
        <time>2012-06-19T14:45:28Z</time>
      </trkpt>
      <trkpt lat="47.07118" lon="5.36995">
        <ele>191</ele>
        <time>2012-06-19T14:45:30Z</time>
      </trkpt>
      <trkpt lat="47.07128" lon="5.37002">
        <ele>191</ele>
        <time>2012-06-19T14:45:32Z</time>
      </trkpt>
      <trkpt lat="47.07138" lon="5.37009">
        <ele>191</ele>
        <time>2012-06-19T14:45:34Z</time>
      </trkpt>
      <trkpt lat="47.07149" lon="5.37018">
        <ele>191</ele>
        <time>2012-06-19T14:45:36Z</time>
      </trkpt>
      <trkpt lat="47.07163" lon="5.37028">
        <ele>191</ele>
        <time>2012-06-19T14:45:38Z</time>
      </trkpt>
      <trkpt lat="47.07177" lon="5.37039">
        <ele>191</ele>
        <time>2012-06-19T14:45:40Z</time>
      </trkpt>
      <trkpt lat="47.07191" lon="5.37049">
        <ele>191</ele>
        <time>2012-06-19T14:45:42Z</time>
      </trkpt>
      <trkpt lat="47.07205" lon="5.37058">
        <ele>191</ele>
        <time>2012-06-19T14:45:44Z</time>
      </trkpt>
      <trkpt lat="47.07216" lon="5.37067">
        <ele>191</ele>
        <time>2012-06-19T14:45:46Z</time>
      </trkpt>
      <trkpt lat="47.07228" lon="5.37074">
        <ele>191</ele>
        <time>2012-06-19T14:45:48Z</time>
      </trkpt>
      <trkpt lat="47.07239" lon="5.37084">
        <ele>191</ele>
        <time>2012-06-19T14:45:50Z</time>
      </trkpt>
      <trkpt lat="47.07252" lon="5.37092">
        <ele>191</ele>
        <time>2012-06-19T14:45:52Z</time>
      </trkpt>
      <trkpt lat="47.07263" lon="5.37101">
        <ele>191</ele>
        <time>2012-06-19T14:45:54Z</time>
      </trkpt>
      <trkpt lat="47.07273" lon="5.37109">
        <ele>191</ele>
        <time>2012-06-19T14:45:56Z</time>
      </trkpt>
      <trkpt lat="47.07285" lon="5.37116">
        <ele>198</ele>
        <time>2012-06-19T14:45:58Z</time>
      </trkpt>
      <trkpt lat="47.07294" lon="5.37122">
        <ele>198</ele>
        <time>2012-06-19T14:46:00Z</time>
      </trkpt>
      <trkpt lat="47.07303" lon="5.37128">
        <ele>198</ele>
        <time>2012-06-19T14:46:02Z</time>
      </trkpt>
      <trkpt lat="47.07312" lon="5.37138">
        <ele>203</ele>
        <time>2012-06-19T14:46:04Z</time>
      </trkpt>
      <trkpt lat="47.07323" lon="5.37148">
        <ele>203</ele>
        <time>2012-06-19T14:46:06Z</time>
      </trkpt>
      <trkpt lat="47.07334" lon="5.3716">
        <ele>203</ele>
        <time>2012-06-19T14:46:08Z</time>
      </trkpt>
      <trkpt lat="47.07345" lon="5.37174">
        <ele>203</ele>
        <time>2012-06-19T14:46:10Z</time>
      </trkpt>
      <trkpt lat="47.07355" lon="5.37189">
        <ele>198</ele>
        <time>2012-06-19T14:46:12Z</time>
      </trkpt>
      <trkpt lat="47.07364" lon="5.37204">
        <ele>198</ele>
        <time>2012-06-19T14:46:14Z</time>
      </trkpt>
      <trkpt lat="47.07375" lon="5.3722">
        <ele>198</ele>
        <time>2012-06-19T14:46:16Z</time>
      </trkpt>
      <trkpt lat="47.07384" lon="5.37238">
        <ele>198</ele>
        <time>2012-06-19T14:46:18Z</time>
      </trkpt>
      <trkpt lat="47.07394" lon="5.37254">
        <ele>192</ele>
        <time>2012-06-19T14:46:20Z</time>
      </trkpt>
      <trkpt lat="47.07404" lon="5.37272">
        <ele>192</ele>
        <time>2012-06-19T14:46:22Z</time>
      </trkpt>
      <trkpt lat="47.07414" lon="5.37291">
        <ele>192</ele>
        <time>2012-06-19T14:46:24Z</time>
      </trkpt>
      <trkpt lat="47.0742" lon="5.37315">
        <ele>192</ele>
        <time>2012-06-19T14:46:26Z</time>
      </trkpt>
      <trkpt lat="47.07427" lon="5.37338">
        <ele>192</ele>
        <time>2012-06-19T14:46:28Z</time>
      </trkpt>
      <trkpt lat="47.07435" lon="5.37361">
        <ele>192</ele>
        <time>2012-06-19T14:46:30Z</time>
      </trkpt>
      <trkpt lat="47.07442" lon="5.37382">
        <ele>186</ele>
        <time>2012-06-19T14:46:32Z</time>
      </trkpt>
      <trkpt lat="47.07448" lon="5.37406">
        <ele>186</ele>
        <time>2012-06-19T14:46:34Z</time>
      </trkpt>
      <trkpt lat="47.0745" lon="5.37419">
        <ele>186</ele>
        <time>2012-06-19T14:46:35Z</time>
      </trkpt>
      <trkpt lat="47.07452" lon="5.37432">
        <ele>186</ele>
        <time>2012-06-19T14:46:36Z</time>
      </trkpt>
      <trkpt lat="47.07454" lon="5.37447">
        <ele>186</ele>
        <time>2012-06-19T14:46:37Z</time>
      </trkpt>
      <trkpt lat="47.07458" lon="5.37473">
        <ele>186</ele>
        <time>2012-06-19T14:46:39Z</time>
      </trkpt>
      <trkpt lat="47.07458" lon="5.37497">
        <ele>186</ele>
        <time>2012-06-19T14:46:41Z</time>
      </trkpt>
      <trkpt lat="47.07461" lon="5.37519">
        <ele>186</ele>
        <time>2012-06-19T14:46:43Z</time>
      </trkpt>
      <trkpt lat="47.07465" lon="5.37541">
        <ele>186</ele>
        <time>2012-06-19T14:46:45Z</time>
      </trkpt>
      <trkpt lat="47.07466" lon="5.3757">
        <ele>192</ele>
        <time>2012-06-19T14:46:47Z</time>
      </trkpt>
      <trkpt lat="47.07467" lon="5.37584">
        <ele>192</ele>
        <time>2012-06-19T14:46:48Z</time>
      </trkpt>
      <trkpt lat="47.07468" lon="5.37599">
        <ele>192</ele>
        <time>2012-06-19T14:46:49Z</time>
      </trkpt>
      <trkpt lat="47.07471" lon="5.37625">
        <ele>192</ele>
        <time>2012-06-19T14:46:51Z</time>
      </trkpt>
      <trkpt lat="47.07474" lon="5.37639">
        <ele>192</ele>
        <time>2012-06-19T14:46:52Z</time>
      </trkpt>
      <trkpt lat="47.07476" lon="5.37653">
        <ele>192</ele>
        <time>2012-06-19T14:46:53Z</time>
      </trkpt>
      <trkpt lat="47.07477" lon="5.37666">
        <ele>192</ele>
        <time>2012-06-19T14:46:54Z</time>
      </trkpt>
      <trkpt lat="47.0748" lon="5.3768">
        <ele>192</ele>
        <time>2012-06-19T14:46:55Z</time>
      </trkpt>
      <trkpt lat="47.07481" lon="5.37695">
        <ele>192</ele>
        <time>2012-06-19T14:46:56Z</time>
      </trkpt>
      <trkpt lat="47.07484" lon="5.37708">
        <ele>192</ele>
        <time>2012-06-19T14:46:57Z</time>
      </trkpt>
      <trkpt lat="47.07486" lon="5.37721">
        <ele>192</ele>
        <time>2012-06-19T14:46:58Z</time>
      </trkpt>
      <trkpt lat="47.07491" lon="5.37746">
        <ele>192</ele>
        <time>2012-06-19T14:47:00Z</time>
      </trkpt>
      <trkpt lat="47.07495" lon="5.3777">
        <ele>192</ele>
        <time>2012-06-19T14:47:02Z</time>
      </trkpt>
      <trkpt lat="47.07496" lon="5.37784">
        <ele>192</ele>
        <time>2012-06-19T14:47:03Z</time>
      </trkpt>
      <trkpt lat="47.07498" lon="5.37808">
        <ele>192</ele>
        <time>2012-06-19T14:47:05Z</time>
      </trkpt>
      <trkpt lat="47.07501" lon="5.37831">
        <ele>192</ele>
        <time>2012-06-19T14:47:07Z</time>
      </trkpt>
      <trkpt lat="47.07502" lon="5.37855">
        <ele>192</ele>
        <time>2012-06-19T14:47:09Z</time>
      </trkpt>
      <trkpt lat="47.07503" lon="5.37876">
        <ele>187</ele>
        <time>2012-06-19T14:47:11Z</time>
      </trkpt>
      <trkpt lat="47.07504" lon="5.37898">
        <ele>187</ele>
        <time>2012-06-19T14:47:13Z</time>
      </trkpt>
      <trkpt lat="47.07506" lon="5.37921">
        <ele>187</ele>
        <time>2012-06-19T14:47:15Z</time>
      </trkpt>
      <trkpt lat="47.07507" lon="5.37944">
        <ele>187</ele>
        <time>2012-06-19T14:47:17Z</time>
      </trkpt>
      <trkpt lat="47.07508" lon="5.37967">
        <ele>187</ele>
        <time>2012-06-19T14:47:19Z</time>
      </trkpt>
      <trkpt lat="47.07508" lon="5.3799">
        <ele>187</ele>
        <time>2012-06-19T14:47:21Z</time>
      </trkpt>
      <trkpt lat="47.0751" lon="5.38015">
        <ele>187</ele>
        <time>2012-06-19T14:47:23Z</time>
      </trkpt>
      <trkpt lat="47.07513" lon="5.38039">
        <ele>187</ele>
        <time>2012-06-19T14:47:25Z</time>
      </trkpt>
      <trkpt lat="47.07516" lon="5.38063">
        <ele>187</ele>
        <time>2012-06-19T14:47:27Z</time>
      </trkpt>
      <trkpt lat="47.07519" lon="5.38076">
        <ele>187</ele>
        <time>2012-06-19T14:47:28Z</time>
      </trkpt>
      <trkpt lat="47.07521" lon="5.38089">
        <ele>187</ele>
        <time>2012-06-19T14:47:29Z</time>
      </trkpt>
      <trkpt lat="47.07523" lon="5.38112">
        <ele>187</ele>
        <time>2012-06-19T14:47:31Z</time>
      </trkpt>
      <trkpt lat="47.07524" lon="5.38135">
        <ele>187</ele>
        <time>2012-06-19T14:47:33Z</time>
      </trkpt>
      <trkpt lat="47.07527" lon="5.38158">
        <ele>187</ele>
        <time>2012-06-19T14:47:35Z</time>
      </trkpt>
      <trkpt lat="47.0753" lon="5.38183">
        <ele>187</ele>
        <time>2012-06-19T14:47:37Z</time>
      </trkpt>
      <trkpt lat="47.07533" lon="5.38207">
        <ele>187</ele>
        <time>2012-06-19T14:47:39Z</time>
      </trkpt>
      <trkpt lat="47.07536" lon="5.38232">
        <ele>187</ele>
        <time>2012-06-19T14:47:41Z</time>
      </trkpt>
      <trkpt lat="47.07538" lon="5.38258">
        <ele>187</ele>
        <time>2012-06-19T14:47:43Z</time>
      </trkpt>
      <trkpt lat="47.07539" lon="5.38271">
        <ele>187</ele>
        <time>2012-06-19T14:47:44Z</time>
      </trkpt>
      <trkpt lat="47.0754" lon="5.38285">
        <ele>192</ele>
        <time>2012-06-19T14:47:45Z</time>
      </trkpt>
      <trkpt lat="47.07542" lon="5.38308">
        <ele>192</ele>
        <time>2012-06-19T14:47:47Z</time>
      </trkpt>
      <trkpt lat="47.07547" lon="5.38333">
        <ele>192</ele>
        <time>2012-06-19T14:47:49Z</time>
      </trkpt>
      <trkpt lat="47.07549" lon="5.38346">
        <ele>192</ele>
        <time>2012-06-19T14:47:50Z</time>
      </trkpt>
      <trkpt lat="47.07552" lon="5.38371">
        <ele>192</ele>
        <time>2012-06-19T14:47:52Z</time>
      </trkpt>
      <trkpt lat="47.07555" lon="5.38395">
        <ele>192</ele>
        <time>2012-06-19T14:47:54Z</time>
      </trkpt>
      <trkpt lat="47.07557" lon="5.38408">
        <ele>192</ele>
        <time>2012-06-19T14:47:55Z</time>
      </trkpt>
      <trkpt lat="47.0756" lon="5.38434">
        <ele>192</ele>
        <time>2012-06-19T14:47:57Z</time>
      </trkpt>
      <trkpt lat="47.07563" lon="5.38458">
        <ele>192</ele>
        <time>2012-06-19T14:47:59Z</time>
      </trkpt>
      <trkpt lat="47.07565" lon="5.38471">
        <ele>192</ele>
        <time>2012-06-19T14:48:00Z</time>
      </trkpt>
      <trkpt lat="47.07569" lon="5.38495">
        <ele>192</ele>
        <time>2012-06-19T14:48:02Z</time>
      </trkpt>
      <trkpt lat="47.07571" lon="5.38509">
        <ele>192</ele>
        <time>2012-06-19T14:48:03Z</time>
      </trkpt>
      <trkpt lat="47.07574" lon="5.38534">
        <ele>192</ele>
        <time>2012-06-19T14:48:05Z</time>
      </trkpt>
      <trkpt lat="47.07576" lon="5.38547">
        <ele>192</ele>
        <time>2012-06-19T14:48:06Z</time>
      </trkpt>
      <trkpt lat="47.07578" lon="5.38572">
        <ele>192</ele>
        <time>2012-06-19T14:48:08Z</time>
      </trkpt>
      <trkpt lat="47.07581" lon="5.38597">
        <ele>192</ele>
        <time>2012-06-19T14:48:10Z</time>
      </trkpt>
      <trkpt lat="47.07585" lon="5.38622">
        <ele>192</ele>
        <time>2012-06-19T14:48:12Z</time>
      </trkpt>
      <trkpt lat="47.07588" lon="5.38634">
        <ele>192</ele>
        <time>2012-06-19T14:48:13Z</time>
      </trkpt>
      <trkpt lat="47.0759" lon="5.38647">
        <ele>192</ele>
        <time>2012-06-19T14:48:14Z</time>
      </trkpt>
      <trkpt lat="47.07594" lon="5.38671">
        <ele>192</ele>
        <time>2012-06-19T14:48:16Z</time>
      </trkpt>
      <trkpt lat="47.07598" lon="5.38695">
        <ele>192</ele>
        <time>2012-06-19T14:48:18Z</time>
      </trkpt>
      <trkpt lat="47.076" lon="5.38709">
        <ele>192</ele>
        <time>2012-06-19T14:48:19Z</time>
      </trkpt>
      <trkpt lat="47.07603" lon="5.38734">
        <ele>192</ele>
        <time>2012-06-19T14:48:21Z</time>
      </trkpt>
      <trkpt lat="47.07608" lon="5.38758">
        <ele>192</ele>
        <time>2012-06-19T14:48:23Z</time>
      </trkpt>
      <trkpt lat="47.0761" lon="5.38771">
        <ele>192</ele>
        <time>2012-06-19T14:48:24Z</time>
      </trkpt>
      <trkpt lat="47.07617" lon="5.38794">
        <ele>192</ele>
        <time>2012-06-19T14:48:26Z</time>
      </trkpt>
      <trkpt lat="47.07625" lon="5.38817">
        <ele>192</ele>
        <time>2012-06-19T14:48:28Z</time>
      </trkpt>
      <trkpt lat="47.07633" lon="5.38839">
        <ele>192</ele>
        <time>2012-06-19T14:48:30Z</time>
      </trkpt>
      <trkpt lat="47.07642" lon="5.38861">
        <ele>192</ele>
        <time>2012-06-19T14:48:32Z</time>
      </trkpt>
      <trkpt lat="47.07651" lon="5.38881">
        <ele>192</ele>
        <time>2012-06-19T14:48:34Z</time>
      </trkpt>
      <trkpt lat="47.0766" lon="5.38901">
        <ele>192</ele>
        <time>2012-06-19T14:48:36Z</time>
      </trkpt>
      <trkpt lat="47.07668" lon="5.38924">
        <ele>192</ele>
        <time>2012-06-19T14:48:38Z</time>
      </trkpt>
      <trkpt lat="47.07677" lon="5.38945">
        <ele>192</ele>
        <time>2012-06-19T14:48:40Z</time>
      </trkpt>
      <trkpt lat="47.07686" lon="5.38967">
        <ele>192</ele>
        <time>2012-06-19T14:48:42Z</time>
      </trkpt>
      <trkpt lat="47.07695" lon="5.38988">
        <ele>192</ele>
        <time>2012-06-19T14:48:44Z</time>
      </trkpt>
      <trkpt lat="47.07704" lon="5.3901">
        <ele>192</ele>
        <time>2012-06-19T14:48:46Z</time>
      </trkpt>
      <trkpt lat="47.07714" lon="5.39031">
        <ele>192</ele>
        <time>2012-06-19T14:48:48Z</time>
      </trkpt>
      <trkpt lat="47.07722" lon="5.39051">
        <ele>192</ele>
        <time>2012-06-19T14:48:50Z</time>
      </trkpt>
      <trkpt lat="47.07731" lon="5.39072">
        <ele>192</ele>
        <time>2012-06-19T14:48:52Z</time>
      </trkpt>
      <trkpt lat="47.0774" lon="5.39093">
        <ele>192</ele>
        <time>2012-06-19T14:48:54Z</time>
      </trkpt>
      <trkpt lat="47.07747" lon="5.39115">
        <ele>192</ele>
        <time>2012-06-19T14:48:56Z</time>
      </trkpt>
      <trkpt lat="47.0775" lon="5.39139">
        <ele>192</ele>
        <time>2012-06-19T14:48:58Z</time>
      </trkpt>
      <trkpt lat="47.07747" lon="5.39163">
        <ele>192</ele>
        <time>2012-06-19T14:49:00Z</time>
      </trkpt>
      <trkpt lat="47.07744" lon="5.39189">
        <ele>192</ele>
        <time>2012-06-19T14:49:02Z</time>
      </trkpt>
      <trkpt lat="47.07743" lon="5.39202">
        <ele>192</ele>
        <time>2012-06-19T14:49:03Z</time>
      </trkpt>
      <trkpt lat="47.07739" lon="5.39227">
        <ele>192</ele>
        <time>2012-06-19T14:49:05Z</time>
      </trkpt>
      <trkpt lat="47.07737" lon="5.39241">
        <ele>192</ele>
        <time>2012-06-19T14:49:06Z</time>
      </trkpt>
      <trkpt lat="47.07735" lon="5.39255">
        <ele>192</ele>
        <time>2012-06-19T14:49:07Z</time>
      </trkpt>
      <trkpt lat="47.07733" lon="5.39269">
        <ele>192</ele>
        <time>2012-06-19T14:49:08Z</time>
      </trkpt>
      <trkpt lat="47.0773" lon="5.39281">
        <ele>192</ele>
        <time>2012-06-19T14:49:09Z</time>
      </trkpt>
      <trkpt lat="47.07728" lon="5.39295">
        <ele>192</ele>
        <time>2012-06-19T14:49:10Z</time>
      </trkpt>
      <trkpt lat="47.07727" lon="5.39308">
        <ele>192</ele>
        <time>2012-06-19T14:49:11Z</time>
      </trkpt>
      <trkpt lat="47.07723" lon="5.39335">
        <ele>192</ele>
        <time>2012-06-19T14:49:13Z</time>
      </trkpt>
      <trkpt lat="47.0772" lon="5.39349">
        <ele>192</ele>
        <time>2012-06-19T14:49:14Z</time>
      </trkpt>
      <trkpt lat="47.07719" lon="5.39363">
        <ele>192</ele>
        <time>2012-06-19T14:49:15Z</time>
      </trkpt>
      <trkpt lat="47.07717" lon="5.39377">
        <ele>192</ele>
        <time>2012-06-19T14:49:16Z</time>
      </trkpt>
      <trkpt lat="47.07716" lon="5.39392">
        <ele>192</ele>
        <time>2012-06-19T14:49:17Z</time>
      </trkpt>
      <trkpt lat="47.07714" lon="5.39406">
        <ele>192</ele>
        <time>2012-06-19T14:49:18Z</time>
      </trkpt>
      <trkpt lat="47.07712" lon="5.3942">
        <ele>192</ele>
        <time>2012-06-19T14:49:19Z</time>
      </trkpt>
      <trkpt lat="47.0771" lon="5.39435">
        <ele>192</ele>
        <time>2012-06-19T14:49:20Z</time>
      </trkpt>
      <trkpt lat="47.07708" lon="5.39449">
        <ele>192</ele>
        <time>2012-06-19T14:49:21Z</time>
      </trkpt>
      <trkpt lat="47.07706" lon="5.39464">
        <ele>192</ele>
        <time>2012-06-19T14:49:22Z</time>
      </trkpt>
      <trkpt lat="47.07704" lon="5.39478">
        <ele>192</ele>
        <time>2012-06-19T14:49:23Z</time>
      </trkpt>
      <trkpt lat="47.07703" lon="5.39492">
        <ele>192</ele>
        <time>2012-06-19T14:49:24Z</time>
      </trkpt>
      <trkpt lat="47.07702" lon="5.39506">
        <ele>192</ele>
        <time>2012-06-19T14:49:25Z</time>
      </trkpt>
      <trkpt lat="47.077" lon="5.39519">
        <ele>192</ele>
        <time>2012-06-19T14:49:26Z</time>
      </trkpt>
      <trkpt lat="47.07698" lon="5.39533">
        <ele>192</ele>
        <time>2012-06-19T14:49:27Z</time>
      </trkpt>
      <trkpt lat="47.07697" lon="5.39547">
        <ele>192</ele>
        <time>2012-06-19T14:49:28Z</time>
      </trkpt>
      <trkpt lat="47.07695" lon="5.39573">
        <ele>192</ele>
        <time>2012-06-19T14:49:30Z</time>
      </trkpt>
      <trkpt lat="47.07692" lon="5.39598">
        <ele>192</ele>
        <time>2012-06-19T14:49:32Z</time>
      </trkpt>
      <trkpt lat="47.07689" lon="5.39622">
        <ele>192</ele>
        <time>2012-06-19T14:49:34Z</time>
      </trkpt>
      <trkpt lat="47.07685" lon="5.39644">
        <ele>192</ele>
        <time>2012-06-19T14:49:36Z</time>
      </trkpt>
      <trkpt lat="47.07684" lon="5.39667">
        <ele>192</ele>
        <time>2012-06-19T14:49:38Z</time>
      </trkpt>
      <trkpt lat="47.07679" lon="5.39692">
        <ele>198</ele>
        <time>2012-06-19T14:49:40Z</time>
      </trkpt>
      <trkpt lat="47.07676" lon="5.39712">
        <ele>198</ele>
        <time>2012-06-19T14:49:42Z</time>
      </trkpt>
      <trkpt lat="47.07673" lon="5.39733">
        <ele>198</ele>
        <time>2012-06-19T14:49:44Z</time>
      </trkpt>
      <trkpt lat="47.07669" lon="5.39755">
        <ele>198</ele>
        <time>2012-06-19T14:49:46Z</time>
      </trkpt>
      <trkpt lat="47.07667" lon="5.39776">
        <ele>204</ele>
        <time>2012-06-19T14:49:48Z</time>
      </trkpt>
      <trkpt lat="47.07665" lon="5.39795">
        <ele>204</ele>
        <time>2012-06-19T14:49:50Z</time>
      </trkpt>
      <trkpt lat="47.07663" lon="5.39814">
        <ele>204</ele>
        <time>2012-06-19T14:49:52Z</time>
      </trkpt>
      <trkpt lat="47.07659" lon="5.39833">
        <ele>204</ele>
        <time>2012-06-19T14:49:54Z</time>
      </trkpt>
      <trkpt lat="47.07656" lon="5.3985">
        <ele>204</ele>
        <time>2012-06-19T14:49:56Z</time>
      </trkpt>
      <trkpt lat="47.07652" lon="5.3987">
        <ele>204</ele>
        <time>2012-06-19T14:49:58Z</time>
      </trkpt>
      <trkpt lat="47.07651" lon="5.39887">
        <ele>204</ele>
        <time>2012-06-19T14:50:00Z</time>
      </trkpt>
      <trkpt lat="47.07649" lon="5.39904">
        <ele>204</ele>
        <time>2012-06-19T14:50:02Z</time>
      </trkpt>
      <trkpt lat="47.07647" lon="5.39918">
        <ele>204</ele>
        <time>2012-06-19T14:50:04Z</time>
      </trkpt>
      <trkpt lat="47.07647" lon="5.39933">
        <ele>204</ele>
        <time>2012-06-19T14:50:06Z</time>
      </trkpt>
      <trkpt lat="47.07646" lon="5.39949">
        <ele>204</ele>
        <time>2012-06-19T14:50:08Z</time>
      </trkpt>
      <trkpt lat="47.07644" lon="5.39965">
        <ele>204</ele>
        <time>2012-06-19T14:50:10Z</time>
      </trkpt>
      <trkpt lat="47.07643" lon="5.39979">
        <ele>204</ele>
        <time>2012-06-19T14:50:12Z</time>
      </trkpt>
      <trkpt lat="47.07642" lon="5.39994">
        <ele>204</ele>
        <time>2012-06-19T14:50:14Z</time>
      </trkpt>
      <trkpt lat="47.0764" lon="5.40012">
        <ele>204</ele>
        <time>2012-06-19T14:50:16Z</time>
      </trkpt>
      <trkpt lat="47.07638" lon="5.40029">
        <ele>204</ele>
        <time>2012-06-19T14:50:18Z</time>
      </trkpt>
      <trkpt lat="47.07635" lon="5.40047">
        <ele>204</ele>
        <time>2012-06-19T14:50:20Z</time>
      </trkpt>
      <trkpt lat="47.07632" lon="5.40062">
        <ele>204</ele>
        <time>2012-06-19T14:50:22Z</time>
      </trkpt>
      <trkpt lat="47.07631" lon="5.40075">
        <ele>204</ele>
        <time>2012-06-19T14:50:24Z</time>
      </trkpt>
      <trkpt lat="47.0763" lon="5.40095">
        <ele>204</ele>
        <time>2012-06-19T14:50:27Z</time>
      </trkpt>
      <trkpt lat="47.07629" lon="5.40109">
        <ele>204</ele>
        <time>2012-06-19T14:50:29Z</time>
      </trkpt>
      <trkpt lat="47.07626" lon="5.40124">
        <ele>204</ele>
        <time>2012-06-19T14:50:31Z</time>
      </trkpt>
      <trkpt lat="47.07624" lon="5.4014">
        <ele>204</ele>
        <time>2012-06-19T14:50:33Z</time>
      </trkpt>
      <trkpt lat="47.07624" lon="5.40154">
        <ele>204</ele>
        <time>2012-06-19T14:50:35Z</time>
      </trkpt>
      <trkpt lat="47.07624" lon="5.4017">
        <ele>198</ele>
        <time>2012-06-19T14:50:37Z</time>
      </trkpt>
      <trkpt lat="47.07621" lon="5.40187">
        <ele>198</ele>
        <time>2012-06-19T14:50:39Z</time>
      </trkpt>
      <trkpt lat="47.07617" lon="5.40204">
        <ele>198</ele>
        <time>2012-06-19T14:50:41Z</time>
      </trkpt>
      <trkpt lat="47.07615" lon="5.40221">
        <ele>198</ele>
        <time>2012-06-19T14:50:43Z</time>
      </trkpt>
      <trkpt lat="47.07613" lon="5.40237">
        <ele>198</ele>
        <time>2012-06-19T14:50:45Z</time>
      </trkpt>
      <trkpt lat="47.07609" lon="5.40253">
        <ele>203</ele>
        <time>2012-06-19T14:50:47Z</time>
      </trkpt>
      <trkpt lat="47.07606" lon="5.40271">
        <ele>203</ele>
        <time>2012-06-19T14:50:49Z</time>
      </trkpt>
      <trkpt lat="47.07604" lon="5.40289">
        <ele>203</ele>
        <time>2012-06-19T14:50:51Z</time>
      </trkpt>
      <trkpt lat="47.07602" lon="5.40307">
        <ele>203</ele>
        <time>2012-06-19T14:50:53Z</time>
      </trkpt>
      <trkpt lat="47.07599" lon="5.40325">
        <ele>209</ele>
        <time>2012-06-19T14:50:55Z</time>
      </trkpt>
      <trkpt lat="47.07596" lon="5.40342">
        <ele>209</ele>
        <time>2012-06-19T14:50:57Z</time>
      </trkpt>
      <trkpt lat="47.07593" lon="5.40359">
        <ele>209</ele>
        <time>2012-06-19T14:50:59Z</time>
      </trkpt>
      <trkpt lat="47.07592" lon="5.40377">
        <ele>209</ele>
        <time>2012-06-19T14:51:01Z</time>
      </trkpt>
      <trkpt lat="47.0759" lon="5.40394">
        <ele>209</ele>
        <time>2012-06-19T14:51:03Z</time>
      </trkpt>
      <trkpt lat="47.07587" lon="5.40412">
        <ele>209</ele>
        <time>2012-06-19T14:51:05Z</time>
      </trkpt>
      <trkpt lat="47.07585" lon="5.4043">
        <ele>209</ele>
        <time>2012-06-19T14:51:07Z</time>
      </trkpt>
      <trkpt lat="47.07583" lon="5.40448">
        <ele>209</ele>
        <time>2012-06-19T14:51:09Z</time>
      </trkpt>
      <trkpt lat="47.07581" lon="5.40467">
        <ele>204</ele>
        <time>2012-06-19T14:51:11Z</time>
      </trkpt>
      <trkpt lat="47.07578" lon="5.40487">
        <ele>204</ele>
        <time>2012-06-19T14:51:13Z</time>
      </trkpt>
      <trkpt lat="47.07576" lon="5.40508">
        <ele>204</ele>
        <time>2012-06-19T14:51:15Z</time>
      </trkpt>
      <trkpt lat="47.07573" lon="5.4053">
        <ele>204</ele>
        <time>2012-06-19T14:51:17Z</time>
      </trkpt>
      <trkpt lat="47.0757" lon="5.40552">
        <ele>204</ele>
        <time>2012-06-19T14:51:19Z</time>
      </trkpt>
      <trkpt lat="47.07568" lon="5.40574">
        <ele>204</ele>
        <time>2012-06-19T14:51:21Z</time>
      </trkpt>
      <trkpt lat="47.07565" lon="5.40594">
        <ele>204</ele>
        <time>2012-06-19T14:51:23Z</time>
      </trkpt>
      <trkpt lat="47.07563" lon="5.40612">
        <ele>204</ele>
        <time>2012-06-19T14:51:25Z</time>
      </trkpt>
      <trkpt lat="47.07561" lon="5.4063">
        <ele>204</ele>
        <time>2012-06-19T14:51:27Z</time>
      </trkpt>
      <trkpt lat="47.07559" lon="5.40645">
        <ele>204</ele>
        <time>2012-06-19T14:51:29Z</time>
      </trkpt>
      <trkpt lat="47.07557" lon="5.40659">
        <ele>204</ele>
        <time>2012-06-19T14:51:31Z</time>
      </trkpt>
      <trkpt lat="47.07555" lon="5.40673">
        <ele>204</ele>
        <time>2012-06-19T14:51:33Z</time>
      </trkpt>
      <trkpt lat="47.07554" lon="5.40692">
        <ele>204</ele>
        <time>2012-06-19T14:51:36Z</time>
      </trkpt>
      <trkpt lat="47.07551" lon="5.40711">
        <ele>204</ele>
        <time>2012-06-19T14:51:39Z</time>
      </trkpt>
      <trkpt lat="47.07549" lon="5.40726">
        <ele>204</ele>
        <time>2012-06-19T14:51:41Z</time>
      </trkpt>
      <trkpt lat="47.07547" lon="5.4074">
        <ele>204</ele>
        <time>2012-06-19T14:51:43Z</time>
      </trkpt>
      <trkpt lat="47.07546" lon="5.40755">
        <ele>204</ele>
        <time>2012-06-19T14:51:45Z</time>
      </trkpt>
      <trkpt lat="47.07543" lon="5.40771">
        <ele>204</ele>
        <time>2012-06-19T14:51:47Z</time>
      </trkpt>
      <trkpt lat="47.07541" lon="5.40785">
        <ele>204</ele>
        <time>2012-06-19T14:51:49Z</time>
      </trkpt>
      <trkpt lat="47.07538" lon="5.40798">
        <ele>204</ele>
        <time>2012-06-19T14:51:51Z</time>
      </trkpt>
      <trkpt lat="47.07532" lon="5.40815">
        <ele>204</ele>
        <time>2012-06-19T14:51:54Z</time>
      </trkpt>
      <trkpt lat="47.07525" lon="5.40831">
        <ele>204</ele>
        <time>2012-06-19T14:51:57Z</time>
      </trkpt>
      <trkpt lat="47.07517" lon="5.40844">
        <ele>204</ele>
        <time>2012-06-19T14:52:00Z</time>
      </trkpt>
      <trkpt lat="47.07508" lon="5.4086">
        <ele>204</ele>
        <time>2012-06-19T14:52:03Z</time>
      </trkpt>
      <trkpt lat="47.07502" lon="5.40871">
        <ele>204</ele>
        <time>2012-06-19T14:52:05Z</time>
      </trkpt>
      <trkpt lat="47.07495" lon="5.40883">
        <ele>204</ele>
        <time>2012-06-19T14:52:07Z</time>
      </trkpt>
      <trkpt lat="47.07488" lon="5.40897">
        <ele>204</ele>
        <time>2012-06-19T14:52:09Z</time>
      </trkpt>
      <trkpt lat="47.0748" lon="5.40912">
        <ele>204</ele>
        <time>2012-06-19T14:52:11Z</time>
      </trkpt>
      <trkpt lat="47.07472" lon="5.40927">
        <ele>204</ele>
        <time>2012-06-19T14:52:13Z</time>
      </trkpt>
      <trkpt lat="47.07465" lon="5.40943">
        <ele>204</ele>
        <time>2012-06-19T14:52:15Z</time>
      </trkpt>
      <trkpt lat="47.0746" lon="5.4096">
        <ele>204</ele>
        <time>2012-06-19T14:52:17Z</time>
      </trkpt>
      <trkpt lat="47.07456" lon="5.40977">
        <ele>204</ele>
        <time>2012-06-19T14:52:19Z</time>
      </trkpt>
      <trkpt lat="47.07453" lon="5.40992">
        <ele>204</ele>
        <time>2012-06-19T14:52:21Z</time>
      </trkpt>
      <trkpt lat="47.07449" lon="5.41008">
        <ele>204</ele>
        <time>2012-06-19T14:52:23Z</time>
      </trkpt>
      <trkpt lat="47.07447" lon="5.41021">
        <ele>204</ele>
        <time>2012-06-19T14:52:25Z</time>
      </trkpt>
      <trkpt lat="47.07449" lon="5.41035">
        <ele>204</ele>
        <time>2012-06-19T14:52:27Z</time>
      </trkpt>
      <trkpt lat="47.07456" lon="5.41045">
        <ele>204</ele>
        <time>2012-06-19T14:52:29Z</time>
      </trkpt>
      <trkpt lat="47.07465" lon="5.41055">
        <ele>204</ele>
        <time>2012-06-19T14:52:31Z</time>
      </trkpt>
      <trkpt lat="47.07472" lon="5.41064">
        <ele>204</ele>
        <time>2012-06-19T14:52:33Z</time>
      </trkpt>
      <trkpt lat="47.07481" lon="5.41072">
        <ele>204</ele>
        <time>2012-06-19T14:52:35Z</time>
      </trkpt>
      <trkpt lat="47.0749" lon="5.4108">
        <ele>204</ele>
        <time>2012-06-19T14:52:37Z</time>
      </trkpt>
      <trkpt lat="47.07498" lon="5.41089">
        <ele>204</ele>
        <time>2012-06-19T14:52:39Z</time>
      </trkpt>
      <trkpt lat="47.07507" lon="5.41098">
        <ele>204</ele>
        <time>2012-06-19T14:52:41Z</time>
      </trkpt>
      <trkpt lat="47.07517" lon="5.41107">
        <ele>204</ele>
        <time>2012-06-19T14:52:43Z</time>
      </trkpt>
      <trkpt lat="47.07525" lon="5.41116">
        <ele>204</ele>
        <time>2012-06-19T14:52:45Z</time>
      </trkpt>
      <trkpt lat="47.07534" lon="5.41126">
        <ele>204</ele>
        <time>2012-06-19T14:52:47Z</time>
      </trkpt>
      <trkpt lat="47.07541" lon="5.41137">
        <ele>204</ele>
        <time>2012-06-19T14:52:49Z</time>
      </trkpt>
      <trkpt lat="47.07547" lon="5.41147">
        <ele>204</ele>
        <time>2012-06-19T14:52:51Z</time>
      </trkpt>
      <trkpt lat="47.07548" lon="5.41165">
        <ele>204</ele>
        <time>2012-06-19T14:52:54Z</time>
      </trkpt>
      <trkpt lat="47.07542" lon="5.4118">
        <ele>204</ele>
        <time>2012-06-19T14:52:57Z</time>
      </trkpt>
      <trkpt lat="47.07538" lon="5.41194">
        <ele>204</ele>
        <time>2012-06-19T14:53:01Z</time>
      </trkpt>
      <trkpt lat="47.07534" lon="5.41207">
        <ele>204</ele>
        <time>2012-06-19T14:53:05Z</time>
      </trkpt>
      <trkpt lat="47.0753" lon="5.41219">
        <ele>204</ele>
        <time>2012-06-19T14:53:11Z</time>
      </trkpt>
      <trkpt lat="47.07524" lon="5.4123">
        <ele>204</ele>
        <time>2012-06-19T14:53:43Z</time>
      </trkpt>
      <trkpt lat="47.07515" lon="5.41237">
        <ele>204</ele>
        <time>2012-06-19T14:53:47Z</time>
      </trkpt>
      <trkpt lat="47.07506" lon="5.41245">
        <ele>204</ele>
        <time>2012-06-19T14:53:51Z</time>
      </trkpt>
      <trkpt lat="47.07498" lon="5.41253">
        <ele>204</ele>
        <time>2012-06-19T14:53:54Z</time>
      </trkpt>
      <trkpt lat="47.07488" lon="5.41263">
        <ele>204</ele>
        <time>2012-06-19T14:53:57Z</time>
      </trkpt>
      <trkpt lat="47.07476" lon="5.41271">
        <ele>204</ele>
        <time>2012-06-19T14:54:00Z</time>
      </trkpt>
      <trkpt lat="47.07468" lon="5.41275">
        <ele>204</ele>
        <time>2012-06-19T14:54:02Z</time>
      </trkpt>
      <trkpt lat="47.07459" lon="5.4128">
        <ele>204</ele>
        <time>2012-06-19T14:54:04Z</time>
      </trkpt>
      <trkpt lat="47.0745" lon="5.41285">
        <ele>204</ele>
        <time>2012-06-19T14:54:06Z</time>
      </trkpt>
      <trkpt lat="47.07441" lon="5.4129">
        <ele>204</ele>
        <time>2012-06-19T14:54:08Z</time>
      </trkpt>
      <trkpt lat="47.07433" lon="5.41294">
        <ele>204</ele>
        <time>2012-06-19T14:54:10Z</time>
      </trkpt>
      <trkpt lat="47.07423" lon="5.41299">
        <ele>204</ele>
        <time>2012-06-19T14:54:12Z</time>
      </trkpt>
      <trkpt lat="47.07415" lon="5.41304">
        <ele>209</ele>
        <time>2012-06-19T14:54:14Z</time>
      </trkpt>
      <trkpt lat="47.07407" lon="5.4131">
        <ele>209</ele>
        <time>2012-06-19T14:54:16Z</time>
      </trkpt>
      <trkpt lat="47.07395" lon="5.41317">
        <ele>209</ele>
        <time>2012-06-19T14:54:19Z</time>
      </trkpt>
      <trkpt lat="47.07384" lon="5.41324">
        <ele>209</ele>
        <time>2012-06-19T14:54:22Z</time>
      </trkpt>
      <trkpt lat="47.07379" lon="5.41338">
        <ele>209</ele>
        <time>2012-06-19T14:54:25Z</time>
      </trkpt>
      <trkpt lat="47.07385" lon="5.41352">
        <ele>209</ele>
        <time>2012-06-19T14:54:28Z</time>
      </trkpt>
      <trkpt lat="47.07395" lon="5.41363">
        <ele>209</ele>
        <time>2012-06-19T14:54:31Z</time>
      </trkpt>
      <trkpt lat="47.07407" lon="5.41373">
        <ele>209</ele>
        <time>2012-06-19T14:54:34Z</time>
      </trkpt>
      <trkpt lat="47.07418" lon="5.41381">
        <ele>209</ele>
        <time>2012-06-19T14:54:37Z</time>
      </trkpt>
      <trkpt lat="47.0743" lon="5.41388">
        <ele>209</ele>
        <time>2012-06-19T14:54:40Z</time>
      </trkpt>
      <trkpt lat="47.07443" lon="5.41391">
        <ele>209</ele>
        <time>2012-06-19T14:54:43Z</time>
      </trkpt>
      <trkpt lat="47.07457" lon="5.41392">
        <ele>209</ele>
        <time>2012-06-19T14:54:46Z</time>
      </trkpt>
      <trkpt lat="47.07466" lon="5.41393">
        <ele>209</ele>
        <time>2012-06-19T14:54:48Z</time>
      </trkpt>
      <trkpt lat="47.07476" lon="5.41395">
        <ele>209</ele>
        <time>2012-06-19T14:54:50Z</time>
      </trkpt>
      <trkpt lat="47.07485" lon="5.41399">
        <ele>209</ele>
        <time>2012-06-19T14:54:52Z</time>
      </trkpt>
      <trkpt lat="47.07494" lon="5.41407">
        <ele>209</ele>
        <time>2012-06-19T14:54:54Z</time>
      </trkpt>
      <trkpt lat="47.07502" lon="5.41416">
        <ele>209</ele>
        <time>2012-06-19T14:54:56Z</time>
      </trkpt>
      <trkpt lat="47.07509" lon="5.41428">
        <ele>209</ele>
        <time>2012-06-19T14:54:58Z</time>
      </trkpt>
      <trkpt lat="47.07515" lon="5.4144">
        <ele>209</ele>
        <time>2012-06-19T14:55:00Z</time>
      </trkpt>
      <trkpt lat="47.07522" lon="5.41457">
        <ele>209</ele>
        <time>2012-06-19T14:55:03Z</time>
      </trkpt>
      <trkpt lat="47.07525" lon="5.41469">
        <ele>209</ele>
        <time>2012-06-19T14:55:05Z</time>
      </trkpt>
      <trkpt lat="47.07528" lon="5.41482">
        <ele>209</ele>
        <time>2012-06-19T14:55:07Z</time>
      </trkpt>
      <trkpt lat="47.07531" lon="5.415">
        <ele>215</ele>
        <time>2012-06-19T14:55:10Z</time>
      </trkpt>
      <trkpt lat="47.07533" lon="5.41519">
        <ele>215</ele>
        <time>2012-06-19T14:55:13Z</time>
      </trkpt>
      <trkpt lat="47.07534" lon="5.41538">
        <ele>215</ele>
        <time>2012-06-19T14:55:16Z</time>
      </trkpt>
      <trkpt lat="47.07537" lon="5.41556">
        <ele>215</ele>
        <time>2012-06-19T14:55:19Z</time>
      </trkpt>
      <trkpt lat="47.07538" lon="5.41574">
        <ele>215</ele>
        <time>2012-06-19T14:55:22Z</time>
      </trkpt>
      <trkpt lat="47.07538" lon="5.41589">
        <ele>215</ele>
        <time>2012-06-19T14:55:25Z</time>
      </trkpt>
      <trkpt lat="47.07538" lon="5.41604">
        <ele>215</ele>
        <time>2012-06-19T14:55:28Z</time>
      </trkpt>
      <trkpt lat="47.07538" lon="5.41621">
        <ele>215</ele>
        <time>2012-06-19T14:55:31Z</time>
      </trkpt>
      <trkpt lat="47.07531" lon="5.41639">
        <ele>215</ele>
        <time>2012-06-19T14:55:34Z</time>
      </trkpt>
      <trkpt lat="47.07523" lon="5.41655">
        <ele>215</ele>
        <time>2012-06-19T14:55:37Z</time>
      </trkpt>
      <trkpt lat="47.07517" lon="5.41666">
        <ele>215</ele>
        <time>2012-06-19T14:55:39Z</time>
      </trkpt>
      <trkpt lat="47.0751" lon="5.41677">
        <ele>215</ele>
        <time>2012-06-19T14:55:41Z</time>
      </trkpt>
      <trkpt lat="47.07504" lon="5.41689">
        <ele>215</ele>
        <time>2012-06-19T14:55:43Z</time>
      </trkpt>
      <trkpt lat="47.07498" lon="5.41703">
        <ele>215</ele>
        <time>2012-06-19T14:55:45Z</time>
      </trkpt>
      <trkpt lat="47.07493" lon="5.41718">
        <ele>215</ele>
        <time>2012-06-19T14:55:47Z</time>
      </trkpt>
      <trkpt lat="47.0749" lon="5.41734">
        <ele>215</ele>
        <time>2012-06-19T14:55:49Z</time>
      </trkpt>
      <trkpt lat="47.07487" lon="5.41751">
        <ele>215</ele>
        <time>2012-06-19T14:55:51Z</time>
      </trkpt>
      <trkpt lat="47.07485" lon="5.41768">
        <ele>215</ele>
        <time>2012-06-19T14:55:53Z</time>
      </trkpt>
      <trkpt lat="47.07482" lon="5.41784">
        <ele>215</ele>
        <time>2012-06-19T14:55:55Z</time>
      </trkpt>
      <trkpt lat="47.0748" lon="5.41801">
        <ele>215</ele>
        <time>2012-06-19T14:55:57Z</time>
      </trkpt>
      <trkpt lat="47.07479" lon="5.41817">
        <ele>215</ele>
        <time>2012-06-19T14:55:59Z</time>
      </trkpt>
      <trkpt lat="47.07478" lon="5.41833">
        <ele>215</ele>
        <time>2012-06-19T14:56:01Z</time>
      </trkpt>
      <trkpt lat="47.07477" lon="5.41849">
        <ele>215</ele>
        <time>2012-06-19T14:56:03Z</time>
      </trkpt>
      <trkpt lat="47.07477" lon="5.41862">
        <ele>215</ele>
        <time>2012-06-19T14:56:05Z</time>
      </trkpt>
      <trkpt lat="47.07477" lon="5.41876">
        <ele>215</ele>
        <time>2012-06-19T14:56:07Z</time>
      </trkpt>
      <trkpt lat="47.07477" lon="5.4189">
        <ele>215</ele>
        <time>2012-06-19T14:56:09Z</time>
      </trkpt>
      <trkpt lat="47.07477" lon="5.41903">
        <ele>215</ele>
        <time>2012-06-19T14:56:11Z</time>
      </trkpt>
      <trkpt lat="47.07478" lon="5.41918">
        <ele>215</ele>
        <time>2012-06-19T14:56:13Z</time>
      </trkpt>
      <trkpt lat="47.07479" lon="5.41932">
        <ele>220</ele>
        <time>2012-06-19T14:56:15Z</time>
      </trkpt>
      <trkpt lat="47.0748" lon="5.41946">
        <ele>220</ele>
        <time>2012-06-19T14:56:17Z</time>
      </trkpt>
      <trkpt lat="47.07483" lon="5.4196">
        <ele>220</ele>
        <time>2012-06-19T14:56:19Z</time>
      </trkpt>
      <trkpt lat="47.07485" lon="5.41974">
        <ele>220</ele>
        <time>2012-06-19T14:56:21Z</time>
      </trkpt>
      <trkpt lat="47.07488" lon="5.41988">
        <ele>220</ele>
        <time>2012-06-19T14:56:23Z</time>
      </trkpt>
      <trkpt lat="47.07492" lon="5.42002">
        <ele>220</ele>
        <time>2012-06-19T14:56:25Z</time>
      </trkpt>
      <trkpt lat="47.07495" lon="5.42016">
        <ele>220</ele>
        <time>2012-06-19T14:56:27Z</time>
      </trkpt>
      <trkpt lat="47.07499" lon="5.42029">
        <ele>220</ele>
        <time>2012-06-19T14:56:29Z</time>
      </trkpt>
      <trkpt lat="47.07503" lon="5.42042">
        <ele>226</ele>
        <time>2012-06-19T14:56:31Z</time>
      </trkpt>
      <trkpt lat="47.07507" lon="5.42054">
        <ele>226</ele>
        <time>2012-06-19T14:56:33Z</time>
      </trkpt>
      <trkpt lat="47.07511" lon="5.42068">
        <ele>226</ele>
        <time>2012-06-19T14:56:35Z</time>
      </trkpt>
      <trkpt lat="47.07517" lon="5.42081">
        <ele>226</ele>
        <time>2012-06-19T14:56:37Z</time>
      </trkpt>
      <trkpt lat="47.07522" lon="5.42094">
        <ele>226</ele>
        <time>2012-06-19T14:56:39Z</time>
      </trkpt>
      <trkpt lat="47.07527" lon="5.42105">
        <ele>226</ele>
        <time>2012-06-19T14:56:41Z</time>
      </trkpt>
      <trkpt lat="47.07532" lon="5.42118">
        <ele>226</ele>
        <time>2012-06-19T14:56:43Z</time>
      </trkpt>
      <trkpt lat="47.07538" lon="5.42131">
        <ele>226</ele>
        <time>2012-06-19T14:56:45Z</time>
      </trkpt>
      <trkpt lat="47.07543" lon="5.42142">
        <ele>226</ele>
        <time>2012-06-19T14:56:47Z</time>
      </trkpt>
      <trkpt lat="47.07549" lon="5.42155">
        <ele>226</ele>
        <time>2012-06-19T14:56:49Z</time>
      </trkpt>
      <trkpt lat="47.07554" lon="5.42167">
        <ele>226</ele>
        <time>2012-06-19T14:56:51Z</time>
      </trkpt>
      <trkpt lat="47.07559" lon="5.42177">
        <ele>231</ele>
        <time>2012-06-19T14:56:53Z</time>
      </trkpt>
      <trkpt lat="47.07565" lon="5.42188">
        <ele>231</ele>
        <time>2012-06-19T14:56:55Z</time>
      </trkpt>
      <trkpt lat="47.07571" lon="5.422">
        <ele>231</ele>
        <time>2012-06-19T14:56:57Z</time>
      </trkpt>
      <trkpt lat="47.07577" lon="5.42211">
        <ele>231</ele>
        <time>2012-06-19T14:56:59Z</time>
      </trkpt>
      <trkpt lat="47.07582" lon="5.42223">
        <ele>231</ele>
        <time>2012-06-19T14:57:01Z</time>
      </trkpt>
      <trkpt lat="47.07588" lon="5.42235">
        <ele>231</ele>
        <time>2012-06-19T14:57:03Z</time>
      </trkpt>
      <trkpt lat="47.07595" lon="5.42247">
        <ele>231</ele>
        <time>2012-06-19T14:57:05Z</time>
      </trkpt>
      <trkpt lat="47.076" lon="5.42259">
        <ele>231</ele>
        <time>2012-06-19T14:57:07Z</time>
      </trkpt>
      <trkpt lat="47.07605" lon="5.42272">
        <ele>231</ele>
        <time>2012-06-19T14:57:09Z</time>
      </trkpt>
      <trkpt lat="47.07611" lon="5.42284">
        <ele>231</ele>
        <time>2012-06-19T14:57:11Z</time>
      </trkpt>
      <trkpt lat="47.07616" lon="5.42298">
        <ele>231</ele>
        <time>2012-06-19T14:57:13Z</time>
      </trkpt>
      <trkpt lat="47.07621" lon="5.42311">
        <ele>231</ele>
        <time>2012-06-19T14:57:15Z</time>
      </trkpt>
      <trkpt lat="47.07625" lon="5.42325">
        <ele>231</ele>
        <time>2012-06-19T14:57:17Z</time>
      </trkpt>
      <trkpt lat="47.0763" lon="5.42339">
        <ele>231</ele>
        <time>2012-06-19T14:57:19Z</time>
      </trkpt>
      <trkpt lat="47.07634" lon="5.42354">
        <ele>231</ele>
        <time>2012-06-19T14:57:21Z</time>
      </trkpt>
      <trkpt lat="47.07639" lon="5.42369">
        <ele>237</ele>
        <time>2012-06-19T14:57:23Z</time>
      </trkpt>
      <trkpt lat="47.07644" lon="5.42383">
        <ele>237</ele>
        <time>2012-06-19T14:57:25Z</time>
      </trkpt>
      <trkpt lat="47.07647" lon="5.42397">
        <ele>237</ele>
        <time>2012-06-19T14:57:27Z</time>
      </trkpt>
      <trkpt lat="47.07649" lon="5.42409">
        <ele>237</ele>
        <time>2012-06-19T14:57:29Z</time>
      </trkpt>
      <trkpt lat="47.07651" lon="5.42424">
        <ele>237</ele>
        <time>2012-06-19T14:57:31Z</time>
      </trkpt>
      <trkpt lat="47.07652" lon="5.42441">
        <ele>237</ele>
        <time>2012-06-19T14:57:33Z</time>
      </trkpt>
      <trkpt lat="47.07653" lon="5.42458">
        <ele>243</ele>
        <time>2012-06-19T14:57:35Z</time>
      </trkpt>
      <trkpt lat="47.07655" lon="5.42475">
        <ele>243</ele>
        <time>2012-06-19T14:57:37Z</time>
      </trkpt>
      <trkpt lat="47.07656" lon="5.42491">
        <ele>243</ele>
        <time>2012-06-19T14:57:39Z</time>
      </trkpt>
      <trkpt lat="47.07657" lon="5.42509">
        <ele>243</ele>
        <time>2012-06-19T14:57:41Z</time>
      </trkpt>
      <trkpt lat="47.07659" lon="5.42525">
        <ele>243</ele>
        <time>2012-06-19T14:57:43Z</time>
      </trkpt>
      <trkpt lat="47.0766" lon="5.42543">
        <ele>243</ele>
        <time>2012-06-19T14:57:45Z</time>
      </trkpt>
      <trkpt lat="47.0766" lon="5.42564">
        <ele>243</ele>
        <time>2012-06-19T14:57:47Z</time>
      </trkpt>
      <trkpt lat="47.0766" lon="5.42585">
        <ele>243</ele>
        <time>2012-06-19T14:57:49Z</time>
      </trkpt>
      <trkpt lat="47.07662" lon="5.42605">
        <ele>243</ele>
        <time>2012-06-19T14:57:51Z</time>
      </trkpt>
      <trkpt lat="47.07663" lon="5.42626">
        <ele>243</ele>
        <time>2012-06-19T14:57:53Z</time>
      </trkpt>
      <trkpt lat="47.07665" lon="5.42645">
        <ele>243</ele>
        <time>2012-06-19T14:57:55Z</time>
      </trkpt>
      <trkpt lat="47.07668" lon="5.42664">
        <ele>243</ele>
        <time>2012-06-19T14:57:57Z</time>
      </trkpt>
      <trkpt lat="47.0767" lon="5.42684">
        <ele>243</ele>
        <time>2012-06-19T14:57:59Z</time>
      </trkpt>
      <trkpt lat="47.0767" lon="5.42706">
        <ele>243</ele>
        <time>2012-06-19T14:58:01Z</time>
      </trkpt>
      <trkpt lat="47.07671" lon="5.42725">
        <ele>243</ele>
        <time>2012-06-19T14:58:03Z</time>
      </trkpt>
      <trkpt lat="47.07673" lon="5.42744">
        <ele>243</ele>
        <time>2012-06-19T14:58:05Z</time>
      </trkpt>
      <trkpt lat="47.07675" lon="5.42764">
        <ele>243</ele>
        <time>2012-06-19T14:58:07Z</time>
      </trkpt>
      <trkpt lat="47.07676" lon="5.42784">
        <ele>243</ele>
        <time>2012-06-19T14:58:09Z</time>
      </trkpt>
      <trkpt lat="47.07677" lon="5.42803">
        <ele>243</ele>
        <time>2012-06-19T14:58:11Z</time>
      </trkpt>
      <trkpt lat="47.07679" lon="5.42824">
        <ele>243</ele>
        <time>2012-06-19T14:58:13Z</time>
      </trkpt>
      <trkpt lat="47.07678" lon="5.42845">
        <ele>243</ele>
        <time>2012-06-19T14:58:15Z</time>
      </trkpt>
      <trkpt lat="47.07679" lon="5.42867">
        <ele>243</ele>
        <time>2012-06-19T14:58:17Z</time>
      </trkpt>
      <trkpt lat="47.07679" lon="5.4289">
        <ele>243</ele>
        <time>2012-06-19T14:58:19Z</time>
      </trkpt>
      <trkpt lat="47.07679" lon="5.42912">
        <ele>243</ele>
        <time>2012-06-19T14:58:21Z</time>
      </trkpt>
      <trkpt lat="47.07679" lon="5.42935">
        <ele>243</ele>
        <time>2012-06-19T14:58:23Z</time>
      </trkpt>
      <trkpt lat="47.07681" lon="5.42957">
        <ele>243</ele>
        <time>2012-06-19T14:58:25Z</time>
      </trkpt>
      <trkpt lat="47.07682" lon="5.42982">
        <ele>243</ele>
        <time>2012-06-19T14:58:27Z</time>
      </trkpt>
      <trkpt lat="47.07682" lon="5.43007">
        <ele>243</ele>
        <time>2012-06-19T14:58:29Z</time>
      </trkpt>
      <trkpt lat="47.07683" lon="5.43033">
        <ele>243</ele>
        <time>2012-06-19T14:58:31Z</time>
      </trkpt>
      <trkpt lat="47.07683" lon="5.43047">
        <ele>243</ele>
        <time>2012-06-19T14:58:32Z</time>
      </trkpt>
      <trkpt lat="47.07686" lon="5.43072">
        <ele>243</ele>
        <time>2012-06-19T14:58:34Z</time>
      </trkpt>
      <trkpt lat="47.07687" lon="5.43086">
        <ele>243</ele>
        <time>2012-06-19T14:58:35Z</time>
      </trkpt>
      <trkpt lat="47.07689" lon="5.431">
        <ele>243</ele>
        <time>2012-06-19T14:58:36Z</time>
      </trkpt>
      <trkpt lat="47.0769" lon="5.43113">
        <ele>237</ele>
        <time>2012-06-19T14:58:37Z</time>
      </trkpt>
      <trkpt lat="47.0769" lon="5.43129">
        <ele>237</ele>
        <time>2012-06-19T14:58:38Z</time>
      </trkpt>
      <trkpt lat="47.07692" lon="5.43142">
        <ele>237</ele>
        <time>2012-06-19T14:58:39Z</time>
      </trkpt>
      <trkpt lat="47.07693" lon="5.43156">
        <ele>237</ele>
        <time>2012-06-19T14:58:40Z</time>
      </trkpt>
      <trkpt lat="47.07693" lon="5.4317">
        <ele>237</ele>
        <time>2012-06-19T14:58:41Z</time>
      </trkpt>
      <trkpt lat="47.07695" lon="5.43184">
        <ele>237</ele>
        <time>2012-06-19T14:58:42Z</time>
      </trkpt>
      <trkpt lat="47.07696" lon="5.43199">
        <ele>237</ele>
        <time>2012-06-19T14:58:43Z</time>
      </trkpt>
      <trkpt lat="47.07697" lon="5.43213">
        <ele>237</ele>
        <time>2012-06-19T14:58:44Z</time>
      </trkpt>
      <trkpt lat="47.07699" lon="5.43227">
        <ele>237</ele>
        <time>2012-06-19T14:58:45Z</time>
      </trkpt>
      <trkpt lat="47.077" lon="5.4324">
        <ele>237</ele>
        <time>2012-06-19T14:58:46Z</time>
      </trkpt>
      <trkpt lat="47.07702" lon="5.43264">
        <ele>231</ele>
        <time>2012-06-19T14:58:48Z</time>
      </trkpt>
      <trkpt lat="47.07704" lon="5.43288">
        <ele>231</ele>
        <time>2012-06-19T14:58:50Z</time>
      </trkpt>
      <trkpt lat="47.07704" lon="5.43312">
        <ele>231</ele>
        <time>2012-06-19T14:58:52Z</time>
      </trkpt>
      <trkpt lat="47.07706" lon="5.43336">
        <ele>231</ele>
        <time>2012-06-19T14:58:54Z</time>
      </trkpt>
      <trkpt lat="47.07707" lon="5.4335">
        <ele>231</ele>
        <time>2012-06-19T14:58:55Z</time>
      </trkpt>
      <trkpt lat="47.07709" lon="5.43363">
        <ele>231</ele>
        <time>2012-06-19T14:58:56Z</time>
      </trkpt>
      <trkpt lat="47.07712" lon="5.43389">
        <ele>231</ele>
        <time>2012-06-19T14:58:58Z</time>
      </trkpt>
      <trkpt lat="47.07712" lon="5.43404">
        <ele>231</ele>
        <time>2012-06-19T14:58:59Z</time>
      </trkpt>
      <trkpt lat="47.07715" lon="5.43417">
        <ele>226</ele>
        <time>2012-06-19T14:59:00Z</time>
      </trkpt>
      <trkpt lat="47.07717" lon="5.4343">
        <ele>226</ele>
        <time>2012-06-19T14:59:01Z</time>
      </trkpt>
      <trkpt lat="47.07719" lon="5.43445">
        <ele>226</ele>
        <time>2012-06-19T14:59:02Z</time>
      </trkpt>
      <trkpt lat="47.0772" lon="5.43458">
        <ele>226</ele>
        <time>2012-06-19T14:59:03Z</time>
      </trkpt>
      <trkpt lat="47.07722" lon="5.43473">
        <ele>226</ele>
        <time>2012-06-19T14:59:04Z</time>
      </trkpt>
      <trkpt lat="47.07723" lon="5.43487">
        <ele>226</ele>
        <time>2012-06-19T14:59:05Z</time>
      </trkpt>
      <trkpt lat="47.07726" lon="5.43502">
        <ele>220</ele>
        <time>2012-06-19T14:59:06Z</time>
      </trkpt>
      <trkpt lat="47.07729" lon="5.43517">
        <ele>220</ele>
        <time>2012-06-19T14:59:07Z</time>
      </trkpt>
      <trkpt lat="47.07733" lon="5.43531">
        <ele>220</ele>
        <time>2012-06-19T14:59:08Z</time>
      </trkpt>
      <trkpt lat="47.07735" lon="5.43545">
        <ele>220</ele>
        <time>2012-06-19T14:59:09Z</time>
      </trkpt>
      <trkpt lat="47.07738" lon="5.43561">
        <ele>220</ele>
        <time>2012-06-19T14:59:10Z</time>
      </trkpt>
      <trkpt lat="47.0774" lon="5.43576">
        <ele>220</ele>
        <time>2012-06-19T14:59:11Z</time>
      </trkpt>
      <trkpt lat="47.07743" lon="5.43592">
        <ele>220</ele>
        <time>2012-06-19T14:59:12Z</time>
      </trkpt>
      <trkpt lat="47.07745" lon="5.43607">
        <ele>220</ele>
        <time>2012-06-19T14:59:13Z</time>
      </trkpt>
      <trkpt lat="47.0775" lon="5.43634">
        <ele>220</ele>
        <time>2012-06-19T14:59:15Z</time>
      </trkpt>
      <trkpt lat="47.07754" lon="5.43647">
        <ele>220</ele>
        <time>2012-06-19T14:59:16Z</time>
      </trkpt>
      <trkpt lat="47.07756" lon="5.43661">
        <ele>220</ele>
        <time>2012-06-19T14:59:17Z</time>
      </trkpt>
      <trkpt lat="47.07759" lon="5.43675">
        <ele>220</ele>
        <time>2012-06-19T14:59:18Z</time>
      </trkpt>
      <trkpt lat="47.07762" lon="5.43688">
        <ele>220</ele>
        <time>2012-06-19T14:59:19Z</time>
      </trkpt>
      <trkpt lat="47.07767" lon="5.43713">
        <ele>220</ele>
        <time>2012-06-19T14:59:21Z</time>
      </trkpt>
      <trkpt lat="47.07772" lon="5.43737">
        <ele>220</ele>
        <time>2012-06-19T14:59:23Z</time>
      </trkpt>
      <trkpt lat="47.07776" lon="5.43759">
        <ele>220</ele>
        <time>2012-06-19T14:59:25Z</time>
      </trkpt>
      <trkpt lat="47.07782" lon="5.43782">
        <ele>220</ele>
        <time>2012-06-19T14:59:27Z</time>
      </trkpt>
      <trkpt lat="47.07787" lon="5.43804">
        <ele>220</ele>
        <time>2012-06-19T14:59:29Z</time>
      </trkpt>
      <trkpt lat="47.07791" lon="5.43827">
        <ele>220</ele>
        <time>2012-06-19T14:59:31Z</time>
      </trkpt>
      <trkpt lat="47.07795" lon="5.43849">
        <ele>220</ele>
        <time>2012-06-19T14:59:33Z</time>
      </trkpt>
      <trkpt lat="47.078" lon="5.43871">
        <ele>220</ele>
        <time>2012-06-19T14:59:35Z</time>
      </trkpt>
      <trkpt lat="47.07804" lon="5.43892">
        <ele>220</ele>
        <time>2012-06-19T14:59:37Z</time>
      </trkpt>
      <trkpt lat="47.07808" lon="5.43915">
        <ele>220</ele>
        <time>2012-06-19T14:59:39Z</time>
      </trkpt>
      <trkpt lat="47.07812" lon="5.43938">
        <ele>220</ele>
        <time>2012-06-19T14:59:41Z</time>
      </trkpt>
      <trkpt lat="47.07816" lon="5.4396">
        <ele>220</ele>
        <time>2012-06-19T14:59:43Z</time>
      </trkpt>
      <trkpt lat="47.07819" lon="5.43983">
        <ele>220</ele>
        <time>2012-06-19T14:59:45Z</time>
      </trkpt>
      <trkpt lat="47.07821" lon="5.44006">
        <ele>220</ele>
        <time>2012-06-19T14:59:47Z</time>
      </trkpt>
      <trkpt lat="47.07824" lon="5.44031">
        <ele>220</ele>
        <time>2012-06-19T14:59:49Z</time>
      </trkpt>
      <trkpt lat="47.07825" lon="5.44055">
        <ele>220</ele>
        <time>2012-06-19T14:59:51Z</time>
      </trkpt>
      <trkpt lat="47.07828" lon="5.44079">
        <ele>220</ele>
        <time>2012-06-19T14:59:53Z</time>
      </trkpt>
      <trkpt lat="47.0783" lon="5.44102">
        <ele>220</ele>
        <time>2012-06-19T14:59:55Z</time>
      </trkpt>
      <trkpt lat="47.07831" lon="5.44126">
        <ele>220</ele>
        <time>2012-06-19T14:59:57Z</time>
      </trkpt>
      <trkpt lat="47.07833" lon="5.44148">
        <ele>220</ele>
        <time>2012-06-19T14:59:59Z</time>
      </trkpt>
      <trkpt lat="47.07836" lon="5.44172">
        <ele>220</ele>
        <time>2012-06-19T15:00:01Z</time>
      </trkpt>
      <trkpt lat="47.07838" lon="5.44194">
        <ele>220</ele>
        <time>2012-06-19T15:00:03Z</time>
      </trkpt>
      <trkpt lat="47.07839" lon="5.44217">
        <ele>220</ele>
        <time>2012-06-19T15:00:05Z</time>
      </trkpt>
      <trkpt lat="47.07841" lon="5.44237">
        <ele>215</ele>
        <time>2012-06-19T15:00:07Z</time>
      </trkpt>
      <trkpt lat="47.07843" lon="5.44259">
        <ele>215</ele>
        <time>2012-06-19T15:00:09Z</time>
      </trkpt>
      <trkpt lat="47.07846" lon="5.44279">
        <ele>215</ele>
        <time>2012-06-19T15:00:11Z</time>
      </trkpt>
      <trkpt lat="47.07849" lon="5.44299">
        <ele>215</ele>
        <time>2012-06-19T15:00:13Z</time>
      </trkpt>
      <trkpt lat="47.07852" lon="5.44321">
        <ele>215</ele>
        <time>2012-06-19T15:00:15Z</time>
      </trkpt>
      <trkpt lat="47.07854" lon="5.44344">
        <ele>215</ele>
        <time>2012-06-19T15:00:17Z</time>
      </trkpt>
      <trkpt lat="47.07855" lon="5.44368">
        <ele>215</ele>
        <time>2012-06-19T15:00:19Z</time>
      </trkpt>
      <trkpt lat="47.07855" lon="5.44392">
        <ele>215</ele>
        <time>2012-06-19T15:00:21Z</time>
      </trkpt>
      <trkpt lat="47.07852" lon="5.44412">
        <ele>210</ele>
        <time>2012-06-19T15:00:23Z</time>
      </trkpt>
      <trkpt lat="47.07849" lon="5.44434">
        <ele>210</ele>
        <time>2012-06-19T15:00:25Z</time>
      </trkpt>
      <trkpt lat="47.07846" lon="5.44455">
        <ele>210</ele>
        <time>2012-06-19T15:00:27Z</time>
      </trkpt>
      <trkpt lat="47.07843" lon="5.44479">
        <ele>210</ele>
        <time>2012-06-19T15:00:29Z</time>
      </trkpt>
      <trkpt lat="47.07839" lon="5.44504">
        <ele>210</ele>
        <time>2012-06-19T15:00:31Z</time>
      </trkpt>
      <trkpt lat="47.07838" lon="5.44517">
        <ele>210</ele>
        <time>2012-06-19T15:00:32Z</time>
      </trkpt>
      <trkpt lat="47.07836" lon="5.44532">
        <ele>210</ele>
        <time>2012-06-19T15:00:33Z</time>
      </trkpt>
      <trkpt lat="47.07833" lon="5.44545">
        <ele>210</ele>
        <time>2012-06-19T15:00:34Z</time>
      </trkpt>
      <trkpt lat="47.07831" lon="5.4456">
        <ele>210</ele>
        <time>2012-06-19T15:00:35Z</time>
      </trkpt>
      <trkpt lat="47.0783" lon="5.44573">
        <ele>210</ele>
        <time>2012-06-19T15:00:36Z</time>
      </trkpt>
      <trkpt lat="47.07827" lon="5.44588">
        <ele>210</ele>
        <time>2012-06-19T15:00:37Z</time>
      </trkpt>
      <trkpt lat="47.07825" lon="5.44601">
        <ele>210</ele>
        <time>2012-06-19T15:00:38Z</time>
      </trkpt>
      <trkpt lat="47.07824" lon="5.44615">
        <ele>210</ele>
        <time>2012-06-19T15:00:39Z</time>
      </trkpt>
      <trkpt lat="47.07822" lon="5.4463">
        <ele>210</ele>
        <time>2012-06-19T15:00:40Z</time>
      </trkpt>
      <trkpt lat="47.07819" lon="5.44656">
        <ele>210</ele>
        <time>2012-06-19T15:00:42Z</time>
      </trkpt>
      <trkpt lat="47.07819" lon="5.44669">
        <ele>210</ele>
        <time>2012-06-19T15:00:43Z</time>
      </trkpt>
      <trkpt lat="47.07818" lon="5.44683">
        <ele>210</ele>
        <time>2012-06-19T15:00:44Z</time>
      </trkpt>
      <trkpt lat="47.07817" lon="5.44697">
        <ele>210</ele>
        <time>2012-06-19T15:00:45Z</time>
      </trkpt>
      <trkpt lat="47.07817" lon="5.44722">
        <ele>210</ele>
        <time>2012-06-19T15:00:47Z</time>
      </trkpt>
      <trkpt lat="47.07817" lon="5.44747">
        <ele>210</ele>
        <time>2012-06-19T15:00:49Z</time>
      </trkpt>
      <trkpt lat="47.07818" lon="5.44772">
        <ele>210</ele>
        <time>2012-06-19T15:00:51Z</time>
      </trkpt>
      <trkpt lat="47.0782" lon="5.44793">
        <ele>210</ele>
        <time>2012-06-19T15:00:53Z</time>
      </trkpt>
      <trkpt lat="47.07823" lon="5.44814">
        <ele>210</ele>
        <time>2012-06-19T15:00:55Z</time>
      </trkpt>
      <trkpt lat="47.07828" lon="5.44834">
        <ele>210</ele>
        <time>2012-06-19T15:00:57Z</time>
      </trkpt>
      <trkpt lat="47.07836" lon="5.44852">
        <ele>210</ele>
        <time>2012-06-19T15:00:59Z</time>
      </trkpt>
      <trkpt lat="47.07844" lon="5.4487">
        <ele>210</ele>
        <time>2012-06-19T15:01:01Z</time>
      </trkpt>
      <trkpt lat="47.07852" lon="5.44886">
        <ele>210</ele>
        <time>2012-06-19T15:01:03Z</time>
      </trkpt>
      <trkpt lat="47.07861" lon="5.44901">
        <ele>210</ele>
        <time>2012-06-19T15:01:05Z</time>
      </trkpt>
      <trkpt lat="47.07868" lon="5.44916">
        <ele>210</ele>
        <time>2012-06-19T15:01:07Z</time>
      </trkpt>
      <trkpt lat="47.07876" lon="5.44931">
        <ele>210</ele>
        <time>2012-06-19T15:01:09Z</time>
      </trkpt>
      <trkpt lat="47.07883" lon="5.44946">
        <ele>210</ele>
        <time>2012-06-19T15:01:11Z</time>
      </trkpt>
      <trkpt lat="47.0789" lon="5.44961">
        <ele>210</ele>
        <time>2012-06-19T15:01:13Z</time>
      </trkpt>
      <trkpt lat="47.07899" lon="5.44976">
        <ele>210</ele>
        <time>2012-06-19T15:01:15Z</time>
      </trkpt>
      <trkpt lat="47.07907" lon="5.44992">
        <ele>210</ele>
        <time>2012-06-19T15:01:17Z</time>
      </trkpt>
      <trkpt lat="47.07915" lon="5.45009">
        <ele>210</ele>
        <time>2012-06-19T15:01:19Z</time>
      </trkpt>
      <trkpt lat="47.07924" lon="5.45025">
        <ele>210</ele>
        <time>2012-06-19T15:01:21Z</time>
      </trkpt>
      <trkpt lat="47.07933" lon="5.45042">
        <ele>210</ele>
        <time>2012-06-19T15:01:23Z</time>
      </trkpt>
      <trkpt lat="47.07942" lon="5.4506">
        <ele>210</ele>
        <time>2012-06-19T15:01:25Z</time>
      </trkpt>
      <trkpt lat="47.07951" lon="5.45077">
        <ele>210</ele>
        <time>2012-06-19T15:01:27Z</time>
      </trkpt>
      <trkpt lat="47.07959" lon="5.45095">
        <ele>210</ele>
        <time>2012-06-19T15:01:29Z</time>
      </trkpt>
      <trkpt lat="47.07967" lon="5.45112">
        <ele>210</ele>
        <time>2012-06-19T15:01:31Z</time>
      </trkpt>
      <trkpt lat="47.07975" lon="5.45128">
        <ele>210</ele>
        <time>2012-06-19T15:01:33Z</time>
      </trkpt>
      <trkpt lat="47.07983" lon="5.45144">
        <ele>210</ele>
        <time>2012-06-19T15:01:35Z</time>
      </trkpt>
      <trkpt lat="47.07991" lon="5.4516">
        <ele>210</ele>
        <time>2012-06-19T15:01:37Z</time>
      </trkpt>
      <trkpt lat="47.07998" lon="5.45174">
        <ele>210</ele>
        <time>2012-06-19T15:01:39Z</time>
      </trkpt>
      <trkpt lat="47.08006" lon="5.45189">
        <ele>210</ele>
        <time>2012-06-19T15:01:41Z</time>
      </trkpt>
      <trkpt lat="47.08011" lon="5.45203">
        <ele>210</ele>
        <time>2012-06-19T15:01:43Z</time>
      </trkpt>
      <trkpt lat="47.08017" lon="5.45216">
        <ele>210</ele>
        <time>2012-06-19T15:01:45Z</time>
      </trkpt>
      <trkpt lat="47.08024" lon="5.4523">
        <ele>210</ele>
        <time>2012-06-19T15:01:47Z</time>
      </trkpt>
      <trkpt lat="47.08029" lon="5.45243">
        <ele>210</ele>
        <time>2012-06-19T15:01:49Z</time>
      </trkpt>
      <trkpt lat="47.08034" lon="5.45257">
        <ele>210</ele>
        <time>2012-06-19T15:01:51Z</time>
      </trkpt>
      <trkpt lat="47.08038" lon="5.45271">
        <ele>210</ele>
        <time>2012-06-19T15:01:53Z</time>
      </trkpt>
      <trkpt lat="47.08037" lon="5.45286">
        <ele>210</ele>
        <time>2012-06-19T15:01:55Z</time>
      </trkpt>
      <trkpt lat="47.08032" lon="5.45298">
        <ele>210</ele>
        <time>2012-06-19T15:01:57Z</time>
      </trkpt>
      <trkpt lat="47.08024" lon="5.45308">
        <ele>210</ele>
        <time>2012-06-19T15:01:59Z</time>
      </trkpt>
      <trkpt lat="47.08014" lon="5.45318">
        <ele>210</ele>
        <time>2012-06-19T15:02:01Z</time>
      </trkpt>
      <trkpt lat="47.08004" lon="5.45329">
        <ele>210</ele>
        <time>2012-06-19T15:02:03Z</time>
      </trkpt>
      <trkpt lat="47.07994" lon="5.45339">
        <ele>210</ele>
        <time>2012-06-19T15:02:05Z</time>
      </trkpt>
      <trkpt lat="47.07983" lon="5.45352">
        <ele>210</ele>
        <time>2012-06-19T15:02:07Z</time>
      </trkpt>
      <trkpt lat="47.07973" lon="5.45365">
        <ele>210</ele>
        <time>2012-06-19T15:02:09Z</time>
      </trkpt>
      <trkpt lat="47.07963" lon="5.4538">
        <ele>210</ele>
        <time>2012-06-19T15:02:11Z</time>
      </trkpt>
      <trkpt lat="47.07954" lon="5.45393">
        <ele>210</ele>
        <time>2012-06-19T15:02:13Z</time>
      </trkpt>
      <trkpt lat="47.07945" lon="5.45409">
        <ele>210</ele>
        <time>2012-06-19T15:02:15Z</time>
      </trkpt>
      <trkpt lat="47.07938" lon="5.45426">
        <ele>210</ele>
        <time>2012-06-19T15:02:17Z</time>
      </trkpt>
      <trkpt lat="47.07933" lon="5.4544">
        <ele>210</ele>
        <time>2012-06-19T15:02:19Z</time>
      </trkpt>
      <trkpt lat="47.07927" lon="5.45453">
        <ele>210</ele>
        <time>2012-06-19T15:02:21Z</time>
      </trkpt>
      <trkpt lat="47.07915" lon="5.45462">
        <ele>210</ele>
        <time>2012-06-19T15:02:24Z</time>
      </trkpt>
      <trkpt lat="47.07904" lon="5.45462">
        <ele>210</ele>
        <time>2012-06-19T15:02:26Z</time>
      </trkpt>
      <trkpt lat="47.07892" lon="5.45459">
        <ele>210</ele>
        <time>2012-06-19T15:02:28Z</time>
      </trkpt>
      <trkpt lat="47.0788" lon="5.45455">
        <ele>210</ele>
        <time>2012-06-19T15:02:30Z</time>
      </trkpt>
      <trkpt lat="47.07869" lon="5.4545">
        <ele>210</ele>
        <time>2012-06-19T15:02:32Z</time>
      </trkpt>
      <trkpt lat="47.07858" lon="5.45442">
        <ele>210</ele>
        <time>2012-06-19T15:02:34Z</time>
      </trkpt>
      <trkpt lat="47.07849" lon="5.4543">
        <ele>210</ele>
        <time>2012-06-19T15:02:36Z</time>
      </trkpt>
      <trkpt lat="47.07839" lon="5.45418">
        <ele>210</ele>
        <time>2012-06-19T15:02:38Z</time>
      </trkpt>
      <trkpt lat="47.07831" lon="5.45407">
        <ele>210</ele>
        <time>2012-06-19T15:02:40Z</time>
      </trkpt>
      <trkpt lat="47.07822" lon="5.45397">
        <ele>210</ele>
        <time>2012-06-19T15:02:42Z</time>
      </trkpt>
      <trkpt lat="47.07814" lon="5.45388">
        <ele>210</ele>
        <time>2012-06-19T15:02:44Z</time>
      </trkpt>
      <trkpt lat="47.07803" lon="5.45384">
        <ele>210</ele>
        <time>2012-06-19T15:02:46Z</time>
      </trkpt>
      <trkpt lat="47.07792" lon="5.45387">
        <ele>210</ele>
        <time>2012-06-19T15:02:48Z</time>
      </trkpt>
      <trkpt lat="47.07782" lon="5.45393">
        <ele>210</ele>
        <time>2012-06-19T15:02:50Z</time>
      </trkpt>
      <trkpt lat="47.07774" lon="5.45404">
        <ele>210</ele>
        <time>2012-06-19T15:02:52Z</time>
      </trkpt>
      <trkpt lat="47.07767" lon="5.45416">
        <ele>210</ele>
        <time>2012-06-19T15:02:54Z</time>
      </trkpt>
      <trkpt lat="47.0776" lon="5.45427">
        <ele>210</ele>
        <time>2012-06-19T15:02:56Z</time>
      </trkpt>
      <trkpt lat="47.07753" lon="5.4544">
        <ele>210</ele>
        <time>2012-06-19T15:02:58Z</time>
      </trkpt>
      <trkpt lat="47.07746" lon="5.45452">
        <ele>210</ele>
        <time>2012-06-19T15:03:00Z</time>
      </trkpt>
      <trkpt lat="47.07739" lon="5.45463">
        <ele>210</ele>
        <time>2012-06-19T15:03:02Z</time>
      </trkpt>
      <trkpt lat="47.07732" lon="5.45475">
        <ele>210</ele>
        <time>2012-06-19T15:03:04Z</time>
      </trkpt>
      <trkpt lat="47.07725" lon="5.45488">
        <ele>210</ele>
        <time>2012-06-19T15:03:06Z</time>
      </trkpt>
      <trkpt lat="47.07717" lon="5.45501">
        <ele>210</ele>
        <time>2012-06-19T15:03:08Z</time>
      </trkpt>
      <trkpt lat="47.07709" lon="5.45514">
        <ele>210</ele>
        <time>2012-06-19T15:03:10Z</time>
      </trkpt>
      <trkpt lat="47.07701" lon="5.45526">
        <ele>210</ele>
        <time>2012-06-19T15:03:12Z</time>
      </trkpt>
      <trkpt lat="47.07694" lon="5.45539">
        <ele>210</ele>
        <time>2012-06-19T15:03:14Z</time>
      </trkpt>
      <trkpt lat="47.07687" lon="5.45551">
        <ele>210</ele>
        <time>2012-06-19T15:03:16Z</time>
      </trkpt>
      <trkpt lat="47.07679" lon="5.45564">
        <ele>210</ele>
        <time>2012-06-19T15:03:18Z</time>
      </trkpt>
      <trkpt lat="47.07672" lon="5.45576">
        <ele>210</ele>
        <time>2012-06-19T15:03:20Z</time>
      </trkpt>
      <trkpt lat="47.07665" lon="5.45587">
        <ele>210</ele>
        <time>2012-06-19T15:03:22Z</time>
      </trkpt>
      <trkpt lat="47.07658" lon="5.456">
        <ele>210</ele>
        <time>2012-06-19T15:03:24Z</time>
      </trkpt>
      <trkpt lat="47.07651" lon="5.45612">
        <ele>210</ele>
        <time>2012-06-19T15:03:26Z</time>
      </trkpt>
      <trkpt lat="47.07644" lon="5.45623">
        <ele>210</ele>
        <time>2012-06-19T15:03:28Z</time>
      </trkpt>
      <trkpt lat="47.07636" lon="5.45636">
        <ele>215</ele>
        <time>2012-06-19T15:03:30Z</time>
      </trkpt>
      <trkpt lat="47.07629" lon="5.45648">
        <ele>215</ele>
        <time>2012-06-19T15:03:32Z</time>
      </trkpt>
      <trkpt lat="47.07622" lon="5.45659">
        <ele>215</ele>
        <time>2012-06-19T15:03:34Z</time>
      </trkpt>
      <trkpt lat="47.07614" lon="5.45671">
        <ele>215</ele>
        <time>2012-06-19T15:03:36Z</time>
      </trkpt>
      <trkpt lat="47.07607" lon="5.45683">
        <ele>215</ele>
        <time>2012-06-19T15:03:38Z</time>
      </trkpt>
      <trkpt lat="47.076" lon="5.45694">
        <ele>215</ele>
        <time>2012-06-19T15:03:40Z</time>
      </trkpt>
      <trkpt lat="47.07593" lon="5.45706">
        <ele>215</ele>
        <time>2012-06-19T15:03:42Z</time>
      </trkpt>
      <trkpt lat="47.07585" lon="5.45717">
        <ele>215</ele>
        <time>2012-06-19T15:03:44Z</time>
      </trkpt>
      <trkpt lat="47.07579" lon="5.45728">
        <ele>215</ele>
        <time>2012-06-19T15:03:46Z</time>
      </trkpt>
      <trkpt lat="47.07573" lon="5.45739">
        <ele>215</ele>
        <time>2012-06-19T15:03:48Z</time>
      </trkpt>
      <trkpt lat="47.07565" lon="5.4575">
        <ele>215</ele>
        <time>2012-06-19T15:03:50Z</time>
      </trkpt>
      <trkpt lat="47.07558" lon="5.45762">
        <ele>220</ele>
        <time>2012-06-19T15:03:52Z</time>
      </trkpt>
      <trkpt lat="47.07552" lon="5.45772">
        <ele>220</ele>
        <time>2012-06-19T15:03:54Z</time>
      </trkpt>
      <trkpt lat="47.07544" lon="5.45783">
        <ele>220</ele>
        <time>2012-06-19T15:03:57Z</time>
      </trkpt>
      <trkpt lat="47.07535" lon="5.45791">
        <ele>220</ele>
        <time>2012-06-19T15:04:01Z</time>
      </trkpt>
      <trkpt lat="47.07542" lon="5.458">
        <ele>220</ele>
        <time>2012-06-19T15:04:18Z</time>
      </trkpt>
      <trkpt lat="47.07552" lon="5.45801">
        <ele>220</ele>
        <time>2012-06-19T15:04:38Z</time>
      </trkpt>
      <trkpt lat="47.07561" lon="5.45808">
        <ele>220</ele>
        <time>2012-06-19T15:04:42Z</time>
      </trkpt>
      <trkpt lat="47.07572" lon="5.45818">
        <ele>220</ele>
        <time>2012-06-19T15:04:45Z</time>
      </trkpt>
      <trkpt lat="47.07581" lon="5.45825">
        <ele>220</ele>
        <time>2012-06-19T15:04:47Z</time>
      </trkpt>
      <trkpt lat="47.0759" lon="5.45833">
        <ele>220</ele>
        <time>2012-06-19T15:04:49Z</time>
      </trkpt>
      <trkpt lat="47.07598" lon="5.45842">
        <ele>220</ele>
        <time>2012-06-19T15:04:51Z</time>
      </trkpt>
      <trkpt lat="47.07606" lon="5.4585">
        <ele>220</ele>
        <time>2012-06-19T15:04:53Z</time>
      </trkpt>
      <trkpt lat="47.07613" lon="5.45858">
        <ele>220</ele>
        <time>2012-06-19T15:04:55Z</time>
      </trkpt>
      <trkpt lat="47.07621" lon="5.45866">
        <ele>220</ele>
        <time>2012-06-19T15:04:57Z</time>
      </trkpt>
      <trkpt lat="47.0763" lon="5.45874">
        <ele>220</ele>
        <time>2012-06-19T15:04:59Z</time>
      </trkpt>
      <trkpt lat="47.07638" lon="5.45882">
        <ele>220</ele>
        <time>2012-06-19T15:05:01Z</time>
      </trkpt>
      <trkpt lat="47.07647" lon="5.45891">
        <ele>220</ele>
        <time>2012-06-19T15:05:03Z</time>
      </trkpt>
      <trkpt lat="47.07655" lon="5.45899">
        <ele>220</ele>
        <time>2012-06-19T15:05:05Z</time>
      </trkpt>
      <trkpt lat="47.07664" lon="5.45907">
        <ele>220</ele>
        <time>2012-06-19T15:05:07Z</time>
      </trkpt>
      <trkpt lat="47.07673" lon="5.45916">
        <ele>220</ele>
        <time>2012-06-19T15:05:09Z</time>
      </trkpt>
      <trkpt lat="47.07681" lon="5.45924">
        <ele>220</ele>
        <time>2012-06-19T15:05:11Z</time>
      </trkpt>
      <trkpt lat="47.0769" lon="5.45932">
        <ele>220</ele>
        <time>2012-06-19T15:05:13Z</time>
      </trkpt>
      <trkpt lat="47.07699" lon="5.4594">
        <ele>220</ele>
        <time>2012-06-19T15:05:15Z</time>
      </trkpt>
      <trkpt lat="47.07708" lon="5.45948">
        <ele>220</ele>
        <time>2012-06-19T15:05:17Z</time>
      </trkpt>
      <trkpt lat="47.07716" lon="5.45957">
        <ele>220</ele>
        <time>2012-06-19T15:05:19Z</time>
      </trkpt>
      <trkpt lat="47.07725" lon="5.45966">
        <ele>220</ele>
        <time>2012-06-19T15:05:21Z</time>
      </trkpt>
      <trkpt lat="47.07733" lon="5.45974">
        <ele>226</ele>
        <time>2012-06-19T15:05:23Z</time>
      </trkpt>
      <trkpt lat="47.07741" lon="5.45982">
        <ele>226</ele>
        <time>2012-06-19T15:05:25Z</time>
      </trkpt>
      <trkpt lat="47.07749" lon="5.4599">
        <ele>226</ele>
        <time>2012-06-19T15:05:27Z</time>
      </trkpt>
      <trkpt lat="47.07757" lon="5.45997">
        <ele>226</ele>
        <time>2012-06-19T15:05:29Z</time>
      </trkpt>
      <trkpt lat="47.07765" lon="5.46005">
        <ele>226</ele>
        <time>2012-06-19T15:05:31Z</time>
      </trkpt>
      <trkpt lat="47.07773" lon="5.46013">
        <ele>226</ele>
        <time>2012-06-19T15:05:33Z</time>
      </trkpt>
      <trkpt lat="47.07781" lon="5.46021">
        <ele>226</ele>
        <time>2012-06-19T15:05:35Z</time>
      </trkpt>
      <trkpt lat="47.07789" lon="5.46029">
        <ele>226</ele>
        <time>2012-06-19T15:05:37Z</time>
      </trkpt>
      <trkpt lat="47.07798" lon="5.46037">
        <ele>226</ele>
        <time>2012-06-19T15:05:39Z</time>
      </trkpt>
      <trkpt lat="47.07806" lon="5.46045">
        <ele>226</ele>
        <time>2012-06-19T15:05:41Z</time>
      </trkpt>
      <trkpt lat="47.07814" lon="5.46054">
        <ele>226</ele>
        <time>2012-06-19T15:05:43Z</time>
      </trkpt>
      <trkpt lat="47.07824" lon="5.46063">
        <ele>226</ele>
        <time>2012-06-19T15:05:45Z</time>
      </trkpt>
      <trkpt lat="47.07833" lon="5.4607">
        <ele>226</ele>
        <time>2012-06-19T15:05:47Z</time>
      </trkpt>
      <trkpt lat="47.07842" lon="5.46077">
        <ele>226</ele>
        <time>2012-06-19T15:05:49Z</time>
      </trkpt>
      <trkpt lat="47.07851" lon="5.46084">
        <ele>226</ele>
        <time>2012-06-19T15:05:51Z</time>
      </trkpt>
      <trkpt lat="47.07858" lon="5.4609">
        <ele>226</ele>
        <time>2012-06-19T15:05:53Z</time>
      </trkpt>
      <trkpt lat="47.07866" lon="5.46098">
        <ele>226</ele>
        <time>2012-06-19T15:05:55Z</time>
      </trkpt>
      <trkpt lat="47.07875" lon="5.46106">
        <ele>226</ele>
        <time>2012-06-19T15:05:57Z</time>
      </trkpt>
      <trkpt lat="47.07883" lon="5.46115">
        <ele>226</ele>
        <time>2012-06-19T15:05:59Z</time>
      </trkpt>
      <trkpt lat="47.07891" lon="5.46123">
        <ele>226</ele>
        <time>2012-06-19T15:06:01Z</time>
      </trkpt>
      <trkpt lat="47.07899" lon="5.46132">
        <ele>226</ele>
        <time>2012-06-19T15:06:03Z</time>
      </trkpt>
      <trkpt lat="47.07908" lon="5.4614">
        <ele>226</ele>
        <time>2012-06-19T15:06:05Z</time>
      </trkpt>
      <trkpt lat="47.07916" lon="5.46149">
        <ele>231</ele>
        <time>2012-06-19T15:06:07Z</time>
      </trkpt>
      <trkpt lat="47.07925" lon="5.46156">
        <ele>231</ele>
        <time>2012-06-19T15:06:09Z</time>
      </trkpt>
      <trkpt lat="47.07935" lon="5.46164">
        <ele>231</ele>
        <time>2012-06-19T15:06:11Z</time>
      </trkpt>
      <trkpt lat="47.07944" lon="5.46169">
        <ele>231</ele>
        <time>2012-06-19T15:06:13Z</time>
      </trkpt>
      <trkpt lat="47.07955" lon="5.46175">
        <ele>231</ele>
        <time>2012-06-19T15:06:15Z</time>
      </trkpt>
      <trkpt lat="47.07966" lon="5.46178">
        <ele>231</ele>
        <time>2012-06-19T15:06:17Z</time>
      </trkpt>
      <trkpt lat="47.07976" lon="5.46183">
        <ele>231</ele>
        <time>2012-06-19T15:06:19Z</time>
      </trkpt>
      <trkpt lat="47.07987" lon="5.46188">
        <ele>231</ele>
        <time>2012-06-19T15:06:21Z</time>
      </trkpt>
      <trkpt lat="47.07998" lon="5.46194">
        <ele>231</ele>
        <time>2012-06-19T15:06:23Z</time>
      </trkpt>
      <trkpt lat="47.08009" lon="5.46199">
        <ele>231</ele>
        <time>2012-06-19T15:06:25Z</time>
      </trkpt>
      <trkpt lat="47.08021" lon="5.46206">
        <ele>231</ele>
        <time>2012-06-19T15:06:27Z</time>
      </trkpt>
      <trkpt lat="47.08032" lon="5.46216">
        <ele>231</ele>
        <time>2012-06-19T15:06:29Z</time>
      </trkpt>
      <trkpt lat="47.08036" lon="5.46228">
        <ele>231</ele>
        <time>2012-06-19T15:06:31Z</time>
      </trkpt>
      <trkpt lat="47.08034" lon="5.46244">
        <ele>231</ele>
        <time>2012-06-19T15:06:34Z</time>
      </trkpt>
      <trkpt lat="47.08029" lon="5.4626">
        <ele>231</ele>
        <time>2012-06-19T15:06:37Z</time>
      </trkpt>
      <trkpt lat="47.08024" lon="5.46276">
        <ele>231</ele>
        <time>2012-06-19T15:06:40Z</time>
      </trkpt>
      <trkpt lat="47.08018" lon="5.46293">
        <ele>231</ele>
        <time>2012-06-19T15:06:43Z</time>
      </trkpt>
      <trkpt lat="47.08011" lon="5.46302">
        <ele>231</ele>
        <time>2012-06-19T15:06:45Z</time>
      </trkpt>
      <trkpt lat="47.08001" lon="5.46315">
        <ele>231</ele>
        <time>2012-06-19T15:06:48Z</time>
      </trkpt>
      <trkpt lat="47.08" lon="5.46333">
        <ele>231</ele>
        <time>2012-06-19T15:06:51Z</time>
      </trkpt>
      <trkpt lat="47.08005" lon="5.46345">
        <ele>231</ele>
        <time>2012-06-19T15:06:53Z</time>
      </trkpt>
      <trkpt lat="47.08011" lon="5.46356">
        <ele>231</ele>
        <time>2012-06-19T15:06:55Z</time>
      </trkpt>
      <trkpt lat="47.08016" lon="5.46371">
        <ele>231</ele>
        <time>2012-06-19T15:06:57Z</time>
      </trkpt>
      <trkpt lat="47.08021" lon="5.46385">
        <ele>231</ele>
        <time>2012-06-19T15:06:59Z</time>
      </trkpt>
      <trkpt lat="47.08025" lon="5.46399">
        <ele>231</ele>
        <time>2012-06-19T15:07:01Z</time>
      </trkpt>
      <trkpt lat="47.08029" lon="5.46414">
        <ele>231</ele>
        <time>2012-06-19T15:07:03Z</time>
      </trkpt>
      <trkpt lat="47.08034" lon="5.46429">
        <ele>231</ele>
        <time>2012-06-19T15:07:05Z</time>
      </trkpt>
      <trkpt lat="47.0804" lon="5.46443">
        <ele>231</ele>
        <time>2012-06-19T15:07:07Z</time>
      </trkpt>
      <trkpt lat="47.08047" lon="5.46456">
        <ele>231</ele>
        <time>2012-06-19T15:07:09Z</time>
      </trkpt>
      <trkpt lat="47.08055" lon="5.46471">
        <ele>231</ele>
        <time>2012-06-19T15:07:11Z</time>
      </trkpt>
      <trkpt lat="47.08063" lon="5.46487">
        <ele>231</ele>
        <time>2012-06-19T15:07:13Z</time>
      </trkpt>
      <trkpt lat="47.08071" lon="5.46502">
        <ele>231</ele>
        <time>2012-06-19T15:07:15Z</time>
      </trkpt>
      <trkpt lat="47.08081" lon="5.46517">
        <ele>231</ele>
        <time>2012-06-19T15:07:17Z</time>
      </trkpt>
      <trkpt lat="47.0809" lon="5.46532">
        <ele>231</ele>
        <time>2012-06-19T15:07:19Z</time>
      </trkpt>
      <trkpt lat="47.08098" lon="5.46548">
        <ele>231</ele>
        <time>2012-06-19T15:07:21Z</time>
      </trkpt>
      <trkpt lat="47.08105" lon="5.46563">
        <ele>231</ele>
        <time>2012-06-19T15:07:23Z</time>
      </trkpt>
      <trkpt lat="47.08114" lon="5.4658">
        <ele>231</ele>
        <time>2012-06-19T15:07:25Z</time>
      </trkpt>
      <trkpt lat="47.08122" lon="5.46596">
        <ele>231</ele>
        <time>2012-06-19T15:07:27Z</time>
      </trkpt>
      <trkpt lat="47.08129" lon="5.4661">
        <ele>231</ele>
        <time>2012-06-19T15:07:29Z</time>
      </trkpt>
      <trkpt lat="47.08135" lon="5.46621">
        <ele>231</ele>
        <time>2012-06-19T15:07:31Z</time>
      </trkpt>
      <trkpt lat="47.08142" lon="5.46637">
        <ele>237</ele>
        <time>2012-06-19T15:07:34Z</time>
      </trkpt>
      <trkpt lat="47.08149" lon="5.46651">
        <ele>237</ele>
        <time>2012-06-19T15:07:37Z</time>
      </trkpt>
      <trkpt lat="47.08156" lon="5.46664">
        <ele>237</ele>
        <time>2012-06-19T15:07:40Z</time>
      </trkpt>
      <trkpt lat="47.08163" lon="5.46679">
        <ele>237</ele>
        <time>2012-06-19T15:07:43Z</time>
      </trkpt>
      <trkpt lat="47.08171" lon="5.46694">
        <ele>237</ele>
        <time>2012-06-19T15:07:46Z</time>
      </trkpt>
      <trkpt lat="47.08176" lon="5.4671">
        <ele>237</ele>
        <time>2012-06-19T15:07:49Z</time>
      </trkpt>
      <trkpt lat="47.08181" lon="5.46727">
        <ele>237</ele>
        <time>2012-06-19T15:07:52Z</time>
      </trkpt>
      <trkpt lat="47.08186" lon="5.46745">
        <ele>237</ele>
        <time>2012-06-19T15:07:55Z</time>
      </trkpt>
      <trkpt lat="47.08188" lon="5.46763">
        <ele>242</ele>
        <time>2012-06-19T15:07:58Z</time>
      </trkpt>
      <trkpt lat="47.0819" lon="5.46782">
        <ele>242</ele>
        <time>2012-06-19T15:08:01Z</time>
      </trkpt>
      <trkpt lat="47.0819" lon="5.46796">
        <ele>242</ele>
        <time>2012-06-19T15:08:03Z</time>
      </trkpt>
      <trkpt lat="47.08189" lon="5.46814">
        <ele>242</ele>
        <time>2012-06-19T15:08:06Z</time>
      </trkpt>
      <trkpt lat="47.08186" lon="5.46833">
        <ele>242</ele>
        <time>2012-06-19T15:08:09Z</time>
      </trkpt>
      <trkpt lat="47.08184" lon="5.46846">
        <ele>242</ele>
        <time>2012-06-19T15:08:11Z</time>
      </trkpt>
      <trkpt lat="47.08181" lon="5.46858">
        <ele>242</ele>
        <time>2012-06-19T15:08:13Z</time>
      </trkpt>
      <trkpt lat="47.08179" lon="5.46872">
        <ele>242</ele>
        <time>2012-06-19T15:08:15Z</time>
      </trkpt>
      <trkpt lat="47.08176" lon="5.46891">
        <ele>242</ele>
        <time>2012-06-19T15:08:18Z</time>
      </trkpt>
      <trkpt lat="47.08175" lon="5.46911">
        <ele>242</ele>
        <time>2012-06-19T15:08:21Z</time>
      </trkpt>
      <trkpt lat="47.08171" lon="5.46929">
        <ele>248</ele>
        <time>2012-06-19T15:08:24Z</time>
      </trkpt>
      <trkpt lat="47.08168" lon="5.46946">
        <ele>248</ele>
        <time>2012-06-19T15:08:27Z</time>
      </trkpt>
      <trkpt lat="47.08167" lon="5.46965">
        <ele>248</ele>
        <time>2012-06-19T15:08:30Z</time>
      </trkpt>
      <trkpt lat="47.08174" lon="5.46981">
        <ele>248</ele>
        <time>2012-06-19T15:08:33Z</time>
      </trkpt>
      <trkpt lat="47.08181" lon="5.4699">
        <ele>248</ele>
        <time>2012-06-19T15:08:35Z</time>
      </trkpt>
      <trkpt lat="47.08192" lon="5.46999">
        <ele>248</ele>
        <time>2012-06-19T15:08:38Z</time>
      </trkpt>
      <trkpt lat="47.08203" lon="5.47008">
        <ele>248</ele>
        <time>2012-06-19T15:08:41Z</time>
      </trkpt>
      <trkpt lat="47.08213" lon="5.47016">
        <ele>248</ele>
        <time>2012-06-19T15:08:44Z</time>
      </trkpt>
      <trkpt lat="47.08224" lon="5.47024">
        <ele>248</ele>
        <time>2012-06-19T15:08:47Z</time>
      </trkpt>
      <trkpt lat="47.08233" lon="5.47032">
        <ele>248</ele>
        <time>2012-06-19T15:08:50Z</time>
      </trkpt>
      <trkpt lat="47.08243" lon="5.47042">
        <ele>248</ele>
        <time>2012-06-19T15:08:53Z</time>
      </trkpt>
      <trkpt lat="47.08252" lon="5.47052">
        <ele>248</ele>
        <time>2012-06-19T15:08:56Z</time>
      </trkpt>
      <trkpt lat="47.08262" lon="5.47063">
        <ele>248</ele>
        <time>2012-06-19T15:08:59Z</time>
      </trkpt>
      <trkpt lat="47.08271" lon="5.47073">
        <ele>248</ele>
        <time>2012-06-19T15:09:02Z</time>
      </trkpt>
      <trkpt lat="47.08281" lon="5.47083">
        <ele>248</ele>
        <time>2012-06-19T15:09:05Z</time>
      </trkpt>
      <trkpt lat="47.08289" lon="5.47094">
        <ele>248</ele>
        <time>2012-06-19T15:09:08Z</time>
      </trkpt>
      <trkpt lat="47.08298" lon="5.47103">
        <ele>248</ele>
        <time>2012-06-19T15:09:11Z</time>
      </trkpt>
      <trkpt lat="47.08308" lon="5.47113">
        <ele>253</ele>
        <time>2012-06-19T15:09:14Z</time>
      </trkpt>
      <trkpt lat="47.08316" lon="5.47123">
        <ele>253</ele>
        <time>2012-06-19T15:09:17Z</time>
      </trkpt>
      <trkpt lat="47.08324" lon="5.47133">
        <ele>253</ele>
        <time>2012-06-19T15:09:20Z</time>
      </trkpt>
      <trkpt lat="47.08333" lon="5.47143">
        <ele>253</ele>
        <time>2012-06-19T15:09:23Z</time>
      </trkpt>
      <trkpt lat="47.08341" lon="5.47154">
        <ele>253</ele>
        <time>2012-06-19T15:09:26Z</time>
      </trkpt>
      <trkpt lat="47.08349" lon="5.47167">
        <ele>253</ele>
        <time>2012-06-19T15:09:29Z</time>
      </trkpt>
      <trkpt lat="47.08354" lon="5.47179">
        <ele>253</ele>
        <time>2012-06-19T15:09:32Z</time>
      </trkpt>
      <trkpt lat="47.0836" lon="5.47193">
        <ele>253</ele>
        <time>2012-06-19T15:09:35Z</time>
      </trkpt>
      <trkpt lat="47.08364" lon="5.47207">
        <ele>253</ele>
        <time>2012-06-19T15:09:38Z</time>
      </trkpt>
      <trkpt lat="47.08366" lon="5.47223">
        <ele>253</ele>
        <time>2012-06-19T15:09:41Z</time>
      </trkpt>
      <trkpt lat="47.08367" lon="5.4724">
        <ele>253</ele>
        <time>2012-06-19T15:09:44Z</time>
      </trkpt>
      <trkpt lat="47.08367" lon="5.47254">
        <ele>259</ele>
        <time>2012-06-19T15:10:00Z</time>
      </trkpt>
      <trkpt lat="47.08368" lon="5.47271">
        <ele>259</ele>
        <time>2012-06-19T15:10:05Z</time>
      </trkpt>
      <trkpt lat="47.08369" lon="5.47287">
        <ele>259</ele>
        <time>2012-06-19T15:10:08Z</time>
      </trkpt>
      <trkpt lat="47.08371" lon="5.47304">
        <ele>259</ele>
        <time>2012-06-19T15:10:11Z</time>
      </trkpt>
      <trkpt lat="47.08372" lon="5.47318">
        <ele>259</ele>
        <time>2012-06-19T15:10:13Z</time>
      </trkpt>
      <trkpt lat="47.08373" lon="5.47331">
        <ele>259</ele>
        <time>2012-06-19T15:10:15Z</time>
      </trkpt>
      <trkpt lat="47.08375" lon="5.47345">
        <ele>259</ele>
        <time>2012-06-19T15:10:17Z</time>
      </trkpt>
      <trkpt lat="47.08378" lon="5.47358">
        <ele>259</ele>
        <time>2012-06-19T15:10:19Z</time>
      </trkpt>
      <trkpt lat="47.08381" lon="5.47372">
        <ele>259</ele>
        <time>2012-06-19T15:10:21Z</time>
      </trkpt>
      <trkpt lat="47.08385" lon="5.47387">
        <ele>259</ele>
        <time>2012-06-19T15:10:23Z</time>
      </trkpt>
      <trkpt lat="47.08387" lon="5.47402">
        <ele>259</ele>
        <time>2012-06-19T15:10:25Z</time>
      </trkpt>
      <trkpt lat="47.08392" lon="5.47416">
        <ele>259</ele>
        <time>2012-06-19T15:10:27Z</time>
      </trkpt>
      <trkpt lat="47.08396" lon="5.47432">
        <ele>259</ele>
        <time>2012-06-19T15:10:29Z</time>
      </trkpt>
      <trkpt lat="47.084" lon="5.4745">
        <ele>259</ele>
        <time>2012-06-19T15:10:31Z</time>
      </trkpt>
      <trkpt lat="47.08405" lon="5.47467">
        <ele>254</ele>
        <time>2012-06-19T15:10:33Z</time>
      </trkpt>
      <trkpt lat="47.0841" lon="5.47485">
        <ele>254</ele>
        <time>2012-06-19T15:10:35Z</time>
      </trkpt>
      <trkpt lat="47.08414" lon="5.47503">
        <ele>254</ele>
        <time>2012-06-19T15:10:37Z</time>
      </trkpt>
      <trkpt lat="47.08419" lon="5.47521">
        <ele>254</ele>
        <time>2012-06-19T15:10:39Z</time>
      </trkpt>
      <trkpt lat="47.08424" lon="5.47539">
        <ele>254</ele>
        <time>2012-06-19T15:10:41Z</time>
      </trkpt>
      <trkpt lat="47.08429" lon="5.47557">
        <ele>254</ele>
        <time>2012-06-19T15:10:43Z</time>
      </trkpt>
      <trkpt lat="47.08434" lon="5.47576">
        <ele>254</ele>
        <time>2012-06-19T15:10:45Z</time>
      </trkpt>
      <trkpt lat="47.08438" lon="5.47595">
        <ele>249</ele>
        <time>2012-06-19T15:10:47Z</time>
      </trkpt>
      <trkpt lat="47.08443" lon="5.47614">
        <ele>249</ele>
        <time>2012-06-19T15:10:49Z</time>
      </trkpt>
      <trkpt lat="47.08449" lon="5.47633">
        <ele>249</ele>
        <time>2012-06-19T15:10:51Z</time>
      </trkpt>
      <trkpt lat="47.08454" lon="5.47653">
        <ele>249</ele>
        <time>2012-06-19T15:10:53Z</time>
      </trkpt>
      <trkpt lat="47.08459" lon="5.47672">
        <ele>249</ele>
        <time>2012-06-19T15:10:55Z</time>
      </trkpt>
      <trkpt lat="47.08465" lon="5.47693">
        <ele>249</ele>
        <time>2012-06-19T15:10:57Z</time>
      </trkpt>
      <trkpt lat="47.0847" lon="5.47714">
        <ele>249</ele>
        <time>2012-06-19T15:10:59Z</time>
      </trkpt>
      <trkpt lat="47.08476" lon="5.47735">
        <ele>249</ele>
        <time>2012-06-19T15:11:01Z</time>
      </trkpt>
      <trkpt lat="47.08483" lon="5.47759">
        <ele>243</ele>
        <time>2012-06-19T15:11:03Z</time>
      </trkpt>
      <trkpt lat="47.08486" lon="5.47771">
        <ele>243</ele>
        <time>2012-06-19T15:11:04Z</time>
      </trkpt>
      <trkpt lat="47.08489" lon="5.47784">
        <ele>243</ele>
        <time>2012-06-19T15:11:05Z</time>
      </trkpt>
      <trkpt lat="47.08494" lon="5.47797">
        <ele>243</ele>
        <time>2012-06-19T15:11:06Z</time>
      </trkpt>
      <trkpt lat="47.08499" lon="5.4781">
        <ele>243</ele>
        <time>2012-06-19T15:11:07Z</time>
      </trkpt>
      <trkpt lat="47.08505" lon="5.47822">
        <ele>243</ele>
        <time>2012-06-19T15:11:08Z</time>
      </trkpt>
      <trkpt lat="47.08511" lon="5.47835">
        <ele>243</ele>
        <time>2012-06-19T15:11:09Z</time>
      </trkpt>
      <trkpt lat="47.08518" lon="5.47847">
        <ele>243</ele>
        <time>2012-06-19T15:11:10Z</time>
      </trkpt>
      <trkpt lat="47.08527" lon="5.47858">
        <ele>243</ele>
        <time>2012-06-19T15:11:11Z</time>
      </trkpt>
      <trkpt lat="47.08536" lon="5.47868">
        <ele>237</ele>
        <time>2012-06-19T15:11:12Z</time>
      </trkpt>
      <trkpt lat="47.08546" lon="5.47879">
        <ele>237</ele>
        <time>2012-06-19T15:11:13Z</time>
      </trkpt>
      <trkpt lat="47.08557" lon="5.47889">
        <ele>237</ele>
        <time>2012-06-19T15:11:14Z</time>
      </trkpt>
      <trkpt lat="47.08569" lon="5.479">
        <ele>237</ele>
        <time>2012-06-19T15:11:15Z</time>
      </trkpt>
      <trkpt lat="47.0858" lon="5.47909">
        <ele>237</ele>
        <time>2012-06-19T15:11:16Z</time>
      </trkpt>
      <trkpt lat="47.08592" lon="5.4792">
        <ele>231</ele>
        <time>2012-06-19T15:11:17Z</time>
      </trkpt>
      <trkpt lat="47.08605" lon="5.47931">
        <ele>231</ele>
        <time>2012-06-19T15:11:18Z</time>
      </trkpt>
      <trkpt lat="47.08617" lon="5.47942">
        <ele>231</ele>
        <time>2012-06-19T15:11:19Z</time>
      </trkpt>
      <trkpt lat="47.0863" lon="5.47951">
        <ele>231</ele>
        <time>2012-06-19T15:11:20Z</time>
      </trkpt>
      <trkpt lat="47.08643" lon="5.47959">
        <ele>231</ele>
        <time>2012-06-19T15:11:21Z</time>
      </trkpt>
      <trkpt lat="47.08657" lon="5.47965">
        <ele>231</ele>
        <time>2012-06-19T15:11:22Z</time>
      </trkpt>
      <trkpt lat="47.0867" lon="5.4797">
        <ele>231</ele>
        <time>2012-06-19T15:11:23Z</time>
      </trkpt>
      <trkpt lat="47.08684" lon="5.47973">
        <ele>231</ele>
        <time>2012-06-19T15:11:24Z</time>
      </trkpt>
      <trkpt lat="47.08696" lon="5.47976">
        <ele>231</ele>
        <time>2012-06-19T15:11:25Z</time>
      </trkpt>
      <trkpt lat="47.08708" lon="5.4798">
        <ele>231</ele>
        <time>2012-06-19T15:11:26Z</time>
      </trkpt>
      <trkpt lat="47.08719" lon="5.47983">
        <ele>231</ele>
        <time>2012-06-19T15:11:27Z</time>
      </trkpt>
      <trkpt lat="47.0873" lon="5.47987">
        <ele>231</ele>
        <time>2012-06-19T15:11:28Z</time>
      </trkpt>
      <trkpt lat="47.08741" lon="5.47991">
        <ele>231</ele>
        <time>2012-06-19T15:11:29Z</time>
      </trkpt>
      <trkpt lat="47.08751" lon="5.47996">
        <ele>231</ele>
        <time>2012-06-19T15:11:30Z</time>
      </trkpt>
      <trkpt lat="47.08761" lon="5.48001">
        <ele>231</ele>
        <time>2012-06-19T15:11:31Z</time>
      </trkpt>
      <trkpt lat="47.0877" lon="5.48007">
        <ele>231</ele>
        <time>2012-06-19T15:11:32Z</time>
      </trkpt>
      <trkpt lat="47.0878" lon="5.48013">
        <ele>231</ele>
        <time>2012-06-19T15:11:33Z</time>
      </trkpt>
      <trkpt lat="47.08787" lon="5.48019">
        <ele>231</ele>
        <time>2012-06-19T15:11:34Z</time>
      </trkpt>
      <trkpt lat="47.08796" lon="5.48026">
        <ele>231</ele>
        <time>2012-06-19T15:11:35Z</time>
      </trkpt>
      <trkpt lat="47.08811" lon="5.48041">
        <ele>231</ele>
        <time>2012-06-19T15:11:37Z</time>
      </trkpt>
      <trkpt lat="47.0882" lon="5.48048">
        <ele>231</ele>
        <time>2012-06-19T15:11:38Z</time>
      </trkpt>
      <trkpt lat="47.08828" lon="5.48057">
        <ele>231</ele>
        <time>2012-06-19T15:11:39Z</time>
      </trkpt>
      <trkpt lat="47.08835" lon="5.48065">
        <ele>231</ele>
        <time>2012-06-19T15:11:40Z</time>
      </trkpt>
      <trkpt lat="47.08843" lon="5.48074">
        <ele>231</ele>
        <time>2012-06-19T15:11:41Z</time>
      </trkpt>
      <trkpt lat="47.08857" lon="5.48091">
        <ele>231</ele>
        <time>2012-06-19T15:11:43Z</time>
      </trkpt>
      <trkpt lat="47.08864" lon="5.481">
        <ele>231</ele>
        <time>2012-06-19T15:11:44Z</time>
      </trkpt>
      <trkpt lat="47.08877" lon="5.48115">
        <ele>231</ele>
        <time>2012-06-19T15:11:46Z</time>
      </trkpt>
      <trkpt lat="47.08887" lon="5.48128">
        <ele>231</ele>
        <time>2012-06-19T15:11:48Z</time>
      </trkpt>
      <trkpt lat="47.08895" lon="5.4814">
        <ele>231</ele>
        <time>2012-06-19T15:11:51Z</time>
      </trkpt>
      <trkpt lat="47.08903" lon="5.48152">
        <ele>231</ele>
        <time>2012-06-19T15:11:54Z</time>
      </trkpt>
      <trkpt lat="47.08913" lon="5.4816">
        <ele>231</ele>
        <time>2012-06-19T15:11:58Z</time>
      </trkpt>
      <trkpt lat="47.08922" lon="5.48172">
        <ele>231</ele>
        <time>2012-06-19T15:12:01Z</time>
      </trkpt>
      <trkpt lat="47.0893" lon="5.48181">
        <ele>231</ele>
        <time>2012-06-19T15:12:03Z</time>
      </trkpt>
      <trkpt lat="47.08938" lon="5.48191">
        <ele>231</ele>
        <time>2012-06-19T15:12:05Z</time>
      </trkpt>
      <trkpt lat="47.08948" lon="5.48202">
        <ele>231</ele>
        <time>2012-06-19T15:12:07Z</time>
      </trkpt>
      <trkpt lat="47.08957" lon="5.48214">
        <ele>231</ele>
        <time>2012-06-19T15:12:09Z</time>
      </trkpt>
      <trkpt lat="47.08967" lon="5.48227">
        <ele>231</ele>
        <time>2012-06-19T15:12:11Z</time>
      </trkpt>
      <trkpt lat="47.08976" lon="5.48239">
        <ele>231</ele>
        <time>2012-06-19T15:12:13Z</time>
      </trkpt>
      <trkpt lat="47.08987" lon="5.48253">
        <ele>231</ele>
        <time>2012-06-19T15:12:15Z</time>
      </trkpt>
      <trkpt lat="47.08998" lon="5.48266">
        <ele>231</ele>
        <time>2012-06-19T15:12:17Z</time>
      </trkpt>
      <trkpt lat="47.09009" lon="5.48279">
        <ele>231</ele>
        <time>2012-06-19T15:12:19Z</time>
      </trkpt>
      <trkpt lat="47.09021" lon="5.48291">
        <ele>231</ele>
        <time>2012-06-19T15:12:21Z</time>
      </trkpt>
      <trkpt lat="47.09031" lon="5.48306">
        <ele>231</ele>
        <time>2012-06-19T15:12:23Z</time>
      </trkpt>
      <trkpt lat="47.09042" lon="5.48319">
        <ele>231</ele>
        <time>2012-06-19T15:12:25Z</time>
      </trkpt>
      <trkpt lat="47.09052" lon="5.48333">
        <ele>231</ele>
        <time>2012-06-19T15:12:27Z</time>
      </trkpt>
      <trkpt lat="47.09062" lon="5.48345">
        <ele>231</ele>
        <time>2012-06-19T15:12:29Z</time>
      </trkpt>
      <trkpt lat="47.09073" lon="5.48357">
        <ele>231</ele>
        <time>2012-06-19T15:12:31Z</time>
      </trkpt>
      <trkpt lat="47.09084" lon="5.48369">
        <ele>231</ele>
        <time>2012-06-19T15:12:33Z</time>
      </trkpt>
      <trkpt lat="47.09094" lon="5.48381">
        <ele>231</ele>
        <time>2012-06-19T15:12:35Z</time>
      </trkpt>
      <trkpt lat="47.09103" lon="5.48393">
        <ele>231</ele>
        <time>2012-06-19T15:12:37Z</time>
      </trkpt>
      <trkpt lat="47.09111" lon="5.48404">
        <ele>231</ele>
        <time>2012-06-19T15:12:39Z</time>
      </trkpt>
      <trkpt lat="47.09118" lon="5.48416">
        <ele>231</ele>
        <time>2012-06-19T15:12:41Z</time>
      </trkpt>
      <trkpt lat="47.09126" lon="5.48428">
        <ele>231</ele>
        <time>2012-06-19T15:12:43Z</time>
      </trkpt>
      <trkpt lat="47.09132" lon="5.48439">
        <ele>231</ele>
        <time>2012-06-19T15:12:45Z</time>
      </trkpt>
      <trkpt lat="47.09139" lon="5.48449">
        <ele>231</ele>
        <time>2012-06-19T15:12:47Z</time>
      </trkpt>
      <trkpt lat="47.09143" lon="5.48462">
        <ele>231</ele>
        <time>2012-06-19T15:12:49Z</time>
      </trkpt>
      <trkpt lat="47.0914" lon="5.48475">
        <ele>231</ele>
        <time>2012-06-19T15:12:51Z</time>
      </trkpt>
      <trkpt lat="47.09134" lon="5.48485">
        <ele>231</ele>
        <time>2012-06-19T15:12:53Z</time>
      </trkpt>
      <trkpt lat="47.09125" lon="5.48496">
        <ele>231</ele>
        <time>2012-06-19T15:12:55Z</time>
      </trkpt>
      <trkpt lat="47.09116" lon="5.48508">
        <ele>231</ele>
        <time>2012-06-19T15:12:57Z</time>
      </trkpt>
      <trkpt lat="47.09106" lon="5.48521">
        <ele>231</ele>
        <time>2012-06-19T15:12:59Z</time>
      </trkpt>
      <trkpt lat="47.09095" lon="5.48534">
        <ele>231</ele>
        <time>2012-06-19T15:13:01Z</time>
      </trkpt>
      <trkpt lat="47.09084" lon="5.48549">
        <ele>231</ele>
        <time>2012-06-19T15:13:03Z</time>
      </trkpt>
      <trkpt lat="47.09072" lon="5.48564">
        <ele>231</ele>
        <time>2012-06-19T15:13:05Z</time>
      </trkpt>
      <trkpt lat="47.09061" lon="5.4858">
        <ele>231</ele>
        <time>2012-06-19T15:13:07Z</time>
      </trkpt>
      <trkpt lat="47.0905" lon="5.48593">
        <ele>231</ele>
        <time>2012-06-19T15:13:09Z</time>
      </trkpt>
      <trkpt lat="47.09042" lon="5.48602">
        <ele>231</ele>
        <time>2012-06-19T15:13:11Z</time>
      </trkpt>
      <trkpt lat="47.09031" lon="5.48608">
        <ele>231</ele>
        <time>2012-06-19T15:13:14Z</time>
      </trkpt>
      <trkpt lat="47.09021" lon="5.48599">
        <ele>231</ele>
        <time>2012-06-19T15:13:17Z</time>
      </trkpt>
      <trkpt lat="47.09013" lon="5.48588">
        <ele>231</ele>
        <time>2012-06-19T15:13:19Z</time>
      </trkpt>
      <trkpt lat="47.09004" lon="5.48576">
        <ele>231</ele>
        <time>2012-06-19T15:13:21Z</time>
      </trkpt>
      <trkpt lat="47.08994" lon="5.48563">
        <ele>231</ele>
        <time>2012-06-19T15:13:23Z</time>
      </trkpt>
      <trkpt lat="47.08986" lon="5.48549">
        <ele>231</ele>
        <time>2012-06-19T15:13:25Z</time>
      </trkpt>
      <trkpt lat="47.08977" lon="5.48535">
        <ele>231</ele>
        <time>2012-06-19T15:13:27Z</time>
      </trkpt>
      <trkpt lat="47.08969" lon="5.48521">
        <ele>231</ele>
        <time>2012-06-19T15:13:29Z</time>
      </trkpt>
      <trkpt lat="47.08963" lon="5.4851">
        <ele>231</ele>
        <time>2012-06-19T15:13:31Z</time>
      </trkpt>
      <trkpt lat="47.08965" lon="5.48494">
        <ele>231</ele>
        <time>2012-06-19T15:13:35Z</time>
      </trkpt>
      <trkpt lat="47.08974" lon="5.48482">
        <ele>231</ele>
        <time>2012-06-19T15:13:38Z</time>
      </trkpt>
      <trkpt lat="47.08983" lon="5.48485">
        <ele>231</ele>
        <time>2012-06-19T15:13:41Z</time>
      </trkpt>
      <trkpt lat="47.08988" lon="5.48496">
        <ele>231</ele>
        <time>2012-06-19T15:13:43Z</time>
      </trkpt>
      <trkpt lat="47.08995" lon="5.48507">
        <ele>231</ele>
        <time>2012-06-19T15:13:46Z</time>
      </trkpt>
      <trkpt lat="47.08991" lon="5.48519">
        <ele>231</ele>
        <time>2012-06-19T15:13:59Z</time>
      </trkpt>
      <trkpt lat="47.08982" lon="5.48519">
        <ele>231</ele>
        <time>2012-06-19T15:14:09Z</time>
      </trkpt>
      <trkpt lat="47.08973" lon="5.48512">
        <ele>224</ele>
        <time>2012-06-19T15:14:13Z</time>
      </trkpt>
      <trkpt lat="47.08944" lon="5.48514">
        <ele>214</ele>
        <time>2012-06-19T15:14:27Z</time>
      </trkpt>
      <trkpt lat="47.08954" lon="5.48518">
        <ele>214</ele>
        <time>2012-06-19T15:14:29Z</time>
      </trkpt>
      <trkpt lat="47.08967" lon="5.48524">
        <ele>214</ele>
        <time>2012-06-19T15:14:31Z</time>
      </trkpt>
      <trkpt lat="47.08977" lon="5.4853">
        <ele>214</ele>
        <time>2012-06-19T15:14:44Z</time>
      </trkpt>
      <trkpt lat="47.08987" lon="5.48534">
        <ele>214</ele>
        <time>2012-06-19T15:14:48Z</time>
      </trkpt>
      <trkpt lat="47.08997" lon="5.48526">
        <ele>209</ele>
        <time>2012-06-19T15:14:55Z</time>
      </trkpt>
      <trkpt lat="47.08969" lon="5.48519">
        <ele>203</ele>
        <time>2012-06-19T15:15:12Z</time>
      </trkpt>
      <trkpt lat="47.08993" lon="5.48533">
        <ele>242</ele>
        <time>2012-06-19T15:16:38Z</time>
      </trkpt>
      <trkpt lat="47.09002" lon="5.48545">
        <ele>242</ele>
        <time>2012-06-19T15:16:39Z</time>
      </trkpt>
      <trkpt lat="47.08978" lon="5.48499">
        <ele>223</ele>
        <time>2012-06-19T15:16:54Z</time>
      </trkpt>
      <trkpt lat="47.08968" lon="5.48495">
        <ele>238</ele>
        <time>2012-06-19T15:16:55Z</time>
      </trkpt>
      <trkpt lat="47.08974" lon="5.48505">
        <ele>232</ele>
        <time>2012-06-19T15:17:09Z</time>
      </trkpt>
      <trkpt lat="47.08981" lon="5.48515">
        <ele>232</ele>
        <time>2012-06-19T15:17:14Z</time>
      </trkpt>
      <trkpt lat="47.08967" lon="5.48509">
        <ele>232</ele>
        <time>2012-06-19T15:17:30Z</time>
      </trkpt>
      <trkpt lat="47.08957" lon="5.48494">
        <ele>232</ele>
        <time>2012-06-19T15:17:40Z</time>
      </trkpt>
      <trkpt lat="47.08953" lon="5.48478">
        <ele>232</ele>
        <time>2012-06-19T15:17:44Z</time>
      </trkpt>
      <trkpt lat="47.08962" lon="5.48484">
        <ele>225</ele>
        <time>2012-06-19T15:17:50Z</time>
      </trkpt>
      <trkpt lat="47.08976" lon="5.48495">
        <ele>194</ele>
        <time>2012-06-19T15:18:10Z</time>
      </trkpt>
      <trkpt lat="47.08984" lon="5.48507">
        <ele>194</ele>
        <time>2012-06-19T15:18:11Z</time>
      </trkpt>
      <trkpt lat="47.08991" lon="5.48517">
        <ele>194</ele>
        <time>2012-06-19T15:18:12Z</time>
      </trkpt>
    </trkseg>
  </trk>
</gpx>